<?xml version="1.0" encoding="UTF-8" standalone="no" ?>
<gpx xmlns="http://www.topografix.com/GPX/1/1" xmlns:xsi="http://www.w3.org/2001/XMLSchema-instance" xsi:schemaLocation="http://www.topografix.com/GPX/1/1 http://www.topografix.com/GPX/1/1/gpx.xsd" version="1.1" creator="VisuGPX - https://www.visugpx.com">
  <metadata>
    <name>Grand Tour de Besançon à VTT - Besançon Grandes Heures Nature</name>
  </metadata>
  <trk>
    <name><![CDATA[Grand Tour de Besançon à VTT - Besançon Grandes Heures Nature]]></name>
    <trkseg>
      <trkpt lat="47.22867" lon="6.04182">
        <ele>246</ele>
        <time>2000-01-01T01:24:29.000Z</time>
      </trkpt>
      <trkpt lat="47.22856" lon="6.04202">
        <ele>247</ele>
        <time>2000-01-01T01:24:39.000Z</time>
      </trkpt>
      <trkpt lat="47.22845" lon="6.04235">
        <ele>246</ele>
        <time>2000-01-01T01:24:49.000Z</time>
      </trkpt>
      <trkpt lat="47.22828" lon="6.04272">
        <ele>246</ele>
        <time>2000-01-01T01:24:59.000Z</time>
      </trkpt>
      <trkpt lat="47.22807" lon="6.04252">
        <ele>246</ele>
        <time>2000-01-01T01:25:09.000Z</time>
      </trkpt>
      <trkpt lat="47.2278" lon="6.0423">
        <ele>246</ele>
        <time>2000-01-01T01:25:19.000Z</time>
      </trkpt>
      <trkpt lat="47.22755" lon="6.04202">
        <ele>246</ele>
        <time>2000-01-01T01:25:29.000Z</time>
      </trkpt>
      <trkpt lat="47.22734" lon="6.04174">
        <ele>241</ele>
        <time>2000-01-01T01:25:39.000Z</time>
      </trkpt>
      <trkpt lat="47.22722" lon="6.04207">
        <ele>241</ele>
        <time>2000-01-01T01:25:49.000Z</time>
      </trkpt>
      <trkpt lat="47.22711" lon="6.04246">
        <ele>241</ele>
        <time>2000-01-01T01:25:59.000Z</time>
      </trkpt>
      <trkpt lat="47.22702" lon="6.04278">
        <ele>242</ele>
        <time>2000-01-01T01:26:09.000Z</time>
      </trkpt>
      <trkpt lat="47.22693" lon="6.04312">
        <ele>242</ele>
        <time>2000-01-01T01:26:19.000Z</time>
      </trkpt>
      <trkpt lat="47.22686" lon="6.0435">
        <ele>242</ele>
        <time>2000-01-01T01:26:29.000Z</time>
      </trkpt>
      <trkpt lat="47.22677" lon="6.04403">
        <ele>242</ele>
        <time>2000-01-01T01:26:39.000Z</time>
      </trkpt>
      <trkpt lat="47.22671" lon="6.0446">
        <ele>242</ele>
        <time>2000-01-01T01:26:49.000Z</time>
      </trkpt>
      <trkpt lat="47.22675" lon="6.04484">
        <ele>243.1</ele>
        <time>2000-01-01T01:26:59.000Z</time>
      </trkpt>
      <trkpt lat="47.22673" lon="6.04548">
        <ele>242</ele>
        <time>2000-01-01T01:27:09.000Z</time>
      </trkpt>
      <trkpt lat="47.22679" lon="6.04581">
        <ele>244</ele>
        <time>2000-01-01T01:27:19.000Z</time>
      </trkpt>
      <trkpt lat="47.22686" lon="6.04615">
        <ele>244</ele>
        <time>2000-01-01T01:27:29.000Z</time>
      </trkpt>
      <trkpt lat="47.22687" lon="6.04654">
        <ele>243</ele>
        <time>2000-01-01T01:27:39.000Z</time>
      </trkpt>
      <trkpt lat="47.22685" lon="6.0468">
        <ele>244.6</ele>
        <time>2000-01-01T01:27:49.000Z</time>
      </trkpt>
      <trkpt lat="47.22687" lon="6.04702">
        <ele>243</ele>
        <time>2000-01-01T01:27:59.000Z</time>
      </trkpt>
      <trkpt lat="47.22696" lon="6.04751">
        <ele>243</ele>
        <time>2000-01-01T01:28:09.000Z</time>
      </trkpt>
      <trkpt lat="47.22693" lon="6.04764">
        <ele>243.4</ele>
        <time>2000-01-01T01:28:19.000Z</time>
      </trkpt>
      <trkpt lat="47.22703" lon="6.04828">
        <ele>243</ele>
        <time>2000-01-01T01:28:29.000Z</time>
      </trkpt>
      <trkpt lat="47.22711" lon="6.0487">
        <ele>243</ele>
        <time>2000-01-01T01:28:39.000Z</time>
      </trkpt>
      <trkpt lat="47.22717" lon="6.04904">
        <ele>242</ele>
        <time>2000-01-01T01:28:49.000Z</time>
      </trkpt>
      <trkpt lat="47.22725" lon="6.04945">
        <ele>242</ele>
        <time>2000-01-01T01:28:59.000Z</time>
      </trkpt>
      <trkpt lat="47.22734" lon="6.04984">
        <ele>242</ele>
        <time>2000-01-01T01:29:09.000Z</time>
      </trkpt>
      <trkpt lat="47.22747" lon="6.05044">
        <ele>241</ele>
        <time>2000-01-01T01:29:19.000Z</time>
      </trkpt>
      <trkpt lat="47.22758" lon="6.05085">
        <ele>241</ele>
        <time>2000-01-01T01:29:29.000Z</time>
      </trkpt>
      <trkpt lat="47.22767" lon="6.05119">
        <ele>241</ele>
        <time>2000-01-01T01:29:39.000Z</time>
      </trkpt>
      <trkpt lat="47.22779" lon="6.05162">
        <ele>241</ele>
        <time>2000-01-01T01:29:49.000Z</time>
      </trkpt>
      <trkpt lat="47.22791" lon="6.05199">
        <ele>241</ele>
        <time>2000-01-01T01:29:59.000Z</time>
      </trkpt>
      <trkpt lat="47.22809" lon="6.05258">
        <ele>241</ele>
        <time>2000-01-01T01:30:09.000Z</time>
      </trkpt>
      <trkpt lat="47.22824" lon="6.05295">
        <ele>241</ele>
        <time>2000-01-01T01:30:19.000Z</time>
      </trkpt>
      <trkpt lat="47.22839" lon="6.05322">
        <ele>241</ele>
        <time>2000-01-01T01:30:29.000Z</time>
      </trkpt>
      <trkpt lat="47.22856" lon="6.05352">
        <ele>242</ele>
        <time>2000-01-01T01:30:39.000Z</time>
      </trkpt>
      <trkpt lat="47.22862" lon="6.0536">
        <ele>243.1</ele>
        <time>2000-01-01T01:30:49.000Z</time>
      </trkpt>
      <trkpt lat="47.22873" lon="6.05361">
        <ele>244</ele>
        <time>2000-01-01T01:30:59.000Z</time>
      </trkpt>
      <trkpt lat="47.22894" lon="6.05408">
        <ele>245</ele>
        <time>2000-01-01T01:31:09.000Z</time>
      </trkpt>
      <trkpt lat="47.22908" lon="6.05404">
        <ele>246</ele>
        <time>2000-01-01T01:31:19.000Z</time>
      </trkpt>
      <trkpt lat="47.22919" lon="6.05416">
        <ele>246</ele>
        <time>2000-01-01T01:31:29.000Z</time>
      </trkpt>
      <trkpt lat="47.22935" lon="6.05442">
        <ele>246</ele>
        <time>2000-01-01T01:31:39.000Z</time>
      </trkpt>
      <trkpt lat="47.22956" lon="6.05463">
        <ele>246</ele>
        <time>2000-01-01T01:31:49.000Z</time>
      </trkpt>
      <trkpt lat="47.22971" lon="6.05493">
        <ele>246</ele>
        <time>2000-01-01T01:31:59.000Z</time>
      </trkpt>
      <trkpt lat="47.22989" lon="6.05518">
        <ele>246</ele>
        <time>2000-01-01T01:32:09.000Z</time>
      </trkpt>
      <trkpt lat="47.23009" lon="6.05546">
        <ele>247</ele>
        <time>2000-01-01T01:32:19.000Z</time>
      </trkpt>
      <trkpt lat="47.23018" lon="6.05564">
        <ele>246</ele>
        <time>2000-01-01T01:32:29.000Z</time>
      </trkpt>
      <trkpt lat="47.23052" lon="6.05596">
        <ele>247</ele>
        <time>2000-01-01T01:32:39.000Z</time>
      </trkpt>
      <trkpt lat="47.23071" lon="6.05601">
        <ele>246</ele>
        <time>2000-01-01T01:32:49.000Z</time>
      </trkpt>
      <trkpt lat="47.23089" lon="6.05609">
        <ele>246</ele>
        <time>2000-01-01T01:32:59.000Z</time>
      </trkpt>
      <trkpt lat="47.23091" lon="6.05622">
        <ele>244.4</ele>
        <time>2000-01-01T01:33:09.000Z</time>
      </trkpt>
      <trkpt lat="47.23088" lon="6.05643">
        <ele>245</ele>
        <time>2000-01-01T01:33:19.000Z</time>
      </trkpt>
      <trkpt lat="47.2309" lon="6.05661">
        <ele>244</ele>
        <time>2000-01-01T01:33:29.000Z</time>
      </trkpt>
      <trkpt lat="47.23098" lon="6.05676">
        <ele>244</ele>
        <time>2000-01-01T01:33:39.000Z</time>
      </trkpt>
      <trkpt lat="47.23122" lon="6.05694">
        <ele>244</ele>
        <time>2000-01-01T01:33:49.000Z</time>
      </trkpt>
      <trkpt lat="47.23155" lon="6.05719">
        <ele>243</ele>
        <time>2000-01-01T01:33:59.000Z</time>
      </trkpt>
      <trkpt lat="47.23138" lon="6.05755">
        <ele>243</ele>
        <time>2000-01-01T01:34:09.000Z</time>
      </trkpt>
      <trkpt lat="47.23123" lon="6.05785">
        <ele>243</ele>
        <time>2000-01-01T01:34:19.000Z</time>
      </trkpt>
      <trkpt lat="47.23105" lon="6.05822">
        <ele>243</ele>
        <time>2000-01-01T01:34:29.000Z</time>
      </trkpt>
      <trkpt lat="47.23066" lon="6.05789">
        <ele>244</ele>
        <time>2000-01-01T01:34:39.000Z</time>
      </trkpt>
      <trkpt lat="47.23058" lon="6.05808">
        <ele>245.8</ele>
        <time>2000-01-01T01:34:49.000Z</time>
      </trkpt>
      <trkpt lat="47.23096" lon="6.05842">
        <ele>244</ele>
        <time>2000-01-01T01:34:59.000Z</time>
      </trkpt>
      <trkpt lat="47.23127" lon="6.05867">
        <ele>245</ele>
        <time>2000-01-01T01:35:09.000Z</time>
      </trkpt>
      <trkpt lat="47.23158" lon="6.05892">
        <ele>245</ele>
        <time>2000-01-01T01:35:19.000Z</time>
      </trkpt>
      <trkpt lat="47.23188" lon="6.05918">
        <ele>245</ele>
        <time>2000-01-01T01:35:29.000Z</time>
      </trkpt>
      <trkpt lat="47.23209" lon="6.05935">
        <ele>245</ele>
        <time>2000-01-01T01:35:39.000Z</time>
      </trkpt>
      <trkpt lat="47.2323" lon="6.05952">
        <ele>245</ele>
        <time>2000-01-01T01:35:49.000Z</time>
      </trkpt>
      <trkpt lat="47.23254" lon="6.0598">
        <ele>245</ele>
        <time>2000-01-01T01:35:59.000Z</time>
      </trkpt>
      <trkpt lat="47.23274" lon="6.06003">
        <ele>245</ele>
        <time>2000-01-01T01:36:09.000Z</time>
      </trkpt>
      <trkpt lat="47.23301" lon="6.06034">
        <ele>245</ele>
        <time>2000-01-01T01:36:19.000Z</time>
      </trkpt>
      <trkpt lat="47.23339" lon="6.06061">
        <ele>245</ele>
        <time>2000-01-01T01:36:29.000Z</time>
      </trkpt>
      <trkpt lat="47.23367" lon="6.06076">
        <ele>245</ele>
        <time>2000-01-01T01:36:39.000Z</time>
      </trkpt>
      <trkpt lat="47.23395" lon="6.06086">
        <ele>244</ele>
        <time>2000-01-01T01:36:49.000Z</time>
      </trkpt>
      <trkpt lat="47.23432" lon="6.06096">
        <ele>244</ele>
        <time>2000-01-01T01:36:59.000Z</time>
      </trkpt>
      <trkpt lat="47.23469" lon="6.06106">
        <ele>244</ele>
        <time>2000-01-01T01:37:09.000Z</time>
      </trkpt>
      <trkpt lat="47.23506" lon="6.06116">
        <ele>244</ele>
        <time>2000-01-01T01:37:19.000Z</time>
      </trkpt>
      <trkpt lat="47.23543" lon="6.06126">
        <ele>244</ele>
        <time>2000-01-01T01:37:29.000Z</time>
      </trkpt>
      <trkpt lat="47.23568" lon="6.06133">
        <ele>244</ele>
        <time>2000-01-01T01:37:39.000Z</time>
      </trkpt>
      <trkpt lat="47.23602" lon="6.06142">
        <ele>244</ele>
        <time>2000-01-01T01:37:49.000Z</time>
      </trkpt>
      <trkpt lat="47.23628" lon="6.06152">
        <ele>245</ele>
        <time>2000-01-01T01:37:59.000Z</time>
      </trkpt>
      <trkpt lat="47.23667" lon="6.06166">
        <ele>245</ele>
        <time>2000-01-01T01:38:09.000Z</time>
      </trkpt>
      <trkpt lat="47.23685" lon="6.06173">
        <ele>245</ele>
        <time>2000-01-01T01:38:19.000Z</time>
      </trkpt>
      <trkpt lat="47.23714" lon="6.0619">
        <ele>244</ele>
        <time>2000-01-01T01:38:29.000Z</time>
      </trkpt>
      <trkpt lat="47.23743" lon="6.06207">
        <ele>244</ele>
        <time>2000-01-01T01:38:39.000Z</time>
      </trkpt>
      <trkpt lat="47.23776" lon="6.06226">
        <ele>245</ele>
        <time>2000-01-01T01:38:49.000Z</time>
      </trkpt>
      <trkpt lat="47.23798" lon="6.06246">
        <ele>245</ele>
        <time>2000-01-01T01:38:59.000Z</time>
      </trkpt>
      <trkpt lat="47.23826" lon="6.06273">
        <ele>245</ele>
        <time>2000-01-01T01:39:09.000Z</time>
      </trkpt>
      <trkpt lat="47.23855" lon="6.06304">
        <ele>245</ele>
        <time>2000-01-01T01:39:19.000Z</time>
      </trkpt>
      <trkpt lat="47.23876" lon="6.06331">
        <ele>245</ele>
        <time>2000-01-01T01:39:29.000Z</time>
      </trkpt>
      <trkpt lat="47.23908" lon="6.06374">
        <ele>245</ele>
        <time>2000-01-01T01:39:39.000Z</time>
      </trkpt>
      <trkpt lat="47.23926" lon="6.06401">
        <ele>245</ele>
        <time>2000-01-01T01:39:49.000Z</time>
      </trkpt>
      <trkpt lat="47.23949" lon="6.06436">
        <ele>245</ele>
        <time>2000-01-01T01:39:59.000Z</time>
      </trkpt>
      <trkpt lat="47.23971" lon="6.06462">
        <ele>246</ele>
        <time>2000-01-01T01:40:09.000Z</time>
      </trkpt>
      <trkpt lat="47.24007" lon="6.06503">
        <ele>246</ele>
        <time>2000-01-01T01:40:19.000Z</time>
      </trkpt>
      <trkpt lat="47.24014" lon="6.06516">
        <ele>246.1</ele>
        <time>2000-01-01T01:40:29.000Z</time>
      </trkpt>
      <trkpt lat="47.24057" lon="6.06555">
        <ele>246</ele>
        <time>2000-01-01T01:40:39.000Z</time>
      </trkpt>
      <trkpt lat="47.24091" lon="6.066">
        <ele>246</ele>
        <time>2000-01-01T01:40:49.000Z</time>
      </trkpt>
      <trkpt lat="47.24117" lon="6.06629">
        <ele>246</ele>
        <time>2000-01-01T01:40:59.000Z</time>
      </trkpt>
      <trkpt lat="47.24143" lon="6.06658">
        <ele>246</ele>
        <time>2000-01-01T01:41:09.000Z</time>
      </trkpt>
      <trkpt lat="47.24161" lon="6.06679">
        <ele>246</ele>
        <time>2000-01-01T01:41:19.000Z</time>
      </trkpt>
      <trkpt lat="47.2418" lon="6.067">
        <ele>246</ele>
        <time>2000-01-01T01:41:29.000Z</time>
      </trkpt>
      <trkpt lat="47.24187" lon="6.06697">
        <ele>245.8</ele>
        <time>2000-01-01T01:41:39.000Z</time>
      </trkpt>
      <trkpt lat="47.24219" lon="6.06718">
        <ele>246</ele>
        <time>2000-01-01T01:41:49.000Z</time>
      </trkpt>
      <trkpt lat="47.24247" lon="6.06732">
        <ele>246</ele>
        <time>2000-01-01T01:41:59.000Z</time>
      </trkpt>
      <trkpt lat="47.24282" lon="6.06745">
        <ele>245</ele>
        <time>2000-01-01T01:42:09.000Z</time>
      </trkpt>
      <trkpt lat="47.24317" lon="6.06759">
        <ele>245</ele>
        <time>2000-01-01T01:42:19.000Z</time>
      </trkpt>
      <trkpt lat="47.24352" lon="6.06772">
        <ele>246</ele>
        <time>2000-01-01T01:42:29.000Z</time>
      </trkpt>
      <trkpt lat="47.24377" lon="6.06782">
        <ele>246</ele>
        <time>2000-01-01T01:42:39.000Z</time>
      </trkpt>
      <trkpt lat="47.24412" lon="6.06795">
        <ele>246</ele>
        <time>2000-01-01T01:42:49.000Z</time>
      </trkpt>
      <trkpt lat="47.24439" lon="6.06807">
        <ele>246</ele>
        <time>2000-01-01T01:42:59.000Z</time>
      </trkpt>
      <trkpt lat="47.24461" lon="6.06817">
        <ele>246</ele>
        <time>2000-01-01T01:43:09.000Z</time>
      </trkpt>
      <trkpt lat="47.24483" lon="6.06827">
        <ele>246</ele>
        <time>2000-01-01T01:43:19.000Z</time>
      </trkpt>
      <trkpt lat="47.24505" lon="6.06839">
        <ele>246</ele>
        <time>2000-01-01T01:43:29.000Z</time>
      </trkpt>
      <trkpt lat="47.24528" lon="6.06851">
        <ele>246</ele>
        <time>2000-01-01T01:43:39.000Z</time>
      </trkpt>
      <trkpt lat="47.24566" lon="6.06878">
        <ele>246</ele>
        <time>2000-01-01T01:43:49.000Z</time>
      </trkpt>
      <trkpt lat="47.24586" lon="6.06902">
        <ele>246</ele>
        <time>2000-01-01T01:43:59.000Z</time>
      </trkpt>
      <trkpt lat="47.24611" lon="6.06932">
        <ele>246</ele>
        <time>2000-01-01T01:44:09.000Z</time>
      </trkpt>
      <trkpt lat="47.24632" lon="6.06963">
        <ele>246</ele>
        <time>2000-01-01T01:44:19.000Z</time>
      </trkpt>
      <trkpt lat="47.24651" lon="6.06989">
        <ele>246</ele>
        <time>2000-01-01T01:44:29.000Z</time>
      </trkpt>
      <trkpt lat="47.24673" lon="6.07021">
        <ele>246</ele>
        <time>2000-01-01T01:44:39.000Z</time>
      </trkpt>
      <trkpt lat="47.24698" lon="6.07052">
        <ele>246</ele>
        <time>2000-01-01T01:44:49.000Z</time>
      </trkpt>
      <trkpt lat="47.24717" lon="6.07082">
        <ele>246</ele>
        <time>2000-01-01T01:44:59.000Z</time>
      </trkpt>
      <trkpt lat="47.24747" lon="6.07129">
        <ele>246</ele>
        <time>2000-01-01T01:45:09.000Z</time>
      </trkpt>
      <trkpt lat="47.24765" lon="6.0716">
        <ele>246</ele>
        <time>2000-01-01T01:45:19.000Z</time>
      </trkpt>
      <trkpt lat="47.24793" lon="6.07207">
        <ele>246</ele>
        <time>2000-01-01T01:45:29.000Z</time>
      </trkpt>
      <trkpt lat="47.24815" lon="6.07237">
        <ele>245</ele>
        <time>2000-01-01T01:45:39.000Z</time>
      </trkpt>
      <trkpt lat="47.24833" lon="6.07262">
        <ele>245</ele>
        <time>2000-01-01T01:45:49.000Z</time>
      </trkpt>
      <trkpt lat="47.24855" lon="6.07292">
        <ele>245</ele>
        <time>2000-01-01T01:45:59.000Z</time>
      </trkpt>
      <trkpt lat="47.24876" lon="6.07316">
        <ele>245</ele>
        <time>2000-01-01T01:46:09.000Z</time>
      </trkpt>
      <trkpt lat="47.24902" lon="6.07337">
        <ele>245</ele>
        <time>2000-01-01T01:46:19.000Z</time>
      </trkpt>
      <trkpt lat="47.24923" lon="6.07354">
        <ele>245</ele>
        <time>2000-01-01T01:46:29.000Z</time>
      </trkpt>
      <trkpt lat="47.24948" lon="6.07374">
        <ele>245</ele>
        <time>2000-01-01T01:46:39.000Z</time>
      </trkpt>
      <trkpt lat="47.24977" lon="6.07399">
        <ele>245</ele>
        <time>2000-01-01T01:46:49.000Z</time>
      </trkpt>
      <trkpt lat="47.25006" lon="6.07423">
        <ele>245</ele>
        <time>2000-01-01T01:46:59.000Z</time>
      </trkpt>
      <trkpt lat="47.25028" lon="6.07442">
        <ele>245</ele>
        <time>2000-01-01T01:47:09.000Z</time>
      </trkpt>
      <trkpt lat="47.25057" lon="6.07467">
        <ele>245</ele>
        <time>2000-01-01T01:47:19.000Z</time>
      </trkpt>
      <trkpt lat="47.25078" lon="6.0749">
        <ele>245</ele>
        <time>2000-01-01T01:47:29.000Z</time>
      </trkpt>
      <trkpt lat="47.25108" lon="6.07522">
        <ele>245</ele>
        <time>2000-01-01T01:47:39.000Z</time>
      </trkpt>
      <trkpt lat="47.25128" lon="6.07549">
        <ele>246</ele>
        <time>2000-01-01T01:47:49.000Z</time>
      </trkpt>
      <trkpt lat="47.25158" lon="6.07589">
        <ele>246</ele>
        <time>2000-01-01T01:47:59.000Z</time>
      </trkpt>
      <trkpt lat="47.25175" lon="6.07615">
        <ele>246</ele>
        <time>2000-01-01T01:48:09.000Z</time>
      </trkpt>
      <trkpt lat="47.25197" lon="6.07657">
        <ele>247</ele>
        <time>2000-01-01T01:48:19.000Z</time>
      </trkpt>
      <trkpt lat="47.25209" lon="6.07684">
        <ele>247</ele>
        <time>2000-01-01T01:48:29.000Z</time>
      </trkpt>
      <trkpt lat="47.25228" lon="6.07738">
        <ele>247</ele>
        <time>2000-01-01T01:48:39.000Z</time>
      </trkpt>
      <trkpt lat="47.25237" lon="6.07773">
        <ele>247</ele>
        <time>2000-01-01T01:48:49.000Z</time>
      </trkpt>
      <trkpt lat="47.25248" lon="6.07816">
        <ele>247</ele>
        <time>2000-01-01T01:48:59.000Z</time>
      </trkpt>
      <trkpt lat="47.25255" lon="6.07854">
        <ele>247</ele>
        <time>2000-01-01T01:49:09.000Z</time>
      </trkpt>
      <trkpt lat="47.25266" lon="6.07907">
        <ele>247</ele>
        <time>2000-01-01T01:49:19.000Z</time>
      </trkpt>
      <trkpt lat="47.25278" lon="6.07946">
        <ele>247</ele>
        <time>2000-01-01T01:49:29.000Z</time>
      </trkpt>
      <trkpt lat="47.25289" lon="6.07975">
        <ele>247</ele>
        <time>2000-01-01T01:49:39.000Z</time>
      </trkpt>
      <trkpt lat="47.25301" lon="6.08005">
        <ele>246</ele>
        <time>2000-01-01T01:49:49.000Z</time>
      </trkpt>
      <trkpt lat="47.25299" lon="6.08015">
        <ele>247.9</ele>
        <time>2000-01-01T01:49:59.000Z</time>
      </trkpt>
      <trkpt lat="47.25326" lon="6.0805">
        <ele>246</ele>
        <time>2000-01-01T01:50:09.000Z</time>
      </trkpt>
      <trkpt lat="47.25346" lon="6.08072">
        <ele>246</ele>
        <time>2000-01-01T01:50:19.000Z</time>
      </trkpt>
      <trkpt lat="47.25371" lon="6.08098">
        <ele>246</ele>
        <time>2000-01-01T01:50:29.000Z</time>
      </trkpt>
      <trkpt lat="47.25396" lon="6.08116">
        <ele>246</ele>
        <time>2000-01-01T01:50:39.000Z</time>
      </trkpt>
      <trkpt lat="47.25434" lon="6.08145">
        <ele>246</ele>
        <time>2000-01-01T01:50:49.000Z</time>
      </trkpt>
      <trkpt lat="47.25457" lon="6.08167">
        <ele>246</ele>
        <time>2000-01-01T01:50:59.000Z</time>
      </trkpt>
      <trkpt lat="47.25494" lon="6.0819">
        <ele>246</ele>
        <time>2000-01-01T01:51:09.000Z</time>
      </trkpt>
      <trkpt lat="47.25531" lon="6.08212">
        <ele>246</ele>
        <time>2000-01-01T01:51:19.000Z</time>
      </trkpt>
      <trkpt lat="47.25568" lon="6.08235">
        <ele>247</ele>
        <time>2000-01-01T01:51:29.000Z</time>
      </trkpt>
      <trkpt lat="47.25605" lon="6.08257">
        <ele>247</ele>
        <time>2000-01-01T01:51:39.000Z</time>
      </trkpt>
      <trkpt lat="47.25642" lon="6.0828">
        <ele>247</ele>
        <time>2000-01-01T01:51:49.000Z</time>
      </trkpt>
      <trkpt lat="47.25679" lon="6.08303">
        <ele>247</ele>
        <time>2000-01-01T01:51:59.000Z</time>
      </trkpt>
      <trkpt lat="47.25716" lon="6.08325">
        <ele>247</ele>
        <time>2000-01-01T01:52:09.000Z</time>
      </trkpt>
      <trkpt lat="47.25753" lon="6.08348">
        <ele>247</ele>
        <time>2000-01-01T01:52:19.000Z</time>
      </trkpt>
      <trkpt lat="47.25791" lon="6.08373">
        <ele>247</ele>
        <time>2000-01-01T01:52:29.000Z</time>
      </trkpt>
      <trkpt lat="47.25817" lon="6.08393">
        <ele>247</ele>
        <time>2000-01-01T01:52:39.000Z</time>
      </trkpt>
      <trkpt lat="47.25839" lon="6.0841">
        <ele>247</ele>
        <time>2000-01-01T01:52:49.000Z</time>
      </trkpt>
      <trkpt lat="47.25864" lon="6.08429">
        <ele>246</ele>
        <time>2000-01-01T01:52:59.000Z</time>
      </trkpt>
      <trkpt lat="47.25894" lon="6.08444">
        <ele>246</ele>
        <time>2000-01-01T01:53:09.000Z</time>
      </trkpt>
      <trkpt lat="47.25925" lon="6.08459">
        <ele>247</ele>
        <time>2000-01-01T01:53:19.000Z</time>
      </trkpt>
      <trkpt lat="47.25966" lon="6.08479">
        <ele>247</ele>
        <time>2000-01-01T01:53:29.000Z</time>
      </trkpt>
      <trkpt lat="47.25988" lon="6.08495">
        <ele>247</ele>
        <time>2000-01-01T01:53:39.000Z</time>
      </trkpt>
      <trkpt lat="47.26014" lon="6.08513">
        <ele>247</ele>
        <time>2000-01-01T01:53:49.000Z</time>
      </trkpt>
      <trkpt lat="47.26044" lon="6.08531">
        <ele>246</ele>
        <time>2000-01-01T01:53:59.000Z</time>
      </trkpt>
      <trkpt lat="47.26074" lon="6.08549">
        <ele>246</ele>
        <time>2000-01-01T01:54:09.000Z</time>
      </trkpt>
      <trkpt lat="47.26096" lon="6.08561">
        <ele>246</ele>
        <time>2000-01-01T01:54:19.000Z</time>
      </trkpt>
      <trkpt lat="47.26119" lon="6.08575">
        <ele>246</ele>
        <time>2000-01-01T01:54:29.000Z</time>
      </trkpt>
      <trkpt lat="47.26148" lon="6.08599">
        <ele>246</ele>
        <time>2000-01-01T01:54:39.000Z</time>
      </trkpt>
      <trkpt lat="47.26177" lon="6.08622">
        <ele>246</ele>
        <time>2000-01-01T01:54:49.000Z</time>
      </trkpt>
      <trkpt lat="47.26199" lon="6.0864">
        <ele>246</ele>
        <time>2000-01-01T01:54:59.000Z</time>
      </trkpt>
      <trkpt lat="47.26225" lon="6.08661">
        <ele>246</ele>
        <time>2000-01-01T01:55:09.000Z</time>
      </trkpt>
      <trkpt lat="47.26257" lon="6.08677">
        <ele>246</ele>
        <time>2000-01-01T01:55:19.000Z</time>
      </trkpt>
      <trkpt lat="47.26289" lon="6.08692">
        <ele>246</ele>
        <time>2000-01-01T01:55:29.000Z</time>
      </trkpt>
      <trkpt lat="47.26315" lon="6.08705">
        <ele>246</ele>
        <time>2000-01-01T01:55:39.000Z</time>
      </trkpt>
      <trkpt lat="47.2635" lon="6.08722">
        <ele>246</ele>
        <time>2000-01-01T01:55:49.000Z</time>
      </trkpt>
      <trkpt lat="47.26377" lon="6.08732">
        <ele>246</ele>
        <time>2000-01-01T01:55:59.000Z</time>
      </trkpt>
      <trkpt lat="47.26419" lon="6.08748">
        <ele>246</ele>
        <time>2000-01-01T01:56:09.000Z</time>
      </trkpt>
      <trkpt lat="47.26453" lon="6.08767">
        <ele>246</ele>
        <time>2000-01-01T01:56:19.000Z</time>
      </trkpt>
      <trkpt lat="47.26487" lon="6.08786">
        <ele>246</ele>
        <time>2000-01-01T01:56:29.000Z</time>
      </trkpt>
      <trkpt lat="47.26521" lon="6.08805">
        <ele>246</ele>
        <time>2000-01-01T01:56:39.000Z</time>
      </trkpt>
      <trkpt lat="47.26547" lon="6.08819">
        <ele>247</ele>
        <time>2000-01-01T01:56:49.000Z</time>
      </trkpt>
      <trkpt lat="47.26587" lon="6.08841">
        <ele>247</ele>
        <time>2000-01-01T01:56:59.000Z</time>
      </trkpt>
      <trkpt lat="47.26615" lon="6.08847">
        <ele>247</ele>
        <time>2000-01-01T01:57:09.000Z</time>
      </trkpt>
      <trkpt lat="47.26639" lon="6.08852">
        <ele>248</ele>
        <time>2000-01-01T01:57:19.000Z</time>
      </trkpt>
      <trkpt lat="47.26663" lon="6.08857">
        <ele>249</ele>
        <time>2000-01-01T01:57:29.000Z</time>
      </trkpt>
      <trkpt lat="47.26698" lon="6.08877">
        <ele>249</ele>
        <time>2000-01-01T01:57:39.000Z</time>
      </trkpt>
      <trkpt lat="47.26735" lon="6.08885">
        <ele>249</ele>
        <time>2000-01-01T01:57:49.000Z</time>
      </trkpt>
      <trkpt lat="47.26712" lon="6.08923">
        <ele>253</ele>
        <time>2000-01-01T01:57:59.000Z</time>
      </trkpt>
      <trkpt lat="47.26707" lon="6.08926">
        <ele>255.4</ele>
        <time>2000-01-01T01:58:09.000Z</time>
      </trkpt>
      <trkpt lat="47.26596" lon="6.08926">
        <ele>268</ele>
        <time>2000-01-01T01:58:19.000Z</time>
      </trkpt>
      <trkpt lat="47.26563" lon="6.08923">
        <ele>272</ele>
        <time>2000-01-01T01:58:29.000Z</time>
      </trkpt>
      <trkpt lat="47.2653" lon="6.08921">
        <ele>276</ele>
        <time>2000-01-01T01:58:39.000Z</time>
      </trkpt>
      <trkpt lat="47.26505" lon="6.08919">
        <ele>276</ele>
        <time>2000-01-01T01:58:49.000Z</time>
      </trkpt>
      <trkpt lat="47.26476" lon="6.08917">
        <ele>281</ele>
        <time>2000-01-01T01:58:59.000Z</time>
      </trkpt>
      <trkpt lat="47.26454" lon="6.0891">
        <ele>281</ele>
        <time>2000-01-01T01:59:09.000Z</time>
      </trkpt>
      <trkpt lat="47.26433" lon="6.08909">
        <ele>285</ele>
        <time>2000-01-01T01:59:19.000Z</time>
      </trkpt>
      <trkpt lat="47.26429" lon="6.08914">
        <ele>288</ele>
        <time>2000-01-01T01:59:29.000Z</time>
      </trkpt>
      <trkpt lat="47.2643" lon="6.08921">
        <ele>289.3</ele>
        <time>2000-01-01T01:59:39.000Z</time>
      </trkpt>
      <trkpt lat="47.26434" lon="6.08927">
        <ele>289.6</ele>
        <time>2000-01-01T01:59:49.000Z</time>
      </trkpt>
      <trkpt lat="47.26449" lon="6.08939">
        <ele>287</ele>
        <time>2000-01-01T01:59:59.000Z</time>
      </trkpt>
      <trkpt lat="47.26469" lon="6.08963">
        <ele>290</ele>
        <time>2000-01-01T02:00:09.000Z</time>
      </trkpt>
      <trkpt lat="47.26496" lon="6.08994">
        <ele>293</ele>
        <time>2000-01-01T02:00:19.000Z</time>
      </trkpt>
      <trkpt lat="47.26493" lon="6.09">
        <ele>295.3</ele>
        <time>2000-01-01T02:00:29.000Z</time>
      </trkpt>
      <trkpt lat="47.26481" lon="6.09007">
        <ele>296.9</ele>
        <time>2000-01-01T02:00:39.000Z</time>
      </trkpt>
      <trkpt lat="47.26465" lon="6.09">
        <ele>295</ele>
        <time>2000-01-01T02:00:49.000Z</time>
      </trkpt>
      <trkpt lat="47.26451" lon="6.08997">
        <ele>298</ele>
        <time>2000-01-01T02:00:59.000Z</time>
      </trkpt>
      <trkpt lat="47.26437" lon="6.09003">
        <ele>299</ele>
        <time>2000-01-01T02:01:09.000Z</time>
      </trkpt>
      <trkpt lat="47.26418" lon="6.09029">
        <ele>300</ele>
        <time>2000-01-01T02:01:19.000Z</time>
      </trkpt>
      <trkpt lat="47.26392" lon="6.09063">
        <ele>301</ele>
        <time>2000-01-01T02:01:29.000Z</time>
      </trkpt>
      <trkpt lat="47.26374" lon="6.09089">
        <ele>301</ele>
        <time>2000-01-01T02:01:39.000Z</time>
      </trkpt>
      <trkpt lat="47.26353" lon="6.09121">
        <ele>303</ele>
        <time>2000-01-01T02:01:49.000Z</time>
      </trkpt>
      <trkpt lat="47.26339" lon="6.09164">
        <ele>306</ele>
        <time>2000-01-01T02:01:59.000Z</time>
      </trkpt>
      <trkpt lat="47.26331" lon="6.09198">
        <ele>306</ele>
        <time>2000-01-01T02:02:09.000Z</time>
      </trkpt>
      <trkpt lat="47.26323" lon="6.09235">
        <ele>308</ele>
        <time>2000-01-01T02:02:19.000Z</time>
      </trkpt>
      <trkpt lat="47.26311" lon="6.09272">
        <ele>309</ele>
        <time>2000-01-01T02:02:29.000Z</time>
      </trkpt>
      <trkpt lat="47.26293" lon="6.09331">
        <ele>313</ele>
        <time>2000-01-01T02:02:39.000Z</time>
      </trkpt>
      <trkpt lat="47.2628" lon="6.09393">
        <ele>317</ele>
        <time>2000-01-01T02:02:49.000Z</time>
      </trkpt>
      <trkpt lat="47.26271" lon="6.09404">
        <ele>319.1</ele>
        <time>2000-01-01T02:02:59.000Z</time>
      </trkpt>
      <trkpt lat="47.26253" lon="6.09411">
        <ele>320</ele>
        <time>2000-01-01T02:03:09.000Z</time>
      </trkpt>
      <trkpt lat="47.26232" lon="6.09408">
        <ele>321</ele>
        <time>2000-01-01T02:03:19.000Z</time>
      </trkpt>
      <trkpt lat="47.26193" lon="6.09398">
        <ele>326</ele>
        <time>2000-01-01T02:03:29.000Z</time>
      </trkpt>
      <trkpt lat="47.26167" lon="6.09396">
        <ele>329</ele>
        <time>2000-01-01T02:03:39.000Z</time>
      </trkpt>
      <trkpt lat="47.26158" lon="6.09401">
        <ele>331.6</ele>
        <time>2000-01-01T02:03:49.000Z</time>
      </trkpt>
      <trkpt lat="47.26154" lon="6.09415">
        <ele>332</ele>
        <time>2000-01-01T02:03:59.000Z</time>
      </trkpt>
      <trkpt lat="47.26156" lon="6.09428">
        <ele>333.4</ele>
        <time>2000-01-01T02:04:09.000Z</time>
      </trkpt>
      <trkpt lat="47.26164" lon="6.0944">
        <ele>332</ele>
        <time>2000-01-01T02:04:19.000Z</time>
      </trkpt>
      <trkpt lat="47.26185" lon="6.09452">
        <ele>333</ele>
        <time>2000-01-01T02:04:29.000Z</time>
      </trkpt>
      <trkpt lat="47.26207" lon="6.09464">
        <ele>333</ele>
        <time>2000-01-01T02:04:39.000Z</time>
      </trkpt>
      <trkpt lat="47.26225" lon="6.09486">
        <ele>335</ele>
        <time>2000-01-01T02:04:49.000Z</time>
      </trkpt>
      <trkpt lat="47.26234" lon="6.09509">
        <ele>337</ele>
        <time>2000-01-01T02:04:59.000Z</time>
      </trkpt>
      <trkpt lat="47.26261" lon="6.09615">
        <ele>342</ele>
        <time>2000-01-01T02:05:09.000Z</time>
      </trkpt>
      <trkpt lat="47.26275" lon="6.09665">
        <ele>346</ele>
        <time>2000-01-01T02:05:19.000Z</time>
      </trkpt>
      <trkpt lat="47.2629" lon="6.09715">
        <ele>352</ele>
        <time>2000-01-01T02:05:29.000Z</time>
      </trkpt>
      <trkpt lat="47.26304" lon="6.09766">
        <ele>356</ele>
        <time>2000-01-01T02:05:39.000Z</time>
      </trkpt>
      <trkpt lat="47.26318" lon="6.09816">
        <ele>360</ele>
        <time>2000-01-01T02:05:49.000Z</time>
      </trkpt>
      <trkpt lat="47.26336" lon="6.09878">
        <ele>363</ele>
        <time>2000-01-01T02:05:59.000Z</time>
      </trkpt>
      <trkpt lat="47.2635" lon="6.09925">
        <ele>364</ele>
        <time>2000-01-01T02:06:09.000Z</time>
      </trkpt>
      <trkpt lat="47.26364" lon="6.09972">
        <ele>370</ele>
        <time>2000-01-01T02:06:19.000Z</time>
      </trkpt>
      <trkpt lat="47.26378" lon="6.10019">
        <ele>372</ele>
        <time>2000-01-01T02:06:29.000Z</time>
      </trkpt>
      <trkpt lat="47.26395" lon="6.10074">
        <ele>375</ele>
        <time>2000-01-01T02:06:39.000Z</time>
      </trkpt>
      <trkpt lat="47.26406" lon="6.10117">
        <ele>376</ele>
        <time>2000-01-01T02:06:49.000Z</time>
      </trkpt>
      <trkpt lat="47.26418" lon="6.1016">
        <ele>378</ele>
        <time>2000-01-01T02:06:59.000Z</time>
      </trkpt>
      <trkpt lat="47.26431" lon="6.10209">
        <ele>380</ele>
        <time>2000-01-01T02:07:09.000Z</time>
      </trkpt>
      <trkpt lat="47.26433" lon="6.10255">
        <ele>386</ele>
        <time>2000-01-01T02:07:19.000Z</time>
      </trkpt>
      <trkpt lat="47.26428" lon="6.10291">
        <ele>389</ele>
        <time>2000-01-01T02:07:29.000Z</time>
      </trkpt>
      <trkpt lat="47.26412" lon="6.10314">
        <ele>390</ele>
        <time>2000-01-01T02:07:39.000Z</time>
      </trkpt>
      <trkpt lat="47.26389" lon="6.10327">
        <ele>394</ele>
        <time>2000-01-01T02:07:49.000Z</time>
      </trkpt>
      <trkpt lat="47.26371" lon="6.1033">
        <ele>393.6</ele>
        <time>2000-01-01T02:07:59.000Z</time>
      </trkpt>
      <trkpt lat="47.26352" lon="6.10323">
        <ele>395</ele>
        <time>2000-01-01T02:08:09.000Z</time>
      </trkpt>
      <trkpt lat="47.26329" lon="6.10303">
        <ele>396</ele>
        <time>2000-01-01T02:08:19.000Z</time>
      </trkpt>
      <trkpt lat="47.26316" lon="6.10258">
        <ele>401</ele>
        <time>2000-01-01T02:08:29.000Z</time>
      </trkpt>
      <trkpt lat="47.26303" lon="6.10212">
        <ele>402</ele>
        <time>2000-01-01T02:08:39.000Z</time>
      </trkpt>
      <trkpt lat="47.26294" lon="6.10178">
        <ele>403</ele>
        <time>2000-01-01T02:08:49.000Z</time>
      </trkpt>
      <trkpt lat="47.26282" lon="6.10136">
        <ele>405</ele>
        <time>2000-01-01T02:08:59.000Z</time>
      </trkpt>
      <trkpt lat="47.26254" lon="6.10092">
        <ele>407</ele>
        <time>2000-01-01T02:09:09.000Z</time>
      </trkpt>
      <trkpt lat="47.26235" lon="6.1007">
        <ele>409</ele>
        <time>2000-01-01T02:09:19.000Z</time>
      </trkpt>
      <trkpt lat="47.26212" lon="6.10044">
        <ele>411</ele>
        <time>2000-01-01T02:09:29.000Z</time>
      </trkpt>
      <trkpt lat="47.2618" lon="6.10028">
        <ele>413</ele>
        <time>2000-01-01T02:09:39.000Z</time>
      </trkpt>
      <trkpt lat="47.26157" lon="6.10029">
        <ele>413</ele>
        <time>2000-01-01T02:09:49.000Z</time>
      </trkpt>
      <trkpt lat="47.26139" lon="6.10061">
        <ele>413</ele>
        <time>2000-01-01T02:09:59.000Z</time>
      </trkpt>
      <trkpt lat="47.2611" lon="6.10111">
        <ele>416</ele>
        <time>2000-01-01T02:10:09.000Z</time>
      </trkpt>
      <trkpt lat="47.26107" lon="6.10152">
        <ele>417</ele>
        <time>2000-01-01T02:10:19.000Z</time>
      </trkpt>
      <trkpt lat="47.26102" lon="6.10214">
        <ele>418</ele>
        <time>2000-01-01T02:10:29.000Z</time>
      </trkpt>
      <trkpt lat="47.26096" lon="6.10247">
        <ele>422</ele>
        <time>2000-01-01T02:10:39.000Z</time>
      </trkpt>
      <trkpt lat="47.2609" lon="6.10281">
        <ele>422</ele>
        <time>2000-01-01T02:10:49.000Z</time>
      </trkpt>
      <trkpt lat="47.26076" lon="6.10312">
        <ele>423</ele>
        <time>2000-01-01T02:10:59.000Z</time>
      </trkpt>
      <trkpt lat="47.26059" lon="6.10352">
        <ele>425</ele>
        <time>2000-01-01T02:11:09.000Z</time>
      </trkpt>
      <trkpt lat="47.26033" lon="6.10349">
        <ele>428</ele>
        <time>2000-01-01T02:11:19.000Z</time>
      </trkpt>
      <trkpt lat="47.2603" lon="6.10348">
        <ele>427.7</ele>
        <time>2000-01-01T02:11:29.000Z</time>
      </trkpt>
      <trkpt lat="47.26027" lon="6.10327">
        <ele>429.5</ele>
        <time>2000-01-01T02:11:39.000Z</time>
      </trkpt>
      <trkpt lat="47.26024" lon="6.10296">
        <ele>433</ele>
        <time>2000-01-01T02:11:49.000Z</time>
      </trkpt>
      <trkpt lat="47.2602" lon="6.10282">
        <ele>433.3</ele>
        <time>2000-01-01T02:11:59.000Z</time>
      </trkpt>
      <trkpt lat="47.2601" lon="6.10258">
        <ele>436</ele>
        <time>2000-01-01T02:12:09.000Z</time>
      </trkpt>
      <trkpt lat="47.26008" lon="6.10245">
        <ele>437.5</ele>
        <time>2000-01-01T02:12:19.000Z</time>
      </trkpt>
      <trkpt lat="47.2601" lon="6.10221">
        <ele>439</ele>
        <time>2000-01-01T02:12:29.000Z</time>
      </trkpt>
      <trkpt lat="47.26008" lon="6.10203">
        <ele>441.7</ele>
        <time>2000-01-01T02:12:39.000Z</time>
      </trkpt>
      <trkpt lat="47.26008" lon="6.10194">
        <ele>444</ele>
        <time>2000-01-01T02:12:49.000Z</time>
      </trkpt>
      <trkpt lat="47.26007" lon="6.10188">
        <ele>443.7</ele>
        <time>2000-01-01T02:12:59.000Z</time>
      </trkpt>
      <trkpt lat="47.26001" lon="6.10188">
        <ele>444.6</ele>
        <time>2000-01-01T02:13:09.000Z</time>
      </trkpt>
      <trkpt lat="47.26001" lon="6.10184">
        <ele>445</ele>
        <time>2000-01-01T02:13:19.000Z</time>
      </trkpt>
      <trkpt lat="47.2598" lon="6.10174">
        <ele>448</ele>
        <time>2000-01-01T02:13:29.000Z</time>
      </trkpt>
      <trkpt lat="47.25975" lon="6.10161">
        <ele>449.4</ele>
        <time>2000-01-01T02:13:39.000Z</time>
      </trkpt>
      <trkpt lat="47.25964" lon="6.10141">
        <ele>453</ele>
        <time>2000-01-01T02:13:49.000Z</time>
      </trkpt>
      <trkpt lat="47.25944" lon="6.10101">
        <ele>457</ele>
        <time>2000-01-01T02:13:59.000Z</time>
      </trkpt>
      <trkpt lat="47.2594" lon="6.10094">
        <ele>458.7</ele>
        <time>2000-01-01T02:14:09.000Z</time>
      </trkpt>
      <trkpt lat="47.25938" lon="6.10085">
        <ele>459.6</ele>
        <time>2000-01-01T02:14:19.000Z</time>
      </trkpt>
      <trkpt lat="47.25935" lon="6.10064">
        <ele>461</ele>
        <time>2000-01-01T02:14:29.000Z</time>
      </trkpt>
      <trkpt lat="47.25933" lon="6.1006">
        <ele>461.6</ele>
        <time>2000-01-01T02:14:39.000Z</time>
      </trkpt>
      <trkpt lat="47.25926" lon="6.10015">
        <ele>466</ele>
        <time>2000-01-01T02:14:49.000Z</time>
      </trkpt>
      <trkpt lat="47.2592" lon="6.09969">
        <ele>471</ele>
        <time>2000-01-01T02:14:59.000Z</time>
      </trkpt>
      <trkpt lat="47.25912" lon="6.09914">
        <ele>474</ele>
        <time>2000-01-01T02:15:09.000Z</time>
      </trkpt>
      <trkpt lat="47.25892" lon="6.09882">
        <ele>476</ele>
        <time>2000-01-01T02:15:19.000Z</time>
      </trkpt>
      <trkpt lat="47.25875" lon="6.09853">
        <ele>478</ele>
        <time>2000-01-01T02:15:29.000Z</time>
      </trkpt>
      <trkpt lat="47.25857" lon="6.09829">
        <ele>481</ele>
        <time>2000-01-01T02:15:39.000Z</time>
      </trkpt>
      <trkpt lat="47.25836" lon="6.09801">
        <ele>483</ele>
        <time>2000-01-01T02:15:49.000Z</time>
      </trkpt>
      <trkpt lat="47.25818" lon="6.09783">
        <ele>485</ele>
        <time>2000-01-01T02:15:59.000Z</time>
      </trkpt>
      <trkpt lat="47.25789" lon="6.09756">
        <ele>489</ele>
        <time>2000-01-01T02:16:09.000Z</time>
      </trkpt>
      <trkpt lat="47.25779" lon="6.09749">
        <ele>489.9</ele>
        <time>2000-01-01T02:16:19.000Z</time>
      </trkpt>
      <trkpt lat="47.25778" lon="6.09748">
        <ele>490</ele>
        <time>2000-01-01T02:16:29.000Z</time>
      </trkpt>
      <trkpt lat="47.25758" lon="6.09729">
        <ele>492</ele>
        <time>2000-01-01T02:16:39.000Z</time>
      </trkpt>
      <trkpt lat="47.25743" lon="6.0971">
        <ele>493</ele>
        <time>2000-01-01T02:16:49.000Z</time>
      </trkpt>
      <trkpt lat="47.25735" lon="6.09698">
        <ele>493.2</ele>
        <time>2000-01-01T02:16:59.000Z</time>
      </trkpt>
      <trkpt lat="47.25704" lon="6.09666">
        <ele>494</ele>
        <time>2000-01-01T02:17:09.000Z</time>
      </trkpt>
      <trkpt lat="47.25694" lon="6.0966">
        <ele>494.8</ele>
        <time>2000-01-01T02:17:19.000Z</time>
      </trkpt>
      <trkpt lat="47.25684" lon="6.09657">
        <ele>494</ele>
        <time>2000-01-01T02:17:29.000Z</time>
      </trkpt>
      <trkpt lat="47.25672" lon="6.09655">
        <ele>495.4</ele>
        <time>2000-01-01T02:17:39.000Z</time>
      </trkpt>
      <trkpt lat="47.25662" lon="6.09656">
        <ele>495</ele>
        <time>2000-01-01T02:17:49.000Z</time>
      </trkpt>
      <trkpt lat="47.25654" lon="6.0966">
        <ele>496.1</ele>
        <time>2000-01-01T02:17:59.000Z</time>
      </trkpt>
      <trkpt lat="47.25641" lon="6.09671">
        <ele>496</ele>
        <time>2000-01-01T02:18:09.000Z</time>
      </trkpt>
      <trkpt lat="47.25621" lon="6.09714">
        <ele>499</ele>
        <time>2000-01-01T02:18:19.000Z</time>
      </trkpt>
      <trkpt lat="47.25616" lon="6.09725">
        <ele>499.9</ele>
        <time>2000-01-01T02:18:29.000Z</time>
      </trkpt>
      <trkpt lat="47.256" lon="6.09752">
        <ele>502</ele>
        <time>2000-01-01T02:18:39.000Z</time>
      </trkpt>
      <trkpt lat="47.25584" lon="6.09723">
        <ele>502</ele>
        <time>2000-01-01T02:18:49.000Z</time>
      </trkpt>
      <trkpt lat="47.25565" lon="6.09688">
        <ele>502</ele>
        <time>2000-01-01T02:18:59.000Z</time>
      </trkpt>
      <trkpt lat="47.25522" lon="6.09682">
        <ele>506</ele>
        <time>2000-01-01T02:19:09.000Z</time>
      </trkpt>
      <trkpt lat="47.25491" lon="6.09681">
        <ele>510</ele>
        <time>2000-01-01T02:19:19.000Z</time>
      </trkpt>
      <trkpt lat="47.2546" lon="6.09681">
        <ele>513</ele>
        <time>2000-01-01T02:19:29.000Z</time>
      </trkpt>
      <trkpt lat="47.25427" lon="6.0968">
        <ele>516</ele>
        <time>2000-01-01T02:19:39.000Z</time>
      </trkpt>
      <trkpt lat="47.25397" lon="6.09687">
        <ele>519</ele>
        <time>2000-01-01T02:19:49.000Z</time>
      </trkpt>
      <trkpt lat="47.25372" lon="6.09694">
        <ele>522</ele>
        <time>2000-01-01T02:19:59.000Z</time>
      </trkpt>
      <trkpt lat="47.2534" lon="6.09702">
        <ele>528</ele>
        <time>2000-01-01T02:20:09.000Z</time>
      </trkpt>
      <trkpt lat="47.25339" lon="6.0974">
        <ele>529</ele>
        <time>2000-01-01T02:20:19.000Z</time>
      </trkpt>
      <trkpt lat="47.25338" lon="6.09788">
        <ele>531</ele>
        <time>2000-01-01T02:20:29.000Z</time>
      </trkpt>
      <trkpt lat="47.25322" lon="6.09784">
        <ele>531.9</ele>
        <time>2000-01-01T02:20:39.000Z</time>
      </trkpt>
      <trkpt lat="47.25304" lon="6.09685">
        <ele>531</ele>
        <time>2000-01-01T02:20:49.000Z</time>
      </trkpt>
      <trkpt lat="47.25301" lon="6.09642">
        <ele>530</ele>
        <time>2000-01-01T02:20:59.000Z</time>
      </trkpt>
      <trkpt lat="47.25298" lon="6.09605">
        <ele>530</ele>
        <time>2000-01-01T02:21:09.000Z</time>
      </trkpt>
      <trkpt lat="47.25295" lon="6.09562">
        <ele>528</ele>
        <time>2000-01-01T02:21:19.000Z</time>
      </trkpt>
      <trkpt lat="47.25282" lon="6.09526">
        <ele>528</ele>
        <time>2000-01-01T02:21:29.000Z</time>
      </trkpt>
      <trkpt lat="47.25265" lon="6.09498">
        <ele>530</ele>
        <time>2000-01-01T02:21:39.000Z</time>
      </trkpt>
      <trkpt lat="47.25243" lon="6.09462">
        <ele>531</ele>
        <time>2000-01-01T02:21:49.000Z</time>
      </trkpt>
      <trkpt lat="47.25223" lon="6.09418">
        <ele>532</ele>
        <time>2000-01-01T02:21:59.000Z</time>
      </trkpt>
      <trkpt lat="47.25205" lon="6.0939">
        <ele>533</ele>
        <time>2000-01-01T02:22:09.000Z</time>
      </trkpt>
      <trkpt lat="47.25179" lon="6.0935">
        <ele>534</ele>
        <time>2000-01-01T02:22:19.000Z</time>
      </trkpt>
      <trkpt lat="47.2518" lon="6.09302">
        <ele>534</ele>
        <time>2000-01-01T02:22:29.000Z</time>
      </trkpt>
      <trkpt lat="47.25169" lon="6.09261">
        <ele>536</ele>
        <time>2000-01-01T02:22:39.000Z</time>
      </trkpt>
      <trkpt lat="47.25159" lon="6.09226">
        <ele>537</ele>
        <time>2000-01-01T02:22:49.000Z</time>
      </trkpt>
      <trkpt lat="47.25148" lon="6.09184">
        <ele>539</ele>
        <time>2000-01-01T02:22:59.000Z</time>
      </trkpt>
      <trkpt lat="47.25127" lon="6.09154">
        <ele>540</ele>
        <time>2000-01-01T02:23:09.000Z</time>
      </trkpt>
      <trkpt lat="47.25136" lon="6.09117">
        <ele>540</ele>
        <time>2000-01-01T02:23:19.000Z</time>
      </trkpt>
      <trkpt lat="47.2515" lon="6.09063">
        <ele>540</ele>
        <time>2000-01-01T02:23:29.000Z</time>
      </trkpt>
      <trkpt lat="47.25154" lon="6.09022">
        <ele>540</ele>
        <time>2000-01-01T02:23:39.000Z</time>
      </trkpt>
      <trkpt lat="47.25154" lon="6.0902">
        <ele>539.7</ele>
        <time>2000-01-01T02:23:49.000Z</time>
      </trkpt>
      <trkpt lat="47.25152" lon="6.09011">
        <ele>540.2</ele>
        <time>2000-01-01T02:23:59.000Z</time>
      </trkpt>
      <trkpt lat="47.25145" lon="6.08973">
        <ele>541</ele>
        <time>2000-01-01T02:24:09.000Z</time>
      </trkpt>
      <trkpt lat="47.25148" lon="6.08952">
        <ele>540.4</ele>
        <time>2000-01-01T02:24:19.000Z</time>
      </trkpt>
      <trkpt lat="47.25149" lon="6.08941">
        <ele>541</ele>
        <time>2000-01-01T02:24:29.000Z</time>
      </trkpt>
      <trkpt lat="47.25148" lon="6.08912">
        <ele>541</ele>
        <time>2000-01-01T02:24:39.000Z</time>
      </trkpt>
      <trkpt lat="47.2515" lon="6.0887">
        <ele>538</ele>
        <time>2000-01-01T02:24:49.000Z</time>
      </trkpt>
      <trkpt lat="47.25151" lon="6.08836">
        <ele>535</ele>
        <time>2000-01-01T02:24:59.000Z</time>
      </trkpt>
      <trkpt lat="47.25153" lon="6.08801">
        <ele>533</ele>
        <time>2000-01-01T02:25:09.000Z</time>
      </trkpt>
      <trkpt lat="47.25155" lon="6.08778">
        <ele>531.1</ele>
        <time>2000-01-01T02:25:19.000Z</time>
      </trkpt>
      <trkpt lat="47.25151" lon="6.08738">
        <ele>530</ele>
        <time>2000-01-01T02:25:29.000Z</time>
      </trkpt>
      <trkpt lat="47.25149" lon="6.08719">
        <ele>529.3</ele>
        <time>2000-01-01T02:25:39.000Z</time>
      </trkpt>
      <trkpt lat="47.25145" lon="6.08692">
        <ele>530</ele>
        <time>2000-01-01T02:25:49.000Z</time>
      </trkpt>
      <trkpt lat="47.25145" lon="6.0868">
        <ele>528.1</ele>
        <time>2000-01-01T02:25:59.000Z</time>
      </trkpt>
      <trkpt lat="47.25145" lon="6.08649">
        <ele>525</ele>
        <time>2000-01-01T02:26:09.000Z</time>
      </trkpt>
      <trkpt lat="47.25146" lon="6.08625">
        <ele>521.3</ele>
        <time>2000-01-01T02:26:19.000Z</time>
      </trkpt>
      <trkpt lat="47.25144" lon="6.08612">
        <ele>521</ele>
        <time>2000-01-01T02:26:29.000Z</time>
      </trkpt>
      <trkpt lat="47.25137" lon="6.08579">
        <ele>519</ele>
        <time>2000-01-01T02:26:39.000Z</time>
      </trkpt>
      <trkpt lat="47.25135" lon="6.08567">
        <ele>516.7</ele>
        <time>2000-01-01T02:26:49.000Z</time>
      </trkpt>
      <trkpt lat="47.25121" lon="6.08517">
        <ele>517</ele>
        <time>2000-01-01T02:26:59.000Z</time>
      </trkpt>
      <trkpt lat="47.25112" lon="6.08495">
        <ele>512.7</ele>
        <time>2000-01-01T02:27:09.000Z</time>
      </trkpt>
      <trkpt lat="47.25106" lon="6.08489">
        <ele>515</ele>
        <time>2000-01-01T02:27:19.000Z</time>
      </trkpt>
      <trkpt lat="47.25101" lon="6.08489">
        <ele>512.4</ele>
        <time>2000-01-01T02:27:29.000Z</time>
      </trkpt>
      <trkpt lat="47.25098" lon="6.08491">
        <ele>512.7</ele>
        <time>2000-01-01T02:27:39.000Z</time>
      </trkpt>
      <trkpt lat="47.25095" lon="6.08493">
        <ele>512.7</ele>
        <time>2000-01-01T02:27:49.000Z</time>
      </trkpt>
      <trkpt lat="47.25066" lon="6.08534">
        <ele>505</ele>
        <time>2000-01-01T02:27:59.000Z</time>
      </trkpt>
      <trkpt lat="47.25044" lon="6.08551">
        <ele>504</ele>
        <time>2000-01-01T02:28:09.000Z</time>
      </trkpt>
      <trkpt lat="47.25018" lon="6.08572">
        <ele>501</ele>
        <time>2000-01-01T02:28:19.000Z</time>
      </trkpt>
      <trkpt lat="47.25009" lon="6.08575">
        <ele>501.4</ele>
        <time>2000-01-01T02:28:29.000Z</time>
      </trkpt>
      <trkpt lat="47.25" lon="6.08577">
        <ele>499.9</ele>
        <time>2000-01-01T02:28:39.000Z</time>
      </trkpt>
      <trkpt lat="47.24993" lon="6.08576">
        <ele>496</ele>
        <time>2000-01-01T02:28:49.000Z</time>
      </trkpt>
      <trkpt lat="47.24987" lon="6.08578">
        <ele>497.2</ele>
        <time>2000-01-01T02:28:59.000Z</time>
      </trkpt>
      <trkpt lat="47.24974" lon="6.08585">
        <ele>493</ele>
        <time>2000-01-01T02:29:09.000Z</time>
      </trkpt>
      <trkpt lat="47.24968" lon="6.08588">
        <ele>495.4</ele>
        <time>2000-01-01T02:29:19.000Z</time>
      </trkpt>
      <trkpt lat="47.24955" lon="6.08598">
        <ele>493</ele>
        <time>2000-01-01T02:29:29.000Z</time>
      </trkpt>
      <trkpt lat="47.24935" lon="6.08602">
        <ele>493</ele>
        <time>2000-01-01T02:29:39.000Z</time>
      </trkpt>
      <trkpt lat="47.24911" lon="6.08596">
        <ele>490</ele>
        <time>2000-01-01T02:29:49.000Z</time>
      </trkpt>
      <trkpt lat="47.24882" lon="6.08589">
        <ele>488</ele>
        <time>2000-01-01T02:29:59.000Z</time>
      </trkpt>
      <trkpt lat="47.24856" lon="6.08577">
        <ele>488</ele>
        <time>2000-01-01T02:30:09.000Z</time>
      </trkpt>
      <trkpt lat="47.24845" lon="6.08555">
        <ele>485</ele>
        <time>2000-01-01T02:30:19.000Z</time>
      </trkpt>
      <trkpt lat="47.24832" lon="6.08539">
        <ele>483.5</ele>
        <time>2000-01-01T02:30:29.000Z</time>
      </trkpt>
      <trkpt lat="47.24812" lon="6.08532">
        <ele>482</ele>
        <time>2000-01-01T02:30:39.000Z</time>
      </trkpt>
      <trkpt lat="47.24797" lon="6.08521">
        <ele>482.3</ele>
        <time>2000-01-01T02:30:49.000Z</time>
      </trkpt>
      <trkpt lat="47.2477" lon="6.08495">
        <ele>479</ele>
        <time>2000-01-01T02:30:59.000Z</time>
      </trkpt>
      <trkpt lat="47.24742" lon="6.08478">
        <ele>475</ele>
        <time>2000-01-01T02:31:09.000Z</time>
      </trkpt>
      <trkpt lat="47.24725" lon="6.08451">
        <ele>474</ele>
        <time>2000-01-01T02:31:19.000Z</time>
      </trkpt>
      <trkpt lat="47.24704" lon="6.08417">
        <ele>470</ele>
        <time>2000-01-01T02:31:29.000Z</time>
      </trkpt>
      <trkpt lat="47.24697" lon="6.08396">
        <ele>468.7</ele>
        <time>2000-01-01T02:31:39.000Z</time>
      </trkpt>
      <trkpt lat="47.2469" lon="6.08367">
        <ele>468</ele>
        <time>2000-01-01T02:31:49.000Z</time>
      </trkpt>
      <trkpt lat="47.24687" lon="6.08315">
        <ele>465</ele>
        <time>2000-01-01T02:31:59.000Z</time>
      </trkpt>
      <trkpt lat="47.24688" lon="6.08266">
        <ele>461</ele>
        <time>2000-01-01T02:32:09.000Z</time>
      </trkpt>
      <trkpt lat="47.24683" lon="6.08228">
        <ele>457</ele>
        <time>2000-01-01T02:32:19.000Z</time>
      </trkpt>
      <trkpt lat="47.24673" lon="6.08197">
        <ele>455</ele>
        <time>2000-01-01T02:32:29.000Z</time>
      </trkpt>
      <trkpt lat="47.24662" lon="6.08165">
        <ele>455</ele>
        <time>2000-01-01T02:32:39.000Z</time>
      </trkpt>
      <trkpt lat="47.24658" lon="6.0814">
        <ele>454</ele>
        <time>2000-01-01T02:32:49.000Z</time>
      </trkpt>
      <trkpt lat="47.24649" lon="6.0811">
        <ele>454</ele>
        <time>2000-01-01T02:32:59.000Z</time>
      </trkpt>
      <trkpt lat="47.24639" lon="6.08089">
        <ele>453.6</ele>
        <time>2000-01-01T02:33:09.000Z</time>
      </trkpt>
      <trkpt lat="47.24612" lon="6.08009">
        <ele>453</ele>
        <time>2000-01-01T02:33:19.000Z</time>
      </trkpt>
      <trkpt lat="47.2461" lon="6.07986">
        <ele>453.5</ele>
        <time>2000-01-01T02:33:29.000Z</time>
      </trkpt>
      <trkpt lat="47.24604" lon="6.07976">
        <ele>453</ele>
        <time>2000-01-01T02:33:39.000Z</time>
      </trkpt>
      <trkpt lat="47.24595" lon="6.07935">
        <ele>456</ele>
        <time>2000-01-01T02:33:49.000Z</time>
      </trkpt>
      <trkpt lat="47.24599" lon="6.07912">
        <ele>460.2</ele>
        <time>2000-01-01T02:33:59.000Z</time>
      </trkpt>
      <trkpt lat="47.2455" lon="6.07885">
        <ele>460</ele>
        <time>2000-01-01T02:34:09.000Z</time>
      </trkpt>
      <trkpt lat="47.24514" lon="6.07855">
        <ele>459</ele>
        <time>2000-01-01T02:34:19.000Z</time>
      </trkpt>
      <trkpt lat="47.24517" lon="6.0784">
        <ele>469</ele>
        <time>2000-01-01T02:34:29.000Z</time>
      </trkpt>
      <trkpt lat="47.24507" lon="6.07826">
        <ele>459</ele>
        <time>2000-01-01T02:34:39.000Z</time>
      </trkpt>
      <trkpt lat="47.24517" lon="6.07809">
        <ele>459.5</ele>
        <time>2000-01-01T02:34:49.000Z</time>
      </trkpt>
      <trkpt lat="47.24544" lon="6.07793">
        <ele>457</ele>
        <time>2000-01-01T02:34:59.000Z</time>
      </trkpt>
      <trkpt lat="47.24583" lon="6.0776">
        <ele>456</ele>
        <time>2000-01-01T02:35:09.000Z</time>
      </trkpt>
      <trkpt lat="47.24591" lon="6.07761">
        <ele>456.8</ele>
        <time>2000-01-01T02:35:19.000Z</time>
      </trkpt>
      <trkpt lat="47.2462" lon="6.07756">
        <ele>456</ele>
        <time>2000-01-01T02:35:29.000Z</time>
      </trkpt>
      <trkpt lat="47.24645" lon="6.07775">
        <ele>457</ele>
        <time>2000-01-01T02:35:39.000Z</time>
      </trkpt>
      <trkpt lat="47.24678" lon="6.0781">
        <ele>459</ele>
        <time>2000-01-01T02:35:49.000Z</time>
      </trkpt>
      <trkpt lat="47.24701" lon="6.07842">
        <ele>460</ele>
        <time>2000-01-01T02:35:59.000Z</time>
      </trkpt>
      <trkpt lat="47.24726" lon="6.07898">
        <ele>466</ele>
        <time>2000-01-01T02:36:09.000Z</time>
      </trkpt>
      <trkpt lat="47.24712" lon="6.07912">
        <ele>465.8</ele>
        <time>2000-01-01T02:36:19.000Z</time>
      </trkpt>
      <trkpt lat="47.24687" lon="6.07917">
        <ele>465</ele>
        <time>2000-01-01T02:36:29.000Z</time>
      </trkpt>
      <trkpt lat="47.24652" lon="6.07911">
        <ele>465</ele>
        <time>2000-01-01T02:36:39.000Z</time>
      </trkpt>
      <trkpt lat="47.24626" lon="6.07911">
        <ele>462</ele>
        <time>2000-01-01T02:36:49.000Z</time>
      </trkpt>
      <trkpt lat="47.24593" lon="6.07912">
        <ele>458</ele>
        <time>2000-01-01T02:36:59.000Z</time>
      </trkpt>
      <trkpt lat="47.24604" lon="6.07969">
        <ele>453</ele>
        <time>2000-01-01T02:37:09.000Z</time>
      </trkpt>
      <trkpt lat="47.24579" lon="6.08">
        <ele>452</ele>
        <time>2000-01-01T02:37:19.000Z</time>
      </trkpt>
      <trkpt lat="47.24562" lon="6.08006">
        <ele>453.6</ele>
        <time>2000-01-01T02:37:29.000Z</time>
      </trkpt>
      <trkpt lat="47.24537" lon="6.0799">
        <ele>450</ele>
        <time>2000-01-01T02:37:39.000Z</time>
      </trkpt>
      <trkpt lat="47.2451" lon="6.07965">
        <ele>447</ele>
        <time>2000-01-01T02:37:49.000Z</time>
      </trkpt>
      <trkpt lat="47.24478" lon="6.0795">
        <ele>446</ele>
        <time>2000-01-01T02:37:59.000Z</time>
      </trkpt>
      <trkpt lat="47.2446" lon="6.07949">
        <ele>445.1</ele>
        <time>2000-01-01T02:38:09.000Z</time>
      </trkpt>
      <trkpt lat="47.24404" lon="6.07967">
        <ele>449</ele>
        <time>2000-01-01T02:38:19.000Z</time>
      </trkpt>
      <trkpt lat="47.24361" lon="6.07972">
        <ele>452</ele>
        <time>2000-01-01T02:38:29.000Z</time>
      </trkpt>
      <trkpt lat="47.24335" lon="6.07971">
        <ele>454</ele>
        <time>2000-01-01T02:38:39.000Z</time>
      </trkpt>
      <trkpt lat="47.24316" lon="6.07973">
        <ele>454</ele>
        <time>2000-01-01T02:38:49.000Z</time>
      </trkpt>
      <trkpt lat="47.24283" lon="6.07986">
        <ele>456</ele>
        <time>2000-01-01T02:38:59.000Z</time>
      </trkpt>
      <trkpt lat="47.24245" lon="6.07972">
        <ele>460</ele>
        <time>2000-01-01T02:39:09.000Z</time>
      </trkpt>
      <trkpt lat="47.24232" lon="6.07964">
        <ele>460.4</ele>
        <time>2000-01-01T02:39:19.000Z</time>
      </trkpt>
      <trkpt lat="47.24184" lon="6.07922">
        <ele>463</ele>
        <time>2000-01-01T02:39:29.000Z</time>
      </trkpt>
      <trkpt lat="47.24162" lon="6.07913">
        <ele>465</ele>
        <time>2000-01-01T02:39:39.000Z</time>
      </trkpt>
      <trkpt lat="47.24139" lon="6.07905">
        <ele>468</ele>
        <time>2000-01-01T02:39:49.000Z</time>
      </trkpt>
      <trkpt lat="47.24118" lon="6.07892">
        <ele>470</ele>
        <time>2000-01-01T02:39:59.000Z</time>
      </trkpt>
      <trkpt lat="47.24092" lon="6.07872">
        <ele>470</ele>
        <time>2000-01-01T02:40:09.000Z</time>
      </trkpt>
      <trkpt lat="47.24069" lon="6.07856">
        <ele>472</ele>
        <time>2000-01-01T02:40:19.000Z</time>
      </trkpt>
      <trkpt lat="47.24043" lon="6.07836">
        <ele>473</ele>
        <time>2000-01-01T02:40:29.000Z</time>
      </trkpt>
      <trkpt lat="47.24016" lon="6.07828">
        <ele>475</ele>
        <time>2000-01-01T02:40:39.000Z</time>
      </trkpt>
      <trkpt lat="47.23975" lon="6.07816">
        <ele>479</ele>
        <time>2000-01-01T02:40:49.000Z</time>
      </trkpt>
      <trkpt lat="47.23955" lon="6.07808">
        <ele>480</ele>
        <time>2000-01-01T02:40:59.000Z</time>
      </trkpt>
      <trkpt lat="47.23939" lon="6.07805">
        <ele>483.9</ele>
        <time>2000-01-01T02:41:09.000Z</time>
      </trkpt>
      <trkpt lat="47.2389" lon="6.07779">
        <ele>488</ele>
        <time>2000-01-01T02:41:19.000Z</time>
      </trkpt>
      <trkpt lat="47.23868" lon="6.07763">
        <ele>491</ele>
        <time>2000-01-01T02:41:29.000Z</time>
      </trkpt>
      <trkpt lat="47.23843" lon="6.07745">
        <ele>493</ele>
        <time>2000-01-01T02:41:39.000Z</time>
      </trkpt>
      <trkpt lat="47.2383" lon="6.07724">
        <ele>498</ele>
        <time>2000-01-01T02:41:49.000Z</time>
      </trkpt>
      <trkpt lat="47.23819" lon="6.07686">
        <ele>500</ele>
        <time>2000-01-01T02:41:59.000Z</time>
      </trkpt>
      <trkpt lat="47.23803" lon="6.07659">
        <ele>500</ele>
        <time>2000-01-01T02:42:09.000Z</time>
      </trkpt>
      <trkpt lat="47.23786" lon="6.0766">
        <ele>502</ele>
        <time>2000-01-01T02:42:19.000Z</time>
      </trkpt>
      <trkpt lat="47.23782" lon="6.07672">
        <ele>503</ele>
        <time>2000-01-01T02:42:29.000Z</time>
      </trkpt>
      <trkpt lat="47.2378" lon="6.0771">
        <ele>504</ele>
        <time>2000-01-01T02:42:39.000Z</time>
      </trkpt>
      <trkpt lat="47.23771" lon="6.07753">
        <ele>508</ele>
        <time>2000-01-01T02:42:49.000Z</time>
      </trkpt>
      <trkpt lat="47.23741" lon="6.07782">
        <ele>511</ele>
        <time>2000-01-01T02:42:59.000Z</time>
      </trkpt>
      <trkpt lat="47.23711" lon="6.07812">
        <ele>511</ele>
        <time>2000-01-01T02:43:09.000Z</time>
      </trkpt>
      <trkpt lat="47.23681" lon="6.07841">
        <ele>511</ele>
        <time>2000-01-01T02:43:19.000Z</time>
      </trkpt>
      <trkpt lat="47.23659" lon="6.07862">
        <ele>511</ele>
        <time>2000-01-01T02:43:29.000Z</time>
      </trkpt>
      <trkpt lat="47.23631" lon="6.0789">
        <ele>511</ele>
        <time>2000-01-01T02:43:39.000Z</time>
      </trkpt>
      <trkpt lat="47.23605" lon="6.07905">
        <ele>511</ele>
        <time>2000-01-01T02:43:49.000Z</time>
      </trkpt>
      <trkpt lat="47.23571" lon="6.07932">
        <ele>514</ele>
        <time>2000-01-01T02:43:59.000Z</time>
      </trkpt>
      <trkpt lat="47.23558" lon="6.07952">
        <ele>514</ele>
        <time>2000-01-01T02:44:09.000Z</time>
      </trkpt>
      <trkpt lat="47.23553" lon="6.07973">
        <ele>516.8</ele>
        <time>2000-01-01T02:44:19.000Z</time>
      </trkpt>
      <trkpt lat="47.2359" lon="6.08003">
        <ele>522</ele>
        <time>2000-01-01T02:44:29.000Z</time>
      </trkpt>
      <trkpt lat="47.23599" lon="6.08024">
        <ele>526</ele>
        <time>2000-01-01T02:44:39.000Z</time>
      </trkpt>
      <trkpt lat="47.23613" lon="6.08038">
        <ele>528</ele>
        <time>2000-01-01T02:44:49.000Z</time>
      </trkpt>
      <trkpt lat="47.23629" lon="6.08046">
        <ele>531.5</ele>
        <time>2000-01-01T02:44:59.000Z</time>
      </trkpt>
      <trkpt lat="47.23645" lon="6.08072">
        <ele>533</ele>
        <time>2000-01-01T02:45:09.000Z</time>
      </trkpt>
      <trkpt lat="47.23658" lon="6.08132">
        <ele>535</ele>
        <time>2000-01-01T02:45:19.000Z</time>
      </trkpt>
      <trkpt lat="47.2368" lon="6.08131">
        <ele>537</ele>
        <time>2000-01-01T02:45:29.000Z</time>
      </trkpt>
      <trkpt lat="47.23694" lon="6.08114">
        <ele>541</ele>
        <time>2000-01-01T02:45:39.000Z</time>
      </trkpt>
      <trkpt lat="47.23718" lon="6.08092">
        <ele>543</ele>
        <time>2000-01-01T02:45:49.000Z</time>
      </trkpt>
      <trkpt lat="47.23735" lon="6.08078">
        <ele>545</ele>
        <time>2000-01-01T02:45:59.000Z</time>
      </trkpt>
      <trkpt lat="47.23746" lon="6.08074">
        <ele>547.2</ele>
        <time>2000-01-01T02:46:09.000Z</time>
      </trkpt>
      <trkpt lat="47.23746" lon="6.08074">
        <ele>547.2</ele>
        <time>2000-01-01T02:46:19.000Z</time>
      </trkpt>
      <trkpt lat="47.23752" lon="6.08074">
        <ele>547.9</ele>
        <time>2000-01-01T02:46:29.000Z</time>
      </trkpt>
      <trkpt lat="47.23767" lon="6.08083">
        <ele>549</ele>
        <time>2000-01-01T02:46:39.000Z</time>
      </trkpt>
      <trkpt lat="47.2378" lon="6.08087">
        <ele>552.3</ele>
        <time>2000-01-01T02:46:49.000Z</time>
      </trkpt>
      <trkpt lat="47.23786" lon="6.0809">
        <ele>551</ele>
        <time>2000-01-01T02:46:59.000Z</time>
      </trkpt>
      <trkpt lat="47.23791" lon="6.08089">
        <ele>553.3</ele>
        <time>2000-01-01T02:47:09.000Z</time>
      </trkpt>
      <trkpt lat="47.23799" lon="6.08084">
        <ele>553.6</ele>
        <time>2000-01-01T02:47:19.000Z</time>
      </trkpt>
      <trkpt lat="47.238" lon="6.08083">
        <ele>553.6</ele>
        <time>2000-01-01T02:47:29.000Z</time>
      </trkpt>
      <trkpt lat="47.2383" lon="6.08053">
        <ele>554</ele>
        <time>2000-01-01T02:47:39.000Z</time>
      </trkpt>
      <trkpt lat="47.23846" lon="6.08053">
        <ele>558.2</ele>
        <time>2000-01-01T02:47:49.000Z</time>
      </trkpt>
      <trkpt lat="47.23901" lon="6.08062">
        <ele>565</ele>
        <time>2000-01-01T02:47:59.000Z</time>
      </trkpt>
      <trkpt lat="47.23923" lon="6.08074">
        <ele>567</ele>
        <time>2000-01-01T02:48:09.000Z</time>
      </trkpt>
      <trkpt lat="47.23948" lon="6.08087">
        <ele>570</ele>
        <time>2000-01-01T02:48:19.000Z</time>
      </trkpt>
      <trkpt lat="47.23967" lon="6.08108">
        <ele>574</ele>
        <time>2000-01-01T02:48:29.000Z</time>
      </trkpt>
      <trkpt lat="47.23988" lon="6.0813">
        <ele>577</ele>
        <time>2000-01-01T02:48:39.000Z</time>
      </trkpt>
      <trkpt lat="47.24016" lon="6.08165">
        <ele>582</ele>
        <time>2000-01-01T02:48:49.000Z</time>
      </trkpt>
      <trkpt lat="47.24045" lon="6.08182">
        <ele>586</ele>
        <time>2000-01-01T02:48:59.000Z</time>
      </trkpt>
      <trkpt lat="47.24075" lon="6.082">
        <ele>589</ele>
        <time>2000-01-01T02:49:09.000Z</time>
      </trkpt>
      <trkpt lat="47.24112" lon="6.08222">
        <ele>595</ele>
        <time>2000-01-01T02:49:19.000Z</time>
      </trkpt>
      <trkpt lat="47.24125" lon="6.08254">
        <ele>597</ele>
        <time>2000-01-01T02:49:29.000Z</time>
      </trkpt>
      <trkpt lat="47.24133" lon="6.08264">
        <ele>597.4</ele>
        <time>2000-01-01T02:49:39.000Z</time>
      </trkpt>
      <trkpt lat="47.24129" lon="6.08305">
        <ele>597</ele>
        <time>2000-01-01T02:49:49.000Z</time>
      </trkpt>
      <trkpt lat="47.24131" lon="6.0833">
        <ele>597.9</ele>
        <time>2000-01-01T02:49:59.000Z</time>
      </trkpt>
      <trkpt lat="47.24145" lon="6.08359">
        <ele>595</ele>
        <time>2000-01-01T02:50:09.000Z</time>
      </trkpt>
      <trkpt lat="47.24153" lon="6.08382">
        <ele>598.4</ele>
        <time>2000-01-01T02:50:19.000Z</time>
      </trkpt>
      <trkpt lat="47.2416" lon="6.08441">
        <ele>595</ele>
        <time>2000-01-01T02:50:29.000Z</time>
      </trkpt>
      <trkpt lat="47.24164" lon="6.08447">
        <ele>595.3</ele>
        <time>2000-01-01T02:50:39.000Z</time>
      </trkpt>
      <trkpt lat="47.2421" lon="6.08482">
        <ele>596</ele>
        <time>2000-01-01T02:50:49.000Z</time>
      </trkpt>
      <trkpt lat="47.24219" lon="6.08476">
        <ele>600.1</ele>
        <time>2000-01-01T02:50:59.000Z</time>
      </trkpt>
      <trkpt lat="47.24246" lon="6.08466">
        <ele>604</ele>
        <time>2000-01-01T02:51:09.000Z</time>
      </trkpt>
      <trkpt lat="47.24278" lon="6.08473">
        <ele>604</ele>
        <time>2000-01-01T02:51:19.000Z</time>
      </trkpt>
      <trkpt lat="47.24296" lon="6.08471">
        <ele>605.5</ele>
        <time>2000-01-01T02:51:29.000Z</time>
      </trkpt>
      <trkpt lat="47.24311" lon="6.08463">
        <ele>603</ele>
        <time>2000-01-01T02:51:39.000Z</time>
      </trkpt>
      <trkpt lat="47.24334" lon="6.08431">
        <ele>603</ele>
        <time>2000-01-01T02:51:49.000Z</time>
      </trkpt>
      <trkpt lat="47.24344" lon="6.08425">
        <ele>597.6</ele>
        <time>2000-01-01T02:51:59.000Z</time>
      </trkpt>
      <trkpt lat="47.24357" lon="6.08429">
        <ele>595</ele>
        <time>2000-01-01T02:52:09.000Z</time>
      </trkpt>
      <trkpt lat="47.24396" lon="6.08453">
        <ele>595</ele>
        <time>2000-01-01T02:52:19.000Z</time>
      </trkpt>
      <trkpt lat="47.24419" lon="6.0848">
        <ele>598</ele>
        <time>2000-01-01T02:52:29.000Z</time>
      </trkpt>
      <trkpt lat="47.24438" lon="6.08503">
        <ele>599</ele>
        <time>2000-01-01T02:52:39.000Z</time>
      </trkpt>
      <trkpt lat="47.24459" lon="6.08528">
        <ele>599</ele>
        <time>2000-01-01T02:52:49.000Z</time>
      </trkpt>
      <trkpt lat="47.24487" lon="6.08552">
        <ele>599</ele>
        <time>2000-01-01T02:52:59.000Z</time>
      </trkpt>
      <trkpt lat="47.24521" lon="6.08587">
        <ele>599</ele>
        <time>2000-01-01T02:53:09.000Z</time>
      </trkpt>
      <trkpt lat="47.245" lon="6.08646">
        <ele>600</ele>
        <time>2000-01-01T02:53:19.000Z</time>
      </trkpt>
      <trkpt lat="47.24486" lon="6.08676">
        <ele>600</ele>
        <time>2000-01-01T02:53:29.000Z</time>
      </trkpt>
      <trkpt lat="47.24471" lon="6.08709">
        <ele>600</ele>
        <time>2000-01-01T02:53:39.000Z</time>
      </trkpt>
      <trkpt lat="47.24461" lon="6.08737">
        <ele>599</ele>
        <time>2000-01-01T02:53:49.000Z</time>
      </trkpt>
      <trkpt lat="47.24458" lon="6.08753">
        <ele>599.4</ele>
        <time>2000-01-01T02:53:59.000Z</time>
      </trkpt>
      <trkpt lat="47.2446" lon="6.08767">
        <ele>599</ele>
        <time>2000-01-01T02:54:09.000Z</time>
      </trkpt>
      <trkpt lat="47.2445" lon="6.08789">
        <ele>598</ele>
        <time>2000-01-01T02:54:19.000Z</time>
      </trkpt>
      <trkpt lat="47.24497" lon="6.08842">
        <ele>598</ele>
        <time>2000-01-01T02:54:29.000Z</time>
      </trkpt>
      <trkpt lat="47.24506" lon="6.0888">
        <ele>598</ele>
        <time>2000-01-01T02:54:39.000Z</time>
      </trkpt>
      <trkpt lat="47.24522" lon="6.08925">
        <ele>596</ele>
        <time>2000-01-01T02:54:49.000Z</time>
      </trkpt>
      <trkpt lat="47.24538" lon="6.08971">
        <ele>594</ele>
        <time>2000-01-01T02:54:59.000Z</time>
      </trkpt>
      <trkpt lat="47.24555" lon="6.09016">
        <ele>594</ele>
        <time>2000-01-01T02:55:09.000Z</time>
      </trkpt>
      <trkpt lat="47.24574" lon="6.0907">
        <ele>594</ele>
        <time>2000-01-01T02:55:19.000Z</time>
      </trkpt>
      <trkpt lat="47.24585" lon="6.09098">
        <ele>593</ele>
        <time>2000-01-01T02:55:29.000Z</time>
      </trkpt>
      <trkpt lat="47.24595" lon="6.09117">
        <ele>593.6</ele>
        <time>2000-01-01T02:55:39.000Z</time>
      </trkpt>
      <trkpt lat="47.24603" lon="6.09137">
        <ele>592</ele>
        <time>2000-01-01T02:55:49.000Z</time>
      </trkpt>
      <trkpt lat="47.24613" lon="6.09157">
        <ele>591.9</ele>
        <time>2000-01-01T02:55:59.000Z</time>
      </trkpt>
      <trkpt lat="47.24627" lon="6.0918">
        <ele>590</ele>
        <time>2000-01-01T02:56:09.000Z</time>
      </trkpt>
      <trkpt lat="47.24636" lon="6.09196">
        <ele>589.5</ele>
        <time>2000-01-01T02:56:19.000Z</time>
      </trkpt>
      <trkpt lat="47.24639" lon="6.09201">
        <ele>588</ele>
        <time>2000-01-01T02:56:29.000Z</time>
      </trkpt>
      <trkpt lat="47.24646" lon="6.09211">
        <ele>588.5</ele>
        <time>2000-01-01T02:56:39.000Z</time>
      </trkpt>
      <trkpt lat="47.2466" lon="6.09226">
        <ele>588</ele>
        <time>2000-01-01T02:56:49.000Z</time>
      </trkpt>
      <trkpt lat="47.24668" lon="6.09238">
        <ele>587.3</ele>
        <time>2000-01-01T02:56:59.000Z</time>
      </trkpt>
      <trkpt lat="47.24671" lon="6.09243">
        <ele>586.8</ele>
        <time>2000-01-01T02:57:09.000Z</time>
      </trkpt>
      <trkpt lat="47.24693" lon="6.09268">
        <ele>587</ele>
        <time>2000-01-01T02:57:19.000Z</time>
      </trkpt>
      <trkpt lat="47.24713" lon="6.09286">
        <ele>586</ele>
        <time>2000-01-01T02:57:29.000Z</time>
      </trkpt>
      <trkpt lat="47.24737" lon="6.09307">
        <ele>585</ele>
        <time>2000-01-01T02:57:39.000Z</time>
      </trkpt>
      <trkpt lat="47.24767" lon="6.093">
        <ele>584</ele>
        <time>2000-01-01T02:57:49.000Z</time>
      </trkpt>
      <trkpt lat="47.24792" lon="6.09295">
        <ele>584</ele>
        <time>2000-01-01T02:57:59.000Z</time>
      </trkpt>
      <trkpt lat="47.24825" lon="6.09288">
        <ele>583</ele>
        <time>2000-01-01T02:58:09.000Z</time>
      </trkpt>
      <trkpt lat="47.24829" lon="6.09291">
        <ele>581</ele>
        <time>2000-01-01T02:58:19.000Z</time>
      </trkpt>
      <trkpt lat="47.24829" lon="6.093">
        <ele>579.9</ele>
        <time>2000-01-01T02:58:29.000Z</time>
      </trkpt>
      <trkpt lat="47.24828" lon="6.09306">
        <ele>579.3</ele>
        <time>2000-01-01T02:58:39.000Z</time>
      </trkpt>
      <trkpt lat="47.24828" lon="6.09315">
        <ele>579</ele>
        <time>2000-01-01T02:58:49.000Z</time>
      </trkpt>
      <trkpt lat="47.24829" lon="6.09325">
        <ele>577.7</ele>
        <time>2000-01-01T02:58:59.000Z</time>
      </trkpt>
      <trkpt lat="47.24833" lon="6.09336">
        <ele>576.9</ele>
        <time>2000-01-01T02:59:09.000Z</time>
      </trkpt>
      <trkpt lat="47.2486" lon="6.09377">
        <ele>576</ele>
        <time>2000-01-01T02:59:19.000Z</time>
      </trkpt>
      <trkpt lat="47.24868" lon="6.09389">
        <ele>575.8</ele>
        <time>2000-01-01T02:59:29.000Z</time>
      </trkpt>
      <trkpt lat="47.24876" lon="6.09411">
        <ele>575</ele>
        <time>2000-01-01T02:59:39.000Z</time>
      </trkpt>
      <trkpt lat="47.24878" lon="6.09425">
        <ele>575.1</ele>
        <time>2000-01-01T02:59:49.000Z</time>
      </trkpt>
      <trkpt lat="47.24878" lon="6.09431">
        <ele>574.9</ele>
        <time>2000-01-01T02:59:59.000Z</time>
      </trkpt>
      <trkpt lat="47.24875" lon="6.09448">
        <ele>575</ele>
        <time>2000-01-01T03:00:09.000Z</time>
      </trkpt>
      <trkpt lat="47.24872" lon="6.09467">
        <ele>574.1</ele>
        <time>2000-01-01T03:00:19.000Z</time>
      </trkpt>
      <trkpt lat="47.24871" lon="6.09491">
        <ele>573</ele>
        <time>2000-01-01T03:00:29.000Z</time>
      </trkpt>
      <trkpt lat="47.24868" lon="6.09508">
        <ele>573</ele>
        <time>2000-01-01T03:00:39.000Z</time>
      </trkpt>
      <trkpt lat="47.24873" lon="6.09538">
        <ele>572</ele>
        <time>2000-01-01T03:00:49.000Z</time>
      </trkpt>
      <trkpt lat="47.24877" lon="6.09554">
        <ele>571.2</ele>
        <time>2000-01-01T03:00:59.000Z</time>
      </trkpt>
      <trkpt lat="47.24897" lon="6.09612">
        <ele>569</ele>
        <time>2000-01-01T03:01:09.000Z</time>
      </trkpt>
      <trkpt lat="47.24913" lon="6.09664">
        <ele>568</ele>
        <time>2000-01-01T03:01:19.000Z</time>
      </trkpt>
      <trkpt lat="47.24927" lon="6.09698">
        <ele>568</ele>
        <time>2000-01-01T03:01:29.000Z</time>
      </trkpt>
      <trkpt lat="47.24946" lon="6.09747">
        <ele>566</ele>
        <time>2000-01-01T03:01:39.000Z</time>
      </trkpt>
      <trkpt lat="47.24947" lon="6.09757">
        <ele>565.9</ele>
        <time>2000-01-01T03:01:49.000Z</time>
      </trkpt>
      <trkpt lat="47.24948" lon="6.09761">
        <ele>565.8</ele>
        <time>2000-01-01T03:01:59.000Z</time>
      </trkpt>
      <trkpt lat="47.24947" lon="6.09767">
        <ele>565.5</ele>
        <time>2000-01-01T03:02:09.000Z</time>
      </trkpt>
      <trkpt lat="47.24946" lon="6.09779">
        <ele>565</ele>
        <time>2000-01-01T03:02:19.000Z</time>
      </trkpt>
      <trkpt lat="47.24945" lon="6.098">
        <ele>564.2</ele>
        <time>2000-01-01T03:02:29.000Z</time>
      </trkpt>
      <trkpt lat="47.24944" lon="6.09808">
        <ele>564</ele>
        <time>2000-01-01T03:02:39.000Z</time>
      </trkpt>
      <trkpt lat="47.24943" lon="6.09813">
        <ele>563.4</ele>
        <time>2000-01-01T03:02:49.000Z</time>
      </trkpt>
      <trkpt lat="47.24938" lon="6.09816">
        <ele>562.9</ele>
        <time>2000-01-01T03:02:59.000Z</time>
      </trkpt>
      <trkpt lat="47.24933" lon="6.09816">
        <ele>562.6</ele>
        <time>2000-01-01T03:03:09.000Z</time>
      </trkpt>
      <trkpt lat="47.24924" lon="6.09815">
        <ele>561</ele>
        <time>2000-01-01T03:03:19.000Z</time>
      </trkpt>
      <trkpt lat="47.24937" lon="6.09842">
        <ele>561</ele>
        <time>2000-01-01T03:03:29.000Z</time>
      </trkpt>
      <trkpt lat="47.24946" lon="6.0986">
        <ele>562</ele>
        <time>2000-01-01T03:03:39.000Z</time>
      </trkpt>
      <trkpt lat="47.24959" lon="6.0988">
        <ele>561</ele>
        <time>2000-01-01T03:03:49.000Z</time>
      </trkpt>
      <trkpt lat="47.24972" lon="6.0989">
        <ele>562</ele>
        <time>2000-01-01T03:03:59.000Z</time>
      </trkpt>
      <trkpt lat="47.25012" lon="6.09904">
        <ele>560</ele>
        <time>2000-01-01T03:04:09.000Z</time>
      </trkpt>
      <trkpt lat="47.2502" lon="6.09908">
        <ele>561.3</ele>
        <time>2000-01-01T03:04:19.000Z</time>
      </trkpt>
      <trkpt lat="47.25027" lon="6.09914">
        <ele>561</ele>
        <time>2000-01-01T03:04:29.000Z</time>
      </trkpt>
      <trkpt lat="47.25059" lon="6.09996">
        <ele>560</ele>
        <time>2000-01-01T03:04:39.000Z</time>
      </trkpt>
      <trkpt lat="47.2507" lon="6.10023">
        <ele>560</ele>
        <time>2000-01-01T03:04:49.000Z</time>
      </trkpt>
      <trkpt lat="47.25072" lon="6.10028">
        <ele>560.2</ele>
        <time>2000-01-01T03:04:59.000Z</time>
      </trkpt>
      <trkpt lat="47.25074" lon="6.10033">
        <ele>560.3</ele>
        <time>2000-01-01T03:05:09.000Z</time>
      </trkpt>
      <trkpt lat="47.25097" lon="6.10078">
        <ele>560</ele>
        <time>2000-01-01T03:05:19.000Z</time>
      </trkpt>
      <trkpt lat="47.25108" lon="6.10095">
        <ele>559.7</ele>
        <time>2000-01-01T03:05:29.000Z</time>
      </trkpt>
      <trkpt lat="47.25118" lon="6.1011">
        <ele>560</ele>
        <time>2000-01-01T03:05:39.000Z</time>
      </trkpt>
      <trkpt lat="47.25103" lon="6.10136">
        <ele>563</ele>
        <time>2000-01-01T03:05:49.000Z</time>
      </trkpt>
      <trkpt lat="47.25099" lon="6.10179">
        <ele>565</ele>
        <time>2000-01-01T03:05:59.000Z</time>
      </trkpt>
      <trkpt lat="47.25095" lon="6.10216">
        <ele>566</ele>
        <time>2000-01-01T03:06:09.000Z</time>
      </trkpt>
      <trkpt lat="47.25091" lon="6.10261">
        <ele>567</ele>
        <time>2000-01-01T03:06:19.000Z</time>
      </trkpt>
      <trkpt lat="47.25077" lon="6.10312">
        <ele>568</ele>
        <time>2000-01-01T03:06:29.000Z</time>
      </trkpt>
      <trkpt lat="47.25076" lon="6.10369">
        <ele>569</ele>
        <time>2000-01-01T03:06:39.000Z</time>
      </trkpt>
      <trkpt lat="47.25071" lon="6.10418">
        <ele>571</ele>
        <time>2000-01-01T03:06:49.000Z</time>
      </trkpt>
      <trkpt lat="47.25066" lon="6.10467">
        <ele>571</ele>
        <time>2000-01-01T03:06:59.000Z</time>
      </trkpt>
      <trkpt lat="47.25062" lon="6.10506">
        <ele>571</ele>
        <time>2000-01-01T03:07:09.000Z</time>
      </trkpt>
      <trkpt lat="47.25057" lon="6.10557">
        <ele>571</ele>
        <time>2000-01-01T03:07:19.000Z</time>
      </trkpt>
      <trkpt lat="47.2505" lon="6.10575">
        <ele>570.6</ele>
        <time>2000-01-01T03:07:29.000Z</time>
      </trkpt>
      <trkpt lat="47.25045" lon="6.10601">
        <ele>569</ele>
        <time>2000-01-01T03:07:39.000Z</time>
      </trkpt>
      <trkpt lat="47.25032" lon="6.10631">
        <ele>567</ele>
        <time>2000-01-01T03:07:49.000Z</time>
      </trkpt>
      <trkpt lat="47.25019" lon="6.10663">
        <ele>565</ele>
        <time>2000-01-01T03:07:59.000Z</time>
      </trkpt>
      <trkpt lat="47.25016" lon="6.10728">
        <ele>564</ele>
        <time>2000-01-01T03:08:09.000Z</time>
      </trkpt>
      <trkpt lat="47.25017" lon="6.10755">
        <ele>564</ele>
        <time>2000-01-01T03:08:19.000Z</time>
      </trkpt>
      <trkpt lat="47.25026" lon="6.10765">
        <ele>564.8</ele>
        <time>2000-01-01T03:08:29.000Z</time>
      </trkpt>
      <trkpt lat="47.25048" lon="6.1084">
        <ele>565</ele>
        <time>2000-01-01T03:08:39.000Z</time>
      </trkpt>
      <trkpt lat="47.25061" lon="6.10864">
        <ele>565</ele>
        <time>2000-01-01T03:08:49.000Z</time>
      </trkpt>
      <trkpt lat="47.2507" lon="6.10893">
        <ele>565</ele>
        <time>2000-01-01T03:08:59.000Z</time>
      </trkpt>
      <trkpt lat="47.25087" lon="6.10927">
        <ele>564</ele>
        <time>2000-01-01T03:09:09.000Z</time>
      </trkpt>
      <trkpt lat="47.251" lon="6.10955">
        <ele>564</ele>
        <time>2000-01-01T03:09:19.000Z</time>
      </trkpt>
      <trkpt lat="47.25114" lon="6.10984">
        <ele>566</ele>
        <time>2000-01-01T03:09:29.000Z</time>
      </trkpt>
      <trkpt lat="47.25126" lon="6.11032">
        <ele>569</ele>
        <time>2000-01-01T03:09:39.000Z</time>
      </trkpt>
      <trkpt lat="47.25143" lon="6.11064">
        <ele>570</ele>
        <time>2000-01-01T03:09:49.000Z</time>
      </trkpt>
      <trkpt lat="47.25119" lon="6.11087">
        <ele>570</ele>
        <time>2000-01-01T03:09:59.000Z</time>
      </trkpt>
      <trkpt lat="47.25099" lon="6.11106">
        <ele>569</ele>
        <time>2000-01-01T03:10:09.000Z</time>
      </trkpt>
      <trkpt lat="47.25078" lon="6.11127">
        <ele>568</ele>
        <time>2000-01-01T03:10:19.000Z</time>
      </trkpt>
      <trkpt lat="47.25095" lon="6.11167">
        <ele>568</ele>
        <time>2000-01-01T03:10:29.000Z</time>
      </trkpt>
      <trkpt lat="47.25112" lon="6.11206">
        <ele>567</ele>
        <time>2000-01-01T03:10:39.000Z</time>
      </trkpt>
      <trkpt lat="47.25133" lon="6.11257">
        <ele>566</ele>
        <time>2000-01-01T03:10:49.000Z</time>
      </trkpt>
      <trkpt lat="47.25144" lon="6.11288">
        <ele>563</ele>
        <time>2000-01-01T03:10:59.000Z</time>
      </trkpt>
      <trkpt lat="47.25157" lon="6.11321">
        <ele>561</ele>
        <time>2000-01-01T03:11:09.000Z</time>
      </trkpt>
      <trkpt lat="47.25181" lon="6.11359">
        <ele>560</ele>
        <time>2000-01-01T03:11:19.000Z</time>
      </trkpt>
      <trkpt lat="47.25204" lon="6.11396">
        <ele>560</ele>
        <time>2000-01-01T03:11:29.000Z</time>
      </trkpt>
      <trkpt lat="47.25228" lon="6.11434">
        <ele>560</ele>
        <time>2000-01-01T03:11:39.000Z</time>
      </trkpt>
      <trkpt lat="47.25256" lon="6.11479">
        <ele>559</ele>
        <time>2000-01-01T03:11:49.000Z</time>
      </trkpt>
      <trkpt lat="47.25281" lon="6.11513">
        <ele>556</ele>
        <time>2000-01-01T03:11:59.000Z</time>
      </trkpt>
      <trkpt lat="47.25305" lon="6.11546">
        <ele>555</ele>
        <time>2000-01-01T03:12:09.000Z</time>
      </trkpt>
      <trkpt lat="47.25324" lon="6.11572">
        <ele>554</ele>
        <time>2000-01-01T03:12:19.000Z</time>
      </trkpt>
      <trkpt lat="47.25348" lon="6.11605">
        <ele>553</ele>
        <time>2000-01-01T03:12:29.000Z</time>
      </trkpt>
      <trkpt lat="47.25375" lon="6.11638">
        <ele>552</ele>
        <time>2000-01-01T03:12:39.000Z</time>
      </trkpt>
      <trkpt lat="47.25403" lon="6.1167">
        <ele>550</ele>
        <time>2000-01-01T03:12:49.000Z</time>
      </trkpt>
      <trkpt lat="47.2543" lon="6.11703">
        <ele>548</ele>
        <time>2000-01-01T03:12:59.000Z</time>
      </trkpt>
      <trkpt lat="47.25449" lon="6.11725">
        <ele>548</ele>
        <time>2000-01-01T03:13:09.000Z</time>
      </trkpt>
      <trkpt lat="47.25469" lon="6.11749">
        <ele>549</ele>
        <time>2000-01-01T03:13:19.000Z</time>
      </trkpt>
      <trkpt lat="47.25485" lon="6.11776">
        <ele>549</ele>
        <time>2000-01-01T03:13:29.000Z</time>
      </trkpt>
      <trkpt lat="47.25502" lon="6.11806">
        <ele>549</ele>
        <time>2000-01-01T03:13:39.000Z</time>
      </trkpt>
      <trkpt lat="47.25504" lon="6.11809">
        <ele>549</ele>
        <time>2000-01-01T03:13:49.000Z</time>
      </trkpt>
      <trkpt lat="47.2558" lon="6.11917">
        <ele>545</ele>
        <time>2000-01-01T03:13:59.000Z</time>
      </trkpt>
      <trkpt lat="47.25608" lon="6.11956">
        <ele>543</ele>
        <time>2000-01-01T03:14:09.000Z</time>
      </trkpt>
      <trkpt lat="47.25636" lon="6.11995">
        <ele>542</ele>
        <time>2000-01-01T03:14:19.000Z</time>
      </trkpt>
      <trkpt lat="47.25663" lon="6.12034">
        <ele>542</ele>
        <time>2000-01-01T03:14:29.000Z</time>
      </trkpt>
      <trkpt lat="47.25691" lon="6.12073">
        <ele>542</ele>
        <time>2000-01-01T03:14:39.000Z</time>
      </trkpt>
      <trkpt lat="47.25718" lon="6.12112">
        <ele>540</ele>
        <time>2000-01-01T03:14:49.000Z</time>
      </trkpt>
      <trkpt lat="47.25749" lon="6.12156">
        <ele>538</ele>
        <time>2000-01-01T03:14:59.000Z</time>
      </trkpt>
      <trkpt lat="47.2576" lon="6.1214">
        <ele>539.9</ele>
        <time>2000-01-01T03:15:09.000Z</time>
      </trkpt>
      <trkpt lat="47.2577" lon="6.12161">
        <ele>538</ele>
        <time>2000-01-01T03:15:19.000Z</time>
      </trkpt>
      <trkpt lat="47.25782" lon="6.12173">
        <ele>537</ele>
        <time>2000-01-01T03:15:29.000Z</time>
      </trkpt>
      <trkpt lat="47.25799" lon="6.122">
        <ele>533</ele>
        <time>2000-01-01T03:15:39.000Z</time>
      </trkpt>
      <trkpt lat="47.25821" lon="6.12234">
        <ele>531</ele>
        <time>2000-01-01T03:15:49.000Z</time>
      </trkpt>
      <trkpt lat="47.25831" lon="6.12269">
        <ele>529</ele>
        <time>2000-01-01T03:15:59.000Z</time>
      </trkpt>
      <trkpt lat="47.25843" lon="6.12313">
        <ele>524</ele>
        <time>2000-01-01T03:16:09.000Z</time>
      </trkpt>
      <trkpt lat="47.25858" lon="6.12361">
        <ele>520</ele>
        <time>2000-01-01T03:16:19.000Z</time>
      </trkpt>
      <trkpt lat="47.25873" lon="6.1241">
        <ele>515</ele>
        <time>2000-01-01T03:16:29.000Z</time>
      </trkpt>
      <trkpt lat="47.25888" lon="6.12459">
        <ele>513</ele>
        <time>2000-01-01T03:16:39.000Z</time>
      </trkpt>
      <trkpt lat="47.25899" lon="6.12495">
        <ele>513</ele>
        <time>2000-01-01T03:16:49.000Z</time>
      </trkpt>
      <trkpt lat="47.25915" lon="6.12546">
        <ele>512</ele>
        <time>2000-01-01T03:16:59.000Z</time>
      </trkpt>
      <trkpt lat="47.25936" lon="6.12567">
        <ele>511</ele>
        <time>2000-01-01T03:17:09.000Z</time>
      </trkpt>
      <trkpt lat="47.25945" lon="6.12598">
        <ele>510</ele>
        <time>2000-01-01T03:17:19.000Z</time>
      </trkpt>
      <trkpt lat="47.25987" lon="6.12622">
        <ele>507</ele>
        <time>2000-01-01T03:17:29.000Z</time>
      </trkpt>
      <trkpt lat="47.26002" lon="6.1266">
        <ele>505</ele>
        <time>2000-01-01T03:17:39.000Z</time>
      </trkpt>
      <trkpt lat="47.26014" lon="6.12693">
        <ele>505</ele>
        <time>2000-01-01T03:17:49.000Z</time>
      </trkpt>
      <trkpt lat="47.2603" lon="6.12734">
        <ele>507</ele>
        <time>2000-01-01T03:17:59.000Z</time>
      </trkpt>
      <trkpt lat="47.26039" lon="6.12769">
        <ele>508</ele>
        <time>2000-01-01T03:18:09.000Z</time>
      </trkpt>
      <trkpt lat="47.26032" lon="6.12819">
        <ele>508</ele>
        <time>2000-01-01T03:18:19.000Z</time>
      </trkpt>
      <trkpt lat="47.26041" lon="6.12842">
        <ele>508</ele>
        <time>2000-01-01T03:18:29.000Z</time>
      </trkpt>
      <trkpt lat="47.25932" lon="6.12927">
        <ele>508</ele>
        <time>2000-01-01T03:18:39.000Z</time>
      </trkpt>
      <trkpt lat="47.25905" lon="6.12943">
        <ele>509</ele>
        <time>2000-01-01T03:18:49.000Z</time>
      </trkpt>
      <trkpt lat="47.25884" lon="6.12956">
        <ele>509</ele>
        <time>2000-01-01T03:18:59.000Z</time>
      </trkpt>
      <trkpt lat="47.25861" lon="6.1297">
        <ele>508</ele>
        <time>2000-01-01T03:19:09.000Z</time>
      </trkpt>
      <trkpt lat="47.2583" lon="6.12994">
        <ele>505</ele>
        <time>2000-01-01T03:19:19.000Z</time>
      </trkpt>
      <trkpt lat="47.25799" lon="6.13018">
        <ele>501</ele>
        <time>2000-01-01T03:19:29.000Z</time>
      </trkpt>
      <trkpt lat="47.25769" lon="6.13041">
        <ele>498</ele>
        <time>2000-01-01T03:19:39.000Z</time>
      </trkpt>
      <trkpt lat="47.25733" lon="6.13069">
        <ele>495</ele>
        <time>2000-01-01T03:19:49.000Z</time>
      </trkpt>
      <trkpt lat="47.25707" lon="6.13075">
        <ele>492</ele>
        <time>2000-01-01T03:19:59.000Z</time>
      </trkpt>
      <trkpt lat="47.25679" lon="6.13098">
        <ele>489</ele>
        <time>2000-01-01T03:20:09.000Z</time>
      </trkpt>
      <trkpt lat="47.25651" lon="6.13121">
        <ele>488</ele>
        <time>2000-01-01T03:20:19.000Z</time>
      </trkpt>
      <trkpt lat="47.25614" lon="6.13152">
        <ele>486</ele>
        <time>2000-01-01T03:20:29.000Z</time>
      </trkpt>
      <trkpt lat="47.25638" lon="6.13173">
        <ele>487</ele>
        <time>2000-01-01T03:20:39.000Z</time>
      </trkpt>
      <trkpt lat="47.25674" lon="6.13206">
        <ele>489</ele>
        <time>2000-01-01T03:20:49.000Z</time>
      </trkpt>
      <trkpt lat="47.25694" lon="6.13233">
        <ele>490</ele>
        <time>2000-01-01T03:20:59.000Z</time>
      </trkpt>
      <trkpt lat="47.25716" lon="6.13271">
        <ele>490</ele>
        <time>2000-01-01T03:21:09.000Z</time>
      </trkpt>
      <trkpt lat="47.25738" lon="6.13308">
        <ele>491</ele>
        <time>2000-01-01T03:21:19.000Z</time>
      </trkpt>
      <trkpt lat="47.25754" lon="6.13337">
        <ele>492</ele>
        <time>2000-01-01T03:21:29.000Z</time>
      </trkpt>
      <trkpt lat="47.25776" lon="6.13374">
        <ele>496</ele>
        <time>2000-01-01T03:21:39.000Z</time>
      </trkpt>
      <trkpt lat="47.25786" lon="6.13407">
        <ele>496</ele>
        <time>2000-01-01T03:21:49.000Z</time>
      </trkpt>
      <trkpt lat="47.25794" lon="6.13431">
        <ele>497.6</ele>
        <time>2000-01-01T03:21:59.000Z</time>
      </trkpt>
      <trkpt lat="47.25798" lon="6.13446">
        <ele>496</ele>
        <time>2000-01-01T03:22:09.000Z</time>
      </trkpt>
      <trkpt lat="47.25803" lon="6.13465">
        <ele>497.7</ele>
        <time>2000-01-01T03:22:19.000Z</time>
      </trkpt>
      <trkpt lat="47.25816" lon="6.13502">
        <ele>498</ele>
        <time>2000-01-01T03:22:29.000Z</time>
      </trkpt>
      <trkpt lat="47.25837" lon="6.13543">
        <ele>501</ele>
        <time>2000-01-01T03:22:39.000Z</time>
      </trkpt>
      <trkpt lat="47.25861" lon="6.13584">
        <ele>503</ele>
        <time>2000-01-01T03:22:49.000Z</time>
      </trkpt>
      <trkpt lat="47.25872" lon="6.13604">
        <ele>505.1</ele>
        <time>2000-01-01T03:22:59.000Z</time>
      </trkpt>
      <trkpt lat="47.25884" lon="6.13625">
        <ele>506</ele>
        <time>2000-01-01T03:23:09.000Z</time>
      </trkpt>
      <trkpt lat="47.25896" lon="6.13652">
        <ele>508</ele>
        <time>2000-01-01T03:23:19.000Z</time>
      </trkpt>
      <trkpt lat="47.25905" lon="6.13674">
        <ele>508.7</ele>
        <time>2000-01-01T03:23:29.000Z</time>
      </trkpt>
      <trkpt lat="47.25912" lon="6.13697">
        <ele>509</ele>
        <time>2000-01-01T03:23:39.000Z</time>
      </trkpt>
      <trkpt lat="47.25915" lon="6.13717">
        <ele>509.8</ele>
        <time>2000-01-01T03:23:49.000Z</time>
      </trkpt>
      <trkpt lat="47.25918" lon="6.13744">
        <ele>509</ele>
        <time>2000-01-01T03:23:59.000Z</time>
      </trkpt>
      <trkpt lat="47.25923" lon="6.13767">
        <ele>509.1</ele>
        <time>2000-01-01T03:24:09.000Z</time>
      </trkpt>
      <trkpt lat="47.25935" lon="6.13799">
        <ele>510</ele>
        <time>2000-01-01T03:24:19.000Z</time>
      </trkpt>
      <trkpt lat="47.25951" lon="6.13834">
        <ele>511</ele>
        <time>2000-01-01T03:24:29.000Z</time>
      </trkpt>
      <trkpt lat="47.25962" lon="6.13843">
        <ele>512.2</ele>
        <time>2000-01-01T03:24:39.000Z</time>
      </trkpt>
      <trkpt lat="47.25975" lon="6.13853">
        <ele>513</ele>
        <time>2000-01-01T03:24:49.000Z</time>
      </trkpt>
      <trkpt lat="47.25981" lon="6.13867">
        <ele>514.9</ele>
        <time>2000-01-01T03:24:59.000Z</time>
      </trkpt>
      <trkpt lat="47.25996" lon="6.13907">
        <ele>516</ele>
        <time>2000-01-01T03:25:09.000Z</time>
      </trkpt>
      <trkpt lat="47.26001" lon="6.13923">
        <ele>517.9</ele>
        <time>2000-01-01T03:25:19.000Z</time>
      </trkpt>
      <trkpt lat="47.26003" lon="6.13927">
        <ele>517.9</ele>
        <time>2000-01-01T03:25:29.000Z</time>
      </trkpt>
      <trkpt lat="47.26011" lon="6.13961">
        <ele>518</ele>
        <time>2000-01-01T03:25:39.000Z</time>
      </trkpt>
      <trkpt lat="47.26019" lon="6.13999">
        <ele>518</ele>
        <time>2000-01-01T03:25:49.000Z</time>
      </trkpt>
      <trkpt lat="47.26015" lon="6.14046">
        <ele>518</ele>
        <time>2000-01-01T03:25:59.000Z</time>
      </trkpt>
      <trkpt lat="47.26022" lon="6.14084">
        <ele>518</ele>
        <time>2000-01-01T03:26:09.000Z</time>
      </trkpt>
      <trkpt lat="47.26033" lon="6.14137">
        <ele>518</ele>
        <time>2000-01-01T03:26:19.000Z</time>
      </trkpt>
      <trkpt lat="47.26043" lon="6.14163">
        <ele>519</ele>
        <time>2000-01-01T03:26:29.000Z</time>
      </trkpt>
      <trkpt lat="47.26068" lon="6.14203">
        <ele>519</ele>
        <time>2000-01-01T03:26:39.000Z</time>
      </trkpt>
      <trkpt lat="47.26057" lon="6.14263">
        <ele>517</ele>
        <time>2000-01-01T03:26:49.000Z</time>
      </trkpt>
      <trkpt lat="47.2606" lon="6.14302">
        <ele>516</ele>
        <time>2000-01-01T03:26:59.000Z</time>
      </trkpt>
      <trkpt lat="47.26064" lon="6.14355">
        <ele>516</ele>
        <time>2000-01-01T03:27:09.000Z</time>
      </trkpt>
      <trkpt lat="47.26061" lon="6.14396">
        <ele>516</ele>
        <time>2000-01-01T03:27:19.000Z</time>
      </trkpt>
      <trkpt lat="47.26057" lon="6.14461">
        <ele>514</ele>
        <time>2000-01-01T03:27:29.000Z</time>
      </trkpt>
      <trkpt lat="47.26067" lon="6.14501">
        <ele>514</ele>
        <time>2000-01-01T03:27:39.000Z</time>
      </trkpt>
      <trkpt lat="47.26074" lon="6.14534">
        <ele>514</ele>
        <time>2000-01-01T03:27:49.000Z</time>
      </trkpt>
      <trkpt lat="47.26083" lon="6.1457">
        <ele>514</ele>
        <time>2000-01-01T03:27:59.000Z</time>
      </trkpt>
      <trkpt lat="47.26083" lon="6.14615">
        <ele>512</ele>
        <time>2000-01-01T03:28:09.000Z</time>
      </trkpt>
      <trkpt lat="47.2607" lon="6.14661">
        <ele>506</ele>
        <time>2000-01-01T03:28:19.000Z</time>
      </trkpt>
      <trkpt lat="47.26048" lon="6.14715">
        <ele>502</ele>
        <time>2000-01-01T03:28:29.000Z</time>
      </trkpt>
      <trkpt lat="47.26034" lon="6.14771">
        <ele>499</ele>
        <time>2000-01-01T03:28:39.000Z</time>
      </trkpt>
      <trkpt lat="47.26021" lon="6.14812">
        <ele>497</ele>
        <time>2000-01-01T03:28:49.000Z</time>
      </trkpt>
      <trkpt lat="47.26008" lon="6.1484">
        <ele>495</ele>
        <time>2000-01-01T03:28:59.000Z</time>
      </trkpt>
      <trkpt lat="47.26013" lon="6.14873">
        <ele>494</ele>
        <time>2000-01-01T03:29:09.000Z</time>
      </trkpt>
      <trkpt lat="47.26018" lon="6.14908">
        <ele>493</ele>
        <time>2000-01-01T03:29:19.000Z</time>
      </trkpt>
      <trkpt lat="47.26022" lon="6.14947">
        <ele>492</ele>
        <time>2000-01-01T03:29:29.000Z</time>
      </trkpt>
      <trkpt lat="47.26027" lon="6.15004">
        <ele>489</ele>
        <time>2000-01-01T03:29:39.000Z</time>
      </trkpt>
      <trkpt lat="47.25988" lon="6.1502">
        <ele>482</ele>
        <time>2000-01-01T03:29:49.000Z</time>
      </trkpt>
      <trkpt lat="47.2595" lon="6.15036">
        <ele>473</ele>
        <time>2000-01-01T03:29:59.000Z</time>
      </trkpt>
      <trkpt lat="47.25911" lon="6.15052">
        <ele>464</ele>
        <time>2000-01-01T03:30:09.000Z</time>
      </trkpt>
      <trkpt lat="47.25872" lon="6.15069">
        <ele>454</ele>
        <time>2000-01-01T03:30:19.000Z</time>
      </trkpt>
      <trkpt lat="47.25833" lon="6.15085">
        <ele>446</ele>
        <time>2000-01-01T03:30:29.000Z</time>
      </trkpt>
      <trkpt lat="47.25795" lon="6.15101">
        <ele>438</ele>
        <time>2000-01-01T03:30:39.000Z</time>
      </trkpt>
      <trkpt lat="47.25756" lon="6.15117">
        <ele>431</ele>
        <time>2000-01-01T03:30:49.000Z</time>
      </trkpt>
      <trkpt lat="47.25732" lon="6.15127">
        <ele>427</ele>
        <time>2000-01-01T03:30:59.000Z</time>
      </trkpt>
      <trkpt lat="47.25704" lon="6.15139">
        <ele>421</ele>
        <time>2000-01-01T03:31:09.000Z</time>
      </trkpt>
      <trkpt lat="47.25707" lon="6.15182">
        <ele>420</ele>
        <time>2000-01-01T03:31:19.000Z</time>
      </trkpt>
      <trkpt lat="47.2571" lon="6.15218">
        <ele>420</ele>
        <time>2000-01-01T03:31:29.000Z</time>
      </trkpt>
      <trkpt lat="47.25713" lon="6.15261">
        <ele>420</ele>
        <time>2000-01-01T03:31:39.000Z</time>
      </trkpt>
      <trkpt lat="47.25726" lon="6.15301">
        <ele>420</ele>
        <time>2000-01-01T03:31:49.000Z</time>
      </trkpt>
      <trkpt lat="47.25737" lon="6.15336">
        <ele>420</ele>
        <time>2000-01-01T03:31:59.000Z</time>
      </trkpt>
      <trkpt lat="47.25752" lon="6.15381">
        <ele>420</ele>
        <time>2000-01-01T03:32:09.000Z</time>
      </trkpt>
      <trkpt lat="47.25758" lon="6.15434">
        <ele>420</ele>
        <time>2000-01-01T03:32:19.000Z</time>
      </trkpt>
      <trkpt lat="47.25767" lon="6.15468">
        <ele>420</ele>
        <time>2000-01-01T03:32:29.000Z</time>
      </trkpt>
      <trkpt lat="47.25778" lon="6.15507">
        <ele>421</ele>
        <time>2000-01-01T03:32:39.000Z</time>
      </trkpt>
      <trkpt lat="47.25782" lon="6.15553">
        <ele>421</ele>
        <time>2000-01-01T03:32:49.000Z</time>
      </trkpt>
      <trkpt lat="47.25746" lon="6.15527">
        <ele>415</ele>
        <time>2000-01-01T03:32:59.000Z</time>
      </trkpt>
      <trkpt lat="47.25721" lon="6.15539">
        <ele>412</ele>
        <time>2000-01-01T03:33:09.000Z</time>
      </trkpt>
      <trkpt lat="47.2569" lon="6.15554">
        <ele>406</ele>
        <time>2000-01-01T03:33:19.000Z</time>
      </trkpt>
      <trkpt lat="47.25668" lon="6.15569">
        <ele>404</ele>
        <time>2000-01-01T03:33:29.000Z</time>
      </trkpt>
      <trkpt lat="47.25643" lon="6.15586">
        <ele>402</ele>
        <time>2000-01-01T03:33:39.000Z</time>
      </trkpt>
      <trkpt lat="47.25626" lon="6.15587">
        <ele>401.1</ele>
        <time>2000-01-01T03:33:49.000Z</time>
      </trkpt>
      <trkpt lat="47.25552" lon="6.15531">
        <ele>404</ele>
        <time>2000-01-01T03:33:59.000Z</time>
      </trkpt>
      <trkpt lat="47.25508" lon="6.15525">
        <ele>406</ele>
        <time>2000-01-01T03:34:09.000Z</time>
      </trkpt>
      <trkpt lat="47.25492" lon="6.15557">
        <ele>408</ele>
        <time>2000-01-01T03:34:19.000Z</time>
      </trkpt>
      <trkpt lat="47.25469" lon="6.15605">
        <ele>410</ele>
        <time>2000-01-01T03:34:29.000Z</time>
      </trkpt>
      <trkpt lat="47.25448" lon="6.15629">
        <ele>412</ele>
        <time>2000-01-01T03:34:39.000Z</time>
      </trkpt>
      <trkpt lat="47.25419" lon="6.15661">
        <ele>416</ele>
        <time>2000-01-01T03:34:49.000Z</time>
      </trkpt>
      <trkpt lat="47.25406" lon="6.1568">
        <ele>418</ele>
        <time>2000-01-01T03:34:59.000Z</time>
      </trkpt>
      <trkpt lat="47.25402" lon="6.15743">
        <ele>419</ele>
        <time>2000-01-01T03:35:09.000Z</time>
      </trkpt>
      <trkpt lat="47.25381" lon="6.15763">
        <ele>427</ele>
        <time>2000-01-01T03:35:19.000Z</time>
      </trkpt>
      <trkpt lat="47.25356" lon="6.15786">
        <ele>435</ele>
        <time>2000-01-01T03:35:29.000Z</time>
      </trkpt>
      <trkpt lat="47.25346" lon="6.15826">
        <ele>436</ele>
        <time>2000-01-01T03:35:39.000Z</time>
      </trkpt>
      <trkpt lat="47.25327" lon="6.15856">
        <ele>438</ele>
        <time>2000-01-01T03:35:49.000Z</time>
      </trkpt>
      <trkpt lat="47.25299" lon="6.15901">
        <ele>439</ele>
        <time>2000-01-01T03:35:59.000Z</time>
      </trkpt>
      <trkpt lat="47.25275" lon="6.15925">
        <ele>439</ele>
        <time>2000-01-01T03:36:09.000Z</time>
      </trkpt>
      <trkpt lat="47.25255" lon="6.15944">
        <ele>438</ele>
        <time>2000-01-01T03:36:19.000Z</time>
      </trkpt>
      <trkpt lat="47.25234" lon="6.15965">
        <ele>436</ele>
        <time>2000-01-01T03:36:29.000Z</time>
      </trkpt>
      <trkpt lat="47.25223" lon="6.15965">
        <ele>436.1</ele>
        <time>2000-01-01T03:36:39.000Z</time>
      </trkpt>
      <trkpt lat="47.2521" lon="6.15957">
        <ele>434</ele>
        <time>2000-01-01T03:36:49.000Z</time>
      </trkpt>
      <trkpt lat="47.25205" lon="6.15952">
        <ele>434.8</ele>
        <time>2000-01-01T03:36:59.000Z</time>
      </trkpt>
      <trkpt lat="47.25202" lon="6.15951">
        <ele>434.5</ele>
        <time>2000-01-01T03:37:09.000Z</time>
      </trkpt>
      <trkpt lat="47.25198" lon="6.15956">
        <ele>434.3</ele>
        <time>2000-01-01T03:37:19.000Z</time>
      </trkpt>
      <trkpt lat="47.25193" lon="6.15967">
        <ele>434</ele>
        <time>2000-01-01T03:37:29.000Z</time>
      </trkpt>
      <trkpt lat="47.25173" lon="6.16011">
        <ele>433</ele>
        <time>2000-01-01T03:37:39.000Z</time>
      </trkpt>
      <trkpt lat="47.25146" lon="6.16064">
        <ele>432</ele>
        <time>2000-01-01T03:37:49.000Z</time>
      </trkpt>
      <trkpt lat="47.25128" lon="6.16092">
        <ele>432</ele>
        <time>2000-01-01T03:37:59.000Z</time>
      </trkpt>
      <trkpt lat="47.25112" lon="6.16121">
        <ele>432</ele>
        <time>2000-01-01T03:38:09.000Z</time>
      </trkpt>
      <trkpt lat="47.25091" lon="6.16159">
        <ele>431</ele>
        <time>2000-01-01T03:38:19.000Z</time>
      </trkpt>
      <trkpt lat="47.25083" lon="6.16174">
        <ele>432</ele>
        <time>2000-01-01T03:38:29.000Z</time>
      </trkpt>
      <trkpt lat="47.2508" lon="6.16182">
        <ele>431</ele>
        <time>2000-01-01T03:38:39.000Z</time>
      </trkpt>
      <trkpt lat="47.25078" lon="6.16187">
        <ele>431.6</ele>
        <time>2000-01-01T03:38:49.000Z</time>
      </trkpt>
      <trkpt lat="47.25076" lon="6.16196">
        <ele>431.5</ele>
        <time>2000-01-01T03:38:59.000Z</time>
      </trkpt>
      <trkpt lat="47.25074" lon="6.16205">
        <ele>431.3</ele>
        <time>2000-01-01T03:39:09.000Z</time>
      </trkpt>
      <trkpt lat="47.25074" lon="6.16217">
        <ele>431</ele>
        <time>2000-01-01T03:39:19.000Z</time>
      </trkpt>
      <trkpt lat="47.25074" lon="6.16235">
        <ele>431.3</ele>
        <time>2000-01-01T03:39:29.000Z</time>
      </trkpt>
      <trkpt lat="47.25074" lon="6.16251">
        <ele>431</ele>
        <time>2000-01-01T03:39:39.000Z</time>
      </trkpt>
      <trkpt lat="47.25073" lon="6.1627">
        <ele>431.3</ele>
        <time>2000-01-01T03:39:49.000Z</time>
      </trkpt>
      <trkpt lat="47.25073" lon="6.16295">
        <ele>431</ele>
        <time>2000-01-01T03:39:59.000Z</time>
      </trkpt>
      <trkpt lat="47.25072" lon="6.16313">
        <ele>431.2</ele>
        <time>2000-01-01T03:40:09.000Z</time>
      </trkpt>
      <trkpt lat="47.25066" lon="6.16349">
        <ele>430</ele>
        <time>2000-01-01T03:40:19.000Z</time>
      </trkpt>
      <trkpt lat="47.25055" lon="6.16384">
        <ele>429</ele>
        <time>2000-01-01T03:40:29.000Z</time>
      </trkpt>
      <trkpt lat="47.25047" lon="6.16405">
        <ele>430</ele>
        <time>2000-01-01T03:40:39.000Z</time>
      </trkpt>
      <trkpt lat="47.2504" lon="6.16427">
        <ele>429</ele>
        <time>2000-01-01T03:40:49.000Z</time>
      </trkpt>
      <trkpt lat="47.25034" lon="6.16448">
        <ele>430.2</ele>
        <time>2000-01-01T03:40:59.000Z</time>
      </trkpt>
      <trkpt lat="47.2503" lon="6.16471">
        <ele>430</ele>
        <time>2000-01-01T03:41:09.000Z</time>
      </trkpt>
      <trkpt lat="47.25028" lon="6.16485">
        <ele>430.5</ele>
        <time>2000-01-01T03:41:19.000Z</time>
      </trkpt>
      <trkpt lat="47.25022" lon="6.16535">
        <ele>429</ele>
        <time>2000-01-01T03:41:29.000Z</time>
      </trkpt>
      <trkpt lat="47.2502" lon="6.16547">
        <ele>430.7</ele>
        <time>2000-01-01T03:41:39.000Z</time>
      </trkpt>
      <trkpt lat="47.2502" lon="6.16559">
        <ele>430.7</ele>
        <time>2000-01-01T03:41:49.000Z</time>
      </trkpt>
      <trkpt lat="47.25012" lon="6.16613">
        <ele>429</ele>
        <time>2000-01-01T03:41:59.000Z</time>
      </trkpt>
      <trkpt lat="47.25001" lon="6.16666">
        <ele>426</ele>
        <time>2000-01-01T03:42:09.000Z</time>
      </trkpt>
      <trkpt lat="47.24992" lon="6.16699">
        <ele>425</ele>
        <time>2000-01-01T03:42:19.000Z</time>
      </trkpt>
      <trkpt lat="47.24976" lon="6.16753">
        <ele>420</ele>
        <time>2000-01-01T03:42:29.000Z</time>
      </trkpt>
      <trkpt lat="47.2497" lon="6.16774">
        <ele>420</ele>
        <time>2000-01-01T03:42:39.000Z</time>
      </trkpt>
      <trkpt lat="47.24963" lon="6.16803">
        <ele>418</ele>
        <time>2000-01-01T03:42:49.000Z</time>
      </trkpt>
      <trkpt lat="47.24952" lon="6.16854">
        <ele>416</ele>
        <time>2000-01-01T03:42:59.000Z</time>
      </trkpt>
      <trkpt lat="47.24951" lon="6.16869">
        <ele>415.4</ele>
        <time>2000-01-01T03:43:09.000Z</time>
      </trkpt>
      <trkpt lat="47.2495" lon="6.16919">
        <ele>413</ele>
        <time>2000-01-01T03:43:19.000Z</time>
      </trkpt>
      <trkpt lat="47.24948" lon="6.16941">
        <ele>413.4</ele>
        <time>2000-01-01T03:43:29.000Z</time>
      </trkpt>
      <trkpt lat="47.24948" lon="6.1698">
        <ele>411</ele>
        <time>2000-01-01T03:43:39.000Z</time>
      </trkpt>
      <trkpt lat="47.24949" lon="6.16997">
        <ele>411.4</ele>
        <time>2000-01-01T03:43:49.000Z</time>
      </trkpt>
      <trkpt lat="47.24952" lon="6.17014">
        <ele>411</ele>
        <time>2000-01-01T03:43:59.000Z</time>
      </trkpt>
      <trkpt lat="47.24954" lon="6.17035">
        <ele>410.2</ele>
        <time>2000-01-01T03:44:09.000Z</time>
      </trkpt>
      <trkpt lat="47.24958" lon="6.17072">
        <ele>407</ele>
        <time>2000-01-01T03:44:19.000Z</time>
      </trkpt>
      <trkpt lat="47.24958" lon="6.17089">
        <ele>405.6</ele>
        <time>2000-01-01T03:44:29.000Z</time>
      </trkpt>
      <trkpt lat="47.2495" lon="6.17119">
        <ele>403</ele>
        <time>2000-01-01T03:44:39.000Z</time>
      </trkpt>
      <trkpt lat="47.24944" lon="6.17136">
        <ele>401.2</ele>
        <time>2000-01-01T03:44:49.000Z</time>
      </trkpt>
      <trkpt lat="47.2494" lon="6.1714">
        <ele>401</ele>
        <time>2000-01-01T03:44:59.000Z</time>
      </trkpt>
      <trkpt lat="47.24931" lon="6.17145">
        <ele>400.9</ele>
        <time>2000-01-01T03:45:09.000Z</time>
      </trkpt>
      <trkpt lat="47.24922" lon="6.17153">
        <ele>401</ele>
        <time>2000-01-01T03:45:19.000Z</time>
      </trkpt>
      <trkpt lat="47.24915" lon="6.1716">
        <ele>401</ele>
        <time>2000-01-01T03:45:29.000Z</time>
      </trkpt>
      <trkpt lat="47.24908" lon="6.17168">
        <ele>401.1</ele>
        <time>2000-01-01T03:45:39.000Z</time>
      </trkpt>
      <trkpt lat="47.24903" lon="6.17175">
        <ele>401</ele>
        <time>2000-01-01T03:45:49.000Z</time>
      </trkpt>
      <trkpt lat="47.249" lon="6.17183">
        <ele>402.2</ele>
        <time>2000-01-01T03:45:59.000Z</time>
      </trkpt>
      <trkpt lat="47.24896" lon="6.17192">
        <ele>402.8</ele>
        <time>2000-01-01T03:46:09.000Z</time>
      </trkpt>
      <trkpt lat="47.24894" lon="6.17204">
        <ele>403</ele>
        <time>2000-01-01T03:46:19.000Z</time>
      </trkpt>
      <trkpt lat="47.24892" lon="6.17215">
        <ele>403.8</ele>
        <time>2000-01-01T03:46:29.000Z</time>
      </trkpt>
      <trkpt lat="47.24891" lon="6.1723">
        <ele>404.4</ele>
        <time>2000-01-01T03:46:39.000Z</time>
      </trkpt>
      <trkpt lat="47.24891" lon="6.17244">
        <ele>404</ele>
        <time>2000-01-01T03:46:49.000Z</time>
      </trkpt>
      <trkpt lat="47.24892" lon="6.17259">
        <ele>405.8</ele>
        <time>2000-01-01T03:46:59.000Z</time>
      </trkpt>
      <trkpt lat="47.24892" lon="6.17283">
        <ele>407</ele>
        <time>2000-01-01T03:47:09.000Z</time>
      </trkpt>
      <trkpt lat="47.24892" lon="6.17293">
        <ele>407.7</ele>
        <time>2000-01-01T03:47:19.000Z</time>
      </trkpt>
      <trkpt lat="47.24889" lon="6.17304">
        <ele>407.9</ele>
        <time>2000-01-01T03:47:29.000Z</time>
      </trkpt>
      <trkpt lat="47.24884" lon="6.17316">
        <ele>407</ele>
        <time>2000-01-01T03:47:39.000Z</time>
      </trkpt>
      <trkpt lat="47.24865" lon="6.17348">
        <ele>408</ele>
        <time>2000-01-01T03:47:49.000Z</time>
      </trkpt>
      <trkpt lat="47.24852" lon="6.17373">
        <ele>408</ele>
        <time>2000-01-01T03:47:59.000Z</time>
      </trkpt>
      <trkpt lat="47.2484" lon="6.1739">
        <ele>409.3</ele>
        <time>2000-01-01T03:48:09.000Z</time>
      </trkpt>
      <trkpt lat="47.24825" lon="6.17413">
        <ele>409</ele>
        <time>2000-01-01T03:48:19.000Z</time>
      </trkpt>
      <trkpt lat="47.24807" lon="6.17435">
        <ele>409</ele>
        <time>2000-01-01T03:48:29.000Z</time>
      </trkpt>
      <trkpt lat="47.2479" lon="6.17458">
        <ele>409</ele>
        <time>2000-01-01T03:48:39.000Z</time>
      </trkpt>
      <trkpt lat="47.24799" lon="6.17487">
        <ele>410</ele>
        <time>2000-01-01T03:48:49.000Z</time>
      </trkpt>
      <trkpt lat="47.24808" lon="6.17512">
        <ele>410</ele>
        <time>2000-01-01T03:48:59.000Z</time>
      </trkpt>
      <trkpt lat="47.24815" lon="6.17533">
        <ele>411.5</ele>
        <time>2000-01-01T03:49:09.000Z</time>
      </trkpt>
      <trkpt lat="47.24822" lon="6.17553">
        <ele>412</ele>
        <time>2000-01-01T03:49:19.000Z</time>
      </trkpt>
      <trkpt lat="47.24838" lon="6.17598">
        <ele>412</ele>
        <time>2000-01-01T03:49:29.000Z</time>
      </trkpt>
      <trkpt lat="47.24856" lon="6.17649">
        <ele>412</ele>
        <time>2000-01-01T03:49:39.000Z</time>
      </trkpt>
      <trkpt lat="47.24876" lon="6.17681">
        <ele>412</ele>
        <time>2000-01-01T03:49:49.000Z</time>
      </trkpt>
      <trkpt lat="47.24893" lon="6.17709">
        <ele>411</ele>
        <time>2000-01-01T03:49:59.000Z</time>
      </trkpt>
      <trkpt lat="47.24913" lon="6.17742">
        <ele>410</ele>
        <time>2000-01-01T03:50:09.000Z</time>
      </trkpt>
      <trkpt lat="47.24915" lon="6.1775">
        <ele>409.2</ele>
        <time>2000-01-01T03:50:19.000Z</time>
      </trkpt>
      <trkpt lat="47.24918" lon="6.17759">
        <ele>408.9</ele>
        <time>2000-01-01T03:50:29.000Z</time>
      </trkpt>
      <trkpt lat="47.24921" lon="6.17769">
        <ele>408</ele>
        <time>2000-01-01T03:50:39.000Z</time>
      </trkpt>
      <trkpt lat="47.24921" lon="6.17788">
        <ele>408.2</ele>
        <time>2000-01-01T03:50:49.000Z</time>
      </trkpt>
      <trkpt lat="47.2492" lon="6.17814">
        <ele>407</ele>
        <time>2000-01-01T03:50:59.000Z</time>
      </trkpt>
      <trkpt lat="47.24917" lon="6.17846">
        <ele>406</ele>
        <time>2000-01-01T03:51:09.000Z</time>
      </trkpt>
      <trkpt lat="47.24915" lon="6.17866">
        <ele>404.7</ele>
        <time>2000-01-01T03:51:19.000Z</time>
      </trkpt>
      <trkpt lat="47.24914" lon="6.17884">
        <ele>403</ele>
        <time>2000-01-01T03:51:29.000Z</time>
      </trkpt>
      <trkpt lat="47.24913" lon="6.17893">
        <ele>402.8</ele>
        <time>2000-01-01T03:51:39.000Z</time>
      </trkpt>
      <trkpt lat="47.24906" lon="6.17908">
        <ele>402</ele>
        <time>2000-01-01T03:51:49.000Z</time>
      </trkpt>
      <trkpt lat="47.24898" lon="6.17924">
        <ele>401.7</ele>
        <time>2000-01-01T03:51:59.000Z</time>
      </trkpt>
      <trkpt lat="47.24896" lon="6.17929">
        <ele>401.7</ele>
        <time>2000-01-01T03:52:09.000Z</time>
      </trkpt>
      <trkpt lat="47.24893" lon="6.17937">
        <ele>401</ele>
        <time>2000-01-01T03:52:19.000Z</time>
      </trkpt>
      <trkpt lat="47.24911" lon="6.17985">
        <ele>401</ele>
        <time>2000-01-01T03:52:29.000Z</time>
      </trkpt>
      <trkpt lat="47.24922" lon="6.18024">
        <ele>401</ele>
        <time>2000-01-01T03:52:39.000Z</time>
      </trkpt>
      <trkpt lat="47.249" lon="6.18055">
        <ele>401</ele>
        <time>2000-01-01T03:52:49.000Z</time>
      </trkpt>
      <trkpt lat="47.24878" lon="6.18087">
        <ele>401</ele>
        <time>2000-01-01T03:52:59.000Z</time>
      </trkpt>
      <trkpt lat="47.24855" lon="6.18119">
        <ele>401</ele>
        <time>2000-01-01T03:53:09.000Z</time>
      </trkpt>
      <trkpt lat="47.24833" lon="6.18156">
        <ele>402</ele>
        <time>2000-01-01T03:53:19.000Z</time>
      </trkpt>
      <trkpt lat="47.24833" lon="6.18159">
        <ele>403.4</ele>
        <time>2000-01-01T03:53:29.000Z</time>
      </trkpt>
      <trkpt lat="47.2483" lon="6.18167">
        <ele>403.9</ele>
        <time>2000-01-01T03:53:39.000Z</time>
      </trkpt>
      <trkpt lat="47.24825" lon="6.18193">
        <ele>404</ele>
        <time>2000-01-01T03:53:49.000Z</time>
      </trkpt>
      <trkpt lat="47.24824" lon="6.18207">
        <ele>405.5</ele>
        <time>2000-01-01T03:53:59.000Z</time>
      </trkpt>
      <trkpt lat="47.24816" lon="6.18208">
        <ele>405.5</ele>
        <time>2000-01-01T03:54:09.000Z</time>
      </trkpt>
      <trkpt lat="47.24811" lon="6.18208">
        <ele>405</ele>
        <time>2000-01-01T03:54:19.000Z</time>
      </trkpt>
      <trkpt lat="47.24802" lon="6.18209">
        <ele>405.6</ele>
        <time>2000-01-01T03:54:29.000Z</time>
      </trkpt>
      <trkpt lat="47.24793" lon="6.1822">
        <ele>405</ele>
        <time>2000-01-01T03:54:39.000Z</time>
      </trkpt>
      <trkpt lat="47.24788" lon="6.1823">
        <ele>407</ele>
        <time>2000-01-01T03:54:49.000Z</time>
      </trkpt>
      <trkpt lat="47.24784" lon="6.1824">
        <ele>407.6</ele>
        <time>2000-01-01T03:54:59.000Z</time>
      </trkpt>
      <trkpt lat="47.24782" lon="6.1825">
        <ele>407</ele>
        <time>2000-01-01T03:55:09.000Z</time>
      </trkpt>
      <trkpt lat="47.24779" lon="6.18265">
        <ele>409.1</ele>
        <time>2000-01-01T03:55:19.000Z</time>
      </trkpt>
      <trkpt lat="47.24775" lon="6.18282">
        <ele>409</ele>
        <time>2000-01-01T03:55:29.000Z</time>
      </trkpt>
      <trkpt lat="47.24773" lon="6.18292">
        <ele>409.7</ele>
        <time>2000-01-01T03:55:39.000Z</time>
      </trkpt>
      <trkpt lat="47.24771" lon="6.18298">
        <ele>409.7</ele>
        <time>2000-01-01T03:55:49.000Z</time>
      </trkpt>
      <trkpt lat="47.24769" lon="6.18309">
        <ele>410</ele>
        <time>2000-01-01T03:55:59.000Z</time>
      </trkpt>
      <trkpt lat="47.24767" lon="6.1832">
        <ele>409.8</ele>
        <time>2000-01-01T03:56:09.000Z</time>
      </trkpt>
      <trkpt lat="47.24767" lon="6.18327">
        <ele>409.9</ele>
        <time>2000-01-01T03:56:19.000Z</time>
      </trkpt>
      <trkpt lat="47.24758" lon="6.18344">
        <ele>410</ele>
        <time>2000-01-01T03:56:29.000Z</time>
      </trkpt>
      <trkpt lat="47.24727" lon="6.18353">
        <ele>410</ele>
        <time>2000-01-01T03:56:39.000Z</time>
      </trkpt>
      <trkpt lat="47.24697" lon="6.18361">
        <ele>412</ele>
        <time>2000-01-01T03:56:49.000Z</time>
      </trkpt>
      <trkpt lat="47.24661" lon="6.18371">
        <ele>415</ele>
        <time>2000-01-01T03:56:59.000Z</time>
      </trkpt>
      <trkpt lat="47.24642" lon="6.18385">
        <ele>416</ele>
        <time>2000-01-01T03:57:09.000Z</time>
      </trkpt>
      <trkpt lat="47.24623" lon="6.18415">
        <ele>417</ele>
        <time>2000-01-01T03:57:19.000Z</time>
      </trkpt>
      <trkpt lat="47.24592" lon="6.18461">
        <ele>418</ele>
        <time>2000-01-01T03:57:29.000Z</time>
      </trkpt>
      <trkpt lat="47.24576" lon="6.18445">
        <ele>418</ele>
        <time>2000-01-01T03:57:39.000Z</time>
      </trkpt>
      <trkpt lat="47.2456" lon="6.18383">
        <ele>417</ele>
        <time>2000-01-01T03:57:49.000Z</time>
      </trkpt>
      <trkpt lat="47.24536" lon="6.18353">
        <ele>416</ele>
        <time>2000-01-01T03:57:59.000Z</time>
      </trkpt>
      <trkpt lat="47.24496" lon="6.18323">
        <ele>413</ele>
        <time>2000-01-01T03:58:09.000Z</time>
      </trkpt>
      <trkpt lat="47.2448" lon="6.18305">
        <ele>412</ele>
        <time>2000-01-01T03:58:19.000Z</time>
      </trkpt>
      <trkpt lat="47.24453" lon="6.18307">
        <ele>411</ele>
        <time>2000-01-01T03:58:29.000Z</time>
      </trkpt>
      <trkpt lat="47.24419" lon="6.18333">
        <ele>411</ele>
        <time>2000-01-01T03:58:39.000Z</time>
      </trkpt>
      <trkpt lat="47.24389" lon="6.18362">
        <ele>411</ele>
        <time>2000-01-01T03:58:49.000Z</time>
      </trkpt>
      <trkpt lat="47.24368" lon="6.18378">
        <ele>412</ele>
        <time>2000-01-01T03:58:59.000Z</time>
      </trkpt>
      <trkpt lat="47.24346" lon="6.18395">
        <ele>412</ele>
        <time>2000-01-01T03:59:09.000Z</time>
      </trkpt>
      <trkpt lat="47.24325" lon="6.18409">
        <ele>412</ele>
        <time>2000-01-01T03:59:19.000Z</time>
      </trkpt>
      <trkpt lat="47.24303" lon="6.18424">
        <ele>413</ele>
        <time>2000-01-01T03:59:29.000Z</time>
      </trkpt>
      <trkpt lat="47.24273" lon="6.1843">
        <ele>414</ele>
        <time>2000-01-01T03:59:39.000Z</time>
      </trkpt>
      <trkpt lat="47.24249" lon="6.18424">
        <ele>416</ele>
        <time>2000-01-01T03:59:49.000Z</time>
      </trkpt>
      <trkpt lat="47.24216" lon="6.18394">
        <ele>420</ele>
        <time>2000-01-01T03:59:59.000Z</time>
      </trkpt>
      <trkpt lat="47.24173" lon="6.18411">
        <ele>425</ele>
        <time>2000-01-01T04:00:09.000Z</time>
      </trkpt>
      <trkpt lat="47.24143" lon="6.18448">
        <ele>431</ele>
        <time>2000-01-01T04:00:19.000Z</time>
      </trkpt>
      <trkpt lat="47.24119" lon="6.18467">
        <ele>435</ele>
        <time>2000-01-01T04:00:29.000Z</time>
      </trkpt>
      <trkpt lat="47.24084" lon="6.18494">
        <ele>439</ele>
        <time>2000-01-01T04:00:39.000Z</time>
      </trkpt>
      <trkpt lat="47.24059" lon="6.18523">
        <ele>441</ele>
        <time>2000-01-01T04:00:49.000Z</time>
      </trkpt>
      <trkpt lat="47.24034" lon="6.18542">
        <ele>443</ele>
        <time>2000-01-01T04:00:59.000Z</time>
      </trkpt>
      <trkpt lat="47.24013" lon="6.18558">
        <ele>444</ele>
        <time>2000-01-01T04:01:09.000Z</time>
      </trkpt>
      <trkpt lat="47.23991" lon="6.18575">
        <ele>446</ele>
        <time>2000-01-01T04:01:19.000Z</time>
      </trkpt>
      <trkpt lat="47.2401" lon="6.18608">
        <ele>446</ele>
        <time>2000-01-01T04:01:29.000Z</time>
      </trkpt>
      <trkpt lat="47.24035" lon="6.18631">
        <ele>448</ele>
        <time>2000-01-01T04:01:39.000Z</time>
      </trkpt>
      <trkpt lat="47.24061" lon="6.18666">
        <ele>449</ele>
        <time>2000-01-01T04:01:49.000Z</time>
      </trkpt>
      <trkpt lat="47.24087" lon="6.187">
        <ele>451</ele>
        <time>2000-01-01T04:01:59.000Z</time>
      </trkpt>
      <trkpt lat="47.24112" lon="6.18735">
        <ele>451</ele>
        <time>2000-01-01T04:02:09.000Z</time>
      </trkpt>
      <trkpt lat="47.24144" lon="6.18778">
        <ele>452</ele>
        <time>2000-01-01T04:02:19.000Z</time>
      </trkpt>
      <trkpt lat="47.24166" lon="6.18798">
        <ele>452</ele>
        <time>2000-01-01T04:02:29.000Z</time>
      </trkpt>
      <trkpt lat="47.24196" lon="6.18824">
        <ele>451</ele>
        <time>2000-01-01T04:02:39.000Z</time>
      </trkpt>
      <trkpt lat="47.24215" lon="6.18848">
        <ele>450</ele>
        <time>2000-01-01T04:02:49.000Z</time>
      </trkpt>
      <trkpt lat="47.2424" lon="6.18879">
        <ele>449</ele>
        <time>2000-01-01T04:02:59.000Z</time>
      </trkpt>
      <trkpt lat="47.24258" lon="6.18907">
        <ele>447</ele>
        <time>2000-01-01T04:03:09.000Z</time>
      </trkpt>
      <trkpt lat="47.24282" lon="6.18944">
        <ele>443</ele>
        <time>2000-01-01T04:03:19.000Z</time>
      </trkpt>
      <trkpt lat="47.24318" lon="6.1896">
        <ele>440</ele>
        <time>2000-01-01T04:03:29.000Z</time>
      </trkpt>
      <trkpt lat="47.24353" lon="6.18976">
        <ele>438</ele>
        <time>2000-01-01T04:03:39.000Z</time>
      </trkpt>
      <trkpt lat="47.24389" lon="6.18991">
        <ele>436</ele>
        <time>2000-01-01T04:03:49.000Z</time>
      </trkpt>
      <trkpt lat="47.24424" lon="6.19007">
        <ele>433</ele>
        <time>2000-01-01T04:03:59.000Z</time>
      </trkpt>
      <trkpt lat="47.24447" lon="6.19017">
        <ele>432</ele>
        <time>2000-01-01T04:04:09.000Z</time>
      </trkpt>
      <trkpt lat="47.24471" lon="6.19028">
        <ele>430</ele>
        <time>2000-01-01T04:04:19.000Z</time>
      </trkpt>
      <trkpt lat="47.24497" lon="6.19024">
        <ele>431</ele>
        <time>2000-01-01T04:04:29.000Z</time>
      </trkpt>
      <trkpt lat="47.245" lon="6.19062">
        <ele>432</ele>
        <time>2000-01-01T04:04:39.000Z</time>
      </trkpt>
      <trkpt lat="47.24503" lon="6.19112">
        <ele>434</ele>
        <time>2000-01-01T04:04:49.000Z</time>
      </trkpt>
      <trkpt lat="47.24514" lon="6.19166">
        <ele>436</ele>
        <time>2000-01-01T04:04:59.000Z</time>
      </trkpt>
      <trkpt lat="47.24525" lon="6.1922">
        <ele>439</ele>
        <time>2000-01-01T04:05:09.000Z</time>
      </trkpt>
      <trkpt lat="47.24536" lon="6.19274">
        <ele>441</ele>
        <time>2000-01-01T04:05:19.000Z</time>
      </trkpt>
      <trkpt lat="47.24547" lon="6.19328">
        <ele>443</ele>
        <time>2000-01-01T04:05:29.000Z</time>
      </trkpt>
      <trkpt lat="47.24558" lon="6.19382">
        <ele>445</ele>
        <time>2000-01-01T04:05:39.000Z</time>
      </trkpt>
      <trkpt lat="47.24571" lon="6.19443">
        <ele>445</ele>
        <time>2000-01-01T04:05:49.000Z</time>
      </trkpt>
      <trkpt lat="47.24581" lon="6.19494">
        <ele>446</ele>
        <time>2000-01-01T04:05:59.000Z</time>
      </trkpt>
      <trkpt lat="47.24591" lon="6.19545">
        <ele>446</ele>
        <time>2000-01-01T04:06:09.000Z</time>
      </trkpt>
      <trkpt lat="47.246" lon="6.19596">
        <ele>446</ele>
        <time>2000-01-01T04:06:19.000Z</time>
      </trkpt>
      <trkpt lat="47.24607" lon="6.19633">
        <ele>446</ele>
        <time>2000-01-01T04:06:29.000Z</time>
      </trkpt>
      <trkpt lat="47.24617" lon="6.19683">
        <ele>445</ele>
        <time>2000-01-01T04:06:39.000Z</time>
      </trkpt>
      <trkpt lat="47.24588" lon="6.19693">
        <ele>442</ele>
        <time>2000-01-01T04:06:49.000Z</time>
      </trkpt>
      <trkpt lat="47.24564" lon="6.19701">
        <ele>440</ele>
        <time>2000-01-01T04:06:59.000Z</time>
      </trkpt>
      <trkpt lat="47.24537" lon="6.1971">
        <ele>438</ele>
        <time>2000-01-01T04:07:09.000Z</time>
      </trkpt>
      <trkpt lat="47.24506" lon="6.19731">
        <ele>435</ele>
        <time>2000-01-01T04:07:19.000Z</time>
      </trkpt>
      <trkpt lat="47.24474" lon="6.19753">
        <ele>434</ele>
        <time>2000-01-01T04:07:29.000Z</time>
      </trkpt>
      <trkpt lat="47.24443" lon="6.19774">
        <ele>434</ele>
        <time>2000-01-01T04:07:39.000Z</time>
      </trkpt>
      <trkpt lat="47.24409" lon="6.19798">
        <ele>435</ele>
        <time>2000-01-01T04:07:49.000Z</time>
      </trkpt>
      <trkpt lat="47.24386" lon="6.19823">
        <ele>434</ele>
        <time>2000-01-01T04:07:59.000Z</time>
      </trkpt>
      <trkpt lat="47.2435" lon="6.19862">
        <ele>434</ele>
        <time>2000-01-01T04:08:09.000Z</time>
      </trkpt>
      <trkpt lat="47.24335" lon="6.19889">
        <ele>432</ele>
        <time>2000-01-01T04:08:19.000Z</time>
      </trkpt>
      <trkpt lat="47.24319" lon="6.19917">
        <ele>431</ele>
        <time>2000-01-01T04:08:29.000Z</time>
      </trkpt>
      <trkpt lat="47.24293" lon="6.19949">
        <ele>431</ele>
        <time>2000-01-01T04:08:39.000Z</time>
      </trkpt>
      <trkpt lat="47.24268" lon="6.19981">
        <ele>431</ele>
        <time>2000-01-01T04:08:49.000Z</time>
      </trkpt>
      <trkpt lat="47.24248" lon="6.20005">
        <ele>432</ele>
        <time>2000-01-01T04:08:59.000Z</time>
      </trkpt>
      <trkpt lat="47.24222" lon="6.20037">
        <ele>433</ele>
        <time>2000-01-01T04:09:09.000Z</time>
      </trkpt>
      <trkpt lat="47.24198" lon="6.20073">
        <ele>434</ele>
        <time>2000-01-01T04:09:19.000Z</time>
      </trkpt>
      <trkpt lat="47.24175" lon="6.20109">
        <ele>435</ele>
        <time>2000-01-01T04:09:29.000Z</time>
      </trkpt>
      <trkpt lat="47.24156" lon="6.20137">
        <ele>435</ele>
        <time>2000-01-01T04:09:39.000Z</time>
      </trkpt>
      <trkpt lat="47.24131" lon="6.20175">
        <ele>435</ele>
        <time>2000-01-01T04:09:49.000Z</time>
      </trkpt>
      <trkpt lat="47.24121" lon="6.20207">
        <ele>434</ele>
        <time>2000-01-01T04:09:59.000Z</time>
      </trkpt>
      <trkpt lat="47.24109" lon="6.20244">
        <ele>433</ele>
        <time>2000-01-01T04:10:09.000Z</time>
      </trkpt>
      <trkpt lat="47.24085" lon="6.20273">
        <ele>432</ele>
        <time>2000-01-01T04:10:19.000Z</time>
      </trkpt>
      <trkpt lat="47.24056" lon="6.20291">
        <ele>430</ele>
        <time>2000-01-01T04:10:29.000Z</time>
      </trkpt>
      <trkpt lat="47.24026" lon="6.20309">
        <ele>428</ele>
        <time>2000-01-01T04:10:39.000Z</time>
      </trkpt>
      <trkpt lat="47.23988" lon="6.20332">
        <ele>426</ele>
        <time>2000-01-01T04:10:49.000Z</time>
      </trkpt>
      <trkpt lat="47.23965" lon="6.20355">
        <ele>424</ele>
        <time>2000-01-01T04:10:59.000Z</time>
      </trkpt>
      <trkpt lat="47.23928" lon="6.20392">
        <ele>421</ele>
        <time>2000-01-01T04:11:09.000Z</time>
      </trkpt>
      <trkpt lat="47.23901" lon="6.20392">
        <ele>421</ele>
        <time>2000-01-01T04:11:19.000Z</time>
      </trkpt>
      <trkpt lat="47.2388" lon="6.20366">
        <ele>422</ele>
        <time>2000-01-01T04:11:29.000Z</time>
      </trkpt>
      <trkpt lat="47.23847" lon="6.20327">
        <ele>424</ele>
        <time>2000-01-01T04:11:39.000Z</time>
      </trkpt>
      <trkpt lat="47.23831" lon="6.20298">
        <ele>424</ele>
        <time>2000-01-01T04:11:49.000Z</time>
      </trkpt>
      <trkpt lat="47.23812" lon="6.20263">
        <ele>424</ele>
        <time>2000-01-01T04:11:59.000Z</time>
      </trkpt>
      <trkpt lat="47.23786" lon="6.20233">
        <ele>425</ele>
        <time>2000-01-01T04:12:09.000Z</time>
      </trkpt>
      <trkpt lat="47.23761" lon="6.20204">
        <ele>425</ele>
        <time>2000-01-01T04:12:19.000Z</time>
      </trkpt>
      <trkpt lat="47.23743" lon="6.20183">
        <ele>425</ele>
        <time>2000-01-01T04:12:29.000Z</time>
      </trkpt>
      <trkpt lat="47.23724" lon="6.20161">
        <ele>425</ele>
        <time>2000-01-01T04:12:39.000Z</time>
      </trkpt>
      <trkpt lat="47.237" lon="6.2014">
        <ele>426</ele>
        <time>2000-01-01T04:12:49.000Z</time>
      </trkpt>
      <trkpt lat="47.23663" lon="6.20108">
        <ele>426</ele>
        <time>2000-01-01T04:12:59.000Z</time>
      </trkpt>
      <trkpt lat="47.23662" lon="6.20113">
        <ele>427.2</ele>
        <time>2000-01-01T04:13:09.000Z</time>
      </trkpt>
      <trkpt lat="47.23662" lon="6.20115">
        <ele>427.3</ele>
        <time>2000-01-01T04:13:19.000Z</time>
      </trkpt>
      <trkpt lat="47.23657" lon="6.2013">
        <ele>428</ele>
        <time>2000-01-01T04:13:29.000Z</time>
      </trkpt>
      <trkpt lat="47.23656" lon="6.20139">
        <ele>428</ele>
        <time>2000-01-01T04:13:39.000Z</time>
      </trkpt>
      <trkpt lat="47.23655" lon="6.2015">
        <ele>428.8</ele>
        <time>2000-01-01T04:13:49.000Z</time>
      </trkpt>
      <trkpt lat="47.2365" lon="6.20187">
        <ele>429</ele>
        <time>2000-01-01T04:13:59.000Z</time>
      </trkpt>
      <trkpt lat="47.23636" lon="6.20247">
        <ele>430</ele>
        <time>2000-01-01T04:14:09.000Z</time>
      </trkpt>
      <trkpt lat="47.23628" lon="6.20281">
        <ele>430</ele>
        <time>2000-01-01T04:14:19.000Z</time>
      </trkpt>
      <trkpt lat="47.23615" lon="6.20335">
        <ele>430</ele>
        <time>2000-01-01T04:14:29.000Z</time>
      </trkpt>
      <trkpt lat="47.23608" lon="6.2036">
        <ele>430.9</ele>
        <time>2000-01-01T04:14:39.000Z</time>
      </trkpt>
      <trkpt lat="47.23602" lon="6.2038">
        <ele>430</ele>
        <time>2000-01-01T04:14:49.000Z</time>
      </trkpt>
      <trkpt lat="47.23585" lon="6.20403">
        <ele>430</ele>
        <time>2000-01-01T04:14:59.000Z</time>
      </trkpt>
      <trkpt lat="47.23567" lon="6.20427">
        <ele>430</ele>
        <time>2000-01-01T04:15:09.000Z</time>
      </trkpt>
      <trkpt lat="47.23545" lon="6.20464">
        <ele>431</ele>
        <time>2000-01-01T04:15:19.000Z</time>
      </trkpt>
      <trkpt lat="47.23522" lon="6.20501">
        <ele>431</ele>
        <time>2000-01-01T04:15:29.000Z</time>
      </trkpt>
      <trkpt lat="47.23505" lon="6.20529">
        <ele>431</ele>
        <time>2000-01-01T04:15:39.000Z</time>
      </trkpt>
      <trkpt lat="47.23482" lon="6.20566">
        <ele>430</ele>
        <time>2000-01-01T04:15:49.000Z</time>
      </trkpt>
      <trkpt lat="47.23465" lon="6.20598">
        <ele>430</ele>
        <time>2000-01-01T04:15:59.000Z</time>
      </trkpt>
      <trkpt lat="47.23438" lon="6.20646">
        <ele>430</ele>
        <time>2000-01-01T04:16:09.000Z</time>
      </trkpt>
      <trkpt lat="47.23433" lon="6.20653">
        <ele>430.4</ele>
        <time>2000-01-01T04:16:19.000Z</time>
      </trkpt>
      <trkpt lat="47.23412" lon="6.20681">
        <ele>430</ele>
        <time>2000-01-01T04:16:29.000Z</time>
      </trkpt>
      <trkpt lat="47.23394" lon="6.20705">
        <ele>429</ele>
        <time>2000-01-01T04:16:39.000Z</time>
      </trkpt>
      <trkpt lat="47.23374" lon="6.20732">
        <ele>428</ele>
        <time>2000-01-01T04:16:49.000Z</time>
      </trkpt>
      <trkpt lat="47.23399" lon="6.20758">
        <ele>427</ele>
        <time>2000-01-01T04:16:59.000Z</time>
      </trkpt>
      <trkpt lat="47.23424" lon="6.20785">
        <ele>425</ele>
        <time>2000-01-01T04:17:09.000Z</time>
      </trkpt>
      <trkpt lat="47.23452" lon="6.20814">
        <ele>423</ele>
        <time>2000-01-01T04:17:19.000Z</time>
      </trkpt>
      <trkpt lat="47.2347" lon="6.20843">
        <ele>423</ele>
        <time>2000-01-01T04:17:29.000Z</time>
      </trkpt>
      <trkpt lat="47.23495" lon="6.20885">
        <ele>422</ele>
        <time>2000-01-01T04:17:39.000Z</time>
      </trkpt>
      <trkpt lat="47.23516" lon="6.20905">
        <ele>421</ele>
        <time>2000-01-01T04:17:49.000Z</time>
      </trkpt>
      <trkpt lat="47.23543" lon="6.20929">
        <ele>421</ele>
        <time>2000-01-01T04:17:59.000Z</time>
      </trkpt>
      <trkpt lat="47.23562" lon="6.20975">
        <ele>422</ele>
        <time>2000-01-01T04:18:09.000Z</time>
      </trkpt>
      <trkpt lat="47.23582" lon="6.21021">
        <ele>422</ele>
        <time>2000-01-01T04:18:19.000Z</time>
      </trkpt>
      <trkpt lat="47.23601" lon="6.21067">
        <ele>422</ele>
        <time>2000-01-01T04:18:29.000Z</time>
      </trkpt>
      <trkpt lat="47.2362" lon="6.21113">
        <ele>422</ele>
        <time>2000-01-01T04:18:39.000Z</time>
      </trkpt>
      <trkpt lat="47.23641" lon="6.21161">
        <ele>422</ele>
        <time>2000-01-01T04:18:49.000Z</time>
      </trkpt>
      <trkpt lat="47.23654" lon="6.21208">
        <ele>422</ele>
        <time>2000-01-01T04:18:59.000Z</time>
      </trkpt>
      <trkpt lat="47.23667" lon="6.21254">
        <ele>423</ele>
        <time>2000-01-01T04:19:09.000Z</time>
      </trkpt>
      <trkpt lat="47.23681" lon="6.21301">
        <ele>424</ele>
        <time>2000-01-01T04:19:19.000Z</time>
      </trkpt>
      <trkpt lat="47.23694" lon="6.21348">
        <ele>424</ele>
        <time>2000-01-01T04:19:29.000Z</time>
      </trkpt>
      <trkpt lat="47.2371" lon="6.21382">
        <ele>424</ele>
        <time>2000-01-01T04:19:39.000Z</time>
      </trkpt>
      <trkpt lat="47.23736" lon="6.21436">
        <ele>424</ele>
        <time>2000-01-01T04:19:49.000Z</time>
      </trkpt>
      <trkpt lat="47.23753" lon="6.21475">
        <ele>424</ele>
        <time>2000-01-01T04:19:59.000Z</time>
      </trkpt>
      <trkpt lat="47.23769" lon="6.21514">
        <ele>424</ele>
        <time>2000-01-01T04:20:09.000Z</time>
      </trkpt>
      <trkpt lat="47.23789" lon="6.21559">
        <ele>424</ele>
        <time>2000-01-01T04:20:19.000Z</time>
      </trkpt>
      <trkpt lat="47.23823" lon="6.21603">
        <ele>421</ele>
        <time>2000-01-01T04:20:29.000Z</time>
      </trkpt>
      <trkpt lat="47.23839" lon="6.21639">
        <ele>420</ele>
        <time>2000-01-01T04:20:39.000Z</time>
      </trkpt>
      <trkpt lat="47.23847" lon="6.21702">
        <ele>419</ele>
        <time>2000-01-01T04:20:49.000Z</time>
      </trkpt>
      <trkpt lat="47.23867" lon="6.21762">
        <ele>417</ele>
        <time>2000-01-01T04:20:59.000Z</time>
      </trkpt>
      <trkpt lat="47.23889" lon="6.21788">
        <ele>417</ele>
        <time>2000-01-01T04:21:09.000Z</time>
      </trkpt>
      <trkpt lat="47.23915" lon="6.21833">
        <ele>417</ele>
        <time>2000-01-01T04:21:19.000Z</time>
      </trkpt>
      <trkpt lat="47.2394" lon="6.21878">
        <ele>417</ele>
        <time>2000-01-01T04:21:29.000Z</time>
      </trkpt>
      <trkpt lat="47.23966" lon="6.21923">
        <ele>417</ele>
        <time>2000-01-01T04:21:39.000Z</time>
      </trkpt>
      <trkpt lat="47.23992" lon="6.21969">
        <ele>417</ele>
        <time>2000-01-01T04:21:49.000Z</time>
      </trkpt>
      <trkpt lat="47.24018" lon="6.22014">
        <ele>417</ele>
        <time>2000-01-01T04:21:59.000Z</time>
      </trkpt>
      <trkpt lat="47.24043" lon="6.22059">
        <ele>417</ele>
        <time>2000-01-01T04:22:09.000Z</time>
      </trkpt>
      <trkpt lat="47.24062" lon="6.22091">
        <ele>418</ele>
        <time>2000-01-01T04:22:19.000Z</time>
      </trkpt>
      <trkpt lat="47.24077" lon="6.22118">
        <ele>418</ele>
        <time>2000-01-01T04:22:29.000Z</time>
      </trkpt>
      <trkpt lat="47.24094" lon="6.22148">
        <ele>418</ele>
        <time>2000-01-01T04:22:39.000Z</time>
      </trkpt>
      <trkpt lat="47.24099" lon="6.22166">
        <ele>418.8</ele>
        <time>2000-01-01T04:22:49.000Z</time>
      </trkpt>
      <trkpt lat="47.24106" lon="6.2218">
        <ele>418</ele>
        <time>2000-01-01T04:22:59.000Z</time>
      </trkpt>
      <trkpt lat="47.2411" lon="6.2219">
        <ele>418.9</ele>
        <time>2000-01-01T04:23:09.000Z</time>
      </trkpt>
      <trkpt lat="47.24116" lon="6.22209">
        <ele>419</ele>
        <time>2000-01-01T04:23:19.000Z</time>
      </trkpt>
      <trkpt lat="47.2412" lon="6.22223">
        <ele>419.1</ele>
        <time>2000-01-01T04:23:29.000Z</time>
      </trkpt>
      <trkpt lat="47.24123" lon="6.22234">
        <ele>419</ele>
        <time>2000-01-01T04:23:39.000Z</time>
      </trkpt>
      <trkpt lat="47.24124" lon="6.2224">
        <ele>419.2</ele>
        <time>2000-01-01T04:23:49.000Z</time>
      </trkpt>
      <trkpt lat="47.24125" lon="6.22243">
        <ele>419.2</ele>
        <time>2000-01-01T04:23:59.000Z</time>
      </trkpt>
      <trkpt lat="47.2413" lon="6.22253">
        <ele>419.1</ele>
        <time>2000-01-01T04:24:09.000Z</time>
      </trkpt>
      <trkpt lat="47.24138" lon="6.22266">
        <ele>419</ele>
        <time>2000-01-01T04:24:19.000Z</time>
      </trkpt>
      <trkpt lat="47.24146" lon="6.22281">
        <ele>418.5</ele>
        <time>2000-01-01T04:24:29.000Z</time>
      </trkpt>
      <trkpt lat="47.24164" lon="6.22309">
        <ele>418</ele>
        <time>2000-01-01T04:24:39.000Z</time>
      </trkpt>
      <trkpt lat="47.24167" lon="6.22314">
        <ele>418.3</ele>
        <time>2000-01-01T04:24:49.000Z</time>
      </trkpt>
      <trkpt lat="47.24171" lon="6.22325">
        <ele>418.2</ele>
        <time>2000-01-01T04:24:59.000Z</time>
      </trkpt>
      <trkpt lat="47.24182" lon="6.22346">
        <ele>418</ele>
        <time>2000-01-01T04:25:09.000Z</time>
      </trkpt>
      <trkpt lat="47.24187" lon="6.22356">
        <ele>418.4</ele>
        <time>2000-01-01T04:25:19.000Z</time>
      </trkpt>
      <trkpt lat="47.24208" lon="6.22382">
        <ele>419</ele>
        <time>2000-01-01T04:25:29.000Z</time>
      </trkpt>
      <trkpt lat="47.24238" lon="6.22418">
        <ele>419</ele>
        <time>2000-01-01T04:25:39.000Z</time>
      </trkpt>
      <trkpt lat="47.24253" lon="6.22436">
        <ele>419</ele>
        <time>2000-01-01T04:25:49.000Z</time>
      </trkpt>
      <trkpt lat="47.24268" lon="6.22454">
        <ele>419</ele>
        <time>2000-01-01T04:25:59.000Z</time>
      </trkpt>
      <trkpt lat="47.24278" lon="6.22464">
        <ele>419.4</ele>
        <time>2000-01-01T04:26:09.000Z</time>
      </trkpt>
      <trkpt lat="47.24319" lon="6.22506">
        <ele>420</ele>
        <time>2000-01-01T04:26:19.000Z</time>
      </trkpt>
      <trkpt lat="47.24328" lon="6.22517">
        <ele>419.9</ele>
        <time>2000-01-01T04:26:29.000Z</time>
      </trkpt>
      <trkpt lat="47.24334" lon="6.22526">
        <ele>420</ele>
        <time>2000-01-01T04:26:39.000Z</time>
      </trkpt>
      <trkpt lat="47.24359" lon="6.22555">
        <ele>420</ele>
        <time>2000-01-01T04:26:49.000Z</time>
      </trkpt>
      <trkpt lat="47.24384" lon="6.22585">
        <ele>419</ele>
        <time>2000-01-01T04:26:59.000Z</time>
      </trkpt>
      <trkpt lat="47.24417" lon="6.22624">
        <ele>418</ele>
        <time>2000-01-01T04:27:09.000Z</time>
      </trkpt>
      <trkpt lat="47.24434" lon="6.22649">
        <ele>417</ele>
        <time>2000-01-01T04:27:19.000Z</time>
      </trkpt>
      <trkpt lat="47.24441" lon="6.22667">
        <ele>417.2</ele>
        <time>2000-01-01T04:27:29.000Z</time>
      </trkpt>
      <trkpt lat="47.24448" lon="6.22684">
        <ele>417</ele>
        <time>2000-01-01T04:27:39.000Z</time>
      </trkpt>
      <trkpt lat="47.24452" lon="6.22695">
        <ele>416.7</ele>
        <time>2000-01-01T04:27:49.000Z</time>
      </trkpt>
      <trkpt lat="47.24458" lon="6.22709">
        <ele>416</ele>
        <time>2000-01-01T04:27:59.000Z</time>
      </trkpt>
      <trkpt lat="47.24463" lon="6.2272">
        <ele>416</ele>
        <time>2000-01-01T04:28:09.000Z</time>
      </trkpt>
      <trkpt lat="47.24469" lon="6.22728">
        <ele>415.8</ele>
        <time>2000-01-01T04:28:19.000Z</time>
      </trkpt>
      <trkpt lat="47.2448" lon="6.22743">
        <ele>415</ele>
        <time>2000-01-01T04:28:29.000Z</time>
      </trkpt>
      <trkpt lat="47.2451" lon="6.22778">
        <ele>414</ele>
        <time>2000-01-01T04:28:39.000Z</time>
      </trkpt>
      <trkpt lat="47.24531" lon="6.22803">
        <ele>413</ele>
        <time>2000-01-01T04:28:49.000Z</time>
      </trkpt>
      <trkpt lat="47.2456" lon="6.2284">
        <ele>411</ele>
        <time>2000-01-01T04:28:59.000Z</time>
      </trkpt>
      <trkpt lat="47.2458" lon="6.22866">
        <ele>410</ele>
        <time>2000-01-01T04:29:09.000Z</time>
      </trkpt>
      <trkpt lat="47.24602" lon="6.22894">
        <ele>410</ele>
        <time>2000-01-01T04:29:19.000Z</time>
      </trkpt>
      <trkpt lat="47.24616" lon="6.22912">
        <ele>409</ele>
        <time>2000-01-01T04:29:29.000Z</time>
      </trkpt>
      <trkpt lat="47.24625" lon="6.2292">
        <ele>409.4</ele>
        <time>2000-01-01T04:29:39.000Z</time>
      </trkpt>
      <trkpt lat="47.24632" lon="6.22924">
        <ele>409.2</ele>
        <time>2000-01-01T04:29:49.000Z</time>
      </trkpt>
      <trkpt lat="47.24643" lon="6.22928">
        <ele>409</ele>
        <time>2000-01-01T04:29:59.000Z</time>
      </trkpt>
      <trkpt lat="47.24655" lon="6.22932">
        <ele>408.7</ele>
        <time>2000-01-01T04:30:09.000Z</time>
      </trkpt>
      <trkpt lat="47.24663" lon="6.22935">
        <ele>409</ele>
        <time>2000-01-01T04:30:19.000Z</time>
      </trkpt>
      <trkpt lat="47.24676" lon="6.22942">
        <ele>408.9</ele>
        <time>2000-01-01T04:30:29.000Z</time>
      </trkpt>
      <trkpt lat="47.24682" lon="6.22946">
        <ele>409</ele>
        <time>2000-01-01T04:30:39.000Z</time>
      </trkpt>
      <trkpt lat="47.24686" lon="6.22948">
        <ele>409.3</ele>
        <time>2000-01-01T04:30:49.000Z</time>
      </trkpt>
      <trkpt lat="47.24694" lon="6.22955">
        <ele>410.1</ele>
        <time>2000-01-01T04:30:59.000Z</time>
      </trkpt>
      <trkpt lat="47.247" lon="6.22962">
        <ele>410</ele>
        <time>2000-01-01T04:31:09.000Z</time>
      </trkpt>
      <trkpt lat="47.24704" lon="6.2297">
        <ele>411.1</ele>
        <time>2000-01-01T04:31:19.000Z</time>
      </trkpt>
      <trkpt lat="47.24709" lon="6.22976">
        <ele>411.1</ele>
        <time>2000-01-01T04:31:29.000Z</time>
      </trkpt>
      <trkpt lat="47.24712" lon="6.22979">
        <ele>411</ele>
        <time>2000-01-01T04:31:39.000Z</time>
      </trkpt>
      <trkpt lat="47.24716" lon="6.2298">
        <ele>410</ele>
        <time>2000-01-01T04:31:49.000Z</time>
      </trkpt>
      <trkpt lat="47.24716" lon="6.22983">
        <ele>410.8</ele>
        <time>2000-01-01T04:31:59.000Z</time>
      </trkpt>
      <trkpt lat="47.24718" lon="6.22985">
        <ele>410.8</ele>
        <time>2000-01-01T04:32:09.000Z</time>
      </trkpt>
      <trkpt lat="47.24722" lon="6.2299">
        <ele>410.7</ele>
        <time>2000-01-01T04:32:19.000Z</time>
      </trkpt>
      <trkpt lat="47.24725" lon="6.22996">
        <ele>410.6</ele>
        <time>2000-01-01T04:32:29.000Z</time>
      </trkpt>
      <trkpt lat="47.24732" lon="6.23011">
        <ele>411</ele>
        <time>2000-01-01T04:32:39.000Z</time>
      </trkpt>
      <trkpt lat="47.24739" lon="6.23031">
        <ele>411.3</ele>
        <time>2000-01-01T04:32:49.000Z</time>
      </trkpt>
      <trkpt lat="47.2475" lon="6.23061">
        <ele>411</ele>
        <time>2000-01-01T04:32:59.000Z</time>
      </trkpt>
      <trkpt lat="47.24758" lon="6.23084">
        <ele>410.5</ele>
        <time>2000-01-01T04:33:09.000Z</time>
      </trkpt>
      <trkpt lat="47.24765" lon="6.23105">
        <ele>411</ele>
        <time>2000-01-01T04:33:19.000Z</time>
      </trkpt>
      <trkpt lat="47.24777" lon="6.23123">
        <ele>411.5</ele>
        <time>2000-01-01T04:33:29.000Z</time>
      </trkpt>
      <trkpt lat="47.2479" lon="6.23143">
        <ele>411</ele>
        <time>2000-01-01T04:33:39.000Z</time>
      </trkpt>
      <trkpt lat="47.24816" lon="6.23183">
        <ele>411</ele>
        <time>2000-01-01T04:33:49.000Z</time>
      </trkpt>
      <trkpt lat="47.24847" lon="6.23229">
        <ele>411</ele>
        <time>2000-01-01T04:33:59.000Z</time>
      </trkpt>
      <trkpt lat="47.2487" lon="6.23265">
        <ele>410</ele>
        <time>2000-01-01T04:34:09.000Z</time>
      </trkpt>
      <trkpt lat="47.24885" lon="6.23287">
        <ele>410</ele>
        <time>2000-01-01T04:34:19.000Z</time>
      </trkpt>
      <trkpt lat="47.24895" lon="6.23302">
        <ele>409.4</ele>
        <time>2000-01-01T04:34:29.000Z</time>
      </trkpt>
      <trkpt lat="47.24909" lon="6.2332">
        <ele>409</ele>
        <time>2000-01-01T04:34:39.000Z</time>
      </trkpt>
      <trkpt lat="47.24912" lon="6.23325">
        <ele>408.6</ele>
        <time>2000-01-01T04:34:49.000Z</time>
      </trkpt>
      <trkpt lat="47.24923" lon="6.23337">
        <ele>407</ele>
        <time>2000-01-01T04:34:59.000Z</time>
      </trkpt>
      <trkpt lat="47.24951" lon="6.23369">
        <ele>406</ele>
        <time>2000-01-01T04:35:09.000Z</time>
      </trkpt>
      <trkpt lat="47.24953" lon="6.23371">
        <ele>406.5</ele>
        <time>2000-01-01T04:35:19.000Z</time>
      </trkpt>
      <trkpt lat="47.24959" lon="6.23377">
        <ele>406.3</ele>
        <time>2000-01-01T04:35:29.000Z</time>
      </trkpt>
      <trkpt lat="47.24975" lon="6.23395">
        <ele>406</ele>
        <time>2000-01-01T04:35:39.000Z</time>
      </trkpt>
      <trkpt lat="47.24994" lon="6.23414">
        <ele>405</ele>
        <time>2000-01-01T04:35:49.000Z</time>
      </trkpt>
      <trkpt lat="47.25004" lon="6.23425">
        <ele>405.3</ele>
        <time>2000-01-01T04:35:59.000Z</time>
      </trkpt>
      <trkpt lat="47.25034" lon="6.23457">
        <ele>405</ele>
        <time>2000-01-01T04:36:09.000Z</time>
      </trkpt>
      <trkpt lat="47.25054" lon="6.23477">
        <ele>405</ele>
        <time>2000-01-01T04:36:19.000Z</time>
      </trkpt>
      <trkpt lat="47.25076" lon="6.235">
        <ele>405</ele>
        <time>2000-01-01T04:36:29.000Z</time>
      </trkpt>
      <trkpt lat="47.25105" lon="6.2348">
        <ele>407</ele>
        <time>2000-01-01T04:36:39.000Z</time>
      </trkpt>
      <trkpt lat="47.25135" lon="6.23461">
        <ele>410</ele>
        <time>2000-01-01T04:36:49.000Z</time>
      </trkpt>
      <trkpt lat="47.25156" lon="6.23447">
        <ele>411</ele>
        <time>2000-01-01T04:36:59.000Z</time>
      </trkpt>
      <trkpt lat="47.25177" lon="6.23433">
        <ele>410</ele>
        <time>2000-01-01T04:37:09.000Z</time>
      </trkpt>
      <trkpt lat="47.25203" lon="6.23424">
        <ele>410</ele>
        <time>2000-01-01T04:37:19.000Z</time>
      </trkpt>
      <trkpt lat="47.25241" lon="6.2341">
        <ele>409</ele>
        <time>2000-01-01T04:37:29.000Z</time>
      </trkpt>
      <trkpt lat="47.2527" lon="6.23384">
        <ele>409</ele>
        <time>2000-01-01T04:37:39.000Z</time>
      </trkpt>
      <trkpt lat="47.253" lon="6.23358">
        <ele>409</ele>
        <time>2000-01-01T04:37:49.000Z</time>
      </trkpt>
      <trkpt lat="47.25323" lon="6.23338">
        <ele>411</ele>
        <time>2000-01-01T04:37:59.000Z</time>
      </trkpt>
      <trkpt lat="47.25356" lon="6.23309">
        <ele>412</ele>
        <time>2000-01-01T04:38:09.000Z</time>
      </trkpt>
      <trkpt lat="47.25389" lon="6.23298">
        <ele>413</ele>
        <time>2000-01-01T04:38:19.000Z</time>
      </trkpt>
      <trkpt lat="47.25423" lon="6.23287">
        <ele>414</ele>
        <time>2000-01-01T04:38:29.000Z</time>
      </trkpt>
      <trkpt lat="47.25449" lon="6.23278">
        <ele>414</ele>
        <time>2000-01-01T04:38:39.000Z</time>
      </trkpt>
      <trkpt lat="47.25487" lon="6.23266">
        <ele>414</ele>
        <time>2000-01-01T04:38:49.000Z</time>
      </trkpt>
      <trkpt lat="47.2548" lon="6.23217">
        <ele>416</ele>
        <time>2000-01-01T04:38:59.000Z</time>
      </trkpt>
      <trkpt lat="47.25472" lon="6.23168">
        <ele>417</ele>
        <time>2000-01-01T04:39:09.000Z</time>
      </trkpt>
      <trkpt lat="47.25466" lon="6.2313">
        <ele>418</ele>
        <time>2000-01-01T04:39:19.000Z</time>
      </trkpt>
      <trkpt lat="47.25458" lon="6.23075">
        <ele>420</ele>
        <time>2000-01-01T04:39:29.000Z</time>
      </trkpt>
      <trkpt lat="47.25472" lon="6.23047">
        <ele>421</ele>
        <time>2000-01-01T04:39:39.000Z</time>
      </trkpt>
      <trkpt lat="47.25487" lon="6.23017">
        <ele>421</ele>
        <time>2000-01-01T04:39:49.000Z</time>
      </trkpt>
      <trkpt lat="47.25514" lon="6.22993">
        <ele>419</ele>
        <time>2000-01-01T04:39:59.000Z</time>
      </trkpt>
      <trkpt lat="47.25541" lon="6.2297">
        <ele>415</ele>
        <time>2000-01-01T04:40:09.000Z</time>
      </trkpt>
      <trkpt lat="47.25573" lon="6.22942">
        <ele>413</ele>
        <time>2000-01-01T04:40:19.000Z</time>
      </trkpt>
      <trkpt lat="47.25583" lon="6.22974">
        <ele>413</ele>
        <time>2000-01-01T04:40:29.000Z</time>
      </trkpt>
      <trkpt lat="47.25593" lon="6.23008">
        <ele>413</ele>
        <time>2000-01-01T04:40:39.000Z</time>
      </trkpt>
      <trkpt lat="47.25615" lon="6.23044">
        <ele>413</ele>
        <time>2000-01-01T04:40:49.000Z</time>
      </trkpt>
      <trkpt lat="47.25636" lon="6.2308">
        <ele>412</ele>
        <time>2000-01-01T04:40:59.000Z</time>
      </trkpt>
      <trkpt lat="47.25652" lon="6.23107">
        <ele>411</ele>
        <time>2000-01-01T04:41:09.000Z</time>
      </trkpt>
      <trkpt lat="47.25669" lon="6.23135">
        <ele>411</ele>
        <time>2000-01-01T04:41:19.000Z</time>
      </trkpt>
      <trkpt lat="47.25694" lon="6.2316">
        <ele>409</ele>
        <time>2000-01-01T04:41:29.000Z</time>
      </trkpt>
      <trkpt lat="47.2572" lon="6.23185">
        <ele>409</ele>
        <time>2000-01-01T04:41:39.000Z</time>
      </trkpt>
      <trkpt lat="47.25746" lon="6.2321">
        <ele>409</ele>
        <time>2000-01-01T04:41:49.000Z</time>
      </trkpt>
      <trkpt lat="47.25746" lon="6.23211">
        <ele>408.9</ele>
        <time>2000-01-01T04:41:59.000Z</time>
      </trkpt>
      <trkpt lat="47.25749" lon="6.23215">
        <ele>408.8</ele>
        <time>2000-01-01T04:42:09.000Z</time>
      </trkpt>
      <trkpt lat="47.25755" lon="6.23225">
        <ele>408.5</ele>
        <time>2000-01-01T04:42:19.000Z</time>
      </trkpt>
      <trkpt lat="47.25762" lon="6.23239">
        <ele>408</ele>
        <time>2000-01-01T04:42:29.000Z</time>
      </trkpt>
      <trkpt lat="47.25765" lon="6.23248">
        <ele>407.9</ele>
        <time>2000-01-01T04:42:39.000Z</time>
      </trkpt>
      <trkpt lat="47.25769" lon="6.2326">
        <ele>407.8</ele>
        <time>2000-01-01T04:42:49.000Z</time>
      </trkpt>
      <trkpt lat="47.25776" lon="6.23243">
        <ele>406</ele>
        <time>2000-01-01T04:42:59.000Z</time>
      </trkpt>
      <trkpt lat="47.25782" lon="6.2323">
        <ele>406.1</ele>
        <time>2000-01-01T04:43:09.000Z</time>
      </trkpt>
      <trkpt lat="47.25795" lon="6.23205">
        <ele>404</ele>
        <time>2000-01-01T04:43:19.000Z</time>
      </trkpt>
      <trkpt lat="47.25803" lon="6.23187">
        <ele>403.9</ele>
        <time>2000-01-01T04:43:29.000Z</time>
      </trkpt>
      <trkpt lat="47.25816" lon="6.23159">
        <ele>401</ele>
        <time>2000-01-01T04:43:39.000Z</time>
      </trkpt>
      <trkpt lat="47.2583" lon="6.2313">
        <ele>401</ele>
        <time>2000-01-01T04:43:49.000Z</time>
      </trkpt>
      <trkpt lat="47.25839" lon="6.23114">
        <ele>401.7</ele>
        <time>2000-01-01T04:43:59.000Z</time>
      </trkpt>
      <trkpt lat="47.25851" lon="6.23095">
        <ele>402</ele>
        <time>2000-01-01T04:44:09.000Z</time>
      </trkpt>
      <trkpt lat="47.25859" lon="6.23084">
        <ele>403</ele>
        <time>2000-01-01T04:44:19.000Z</time>
      </trkpt>
      <trkpt lat="47.25872" lon="6.23071">
        <ele>404</ele>
        <time>2000-01-01T04:44:29.000Z</time>
      </trkpt>
      <trkpt lat="47.25879" lon="6.23067">
        <ele>404.6</ele>
        <time>2000-01-01T04:44:39.000Z</time>
      </trkpt>
      <trkpt lat="47.25886" lon="6.23064">
        <ele>404.5</ele>
        <time>2000-01-01T04:44:49.000Z</time>
      </trkpt>
      <trkpt lat="47.25896" lon="6.23063">
        <ele>404</ele>
        <time>2000-01-01T04:44:59.000Z</time>
      </trkpt>
      <trkpt lat="47.25908" lon="6.23064">
        <ele>402.5</ele>
        <time>2000-01-01T04:45:09.000Z</time>
      </trkpt>
      <trkpt lat="47.2592" lon="6.23065">
        <ele>402</ele>
        <time>2000-01-01T04:45:19.000Z</time>
      </trkpt>
      <trkpt lat="47.25926" lon="6.23066">
        <ele>401.4</ele>
        <time>2000-01-01T04:45:29.000Z</time>
      </trkpt>
      <trkpt lat="47.25931" lon="6.23064">
        <ele>401.3</ele>
        <time>2000-01-01T04:45:39.000Z</time>
      </trkpt>
      <trkpt lat="47.25936" lon="6.23061">
        <ele>401.2</ele>
        <time>2000-01-01T04:45:49.000Z</time>
      </trkpt>
      <trkpt lat="47.25941" lon="6.23057">
        <ele>401</ele>
        <time>2000-01-01T04:45:59.000Z</time>
      </trkpt>
      <trkpt lat="47.25945" lon="6.23051">
        <ele>401</ele>
        <time>2000-01-01T04:46:09.000Z</time>
      </trkpt>
      <trkpt lat="47.25949" lon="6.23045">
        <ele>401.3</ele>
        <time>2000-01-01T04:46:19.000Z</time>
      </trkpt>
      <trkpt lat="47.25954" lon="6.23034">
        <ele>401</ele>
        <time>2000-01-01T04:46:29.000Z</time>
      </trkpt>
      <trkpt lat="47.2596" lon="6.2302">
        <ele>402.1</ele>
        <time>2000-01-01T04:46:39.000Z</time>
      </trkpt>
      <trkpt lat="47.25968" lon="6.23003">
        <ele>401</ele>
        <time>2000-01-01T04:46:49.000Z</time>
      </trkpt>
      <trkpt lat="47.25977" lon="6.2298">
        <ele>402</ele>
        <time>2000-01-01T04:46:59.000Z</time>
      </trkpt>
      <trkpt lat="47.25985" lon="6.2296">
        <ele>403.7</ele>
        <time>2000-01-01T04:47:09.000Z</time>
      </trkpt>
      <trkpt lat="47.25992" lon="6.22943">
        <ele>403</ele>
        <time>2000-01-01T04:47:19.000Z</time>
      </trkpt>
      <trkpt lat="47.26001" lon="6.22924">
        <ele>404.1</ele>
        <time>2000-01-01T04:47:29.000Z</time>
      </trkpt>
      <trkpt lat="47.26013" lon="6.229">
        <ele>404</ele>
        <time>2000-01-01T04:47:39.000Z</time>
      </trkpt>
      <trkpt lat="47.26024" lon="6.22878">
        <ele>404</ele>
        <time>2000-01-01T04:47:49.000Z</time>
      </trkpt>
      <trkpt lat="47.26031" lon="6.22863">
        <ele>405.1</ele>
        <time>2000-01-01T04:47:59.000Z</time>
      </trkpt>
      <trkpt lat="47.26036" lon="6.22852">
        <ele>405</ele>
        <time>2000-01-01T04:48:09.000Z</time>
      </trkpt>
      <trkpt lat="47.26041" lon="6.22836">
        <ele>405.9</ele>
        <time>2000-01-01T04:48:19.000Z</time>
      </trkpt>
      <trkpt lat="47.26046" lon="6.22817">
        <ele>405</ele>
        <time>2000-01-01T04:48:29.000Z</time>
      </trkpt>
      <trkpt lat="47.26049" lon="6.22801">
        <ele>406.7</ele>
        <time>2000-01-01T04:48:39.000Z</time>
      </trkpt>
      <trkpt lat="47.26052" lon="6.22784">
        <ele>406</ele>
        <time>2000-01-01T04:48:49.000Z</time>
      </trkpt>
      <trkpt lat="47.26058" lon="6.22785">
        <ele>407.2</ele>
        <time>2000-01-01T04:48:59.000Z</time>
      </trkpt>
      <trkpt lat="47.26063" lon="6.22787">
        <ele>408.1</ele>
        <time>2000-01-01T04:49:09.000Z</time>
      </trkpt>
      <trkpt lat="47.26067" lon="6.2279">
        <ele>408.8</ele>
        <time>2000-01-01T04:49:19.000Z</time>
      </trkpt>
      <trkpt lat="47.2607" lon="6.22793">
        <ele>409</ele>
        <time>2000-01-01T04:49:29.000Z</time>
      </trkpt>
      <trkpt lat="47.26076" lon="6.22803">
        <ele>410.4</ele>
        <time>2000-01-01T04:49:39.000Z</time>
      </trkpt>
      <trkpt lat="47.26082" lon="6.22812">
        <ele>411.7</ele>
        <time>2000-01-01T04:49:49.000Z</time>
      </trkpt>
      <trkpt lat="47.26091" lon="6.22824">
        <ele>412</ele>
        <time>2000-01-01T04:49:59.000Z</time>
      </trkpt>
      <trkpt lat="47.26104" lon="6.22842">
        <ele>414.2</ele>
        <time>2000-01-01T04:50:09.000Z</time>
      </trkpt>
      <trkpt lat="47.26119" lon="6.22863">
        <ele>414</ele>
        <time>2000-01-01T04:50:19.000Z</time>
      </trkpt>
      <trkpt lat="47.26136" lon="6.22885">
        <ele>415</ele>
        <time>2000-01-01T04:50:29.000Z</time>
      </trkpt>
      <trkpt lat="47.26156" lon="6.22909">
        <ele>415</ele>
        <time>2000-01-01T04:50:39.000Z</time>
      </trkpt>
      <trkpt lat="47.26176" lon="6.22935">
        <ele>414</ele>
        <time>2000-01-01T04:50:49.000Z</time>
      </trkpt>
      <trkpt lat="47.26194" lon="6.22958">
        <ele>413</ele>
        <time>2000-01-01T04:50:59.000Z</time>
      </trkpt>
      <trkpt lat="47.26212" lon="6.22982">
        <ele>413</ele>
        <time>2000-01-01T04:51:09.000Z</time>
      </trkpt>
      <trkpt lat="47.26228" lon="6.23002">
        <ele>412</ele>
        <time>2000-01-01T04:51:19.000Z</time>
      </trkpt>
      <trkpt lat="47.26239" lon="6.23015">
        <ele>412.1</ele>
        <time>2000-01-01T04:51:29.000Z</time>
      </trkpt>
      <trkpt lat="47.26248" lon="6.23026">
        <ele>412</ele>
        <time>2000-01-01T04:51:39.000Z</time>
      </trkpt>
      <trkpt lat="47.26258" lon="6.23039">
        <ele>411.8</ele>
        <time>2000-01-01T04:51:49.000Z</time>
      </trkpt>
      <trkpt lat="47.26263" lon="6.23047">
        <ele>412</ele>
        <time>2000-01-01T04:51:59.000Z</time>
      </trkpt>
      <trkpt lat="47.26268" lon="6.23056">
        <ele>412</ele>
        <time>2000-01-01T04:52:09.000Z</time>
      </trkpt>
      <trkpt lat="47.26274" lon="6.2307">
        <ele>412</ele>
        <time>2000-01-01T04:52:19.000Z</time>
      </trkpt>
      <trkpt lat="47.26287" lon="6.23106">
        <ele>412</ele>
        <time>2000-01-01T04:52:29.000Z</time>
      </trkpt>
      <trkpt lat="47.263" lon="6.23138">
        <ele>412</ele>
        <time>2000-01-01T04:52:39.000Z</time>
      </trkpt>
      <trkpt lat="47.26309" lon="6.23163">
        <ele>411</ele>
        <time>2000-01-01T04:52:49.000Z</time>
      </trkpt>
      <trkpt lat="47.26322" lon="6.23196">
        <ele>411</ele>
        <time>2000-01-01T04:52:59.000Z</time>
      </trkpt>
      <trkpt lat="47.26332" lon="6.23225">
        <ele>409</ele>
        <time>2000-01-01T04:53:09.000Z</time>
      </trkpt>
      <trkpt lat="47.26346" lon="6.2326">
        <ele>408</ele>
        <time>2000-01-01T04:53:19.000Z</time>
      </trkpt>
      <trkpt lat="47.26357" lon="6.23288">
        <ele>407</ele>
        <time>2000-01-01T04:53:29.000Z</time>
      </trkpt>
      <trkpt lat="47.26368" lon="6.23319">
        <ele>406</ele>
        <time>2000-01-01T04:53:39.000Z</time>
      </trkpt>
      <trkpt lat="47.26377" lon="6.23345">
        <ele>406</ele>
        <time>2000-01-01T04:53:49.000Z</time>
      </trkpt>
      <trkpt lat="47.26391" lon="6.2338">
        <ele>405</ele>
        <time>2000-01-01T04:53:59.000Z</time>
      </trkpt>
      <trkpt lat="47.264" lon="6.23402">
        <ele>405.2</ele>
        <time>2000-01-01T04:54:09.000Z</time>
      </trkpt>
      <trkpt lat="47.26407" lon="6.2342">
        <ele>404</ele>
        <time>2000-01-01T04:54:19.000Z</time>
      </trkpt>
      <trkpt lat="47.26411" lon="6.23429">
        <ele>404.3</ele>
        <time>2000-01-01T04:54:29.000Z</time>
      </trkpt>
      <trkpt lat="47.26414" lon="6.23437">
        <ele>404.1</ele>
        <time>2000-01-01T04:54:39.000Z</time>
      </trkpt>
      <trkpt lat="47.26415" lon="6.23449">
        <ele>404</ele>
        <time>2000-01-01T04:54:49.000Z</time>
      </trkpt>
      <trkpt lat="47.26415" lon="6.23461">
        <ele>404</ele>
        <time>2000-01-01T04:54:59.000Z</time>
      </trkpt>
      <trkpt lat="47.26416" lon="6.23471">
        <ele>404</ele>
        <time>2000-01-01T04:55:09.000Z</time>
      </trkpt>
      <trkpt lat="47.26419" lon="6.2348">
        <ele>403</ele>
        <time>2000-01-01T04:55:19.000Z</time>
      </trkpt>
      <trkpt lat="47.26422" lon="6.23487">
        <ele>403.5</ele>
        <time>2000-01-01T04:55:29.000Z</time>
      </trkpt>
      <trkpt lat="47.26427" lon="6.23491">
        <ele>403.3</ele>
        <time>2000-01-01T04:55:39.000Z</time>
      </trkpt>
      <trkpt lat="47.26448" lon="6.23498">
        <ele>403</ele>
        <time>2000-01-01T04:55:49.000Z</time>
      </trkpt>
      <trkpt lat="47.26474" lon="6.23505">
        <ele>403</ele>
        <time>2000-01-01T04:55:59.000Z</time>
      </trkpt>
      <trkpt lat="47.26496" lon="6.23514">
        <ele>402</ele>
        <time>2000-01-01T04:56:09.000Z</time>
      </trkpt>
      <trkpt lat="47.26532" lon="6.23525">
        <ele>402</ele>
        <time>2000-01-01T04:56:19.000Z</time>
      </trkpt>
      <trkpt lat="47.26556" lon="6.23532">
        <ele>402</ele>
        <time>2000-01-01T04:56:29.000Z</time>
      </trkpt>
      <trkpt lat="47.26568" lon="6.23537">
        <ele>401.3</ele>
        <time>2000-01-01T04:56:39.000Z</time>
      </trkpt>
      <trkpt lat="47.26574" lon="6.23536">
        <ele>402</ele>
        <time>2000-01-01T04:56:49.000Z</time>
      </trkpt>
      <trkpt lat="47.26577" lon="6.2353">
        <ele>401.8</ele>
        <time>2000-01-01T04:56:59.000Z</time>
      </trkpt>
      <trkpt lat="47.26584" lon="6.23519">
        <ele>402</ele>
        <time>2000-01-01T04:57:09.000Z</time>
      </trkpt>
      <trkpt lat="47.26589" lon="6.23512">
        <ele>402</ele>
        <time>2000-01-01T04:57:19.000Z</time>
      </trkpt>
      <trkpt lat="47.26594" lon="6.23511">
        <ele>401.6</ele>
        <time>2000-01-01T04:57:29.000Z</time>
      </trkpt>
      <trkpt lat="47.26604" lon="6.23515">
        <ele>401.3</ele>
        <time>2000-01-01T04:57:39.000Z</time>
      </trkpt>
      <trkpt lat="47.26617" lon="6.23522">
        <ele>400</ele>
        <time>2000-01-01T04:57:49.000Z</time>
      </trkpt>
      <trkpt lat="47.2663" lon="6.23528">
        <ele>401</ele>
        <time>2000-01-01T04:57:59.000Z</time>
      </trkpt>
      <trkpt lat="47.26645" lon="6.23532">
        <ele>400</ele>
        <time>2000-01-01T04:58:09.000Z</time>
      </trkpt>
      <trkpt lat="47.26658" lon="6.23534">
        <ele>401.2</ele>
        <time>2000-01-01T04:58:19.000Z</time>
      </trkpt>
      <trkpt lat="47.26667" lon="6.23536">
        <ele>401</ele>
        <time>2000-01-01T04:58:29.000Z</time>
      </trkpt>
      <trkpt lat="47.26702" lon="6.23547">
        <ele>402</ele>
        <time>2000-01-01T04:58:39.000Z</time>
      </trkpt>
      <trkpt lat="47.26724" lon="6.23554">
        <ele>402</ele>
        <time>2000-01-01T04:58:49.000Z</time>
      </trkpt>
      <trkpt lat="47.26741" lon="6.23561">
        <ele>403.3</ele>
        <time>2000-01-01T04:58:59.000Z</time>
      </trkpt>
      <trkpt lat="47.26761" lon="6.23568">
        <ele>403</ele>
        <time>2000-01-01T04:59:09.000Z</time>
      </trkpt>
      <trkpt lat="47.26779" lon="6.23568">
        <ele>403.9</ele>
        <time>2000-01-01T04:59:19.000Z</time>
      </trkpt>
      <trkpt lat="47.26802" lon="6.23567">
        <ele>403</ele>
        <time>2000-01-01T04:59:29.000Z</time>
      </trkpt>
      <trkpt lat="47.2681" lon="6.23568">
        <ele>403.7</ele>
        <time>2000-01-01T04:59:39.000Z</time>
      </trkpt>
      <trkpt lat="47.26823" lon="6.23575">
        <ele>402</ele>
        <time>2000-01-01T04:59:49.000Z</time>
      </trkpt>
      <trkpt lat="47.26861" lon="6.23606">
        <ele>402</ele>
        <time>2000-01-01T04:59:59.000Z</time>
      </trkpt>
      <trkpt lat="47.26898" lon="6.23634">
        <ele>401</ele>
        <time>2000-01-01T05:00:09.000Z</time>
      </trkpt>
      <trkpt lat="47.2691" lon="6.23641">
        <ele>400.5</ele>
        <time>2000-01-01T05:00:19.000Z</time>
      </trkpt>
      <trkpt lat="47.26915" lon="6.23643">
        <ele>400</ele>
        <time>2000-01-01T05:00:29.000Z</time>
      </trkpt>
      <trkpt lat="47.26932" lon="6.23643">
        <ele>399.4</ele>
        <time>2000-01-01T05:00:39.000Z</time>
      </trkpt>
      <trkpt lat="47.26949" lon="6.23645">
        <ele>399</ele>
        <time>2000-01-01T05:00:49.000Z</time>
      </trkpt>
      <trkpt lat="47.26968" lon="6.23646">
        <ele>399</ele>
        <time>2000-01-01T05:00:59.000Z</time>
      </trkpt>
      <trkpt lat="47.26979" lon="6.23647">
        <ele>398.7</ele>
        <time>2000-01-01T05:01:09.000Z</time>
      </trkpt>
      <trkpt lat="47.26989" lon="6.23647">
        <ele>399</ele>
        <time>2000-01-01T05:01:19.000Z</time>
      </trkpt>
      <trkpt lat="47.26992" lon="6.23652">
        <ele>398.5</ele>
        <time>2000-01-01T05:01:29.000Z</time>
      </trkpt>
      <trkpt lat="47.27003" lon="6.23669">
        <ele>398</ele>
        <time>2000-01-01T05:01:39.000Z</time>
      </trkpt>
      <trkpt lat="47.27018" lon="6.23687">
        <ele>398</ele>
        <time>2000-01-01T05:01:49.000Z</time>
      </trkpt>
      <trkpt lat="47.27029" lon="6.237">
        <ele>398</ele>
        <time>2000-01-01T05:01:59.000Z</time>
      </trkpt>
      <trkpt lat="47.27038" lon="6.23708">
        <ele>398</ele>
        <time>2000-01-01T05:02:09.000Z</time>
      </trkpt>
      <trkpt lat="47.27044" lon="6.23712">
        <ele>397.8</ele>
        <time>2000-01-01T05:02:19.000Z</time>
      </trkpt>
      <trkpt lat="47.27052" lon="6.23718">
        <ele>397.9</ele>
        <time>2000-01-01T05:02:29.000Z</time>
      </trkpt>
      <trkpt lat="47.27062" lon="6.23724">
        <ele>398</ele>
        <time>2000-01-01T05:02:39.000Z</time>
      </trkpt>
      <trkpt lat="47.27074" lon="6.23728">
        <ele>398.2</ele>
        <time>2000-01-01T05:02:49.000Z</time>
      </trkpt>
      <trkpt lat="47.27085" lon="6.23732">
        <ele>398</ele>
        <time>2000-01-01T05:02:59.000Z</time>
      </trkpt>
      <trkpt lat="47.27096" lon="6.23735">
        <ele>398.3</ele>
        <time>2000-01-01T05:03:09.000Z</time>
      </trkpt>
      <trkpt lat="47.27113" lon="6.23739">
        <ele>398</ele>
        <time>2000-01-01T05:03:19.000Z</time>
      </trkpt>
      <trkpt lat="47.27127" lon="6.23741">
        <ele>398</ele>
        <time>2000-01-01T05:03:29.000Z</time>
      </trkpt>
      <trkpt lat="47.27143" lon="6.23742">
        <ele>397</ele>
        <time>2000-01-01T05:03:39.000Z</time>
      </trkpt>
      <trkpt lat="47.27155" lon="6.23741">
        <ele>398</ele>
        <time>2000-01-01T05:03:49.000Z</time>
      </trkpt>
      <trkpt lat="47.27168" lon="6.23738">
        <ele>397</ele>
        <time>2000-01-01T05:03:59.000Z</time>
      </trkpt>
      <trkpt lat="47.2718" lon="6.23735">
        <ele>397.7</ele>
        <time>2000-01-01T05:04:09.000Z</time>
      </trkpt>
      <trkpt lat="47.27194" lon="6.23732">
        <ele>397</ele>
        <time>2000-01-01T05:04:19.000Z</time>
      </trkpt>
      <trkpt lat="47.27206" lon="6.2373">
        <ele>398.1</ele>
        <time>2000-01-01T05:04:29.000Z</time>
      </trkpt>
      <trkpt lat="47.27209" lon="6.2373">
        <ele>398.3</ele>
        <time>2000-01-01T05:04:39.000Z</time>
      </trkpt>
      <trkpt lat="47.27213" lon="6.23733">
        <ele>397</ele>
        <time>2000-01-01T05:04:49.000Z</time>
      </trkpt>
      <trkpt lat="47.27215" lon="6.23738">
        <ele>399</ele>
        <time>2000-01-01T05:04:59.000Z</time>
      </trkpt>
      <trkpt lat="47.27217" lon="6.23748">
        <ele>399.6</ele>
        <time>2000-01-01T05:05:09.000Z</time>
      </trkpt>
      <trkpt lat="47.27217" lon="6.23762">
        <ele>398</ele>
        <time>2000-01-01T05:05:19.000Z</time>
      </trkpt>
      <trkpt lat="47.27218" lon="6.23774">
        <ele>399.7</ele>
        <time>2000-01-01T05:05:29.000Z</time>
      </trkpt>
      <trkpt lat="47.2722" lon="6.23784">
        <ele>399.9</ele>
        <time>2000-01-01T05:05:39.000Z</time>
      </trkpt>
      <trkpt lat="47.27223" lon="6.23793">
        <ele>400</ele>
        <time>2000-01-01T05:05:49.000Z</time>
      </trkpt>
      <trkpt lat="47.27226" lon="6.238">
        <ele>400.4</ele>
        <time>2000-01-01T05:05:59.000Z</time>
      </trkpt>
      <trkpt lat="47.27228" lon="6.23811">
        <ele>400.8</ele>
        <time>2000-01-01T05:06:09.000Z</time>
      </trkpt>
      <trkpt lat="47.27231" lon="6.23802">
        <ele>401</ele>
        <time>2000-01-01T05:06:19.000Z</time>
      </trkpt>
      <trkpt lat="47.27235" lon="6.23794">
        <ele>401.4</ele>
        <time>2000-01-01T05:06:29.000Z</time>
      </trkpt>
      <trkpt lat="47.2724" lon="6.23787">
        <ele>401.9</ele>
        <time>2000-01-01T05:06:39.000Z</time>
      </trkpt>
      <trkpt lat="47.27244" lon="6.23777">
        <ele>401</ele>
        <time>2000-01-01T05:06:49.000Z</time>
      </trkpt>
      <trkpt lat="47.27252" lon="6.23761">
        <ele>402.5</ele>
        <time>2000-01-01T05:06:59.000Z</time>
      </trkpt>
      <trkpt lat="47.27257" lon="6.23752">
        <ele>402</ele>
        <time>2000-01-01T05:07:09.000Z</time>
      </trkpt>
      <trkpt lat="47.27263" lon="6.23743">
        <ele>402.7</ele>
        <time>2000-01-01T05:07:19.000Z</time>
      </trkpt>
      <trkpt lat="47.27267" lon="6.23737">
        <ele>402.8</ele>
        <time>2000-01-01T05:07:29.000Z</time>
      </trkpt>
      <trkpt lat="47.27272" lon="6.23734">
        <ele>402</ele>
        <time>2000-01-01T05:07:39.000Z</time>
      </trkpt>
      <trkpt lat="47.27278" lon="6.23733">
        <ele>403.4</ele>
        <time>2000-01-01T05:07:49.000Z</time>
      </trkpt>
      <trkpt lat="47.27284" lon="6.23733">
        <ele>403.5</ele>
        <time>2000-01-01T05:07:59.000Z</time>
      </trkpt>
      <trkpt lat="47.27294" lon="6.23736">
        <ele>403</ele>
        <time>2000-01-01T05:08:09.000Z</time>
      </trkpt>
      <trkpt lat="47.27308" lon="6.23743">
        <ele>404.1</ele>
        <time>2000-01-01T05:08:19.000Z</time>
      </trkpt>
      <trkpt lat="47.2732" lon="6.23751">
        <ele>404</ele>
        <time>2000-01-01T05:08:29.000Z</time>
      </trkpt>
      <trkpt lat="47.27338" lon="6.23763">
        <ele>405</ele>
        <time>2000-01-01T05:08:39.000Z</time>
      </trkpt>
      <trkpt lat="47.2735" lon="6.2377">
        <ele>405.7</ele>
        <time>2000-01-01T05:08:49.000Z</time>
      </trkpt>
      <trkpt lat="47.27364" lon="6.23777">
        <ele>405</ele>
        <time>2000-01-01T05:08:59.000Z</time>
      </trkpt>
      <trkpt lat="47.27377" lon="6.23784">
        <ele>405.4</ele>
        <time>2000-01-01T05:09:09.000Z</time>
      </trkpt>
      <trkpt lat="47.27391" lon="6.2379">
        <ele>405</ele>
        <time>2000-01-01T05:09:19.000Z</time>
      </trkpt>
      <trkpt lat="47.27405" lon="6.23797">
        <ele>403.8</ele>
        <time>2000-01-01T05:09:29.000Z</time>
      </trkpt>
      <trkpt lat="47.27415" lon="6.23801">
        <ele>403</ele>
        <time>2000-01-01T05:09:39.000Z</time>
      </trkpt>
      <trkpt lat="47.27431" lon="6.23808">
        <ele>403</ele>
        <time>2000-01-01T05:09:49.000Z</time>
      </trkpt>
      <trkpt lat="47.27453" lon="6.23818">
        <ele>403</ele>
        <time>2000-01-01T05:09:59.000Z</time>
      </trkpt>
      <trkpt lat="47.27475" lon="6.23831">
        <ele>403</ele>
        <time>2000-01-01T05:10:09.000Z</time>
      </trkpt>
      <trkpt lat="47.27507" lon="6.23844">
        <ele>404</ele>
        <time>2000-01-01T05:10:19.000Z</time>
      </trkpt>
      <trkpt lat="47.2754" lon="6.23857">
        <ele>405</ele>
        <time>2000-01-01T05:10:29.000Z</time>
      </trkpt>
      <trkpt lat="47.27564" lon="6.23866">
        <ele>405</ele>
        <time>2000-01-01T05:10:39.000Z</time>
      </trkpt>
      <trkpt lat="47.27596" lon="6.23879">
        <ele>405</ele>
        <time>2000-01-01T05:10:49.000Z</time>
      </trkpt>
      <trkpt lat="47.2763" lon="6.23901">
        <ele>403</ele>
        <time>2000-01-01T05:10:59.000Z</time>
      </trkpt>
      <trkpt lat="47.27664" lon="6.23923">
        <ele>401</ele>
        <time>2000-01-01T05:11:09.000Z</time>
      </trkpt>
      <trkpt lat="47.27699" lon="6.23945">
        <ele>400</ele>
        <time>2000-01-01T05:11:19.000Z</time>
      </trkpt>
      <trkpt lat="47.27733" lon="6.23967">
        <ele>398</ele>
        <time>2000-01-01T05:11:29.000Z</time>
      </trkpt>
      <trkpt lat="47.27756" lon="6.23981">
        <ele>397</ele>
        <time>2000-01-01T05:11:39.000Z</time>
      </trkpt>
      <trkpt lat="47.27783" lon="6.23999">
        <ele>397</ele>
        <time>2000-01-01T05:11:49.000Z</time>
      </trkpt>
      <trkpt lat="47.27804" lon="6.24028">
        <ele>399</ele>
        <time>2000-01-01T05:11:59.000Z</time>
      </trkpt>
      <trkpt lat="47.27821" lon="6.24052">
        <ele>401</ele>
        <time>2000-01-01T05:12:09.000Z</time>
      </trkpt>
      <trkpt lat="47.27839" lon="6.24078">
        <ele>401</ele>
        <time>2000-01-01T05:12:19.000Z</time>
      </trkpt>
      <trkpt lat="47.27843" lon="6.2408">
        <ele>401.5</ele>
        <time>2000-01-01T05:12:29.000Z</time>
      </trkpt>
      <trkpt lat="47.27848" lon="6.24085">
        <ele>401.5</ele>
        <time>2000-01-01T05:12:39.000Z</time>
      </trkpt>
      <trkpt lat="47.27866" lon="6.24098">
        <ele>401</ele>
        <time>2000-01-01T05:12:49.000Z</time>
      </trkpt>
      <trkpt lat="47.27878" lon="6.24113">
        <ele>401.4</ele>
        <time>2000-01-01T05:12:59.000Z</time>
      </trkpt>
      <trkpt lat="47.27898" lon="6.2414">
        <ele>401</ele>
        <time>2000-01-01T05:13:09.000Z</time>
      </trkpt>
      <trkpt lat="47.27904" lon="6.24147">
        <ele>401.1</ele>
        <time>2000-01-01T05:13:19.000Z</time>
      </trkpt>
      <trkpt lat="47.27925" lon="6.24182">
        <ele>401</ele>
        <time>2000-01-01T05:13:29.000Z</time>
      </trkpt>
      <trkpt lat="47.27929" lon="6.2419">
        <ele>401</ele>
        <time>2000-01-01T05:13:39.000Z</time>
      </trkpt>
      <trkpt lat="47.27935" lon="6.24206">
        <ele>400</ele>
        <time>2000-01-01T05:13:49.000Z</time>
      </trkpt>
      <trkpt lat="47.27938" lon="6.24216">
        <ele>400.3</ele>
        <time>2000-01-01T05:13:59.000Z</time>
      </trkpt>
      <trkpt lat="47.27941" lon="6.24263">
        <ele>400</ele>
        <time>2000-01-01T05:14:09.000Z</time>
      </trkpt>
      <trkpt lat="47.27941" lon="6.24275">
        <ele>400.1</ele>
        <time>2000-01-01T05:14:19.000Z</time>
      </trkpt>
      <trkpt lat="47.27942" lon="6.24294">
        <ele>400</ele>
        <time>2000-01-01T05:14:29.000Z</time>
      </trkpt>
      <trkpt lat="47.2794" lon="6.24328">
        <ele>401</ele>
        <time>2000-01-01T05:14:39.000Z</time>
      </trkpt>
      <trkpt lat="47.27939" lon="6.24355">
        <ele>402</ele>
        <time>2000-01-01T05:14:49.000Z</time>
      </trkpt>
      <trkpt lat="47.27938" lon="6.24382">
        <ele>403.7</ele>
        <time>2000-01-01T05:14:59.000Z</time>
      </trkpt>
      <trkpt lat="47.27938" lon="6.24396">
        <ele>404</ele>
        <time>2000-01-01T05:15:09.000Z</time>
      </trkpt>
      <trkpt lat="47.27946" lon="6.24399">
        <ele>404</ele>
        <time>2000-01-01T05:15:19.000Z</time>
      </trkpt>
      <trkpt lat="47.27964" lon="6.24404">
        <ele>404</ele>
        <time>2000-01-01T05:15:29.000Z</time>
      </trkpt>
      <trkpt lat="47.27978" lon="6.24407">
        <ele>403.9</ele>
        <time>2000-01-01T05:15:39.000Z</time>
      </trkpt>
      <trkpt lat="47.27998" lon="6.2441">
        <ele>404</ele>
        <time>2000-01-01T05:15:49.000Z</time>
      </trkpt>
      <trkpt lat="47.28031" lon="6.24415">
        <ele>405</ele>
        <time>2000-01-01T05:15:59.000Z</time>
      </trkpt>
      <trkpt lat="47.28056" lon="6.24419">
        <ele>406</ele>
        <time>2000-01-01T05:16:09.000Z</time>
      </trkpt>
      <trkpt lat="47.28086" lon="6.24423">
        <ele>406</ele>
        <time>2000-01-01T05:16:19.000Z</time>
      </trkpt>
      <trkpt lat="47.28102" lon="6.24428">
        <ele>405.4</ele>
        <time>2000-01-01T05:16:29.000Z</time>
      </trkpt>
      <trkpt lat="47.28112" lon="6.24433">
        <ele>404</ele>
        <time>2000-01-01T05:16:39.000Z</time>
      </trkpt>
      <trkpt lat="47.2812" lon="6.2444">
        <ele>403.3</ele>
        <time>2000-01-01T05:16:49.000Z</time>
      </trkpt>
      <trkpt lat="47.28127" lon="6.24449">
        <ele>403</ele>
        <time>2000-01-01T05:16:59.000Z</time>
      </trkpt>
      <trkpt lat="47.28136" lon="6.24464">
        <ele>401.2</ele>
        <time>2000-01-01T05:17:09.000Z</time>
      </trkpt>
      <trkpt lat="47.28144" lon="6.24476">
        <ele>400</ele>
        <time>2000-01-01T05:17:19.000Z</time>
      </trkpt>
      <trkpt lat="47.28162" lon="6.24503">
        <ele>398</ele>
        <time>2000-01-01T05:17:29.000Z</time>
      </trkpt>
      <trkpt lat="47.28185" lon="6.24539">
        <ele>397</ele>
        <time>2000-01-01T05:17:39.000Z</time>
      </trkpt>
      <trkpt lat="47.28198" lon="6.24554">
        <ele>396.7</ele>
        <time>2000-01-01T05:17:49.000Z</time>
      </trkpt>
      <trkpt lat="47.28205" lon="6.2456">
        <ele>396</ele>
        <time>2000-01-01T05:17:59.000Z</time>
      </trkpt>
      <trkpt lat="47.28218" lon="6.24572">
        <ele>395.2</ele>
        <time>2000-01-01T05:18:09.000Z</time>
      </trkpt>
      <trkpt lat="47.28238" lon="6.24586">
        <ele>394</ele>
        <time>2000-01-01T05:18:19.000Z</time>
      </trkpt>
      <trkpt lat="47.28268" lon="6.24609">
        <ele>393</ele>
        <time>2000-01-01T05:18:29.000Z</time>
      </trkpt>
      <trkpt lat="47.2829" lon="6.24623">
        <ele>393</ele>
        <time>2000-01-01T05:18:39.000Z</time>
      </trkpt>
      <trkpt lat="47.28312" lon="6.24638">
        <ele>392</ele>
        <time>2000-01-01T05:18:49.000Z</time>
      </trkpt>
      <trkpt lat="47.28352" lon="6.24665">
        <ele>392</ele>
        <time>2000-01-01T05:18:59.000Z</time>
      </trkpt>
      <trkpt lat="47.28369" lon="6.24675">
        <ele>392</ele>
        <time>2000-01-01T05:19:09.000Z</time>
      </trkpt>
      <trkpt lat="47.28385" lon="6.24682">
        <ele>392</ele>
        <time>2000-01-01T05:19:19.000Z</time>
      </trkpt>
      <trkpt lat="47.28404" lon="6.24689">
        <ele>391</ele>
        <time>2000-01-01T05:19:29.000Z</time>
      </trkpt>
      <trkpt lat="47.28419" lon="6.24694">
        <ele>392</ele>
        <time>2000-01-01T05:19:39.000Z</time>
      </trkpt>
      <trkpt lat="47.28431" lon="6.24699">
        <ele>391</ele>
        <time>2000-01-01T05:19:49.000Z</time>
      </trkpt>
      <trkpt lat="47.28443" lon="6.24705">
        <ele>391.6</ele>
        <time>2000-01-01T05:19:59.000Z</time>
      </trkpt>
      <trkpt lat="47.28454" lon="6.24711">
        <ele>391</ele>
        <time>2000-01-01T05:20:09.000Z</time>
      </trkpt>
      <trkpt lat="47.28462" lon="6.24717">
        <ele>391.6</ele>
        <time>2000-01-01T05:20:19.000Z</time>
      </trkpt>
      <trkpt lat="47.28472" lon="6.24725">
        <ele>391</ele>
        <time>2000-01-01T05:20:29.000Z</time>
      </trkpt>
      <trkpt lat="47.28478" lon="6.24731">
        <ele>391.6</ele>
        <time>2000-01-01T05:20:39.000Z</time>
      </trkpt>
      <trkpt lat="47.28492" lon="6.24744">
        <ele>391</ele>
        <time>2000-01-01T05:20:49.000Z</time>
      </trkpt>
      <trkpt lat="47.285" lon="6.24752">
        <ele>392</ele>
        <time>2000-01-01T05:20:59.000Z</time>
      </trkpt>
      <trkpt lat="47.285" lon="6.24752">
        <ele>392</ele>
        <time>2000-01-01T05:21:09.000Z</time>
      </trkpt>
      <trkpt lat="47.28511" lon="6.24763">
        <ele>391</ele>
        <time>2000-01-01T05:21:19.000Z</time>
      </trkpt>
      <trkpt lat="47.28519" lon="6.2477">
        <ele>391.8</ele>
        <time>2000-01-01T05:21:29.000Z</time>
      </trkpt>
      <trkpt lat="47.28522" lon="6.24773">
        <ele>391.9</ele>
        <time>2000-01-01T05:21:39.000Z</time>
      </trkpt>
      <trkpt lat="47.28527" lon="6.24778">
        <ele>391</ele>
        <time>2000-01-01T05:21:49.000Z</time>
      </trkpt>
      <trkpt lat="47.28538" lon="6.24785">
        <ele>391.6</ele>
        <time>2000-01-01T05:21:59.000Z</time>
      </trkpt>
      <trkpt lat="47.28547" lon="6.2479">
        <ele>391</ele>
        <time>2000-01-01T05:22:09.000Z</time>
      </trkpt>
      <trkpt lat="47.28556" lon="6.24792">
        <ele>391.5</ele>
        <time>2000-01-01T05:22:19.000Z</time>
      </trkpt>
      <trkpt lat="47.28566" lon="6.24792">
        <ele>391</ele>
        <time>2000-01-01T05:22:29.000Z</time>
      </trkpt>
      <trkpt lat="47.28576" lon="6.2479">
        <ele>391.9</ele>
        <time>2000-01-01T05:22:39.000Z</time>
      </trkpt>
      <trkpt lat="47.28581" lon="6.24788">
        <ele>391.9</ele>
        <time>2000-01-01T05:22:49.000Z</time>
      </trkpt>
      <trkpt lat="47.28589" lon="6.24786">
        <ele>391</ele>
        <time>2000-01-01T05:22:59.000Z</time>
      </trkpt>
      <trkpt lat="47.28603" lon="6.24781">
        <ele>392</ele>
        <time>2000-01-01T05:23:09.000Z</time>
      </trkpt>
      <trkpt lat="47.28613" lon="6.24777">
        <ele>392</ele>
        <time>2000-01-01T05:23:19.000Z</time>
      </trkpt>
      <trkpt lat="47.28631" lon="6.24773">
        <ele>392</ele>
        <time>2000-01-01T05:23:29.000Z</time>
      </trkpt>
      <trkpt lat="47.2864" lon="6.2477">
        <ele>392</ele>
        <time>2000-01-01T05:23:39.000Z</time>
      </trkpt>
      <trkpt lat="47.28656" lon="6.24767">
        <ele>392</ele>
        <time>2000-01-01T05:23:49.000Z</time>
      </trkpt>
      <trkpt lat="47.2867" lon="6.24764">
        <ele>392</ele>
        <time>2000-01-01T05:23:59.000Z</time>
      </trkpt>
      <trkpt lat="47.28682" lon="6.24762">
        <ele>392</ele>
        <time>2000-01-01T05:24:09.000Z</time>
      </trkpt>
      <trkpt lat="47.28691" lon="6.24758">
        <ele>391</ele>
        <time>2000-01-01T05:24:19.000Z</time>
      </trkpt>
      <trkpt lat="47.28703" lon="6.24752">
        <ele>392</ele>
        <time>2000-01-01T05:24:29.000Z</time>
      </trkpt>
      <trkpt lat="47.28715" lon="6.24747">
        <ele>391</ele>
        <time>2000-01-01T05:24:39.000Z</time>
      </trkpt>
      <trkpt lat="47.28725" lon="6.24744">
        <ele>392</ele>
        <time>2000-01-01T05:24:49.000Z</time>
      </trkpt>
      <trkpt lat="47.28737" lon="6.24742">
        <ele>391</ele>
        <time>2000-01-01T05:24:59.000Z</time>
      </trkpt>
      <trkpt lat="47.28751" lon="6.24741">
        <ele>392</ele>
        <time>2000-01-01T05:25:09.000Z</time>
      </trkpt>
      <trkpt lat="47.28773" lon="6.24743">
        <ele>391</ele>
        <time>2000-01-01T05:25:19.000Z</time>
      </trkpt>
      <trkpt lat="47.28791" lon="6.24745">
        <ele>391</ele>
        <time>2000-01-01T05:25:29.000Z</time>
      </trkpt>
      <trkpt lat="47.28813" lon="6.24747">
        <ele>391</ele>
        <time>2000-01-01T05:25:39.000Z</time>
      </trkpt>
      <trkpt lat="47.28817" lon="6.24741">
        <ele>391.6</ele>
        <time>2000-01-01T05:25:49.000Z</time>
      </trkpt>
      <trkpt lat="47.28826" lon="6.24736">
        <ele>391.3</ele>
        <time>2000-01-01T05:25:59.000Z</time>
      </trkpt>
      <trkpt lat="47.28833" lon="6.24732">
        <ele>391</ele>
        <time>2000-01-01T05:26:09.000Z</time>
      </trkpt>
      <trkpt lat="47.28839" lon="6.24726">
        <ele>391</ele>
        <time>2000-01-01T05:26:19.000Z</time>
      </trkpt>
      <trkpt lat="47.28844" lon="6.24715">
        <ele>391</ele>
        <time>2000-01-01T05:26:29.000Z</time>
      </trkpt>
      <trkpt lat="47.28848" lon="6.24697">
        <ele>391</ele>
        <time>2000-01-01T05:26:39.000Z</time>
      </trkpt>
      <trkpt lat="47.2885" lon="6.24676">
        <ele>391</ele>
        <time>2000-01-01T05:26:49.000Z</time>
      </trkpt>
      <trkpt lat="47.28852" lon="6.24661">
        <ele>391</ele>
        <time>2000-01-01T05:26:59.000Z</time>
      </trkpt>
      <trkpt lat="47.28855" lon="6.24637">
        <ele>391.8</ele>
        <time>2000-01-01T05:27:09.000Z</time>
      </trkpt>
      <trkpt lat="47.2886" lon="6.24621">
        <ele>391</ele>
        <time>2000-01-01T05:27:19.000Z</time>
      </trkpt>
      <trkpt lat="47.28867" lon="6.24615">
        <ele>392.2</ele>
        <time>2000-01-01T05:27:29.000Z</time>
      </trkpt>
      <trkpt lat="47.28872" lon="6.24612">
        <ele>392.4</ele>
        <time>2000-01-01T05:27:39.000Z</time>
      </trkpt>
      <trkpt lat="47.28881" lon="6.24604">
        <ele>392</ele>
        <time>2000-01-01T05:27:49.000Z</time>
      </trkpt>
      <trkpt lat="47.2889" lon="6.24597">
        <ele>392.5</ele>
        <time>2000-01-01T05:27:59.000Z</time>
      </trkpt>
      <trkpt lat="47.28899" lon="6.24588">
        <ele>392</ele>
        <time>2000-01-01T05:28:09.000Z</time>
      </trkpt>
      <trkpt lat="47.28907" lon="6.24576">
        <ele>392</ele>
        <time>2000-01-01T05:28:19.000Z</time>
      </trkpt>
      <trkpt lat="47.28911" lon="6.2457">
        <ele>392</ele>
        <time>2000-01-01T05:28:29.000Z</time>
      </trkpt>
      <trkpt lat="47.28917" lon="6.24558">
        <ele>391</ele>
        <time>2000-01-01T05:28:39.000Z</time>
      </trkpt>
      <trkpt lat="47.28927" lon="6.24541">
        <ele>391.1</ele>
        <time>2000-01-01T05:28:49.000Z</time>
      </trkpt>
      <trkpt lat="47.28932" lon="6.2453">
        <ele>391</ele>
        <time>2000-01-01T05:28:59.000Z</time>
      </trkpt>
      <trkpt lat="47.28941" lon="6.24517">
        <ele>391.5</ele>
        <time>2000-01-01T05:29:09.000Z</time>
      </trkpt>
      <trkpt lat="47.28949" lon="6.24508">
        <ele>391</ele>
        <time>2000-01-01T05:29:19.000Z</time>
      </trkpt>
      <trkpt lat="47.28958" lon="6.24501">
        <ele>391.4</ele>
        <time>2000-01-01T05:29:29.000Z</time>
      </trkpt>
      <trkpt lat="47.28968" lon="6.24494">
        <ele>391</ele>
        <time>2000-01-01T05:29:39.000Z</time>
      </trkpt>
      <trkpt lat="47.28972" lon="6.24491">
        <ele>391.3</ele>
        <time>2000-01-01T05:29:49.000Z</time>
      </trkpt>
      <trkpt lat="47.2898" lon="6.24485">
        <ele>391.7</ele>
        <time>2000-01-01T05:29:59.000Z</time>
      </trkpt>
      <trkpt lat="47.28985" lon="6.24483">
        <ele>391</ele>
        <time>2000-01-01T05:30:09.000Z</time>
      </trkpt>
      <trkpt lat="47.2899" lon="6.2448">
        <ele>391.9</ele>
        <time>2000-01-01T05:30:19.000Z</time>
      </trkpt>
      <trkpt lat="47.29002" lon="6.24474">
        <ele>392</ele>
        <time>2000-01-01T05:30:29.000Z</time>
      </trkpt>
      <trkpt lat="47.29011" lon="6.24467">
        <ele>391</ele>
        <time>2000-01-01T05:30:39.000Z</time>
      </trkpt>
      <trkpt lat="47.29018" lon="6.24458">
        <ele>392</ele>
        <time>2000-01-01T05:30:49.000Z</time>
      </trkpt>
      <trkpt lat="47.29024" lon="6.24446">
        <ele>391</ele>
        <time>2000-01-01T05:30:59.000Z</time>
      </trkpt>
      <trkpt lat="47.29026" lon="6.24439">
        <ele>392</ele>
        <time>2000-01-01T05:31:09.000Z</time>
      </trkpt>
      <trkpt lat="47.29028" lon="6.24432">
        <ele>392</ele>
        <time>2000-01-01T05:31:19.000Z</time>
      </trkpt>
      <trkpt lat="47.2903" lon="6.2442">
        <ele>392</ele>
        <time>2000-01-01T05:31:29.000Z</time>
      </trkpt>
      <trkpt lat="47.29031" lon="6.24409">
        <ele>392</ele>
        <time>2000-01-01T05:31:39.000Z</time>
      </trkpt>
      <trkpt lat="47.2903" lon="6.24398">
        <ele>392</ele>
        <time>2000-01-01T05:31:49.000Z</time>
      </trkpt>
      <trkpt lat="47.29028" lon="6.24388">
        <ele>392</ele>
        <time>2000-01-01T05:31:59.000Z</time>
      </trkpt>
      <trkpt lat="47.29024" lon="6.24374">
        <ele>392</ele>
        <time>2000-01-01T05:32:09.000Z</time>
      </trkpt>
      <trkpt lat="47.29013" lon="6.24347">
        <ele>392</ele>
        <time>2000-01-01T05:32:19.000Z</time>
      </trkpt>
      <trkpt lat="47.29003" lon="6.24322">
        <ele>393</ele>
        <time>2000-01-01T05:32:29.000Z</time>
      </trkpt>
      <trkpt lat="47.29007" lon="6.24307">
        <ele>393</ele>
        <time>2000-01-01T05:32:39.000Z</time>
      </trkpt>
      <trkpt lat="47.29014" lon="6.24292">
        <ele>393</ele>
        <time>2000-01-01T05:32:49.000Z</time>
      </trkpt>
      <trkpt lat="47.29029" lon="6.24266">
        <ele>395</ele>
        <time>2000-01-01T05:32:59.000Z</time>
      </trkpt>
      <trkpt lat="47.29035" lon="6.24256">
        <ele>396.2</ele>
        <time>2000-01-01T05:33:09.000Z</time>
      </trkpt>
      <trkpt lat="47.29045" lon="6.24238">
        <ele>397</ele>
        <time>2000-01-01T05:33:19.000Z</time>
      </trkpt>
      <trkpt lat="47.2905" lon="6.24228">
        <ele>399</ele>
        <time>2000-01-01T05:33:29.000Z</time>
      </trkpt>
      <trkpt lat="47.29059" lon="6.24209">
        <ele>400</ele>
        <time>2000-01-01T05:33:39.000Z</time>
      </trkpt>
      <trkpt lat="47.29064" lon="6.24198">
        <ele>401.7</ele>
        <time>2000-01-01T05:33:49.000Z</time>
      </trkpt>
      <trkpt lat="47.29079" lon="6.24169">
        <ele>404</ele>
        <time>2000-01-01T05:33:59.000Z</time>
      </trkpt>
      <trkpt lat="47.29102" lon="6.24111">
        <ele>411</ele>
        <time>2000-01-01T05:34:09.000Z</time>
      </trkpt>
      <trkpt lat="47.29113" lon="6.24076">
        <ele>414</ele>
        <time>2000-01-01T05:34:19.000Z</time>
      </trkpt>
      <trkpt lat="47.29129" lon="6.24028">
        <ele>417</ele>
        <time>2000-01-01T05:34:29.000Z</time>
      </trkpt>
      <trkpt lat="47.29142" lon="6.24031">
        <ele>422.4</ele>
        <time>2000-01-01T05:34:39.000Z</time>
      </trkpt>
      <trkpt lat="47.29164" lon="6.24073">
        <ele>424</ele>
        <time>2000-01-01T05:34:49.000Z</time>
      </trkpt>
      <trkpt lat="47.29194" lon="6.24095">
        <ele>428</ele>
        <time>2000-01-01T05:34:59.000Z</time>
      </trkpt>
      <trkpt lat="47.29222" lon="6.24108">
        <ele>433</ele>
        <time>2000-01-01T05:35:09.000Z</time>
      </trkpt>
      <trkpt lat="47.29245" lon="6.24119">
        <ele>436</ele>
        <time>2000-01-01T05:35:19.000Z</time>
      </trkpt>
      <trkpt lat="47.29271" lon="6.24132">
        <ele>441</ele>
        <time>2000-01-01T05:35:29.000Z</time>
      </trkpt>
      <trkpt lat="47.2927" lon="6.24113">
        <ele>443.1</ele>
        <time>2000-01-01T05:35:39.000Z</time>
      </trkpt>
      <trkpt lat="47.29265" lon="6.24096">
        <ele>442</ele>
        <time>2000-01-01T05:35:49.000Z</time>
      </trkpt>
      <trkpt lat="47.29263" lon="6.2403">
        <ele>447</ele>
        <time>2000-01-01T05:35:59.000Z</time>
      </trkpt>
      <trkpt lat="47.29271" lon="6.23978">
        <ele>450</ele>
        <time>2000-01-01T05:36:09.000Z</time>
      </trkpt>
      <trkpt lat="47.29293" lon="6.23938">
        <ele>454</ele>
        <time>2000-01-01T05:36:19.000Z</time>
      </trkpt>
      <trkpt lat="47.29325" lon="6.23915">
        <ele>461</ele>
        <time>2000-01-01T05:36:29.000Z</time>
      </trkpt>
      <trkpt lat="47.2935" lon="6.23881">
        <ele>465</ele>
        <time>2000-01-01T05:36:39.000Z</time>
      </trkpt>
      <trkpt lat="47.29372" lon="6.23859">
        <ele>470</ele>
        <time>2000-01-01T05:36:49.000Z</time>
      </trkpt>
      <trkpt lat="47.29371" lon="6.23857">
        <ele>470.3</ele>
        <time>2000-01-01T05:36:59.000Z</time>
      </trkpt>
      <trkpt lat="47.29367" lon="6.23858">
        <ele>469.9</ele>
        <time>2000-01-01T05:37:09.000Z</time>
      </trkpt>
      <trkpt lat="47.29365" lon="6.23856">
        <ele>469.9</ele>
        <time>2000-01-01T05:37:19.000Z</time>
      </trkpt>
      <trkpt lat="47.29348" lon="6.23821">
        <ele>473</ele>
        <time>2000-01-01T05:37:29.000Z</time>
      </trkpt>
      <trkpt lat="47.2934" lon="6.23807">
        <ele>475.6</ele>
        <time>2000-01-01T05:37:39.000Z</time>
      </trkpt>
      <trkpt lat="47.29311" lon="6.23748">
        <ele>473</ele>
        <time>2000-01-01T05:37:49.000Z</time>
      </trkpt>
      <trkpt lat="47.29304" lon="6.23716">
        <ele>474</ele>
        <time>2000-01-01T05:37:59.000Z</time>
      </trkpt>
      <trkpt lat="47.29298" lon="6.23683">
        <ele>474</ele>
        <time>2000-01-01T05:38:09.000Z</time>
      </trkpt>
      <trkpt lat="47.29298" lon="6.23667">
        <ele>477.1</ele>
        <time>2000-01-01T05:38:19.000Z</time>
      </trkpt>
      <trkpt lat="47.29297" lon="6.23648">
        <ele>474</ele>
        <time>2000-01-01T05:38:29.000Z</time>
      </trkpt>
      <trkpt lat="47.29294" lon="6.23649">
        <ele>476.4</ele>
        <time>2000-01-01T05:38:39.000Z</time>
      </trkpt>
      <trkpt lat="47.29293" lon="6.23644">
        <ele>476.2</ele>
        <time>2000-01-01T05:38:49.000Z</time>
      </trkpt>
      <trkpt lat="47.29292" lon="6.23641">
        <ele>476</ele>
        <time>2000-01-01T05:38:59.000Z</time>
      </trkpt>
      <trkpt lat="47.29288" lon="6.23633">
        <ele>475.4</ele>
        <time>2000-01-01T05:39:09.000Z</time>
      </trkpt>
      <trkpt lat="47.29287" lon="6.2363">
        <ele>475.3</ele>
        <time>2000-01-01T05:39:19.000Z</time>
      </trkpt>
      <trkpt lat="47.29284" lon="6.23624">
        <ele>474</ele>
        <time>2000-01-01T05:39:29.000Z</time>
      </trkpt>
      <trkpt lat="47.29283" lon="6.23621">
        <ele>474.8</ele>
        <time>2000-01-01T05:39:39.000Z</time>
      </trkpt>
      <trkpt lat="47.29221" lon="6.23452">
        <ele>474</ele>
        <time>2000-01-01T05:39:49.000Z</time>
      </trkpt>
      <trkpt lat="47.29196" lon="6.2343">
        <ele>477</ele>
        <time>2000-01-01T05:39:59.000Z</time>
      </trkpt>
      <trkpt lat="47.29176" lon="6.23413">
        <ele>483</ele>
        <time>2000-01-01T05:40:09.000Z</time>
      </trkpt>
      <trkpt lat="47.29154" lon="6.23394">
        <ele>485</ele>
        <time>2000-01-01T05:40:19.000Z</time>
      </trkpt>
      <trkpt lat="47.2913" lon="6.2335">
        <ele>487</ele>
        <time>2000-01-01T05:40:29.000Z</time>
      </trkpt>
      <trkpt lat="47.2912" lon="6.23285">
        <ele>494</ele>
        <time>2000-01-01T05:40:39.000Z</time>
      </trkpt>
      <trkpt lat="47.2912" lon="6.23283">
        <ele>494.5</ele>
        <time>2000-01-01T05:40:49.000Z</time>
      </trkpt>
      <trkpt lat="47.29099" lon="6.23224">
        <ele>497</ele>
        <time>2000-01-01T05:40:59.000Z</time>
      </trkpt>
      <trkpt lat="47.29091" lon="6.23185">
        <ele>500</ele>
        <time>2000-01-01T05:41:09.000Z</time>
      </trkpt>
      <trkpt lat="47.29081" lon="6.23127">
        <ele>501</ele>
        <time>2000-01-01T05:41:19.000Z</time>
      </trkpt>
      <trkpt lat="47.29073" lon="6.23107">
        <ele>502.7</ele>
        <time>2000-01-01T05:41:29.000Z</time>
      </trkpt>
      <trkpt lat="47.29064" lon="6.23076">
        <ele>502</ele>
        <time>2000-01-01T05:41:39.000Z</time>
      </trkpt>
      <trkpt lat="47.29061" lon="6.2306">
        <ele>503.7</ele>
        <time>2000-01-01T05:41:49.000Z</time>
      </trkpt>
      <trkpt lat="47.29052" lon="6.23011">
        <ele>504</ele>
        <time>2000-01-01T05:41:59.000Z</time>
      </trkpt>
      <trkpt lat="47.29051" lon="6.23001">
        <ele>505</ele>
        <time>2000-01-01T05:42:09.000Z</time>
      </trkpt>
      <trkpt lat="47.2905" lon="6.22982">
        <ele>506</ele>
        <time>2000-01-01T05:42:19.000Z</time>
      </trkpt>
      <trkpt lat="47.29043" lon="6.22929">
        <ele>506</ele>
        <time>2000-01-01T05:42:29.000Z</time>
      </trkpt>
      <trkpt lat="47.29038" lon="6.22895">
        <ele>507</ele>
        <time>2000-01-01T05:42:39.000Z</time>
      </trkpt>
      <trkpt lat="47.29037" lon="6.22874">
        <ele>509.5</ele>
        <time>2000-01-01T05:42:49.000Z</time>
      </trkpt>
      <trkpt lat="47.29035" lon="6.22841">
        <ele>508</ele>
        <time>2000-01-01T05:42:59.000Z</time>
      </trkpt>
      <trkpt lat="47.29029" lon="6.22785">
        <ele>510</ele>
        <time>2000-01-01T05:43:09.000Z</time>
      </trkpt>
      <trkpt lat="47.2902" lon="6.22746">
        <ele>510</ele>
        <time>2000-01-01T05:43:19.000Z</time>
      </trkpt>
      <trkpt lat="47.29007" lon="6.22683">
        <ele>510</ele>
        <time>2000-01-01T05:43:29.000Z</time>
      </trkpt>
      <trkpt lat="47.29008" lon="6.22641">
        <ele>511</ele>
        <time>2000-01-01T05:43:39.000Z</time>
      </trkpt>
      <trkpt lat="47.29011" lon="6.22574">
        <ele>516</ele>
        <time>2000-01-01T05:43:49.000Z</time>
      </trkpt>
      <trkpt lat="47.29012" lon="6.22539">
        <ele>517</ele>
        <time>2000-01-01T05:43:59.000Z</time>
      </trkpt>
      <trkpt lat="47.29013" lon="6.22499">
        <ele>519</ele>
        <time>2000-01-01T05:44:09.000Z</time>
      </trkpt>
      <trkpt lat="47.29015" lon="6.22437">
        <ele>521</ele>
        <time>2000-01-01T05:44:19.000Z</time>
      </trkpt>
      <trkpt lat="47.29017" lon="6.22384">
        <ele>522</ele>
        <time>2000-01-01T05:44:29.000Z</time>
      </trkpt>
      <trkpt lat="47.29013" lon="6.22324">
        <ele>525</ele>
        <time>2000-01-01T05:44:39.000Z</time>
      </trkpt>
      <trkpt lat="47.29005" lon="6.22282">
        <ele>525</ele>
        <time>2000-01-01T05:44:49.000Z</time>
      </trkpt>
      <trkpt lat="47.28999" lon="6.22247">
        <ele>525</ele>
        <time>2000-01-01T05:44:59.000Z</time>
      </trkpt>
      <trkpt lat="47.28992" lon="6.22207">
        <ele>526</ele>
        <time>2000-01-01T05:45:09.000Z</time>
      </trkpt>
      <trkpt lat="47.28994" lon="6.22166">
        <ele>528</ele>
        <time>2000-01-01T05:45:19.000Z</time>
      </trkpt>
      <trkpt lat="47.28998" lon="6.22101">
        <ele>531</ele>
        <time>2000-01-01T05:45:29.000Z</time>
      </trkpt>
      <trkpt lat="47.28995" lon="6.22064">
        <ele>532</ele>
        <time>2000-01-01T05:45:39.000Z</time>
      </trkpt>
      <trkpt lat="47.28992" lon="6.22018">
        <ele>533</ele>
        <time>2000-01-01T05:45:49.000Z</time>
      </trkpt>
      <trkpt lat="47.28993" lon="6.21979">
        <ele>535</ele>
        <time>2000-01-01T05:45:59.000Z</time>
      </trkpt>
      <trkpt lat="47.28993" lon="6.21923">
        <ele>537</ele>
        <time>2000-01-01T05:46:09.000Z</time>
      </trkpt>
      <trkpt lat="47.28985" lon="6.21863">
        <ele>539</ele>
        <time>2000-01-01T05:46:19.000Z</time>
      </trkpt>
      <trkpt lat="47.28979" lon="6.2182">
        <ele>539</ele>
        <time>2000-01-01T05:46:29.000Z</time>
      </trkpt>
      <trkpt lat="47.28974" lon="6.21784">
        <ele>541</ele>
        <time>2000-01-01T05:46:39.000Z</time>
      </trkpt>
      <trkpt lat="47.28968" lon="6.21742">
        <ele>542</ele>
        <time>2000-01-01T05:46:49.000Z</time>
      </trkpt>
      <trkpt lat="47.28972" lon="6.21698">
        <ele>546</ele>
        <time>2000-01-01T05:46:59.000Z</time>
      </trkpt>
      <trkpt lat="47.28975" lon="6.2166">
        <ele>547</ele>
        <time>2000-01-01T05:47:09.000Z</time>
      </trkpt>
      <trkpt lat="47.28979" lon="6.21611">
        <ele>549</ele>
        <time>2000-01-01T05:47:19.000Z</time>
      </trkpt>
      <trkpt lat="47.28994" lon="6.21574">
        <ele>553</ele>
        <time>2000-01-01T05:47:29.000Z</time>
      </trkpt>
      <trkpt lat="47.29007" lon="6.21543">
        <ele>554</ele>
        <time>2000-01-01T05:47:39.000Z</time>
      </trkpt>
      <trkpt lat="47.29022" lon="6.21506">
        <ele>557</ele>
        <time>2000-01-01T05:47:49.000Z</time>
      </trkpt>
      <trkpt lat="47.29039" lon="6.21478">
        <ele>558</ele>
        <time>2000-01-01T05:47:59.000Z</time>
      </trkpt>
      <trkpt lat="47.2904" lon="6.21477">
        <ele>560.4</ele>
        <time>2000-01-01T05:48:09.000Z</time>
      </trkpt>
      <trkpt lat="47.29069" lon="6.21436">
        <ele>562</ele>
        <time>2000-01-01T05:48:19.000Z</time>
      </trkpt>
      <trkpt lat="47.29089" lon="6.21454">
        <ele>566</ele>
        <time>2000-01-01T05:48:29.000Z</time>
      </trkpt>
      <trkpt lat="47.29111" lon="6.21473">
        <ele>571</ele>
        <time>2000-01-01T05:48:39.000Z</time>
      </trkpt>
      <trkpt lat="47.29141" lon="6.21502">
        <ele>573</ele>
        <time>2000-01-01T05:48:49.000Z</time>
      </trkpt>
      <trkpt lat="47.2917" lon="6.21532">
        <ele>576</ele>
        <time>2000-01-01T05:48:59.000Z</time>
      </trkpt>
      <trkpt lat="47.292" lon="6.21561">
        <ele>579</ele>
        <time>2000-01-01T05:49:09.000Z</time>
      </trkpt>
      <trkpt lat="47.2922" lon="6.21581">
        <ele>580</ele>
        <time>2000-01-01T05:49:19.000Z</time>
      </trkpt>
      <trkpt lat="47.29245" lon="6.21606">
        <ele>579</ele>
        <time>2000-01-01T05:49:29.000Z</time>
      </trkpt>
      <trkpt lat="47.29259" lon="6.21587">
        <ele>578</ele>
        <time>2000-01-01T05:49:39.000Z</time>
      </trkpt>
      <trkpt lat="47.2928" lon="6.21543">
        <ele>572</ele>
        <time>2000-01-01T05:49:49.000Z</time>
      </trkpt>
      <trkpt lat="47.293" lon="6.21499">
        <ele>560</ele>
        <time>2000-01-01T05:49:59.000Z</time>
      </trkpt>
      <trkpt lat="47.29321" lon="6.21455">
        <ele>548</ele>
        <time>2000-01-01T05:50:09.000Z</time>
      </trkpt>
      <trkpt lat="47.29336" lon="6.21422">
        <ele>542</ele>
        <time>2000-01-01T05:50:19.000Z</time>
      </trkpt>
      <trkpt lat="47.29359" lon="6.21374">
        <ele>528</ele>
        <time>2000-01-01T05:50:29.000Z</time>
      </trkpt>
      <trkpt lat="47.29381" lon="6.21341">
        <ele>517</ele>
        <time>2000-01-01T05:50:39.000Z</time>
      </trkpt>
      <trkpt lat="47.29384" lon="6.21346">
        <ele>517.7</ele>
        <time>2000-01-01T05:50:49.000Z</time>
      </trkpt>
      <trkpt lat="47.29414" lon="6.21372">
        <ele>514</ele>
        <time>2000-01-01T05:50:59.000Z</time>
      </trkpt>
      <trkpt lat="47.29434" lon="6.21398">
        <ele>510</ele>
        <time>2000-01-01T05:51:09.000Z</time>
      </trkpt>
      <trkpt lat="47.29471" lon="6.21433">
        <ele>500</ele>
        <time>2000-01-01T05:51:19.000Z</time>
      </trkpt>
      <trkpt lat="47.29496" lon="6.21453">
        <ele>497</ele>
        <time>2000-01-01T05:51:29.000Z</time>
      </trkpt>
      <trkpt lat="47.29521" lon="6.21463">
        <ele>491</ele>
        <time>2000-01-01T05:51:39.000Z</time>
      </trkpt>
      <trkpt lat="47.29552" lon="6.21475">
        <ele>485</ele>
        <time>2000-01-01T05:51:49.000Z</time>
      </trkpt>
      <trkpt lat="47.29592" lon="6.21504">
        <ele>476</ele>
        <time>2000-01-01T05:51:59.000Z</time>
      </trkpt>
      <trkpt lat="47.29605" lon="6.2153">
        <ele>473</ele>
        <time>2000-01-01T05:52:09.000Z</time>
      </trkpt>
      <trkpt lat="47.29629" lon="6.21546">
        <ele>466</ele>
        <time>2000-01-01T05:52:19.000Z</time>
      </trkpt>
      <trkpt lat="47.29651" lon="6.21524">
        <ele>457</ele>
        <time>2000-01-01T05:52:29.000Z</time>
      </trkpt>
      <trkpt lat="47.2967" lon="6.21486">
        <ele>454</ele>
        <time>2000-01-01T05:52:39.000Z</time>
      </trkpt>
      <trkpt lat="47.29674" lon="6.21444">
        <ele>448</ele>
        <time>2000-01-01T05:52:49.000Z</time>
      </trkpt>
      <trkpt lat="47.29667" lon="6.21412">
        <ele>445</ele>
        <time>2000-01-01T05:52:59.000Z</time>
      </trkpt>
      <trkpt lat="47.29657" lon="6.21384">
        <ele>437</ele>
        <time>2000-01-01T05:53:09.000Z</time>
      </trkpt>
      <trkpt lat="47.29631" lon="6.21338">
        <ele>422</ele>
        <time>2000-01-01T05:53:19.000Z</time>
      </trkpt>
      <trkpt lat="47.29647" lon="6.21321">
        <ele>418</ele>
        <time>2000-01-01T05:53:29.000Z</time>
      </trkpt>
      <trkpt lat="47.29683" lon="6.21303">
        <ele>404</ele>
        <time>2000-01-01T05:53:39.000Z</time>
      </trkpt>
      <trkpt lat="47.29714" lon="6.21304">
        <ele>398</ele>
        <time>2000-01-01T05:53:49.000Z</time>
      </trkpt>
      <trkpt lat="47.29745" lon="6.21305">
        <ele>390</ele>
        <time>2000-01-01T05:53:59.000Z</time>
      </trkpt>
      <trkpt lat="47.29782" lon="6.21307">
        <ele>378</ele>
        <time>2000-01-01T05:54:09.000Z</time>
      </trkpt>
      <trkpt lat="47.29806" lon="6.21325">
        <ele>375</ele>
        <time>2000-01-01T05:54:19.000Z</time>
      </trkpt>
      <trkpt lat="47.29843" lon="6.21351">
        <ele>368</ele>
        <time>2000-01-01T05:54:29.000Z</time>
      </trkpt>
      <trkpt lat="47.29855" lon="6.21318">
        <ele>364</ele>
        <time>2000-01-01T05:54:39.000Z</time>
      </trkpt>
      <trkpt lat="47.29876" lon="6.21346">
        <ele>363</ele>
        <time>2000-01-01T05:54:49.000Z</time>
      </trkpt>
      <trkpt lat="47.29893" lon="6.21369">
        <ele>361</ele>
        <time>2000-01-01T05:54:59.000Z</time>
      </trkpt>
      <trkpt lat="47.29911" lon="6.21392">
        <ele>360</ele>
        <time>2000-01-01T05:55:09.000Z</time>
      </trkpt>
      <trkpt lat="47.29914" lon="6.21436">
        <ele>359</ele>
        <time>2000-01-01T05:55:19.000Z</time>
      </trkpt>
      <trkpt lat="47.29917" lon="6.21472">
        <ele>356</ele>
        <time>2000-01-01T05:55:29.000Z</time>
      </trkpt>
      <trkpt lat="47.2992" lon="6.21517">
        <ele>348</ele>
        <time>2000-01-01T05:55:39.000Z</time>
      </trkpt>
      <trkpt lat="47.29915" lon="6.2155">
        <ele>342</ele>
        <time>2000-01-01T05:55:49.000Z</time>
      </trkpt>
      <trkpt lat="47.29909" lon="6.21585">
        <ele>338</ele>
        <time>2000-01-01T05:55:59.000Z</time>
      </trkpt>
      <trkpt lat="47.29891" lon="6.21629">
        <ele>335</ele>
        <time>2000-01-01T05:56:09.000Z</time>
      </trkpt>
      <trkpt lat="47.29873" lon="6.21673">
        <ele>330</ele>
        <time>2000-01-01T05:56:19.000Z</time>
      </trkpt>
      <trkpt lat="47.29855" lon="6.21717">
        <ele>327</ele>
        <time>2000-01-01T05:56:29.000Z</time>
      </trkpt>
      <trkpt lat="47.29834" lon="6.2177">
        <ele>318</ele>
        <time>2000-01-01T05:56:39.000Z</time>
      </trkpt>
      <trkpt lat="47.29827" lon="6.21811">
        <ele>309</ele>
        <time>2000-01-01T05:56:49.000Z</time>
      </trkpt>
      <trkpt lat="47.29822" lon="6.21844">
        <ele>303</ele>
        <time>2000-01-01T05:56:59.000Z</time>
      </trkpt>
      <trkpt lat="47.29816" lon="6.21878">
        <ele>297</ele>
        <time>2000-01-01T05:57:09.000Z</time>
      </trkpt>
      <trkpt lat="47.29806" lon="6.21914">
        <ele>289</ele>
        <time>2000-01-01T05:57:19.000Z</time>
      </trkpt>
      <trkpt lat="47.29792" lon="6.21964">
        <ele>280</ele>
        <time>2000-01-01T05:57:29.000Z</time>
      </trkpt>
      <trkpt lat="47.29796" lon="6.2202">
        <ele>269</ele>
        <time>2000-01-01T05:57:39.000Z</time>
      </trkpt>
      <trkpt lat="47.29804" lon="6.22053">
        <ele>259</ele>
        <time>2000-01-01T05:57:49.000Z</time>
      </trkpt>
      <trkpt lat="47.29812" lon="6.22087">
        <ele>256</ele>
        <time>2000-01-01T05:57:59.000Z</time>
      </trkpt>
      <trkpt lat="47.29797" lon="6.22123">
        <ele>255</ele>
        <time>2000-01-01T05:58:09.000Z</time>
      </trkpt>
      <trkpt lat="47.29778" lon="6.2217">
        <ele>255</ele>
        <time>2000-01-01T05:58:19.000Z</time>
      </trkpt>
      <trkpt lat="47.29778" lon="6.22171">
        <ele>256</ele>
        <time>2000-01-01T05:58:29.000Z</time>
      </trkpt>
      <trkpt lat="47.29772" lon="6.22194">
        <ele>256</ele>
        <time>2000-01-01T05:58:39.000Z</time>
      </trkpt>
      <trkpt lat="47.29767" lon="6.22218">
        <ele>256</ele>
        <time>2000-01-01T05:58:49.000Z</time>
      </trkpt>
      <trkpt lat="47.29762" lon="6.22246">
        <ele>256</ele>
        <time>2000-01-01T05:58:59.000Z</time>
      </trkpt>
      <trkpt lat="47.29758" lon="6.22275">
        <ele>256</ele>
        <time>2000-01-01T05:59:09.000Z</time>
      </trkpt>
      <trkpt lat="47.29756" lon="6.22298">
        <ele>255.8</ele>
        <time>2000-01-01T05:59:19.000Z</time>
      </trkpt>
      <trkpt lat="47.29754" lon="6.22309">
        <ele>256</ele>
        <time>2000-01-01T05:59:29.000Z</time>
      </trkpt>
      <trkpt lat="47.29748" lon="6.22331">
        <ele>256</ele>
        <time>2000-01-01T05:59:39.000Z</time>
      </trkpt>
      <trkpt lat="47.29739" lon="6.22362">
        <ele>256</ele>
        <time>2000-01-01T05:59:49.000Z</time>
      </trkpt>
      <trkpt lat="47.29733" lon="6.22385">
        <ele>255.6</ele>
        <time>2000-01-01T05:59:59.000Z</time>
      </trkpt>
      <trkpt lat="47.29722" lon="6.22421">
        <ele>256</ele>
        <time>2000-01-01T06:00:09.000Z</time>
      </trkpt>
      <trkpt lat="47.29717" lon="6.22442">
        <ele>256</ele>
        <time>2000-01-01T06:00:19.000Z</time>
      </trkpt>
      <trkpt lat="47.29709" lon="6.22463">
        <ele>256</ele>
        <time>2000-01-01T06:00:29.000Z</time>
      </trkpt>
      <trkpt lat="47.29699" lon="6.22487">
        <ele>256</ele>
        <time>2000-01-01T06:00:39.000Z</time>
      </trkpt>
      <trkpt lat="47.29687" lon="6.22514">
        <ele>256</ele>
        <time>2000-01-01T06:00:49.000Z</time>
      </trkpt>
      <trkpt lat="47.29678" lon="6.22532">
        <ele>255.9</ele>
        <time>2000-01-01T06:00:59.000Z</time>
      </trkpt>
      <trkpt lat="47.29668" lon="6.22556">
        <ele>256</ele>
        <time>2000-01-01T06:01:09.000Z</time>
      </trkpt>
      <trkpt lat="47.29658" lon="6.2258">
        <ele>256</ele>
        <time>2000-01-01T06:01:19.000Z</time>
      </trkpt>
      <trkpt lat="47.29646" lon="6.22614">
        <ele>256</ele>
        <time>2000-01-01T06:01:29.000Z</time>
      </trkpt>
      <trkpt lat="47.29639" lon="6.22633">
        <ele>257</ele>
        <time>2000-01-01T06:01:39.000Z</time>
      </trkpt>
      <trkpt lat="47.29631" lon="6.22658">
        <ele>257</ele>
        <time>2000-01-01T06:01:49.000Z</time>
      </trkpt>
      <trkpt lat="47.29624" lon="6.22678">
        <ele>256.6</ele>
        <time>2000-01-01T06:01:59.000Z</time>
      </trkpt>
      <trkpt lat="47.29619" lon="6.22689">
        <ele>257</ele>
        <time>2000-01-01T06:02:09.000Z</time>
      </trkpt>
      <trkpt lat="47.29601" lon="6.22715">
        <ele>259</ele>
        <time>2000-01-01T06:02:19.000Z</time>
      </trkpt>
      <trkpt lat="47.29579" lon="6.22746">
        <ele>263</ele>
        <time>2000-01-01T06:02:29.000Z</time>
      </trkpt>
      <trkpt lat="47.29559" lon="6.22784">
        <ele>263</ele>
        <time>2000-01-01T06:02:39.000Z</time>
      </trkpt>
      <trkpt lat="47.29548" lon="6.22825">
        <ele>263</ele>
        <time>2000-01-01T06:02:49.000Z</time>
      </trkpt>
      <trkpt lat="47.29537" lon="6.22861">
        <ele>264</ele>
        <time>2000-01-01T06:02:59.000Z</time>
      </trkpt>
      <trkpt lat="47.29514" lon="6.22907">
        <ele>264</ele>
        <time>2000-01-01T06:03:09.000Z</time>
      </trkpt>
      <trkpt lat="47.2951" lon="6.22918">
        <ele>261.8</ele>
        <time>2000-01-01T06:03:19.000Z</time>
      </trkpt>
      <trkpt lat="47.29504" lon="6.22933">
        <ele>263</ele>
        <time>2000-01-01T06:03:29.000Z</time>
      </trkpt>
      <trkpt lat="47.29497" lon="6.22949">
        <ele>263.9</ele>
        <time>2000-01-01T06:03:39.000Z</time>
      </trkpt>
      <trkpt lat="47.29492" lon="6.2296">
        <ele>263</ele>
        <time>2000-01-01T06:03:49.000Z</time>
      </trkpt>
      <trkpt lat="47.29484" lon="6.22979">
        <ele>262.2</ele>
        <time>2000-01-01T06:03:59.000Z</time>
      </trkpt>
      <trkpt lat="47.29478" lon="6.22998">
        <ele>263</ele>
        <time>2000-01-01T06:04:09.000Z</time>
      </trkpt>
      <trkpt lat="47.29476" lon="6.23018">
        <ele>262.4</ele>
        <time>2000-01-01T06:04:19.000Z</time>
      </trkpt>
      <trkpt lat="47.29477" lon="6.23033">
        <ele>263</ele>
        <time>2000-01-01T06:04:29.000Z</time>
      </trkpt>
      <trkpt lat="47.29482" lon="6.23058">
        <ele>261.3</ele>
        <time>2000-01-01T06:04:39.000Z</time>
      </trkpt>
      <trkpt lat="47.29485" lon="6.23076">
        <ele>261</ele>
        <time>2000-01-01T06:04:49.000Z</time>
      </trkpt>
      <trkpt lat="47.29488" lon="6.23094">
        <ele>261.6</ele>
        <time>2000-01-01T06:04:59.000Z</time>
      </trkpt>
      <trkpt lat="47.29492" lon="6.23112">
        <ele>260</ele>
        <time>2000-01-01T06:05:09.000Z</time>
      </trkpt>
      <trkpt lat="47.29497" lon="6.23133">
        <ele>261.8</ele>
        <time>2000-01-01T06:05:19.000Z</time>
      </trkpt>
      <trkpt lat="47.29501" lon="6.23154">
        <ele>260</ele>
        <time>2000-01-01T06:05:29.000Z</time>
      </trkpt>
      <trkpt lat="47.295" lon="6.2316">
        <ele>260.2</ele>
        <time>2000-01-01T06:05:39.000Z</time>
      </trkpt>
      <trkpt lat="47.29497" lon="6.23167">
        <ele>261</ele>
        <time>2000-01-01T06:05:49.000Z</time>
      </trkpt>
      <trkpt lat="47.29496" lon="6.2318">
        <ele>260</ele>
        <time>2000-01-01T06:05:59.000Z</time>
      </trkpt>
      <trkpt lat="47.29498" lon="6.23193">
        <ele>260.6</ele>
        <time>2000-01-01T06:06:09.000Z</time>
      </trkpt>
      <trkpt lat="47.29504" lon="6.23214">
        <ele>260</ele>
        <time>2000-01-01T06:06:19.000Z</time>
      </trkpt>
      <trkpt lat="47.29507" lon="6.23228">
        <ele>259.8</ele>
        <time>2000-01-01T06:06:29.000Z</time>
      </trkpt>
      <trkpt lat="47.29508" lon="6.23239">
        <ele>259.2</ele>
        <time>2000-01-01T06:06:39.000Z</time>
      </trkpt>
      <trkpt lat="47.29509" lon="6.23255">
        <ele>260</ele>
        <time>2000-01-01T06:06:49.000Z</time>
      </trkpt>
      <trkpt lat="47.29512" lon="6.23271">
        <ele>260.7</ele>
        <time>2000-01-01T06:06:59.000Z</time>
      </trkpt>
      <trkpt lat="47.29518" lon="6.23286">
        <ele>259</ele>
        <time>2000-01-01T06:07:09.000Z</time>
      </trkpt>
      <trkpt lat="47.29525" lon="6.23306">
        <ele>261.2</ele>
        <time>2000-01-01T06:07:19.000Z</time>
      </trkpt>
      <trkpt lat="47.29531" lon="6.23333">
        <ele>259</ele>
        <time>2000-01-01T06:07:29.000Z</time>
      </trkpt>
      <trkpt lat="47.29533" lon="6.23346">
        <ele>262.8</ele>
        <time>2000-01-01T06:07:39.000Z</time>
      </trkpt>
      <trkpt lat="47.29538" lon="6.23359">
        <ele>258</ele>
        <time>2000-01-01T06:07:49.000Z</time>
      </trkpt>
      <trkpt lat="47.29551" lon="6.23378">
        <ele>258</ele>
        <time>2000-01-01T06:07:59.000Z</time>
      </trkpt>
      <trkpt lat="47.2956" lon="6.23385">
        <ele>263.1</ele>
        <time>2000-01-01T06:08:09.000Z</time>
      </trkpt>
      <trkpt lat="47.29567" lon="6.23396">
        <ele>262</ele>
        <time>2000-01-01T06:08:19.000Z</time>
      </trkpt>
      <trkpt lat="47.29576" lon="6.23421">
        <ele>261</ele>
        <time>2000-01-01T06:08:29.000Z</time>
      </trkpt>
      <trkpt lat="47.29581" lon="6.23437">
        <ele>262.4</ele>
        <time>2000-01-01T06:08:39.000Z</time>
      </trkpt>
      <trkpt lat="47.2959" lon="6.23462">
        <ele>261</ele>
        <time>2000-01-01T06:08:49.000Z</time>
      </trkpt>
      <trkpt lat="47.29593" lon="6.23469">
        <ele>265.6</ele>
        <time>2000-01-01T06:08:59.000Z</time>
      </trkpt>
      <trkpt lat="47.29599" lon="6.2348">
        <ele>266.9</ele>
        <time>2000-01-01T06:09:09.000Z</time>
      </trkpt>
      <trkpt lat="47.29607" lon="6.23489">
        <ele>261</ele>
        <time>2000-01-01T06:09:19.000Z</time>
      </trkpt>
      <trkpt lat="47.29613" lon="6.23496">
        <ele>261.5</ele>
        <time>2000-01-01T06:09:29.000Z</time>
      </trkpt>
      <trkpt lat="47.29619" lon="6.23506">
        <ele>263</ele>
        <time>2000-01-01T06:09:39.000Z</time>
      </trkpt>
      <trkpt lat="47.29633" lon="6.23528">
        <ele>261</ele>
        <time>2000-01-01T06:09:49.000Z</time>
      </trkpt>
      <trkpt lat="47.29647" lon="6.23552">
        <ele>264</ele>
        <time>2000-01-01T06:09:59.000Z</time>
      </trkpt>
      <trkpt lat="47.29666" lon="6.2358">
        <ele>262</ele>
        <time>2000-01-01T06:10:09.000Z</time>
      </trkpt>
      <trkpt lat="47.29681" lon="6.23597">
        <ele>263</ele>
        <time>2000-01-01T06:10:19.000Z</time>
      </trkpt>
      <trkpt lat="47.29697" lon="6.23614">
        <ele>260</ele>
        <time>2000-01-01T06:10:29.000Z</time>
      </trkpt>
      <trkpt lat="47.29712" lon="6.23627">
        <ele>263.1</ele>
        <time>2000-01-01T06:10:39.000Z</time>
      </trkpt>
      <trkpt lat="47.29741" lon="6.23658">
        <ele>264</ele>
        <time>2000-01-01T06:10:49.000Z</time>
      </trkpt>
      <trkpt lat="47.29763" lon="6.23691">
        <ele>265</ele>
        <time>2000-01-01T06:10:59.000Z</time>
      </trkpt>
      <trkpt lat="47.29794" lon="6.23728">
        <ele>267</ele>
        <time>2000-01-01T06:11:09.000Z</time>
      </trkpt>
      <trkpt lat="47.29818" lon="6.23742">
        <ele>267</ele>
        <time>2000-01-01T06:11:19.000Z</time>
      </trkpt>
      <trkpt lat="47.29826" lon="6.2374">
        <ele>268.6</ele>
        <time>2000-01-01T06:11:29.000Z</time>
      </trkpt>
      <trkpt lat="47.2982" lon="6.23706">
        <ele>265</ele>
        <time>2000-01-01T06:11:39.000Z</time>
      </trkpt>
      <trkpt lat="47.29828" lon="6.23657">
        <ele>254</ele>
        <time>2000-01-01T06:11:49.000Z</time>
      </trkpt>
      <trkpt lat="47.29836" lon="6.23609">
        <ele>254</ele>
        <time>2000-01-01T06:11:59.000Z</time>
      </trkpt>
      <trkpt lat="47.29843" lon="6.23571">
        <ele>257</ele>
        <time>2000-01-01T06:12:09.000Z</time>
      </trkpt>
      <trkpt lat="47.29852" lon="6.23517">
        <ele>265</ele>
        <time>2000-01-01T06:12:19.000Z</time>
      </trkpt>
      <trkpt lat="47.29861" lon="6.23478">
        <ele>266</ele>
        <time>2000-01-01T06:12:29.000Z</time>
      </trkpt>
      <trkpt lat="47.29875" lon="6.23415">
        <ele>268</ele>
        <time>2000-01-01T06:12:39.000Z</time>
      </trkpt>
      <trkpt lat="47.29887" lon="6.23409">
        <ele>268.5</ele>
        <time>2000-01-01T06:12:49.000Z</time>
      </trkpt>
      <trkpt lat="47.29882" lon="6.23397">
        <ele>263</ele>
        <time>2000-01-01T06:12:59.000Z</time>
      </trkpt>
      <trkpt lat="47.29872" lon="6.23397">
        <ele>269</ele>
        <time>2000-01-01T06:13:09.000Z</time>
      </trkpt>
      <trkpt lat="47.29871" lon="6.23408">
        <ele>268.4</ele>
        <time>2000-01-01T06:13:19.000Z</time>
      </trkpt>
      <trkpt lat="47.2981" lon="6.23429">
        <ele>261</ele>
        <time>2000-01-01T06:13:29.000Z</time>
      </trkpt>
      <trkpt lat="47.29797" lon="6.23424">
        <ele>259.5</ele>
        <time>2000-01-01T06:13:39.000Z</time>
      </trkpt>
      <trkpt lat="47.29767" lon="6.23378">
        <ele>261</ele>
        <time>2000-01-01T06:13:49.000Z</time>
      </trkpt>
      <trkpt lat="47.29751" lon="6.23346">
        <ele>261</ele>
        <time>2000-01-01T06:13:59.000Z</time>
      </trkpt>
      <trkpt lat="47.29727" lon="6.23298">
        <ele>260</ele>
        <time>2000-01-01T06:14:09.000Z</time>
      </trkpt>
      <trkpt lat="47.29697" lon="6.23321">
        <ele>258</ele>
        <time>2000-01-01T06:14:19.000Z</time>
      </trkpt>
      <trkpt lat="47.2968" lon="6.23323">
        <ele>258</ele>
        <time>2000-01-01T06:14:29.000Z</time>
      </trkpt>
      <trkpt lat="47.29644" lon="6.23349">
        <ele>257</ele>
        <time>2000-01-01T06:14:39.000Z</time>
      </trkpt>
      <trkpt lat="47.29637" lon="6.23345">
        <ele>256.5</ele>
        <time>2000-01-01T06:14:49.000Z</time>
      </trkpt>
      <trkpt lat="47.29612" lon="6.23288">
        <ele>257</ele>
        <time>2000-01-01T06:14:59.000Z</time>
      </trkpt>
      <trkpt lat="47.29598" lon="6.23232">
        <ele>256</ele>
        <time>2000-01-01T06:15:09.000Z</time>
      </trkpt>
      <trkpt lat="47.29592" lon="6.23194">
        <ele>256</ele>
        <time>2000-01-01T06:15:19.000Z</time>
      </trkpt>
      <trkpt lat="47.29597" lon="6.23144">
        <ele>255</ele>
        <time>2000-01-01T06:15:29.000Z</time>
      </trkpt>
      <trkpt lat="47.29598" lon="6.23108">
        <ele>254</ele>
        <time>2000-01-01T06:15:39.000Z</time>
      </trkpt>
      <trkpt lat="47.296" lon="6.23068">
        <ele>254</ele>
        <time>2000-01-01T06:15:49.000Z</time>
      </trkpt>
      <trkpt lat="47.29604" lon="6.23032">
        <ele>254</ele>
        <time>2000-01-01T06:15:59.000Z</time>
      </trkpt>
      <trkpt lat="47.29609" lon="6.22991">
        <ele>254</ele>
        <time>2000-01-01T06:16:09.000Z</time>
      </trkpt>
      <trkpt lat="47.29616" lon="6.22957">
        <ele>256</ele>
        <time>2000-01-01T06:16:19.000Z</time>
      </trkpt>
      <trkpt lat="47.29625" lon="6.22917">
        <ele>256</ele>
        <time>2000-01-01T06:16:29.000Z</time>
      </trkpt>
      <trkpt lat="47.29646" lon="6.22873">
        <ele>255</ele>
        <time>2000-01-01T06:16:39.000Z</time>
      </trkpt>
      <trkpt lat="47.29666" lon="6.22828">
        <ele>255</ele>
        <time>2000-01-01T06:16:49.000Z</time>
      </trkpt>
      <trkpt lat="47.29687" lon="6.22784">
        <ele>255</ele>
        <time>2000-01-01T06:16:59.000Z</time>
      </trkpt>
      <trkpt lat="47.29703" lon="6.2275">
        <ele>255</ele>
        <time>2000-01-01T06:17:09.000Z</time>
      </trkpt>
      <trkpt lat="47.29728" lon="6.22696">
        <ele>256</ele>
        <time>2000-01-01T06:17:19.000Z</time>
      </trkpt>
      <trkpt lat="47.29743" lon="6.22657">
        <ele>255</ele>
        <time>2000-01-01T06:17:29.000Z</time>
      </trkpt>
      <trkpt lat="47.29759" lon="6.22617">
        <ele>255</ele>
        <time>2000-01-01T06:17:39.000Z</time>
      </trkpt>
      <trkpt lat="47.29775" lon="6.22575">
        <ele>254</ele>
        <time>2000-01-01T06:17:49.000Z</time>
      </trkpt>
      <trkpt lat="47.29789" lon="6.2252">
        <ele>254</ele>
        <time>2000-01-01T06:17:59.000Z</time>
      </trkpt>
      <trkpt lat="47.29804" lon="6.22466">
        <ele>254</ele>
        <time>2000-01-01T06:18:09.000Z</time>
      </trkpt>
      <trkpt lat="47.29818" lon="6.22411">
        <ele>255</ele>
        <time>2000-01-01T06:18:19.000Z</time>
      </trkpt>
      <trkpt lat="47.29833" lon="6.22356">
        <ele>255</ele>
        <time>2000-01-01T06:18:29.000Z</time>
      </trkpt>
      <trkpt lat="47.29847" lon="6.22302">
        <ele>256</ele>
        <time>2000-01-01T06:18:39.000Z</time>
      </trkpt>
      <trkpt lat="47.29862" lon="6.22247">
        <ele>256</ele>
        <time>2000-01-01T06:18:49.000Z</time>
      </trkpt>
      <trkpt lat="47.29872" lon="6.22209">
        <ele>255</ele>
        <time>2000-01-01T06:18:59.000Z</time>
      </trkpt>
      <trkpt lat="47.29887" lon="6.22151">
        <ele>255</ele>
        <time>2000-01-01T06:19:09.000Z</time>
      </trkpt>
      <trkpt lat="47.29911" lon="6.22114">
        <ele>255</ele>
        <time>2000-01-01T06:19:19.000Z</time>
      </trkpt>
      <trkpt lat="47.29934" lon="6.22077">
        <ele>256</ele>
        <time>2000-01-01T06:19:29.000Z</time>
      </trkpt>
      <trkpt lat="47.29958" lon="6.22039">
        <ele>256</ele>
        <time>2000-01-01T06:19:39.000Z</time>
      </trkpt>
      <trkpt lat="47.29984" lon="6.21998">
        <ele>256</ele>
        <time>2000-01-01T06:19:49.000Z</time>
      </trkpt>
      <trkpt lat="47.3001" lon="6.21954">
        <ele>255</ele>
        <time>2000-01-01T06:19:59.000Z</time>
      </trkpt>
      <trkpt lat="47.30036" lon="6.2191">
        <ele>255</ele>
        <time>2000-01-01T06:20:09.000Z</time>
      </trkpt>
      <trkpt lat="47.30062" lon="6.21866">
        <ele>255</ele>
        <time>2000-01-01T06:20:19.000Z</time>
      </trkpt>
      <trkpt lat="47.30088" lon="6.21823">
        <ele>255</ele>
        <time>2000-01-01T06:20:29.000Z</time>
      </trkpt>
      <trkpt lat="47.30114" lon="6.21779">
        <ele>255</ele>
        <time>2000-01-01T06:20:39.000Z</time>
      </trkpt>
      <trkpt lat="47.3014" lon="6.21735">
        <ele>255</ele>
        <time>2000-01-01T06:20:49.000Z</time>
      </trkpt>
      <trkpt lat="47.30156" lon="6.21708">
        <ele>255</ele>
        <time>2000-01-01T06:20:59.000Z</time>
      </trkpt>
      <trkpt lat="47.30175" lon="6.21676">
        <ele>254</ele>
        <time>2000-01-01T06:21:09.000Z</time>
      </trkpt>
      <trkpt lat="47.30199" lon="6.21644">
        <ele>254</ele>
        <time>2000-01-01T06:21:19.000Z</time>
      </trkpt>
      <trkpt lat="47.30211" lon="6.21626">
        <ele>257.9</ele>
        <time>2000-01-01T06:21:29.000Z</time>
      </trkpt>
      <trkpt lat="47.30213" lon="6.21624">
        <ele>255</ele>
        <time>2000-01-01T06:21:39.000Z</time>
      </trkpt>
      <trkpt lat="47.30222" lon="6.21612">
        <ele>256.2</ele>
        <time>2000-01-01T06:21:49.000Z</time>
      </trkpt>
      <trkpt lat="47.3023" lon="6.21603">
        <ele>254</ele>
        <time>2000-01-01T06:21:59.000Z</time>
      </trkpt>
      <trkpt lat="47.30239" lon="6.2159">
        <ele>257.6</ele>
        <time>2000-01-01T06:22:09.000Z</time>
      </trkpt>
      <trkpt lat="47.30249" lon="6.21576">
        <ele>253</ele>
        <time>2000-01-01T06:22:19.000Z</time>
      </trkpt>
      <trkpt lat="47.30259" lon="6.21557">
        <ele>257.7</ele>
        <time>2000-01-01T06:22:29.000Z</time>
      </trkpt>
      <trkpt lat="47.3027" lon="6.21533">
        <ele>253</ele>
        <time>2000-01-01T06:22:39.000Z</time>
      </trkpt>
      <trkpt lat="47.30277" lon="6.21515">
        <ele>257.6</ele>
        <time>2000-01-01T06:22:49.000Z</time>
      </trkpt>
      <trkpt lat="47.30285" lon="6.21498">
        <ele>253</ele>
        <time>2000-01-01T06:22:59.000Z</time>
      </trkpt>
      <trkpt lat="47.30294" lon="6.21483">
        <ele>257.3</ele>
        <time>2000-01-01T06:23:09.000Z</time>
      </trkpt>
      <trkpt lat="47.30303" lon="6.21469">
        <ele>253</ele>
        <time>2000-01-01T06:23:19.000Z</time>
      </trkpt>
      <trkpt lat="47.30313" lon="6.21457">
        <ele>257.6</ele>
        <time>2000-01-01T06:23:29.000Z</time>
      </trkpt>
      <trkpt lat="47.30319" lon="6.21446">
        <ele>254</ele>
        <time>2000-01-01T06:23:39.000Z</time>
      </trkpt>
      <trkpt lat="47.30324" lon="6.21434">
        <ele>257.6</ele>
        <time>2000-01-01T06:23:49.000Z</time>
      </trkpt>
      <trkpt lat="47.30332" lon="6.21414">
        <ele>253</ele>
        <time>2000-01-01T06:23:59.000Z</time>
      </trkpt>
      <trkpt lat="47.30338" lon="6.21385">
        <ele>253</ele>
        <time>2000-01-01T06:24:09.000Z</time>
      </trkpt>
      <trkpt lat="47.30341" lon="6.21368">
        <ele>256.9</ele>
        <time>2000-01-01T06:24:19.000Z</time>
      </trkpt>
      <trkpt lat="47.30344" lon="6.21345">
        <ele>253</ele>
        <time>2000-01-01T06:24:29.000Z</time>
      </trkpt>
      <trkpt lat="47.30346" lon="6.21322">
        <ele>257.5</ele>
        <time>2000-01-01T06:24:39.000Z</time>
      </trkpt>
      <trkpt lat="47.30348" lon="6.21306">
        <ele>254</ele>
        <time>2000-01-01T06:24:49.000Z</time>
      </trkpt>
      <trkpt lat="47.30352" lon="6.21287">
        <ele>257.8</ele>
        <time>2000-01-01T06:24:59.000Z</time>
      </trkpt>
      <trkpt lat="47.30355" lon="6.21271">
        <ele>254</ele>
        <time>2000-01-01T06:25:09.000Z</time>
      </trkpt>
      <trkpt lat="47.30361" lon="6.21246">
        <ele>256.7</ele>
        <time>2000-01-01T06:25:19.000Z</time>
      </trkpt>
      <trkpt lat="47.30368" lon="6.21217">
        <ele>254</ele>
        <time>2000-01-01T06:25:29.000Z</time>
      </trkpt>
      <trkpt lat="47.30376" lon="6.21176">
        <ele>254</ele>
        <time>2000-01-01T06:25:39.000Z</time>
      </trkpt>
      <trkpt lat="47.30385" lon="6.21131">
        <ele>253</ele>
        <time>2000-01-01T06:25:49.000Z</time>
      </trkpt>
      <trkpt lat="47.3039" lon="6.21103">
        <ele>253</ele>
        <time>2000-01-01T06:25:59.000Z</time>
      </trkpt>
      <trkpt lat="47.30391" lon="6.2109">
        <ele>256.1</ele>
        <time>2000-01-01T06:26:09.000Z</time>
      </trkpt>
      <trkpt lat="47.30393" lon="6.2106">
        <ele>255</ele>
        <time>2000-01-01T06:26:19.000Z</time>
      </trkpt>
      <trkpt lat="47.30394" lon="6.21036">
        <ele>257.2</ele>
        <time>2000-01-01T06:26:29.000Z</time>
      </trkpt>
      <trkpt lat="47.30393" lon="6.2101">
        <ele>255</ele>
        <time>2000-01-01T06:26:39.000Z</time>
      </trkpt>
      <trkpt lat="47.30391" lon="6.20986">
        <ele>256.5</ele>
        <time>2000-01-01T06:26:49.000Z</time>
      </trkpt>
      <trkpt lat="47.30389" lon="6.20958">
        <ele>255</ele>
        <time>2000-01-01T06:26:59.000Z</time>
      </trkpt>
      <trkpt lat="47.30385" lon="6.20932">
        <ele>258.2</ele>
        <time>2000-01-01T06:27:09.000Z</time>
      </trkpt>
      <trkpt lat="47.30382" lon="6.20912">
        <ele>256</ele>
        <time>2000-01-01T06:27:19.000Z</time>
      </trkpt>
      <trkpt lat="47.30377" lon="6.2089">
        <ele>260.2</ele>
        <time>2000-01-01T06:27:29.000Z</time>
      </trkpt>
      <trkpt lat="47.30372" lon="6.20873">
        <ele>256</ele>
        <time>2000-01-01T06:27:39.000Z</time>
      </trkpt>
      <trkpt lat="47.30365" lon="6.20853">
        <ele>257.7</ele>
        <time>2000-01-01T06:27:49.000Z</time>
      </trkpt>
      <trkpt lat="47.30359" lon="6.20838">
        <ele>257</ele>
        <time>2000-01-01T06:27:59.000Z</time>
      </trkpt>
      <trkpt lat="47.30351" lon="6.20816">
        <ele>260.2</ele>
        <time>2000-01-01T06:28:09.000Z</time>
      </trkpt>
      <trkpt lat="47.3034" lon="6.20793">
        <ele>258</ele>
        <time>2000-01-01T06:28:19.000Z</time>
      </trkpt>
      <trkpt lat="47.3033" lon="6.20773">
        <ele>259.7</ele>
        <time>2000-01-01T06:28:29.000Z</time>
      </trkpt>
      <trkpt lat="47.30317" lon="6.20755">
        <ele>259</ele>
        <time>2000-01-01T06:28:39.000Z</time>
      </trkpt>
      <trkpt lat="47.30306" lon="6.20744">
        <ele>260.7</ele>
        <time>2000-01-01T06:28:49.000Z</time>
      </trkpt>
      <trkpt lat="47.30293" lon="6.20733">
        <ele>260</ele>
        <time>2000-01-01T06:28:59.000Z</time>
      </trkpt>
      <trkpt lat="47.30281" lon="6.20722">
        <ele>261.3</ele>
        <time>2000-01-01T06:29:09.000Z</time>
      </trkpt>
      <trkpt lat="47.30271" lon="6.20713">
        <ele>261</ele>
        <time>2000-01-01T06:29:19.000Z</time>
      </trkpt>
      <trkpt lat="47.30261" lon="6.20704">
        <ele>262.2</ele>
        <time>2000-01-01T06:29:29.000Z</time>
      </trkpt>
      <trkpt lat="47.3025" lon="6.20695">
        <ele>262</ele>
        <time>2000-01-01T06:29:39.000Z</time>
      </trkpt>
      <trkpt lat="47.30234" lon="6.20682">
        <ele>263.3</ele>
        <time>2000-01-01T06:29:49.000Z</time>
      </trkpt>
      <trkpt lat="47.30223" lon="6.20672">
        <ele>262</ele>
        <time>2000-01-01T06:29:59.000Z</time>
      </trkpt>
      <trkpt lat="47.3021" lon="6.20662">
        <ele>263.6</ele>
        <time>2000-01-01T06:30:09.000Z</time>
      </trkpt>
      <trkpt lat="47.30194" lon="6.2065">
        <ele>262</ele>
        <time>2000-01-01T06:30:19.000Z</time>
      </trkpt>
      <trkpt lat="47.30184" lon="6.20644">
        <ele>261.6</ele>
        <time>2000-01-01T06:30:29.000Z</time>
      </trkpt>
      <trkpt lat="47.3017" lon="6.20638">
        <ele>260</ele>
        <time>2000-01-01T06:30:39.000Z</time>
      </trkpt>
      <trkpt lat="47.30154" lon="6.20632">
        <ele>258</ele>
        <time>2000-01-01T06:30:49.000Z</time>
      </trkpt>
      <trkpt lat="47.30141" lon="6.20627">
        <ele>258</ele>
        <time>2000-01-01T06:30:59.000Z</time>
      </trkpt>
      <trkpt lat="47.30116" lon="6.20617">
        <ele>256</ele>
        <time>2000-01-01T06:31:09.000Z</time>
      </trkpt>
      <trkpt lat="47.30094" lon="6.20607">
        <ele>256</ele>
        <time>2000-01-01T06:31:19.000Z</time>
      </trkpt>
      <trkpt lat="47.30065" lon="6.20594">
        <ele>256</ele>
        <time>2000-01-01T06:31:29.000Z</time>
      </trkpt>
      <trkpt lat="47.30044" lon="6.20585">
        <ele>256</ele>
        <time>2000-01-01T06:31:39.000Z</time>
      </trkpt>
      <trkpt lat="47.3003" lon="6.20579">
        <ele>256.9</ele>
        <time>2000-01-01T06:31:49.000Z</time>
      </trkpt>
      <trkpt lat="47.30019" lon="6.20575">
        <ele>256</ele>
        <time>2000-01-01T06:31:59.000Z</time>
      </trkpt>
      <trkpt lat="47.30002" lon="6.20568">
        <ele>256.4</ele>
        <time>2000-01-01T06:32:09.000Z</time>
      </trkpt>
      <trkpt lat="47.29963" lon="6.20551">
        <ele>257</ele>
        <time>2000-01-01T06:32:19.000Z</time>
      </trkpt>
      <trkpt lat="47.29923" lon="6.20534">
        <ele>257</ele>
        <time>2000-01-01T06:32:29.000Z</time>
      </trkpt>
      <trkpt lat="47.29884" lon="6.20518">
        <ele>258</ele>
        <time>2000-01-01T06:32:39.000Z</time>
      </trkpt>
      <trkpt lat="47.29857" lon="6.20506">
        <ele>258</ele>
        <time>2000-01-01T06:32:49.000Z</time>
      </trkpt>
      <trkpt lat="47.29816" lon="6.20489">
        <ele>259</ele>
        <time>2000-01-01T06:32:59.000Z</time>
      </trkpt>
      <trkpt lat="47.2978" lon="6.20479">
        <ele>259</ele>
        <time>2000-01-01T06:33:09.000Z</time>
      </trkpt>
      <trkpt lat="47.29745" lon="6.20469">
        <ele>259</ele>
        <time>2000-01-01T06:33:19.000Z</time>
      </trkpt>
      <trkpt lat="47.2971" lon="6.20459">
        <ele>257</ele>
        <time>2000-01-01T06:33:29.000Z</time>
      </trkpt>
      <trkpt lat="47.29683" lon="6.20452">
        <ele>256</ele>
        <time>2000-01-01T06:33:39.000Z</time>
      </trkpt>
      <trkpt lat="47.29647" lon="6.20442">
        <ele>255</ele>
        <time>2000-01-01T06:33:49.000Z</time>
      </trkpt>
      <trkpt lat="47.29613" lon="6.20433">
        <ele>255</ele>
        <time>2000-01-01T06:33:59.000Z</time>
      </trkpt>
      <trkpt lat="47.29578" lon="6.20425">
        <ele>255</ele>
        <time>2000-01-01T06:34:09.000Z</time>
      </trkpt>
      <trkpt lat="47.29544" lon="6.20416">
        <ele>255</ele>
        <time>2000-01-01T06:34:19.000Z</time>
      </trkpt>
      <trkpt lat="47.29502" lon="6.20406">
        <ele>255</ele>
        <time>2000-01-01T06:34:29.000Z</time>
      </trkpt>
      <trkpt lat="47.29468" lon="6.20394">
        <ele>255</ele>
        <time>2000-01-01T06:34:39.000Z</time>
      </trkpt>
      <trkpt lat="47.29434" lon="6.20381">
        <ele>255</ele>
        <time>2000-01-01T06:34:49.000Z</time>
      </trkpt>
      <trkpt lat="47.294" lon="6.20369">
        <ele>254</ele>
        <time>2000-01-01T06:34:59.000Z</time>
      </trkpt>
      <trkpt lat="47.29359" lon="6.20354">
        <ele>254</ele>
        <time>2000-01-01T06:35:09.000Z</time>
      </trkpt>
      <trkpt lat="47.29329" lon="6.20335">
        <ele>254</ele>
        <time>2000-01-01T06:35:19.000Z</time>
      </trkpt>
      <trkpt lat="47.29299" lon="6.20317">
        <ele>254</ele>
        <time>2000-01-01T06:35:29.000Z</time>
      </trkpt>
      <trkpt lat="47.29277" lon="6.20303">
        <ele>255</ele>
        <time>2000-01-01T06:35:39.000Z</time>
      </trkpt>
      <trkpt lat="47.29255" lon="6.20289">
        <ele>256</ele>
        <time>2000-01-01T06:35:49.000Z</time>
      </trkpt>
      <trkpt lat="47.29279" lon="6.20259">
        <ele>257</ele>
        <time>2000-01-01T06:35:59.000Z</time>
      </trkpt>
      <trkpt lat="47.29304" lon="6.20229">
        <ele>257</ele>
        <time>2000-01-01T06:36:09.000Z</time>
      </trkpt>
      <trkpt lat="47.29335" lon="6.20191">
        <ele>257</ele>
        <time>2000-01-01T06:36:19.000Z</time>
      </trkpt>
      <trkpt lat="47.29352" lon="6.20165">
        <ele>258</ele>
        <time>2000-01-01T06:36:29.000Z</time>
      </trkpt>
      <trkpt lat="47.29371" lon="6.20135">
        <ele>258</ele>
        <time>2000-01-01T06:36:39.000Z</time>
      </trkpt>
      <trkpt lat="47.29381" lon="6.20108">
        <ele>258</ele>
        <time>2000-01-01T06:36:49.000Z</time>
      </trkpt>
      <trkpt lat="47.29405" lon="6.2012">
        <ele>258</ele>
        <time>2000-01-01T06:36:59.000Z</time>
      </trkpt>
      <trkpt lat="47.29433" lon="6.20135">
        <ele>258</ele>
        <time>2000-01-01T06:37:09.000Z</time>
      </trkpt>
      <trkpt lat="47.29457" lon="6.20123">
        <ele>259</ele>
        <time>2000-01-01T06:37:19.000Z</time>
      </trkpt>
      <trkpt lat="47.29467" lon="6.20082">
        <ele>260</ele>
        <time>2000-01-01T06:37:29.000Z</time>
      </trkpt>
      <trkpt lat="47.29476" lon="6.20048">
        <ele>261</ele>
        <time>2000-01-01T06:37:39.000Z</time>
      </trkpt>
      <trkpt lat="47.29486" lon="6.20009">
        <ele>263</ele>
        <time>2000-01-01T06:37:49.000Z</time>
      </trkpt>
      <trkpt lat="47.29514" lon="6.19977">
        <ele>267</ele>
        <time>2000-01-01T06:37:59.000Z</time>
      </trkpt>
      <trkpt lat="47.29517" lon="6.19969">
        <ele>267.5</ele>
        <time>2000-01-01T06:38:09.000Z</time>
      </trkpt>
      <trkpt lat="47.29523" lon="6.19956">
        <ele>267.9</ele>
        <time>2000-01-01T06:38:19.000Z</time>
      </trkpt>
      <trkpt lat="47.2953" lon="6.19938">
        <ele>269</ele>
        <time>2000-01-01T06:38:29.000Z</time>
      </trkpt>
      <trkpt lat="47.29535" lon="6.19925">
        <ele>270</ele>
        <time>2000-01-01T06:38:39.000Z</time>
      </trkpt>
      <trkpt lat="47.2954" lon="6.19912">
        <ele>269</ele>
        <time>2000-01-01T06:38:49.000Z</time>
      </trkpt>
      <trkpt lat="47.29543" lon="6.19901">
        <ele>271.9</ele>
        <time>2000-01-01T06:38:59.000Z</time>
      </trkpt>
      <trkpt lat="47.29545" lon="6.19892">
        <ele>272.5</ele>
        <time>2000-01-01T06:39:09.000Z</time>
      </trkpt>
      <trkpt lat="47.29547" lon="6.1988">
        <ele>272</ele>
        <time>2000-01-01T06:39:19.000Z</time>
      </trkpt>
      <trkpt lat="47.2955" lon="6.19863">
        <ele>273.9</ele>
        <time>2000-01-01T06:39:29.000Z</time>
      </trkpt>
      <trkpt lat="47.29552" lon="6.19846">
        <ele>274</ele>
        <time>2000-01-01T06:39:39.000Z</time>
      </trkpt>
      <trkpt lat="47.29555" lon="6.1983">
        <ele>275.2</ele>
        <time>2000-01-01T06:39:49.000Z</time>
      </trkpt>
      <trkpt lat="47.29557" lon="6.19811">
        <ele>276</ele>
        <time>2000-01-01T06:39:59.000Z</time>
      </trkpt>
      <trkpt lat="47.2956" lon="6.19795">
        <ele>278.2</ele>
        <time>2000-01-01T06:40:09.000Z</time>
      </trkpt>
      <trkpt lat="47.29563" lon="6.19776">
        <ele>279</ele>
        <time>2000-01-01T06:40:19.000Z</time>
      </trkpt>
      <trkpt lat="47.29567" lon="6.19754">
        <ele>281.8</ele>
        <time>2000-01-01T06:40:29.000Z</time>
      </trkpt>
      <trkpt lat="47.29572" lon="6.19736">
        <ele>282</ele>
        <time>2000-01-01T06:40:39.000Z</time>
      </trkpt>
      <trkpt lat="47.29576" lon="6.1972">
        <ele>285</ele>
        <time>2000-01-01T06:40:49.000Z</time>
      </trkpt>
      <trkpt lat="47.2958" lon="6.19704">
        <ele>286</ele>
        <time>2000-01-01T06:40:59.000Z</time>
      </trkpt>
      <trkpt lat="47.29585" lon="6.19692">
        <ele>287.4</ele>
        <time>2000-01-01T06:41:09.000Z</time>
      </trkpt>
      <trkpt lat="47.2959" lon="6.19677">
        <ele>286</ele>
        <time>2000-01-01T06:41:19.000Z</time>
      </trkpt>
      <trkpt lat="47.29594" lon="6.1966">
        <ele>290.2</ele>
        <time>2000-01-01T06:41:29.000Z</time>
      </trkpt>
      <trkpt lat="47.29598" lon="6.19646">
        <ele>290</ele>
        <time>2000-01-01T06:41:39.000Z</time>
      </trkpt>
      <trkpt lat="47.29601" lon="6.19631">
        <ele>293.7</ele>
        <time>2000-01-01T06:41:49.000Z</time>
      </trkpt>
      <trkpt lat="47.29601" lon="6.19618">
        <ele>293</ele>
        <time>2000-01-01T06:41:59.000Z</time>
      </trkpt>
      <trkpt lat="47.29601" lon="6.19603">
        <ele>295.6</ele>
        <time>2000-01-01T06:42:09.000Z</time>
      </trkpt>
      <trkpt lat="47.296" lon="6.1959">
        <ele>295</ele>
        <time>2000-01-01T06:42:19.000Z</time>
      </trkpt>
      <trkpt lat="47.29598" lon="6.19573">
        <ele>297.4</ele>
        <time>2000-01-01T06:42:29.000Z</time>
      </trkpt>
      <trkpt lat="47.29597" lon="6.19557">
        <ele>297</ele>
        <time>2000-01-01T06:42:39.000Z</time>
      </trkpt>
      <trkpt lat="47.29596" lon="6.19538">
        <ele>299.5</ele>
        <time>2000-01-01T06:42:49.000Z</time>
      </trkpt>
      <trkpt lat="47.29596" lon="6.1952">
        <ele>299</ele>
        <time>2000-01-01T06:42:59.000Z</time>
      </trkpt>
      <trkpt lat="47.29596" lon="6.19502">
        <ele>301.6</ele>
        <time>2000-01-01T06:43:09.000Z</time>
      </trkpt>
      <trkpt lat="47.29597" lon="6.19486">
        <ele>303</ele>
        <time>2000-01-01T06:43:19.000Z</time>
      </trkpt>
      <trkpt lat="47.29598" lon="6.19473">
        <ele>305.5</ele>
        <time>2000-01-01T06:43:29.000Z</time>
      </trkpt>
      <trkpt lat="47.296" lon="6.19461">
        <ele>306.3</ele>
        <time>2000-01-01T06:43:39.000Z</time>
      </trkpt>
      <trkpt lat="47.29603" lon="6.19444">
        <ele>306</ele>
        <time>2000-01-01T06:43:49.000Z</time>
      </trkpt>
      <trkpt lat="47.29605" lon="6.19431">
        <ele>308.4</ele>
        <time>2000-01-01T06:43:59.000Z</time>
      </trkpt>
      <trkpt lat="47.29607" lon="6.19415">
        <ele>308</ele>
        <time>2000-01-01T06:44:09.000Z</time>
      </trkpt>
      <trkpt lat="47.2961" lon="6.19396">
        <ele>311.4</ele>
        <time>2000-01-01T06:44:19.000Z</time>
      </trkpt>
      <trkpt lat="47.29612" lon="6.19384">
        <ele>312</ele>
        <time>2000-01-01T06:44:29.000Z</time>
      </trkpt>
      <trkpt lat="47.29615" lon="6.19365">
        <ele>315.4</ele>
        <time>2000-01-01T06:44:39.000Z</time>
      </trkpt>
      <trkpt lat="47.29608" lon="6.19358">
        <ele>315</ele>
        <time>2000-01-01T06:44:49.000Z</time>
      </trkpt>
      <trkpt lat="47.29604" lon="6.19354">
        <ele>315.1</ele>
        <time>2000-01-01T06:44:59.000Z</time>
      </trkpt>
      <trkpt lat="47.29597" lon="6.1935">
        <ele>315.3</ele>
        <time>2000-01-01T06:45:09.000Z</time>
      </trkpt>
      <trkpt lat="47.29593" lon="6.19347">
        <ele>315.5</ele>
        <time>2000-01-01T06:45:19.000Z</time>
      </trkpt>
      <trkpt lat="47.29582" lon="6.1934">
        <ele>316</ele>
        <time>2000-01-01T06:45:29.000Z</time>
      </trkpt>
      <trkpt lat="47.29576" lon="6.19338">
        <ele>317.6</ele>
        <time>2000-01-01T06:45:39.000Z</time>
      </trkpt>
      <trkpt lat="47.29569" lon="6.19337">
        <ele>318.7</ele>
        <time>2000-01-01T06:45:49.000Z</time>
      </trkpt>
      <trkpt lat="47.2956" lon="6.19338">
        <ele>319</ele>
        <time>2000-01-01T06:45:59.000Z</time>
      </trkpt>
      <trkpt lat="47.29556" lon="6.1934">
        <ele>320.5</ele>
        <time>2000-01-01T06:46:09.000Z</time>
      </trkpt>
      <trkpt lat="47.29552" lon="6.19342">
        <ele>321.2</ele>
        <time>2000-01-01T06:46:19.000Z</time>
      </trkpt>
      <trkpt lat="47.29545" lon="6.19346">
        <ele>322.6</ele>
        <time>2000-01-01T06:46:29.000Z</time>
      </trkpt>
      <trkpt lat="47.29539" lon="6.1935">
        <ele>327</ele>
        <time>2000-01-01T06:46:39.000Z</time>
      </trkpt>
      <trkpt lat="47.29534" lon="6.19351">
        <ele>324.7</ele>
        <time>2000-01-01T06:46:49.000Z</time>
      </trkpt>
      <trkpt lat="47.29527" lon="6.19353">
        <ele>326</ele>
        <time>2000-01-01T06:46:59.000Z</time>
      </trkpt>
      <trkpt lat="47.29519" lon="6.19357">
        <ele>329</ele>
        <time>2000-01-01T06:47:09.000Z</time>
      </trkpt>
      <trkpt lat="47.29511" lon="6.19361">
        <ele>328</ele>
        <time>2000-01-01T06:47:19.000Z</time>
      </trkpt>
      <trkpt lat="47.29502" lon="6.19364">
        <ele>329.2</ele>
        <time>2000-01-01T06:47:29.000Z</time>
      </trkpt>
      <trkpt lat="47.29498" lon="6.19366">
        <ele>332</ele>
        <time>2000-01-01T06:47:39.000Z</time>
      </trkpt>
      <trkpt lat="47.29494" lon="6.19369">
        <ele>331.2</ele>
        <time>2000-01-01T06:47:49.000Z</time>
      </trkpt>
      <trkpt lat="47.29491" lon="6.19371">
        <ele>332.1</ele>
        <time>2000-01-01T06:47:59.000Z</time>
      </trkpt>
      <trkpt lat="47.29488" lon="6.19373">
        <ele>333</ele>
        <time>2000-01-01T06:48:09.000Z</time>
      </trkpt>
      <trkpt lat="47.29485" lon="6.19376">
        <ele>333.8</ele>
        <time>2000-01-01T06:48:19.000Z</time>
      </trkpt>
      <trkpt lat="47.2948" lon="6.19381">
        <ele>334</ele>
        <time>2000-01-01T06:48:29.000Z</time>
      </trkpt>
      <trkpt lat="47.29476" lon="6.19388">
        <ele>335.6</ele>
        <time>2000-01-01T06:48:39.000Z</time>
      </trkpt>
      <trkpt lat="47.29472" lon="6.19394">
        <ele>336.1</ele>
        <time>2000-01-01T06:48:49.000Z</time>
      </trkpt>
      <trkpt lat="47.29467" lon="6.194">
        <ele>340</ele>
        <time>2000-01-01T06:48:59.000Z</time>
      </trkpt>
      <trkpt lat="47.29464" lon="6.19404">
        <ele>335.9</ele>
        <time>2000-01-01T06:49:09.000Z</time>
      </trkpt>
      <trkpt lat="47.29462" lon="6.19406">
        <ele>336.1</ele>
        <time>2000-01-01T06:49:19.000Z</time>
      </trkpt>
      <trkpt lat="47.2946" lon="6.19409">
        <ele>336.1</ele>
        <time>2000-01-01T06:49:29.000Z</time>
      </trkpt>
      <trkpt lat="47.29458" lon="6.1941">
        <ele>336.4</ele>
        <time>2000-01-01T06:49:39.000Z</time>
      </trkpt>
      <trkpt lat="47.29456" lon="6.1941">
        <ele>336.9</ele>
        <time>2000-01-01T06:49:49.000Z</time>
      </trkpt>
      <trkpt lat="47.29454" lon="6.1941">
        <ele>337.3</ele>
        <time>2000-01-01T06:49:59.000Z</time>
      </trkpt>
      <trkpt lat="47.29453" lon="6.19408">
        <ele>337.8</ele>
        <time>2000-01-01T06:50:09.000Z</time>
      </trkpt>
      <trkpt lat="47.29452" lon="6.19406">
        <ele>338.2</ele>
        <time>2000-01-01T06:50:19.000Z</time>
      </trkpt>
      <trkpt lat="47.29454" lon="6.19405">
        <ele>341</ele>
        <time>2000-01-01T06:50:29.000Z</time>
      </trkpt>
      <trkpt lat="47.29456" lon="6.19403">
        <ele>337.7</ele>
        <time>2000-01-01T06:50:39.000Z</time>
      </trkpt>
      <trkpt lat="47.29458" lon="6.19401">
        <ele>337.5</ele>
        <time>2000-01-01T06:50:49.000Z</time>
      </trkpt>
      <trkpt lat="47.29461" lon="6.19397">
        <ele>337.5</ele>
        <time>2000-01-01T06:50:59.000Z</time>
      </trkpt>
      <trkpt lat="47.29465" lon="6.19389">
        <ele>338</ele>
        <time>2000-01-01T06:51:09.000Z</time>
      </trkpt>
      <trkpt lat="47.29468" lon="6.1938">
        <ele>342</ele>
        <time>2000-01-01T06:51:19.000Z</time>
      </trkpt>
      <trkpt lat="47.29471" lon="6.1937">
        <ele>339.8</ele>
        <time>2000-01-01T06:51:29.000Z</time>
      </trkpt>
      <trkpt lat="47.29475" lon="6.19361">
        <ele>339.9</ele>
        <time>2000-01-01T06:51:39.000Z</time>
      </trkpt>
      <trkpt lat="47.29479" lon="6.1935">
        <ele>345</ele>
        <time>2000-01-01T06:51:49.000Z</time>
      </trkpt>
      <trkpt lat="47.29482" lon="6.19338">
        <ele>340.2</ele>
        <time>2000-01-01T06:51:59.000Z</time>
      </trkpt>
      <trkpt lat="47.29484" lon="6.19329">
        <ele>340.4</ele>
        <time>2000-01-01T06:52:09.000Z</time>
      </trkpt>
      <trkpt lat="47.29487" lon="6.19318">
        <ele>345</ele>
        <time>2000-01-01T06:52:19.000Z</time>
      </trkpt>
      <trkpt lat="47.29491" lon="6.19307">
        <ele>340.4</ele>
        <time>2000-01-01T06:52:29.000Z</time>
      </trkpt>
      <trkpt lat="47.29494" lon="6.19297">
        <ele>340.5</ele>
        <time>2000-01-01T06:52:39.000Z</time>
      </trkpt>
      <trkpt lat="47.29498" lon="6.19286">
        <ele>343</ele>
        <time>2000-01-01T06:52:49.000Z</time>
      </trkpt>
      <trkpt lat="47.29503" lon="6.19276">
        <ele>340.4</ele>
        <time>2000-01-01T06:52:59.000Z</time>
      </trkpt>
      <trkpt lat="47.29508" lon="6.19266">
        <ele>340.6</ele>
        <time>2000-01-01T06:53:09.000Z</time>
      </trkpt>
      <trkpt lat="47.29512" lon="6.19256">
        <ele>342</ele>
        <time>2000-01-01T06:53:19.000Z</time>
      </trkpt>
      <trkpt lat="47.29517" lon="6.19244">
        <ele>340.5</ele>
        <time>2000-01-01T06:53:29.000Z</time>
      </trkpt>
      <trkpt lat="47.29521" lon="6.19228">
        <ele>342</ele>
        <time>2000-01-01T06:53:39.000Z</time>
      </trkpt>
      <trkpt lat="47.29522" lon="6.19224">
        <ele>340.3</ele>
        <time>2000-01-01T06:53:49.000Z</time>
      </trkpt>
      <trkpt lat="47.29523" lon="6.19217">
        <ele>340.4</ele>
        <time>2000-01-01T06:53:59.000Z</time>
      </trkpt>
      <trkpt lat="47.29525" lon="6.19206">
        <ele>340.4</ele>
        <time>2000-01-01T06:54:09.000Z</time>
      </trkpt>
      <trkpt lat="47.29528" lon="6.19196">
        <ele>342</ele>
        <time>2000-01-01T06:54:19.000Z</time>
      </trkpt>
      <trkpt lat="47.2953" lon="6.19185">
        <ele>339.7</ele>
        <time>2000-01-01T06:54:29.000Z</time>
      </trkpt>
      <trkpt lat="47.29532" lon="6.19174">
        <ele>339.5</ele>
        <time>2000-01-01T06:54:39.000Z</time>
      </trkpt>
      <trkpt lat="47.29534" lon="6.19164">
        <ele>340</ele>
        <time>2000-01-01T06:54:49.000Z</time>
      </trkpt>
      <trkpt lat="47.29535" lon="6.19154">
        <ele>338.8</ele>
        <time>2000-01-01T06:54:59.000Z</time>
      </trkpt>
      <trkpt lat="47.29537" lon="6.19145">
        <ele>338.1</ele>
        <time>2000-01-01T06:55:09.000Z</time>
      </trkpt>
      <trkpt lat="47.29537" lon="6.19138">
        <ele>338</ele>
        <time>2000-01-01T06:55:19.000Z</time>
      </trkpt>
      <trkpt lat="47.29537" lon="6.1913">
        <ele>340</ele>
        <time>2000-01-01T06:55:29.000Z</time>
      </trkpt>
      <trkpt lat="47.29536" lon="6.19117">
        <ele>337.3</ele>
        <time>2000-01-01T06:55:39.000Z</time>
      </trkpt>
      <trkpt lat="47.29534" lon="6.19103">
        <ele>336</ele>
        <time>2000-01-01T06:55:49.000Z</time>
      </trkpt>
      <trkpt lat="47.29533" lon="6.19096">
        <ele>336.5</ele>
        <time>2000-01-01T06:55:59.000Z</time>
      </trkpt>
      <trkpt lat="47.29534" lon="6.19088">
        <ele>335.4</ele>
        <time>2000-01-01T06:56:09.000Z</time>
      </trkpt>
      <trkpt lat="47.29536" lon="6.19079">
        <ele>334.3</ele>
        <time>2000-01-01T06:56:19.000Z</time>
      </trkpt>
      <trkpt lat="47.29539" lon="6.19072">
        <ele>334</ele>
        <time>2000-01-01T06:56:29.000Z</time>
      </trkpt>
      <trkpt lat="47.29544" lon="6.19066">
        <ele>332.6</ele>
        <time>2000-01-01T06:56:39.000Z</time>
      </trkpt>
      <trkpt lat="47.29549" lon="6.19063">
        <ele>331.8</ele>
        <time>2000-01-01T06:56:49.000Z</time>
      </trkpt>
      <trkpt lat="47.29555" lon="6.19063">
        <ele>331.1</ele>
        <time>2000-01-01T06:56:59.000Z</time>
      </trkpt>
      <trkpt lat="47.2956" lon="6.19066">
        <ele>330</ele>
        <time>2000-01-01T06:57:09.000Z</time>
      </trkpt>
      <trkpt lat="47.29562" lon="6.19071">
        <ele>331</ele>
        <time>2000-01-01T06:57:19.000Z</time>
      </trkpt>
      <trkpt lat="47.29566" lon="6.19083">
        <ele>331</ele>
        <time>2000-01-01T06:57:29.000Z</time>
      </trkpt>
      <trkpt lat="47.2957" lon="6.19095">
        <ele>330</ele>
        <time>2000-01-01T06:57:39.000Z</time>
      </trkpt>
      <trkpt lat="47.29572" lon="6.19099">
        <ele>330.1</ele>
        <time>2000-01-01T06:57:49.000Z</time>
      </trkpt>
      <trkpt lat="47.2958" lon="6.19103">
        <ele>329.7</ele>
        <time>2000-01-01T06:57:59.000Z</time>
      </trkpt>
      <trkpt lat="47.29584" lon="6.19103">
        <ele>329.6</ele>
        <time>2000-01-01T06:58:09.000Z</time>
      </trkpt>
      <trkpt lat="47.29588" lon="6.19102">
        <ele>330</ele>
        <time>2000-01-01T06:58:19.000Z</time>
      </trkpt>
      <trkpt lat="47.29592" lon="6.19099">
        <ele>330.7</ele>
        <time>2000-01-01T06:58:29.000Z</time>
      </trkpt>
      <trkpt lat="47.29595" lon="6.19095">
        <ele>331.2</ele>
        <time>2000-01-01T06:58:39.000Z</time>
      </trkpt>
      <trkpt lat="47.296" lon="6.19087">
        <ele>332</ele>
        <time>2000-01-01T06:58:49.000Z</time>
      </trkpt>
      <trkpt lat="47.29615" lon="6.19069">
        <ele>333</ele>
        <time>2000-01-01T06:58:59.000Z</time>
      </trkpt>
      <trkpt lat="47.29619" lon="6.19067">
        <ele>334.8</ele>
        <time>2000-01-01T06:59:09.000Z</time>
      </trkpt>
      <trkpt lat="47.29622" lon="6.19065">
        <ele>335.4</ele>
        <time>2000-01-01T06:59:19.000Z</time>
      </trkpt>
      <trkpt lat="47.29625" lon="6.19065">
        <ele>335.8</ele>
        <time>2000-01-01T06:59:29.000Z</time>
      </trkpt>
      <trkpt lat="47.2963" lon="6.19064">
        <ele>336.6</ele>
        <time>2000-01-01T06:59:39.000Z</time>
      </trkpt>
      <trkpt lat="47.2963" lon="6.19053">
        <ele>335</ele>
        <time>2000-01-01T06:59:49.000Z</time>
      </trkpt>
      <trkpt lat="47.29631" lon="6.19039">
        <ele>337.3</ele>
        <time>2000-01-01T06:59:59.000Z</time>
      </trkpt>
      <trkpt lat="47.29633" lon="6.19015">
        <ele>336</ele>
        <time>2000-01-01T07:00:09.000Z</time>
      </trkpt>
      <trkpt lat="47.29634" lon="6.18997">
        <ele>338.1</ele>
        <time>2000-01-01T07:00:19.000Z</time>
      </trkpt>
      <trkpt lat="47.29636" lon="6.18982">
        <ele>337</ele>
        <time>2000-01-01T07:00:29.000Z</time>
      </trkpt>
      <trkpt lat="47.29638" lon="6.18967">
        <ele>339</ele>
        <time>2000-01-01T07:00:39.000Z</time>
      </trkpt>
      <trkpt lat="47.29638" lon="6.1895">
        <ele>337</ele>
        <time>2000-01-01T07:00:49.000Z</time>
      </trkpt>
      <trkpt lat="47.29635" lon="6.18933">
        <ele>339.7</ele>
        <time>2000-01-01T07:00:59.000Z</time>
      </trkpt>
      <trkpt lat="47.29633" lon="6.18895">
        <ele>340</ele>
        <time>2000-01-01T07:01:09.000Z</time>
      </trkpt>
      <trkpt lat="47.29631" lon="6.18874">
        <ele>341.5</ele>
        <time>2000-01-01T07:01:19.000Z</time>
      </trkpt>
      <trkpt lat="47.29629" lon="6.18853">
        <ele>340</ele>
        <time>2000-01-01T07:01:29.000Z</time>
      </trkpt>
      <trkpt lat="47.29628" lon="6.18832">
        <ele>342.7</ele>
        <time>2000-01-01T07:01:39.000Z</time>
      </trkpt>
      <trkpt lat="47.29626" lon="6.18807">
        <ele>342</ele>
        <time>2000-01-01T07:01:49.000Z</time>
      </trkpt>
      <trkpt lat="47.29624" lon="6.1879">
        <ele>343.3</ele>
        <time>2000-01-01T07:01:59.000Z</time>
      </trkpt>
      <trkpt lat="47.29622" lon="6.18773">
        <ele>343</ele>
        <time>2000-01-01T07:02:09.000Z</time>
      </trkpt>
      <trkpt lat="47.29616" lon="6.18747">
        <ele>343</ele>
        <time>2000-01-01T07:02:19.000Z</time>
      </trkpt>
      <trkpt lat="47.29607" lon="6.18722">
        <ele>343</ele>
        <time>2000-01-01T07:02:29.000Z</time>
      </trkpt>
      <trkpt lat="47.29598" lon="6.18697">
        <ele>343</ele>
        <time>2000-01-01T07:02:39.000Z</time>
      </trkpt>
      <trkpt lat="47.29592" lon="6.18678">
        <ele>344.7</ele>
        <time>2000-01-01T07:02:49.000Z</time>
      </trkpt>
      <trkpt lat="47.29584" lon="6.18639">
        <ele>346</ele>
        <time>2000-01-01T07:02:59.000Z</time>
      </trkpt>
      <trkpt lat="47.29572" lon="6.18579">
        <ele>351</ele>
        <time>2000-01-01T07:03:09.000Z</time>
      </trkpt>
      <trkpt lat="47.29568" lon="6.18544">
        <ele>353</ele>
        <time>2000-01-01T07:03:19.000Z</time>
      </trkpt>
      <trkpt lat="47.29561" lon="6.18502">
        <ele>359</ele>
        <time>2000-01-01T07:03:29.000Z</time>
      </trkpt>
      <trkpt lat="47.29555" lon="6.18465">
        <ele>362</ele>
        <time>2000-01-01T07:03:39.000Z</time>
      </trkpt>
      <trkpt lat="47.29547" lon="6.18421">
        <ele>363</ele>
        <time>2000-01-01T07:03:49.000Z</time>
      </trkpt>
      <trkpt lat="47.29545" lon="6.18405">
        <ele>367.9</ele>
        <time>2000-01-01T07:03:59.000Z</time>
      </trkpt>
      <trkpt lat="47.2954" lon="6.18384">
        <ele>369</ele>
        <time>2000-01-01T07:04:09.000Z</time>
      </trkpt>
      <trkpt lat="47.29533" lon="6.18348">
        <ele>371</ele>
        <time>2000-01-01T07:04:19.000Z</time>
      </trkpt>
      <trkpt lat="47.29524" lon="6.18301">
        <ele>372</ele>
        <time>2000-01-01T07:04:29.000Z</time>
      </trkpt>
      <trkpt lat="47.2952" lon="6.1828">
        <ele>374.5</ele>
        <time>2000-01-01T07:04:39.000Z</time>
      </trkpt>
      <trkpt lat="47.29514" lon="6.18267">
        <ele>373</ele>
        <time>2000-01-01T07:04:49.000Z</time>
      </trkpt>
      <trkpt lat="47.295" lon="6.18235">
        <ele>374</ele>
        <time>2000-01-01T07:04:59.000Z</time>
      </trkpt>
      <trkpt lat="47.29495" lon="6.1822">
        <ele>374.8</ele>
        <time>2000-01-01T07:05:09.000Z</time>
      </trkpt>
      <trkpt lat="47.29482" lon="6.18175">
        <ele>375</ele>
        <time>2000-01-01T07:05:19.000Z</time>
      </trkpt>
      <trkpt lat="47.29475" lon="6.18135">
        <ele>377</ele>
        <time>2000-01-01T07:05:29.000Z</time>
      </trkpt>
      <trkpt lat="47.29464" lon="6.18073">
        <ele>376</ele>
        <time>2000-01-01T07:05:39.000Z</time>
      </trkpt>
      <trkpt lat="47.29459" lon="6.1804">
        <ele>376</ele>
        <time>2000-01-01T07:05:49.000Z</time>
      </trkpt>
      <trkpt lat="47.29457" lon="6.18022">
        <ele>379.8</ele>
        <time>2000-01-01T07:05:59.000Z</time>
      </trkpt>
      <trkpt lat="47.29456" lon="6.18017">
        <ele>379.7</ele>
        <time>2000-01-01T07:06:09.000Z</time>
      </trkpt>
      <trkpt lat="47.29454" lon="6.1798">
        <ele>379</ele>
        <time>2000-01-01T07:06:19.000Z</time>
      </trkpt>
      <trkpt lat="47.29454" lon="6.17975">
        <ele>380.7</ele>
        <time>2000-01-01T07:06:29.000Z</time>
      </trkpt>
      <trkpt lat="47.29454" lon="6.17945">
        <ele>380</ele>
        <time>2000-01-01T07:06:39.000Z</time>
      </trkpt>
      <trkpt lat="47.29454" lon="6.17897">
        <ele>381</ele>
        <time>2000-01-01T07:06:49.000Z</time>
      </trkpt>
      <trkpt lat="47.29454" lon="6.17853">
        <ele>381</ele>
        <time>2000-01-01T07:06:59.000Z</time>
      </trkpt>
      <trkpt lat="47.29456" lon="6.17826">
        <ele>381</ele>
        <time>2000-01-01T07:07:09.000Z</time>
      </trkpt>
      <trkpt lat="47.29463" lon="6.17793">
        <ele>381</ele>
        <time>2000-01-01T07:07:19.000Z</time>
      </trkpt>
      <trkpt lat="47.29474" lon="6.17735">
        <ele>382</ele>
        <time>2000-01-01T07:07:29.000Z</time>
      </trkpt>
      <trkpt lat="47.29484" lon="6.17682">
        <ele>382</ele>
        <time>2000-01-01T07:07:39.000Z</time>
      </trkpt>
      <trkpt lat="47.29486" lon="6.1766">
        <ele>383.2</ele>
        <time>2000-01-01T07:07:49.000Z</time>
      </trkpt>
      <trkpt lat="47.2949" lon="6.17613">
        <ele>383</ele>
        <time>2000-01-01T07:07:59.000Z</time>
      </trkpt>
      <trkpt lat="47.29491" lon="6.17582">
        <ele>382</ele>
        <time>2000-01-01T07:08:09.000Z</time>
      </trkpt>
      <trkpt lat="47.2949" lon="6.17561">
        <ele>384.4</ele>
        <time>2000-01-01T07:08:19.000Z</time>
      </trkpt>
      <trkpt lat="47.29487" lon="6.17537">
        <ele>382</ele>
        <time>2000-01-01T07:08:29.000Z</time>
      </trkpt>
      <trkpt lat="47.29484" lon="6.17499">
        <ele>383</ele>
        <time>2000-01-01T07:08:39.000Z</time>
      </trkpt>
      <trkpt lat="47.29483" lon="6.17483">
        <ele>384.6</ele>
        <time>2000-01-01T07:08:49.000Z</time>
      </trkpt>
      <trkpt lat="47.29485" lon="6.17466">
        <ele>384</ele>
        <time>2000-01-01T07:08:59.000Z</time>
      </trkpt>
      <trkpt lat="47.29492" lon="6.1744">
        <ele>387</ele>
        <time>2000-01-01T07:09:09.000Z</time>
      </trkpt>
      <trkpt lat="47.29511" lon="6.17396">
        <ele>389</ele>
        <time>2000-01-01T07:09:19.000Z</time>
      </trkpt>
      <trkpt lat="47.29526" lon="6.17367">
        <ele>390</ele>
        <time>2000-01-01T07:09:29.000Z</time>
      </trkpt>
      <trkpt lat="47.29545" lon="6.1733">
        <ele>392</ele>
        <time>2000-01-01T07:09:39.000Z</time>
      </trkpt>
      <trkpt lat="47.2955" lon="6.17327">
        <ele>394</ele>
        <time>2000-01-01T07:09:49.000Z</time>
      </trkpt>
      <trkpt lat="47.29554" lon="6.17318">
        <ele>394.2</ele>
        <time>2000-01-01T07:09:59.000Z</time>
      </trkpt>
      <trkpt lat="47.29575" lon="6.17303">
        <ele>394</ele>
        <time>2000-01-01T07:10:09.000Z</time>
      </trkpt>
      <trkpt lat="47.29598" lon="6.17288">
        <ele>394</ele>
        <time>2000-01-01T07:10:19.000Z</time>
      </trkpt>
      <trkpt lat="47.29625" lon="6.17266">
        <ele>393</ele>
        <time>2000-01-01T07:10:29.000Z</time>
      </trkpt>
      <trkpt lat="47.29652" lon="6.17244">
        <ele>391</ele>
        <time>2000-01-01T07:10:39.000Z</time>
      </trkpt>
      <trkpt lat="47.2968" lon="6.17221">
        <ele>389</ele>
        <time>2000-01-01T07:10:49.000Z</time>
      </trkpt>
      <trkpt lat="47.29709" lon="6.17191">
        <ele>387</ele>
        <time>2000-01-01T07:10:59.000Z</time>
      </trkpt>
      <trkpt lat="47.29737" lon="6.17161">
        <ele>386</ele>
        <time>2000-01-01T07:11:09.000Z</time>
      </trkpt>
      <trkpt lat="47.29766" lon="6.1713">
        <ele>383</ele>
        <time>2000-01-01T07:11:19.000Z</time>
      </trkpt>
      <trkpt lat="47.29785" lon="6.1711">
        <ele>381</ele>
        <time>2000-01-01T07:11:29.000Z</time>
      </trkpt>
      <trkpt lat="47.29804" lon="6.1709">
        <ele>378</ele>
        <time>2000-01-01T07:11:39.000Z</time>
      </trkpt>
      <trkpt lat="47.29808" lon="6.17069">
        <ele>376.1</ele>
        <time>2000-01-01T07:11:49.000Z</time>
      </trkpt>
      <trkpt lat="47.29794" lon="6.17043">
        <ele>376</ele>
        <time>2000-01-01T07:11:59.000Z</time>
      </trkpt>
      <trkpt lat="47.29831" lon="6.17046">
        <ele>369</ele>
        <time>2000-01-01T07:12:09.000Z</time>
      </trkpt>
      <trkpt lat="47.29858" lon="6.17067">
        <ele>367</ele>
        <time>2000-01-01T07:12:19.000Z</time>
      </trkpt>
      <trkpt lat="47.29886" lon="6.17092">
        <ele>363</ele>
        <time>2000-01-01T07:12:29.000Z</time>
      </trkpt>
      <trkpt lat="47.29915" lon="6.17117">
        <ele>357</ele>
        <time>2000-01-01T07:12:39.000Z</time>
      </trkpt>
      <trkpt lat="47.29936" lon="6.17136">
        <ele>353</ele>
        <time>2000-01-01T07:12:49.000Z</time>
      </trkpt>
      <trkpt lat="47.29962" lon="6.17159">
        <ele>349</ele>
        <time>2000-01-01T07:12:59.000Z</time>
      </trkpt>
      <trkpt lat="47.29969" lon="6.17151">
        <ele>349.8</ele>
        <time>2000-01-01T07:13:09.000Z</time>
      </trkpt>
      <trkpt lat="47.29811" lon="6.1664">
        <ele>315</ele>
        <time>2000-01-01T07:13:19.000Z</time>
      </trkpt>
      <trkpt lat="47.29786" lon="6.1659">
        <ele>311</ele>
        <time>2000-01-01T07:13:29.000Z</time>
      </trkpt>
      <trkpt lat="47.29775" lon="6.16559">
        <ele>307</ele>
        <time>2000-01-01T07:13:39.000Z</time>
      </trkpt>
      <trkpt lat="47.29763" lon="6.16524">
        <ele>305</ele>
        <time>2000-01-01T07:13:49.000Z</time>
      </trkpt>
      <trkpt lat="47.29764" lon="6.16482">
        <ele>301</ele>
        <time>2000-01-01T07:13:59.000Z</time>
      </trkpt>
      <trkpt lat="47.29765" lon="6.16448">
        <ele>298</ele>
        <time>2000-01-01T07:14:09.000Z</time>
      </trkpt>
      <trkpt lat="47.29766" lon="6.16412">
        <ele>297</ele>
        <time>2000-01-01T07:14:19.000Z</time>
      </trkpt>
      <trkpt lat="47.29757" lon="6.16358">
        <ele>294</ele>
        <time>2000-01-01T07:14:29.000Z</time>
      </trkpt>
      <trkpt lat="47.29765" lon="6.16325">
        <ele>292</ele>
        <time>2000-01-01T07:14:39.000Z</time>
      </trkpt>
      <trkpt lat="47.29773" lon="6.16288">
        <ele>289</ele>
        <time>2000-01-01T07:14:49.000Z</time>
      </trkpt>
      <trkpt lat="47.29789" lon="6.16236">
        <ele>284</ele>
        <time>2000-01-01T07:14:59.000Z</time>
      </trkpt>
      <trkpt lat="47.29809" lon="6.16198">
        <ele>282</ele>
        <time>2000-01-01T07:15:09.000Z</time>
      </trkpt>
      <trkpt lat="47.29829" lon="6.16161">
        <ele>279</ele>
        <time>2000-01-01T07:15:19.000Z</time>
      </trkpt>
      <trkpt lat="47.29857" lon="6.16108">
        <ele>277</ele>
        <time>2000-01-01T07:15:29.000Z</time>
      </trkpt>
      <trkpt lat="47.29854" lon="6.16104">
        <ele>278</ele>
        <time>2000-01-01T07:15:39.000Z</time>
      </trkpt>
      <trkpt lat="47.29856" lon="6.16101">
        <ele>277.8</ele>
        <time>2000-01-01T07:15:49.000Z</time>
      </trkpt>
      <trkpt lat="47.29848" lon="6.16092">
        <ele>277.8</ele>
        <time>2000-01-01T07:15:59.000Z</time>
      </trkpt>
      <trkpt lat="47.29853" lon="6.16084">
        <ele>277</ele>
        <time>2000-01-01T07:16:09.000Z</time>
      </trkpt>
      <trkpt lat="47.29862" lon="6.16062">
        <ele>275.4</ele>
        <time>2000-01-01T07:16:19.000Z</time>
      </trkpt>
      <trkpt lat="47.29873" lon="6.16031">
        <ele>273</ele>
        <time>2000-01-01T07:16:29.000Z</time>
      </trkpt>
      <trkpt lat="47.29881" lon="6.16">
        <ele>272</ele>
        <time>2000-01-01T07:16:39.000Z</time>
      </trkpt>
      <trkpt lat="47.29887" lon="6.15973">
        <ele>271</ele>
        <time>2000-01-01T07:16:49.000Z</time>
      </trkpt>
      <trkpt lat="47.2989" lon="6.15949">
        <ele>271</ele>
        <time>2000-01-01T07:16:59.000Z</time>
      </trkpt>
      <trkpt lat="47.29893" lon="6.15927">
        <ele>271</ele>
        <time>2000-01-01T07:17:09.000Z</time>
      </trkpt>
      <trkpt lat="47.29894" lon="6.15907">
        <ele>271</ele>
        <time>2000-01-01T07:17:19.000Z</time>
      </trkpt>
      <trkpt lat="47.29895" lon="6.15876">
        <ele>271</ele>
        <time>2000-01-01T07:17:29.000Z</time>
      </trkpt>
      <trkpt lat="47.29897" lon="6.15812">
        <ele>271</ele>
        <time>2000-01-01T07:17:39.000Z</time>
      </trkpt>
      <trkpt lat="47.29898" lon="6.15771">
        <ele>271</ele>
        <time>2000-01-01T07:17:49.000Z</time>
      </trkpt>
      <trkpt lat="47.29916" lon="6.15764">
        <ele>272</ele>
        <time>2000-01-01T07:17:59.000Z</time>
      </trkpt>
      <trkpt lat="47.29939" lon="6.15753">
        <ele>274</ele>
        <time>2000-01-01T07:18:09.000Z</time>
      </trkpt>
      <trkpt lat="47.29964" lon="6.15743">
        <ele>278</ele>
        <time>2000-01-01T07:18:19.000Z</time>
      </trkpt>
      <trkpt lat="47.29967" lon="6.1577">
        <ele>278</ele>
        <time>2000-01-01T07:18:29.000Z</time>
      </trkpt>
      <trkpt lat="47.29971" lon="6.1579">
        <ele>278.9</ele>
        <time>2000-01-01T07:18:39.000Z</time>
      </trkpt>
      <trkpt lat="47.29976" lon="6.15816">
        <ele>278</ele>
        <time>2000-01-01T07:18:49.000Z</time>
      </trkpt>
      <trkpt lat="47.29983" lon="6.15845">
        <ele>278</ele>
        <time>2000-01-01T07:18:59.000Z</time>
      </trkpt>
      <trkpt lat="47.29992" lon="6.15874">
        <ele>278</ele>
        <time>2000-01-01T07:19:09.000Z</time>
      </trkpt>
      <trkpt lat="47.29992" lon="6.15874">
        <ele>279.4</ele>
        <time>2000-01-01T07:19:19.000Z</time>
      </trkpt>
      <trkpt lat="47.30004" lon="6.15904">
        <ele>278</ele>
        <time>2000-01-01T07:19:29.000Z</time>
      </trkpt>
      <trkpt lat="47.30014" lon="6.15929">
        <ele>278</ele>
        <time>2000-01-01T07:19:39.000Z</time>
      </trkpt>
      <trkpt lat="47.30027" lon="6.15958">
        <ele>278</ele>
        <time>2000-01-01T07:19:49.000Z</time>
      </trkpt>
      <trkpt lat="47.30046" lon="6.16003">
        <ele>278</ele>
        <time>2000-01-01T07:19:59.000Z</time>
      </trkpt>
      <trkpt lat="47.30059" lon="6.1603">
        <ele>278</ele>
        <time>2000-01-01T07:20:09.000Z</time>
      </trkpt>
      <trkpt lat="47.30067" lon="6.16043">
        <ele>277.9</ele>
        <time>2000-01-01T07:20:19.000Z</time>
      </trkpt>
      <trkpt lat="47.30073" lon="6.1605">
        <ele>278</ele>
        <time>2000-01-01T07:20:29.000Z</time>
      </trkpt>
      <trkpt lat="47.30082" lon="6.16054">
        <ele>278.1</ele>
        <time>2000-01-01T07:20:39.000Z</time>
      </trkpt>
      <trkpt lat="47.30101" lon="6.16064">
        <ele>279</ele>
        <time>2000-01-01T07:20:49.000Z</time>
      </trkpt>
      <trkpt lat="47.30133" lon="6.16079">
        <ele>280</ele>
        <time>2000-01-01T07:20:59.000Z</time>
      </trkpt>
      <trkpt lat="47.30153" lon="6.16087">
        <ele>280</ele>
        <time>2000-01-01T07:21:09.000Z</time>
      </trkpt>
      <trkpt lat="47.30172" lon="6.16098">
        <ele>280</ele>
        <time>2000-01-01T07:21:19.000Z</time>
      </trkpt>
      <trkpt lat="47.30203" lon="6.16124">
        <ele>280</ele>
        <time>2000-01-01T07:21:29.000Z</time>
      </trkpt>
      <trkpt lat="47.30216" lon="6.16139">
        <ele>280.8</ele>
        <time>2000-01-01T07:21:39.000Z</time>
      </trkpt>
      <trkpt lat="47.30233" lon="6.16156">
        <ele>281</ele>
        <time>2000-01-01T07:21:49.000Z</time>
      </trkpt>
      <trkpt lat="47.30241" lon="6.16163">
        <ele>281.5</ele>
        <time>2000-01-01T07:21:59.000Z</time>
      </trkpt>
      <trkpt lat="47.30249" lon="6.16168">
        <ele>281.9</ele>
        <time>2000-01-01T07:22:09.000Z</time>
      </trkpt>
      <trkpt lat="47.30255" lon="6.16171">
        <ele>281</ele>
        <time>2000-01-01T07:22:19.000Z</time>
      </trkpt>
      <trkpt lat="47.30258" lon="6.16172">
        <ele>282.1</ele>
        <time>2000-01-01T07:22:29.000Z</time>
      </trkpt>
      <trkpt lat="47.30275" lon="6.16175">
        <ele>281</ele>
        <time>2000-01-01T07:22:39.000Z</time>
      </trkpt>
      <trkpt lat="47.30298" lon="6.16178">
        <ele>283</ele>
        <time>2000-01-01T07:22:49.000Z</time>
      </trkpt>
      <trkpt lat="47.30301" lon="6.1618">
        <ele>285</ele>
        <time>2000-01-01T07:22:59.000Z</time>
      </trkpt>
      <trkpt lat="47.30311" lon="6.16185">
        <ele>286</ele>
        <time>2000-01-01T07:23:09.000Z</time>
      </trkpt>
      <trkpt lat="47.30332" lon="6.16206">
        <ele>286</ele>
        <time>2000-01-01T07:23:19.000Z</time>
      </trkpt>
      <trkpt lat="47.30357" lon="6.16236">
        <ele>287</ele>
        <time>2000-01-01T07:23:29.000Z</time>
      </trkpt>
      <trkpt lat="47.30373" lon="6.16253">
        <ele>287</ele>
        <time>2000-01-01T07:23:39.000Z</time>
      </trkpt>
      <trkpt lat="47.30385" lon="6.1626">
        <ele>288.1</ele>
        <time>2000-01-01T07:23:49.000Z</time>
      </trkpt>
      <trkpt lat="47.30392" lon="6.16263">
        <ele>287</ele>
        <time>2000-01-01T07:23:59.000Z</time>
      </trkpt>
      <trkpt lat="47.30399" lon="6.16264">
        <ele>288.4</ele>
        <time>2000-01-01T07:24:09.000Z</time>
      </trkpt>
      <trkpt lat="47.30417" lon="6.16266">
        <ele>288</ele>
        <time>2000-01-01T07:24:19.000Z</time>
      </trkpt>
      <trkpt lat="47.30435" lon="6.16267">
        <ele>289</ele>
        <time>2000-01-01T07:24:29.000Z</time>
      </trkpt>
      <trkpt lat="47.30449" lon="6.16265">
        <ele>290.1</ele>
        <time>2000-01-01T07:24:39.000Z</time>
      </trkpt>
      <trkpt lat="47.30465" lon="6.16262">
        <ele>290</ele>
        <time>2000-01-01T07:24:49.000Z</time>
      </trkpt>
      <trkpt lat="47.30478" lon="6.16259">
        <ele>291.6</ele>
        <time>2000-01-01T07:24:59.000Z</time>
      </trkpt>
      <trkpt lat="47.30485" lon="6.16254">
        <ele>291</ele>
        <time>2000-01-01T07:25:09.000Z</time>
      </trkpt>
      <trkpt lat="47.30495" lon="6.16245">
        <ele>293.4</ele>
        <time>2000-01-01T07:25:19.000Z</time>
      </trkpt>
      <trkpt lat="47.30499" lon="6.16244">
        <ele>293.6</ele>
        <time>2000-01-01T07:25:29.000Z</time>
      </trkpt>
      <trkpt lat="47.30506" lon="6.16256">
        <ele>291</ele>
        <time>2000-01-01T07:25:39.000Z</time>
      </trkpt>
      <trkpt lat="47.30519" lon="6.16296">
        <ele>291</ele>
        <time>2000-01-01T07:25:49.000Z</time>
      </trkpt>
      <trkpt lat="47.3053" lon="6.16329">
        <ele>293</ele>
        <time>2000-01-01T07:25:59.000Z</time>
      </trkpt>
      <trkpt lat="47.30543" lon="6.16371">
        <ele>296</ele>
        <time>2000-01-01T07:26:09.000Z</time>
      </trkpt>
      <trkpt lat="47.30556" lon="6.16366">
        <ele>299.6</ele>
        <time>2000-01-01T07:26:19.000Z</time>
      </trkpt>
      <trkpt lat="47.30578" lon="6.16344">
        <ele>299</ele>
        <time>2000-01-01T07:26:29.000Z</time>
      </trkpt>
      <trkpt lat="47.30605" lon="6.16298">
        <ele>300</ele>
        <time>2000-01-01T07:26:39.000Z</time>
      </trkpt>
      <trkpt lat="47.30631" lon="6.1626">
        <ele>303</ele>
        <time>2000-01-01T07:26:49.000Z</time>
      </trkpt>
      <trkpt lat="47.30655" lon="6.16233">
        <ele>305</ele>
        <time>2000-01-01T07:26:59.000Z</time>
      </trkpt>
      <trkpt lat="47.30672" lon="6.16202">
        <ele>305</ele>
        <time>2000-01-01T07:27:09.000Z</time>
      </trkpt>
      <trkpt lat="47.30684" lon="6.16202">
        <ele>308.4</ele>
        <time>2000-01-01T07:27:19.000Z</time>
      </trkpt>
      <trkpt lat="47.3069" lon="6.1621">
        <ele>307</ele>
        <time>2000-01-01T07:27:29.000Z</time>
      </trkpt>
      <trkpt lat="47.30692" lon="6.16216">
        <ele>312.4</ele>
        <time>2000-01-01T07:27:39.000Z</time>
      </trkpt>
      <trkpt lat="47.30684" lon="6.16232">
        <ele>313.4</ele>
        <time>2000-01-01T07:27:49.000Z</time>
      </trkpt>
      <trkpt lat="47.30663" lon="6.16258">
        <ele>309</ele>
        <time>2000-01-01T07:27:59.000Z</time>
      </trkpt>
      <trkpt lat="47.30641" lon="6.16306">
        <ele>312</ele>
        <time>2000-01-01T07:28:09.000Z</time>
      </trkpt>
      <trkpt lat="47.3064" lon="6.16362">
        <ele>315</ele>
        <time>2000-01-01T07:28:19.000Z</time>
      </trkpt>
      <trkpt lat="47.30647" lon="6.164">
        <ele>321</ele>
        <time>2000-01-01T07:28:29.000Z</time>
      </trkpt>
      <trkpt lat="47.30658" lon="6.16434">
        <ele>325</ele>
        <time>2000-01-01T07:28:39.000Z</time>
      </trkpt>
      <trkpt lat="47.30672" lon="6.16479">
        <ele>328</ele>
        <time>2000-01-01T07:28:49.000Z</time>
      </trkpt>
      <trkpt lat="47.30689" lon="6.16523">
        <ele>330</ele>
        <time>2000-01-01T07:28:59.000Z</time>
      </trkpt>
      <trkpt lat="47.30706" lon="6.16567">
        <ele>332</ele>
        <time>2000-01-01T07:29:09.000Z</time>
      </trkpt>
      <trkpt lat="47.30719" lon="6.16602">
        <ele>334</ele>
        <time>2000-01-01T07:29:19.000Z</time>
      </trkpt>
      <trkpt lat="47.30739" lon="6.16654">
        <ele>335</ele>
        <time>2000-01-01T07:29:29.000Z</time>
      </trkpt>
      <trkpt lat="47.30749" lon="6.16707">
        <ele>335</ele>
        <time>2000-01-01T07:29:39.000Z</time>
      </trkpt>
      <trkpt lat="47.3076" lon="6.1676">
        <ele>335</ele>
        <time>2000-01-01T07:29:49.000Z</time>
      </trkpt>
      <trkpt lat="47.3077" lon="6.16812">
        <ele>335</ele>
        <time>2000-01-01T07:29:59.000Z</time>
      </trkpt>
      <trkpt lat="47.3078" lon="6.16865">
        <ele>335</ele>
        <time>2000-01-01T07:30:09.000Z</time>
      </trkpt>
      <trkpt lat="47.30787" lon="6.169">
        <ele>335</ele>
        <time>2000-01-01T07:30:19.000Z</time>
      </trkpt>
      <trkpt lat="47.30795" lon="6.1694">
        <ele>336</ele>
        <time>2000-01-01T07:30:29.000Z</time>
      </trkpt>
      <trkpt lat="47.30801" lon="6.16977">
        <ele>339</ele>
        <time>2000-01-01T07:30:39.000Z</time>
      </trkpt>
      <trkpt lat="47.30808" lon="6.17023">
        <ele>339</ele>
        <time>2000-01-01T07:30:49.000Z</time>
      </trkpt>
      <trkpt lat="47.30817" lon="6.17062">
        <ele>341</ele>
        <time>2000-01-01T07:30:59.000Z</time>
      </trkpt>
      <trkpt lat="47.30825" lon="6.1707">
        <ele>343.7</ele>
        <time>2000-01-01T07:31:09.000Z</time>
      </trkpt>
      <trkpt lat="47.30872" lon="6.17062">
        <ele>344</ele>
        <time>2000-01-01T07:31:19.000Z</time>
      </trkpt>
      <trkpt lat="47.30869" lon="6.17096">
        <ele>348</ele>
        <time>2000-01-01T07:31:29.000Z</time>
      </trkpt>
      <trkpt lat="47.30865" lon="6.1713">
        <ele>348</ele>
        <time>2000-01-01T07:31:39.000Z</time>
      </trkpt>
      <trkpt lat="47.30869" lon="6.1719">
        <ele>349</ele>
        <time>2000-01-01T07:31:49.000Z</time>
      </trkpt>
      <trkpt lat="47.30866" lon="6.17237">
        <ele>349</ele>
        <time>2000-01-01T07:31:59.000Z</time>
      </trkpt>
      <trkpt lat="47.30863" lon="6.17285">
        <ele>350</ele>
        <time>2000-01-01T07:32:09.000Z</time>
      </trkpt>
      <trkpt lat="47.30859" lon="6.17351">
        <ele>350</ele>
        <time>2000-01-01T07:32:19.000Z</time>
      </trkpt>
      <trkpt lat="47.30858" lon="6.1741">
        <ele>350</ele>
        <time>2000-01-01T07:32:29.000Z</time>
      </trkpt>
      <trkpt lat="47.30864" lon="6.17461">
        <ele>351</ele>
        <time>2000-01-01T07:32:39.000Z</time>
      </trkpt>
      <trkpt lat="47.30869" lon="6.17511">
        <ele>352</ele>
        <time>2000-01-01T07:32:49.000Z</time>
      </trkpt>
      <trkpt lat="47.30875" lon="6.17562">
        <ele>352</ele>
        <time>2000-01-01T07:32:59.000Z</time>
      </trkpt>
      <trkpt lat="47.30882" lon="6.17622">
        <ele>351</ele>
        <time>2000-01-01T07:33:09.000Z</time>
      </trkpt>
      <trkpt lat="47.30891" lon="6.17654">
        <ele>350</ele>
        <time>2000-01-01T07:33:19.000Z</time>
      </trkpt>
      <trkpt lat="47.309" lon="6.17689">
        <ele>350</ele>
        <time>2000-01-01T07:33:29.000Z</time>
      </trkpt>
      <trkpt lat="47.30919" lon="6.1773">
        <ele>351</ele>
        <time>2000-01-01T07:33:39.000Z</time>
      </trkpt>
      <trkpt lat="47.30938" lon="6.17771">
        <ele>354</ele>
        <time>2000-01-01T07:33:49.000Z</time>
      </trkpt>
      <trkpt lat="47.30952" lon="6.17803">
        <ele>357</ele>
        <time>2000-01-01T07:33:59.000Z</time>
      </trkpt>
      <trkpt lat="47.30971" lon="6.17844">
        <ele>358</ele>
        <time>2000-01-01T07:34:09.000Z</time>
      </trkpt>
      <trkpt lat="47.3099" lon="6.17868">
        <ele>361</ele>
        <time>2000-01-01T07:34:19.000Z</time>
      </trkpt>
      <trkpt lat="47.31015" lon="6.17899">
        <ele>363</ele>
        <time>2000-01-01T07:34:29.000Z</time>
      </trkpt>
      <trkpt lat="47.31046" lon="6.17923">
        <ele>363</ele>
        <time>2000-01-01T07:34:39.000Z</time>
      </trkpt>
      <trkpt lat="47.31075" lon="6.17932">
        <ele>364</ele>
        <time>2000-01-01T07:34:49.000Z</time>
      </trkpt>
      <trkpt lat="47.31083" lon="6.17926">
        <ele>361</ele>
        <time>2000-01-01T07:34:59.000Z</time>
      </trkpt>
      <trkpt lat="47.31095" lon="6.17883">
        <ele>366</ele>
        <time>2000-01-01T07:35:09.000Z</time>
      </trkpt>
      <trkpt lat="47.31091" lon="6.17856">
        <ele>369</ele>
        <time>2000-01-01T07:35:19.000Z</time>
      </trkpt>
      <trkpt lat="47.31104" lon="6.1782">
        <ele>369</ele>
        <time>2000-01-01T07:35:29.000Z</time>
      </trkpt>
      <trkpt lat="47.31119" lon="6.17807">
        <ele>369.3</ele>
        <time>2000-01-01T07:35:39.000Z</time>
      </trkpt>
      <trkpt lat="47.31133" lon="6.17668">
        <ele>369</ele>
        <time>2000-01-01T07:35:49.000Z</time>
      </trkpt>
      <trkpt lat="47.31145" lon="6.17621">
        <ele>370</ele>
        <time>2000-01-01T07:35:59.000Z</time>
      </trkpt>
      <trkpt lat="47.3115" lon="6.17597">
        <ele>373.7</ele>
        <time>2000-01-01T07:36:09.000Z</time>
      </trkpt>
      <trkpt lat="47.31181" lon="6.1748">
        <ele>376</ele>
        <time>2000-01-01T07:36:19.000Z</time>
      </trkpt>
      <trkpt lat="47.31182" lon="6.17452">
        <ele>376</ele>
        <time>2000-01-01T07:36:29.000Z</time>
      </trkpt>
      <trkpt lat="47.31184" lon="6.17388">
        <ele>377</ele>
        <time>2000-01-01T07:36:39.000Z</time>
      </trkpt>
      <trkpt lat="47.31201" lon="6.17334">
        <ele>379</ele>
        <time>2000-01-01T07:36:49.000Z</time>
      </trkpt>
      <trkpt lat="47.31213" lon="6.17289">
        <ele>381</ele>
        <time>2000-01-01T07:36:59.000Z</time>
      </trkpt>
      <trkpt lat="47.31226" lon="6.17243">
        <ele>384</ele>
        <time>2000-01-01T07:37:09.000Z</time>
      </trkpt>
      <trkpt lat="47.31235" lon="6.17209">
        <ele>386</ele>
        <time>2000-01-01T07:37:19.000Z</time>
      </trkpt>
      <trkpt lat="47.31247" lon="6.17168">
        <ele>387</ele>
        <time>2000-01-01T07:37:29.000Z</time>
      </trkpt>
      <trkpt lat="47.31251" lon="6.17131">
        <ele>388</ele>
        <time>2000-01-01T07:37:39.000Z</time>
      </trkpt>
      <trkpt lat="47.31256" lon="6.17088">
        <ele>388</ele>
        <time>2000-01-01T07:37:49.000Z</time>
      </trkpt>
      <trkpt lat="47.31258" lon="6.1704">
        <ele>390</ele>
        <time>2000-01-01T07:37:59.000Z</time>
      </trkpt>
      <trkpt lat="47.31271" lon="6.17">
        <ele>394</ele>
        <time>2000-01-01T07:38:09.000Z</time>
      </trkpt>
      <trkpt lat="47.31284" lon="6.16959">
        <ele>398</ele>
        <time>2000-01-01T07:38:19.000Z</time>
      </trkpt>
      <trkpt lat="47.31297" lon="6.16918">
        <ele>400</ele>
        <time>2000-01-01T07:38:29.000Z</time>
      </trkpt>
      <trkpt lat="47.31298" lon="6.16886">
        <ele>401</ele>
        <time>2000-01-01T07:38:39.000Z</time>
      </trkpt>
      <trkpt lat="47.313" lon="6.16834">
        <ele>404</ele>
        <time>2000-01-01T07:38:49.000Z</time>
      </trkpt>
      <trkpt lat="47.31305" lon="6.16795">
        <ele>407</ele>
        <time>2000-01-01T07:38:59.000Z</time>
      </trkpt>
      <trkpt lat="47.31313" lon="6.16742">
        <ele>415</ele>
        <time>2000-01-01T07:39:09.000Z</time>
      </trkpt>
      <trkpt lat="47.31312" lon="6.16732">
        <ele>416.3</ele>
        <time>2000-01-01T07:39:19.000Z</time>
      </trkpt>
      <trkpt lat="47.31311" lon="6.16667">
        <ele>423</ele>
        <time>2000-01-01T07:39:29.000Z</time>
      </trkpt>
      <trkpt lat="47.31326" lon="6.16625">
        <ele>424</ele>
        <time>2000-01-01T07:39:39.000Z</time>
      </trkpt>
      <trkpt lat="47.31328" lon="6.16651">
        <ele>428.2</ele>
        <time>2000-01-01T07:39:49.000Z</time>
      </trkpt>
      <trkpt lat="47.31338" lon="6.16691">
        <ele>426</ele>
        <time>2000-01-01T07:39:59.000Z</time>
      </trkpt>
      <trkpt lat="47.31358" lon="6.16724">
        <ele>431</ele>
        <time>2000-01-01T07:40:09.000Z</time>
      </trkpt>
      <trkpt lat="47.31374" lon="6.16752">
        <ele>436</ele>
        <time>2000-01-01T07:40:19.000Z</time>
      </trkpt>
      <trkpt lat="47.31395" lon="6.16787">
        <ele>439</ele>
        <time>2000-01-01T07:40:29.000Z</time>
      </trkpt>
      <trkpt lat="47.31414" lon="6.16796">
        <ele>443</ele>
        <time>2000-01-01T07:40:39.000Z</time>
      </trkpt>
      <trkpt lat="47.31431" lon="6.16741">
        <ele>450</ele>
        <time>2000-01-01T07:40:49.000Z</time>
      </trkpt>
      <trkpt lat="47.31452" lon="6.16701">
        <ele>454</ele>
        <time>2000-01-01T07:40:59.000Z</time>
      </trkpt>
      <trkpt lat="47.31462" lon="6.1667">
        <ele>455</ele>
        <time>2000-01-01T07:41:09.000Z</time>
      </trkpt>
      <trkpt lat="47.31472" lon="6.16639">
        <ele>456</ele>
        <time>2000-01-01T07:41:19.000Z</time>
      </trkpt>
      <trkpt lat="47.31493" lon="6.16616">
        <ele>457</ele>
        <time>2000-01-01T07:41:29.000Z</time>
      </trkpt>
      <trkpt lat="47.31521" lon="6.16585">
        <ele>458</ele>
        <time>2000-01-01T07:41:39.000Z</time>
      </trkpt>
      <trkpt lat="47.31565" lon="6.16584">
        <ele>458</ele>
        <time>2000-01-01T07:41:49.000Z</time>
      </trkpt>
      <trkpt lat="47.31573" lon="6.16565">
        <ele>460.3</ele>
        <time>2000-01-01T07:41:59.000Z</time>
      </trkpt>
      <trkpt lat="47.31579" lon="6.16542">
        <ele>460</ele>
        <time>2000-01-01T07:42:09.000Z</time>
      </trkpt>
      <trkpt lat="47.31607" lon="6.16512">
        <ele>463</ele>
        <time>2000-01-01T07:42:19.000Z</time>
      </trkpt>
      <trkpt lat="47.31624" lon="6.16476">
        <ele>466</ele>
        <time>2000-01-01T07:42:29.000Z</time>
      </trkpt>
      <trkpt lat="47.31639" lon="6.16446">
        <ele>468</ele>
        <time>2000-01-01T07:42:39.000Z</time>
      </trkpt>
      <trkpt lat="47.31656" lon="6.1641">
        <ele>469</ele>
        <time>2000-01-01T07:42:49.000Z</time>
      </trkpt>
      <trkpt lat="47.31668" lon="6.16403">
        <ele>467.8</ele>
        <time>2000-01-01T07:42:59.000Z</time>
      </trkpt>
      <trkpt lat="47.31687" lon="6.16357">
        <ele>469</ele>
        <time>2000-01-01T07:43:09.000Z</time>
      </trkpt>
      <trkpt lat="47.31686" lon="6.1629">
        <ele>472</ele>
        <time>2000-01-01T07:43:19.000Z</time>
      </trkpt>
      <trkpt lat="47.31677" lon="6.16225">
        <ele>474</ele>
        <time>2000-01-01T07:43:29.000Z</time>
      </trkpt>
      <trkpt lat="47.31663" lon="6.16166">
        <ele>476</ele>
        <time>2000-01-01T07:43:39.000Z</time>
      </trkpt>
      <trkpt lat="47.31653" lon="6.16101">
        <ele>477</ele>
        <time>2000-01-01T07:43:49.000Z</time>
      </trkpt>
      <trkpt lat="47.3164" lon="6.16064">
        <ele>480</ele>
        <time>2000-01-01T07:43:59.000Z</time>
      </trkpt>
      <trkpt lat="47.31622" lon="6.16024">
        <ele>482</ele>
        <time>2000-01-01T07:44:09.000Z</time>
      </trkpt>
      <trkpt lat="47.31622" lon="6.16006">
        <ele>482.9</ele>
        <time>2000-01-01T07:44:19.000Z</time>
      </trkpt>
      <trkpt lat="47.31629" lon="6.15985">
        <ele>483</ele>
        <time>2000-01-01T07:44:29.000Z</time>
      </trkpt>
      <trkpt lat="47.31643" lon="6.15962">
        <ele>484</ele>
        <time>2000-01-01T07:44:39.000Z</time>
      </trkpt>
      <trkpt lat="47.31645" lon="6.1592">
        <ele>489</ele>
        <time>2000-01-01T07:44:49.000Z</time>
      </trkpt>
      <trkpt lat="47.31655" lon="6.15882">
        <ele>490</ele>
        <time>2000-01-01T07:44:59.000Z</time>
      </trkpt>
      <trkpt lat="47.31672" lon="6.15822">
        <ele>491</ele>
        <time>2000-01-01T07:45:09.000Z</time>
      </trkpt>
      <trkpt lat="47.31672" lon="6.15807">
        <ele>491.9</ele>
        <time>2000-01-01T07:45:19.000Z</time>
      </trkpt>
      <trkpt lat="47.31614" lon="6.15597">
        <ele>497</ele>
        <time>2000-01-01T07:45:29.000Z</time>
      </trkpt>
      <trkpt lat="47.31618" lon="6.15555">
        <ele>498</ele>
        <time>2000-01-01T07:45:39.000Z</time>
      </trkpt>
      <trkpt lat="47.31621" lon="6.15521">
        <ele>499</ele>
        <time>2000-01-01T07:45:49.000Z</time>
      </trkpt>
      <trkpt lat="47.31625" lon="6.15484">
        <ele>501</ele>
        <time>2000-01-01T07:45:59.000Z</time>
      </trkpt>
      <trkpt lat="47.31626" lon="6.15435">
        <ele>500</ele>
        <time>2000-01-01T07:46:09.000Z</time>
      </trkpt>
      <trkpt lat="47.31626" lon="6.15386">
        <ele>499</ele>
        <time>2000-01-01T07:46:19.000Z</time>
      </trkpt>
      <trkpt lat="47.31626" lon="6.15349">
        <ele>495</ele>
        <time>2000-01-01T07:46:29.000Z</time>
      </trkpt>
      <trkpt lat="47.31627" lon="6.15305">
        <ele>494</ele>
        <time>2000-01-01T07:46:39.000Z</time>
      </trkpt>
      <trkpt lat="47.31633" lon="6.15259">
        <ele>494</ele>
        <time>2000-01-01T07:46:49.000Z</time>
      </trkpt>
      <trkpt lat="47.31652" lon="6.15239">
        <ele>495</ele>
        <time>2000-01-01T07:46:59.000Z</time>
      </trkpt>
      <trkpt lat="47.31661" lon="6.15206">
        <ele>496</ele>
        <time>2000-01-01T07:47:09.000Z</time>
      </trkpt>
      <trkpt lat="47.31671" lon="6.15169">
        <ele>499</ele>
        <time>2000-01-01T07:47:19.000Z</time>
      </trkpt>
      <trkpt lat="47.31671" lon="6.15135">
        <ele>500</ele>
        <time>2000-01-01T07:47:29.000Z</time>
      </trkpt>
      <trkpt lat="47.31671" lon="6.15101">
        <ele>500</ele>
        <time>2000-01-01T07:47:39.000Z</time>
      </trkpt>
      <trkpt lat="47.31663" lon="6.15045">
        <ele>500</ele>
        <time>2000-01-01T07:47:49.000Z</time>
      </trkpt>
      <trkpt lat="47.3166" lon="6.15006">
        <ele>500</ele>
        <time>2000-01-01T07:47:59.000Z</time>
      </trkpt>
      <trkpt lat="47.31657" lon="6.14953">
        <ele>498</ele>
        <time>2000-01-01T07:48:09.000Z</time>
      </trkpt>
      <trkpt lat="47.31659" lon="6.1491">
        <ele>497</ele>
        <time>2000-01-01T07:48:19.000Z</time>
      </trkpt>
      <trkpt lat="47.31661" lon="6.14875">
        <ele>495</ele>
        <time>2000-01-01T07:48:29.000Z</time>
      </trkpt>
      <trkpt lat="47.31663" lon="6.14836">
        <ele>493</ele>
        <time>2000-01-01T07:48:39.000Z</time>
      </trkpt>
      <trkpt lat="47.31661" lon="6.14802">
        <ele>491</ele>
        <time>2000-01-01T07:48:49.000Z</time>
      </trkpt>
      <trkpt lat="47.31659" lon="6.14767">
        <ele>488</ele>
        <time>2000-01-01T07:48:59.000Z</time>
      </trkpt>
      <trkpt lat="47.31652" lon="6.14715">
        <ele>484</ele>
        <time>2000-01-01T07:49:09.000Z</time>
      </trkpt>
      <trkpt lat="47.3164" lon="6.14677">
        <ele>483</ele>
        <time>2000-01-01T07:49:19.000Z</time>
      </trkpt>
      <trkpt lat="47.3163" lon="6.14646">
        <ele>482</ele>
        <time>2000-01-01T07:49:29.000Z</time>
      </trkpt>
      <trkpt lat="47.3162" lon="6.14614">
        <ele>482</ele>
        <time>2000-01-01T07:49:39.000Z</time>
      </trkpt>
      <trkpt lat="47.31614" lon="6.14568">
        <ele>481</ele>
        <time>2000-01-01T07:49:49.000Z</time>
      </trkpt>
      <trkpt lat="47.31614" lon="6.14536">
        <ele>479</ele>
        <time>2000-01-01T07:49:59.000Z</time>
      </trkpt>
      <trkpt lat="47.31617" lon="6.14505">
        <ele>478</ele>
        <time>2000-01-01T07:50:09.000Z</time>
      </trkpt>
      <trkpt lat="47.31615" lon="6.14477">
        <ele>477</ele>
        <time>2000-01-01T07:50:19.000Z</time>
      </trkpt>
      <trkpt lat="47.31608" lon="6.14458">
        <ele>476.7</ele>
        <time>2000-01-01T07:50:29.000Z</time>
      </trkpt>
      <trkpt lat="47.31558" lon="6.14361">
        <ele>472</ele>
        <time>2000-01-01T07:50:39.000Z</time>
      </trkpt>
      <trkpt lat="47.31552" lon="6.14309">
        <ele>470</ele>
        <time>2000-01-01T07:50:49.000Z</time>
      </trkpt>
      <trkpt lat="47.31554" lon="6.14273">
        <ele>468</ele>
        <time>2000-01-01T07:50:59.000Z</time>
      </trkpt>
      <trkpt lat="47.31556" lon="6.14232">
        <ele>464</ele>
        <time>2000-01-01T07:51:09.000Z</time>
      </trkpt>
      <trkpt lat="47.31553" lon="6.14204">
        <ele>461</ele>
        <time>2000-01-01T07:51:19.000Z</time>
      </trkpt>
      <trkpt lat="47.3153" lon="6.14149">
        <ele>460</ele>
        <time>2000-01-01T07:51:29.000Z</time>
      </trkpt>
      <trkpt lat="47.31516" lon="6.1412">
        <ele>460</ele>
        <time>2000-01-01T07:51:39.000Z</time>
      </trkpt>
      <trkpt lat="47.31499" lon="6.14087">
        <ele>459</ele>
        <time>2000-01-01T07:51:49.000Z</time>
      </trkpt>
      <trkpt lat="47.31468" lon="6.14041">
        <ele>457</ele>
        <time>2000-01-01T07:51:59.000Z</time>
      </trkpt>
      <trkpt lat="47.31454" lon="6.1401">
        <ele>455</ele>
        <time>2000-01-01T07:52:09.000Z</time>
      </trkpt>
      <trkpt lat="47.31437" lon="6.13971">
        <ele>454</ele>
        <time>2000-01-01T07:52:19.000Z</time>
      </trkpt>
      <trkpt lat="47.31417" lon="6.13943">
        <ele>452</ele>
        <time>2000-01-01T07:52:29.000Z</time>
      </trkpt>
      <trkpt lat="47.31381" lon="6.13929">
        <ele>450</ele>
        <time>2000-01-01T07:52:39.000Z</time>
      </trkpt>
      <trkpt lat="47.31354" lon="6.13925">
        <ele>447</ele>
        <time>2000-01-01T07:52:49.000Z</time>
      </trkpt>
      <trkpt lat="47.31317" lon="6.1392">
        <ele>443</ele>
        <time>2000-01-01T07:52:59.000Z</time>
      </trkpt>
      <trkpt lat="47.31293" lon="6.13881">
        <ele>440</ele>
        <time>2000-01-01T07:53:09.000Z</time>
      </trkpt>
      <trkpt lat="47.31285" lon="6.13893">
        <ele>440.9</ele>
        <time>2000-01-01T07:53:19.000Z</time>
      </trkpt>
      <trkpt lat="47.31276" lon="6.13869">
        <ele>439</ele>
        <time>2000-01-01T07:53:29.000Z</time>
      </trkpt>
      <trkpt lat="47.31291" lon="6.13818">
        <ele>439</ele>
        <time>2000-01-01T07:53:39.000Z</time>
      </trkpt>
      <trkpt lat="47.31304" lon="6.13789">
        <ele>439</ele>
        <time>2000-01-01T07:53:49.000Z</time>
      </trkpt>
      <trkpt lat="47.31317" lon="6.13731">
        <ele>441</ele>
        <time>2000-01-01T07:53:59.000Z</time>
      </trkpt>
      <trkpt lat="47.31333" lon="6.13716">
        <ele>441</ele>
        <time>2000-01-01T07:54:09.000Z</time>
      </trkpt>
      <trkpt lat="47.31333" lon="6.13692">
        <ele>442</ele>
        <time>2000-01-01T07:54:19.000Z</time>
      </trkpt>
      <trkpt lat="47.31348" lon="6.13674">
        <ele>441</ele>
        <time>2000-01-01T07:54:29.000Z</time>
      </trkpt>
      <trkpt lat="47.31377" lon="6.13651">
        <ele>437</ele>
        <time>2000-01-01T07:54:39.000Z</time>
      </trkpt>
      <trkpt lat="47.3139" lon="6.13649">
        <ele>435.2</ele>
        <time>2000-01-01T07:54:49.000Z</time>
      </trkpt>
      <trkpt lat="47.31387" lon="6.13639">
        <ele>437</ele>
        <time>2000-01-01T07:54:59.000Z</time>
      </trkpt>
      <trkpt lat="47.31378" lon="6.13618">
        <ele>436.1</ele>
        <time>2000-01-01T07:55:09.000Z</time>
      </trkpt>
      <trkpt lat="47.31362" lon="6.13579">
        <ele>437</ele>
        <time>2000-01-01T07:55:19.000Z</time>
      </trkpt>
      <trkpt lat="47.31342" lon="6.13532">
        <ele>434</ele>
        <time>2000-01-01T07:55:29.000Z</time>
      </trkpt>
      <trkpt lat="47.31326" lon="6.13476">
        <ele>426</ele>
        <time>2000-01-01T07:55:39.000Z</time>
      </trkpt>
      <trkpt lat="47.31308" lon="6.13449">
        <ele>426</ele>
        <time>2000-01-01T07:55:49.000Z</time>
      </trkpt>
      <trkpt lat="47.31287" lon="6.13417">
        <ele>426</ele>
        <time>2000-01-01T07:55:59.000Z</time>
      </trkpt>
      <trkpt lat="47.31273" lon="6.13376">
        <ele>426</ele>
        <time>2000-01-01T07:56:09.000Z</time>
      </trkpt>
      <trkpt lat="47.31258" lon="6.13335">
        <ele>426</ele>
        <time>2000-01-01T07:56:19.000Z</time>
      </trkpt>
      <trkpt lat="47.31241" lon="6.13287">
        <ele>426</ele>
        <time>2000-01-01T07:56:29.000Z</time>
      </trkpt>
      <trkpt lat="47.31227" lon="6.13258">
        <ele>427</ele>
        <time>2000-01-01T07:56:39.000Z</time>
      </trkpt>
      <trkpt lat="47.31211" lon="6.13226">
        <ele>429</ele>
        <time>2000-01-01T07:56:49.000Z</time>
      </trkpt>
      <trkpt lat="47.3121" lon="6.13199">
        <ele>430</ele>
        <time>2000-01-01T07:56:59.000Z</time>
      </trkpt>
      <trkpt lat="47.31221" lon="6.13153">
        <ele>431</ele>
        <time>2000-01-01T07:57:09.000Z</time>
      </trkpt>
      <trkpt lat="47.31222" lon="6.13102">
        <ele>432</ele>
        <time>2000-01-01T07:57:19.000Z</time>
      </trkpt>
      <trkpt lat="47.3122" lon="6.13068">
        <ele>432</ele>
        <time>2000-01-01T07:57:29.000Z</time>
      </trkpt>
      <trkpt lat="47.31218" lon="6.13034">
        <ele>431</ele>
        <time>2000-01-01T07:57:39.000Z</time>
      </trkpt>
      <trkpt lat="47.31218" lon="6.12984">
        <ele>430</ele>
        <time>2000-01-01T07:57:49.000Z</time>
      </trkpt>
      <trkpt lat="47.31212" lon="6.12945">
        <ele>429</ele>
        <time>2000-01-01T07:57:59.000Z</time>
      </trkpt>
      <trkpt lat="47.31201" lon="6.12902">
        <ele>429</ele>
        <time>2000-01-01T07:58:09.000Z</time>
      </trkpt>
      <trkpt lat="47.31189" lon="6.12867">
        <ele>429</ele>
        <time>2000-01-01T07:58:19.000Z</time>
      </trkpt>
      <trkpt lat="47.31172" lon="6.12816">
        <ele>426</ele>
        <time>2000-01-01T07:58:29.000Z</time>
      </trkpt>
      <trkpt lat="47.31161" lon="6.12773">
        <ele>422</ele>
        <time>2000-01-01T07:58:39.000Z</time>
      </trkpt>
      <trkpt lat="47.3115" lon="6.1273">
        <ele>422</ele>
        <time>2000-01-01T07:58:49.000Z</time>
      </trkpt>
      <trkpt lat="47.31138" lon="6.12682">
        <ele>423</ele>
        <time>2000-01-01T07:58:59.000Z</time>
      </trkpt>
      <trkpt lat="47.31113" lon="6.12639">
        <ele>428</ele>
        <time>2000-01-01T07:59:09.000Z</time>
      </trkpt>
      <trkpt lat="47.31099" lon="6.12606">
        <ele>430</ele>
        <time>2000-01-01T07:59:19.000Z</time>
      </trkpt>
      <trkpt lat="47.31079" lon="6.12562">
        <ele>431</ele>
        <time>2000-01-01T07:59:29.000Z</time>
      </trkpt>
      <trkpt lat="47.31059" lon="6.12505">
        <ele>433</ele>
        <time>2000-01-01T07:59:39.000Z</time>
      </trkpt>
      <trkpt lat="47.31037" lon="6.12469">
        <ele>438</ele>
        <time>2000-01-01T07:59:49.000Z</time>
      </trkpt>
      <trkpt lat="47.31015" lon="6.12417">
        <ele>441</ele>
        <time>2000-01-01T07:59:59.000Z</time>
      </trkpt>
      <trkpt lat="47.31007" lon="6.12384">
        <ele>442</ele>
        <time>2000-01-01T08:00:09.000Z</time>
      </trkpt>
      <trkpt lat="47.30999" lon="6.12347">
        <ele>443</ele>
        <time>2000-01-01T08:00:19.000Z</time>
      </trkpt>
      <trkpt lat="47.3098" lon="6.12302">
        <ele>447</ele>
        <time>2000-01-01T08:00:29.000Z</time>
      </trkpt>
      <trkpt lat="47.30961" lon="6.1228">
        <ele>447</ele>
        <time>2000-01-01T08:00:39.000Z</time>
      </trkpt>
      <trkpt lat="47.3094" lon="6.12256">
        <ele>448</ele>
        <time>2000-01-01T08:00:49.000Z</time>
      </trkpt>
      <trkpt lat="47.30908" lon="6.12209">
        <ele>448</ele>
        <time>2000-01-01T08:00:59.000Z</time>
      </trkpt>
      <trkpt lat="47.3089" lon="6.12159">
        <ele>446</ele>
        <time>2000-01-01T08:01:09.000Z</time>
      </trkpt>
      <trkpt lat="47.30881" lon="6.1211">
        <ele>444</ele>
        <time>2000-01-01T08:01:19.000Z</time>
      </trkpt>
      <trkpt lat="47.30883" lon="6.12076">
        <ele>444</ele>
        <time>2000-01-01T08:01:29.000Z</time>
      </trkpt>
      <trkpt lat="47.30912" lon="6.12048">
        <ele>443</ele>
        <time>2000-01-01T08:01:39.000Z</time>
      </trkpt>
      <trkpt lat="47.30926" lon="6.12007">
        <ele>443</ele>
        <time>2000-01-01T08:01:49.000Z</time>
      </trkpt>
      <trkpt lat="47.30921" lon="6.11958">
        <ele>443</ele>
        <time>2000-01-01T08:01:59.000Z</time>
      </trkpt>
      <trkpt lat="47.30916" lon="6.11909">
        <ele>443</ele>
        <time>2000-01-01T08:02:09.000Z</time>
      </trkpt>
      <trkpt lat="47.30913" lon="6.11871">
        <ele>443</ele>
        <time>2000-01-01T08:02:19.000Z</time>
      </trkpt>
      <trkpt lat="47.30908" lon="6.11822">
        <ele>443</ele>
        <time>2000-01-01T08:02:29.000Z</time>
      </trkpt>
      <trkpt lat="47.30898" lon="6.11784">
        <ele>442</ele>
        <time>2000-01-01T08:02:39.000Z</time>
      </trkpt>
      <trkpt lat="47.30883" lon="6.11724">
        <ele>441</ele>
        <time>2000-01-01T08:02:49.000Z</time>
      </trkpt>
      <trkpt lat="47.30893" lon="6.11691">
        <ele>440</ele>
        <time>2000-01-01T08:02:59.000Z</time>
      </trkpt>
      <trkpt lat="47.30904" lon="6.11655">
        <ele>440</ele>
        <time>2000-01-01T08:03:09.000Z</time>
      </trkpt>
      <trkpt lat="47.30898" lon="6.11617">
        <ele>441</ele>
        <time>2000-01-01T08:03:19.000Z</time>
      </trkpt>
      <trkpt lat="47.3089" lon="6.11564">
        <ele>440</ele>
        <time>2000-01-01T08:03:29.000Z</time>
      </trkpt>
      <trkpt lat="47.30889" lon="6.11527">
        <ele>440</ele>
        <time>2000-01-01T08:03:39.000Z</time>
      </trkpt>
      <trkpt lat="47.30899" lon="6.11497">
        <ele>435</ele>
        <time>2000-01-01T08:03:49.000Z</time>
      </trkpt>
      <trkpt lat="47.3091" lon="6.11467">
        <ele>431</ele>
        <time>2000-01-01T08:03:59.000Z</time>
      </trkpt>
      <trkpt lat="47.30916" lon="6.11432">
        <ele>428</ele>
        <time>2000-01-01T08:04:09.000Z</time>
      </trkpt>
      <trkpt lat="47.30922" lon="6.11392">
        <ele>426</ele>
        <time>2000-01-01T08:04:19.000Z</time>
      </trkpt>
      <trkpt lat="47.30916" lon="6.1135">
        <ele>430</ele>
        <time>2000-01-01T08:04:29.000Z</time>
      </trkpt>
      <trkpt lat="47.30889" lon="6.1132">
        <ele>434</ele>
        <time>2000-01-01T08:04:39.000Z</time>
      </trkpt>
      <trkpt lat="47.30863" lon="6.1129">
        <ele>436</ele>
        <time>2000-01-01T08:04:49.000Z</time>
      </trkpt>
      <trkpt lat="47.30842" lon="6.11267">
        <ele>436</ele>
        <time>2000-01-01T08:04:59.000Z</time>
      </trkpt>
      <trkpt lat="47.30816" lon="6.11238">
        <ele>436</ele>
        <time>2000-01-01T08:05:09.000Z</time>
      </trkpt>
      <trkpt lat="47.30804" lon="6.11217">
        <ele>436</ele>
        <time>2000-01-01T08:05:19.000Z</time>
      </trkpt>
      <trkpt lat="47.30791" lon="6.11184">
        <ele>436</ele>
        <time>2000-01-01T08:05:29.000Z</time>
      </trkpt>
      <trkpt lat="47.30778" lon="6.11134">
        <ele>434</ele>
        <time>2000-01-01T08:05:39.000Z</time>
      </trkpt>
      <trkpt lat="47.30766" lon="6.11084">
        <ele>432</ele>
        <time>2000-01-01T08:05:49.000Z</time>
      </trkpt>
      <trkpt lat="47.30754" lon="6.11034">
        <ele>430</ele>
        <time>2000-01-01T08:05:59.000Z</time>
      </trkpt>
      <trkpt lat="47.30744" lon="6.10996">
        <ele>429</ele>
        <time>2000-01-01T08:06:09.000Z</time>
      </trkpt>
      <trkpt lat="47.30731" lon="6.10943">
        <ele>428</ele>
        <time>2000-01-01T08:06:19.000Z</time>
      </trkpt>
      <trkpt lat="47.30727" lon="6.10896">
        <ele>426</ele>
        <time>2000-01-01T08:06:29.000Z</time>
      </trkpt>
      <trkpt lat="47.30723" lon="6.10848">
        <ele>425</ele>
        <time>2000-01-01T08:06:39.000Z</time>
      </trkpt>
      <trkpt lat="47.30718" lon="6.10782">
        <ele>423</ele>
        <time>2000-01-01T08:06:49.000Z</time>
      </trkpt>
      <trkpt lat="47.30709" lon="6.10738">
        <ele>421</ele>
        <time>2000-01-01T08:06:59.000Z</time>
      </trkpt>
      <trkpt lat="47.307" lon="6.10693">
        <ele>421</ele>
        <time>2000-01-01T08:07:09.000Z</time>
      </trkpt>
      <trkpt lat="47.30689" lon="6.10639">
        <ele>421</ele>
        <time>2000-01-01T08:07:19.000Z</time>
      </trkpt>
      <trkpt lat="47.30685" lon="6.10609">
        <ele>421</ele>
        <time>2000-01-01T08:07:29.000Z</time>
      </trkpt>
      <trkpt lat="47.30698" lon="6.10575">
        <ele>420</ele>
        <time>2000-01-01T08:07:39.000Z</time>
      </trkpt>
      <trkpt lat="47.30717" lon="6.10528">
        <ele>417</ele>
        <time>2000-01-01T08:07:49.000Z</time>
      </trkpt>
      <trkpt lat="47.30725" lon="6.10474">
        <ele>413</ele>
        <time>2000-01-01T08:07:59.000Z</time>
      </trkpt>
      <trkpt lat="47.30733" lon="6.10421">
        <ele>409</ele>
        <time>2000-01-01T08:08:09.000Z</time>
      </trkpt>
      <trkpt lat="47.30741" lon="6.10367">
        <ele>405</ele>
        <time>2000-01-01T08:08:19.000Z</time>
      </trkpt>
      <trkpt lat="47.3075" lon="6.10314">
        <ele>402</ele>
        <time>2000-01-01T08:08:29.000Z</time>
      </trkpt>
      <trkpt lat="47.30755" lon="6.10279">
        <ele>398</ele>
        <time>2000-01-01T08:08:39.000Z</time>
      </trkpt>
      <trkpt lat="47.30761" lon="6.10239">
        <ele>394</ele>
        <time>2000-01-01T08:08:49.000Z</time>
      </trkpt>
      <trkpt lat="47.30757" lon="6.10202">
        <ele>393</ele>
        <time>2000-01-01T08:08:59.000Z</time>
      </trkpt>
      <trkpt lat="47.30753" lon="6.10157">
        <ele>389</ele>
        <time>2000-01-01T08:09:09.000Z</time>
      </trkpt>
      <trkpt lat="47.30753" lon="6.10113">
        <ele>386</ele>
        <time>2000-01-01T08:09:19.000Z</time>
      </trkpt>
      <trkpt lat="47.30753" lon="6.10076">
        <ele>383</ele>
        <time>2000-01-01T08:09:29.000Z</time>
      </trkpt>
      <trkpt lat="47.30753" lon="6.10032">
        <ele>380</ele>
        <time>2000-01-01T08:09:39.000Z</time>
      </trkpt>
      <trkpt lat="47.30755" lon="6.09997">
        <ele>376</ele>
        <time>2000-01-01T08:09:49.000Z</time>
      </trkpt>
      <trkpt lat="47.30758" lon="6.09958">
        <ele>372</ele>
        <time>2000-01-01T08:09:59.000Z</time>
      </trkpt>
      <trkpt lat="47.30756" lon="6.09919">
        <ele>368</ele>
        <time>2000-01-01T08:10:09.000Z</time>
      </trkpt>
      <trkpt lat="47.30753" lon="6.09867">
        <ele>364</ele>
        <time>2000-01-01T08:10:19.000Z</time>
      </trkpt>
      <trkpt lat="47.30755" lon="6.09823">
        <ele>362</ele>
        <time>2000-01-01T08:10:29.000Z</time>
      </trkpt>
      <trkpt lat="47.30757" lon="6.09787">
        <ele>359</ele>
        <time>2000-01-01T08:10:39.000Z</time>
      </trkpt>
      <trkpt lat="47.30759" lon="6.09744">
        <ele>355</ele>
        <time>2000-01-01T08:10:49.000Z</time>
      </trkpt>
      <trkpt lat="47.3077" lon="6.09721">
        <ele>352</ele>
        <time>2000-01-01T08:10:59.000Z</time>
      </trkpt>
      <trkpt lat="47.30805" lon="6.09708">
        <ele>347</ele>
        <time>2000-01-01T08:11:09.000Z</time>
      </trkpt>
      <trkpt lat="47.30824" lon="6.09668">
        <ele>346</ele>
        <time>2000-01-01T08:11:19.000Z</time>
      </trkpt>
      <trkpt lat="47.30835" lon="6.09632">
        <ele>346</ele>
        <time>2000-01-01T08:11:29.000Z</time>
      </trkpt>
      <trkpt lat="47.30852" lon="6.09579">
        <ele>346</ele>
        <time>2000-01-01T08:11:39.000Z</time>
      </trkpt>
      <trkpt lat="47.30863" lon="6.09541">
        <ele>348</ele>
        <time>2000-01-01T08:11:49.000Z</time>
      </trkpt>
      <trkpt lat="47.30879" lon="6.09482">
        <ele>350</ele>
        <time>2000-01-01T08:11:59.000Z</time>
      </trkpt>
      <trkpt lat="47.30886" lon="6.09444">
        <ele>351</ele>
        <time>2000-01-01T08:12:09.000Z</time>
      </trkpt>
      <trkpt lat="47.30895" lon="6.09393">
        <ele>354</ele>
        <time>2000-01-01T08:12:19.000Z</time>
      </trkpt>
      <trkpt lat="47.30922" lon="6.09362">
        <ele>354</ele>
        <time>2000-01-01T08:12:29.000Z</time>
      </trkpt>
      <trkpt lat="47.30909" lon="6.09327">
        <ele>355</ele>
        <time>2000-01-01T08:12:39.000Z</time>
      </trkpt>
      <trkpt lat="47.30892" lon="6.09279">
        <ele>355</ele>
        <time>2000-01-01T08:12:49.000Z</time>
      </trkpt>
      <trkpt lat="47.30901" lon="6.09248">
        <ele>356</ele>
        <time>2000-01-01T08:12:59.000Z</time>
      </trkpt>
      <trkpt lat="47.30905" lon="6.09201">
        <ele>357</ele>
        <time>2000-01-01T08:13:09.000Z</time>
      </trkpt>
      <trkpt lat="47.30904" lon="6.09162">
        <ele>357</ele>
        <time>2000-01-01T08:13:19.000Z</time>
      </trkpt>
      <trkpt lat="47.30903" lon="6.09109">
        <ele>356</ele>
        <time>2000-01-01T08:13:29.000Z</time>
      </trkpt>
      <trkpt lat="47.30888" lon="6.09078">
        <ele>355</ele>
        <time>2000-01-01T08:13:39.000Z</time>
      </trkpt>
      <trkpt lat="47.30914" lon="6.09066">
        <ele>355</ele>
        <time>2000-01-01T08:13:49.000Z</time>
      </trkpt>
      <trkpt lat="47.30952" lon="6.09049">
        <ele>352</ele>
        <time>2000-01-01T08:13:59.000Z</time>
      </trkpt>
      <trkpt lat="47.30984" lon="6.09026">
        <ele>351</ele>
        <time>2000-01-01T08:14:09.000Z</time>
      </trkpt>
      <trkpt lat="47.31005" lon="6.09004">
        <ele>350</ele>
        <time>2000-01-01T08:14:19.000Z</time>
      </trkpt>
      <trkpt lat="47.31031" lon="6.08976">
        <ele>349</ele>
        <time>2000-01-01T08:14:29.000Z</time>
      </trkpt>
      <trkpt lat="47.31055" lon="6.08953">
        <ele>348</ele>
        <time>2000-01-01T08:14:39.000Z</time>
      </trkpt>
      <trkpt lat="47.31074" lon="6.08934">
        <ele>347</ele>
        <time>2000-01-01T08:14:49.000Z</time>
      </trkpt>
      <trkpt lat="47.31095" lon="6.08914">
        <ele>346</ele>
        <time>2000-01-01T08:14:59.000Z</time>
      </trkpt>
      <trkpt lat="47.31107" lon="6.08884">
        <ele>346</ele>
        <time>2000-01-01T08:15:09.000Z</time>
      </trkpt>
      <trkpt lat="47.31106" lon="6.08837">
        <ele>346</ele>
        <time>2000-01-01T08:15:19.000Z</time>
      </trkpt>
      <trkpt lat="47.31105" lon="6.0879">
        <ele>345</ele>
        <time>2000-01-01T08:15:29.000Z</time>
      </trkpt>
      <trkpt lat="47.31103" lon="6.08729">
        <ele>344</ele>
        <time>2000-01-01T08:15:39.000Z</time>
      </trkpt>
      <trkpt lat="47.31094" lon="6.08696">
        <ele>343</ele>
        <time>2000-01-01T08:15:49.000Z</time>
      </trkpt>
      <trkpt lat="47.31084" lon="6.08658">
        <ele>342</ele>
        <time>2000-01-01T08:15:59.000Z</time>
      </trkpt>
      <trkpt lat="47.31085" lon="6.08624">
        <ele>341</ele>
        <time>2000-01-01T08:16:09.000Z</time>
      </trkpt>
      <trkpt lat="47.31106" lon="6.08591">
        <ele>341</ele>
        <time>2000-01-01T08:16:19.000Z</time>
      </trkpt>
      <trkpt lat="47.31122" lon="6.0856">
        <ele>341</ele>
        <time>2000-01-01T08:16:29.000Z</time>
      </trkpt>
      <trkpt lat="47.31143" lon="6.0852">
        <ele>339</ele>
        <time>2000-01-01T08:16:39.000Z</time>
      </trkpt>
      <trkpt lat="47.31128" lon="6.08491">
        <ele>338</ele>
        <time>2000-01-01T08:16:49.000Z</time>
      </trkpt>
      <trkpt lat="47.3111" lon="6.08456">
        <ele>336</ele>
        <time>2000-01-01T08:16:59.000Z</time>
      </trkpt>
      <trkpt lat="47.31099" lon="6.08426">
        <ele>335</ele>
        <time>2000-01-01T08:17:09.000Z</time>
      </trkpt>
      <trkpt lat="47.31088" lon="6.08395">
        <ele>333</ele>
        <time>2000-01-01T08:17:19.000Z</time>
      </trkpt>
      <trkpt lat="47.31087" lon="6.08347">
        <ele>332</ele>
        <time>2000-01-01T08:17:29.000Z</time>
      </trkpt>
      <trkpt lat="47.31078" lon="6.08312">
        <ele>330</ele>
        <time>2000-01-01T08:17:39.000Z</time>
      </trkpt>
      <trkpt lat="47.31066" lon="6.08266">
        <ele>330</ele>
        <time>2000-01-01T08:17:49.000Z</time>
      </trkpt>
      <trkpt lat="47.3105" lon="6.08219">
        <ele>330</ele>
        <time>2000-01-01T08:17:59.000Z</time>
      </trkpt>
      <trkpt lat="47.31033" lon="6.08171">
        <ele>332</ele>
        <time>2000-01-01T08:18:09.000Z</time>
      </trkpt>
      <trkpt lat="47.31017" lon="6.08124">
        <ele>333</ele>
        <time>2000-01-01T08:18:19.000Z</time>
      </trkpt>
      <trkpt lat="47.31005" lon="6.08089">
        <ele>333</ele>
        <time>2000-01-01T08:18:29.000Z</time>
      </trkpt>
      <trkpt lat="47.30988" lon="6.0804">
        <ele>333</ele>
        <time>2000-01-01T08:18:39.000Z</time>
      </trkpt>
      <trkpt lat="47.31004" lon="6.07987">
        <ele>334</ele>
        <time>2000-01-01T08:18:49.000Z</time>
      </trkpt>
      <trkpt lat="47.30992" lon="6.07954">
        <ele>334</ele>
        <time>2000-01-01T08:18:59.000Z</time>
      </trkpt>
      <trkpt lat="47.30977" lon="6.07913">
        <ele>334</ele>
        <time>2000-01-01T08:19:09.000Z</time>
      </trkpt>
      <trkpt lat="47.30961" lon="6.07886">
        <ele>334</ele>
        <time>2000-01-01T08:19:19.000Z</time>
      </trkpt>
      <trkpt lat="47.30943" lon="6.07857">
        <ele>334</ele>
        <time>2000-01-01T08:19:29.000Z</time>
      </trkpt>
      <trkpt lat="47.3097" lon="6.07838">
        <ele>334</ele>
        <time>2000-01-01T08:19:39.000Z</time>
      </trkpt>
      <trkpt lat="47.30994" lon="6.07823">
        <ele>334</ele>
        <time>2000-01-01T08:19:49.000Z</time>
      </trkpt>
      <trkpt lat="47.31023" lon="6.07803">
        <ele>334</ele>
        <time>2000-01-01T08:19:59.000Z</time>
      </trkpt>
      <trkpt lat="47.31053" lon="6.07794">
        <ele>335</ele>
        <time>2000-01-01T08:20:09.000Z</time>
      </trkpt>
      <trkpt lat="47.31084" lon="6.07784">
        <ele>336</ele>
        <time>2000-01-01T08:20:19.000Z</time>
      </trkpt>
      <trkpt lat="47.31117" lon="6.07774">
        <ele>336</ele>
        <time>2000-01-01T08:20:29.000Z</time>
      </trkpt>
      <trkpt lat="47.31115" lon="6.07731">
        <ele>335</ele>
        <time>2000-01-01T08:20:39.000Z</time>
      </trkpt>
      <trkpt lat="47.31114" lon="6.07696">
        <ele>334</ele>
        <time>2000-01-01T08:20:49.000Z</time>
      </trkpt>
      <trkpt lat="47.31112" lon="6.07658">
        <ele>333</ele>
        <time>2000-01-01T08:20:59.000Z</time>
      </trkpt>
      <trkpt lat="47.31124" lon="6.07622">
        <ele>333</ele>
        <time>2000-01-01T08:21:09.000Z</time>
      </trkpt>
      <trkpt lat="47.31143" lon="6.07568">
        <ele>337</ele>
        <time>2000-01-01T08:21:19.000Z</time>
      </trkpt>
      <trkpt lat="47.3115" lon="6.07531">
        <ele>339</ele>
        <time>2000-01-01T08:21:29.000Z</time>
      </trkpt>
      <trkpt lat="47.31159" lon="6.07483">
        <ele>343</ele>
        <time>2000-01-01T08:21:39.000Z</time>
      </trkpt>
      <trkpt lat="47.31165" lon="6.07434">
        <ele>347</ele>
        <time>2000-01-01T08:21:49.000Z</time>
      </trkpt>
      <trkpt lat="47.31171" lon="6.07386">
        <ele>350</ele>
        <time>2000-01-01T08:21:59.000Z</time>
      </trkpt>
      <trkpt lat="47.31176" lon="6.07348">
        <ele>351</ele>
        <time>2000-01-01T08:22:09.000Z</time>
      </trkpt>
      <trkpt lat="47.31182" lon="6.07299">
        <ele>354</ele>
        <time>2000-01-01T08:22:19.000Z</time>
      </trkpt>
      <trkpt lat="47.31209" lon="6.07331">
        <ele>356</ele>
        <time>2000-01-01T08:22:29.000Z</time>
      </trkpt>
      <trkpt lat="47.31235" lon="6.07363">
        <ele>360</ele>
        <time>2000-01-01T08:22:39.000Z</time>
      </trkpt>
      <trkpt lat="47.31256" lon="6.07389">
        <ele>362</ele>
        <time>2000-01-01T08:22:49.000Z</time>
      </trkpt>
      <trkpt lat="47.31288" lon="6.07427">
        <ele>366</ele>
        <time>2000-01-01T08:22:59.000Z</time>
      </trkpt>
      <trkpt lat="47.31331" lon="6.07427">
        <ele>369</ele>
        <time>2000-01-01T08:23:09.000Z</time>
      </trkpt>
      <trkpt lat="47.31356" lon="6.07404">
        <ele>370</ele>
        <time>2000-01-01T08:23:19.000Z</time>
      </trkpt>
      <trkpt lat="47.31378" lon="6.07385">
        <ele>373</ele>
        <time>2000-01-01T08:23:29.000Z</time>
      </trkpt>
      <trkpt lat="47.31403" lon="6.07362">
        <ele>379</ele>
        <time>2000-01-01T08:23:39.000Z</time>
      </trkpt>
      <trkpt lat="47.31423" lon="6.07404">
        <ele>380</ele>
        <time>2000-01-01T08:23:49.000Z</time>
      </trkpt>
      <trkpt lat="47.31443" lon="6.07445">
        <ele>382</ele>
        <time>2000-01-01T08:23:59.000Z</time>
      </trkpt>
      <trkpt lat="47.31463" lon="6.07487">
        <ele>384</ele>
        <time>2000-01-01T08:24:09.000Z</time>
      </trkpt>
      <trkpt lat="47.31486" lon="6.07534">
        <ele>385</ele>
        <time>2000-01-01T08:24:19.000Z</time>
      </trkpt>
      <trkpt lat="47.31514" lon="6.07545">
        <ele>390</ele>
        <time>2000-01-01T08:24:29.000Z</time>
      </trkpt>
      <trkpt lat="47.31537" lon="6.07554">
        <ele>394</ele>
        <time>2000-01-01T08:24:39.000Z</time>
      </trkpt>
      <trkpt lat="47.31561" lon="6.07564">
        <ele>400</ele>
        <time>2000-01-01T08:24:49.000Z</time>
      </trkpt>
      <trkpt lat="47.31589" lon="6.07584">
        <ele>403</ele>
        <time>2000-01-01T08:24:59.000Z</time>
      </trkpt>
      <trkpt lat="47.31618" lon="6.07604">
        <ele>409</ele>
        <time>2000-01-01T08:25:09.000Z</time>
      </trkpt>
      <trkpt lat="47.31652" lon="6.07629">
        <ele>412</ele>
        <time>2000-01-01T08:25:19.000Z</time>
      </trkpt>
      <trkpt lat="47.31663" lon="6.07675">
        <ele>416</ele>
        <time>2000-01-01T08:25:29.000Z</time>
      </trkpt>
      <trkpt lat="47.31673" lon="6.07722">
        <ele>416</ele>
        <time>2000-01-01T08:25:39.000Z</time>
      </trkpt>
      <trkpt lat="47.31681" lon="6.07757">
        <ele>417</ele>
        <time>2000-01-01T08:25:49.000Z</time>
      </trkpt>
      <trkpt lat="47.31691" lon="6.07799">
        <ele>417</ele>
        <time>2000-01-01T08:25:59.000Z</time>
      </trkpt>
      <trkpt lat="47.31704" lon="6.07842">
        <ele>419</ele>
        <time>2000-01-01T08:26:09.000Z</time>
      </trkpt>
      <trkpt lat="47.31718" lon="6.07884">
        <ele>420</ele>
        <time>2000-01-01T08:26:19.000Z</time>
      </trkpt>
      <trkpt lat="47.31735" lon="6.0794">
        <ele>425</ele>
        <time>2000-01-01T08:26:29.000Z</time>
      </trkpt>
      <trkpt lat="47.31751" lon="6.07996">
        <ele>426</ele>
        <time>2000-01-01T08:26:39.000Z</time>
      </trkpt>
      <trkpt lat="47.31767" lon="6.08051">
        <ele>428</ele>
        <time>2000-01-01T08:26:49.000Z</time>
      </trkpt>
      <trkpt lat="47.31782" lon="6.08107">
        <ele>430</ele>
        <time>2000-01-01T08:26:59.000Z</time>
      </trkpt>
      <trkpt lat="47.31798" lon="6.08163">
        <ele>432</ele>
        <time>2000-01-01T08:27:09.000Z</time>
      </trkpt>
      <trkpt lat="47.31814" lon="6.08219">
        <ele>434</ele>
        <time>2000-01-01T08:27:19.000Z</time>
      </trkpt>
      <trkpt lat="47.3183" lon="6.08275">
        <ele>436</ele>
        <time>2000-01-01T08:27:29.000Z</time>
      </trkpt>
      <trkpt lat="47.31846" lon="6.0833">
        <ele>439</ele>
        <time>2000-01-01T08:27:39.000Z</time>
      </trkpt>
      <trkpt lat="47.31861" lon="6.08386">
        <ele>441</ele>
        <time>2000-01-01T08:27:49.000Z</time>
      </trkpt>
      <trkpt lat="47.31872" lon="6.08424">
        <ele>440</ele>
        <time>2000-01-01T08:27:59.000Z</time>
      </trkpt>
      <trkpt lat="47.31889" lon="6.08483">
        <ele>441</ele>
        <time>2000-01-01T08:28:09.000Z</time>
      </trkpt>
      <trkpt lat="47.31905" lon="6.08535">
        <ele>443</ele>
        <time>2000-01-01T08:28:19.000Z</time>
      </trkpt>
      <trkpt lat="47.31922" lon="6.08587">
        <ele>444</ele>
        <time>2000-01-01T08:28:29.000Z</time>
      </trkpt>
      <trkpt lat="47.31938" lon="6.0864">
        <ele>446</ele>
        <time>2000-01-01T08:28:39.000Z</time>
      </trkpt>
      <trkpt lat="47.31955" lon="6.08692">
        <ele>449</ele>
        <time>2000-01-01T08:28:49.000Z</time>
      </trkpt>
      <trkpt lat="47.31971" lon="6.08744">
        <ele>452</ele>
        <time>2000-01-01T08:28:59.000Z</time>
      </trkpt>
      <trkpt lat="47.31983" lon="6.08782">
        <ele>453</ele>
        <time>2000-01-01T08:29:09.000Z</time>
      </trkpt>
      <trkpt lat="47.31993" lon="6.08813">
        <ele>454</ele>
        <time>2000-01-01T08:29:19.000Z</time>
      </trkpt>
      <trkpt lat="47.32003" lon="6.08844">
        <ele>455</ele>
        <time>2000-01-01T08:29:29.000Z</time>
      </trkpt>
      <trkpt lat="47.32017" lon="6.08894">
        <ele>457</ele>
        <time>2000-01-01T08:29:39.000Z</time>
      </trkpt>
      <trkpt lat="47.32031" lon="6.08944">
        <ele>461</ele>
        <time>2000-01-01T08:29:49.000Z</time>
      </trkpt>
      <trkpt lat="47.32044" lon="6.08995">
        <ele>464</ele>
        <time>2000-01-01T08:29:59.000Z</time>
      </trkpt>
      <trkpt lat="47.32058" lon="6.09045">
        <ele>464</ele>
        <time>2000-01-01T08:30:09.000Z</time>
      </trkpt>
      <trkpt lat="47.32074" lon="6.09102">
        <ele>470</ele>
        <time>2000-01-01T08:30:19.000Z</time>
      </trkpt>
      <trkpt lat="47.32097" lon="6.0915">
        <ele>474</ele>
        <time>2000-01-01T08:30:29.000Z</time>
      </trkpt>
      <trkpt lat="47.3212" lon="6.09199">
        <ele>481</ele>
        <time>2000-01-01T08:30:39.000Z</time>
      </trkpt>
      <trkpt lat="47.32142" lon="6.09247">
        <ele>490</ele>
        <time>2000-01-01T08:30:49.000Z</time>
      </trkpt>
      <trkpt lat="47.32165" lon="6.09296">
        <ele>496</ele>
        <time>2000-01-01T08:30:59.000Z</time>
      </trkpt>
      <trkpt lat="47.32188" lon="6.09345">
        <ele>499</ele>
        <time>2000-01-01T08:31:09.000Z</time>
      </trkpt>
      <trkpt lat="47.32211" lon="6.09393">
        <ele>506</ele>
        <time>2000-01-01T08:31:19.000Z</time>
      </trkpt>
      <trkpt lat="47.32234" lon="6.09442">
        <ele>511</ele>
        <time>2000-01-01T08:31:29.000Z</time>
      </trkpt>
      <trkpt lat="47.32259" lon="6.09495">
        <ele>514</ele>
        <time>2000-01-01T08:31:39.000Z</time>
      </trkpt>
      <trkpt lat="47.3228" lon="6.09536">
        <ele>522</ele>
        <time>2000-01-01T08:31:49.000Z</time>
      </trkpt>
      <trkpt lat="47.32302" lon="6.09577">
        <ele>525</ele>
        <time>2000-01-01T08:31:59.000Z</time>
      </trkpt>
      <trkpt lat="47.32323" lon="6.09618">
        <ele>526</ele>
        <time>2000-01-01T08:32:09.000Z</time>
      </trkpt>
      <trkpt lat="47.32337" lon="6.09646">
        <ele>525</ele>
        <time>2000-01-01T08:32:19.000Z</time>
      </trkpt>
      <trkpt lat="47.32352" lon="6.09674">
        <ele>525</ele>
        <time>2000-01-01T08:32:29.000Z</time>
      </trkpt>
      <trkpt lat="47.32372" lon="6.09701">
        <ele>525</ele>
        <time>2000-01-01T08:32:39.000Z</time>
      </trkpt>
      <trkpt lat="47.324" lon="6.09747">
        <ele>525</ele>
        <time>2000-01-01T08:32:49.000Z</time>
      </trkpt>
      <trkpt lat="47.32418" lon="6.09772">
        <ele>525</ele>
        <time>2000-01-01T08:32:59.000Z</time>
      </trkpt>
      <trkpt lat="47.32438" lon="6.09801">
        <ele>525</ele>
        <time>2000-01-01T08:33:09.000Z</time>
      </trkpt>
      <trkpt lat="47.32455" lon="6.09852">
        <ele>526</ele>
        <time>2000-01-01T08:33:19.000Z</time>
      </trkpt>
      <trkpt lat="47.32464" lon="6.09886">
        <ele>526</ele>
        <time>2000-01-01T08:33:29.000Z</time>
      </trkpt>
      <trkpt lat="47.32476" lon="6.09927">
        <ele>526</ele>
        <time>2000-01-01T08:33:39.000Z</time>
      </trkpt>
      <trkpt lat="47.32493" lon="6.09977">
        <ele>526</ele>
        <time>2000-01-01T08:33:49.000Z</time>
      </trkpt>
      <trkpt lat="47.32511" lon="6.10024">
        <ele>525</ele>
        <time>2000-01-01T08:33:59.000Z</time>
      </trkpt>
      <trkpt lat="47.3252" lon="6.10069">
        <ele>523</ele>
        <time>2000-01-01T08:34:09.000Z</time>
      </trkpt>
      <trkpt lat="47.32545" lon="6.10112">
        <ele>524</ele>
        <time>2000-01-01T08:34:19.000Z</time>
      </trkpt>
      <trkpt lat="47.3257" lon="6.10154">
        <ele>525</ele>
        <time>2000-01-01T08:34:29.000Z</time>
      </trkpt>
      <trkpt lat="47.32595" lon="6.10197">
        <ele>526</ele>
        <time>2000-01-01T08:34:39.000Z</time>
      </trkpt>
      <trkpt lat="47.32623" lon="6.10244">
        <ele>527</ele>
        <time>2000-01-01T08:34:49.000Z</time>
      </trkpt>
      <trkpt lat="47.32644" lon="6.10274">
        <ele>528</ele>
        <time>2000-01-01T08:34:59.000Z</time>
      </trkpt>
      <trkpt lat="47.32662" lon="6.103">
        <ele>529</ele>
        <time>2000-01-01T08:35:09.000Z</time>
      </trkpt>
      <trkpt lat="47.32684" lon="6.1033">
        <ele>529</ele>
        <time>2000-01-01T08:35:19.000Z</time>
      </trkpt>
      <trkpt lat="47.32715" lon="6.10359">
        <ele>529</ele>
        <time>2000-01-01T08:35:29.000Z</time>
      </trkpt>
      <trkpt lat="47.32747" lon="6.10389">
        <ele>529</ele>
        <time>2000-01-01T08:35:39.000Z</time>
      </trkpt>
      <trkpt lat="47.32778" lon="6.10418">
        <ele>527</ele>
        <time>2000-01-01T08:35:49.000Z</time>
      </trkpt>
      <trkpt lat="47.3281" lon="6.10448">
        <ele>525</ele>
        <time>2000-01-01T08:35:59.000Z</time>
      </trkpt>
      <trkpt lat="47.3283" lon="6.10467">
        <ele>525</ele>
        <time>2000-01-01T08:36:09.000Z</time>
      </trkpt>
      <trkpt lat="47.32854" lon="6.10489">
        <ele>525</ele>
        <time>2000-01-01T08:36:19.000Z</time>
      </trkpt>
      <trkpt lat="47.32879" lon="6.10515">
        <ele>525</ele>
        <time>2000-01-01T08:36:29.000Z</time>
      </trkpt>
      <trkpt lat="47.32904" lon="6.10542">
        <ele>526</ele>
        <time>2000-01-01T08:36:39.000Z</time>
      </trkpt>
      <trkpt lat="47.32931" lon="6.1057">
        <ele>527</ele>
        <time>2000-01-01T08:36:49.000Z</time>
      </trkpt>
      <trkpt lat="47.3296" lon="6.10597">
        <ele>526</ele>
        <time>2000-01-01T08:36:59.000Z</time>
      </trkpt>
      <trkpt lat="47.3299" lon="6.10625">
        <ele>525</ele>
        <time>2000-01-01T08:37:09.000Z</time>
      </trkpt>
      <trkpt lat="47.33019" lon="6.10652">
        <ele>524</ele>
        <time>2000-01-01T08:37:19.000Z</time>
      </trkpt>
      <trkpt lat="47.33053" lon="6.10684">
        <ele>524</ele>
        <time>2000-01-01T08:37:29.000Z</time>
      </trkpt>
      <trkpt lat="47.33077" lon="6.10716">
        <ele>526</ele>
        <time>2000-01-01T08:37:39.000Z</time>
      </trkpt>
      <trkpt lat="47.33101" lon="6.10748">
        <ele>527</ele>
        <time>2000-01-01T08:37:49.000Z</time>
      </trkpt>
      <trkpt lat="47.33133" lon="6.10791">
        <ele>528</ele>
        <time>2000-01-01T08:37:59.000Z</time>
      </trkpt>
      <trkpt lat="47.33153" lon="6.10823">
        <ele>528</ele>
        <time>2000-01-01T08:38:09.000Z</time>
      </trkpt>
      <trkpt lat="47.3317" lon="6.1085">
        <ele>527</ele>
        <time>2000-01-01T08:38:19.000Z</time>
      </trkpt>
      <trkpt lat="47.33189" lon="6.10881">
        <ele>526</ele>
        <time>2000-01-01T08:38:29.000Z</time>
      </trkpt>
      <trkpt lat="47.33217" lon="6.10909">
        <ele>525</ele>
        <time>2000-01-01T08:38:39.000Z</time>
      </trkpt>
      <trkpt lat="47.33246" lon="6.10938">
        <ele>524</ele>
        <time>2000-01-01T08:38:49.000Z</time>
      </trkpt>
      <trkpt lat="47.33274" lon="6.10966">
        <ele>522</ele>
        <time>2000-01-01T08:38:59.000Z</time>
      </trkpt>
      <trkpt lat="47.33304" lon="6.10996">
        <ele>520</ele>
        <time>2000-01-01T08:39:09.000Z</time>
      </trkpt>
      <trkpt lat="47.33339" lon="6.11011">
        <ele>520</ele>
        <time>2000-01-01T08:39:19.000Z</time>
      </trkpt>
      <trkpt lat="47.33361" lon="6.11043">
        <ele>519</ele>
        <time>2000-01-01T08:39:29.000Z</time>
      </trkpt>
      <trkpt lat="47.33383" lon="6.11075">
        <ele>514</ele>
        <time>2000-01-01T08:39:39.000Z</time>
      </trkpt>
      <trkpt lat="47.33407" lon="6.1111">
        <ele>509</ele>
        <time>2000-01-01T08:39:49.000Z</time>
      </trkpt>
      <trkpt lat="47.33431" lon="6.11112">
        <ele>505</ele>
        <time>2000-01-01T08:39:59.000Z</time>
      </trkpt>
      <trkpt lat="47.33458" lon="6.11115">
        <ele>504</ele>
        <time>2000-01-01T08:40:09.000Z</time>
      </trkpt>
      <trkpt lat="47.33489" lon="6.11126">
        <ele>501</ele>
        <time>2000-01-01T08:40:19.000Z</time>
      </trkpt>
      <trkpt lat="47.3352" lon="6.11136">
        <ele>498</ele>
        <time>2000-01-01T08:40:29.000Z</time>
      </trkpt>
      <trkpt lat="47.33558" lon="6.1115">
        <ele>497</ele>
        <time>2000-01-01T08:40:39.000Z</time>
      </trkpt>
      <trkpt lat="47.33583" lon="6.11177">
        <ele>495</ele>
        <time>2000-01-01T08:40:49.000Z</time>
      </trkpt>
      <trkpt lat="47.33609" lon="6.11204">
        <ele>493</ele>
        <time>2000-01-01T08:40:59.000Z</time>
      </trkpt>
      <trkpt lat="47.33625" lon="6.11221">
        <ele>493</ele>
        <time>2000-01-01T08:41:09.000Z</time>
      </trkpt>
      <trkpt lat="47.33633" lon="6.11216">
        <ele>491.3</ele>
        <time>2000-01-01T08:41:19.000Z</time>
      </trkpt>
      <trkpt lat="47.33627" lon="6.11182">
        <ele>493</ele>
        <time>2000-01-01T08:41:29.000Z</time>
      </trkpt>
      <trkpt lat="47.33621" lon="6.11147">
        <ele>495</ele>
        <time>2000-01-01T08:41:39.000Z</time>
      </trkpt>
      <trkpt lat="47.33612" lon="6.11114">
        <ele>497</ele>
        <time>2000-01-01T08:41:49.000Z</time>
      </trkpt>
      <trkpt lat="47.33606" lon="6.11063">
        <ele>500</ele>
        <time>2000-01-01T08:41:59.000Z</time>
      </trkpt>
      <trkpt lat="47.33598" lon="6.1102">
        <ele>503</ele>
        <time>2000-01-01T08:42:09.000Z</time>
      </trkpt>
      <trkpt lat="47.33593" lon="6.11006">
        <ele>502.7</ele>
        <time>2000-01-01T08:42:19.000Z</time>
      </trkpt>
      <trkpt lat="47.33593" lon="6.10998">
        <ele>503</ele>
        <time>2000-01-01T08:42:29.000Z</time>
      </trkpt>
      <trkpt lat="47.33587" lon="6.1099">
        <ele>505</ele>
        <time>2000-01-01T08:42:39.000Z</time>
      </trkpt>
      <trkpt lat="47.33586" lon="6.10978">
        <ele>504.4</ele>
        <time>2000-01-01T08:42:49.000Z</time>
      </trkpt>
      <trkpt lat="47.33573" lon="6.10942">
        <ele>507</ele>
        <time>2000-01-01T08:42:59.000Z</time>
      </trkpt>
      <trkpt lat="47.33559" lon="6.1092">
        <ele>510</ele>
        <time>2000-01-01T08:43:09.000Z</time>
      </trkpt>
      <trkpt lat="47.33546" lon="6.10912">
        <ele>511.1</ele>
        <time>2000-01-01T08:43:19.000Z</time>
      </trkpt>
      <trkpt lat="47.33531" lon="6.10897">
        <ele>513</ele>
        <time>2000-01-01T08:43:29.000Z</time>
      </trkpt>
      <trkpt lat="47.33504" lon="6.10887">
        <ele>518</ele>
        <time>2000-01-01T08:43:39.000Z</time>
      </trkpt>
      <trkpt lat="47.33479" lon="6.10873">
        <ele>523</ele>
        <time>2000-01-01T08:43:49.000Z</time>
      </trkpt>
      <trkpt lat="47.33441" lon="6.1087">
        <ele>527</ele>
        <time>2000-01-01T08:43:59.000Z</time>
      </trkpt>
      <trkpt lat="47.33406" lon="6.10852">
        <ele>531</ele>
        <time>2000-01-01T08:44:09.000Z</time>
      </trkpt>
      <trkpt lat="47.33369" lon="6.10838">
        <ele>536</ele>
        <time>2000-01-01T08:44:19.000Z</time>
      </trkpt>
      <trkpt lat="47.33348" lon="6.10823">
        <ele>537</ele>
        <time>2000-01-01T08:44:29.000Z</time>
      </trkpt>
      <trkpt lat="47.33325" lon="6.10807">
        <ele>538</ele>
        <time>2000-01-01T08:44:39.000Z</time>
      </trkpt>
      <trkpt lat="47.33316" lon="6.10777">
        <ele>539</ele>
        <time>2000-01-01T08:44:49.000Z</time>
      </trkpt>
      <trkpt lat="47.33297" lon="6.10757">
        <ele>541</ele>
        <time>2000-01-01T08:44:59.000Z</time>
      </trkpt>
      <trkpt lat="47.33277" lon="6.10736">
        <ele>542</ele>
        <time>2000-01-01T08:45:09.000Z</time>
      </trkpt>
      <trkpt lat="47.33254" lon="6.10731">
        <ele>542</ele>
        <time>2000-01-01T08:45:19.000Z</time>
      </trkpt>
      <trkpt lat="47.33213" lon="6.10715">
        <ele>542</ele>
        <time>2000-01-01T08:45:29.000Z</time>
      </trkpt>
      <trkpt lat="47.33194" lon="6.10691">
        <ele>542</ele>
        <time>2000-01-01T08:45:39.000Z</time>
      </trkpt>
      <trkpt lat="47.33171" lon="6.10662">
        <ele>544</ele>
        <time>2000-01-01T08:45:49.000Z</time>
      </trkpt>
      <trkpt lat="47.33151" lon="6.10619">
        <ele>549</ele>
        <time>2000-01-01T08:45:59.000Z</time>
      </trkpt>
      <trkpt lat="47.33129" lon="6.10582">
        <ele>551</ele>
        <time>2000-01-01T08:46:09.000Z</time>
      </trkpt>
      <trkpt lat="47.3312" lon="6.1056">
        <ele>553.2</ele>
        <time>2000-01-01T08:46:19.000Z</time>
      </trkpt>
      <trkpt lat="47.33069" lon="6.10508">
        <ele>558</ele>
        <time>2000-01-01T08:46:29.000Z</time>
      </trkpt>
      <trkpt lat="47.33036" lon="6.1048">
        <ele>559</ele>
        <time>2000-01-01T08:46:39.000Z</time>
      </trkpt>
      <trkpt lat="47.33005" lon="6.10435">
        <ele>562</ele>
        <time>2000-01-01T08:46:49.000Z</time>
      </trkpt>
      <trkpt lat="47.3299" lon="6.10389">
        <ele>567</ele>
        <time>2000-01-01T08:46:59.000Z</time>
      </trkpt>
      <trkpt lat="47.32976" lon="6.10343">
        <ele>568</ele>
        <time>2000-01-01T08:47:09.000Z</time>
      </trkpt>
      <trkpt lat="47.32961" lon="6.10297">
        <ele>568</ele>
        <time>2000-01-01T08:47:19.000Z</time>
      </trkpt>
      <trkpt lat="47.32946" lon="6.10249">
        <ele>572</ele>
        <time>2000-01-01T08:47:29.000Z</time>
      </trkpt>
      <trkpt lat="47.32923" lon="6.10217">
        <ele>576</ele>
        <time>2000-01-01T08:47:39.000Z</time>
      </trkpt>
      <trkpt lat="47.32901" lon="6.10185">
        <ele>577</ele>
        <time>2000-01-01T08:47:49.000Z</time>
      </trkpt>
      <trkpt lat="47.32874" lon="6.10148">
        <ele>577</ele>
        <time>2000-01-01T08:47:59.000Z</time>
      </trkpt>
      <trkpt lat="47.32859" lon="6.10115">
        <ele>576</ele>
        <time>2000-01-01T08:48:09.000Z</time>
      </trkpt>
      <trkpt lat="47.32839" lon="6.101">
        <ele>575</ele>
        <time>2000-01-01T08:48:19.000Z</time>
      </trkpt>
      <trkpt lat="47.32805" lon="6.10084">
        <ele>573</ele>
        <time>2000-01-01T08:48:29.000Z</time>
      </trkpt>
      <trkpt lat="47.32794" lon="6.10073">
        <ele>573.3</ele>
        <time>2000-01-01T08:48:39.000Z</time>
      </trkpt>
      <trkpt lat="47.32776" lon="6.10049">
        <ele>572</ele>
        <time>2000-01-01T08:48:49.000Z</time>
      </trkpt>
      <trkpt lat="47.32755" lon="6.10013">
        <ele>571</ele>
        <time>2000-01-01T08:48:59.000Z</time>
      </trkpt>
      <trkpt lat="47.32737" lon="6.09973">
        <ele>571</ele>
        <time>2000-01-01T08:49:09.000Z</time>
      </trkpt>
      <trkpt lat="47.32726" lon="6.09942">
        <ele>570</ele>
        <time>2000-01-01T08:49:19.000Z</time>
      </trkpt>
      <trkpt lat="47.32714" lon="6.09907">
        <ele>570</ele>
        <time>2000-01-01T08:49:29.000Z</time>
      </trkpt>
      <trkpt lat="47.32709" lon="6.09871">
        <ele>570</ele>
        <time>2000-01-01T08:49:39.000Z</time>
      </trkpt>
      <trkpt lat="47.32695" lon="6.09816">
        <ele>568</ele>
        <time>2000-01-01T08:49:49.000Z</time>
      </trkpt>
      <trkpt lat="47.3269" lon="6.0978">
        <ele>564</ele>
        <time>2000-01-01T08:49:59.000Z</time>
      </trkpt>
      <trkpt lat="47.32684" lon="6.09736">
        <ele>561</ele>
        <time>2000-01-01T08:50:09.000Z</time>
      </trkpt>
      <trkpt lat="47.32664" lon="6.09694">
        <ele>561</ele>
        <time>2000-01-01T08:50:19.000Z</time>
      </trkpt>
      <trkpt lat="47.32652" lon="6.09654">
        <ele>562</ele>
        <time>2000-01-01T08:50:29.000Z</time>
      </trkpt>
      <trkpt lat="47.32642" lon="6.09619">
        <ele>563</ele>
        <time>2000-01-01T08:50:39.000Z</time>
      </trkpt>
      <trkpt lat="47.32629" lon="6.09577">
        <ele>567</ele>
        <time>2000-01-01T08:50:49.000Z</time>
      </trkpt>
      <trkpt lat="47.326" lon="6.09571">
        <ele>569</ele>
        <time>2000-01-01T08:50:59.000Z</time>
      </trkpt>
      <trkpt lat="47.32569" lon="6.0957">
        <ele>571</ele>
        <time>2000-01-01T08:51:09.000Z</time>
      </trkpt>
      <trkpt lat="47.32556" lon="6.09565">
        <ele>570.3</ele>
        <time>2000-01-01T08:51:19.000Z</time>
      </trkpt>
      <trkpt lat="47.3254" lon="6.09542">
        <ele>571</ele>
        <time>2000-01-01T08:51:29.000Z</time>
      </trkpt>
      <trkpt lat="47.32532" lon="6.09488">
        <ele>572</ele>
        <time>2000-01-01T08:51:39.000Z</time>
      </trkpt>
      <trkpt lat="47.32524" lon="6.09434">
        <ele>573</ele>
        <time>2000-01-01T08:51:49.000Z</time>
      </trkpt>
      <trkpt lat="47.32517" lon="6.09379">
        <ele>574</ele>
        <time>2000-01-01T08:51:59.000Z</time>
      </trkpt>
      <trkpt lat="47.32509" lon="6.09325">
        <ele>575</ele>
        <time>2000-01-01T08:52:09.000Z</time>
      </trkpt>
      <trkpt lat="47.32503" lon="6.09287">
        <ele>575</ele>
        <time>2000-01-01T08:52:19.000Z</time>
      </trkpt>
      <trkpt lat="47.32496" lon="6.09237">
        <ele>577</ele>
        <time>2000-01-01T08:52:29.000Z</time>
      </trkpt>
      <trkpt lat="47.32485" lon="6.09178">
        <ele>578</ele>
        <time>2000-01-01T08:52:39.000Z</time>
      </trkpt>
      <trkpt lat="47.32475" lon="6.09144">
        <ele>578</ele>
        <time>2000-01-01T08:52:49.000Z</time>
      </trkpt>
      <trkpt lat="47.32463" lon="6.09104">
        <ele>579</ele>
        <time>2000-01-01T08:52:59.000Z</time>
      </trkpt>
      <trkpt lat="47.32455" lon="6.09071">
        <ele>579</ele>
        <time>2000-01-01T08:53:09.000Z</time>
      </trkpt>
      <trkpt lat="47.32446" lon="6.09036">
        <ele>580</ele>
        <time>2000-01-01T08:53:19.000Z</time>
      </trkpt>
      <trkpt lat="47.32441" lon="6.09">
        <ele>582</ele>
        <time>2000-01-01T08:53:29.000Z</time>
      </trkpt>
      <trkpt lat="47.32434" lon="6.08956">
        <ele>582</ele>
        <time>2000-01-01T08:53:39.000Z</time>
      </trkpt>
      <trkpt lat="47.32424" lon="6.08911">
        <ele>582</ele>
        <time>2000-01-01T08:53:49.000Z</time>
      </trkpt>
      <trkpt lat="47.32414" lon="6.08866">
        <ele>582</ele>
        <time>2000-01-01T08:53:59.000Z</time>
      </trkpt>
      <trkpt lat="47.324" lon="6.08803">
        <ele>582</ele>
        <time>2000-01-01T08:54:09.000Z</time>
      </trkpt>
      <trkpt lat="47.32388" lon="6.08757">
        <ele>582</ele>
        <time>2000-01-01T08:54:19.000Z</time>
      </trkpt>
      <trkpt lat="47.32376" lon="6.08711">
        <ele>582</ele>
        <time>2000-01-01T08:54:29.000Z</time>
      </trkpt>
      <trkpt lat="47.32366" lon="6.08676">
        <ele>582</ele>
        <time>2000-01-01T08:54:39.000Z</time>
      </trkpt>
      <trkpt lat="47.32354" lon="6.0863">
        <ele>582</ele>
        <time>2000-01-01T08:54:49.000Z</time>
      </trkpt>
      <trkpt lat="47.32347" lon="6.08595">
        <ele>582</ele>
        <time>2000-01-01T08:54:59.000Z</time>
      </trkpt>
      <trkpt lat="47.32338" lon="6.08553">
        <ele>582</ele>
        <time>2000-01-01T08:55:09.000Z</time>
      </trkpt>
      <trkpt lat="47.32328" lon="6.08518">
        <ele>582</ele>
        <time>2000-01-01T08:55:19.000Z</time>
      </trkpt>
      <trkpt lat="47.32316" lon="6.08473">
        <ele>582</ele>
        <time>2000-01-01T08:55:29.000Z</time>
      </trkpt>
      <trkpt lat="47.32309" lon="6.08426">
        <ele>582</ele>
        <time>2000-01-01T08:55:39.000Z</time>
      </trkpt>
      <trkpt lat="47.32303" lon="6.08379">
        <ele>582</ele>
        <time>2000-01-01T08:55:49.000Z</time>
      </trkpt>
      <trkpt lat="47.32298" lon="6.08346">
        <ele>582</ele>
        <time>2000-01-01T08:55:59.000Z</time>
      </trkpt>
      <trkpt lat="47.32293" lon="6.08312">
        <ele>582</ele>
        <time>2000-01-01T08:56:09.000Z</time>
      </trkpt>
      <trkpt lat="47.32287" lon="6.08259">
        <ele>581</ele>
        <time>2000-01-01T08:56:19.000Z</time>
      </trkpt>
      <trkpt lat="47.32281" lon="6.08206">
        <ele>581</ele>
        <time>2000-01-01T08:56:29.000Z</time>
      </trkpt>
      <trkpt lat="47.32274" lon="6.08153">
        <ele>580</ele>
        <time>2000-01-01T08:56:39.000Z</time>
      </trkpt>
      <trkpt lat="47.32269" lon="6.08112">
        <ele>579</ele>
        <time>2000-01-01T08:56:49.000Z</time>
      </trkpt>
      <trkpt lat="47.32262" lon="6.08048">
        <ele>578</ele>
        <time>2000-01-01T08:56:59.000Z</time>
      </trkpt>
      <trkpt lat="47.32259" lon="6.08003">
        <ele>577</ele>
        <time>2000-01-01T08:57:09.000Z</time>
      </trkpt>
      <trkpt lat="47.32257" lon="6.07958">
        <ele>576</ele>
        <time>2000-01-01T08:57:19.000Z</time>
      </trkpt>
      <trkpt lat="47.32254" lon="6.0791">
        <ele>575</ele>
        <time>2000-01-01T08:57:29.000Z</time>
      </trkpt>
      <trkpt lat="47.32254" lon="6.07864">
        <ele>574</ele>
        <time>2000-01-01T08:57:39.000Z</time>
      </trkpt>
      <trkpt lat="47.32254" lon="6.07818">
        <ele>572</ele>
        <time>2000-01-01T08:57:49.000Z</time>
      </trkpt>
      <trkpt lat="47.32254" lon="6.07766">
        <ele>571</ele>
        <time>2000-01-01T08:57:59.000Z</time>
      </trkpt>
      <trkpt lat="47.32256" lon="6.0772">
        <ele>569</ele>
        <time>2000-01-01T08:58:09.000Z</time>
      </trkpt>
      <trkpt lat="47.32258" lon="6.07674">
        <ele>568</ele>
        <time>2000-01-01T08:58:19.000Z</time>
      </trkpt>
      <trkpt lat="47.32261" lon="6.07619">
        <ele>568</ele>
        <time>2000-01-01T08:58:29.000Z</time>
      </trkpt>
      <trkpt lat="47.32264" lon="6.07578">
        <ele>567</ele>
        <time>2000-01-01T08:58:39.000Z</time>
      </trkpt>
      <trkpt lat="47.32269" lon="6.07515">
        <ele>566</ele>
        <time>2000-01-01T08:58:49.000Z</time>
      </trkpt>
      <trkpt lat="47.32261" lon="6.07491">
        <ele>565.1</ele>
        <time>2000-01-01T08:58:59.000Z</time>
      </trkpt>
      <trkpt lat="47.32235" lon="6.07459">
        <ele>565</ele>
        <time>2000-01-01T08:59:09.000Z</time>
      </trkpt>
      <trkpt lat="47.32231" lon="6.07434">
        <ele>562.3</ele>
        <time>2000-01-01T08:59:19.000Z</time>
      </trkpt>
      <trkpt lat="47.32248" lon="6.07406">
        <ele>565</ele>
        <time>2000-01-01T08:59:29.000Z</time>
      </trkpt>
      <trkpt lat="47.32235" lon="6.07366">
        <ele>565</ele>
        <time>2000-01-01T08:59:39.000Z</time>
      </trkpt>
      <trkpt lat="47.32224" lon="6.07332">
        <ele>566</ele>
        <time>2000-01-01T08:59:49.000Z</time>
      </trkpt>
      <trkpt lat="47.3221" lon="6.0729">
        <ele>567</ele>
        <time>2000-01-01T08:59:59.000Z</time>
      </trkpt>
      <trkpt lat="47.32197" lon="6.07235">
        <ele>571</ele>
        <time>2000-01-01T09:00:09.000Z</time>
      </trkpt>
      <trkpt lat="47.32184" lon="6.07209">
        <ele>571</ele>
        <time>2000-01-01T09:00:19.000Z</time>
      </trkpt>
      <trkpt lat="47.32184" lon="6.07161">
        <ele>576</ele>
        <time>2000-01-01T09:00:29.000Z</time>
      </trkpt>
      <trkpt lat="47.32166" lon="6.07128">
        <ele>577</ele>
        <time>2000-01-01T09:00:39.000Z</time>
      </trkpt>
      <trkpt lat="47.32138" lon="6.07076">
        <ele>578</ele>
        <time>2000-01-01T09:00:49.000Z</time>
      </trkpt>
      <trkpt lat="47.32116" lon="6.07029">
        <ele>580</ele>
        <time>2000-01-01T09:00:59.000Z</time>
      </trkpt>
      <trkpt lat="47.32102" lon="6.06989">
        <ele>583</ele>
        <time>2000-01-01T09:01:09.000Z</time>
      </trkpt>
      <trkpt lat="47.32088" lon="6.06949">
        <ele>584</ele>
        <time>2000-01-01T09:01:19.000Z</time>
      </trkpt>
      <trkpt lat="47.32074" lon="6.06909">
        <ele>587</ele>
        <time>2000-01-01T09:01:29.000Z</time>
      </trkpt>
      <trkpt lat="47.32063" lon="6.06874">
        <ele>587</ele>
        <time>2000-01-01T09:01:39.000Z</time>
      </trkpt>
      <trkpt lat="47.3205" lon="6.0683">
        <ele>588</ele>
        <time>2000-01-01T09:01:49.000Z</time>
      </trkpt>
      <trkpt lat="47.32034" lon="6.0677">
        <ele>590</ele>
        <time>2000-01-01T09:01:59.000Z</time>
      </trkpt>
      <trkpt lat="47.32024" lon="6.06722">
        <ele>592</ele>
        <time>2000-01-01T09:02:09.000Z</time>
      </trkpt>
      <trkpt lat="47.32009" lon="6.06674">
        <ele>593</ele>
        <time>2000-01-01T09:02:19.000Z</time>
      </trkpt>
      <trkpt lat="47.32006" lon="6.06636">
        <ele>595</ele>
        <time>2000-01-01T09:02:29.000Z</time>
      </trkpt>
      <trkpt lat="47.31995" lon="6.06599">
        <ele>596</ele>
        <time>2000-01-01T09:02:39.000Z</time>
      </trkpt>
      <trkpt lat="47.31991" lon="6.06562">
        <ele>597</ele>
        <time>2000-01-01T09:02:49.000Z</time>
      </trkpt>
      <trkpt lat="47.31983" lon="6.06526">
        <ele>599</ele>
        <time>2000-01-01T09:02:59.000Z</time>
      </trkpt>
      <trkpt lat="47.31973" lon="6.06479">
        <ele>600</ele>
        <time>2000-01-01T09:03:09.000Z</time>
      </trkpt>
      <trkpt lat="47.31948" lon="6.0646">
        <ele>600</ele>
        <time>2000-01-01T09:03:19.000Z</time>
      </trkpt>
      <trkpt lat="47.31907" lon="6.0643">
        <ele>600</ele>
        <time>2000-01-01T09:03:29.000Z</time>
      </trkpt>
      <trkpt lat="47.31892" lon="6.06411">
        <ele>599</ele>
        <time>2000-01-01T09:03:39.000Z</time>
      </trkpt>
      <trkpt lat="47.31855" lon="6.06382">
        <ele>600</ele>
        <time>2000-01-01T09:03:49.000Z</time>
      </trkpt>
      <trkpt lat="47.31845" lon="6.06329">
        <ele>598</ele>
        <time>2000-01-01T09:03:59.000Z</time>
      </trkpt>
      <trkpt lat="47.3181" lon="6.0629">
        <ele>600</ele>
        <time>2000-01-01T09:04:09.000Z</time>
      </trkpt>
      <trkpt lat="47.31802" lon="6.06271">
        <ele>598.7</ele>
        <time>2000-01-01T09:04:19.000Z</time>
      </trkpt>
      <trkpt lat="47.31793" lon="6.06155">
        <ele>603</ele>
        <time>2000-01-01T09:04:29.000Z</time>
      </trkpt>
      <trkpt lat="47.31783" lon="6.06111">
        <ele>603</ele>
        <time>2000-01-01T09:04:39.000Z</time>
      </trkpt>
      <trkpt lat="47.31785" lon="6.06091">
        <ele>603.3</ele>
        <time>2000-01-01T09:04:49.000Z</time>
      </trkpt>
      <trkpt lat="47.31793" lon="6.06073">
        <ele>603</ele>
        <time>2000-01-01T09:04:59.000Z</time>
      </trkpt>
      <trkpt lat="47.31816" lon="6.06047">
        <ele>603</ele>
        <time>2000-01-01T09:05:09.000Z</time>
      </trkpt>
      <trkpt lat="47.31836" lon="6.06024">
        <ele>603</ele>
        <time>2000-01-01T09:05:19.000Z</time>
      </trkpt>
      <trkpt lat="47.31858" lon="6.05999">
        <ele>602</ele>
        <time>2000-01-01T09:05:29.000Z</time>
      </trkpt>
      <trkpt lat="47.31877" lon="6.05971">
        <ele>597</ele>
        <time>2000-01-01T09:05:39.000Z</time>
      </trkpt>
      <trkpt lat="47.3187" lon="6.05951">
        <ele>590.2</ele>
        <time>2000-01-01T09:05:49.000Z</time>
      </trkpt>
      <trkpt lat="47.31861" lon="6.05899">
        <ele>591</ele>
        <time>2000-01-01T09:05:59.000Z</time>
      </trkpt>
      <trkpt lat="47.31846" lon="6.05899">
        <ele>582.7</ele>
        <time>2000-01-01T09:06:09.000Z</time>
      </trkpt>
      <trkpt lat="47.31787" lon="6.05879">
        <ele>589</ele>
        <time>2000-01-01T09:06:19.000Z</time>
      </trkpt>
      <trkpt lat="47.31768" lon="6.05862">
        <ele>588</ele>
        <time>2000-01-01T09:06:29.000Z</time>
      </trkpt>
      <trkpt lat="47.31756" lon="6.05842">
        <ele>584.3</ele>
        <time>2000-01-01T09:06:39.000Z</time>
      </trkpt>
      <trkpt lat="47.31748" lon="6.05806">
        <ele>580</ele>
        <time>2000-01-01T09:06:49.000Z</time>
      </trkpt>
      <trkpt lat="47.31724" lon="6.05755">
        <ele>577</ele>
        <time>2000-01-01T09:06:59.000Z</time>
      </trkpt>
      <trkpt lat="47.31724" lon="6.0574">
        <ele>571.6</ele>
        <time>2000-01-01T09:07:09.000Z</time>
      </trkpt>
      <trkpt lat="47.31686" lon="6.05695">
        <ele>576</ele>
        <time>2000-01-01T09:07:19.000Z</time>
      </trkpt>
      <trkpt lat="47.31672" lon="6.0567">
        <ele>571</ele>
        <time>2000-01-01T09:07:29.000Z</time>
      </trkpt>
      <trkpt lat="47.31651" lon="6.05616">
        <ele>573</ele>
        <time>2000-01-01T09:07:39.000Z</time>
      </trkpt>
      <trkpt lat="47.3165" lon="6.05601">
        <ele>563.6</ele>
        <time>2000-01-01T09:07:49.000Z</time>
      </trkpt>
      <trkpt lat="47.31624" lon="6.05587">
        <ele>576</ele>
        <time>2000-01-01T09:07:59.000Z</time>
      </trkpt>
      <trkpt lat="47.31618" lon="6.05593">
        <ele>578.8</ele>
        <time>2000-01-01T09:08:09.000Z</time>
      </trkpt>
      <trkpt lat="47.31599" lon="6.05568">
        <ele>578</ele>
        <time>2000-01-01T09:08:19.000Z</time>
      </trkpt>
      <trkpt lat="47.31577" lon="6.05549">
        <ele>577</ele>
        <time>2000-01-01T09:08:29.000Z</time>
      </trkpt>
      <trkpt lat="47.31549" lon="6.05526">
        <ele>576</ele>
        <time>2000-01-01T09:08:39.000Z</time>
      </trkpt>
      <trkpt lat="47.31527" lon="6.05496">
        <ele>573</ele>
        <time>2000-01-01T09:08:49.000Z</time>
      </trkpt>
      <trkpt lat="47.31508" lon="6.05471">
        <ele>572</ele>
        <time>2000-01-01T09:08:59.000Z</time>
      </trkpt>
      <trkpt lat="47.31484" lon="6.05439">
        <ele>570</ele>
        <time>2000-01-01T09:09:09.000Z</time>
      </trkpt>
      <trkpt lat="47.31463" lon="6.05406">
        <ele>568</ele>
        <time>2000-01-01T09:09:19.000Z</time>
      </trkpt>
      <trkpt lat="47.31438" lon="6.05381">
        <ele>567</ele>
        <time>2000-01-01T09:09:29.000Z</time>
      </trkpt>
      <trkpt lat="47.31418" lon="6.0536">
        <ele>563</ele>
        <time>2000-01-01T09:09:39.000Z</time>
      </trkpt>
      <trkpt lat="47.31393" lon="6.05335">
        <ele>559</ele>
        <time>2000-01-01T09:09:49.000Z</time>
      </trkpt>
      <trkpt lat="47.31376" lon="6.0531">
        <ele>559</ele>
        <time>2000-01-01T09:09:59.000Z</time>
      </trkpt>
      <trkpt lat="47.31356" lon="6.05283">
        <ele>558</ele>
        <time>2000-01-01T09:10:09.000Z</time>
      </trkpt>
      <trkpt lat="47.31366" lon="6.05257">
        <ele>557</ele>
        <time>2000-01-01T09:10:19.000Z</time>
      </trkpt>
      <trkpt lat="47.31351" lon="6.0523">
        <ele>557</ele>
        <time>2000-01-01T09:10:29.000Z</time>
      </trkpt>
      <trkpt lat="47.31335" lon="6.052">
        <ele>557</ele>
        <time>2000-01-01T09:10:39.000Z</time>
      </trkpt>
      <trkpt lat="47.31326" lon="6.05165">
        <ele>557</ele>
        <time>2000-01-01T09:10:49.000Z</time>
      </trkpt>
      <trkpt lat="47.31312" lon="6.05133">
        <ele>553</ele>
        <time>2000-01-01T09:10:59.000Z</time>
      </trkpt>
      <trkpt lat="47.31295" lon="6.05092">
        <ele>551</ele>
        <time>2000-01-01T09:11:09.000Z</time>
      </trkpt>
      <trkpt lat="47.31281" lon="6.05056">
        <ele>549</ele>
        <time>2000-01-01T09:11:19.000Z</time>
      </trkpt>
      <trkpt lat="47.3126" lon="6.04998">
        <ele>547</ele>
        <time>2000-01-01T09:11:29.000Z</time>
      </trkpt>
      <trkpt lat="47.31246" lon="6.04943">
        <ele>546</ele>
        <time>2000-01-01T09:11:39.000Z</time>
      </trkpt>
      <trkpt lat="47.31208" lon="6.04919">
        <ele>547</ele>
        <time>2000-01-01T09:11:49.000Z</time>
      </trkpt>
      <trkpt lat="47.31195" lon="6.04857">
        <ele>548</ele>
        <time>2000-01-01T09:11:59.000Z</time>
      </trkpt>
      <trkpt lat="47.31186" lon="6.04823">
        <ele>549</ele>
        <time>2000-01-01T09:12:09.000Z</time>
      </trkpt>
      <trkpt lat="47.31175" lon="6.04784">
        <ele>549</ele>
        <time>2000-01-01T09:12:19.000Z</time>
      </trkpt>
      <trkpt lat="47.31158" lon="6.04741">
        <ele>550</ele>
        <time>2000-01-01T09:12:29.000Z</time>
      </trkpt>
      <trkpt lat="47.31142" lon="6.04697">
        <ele>551</ele>
        <time>2000-01-01T09:12:39.000Z</time>
      </trkpt>
      <trkpt lat="47.31129" lon="6.04664">
        <ele>553</ele>
        <time>2000-01-01T09:12:49.000Z</time>
      </trkpt>
      <trkpt lat="47.31111" lon="6.04618">
        <ele>554</ele>
        <time>2000-01-01T09:12:59.000Z</time>
      </trkpt>
      <trkpt lat="47.31097" lon="6.04589">
        <ele>556</ele>
        <time>2000-01-01T09:13:09.000Z</time>
      </trkpt>
      <trkpt lat="47.3109" lon="6.04577">
        <ele>557.5</ele>
        <time>2000-01-01T09:13:19.000Z</time>
      </trkpt>
      <trkpt lat="47.31086" lon="6.0457">
        <ele>557.5</ele>
        <time>2000-01-01T09:13:29.000Z</time>
      </trkpt>
      <trkpt lat="47.31082" lon="6.04563">
        <ele>555</ele>
        <time>2000-01-01T09:13:39.000Z</time>
      </trkpt>
      <trkpt lat="47.31068" lon="6.0454">
        <ele>555</ele>
        <time>2000-01-01T09:13:49.000Z</time>
      </trkpt>
      <trkpt lat="47.31046" lon="6.04506">
        <ele>558</ele>
        <time>2000-01-01T09:13:59.000Z</time>
      </trkpt>
      <trkpt lat="47.3103" lon="6.04481">
        <ele>558</ele>
        <time>2000-01-01T09:14:09.000Z</time>
      </trkpt>
      <trkpt lat="47.31015" lon="6.04456">
        <ele>558</ele>
        <time>2000-01-01T09:14:19.000Z</time>
      </trkpt>
      <trkpt lat="47.3099" lon="6.04416">
        <ele>557</ele>
        <time>2000-01-01T09:14:29.000Z</time>
      </trkpt>
      <trkpt lat="47.3097" lon="6.04376">
        <ele>556</ele>
        <time>2000-01-01T09:14:39.000Z</time>
      </trkpt>
      <trkpt lat="47.30957" lon="6.04339">
        <ele>554</ele>
        <time>2000-01-01T09:14:49.000Z</time>
      </trkpt>
      <trkpt lat="47.30944" lon="6.04292">
        <ele>552</ele>
        <time>2000-01-01T09:14:59.000Z</time>
      </trkpt>
      <trkpt lat="47.30938" lon="6.04252">
        <ele>551</ele>
        <time>2000-01-01T09:15:09.000Z</time>
      </trkpt>
      <trkpt lat="47.30933" lon="6.04205">
        <ele>551</ele>
        <time>2000-01-01T09:15:19.000Z</time>
      </trkpt>
      <trkpt lat="47.3093" lon="6.04161">
        <ele>548</ele>
        <time>2000-01-01T09:15:29.000Z</time>
      </trkpt>
      <trkpt lat="47.30928" lon="6.04115">
        <ele>548</ele>
        <time>2000-01-01T09:15:39.000Z</time>
      </trkpt>
      <trkpt lat="47.30928" lon="6.04069">
        <ele>547</ele>
        <time>2000-01-01T09:15:49.000Z</time>
      </trkpt>
      <trkpt lat="47.3093" lon="6.04034">
        <ele>547</ele>
        <time>2000-01-01T09:15:59.000Z</time>
      </trkpt>
      <trkpt lat="47.30934" lon="6.03985">
        <ele>547</ele>
        <time>2000-01-01T09:16:09.000Z</time>
      </trkpt>
      <trkpt lat="47.30937" lon="6.0393">
        <ele>545</ele>
        <time>2000-01-01T09:16:19.000Z</time>
      </trkpt>
      <trkpt lat="47.30942" lon="6.03865">
        <ele>544</ele>
        <time>2000-01-01T09:16:29.000Z</time>
      </trkpt>
      <trkpt lat="47.30947" lon="6.03809">
        <ele>543</ele>
        <time>2000-01-01T09:16:39.000Z</time>
      </trkpt>
      <trkpt lat="47.30948" lon="6.03803">
        <ele>544.6</ele>
        <time>2000-01-01T09:16:49.000Z</time>
      </trkpt>
      <trkpt lat="47.30953" lon="6.03758">
        <ele>543</ele>
        <time>2000-01-01T09:16:59.000Z</time>
      </trkpt>
      <trkpt lat="47.30959" lon="6.03708">
        <ele>541</ele>
        <time>2000-01-01T09:17:09.000Z</time>
      </trkpt>
      <trkpt lat="47.30961" lon="6.03686">
        <ele>541.7</ele>
        <time>2000-01-01T09:17:19.000Z</time>
      </trkpt>
      <trkpt lat="47.30962" lon="6.03672">
        <ele>541</ele>
        <time>2000-01-01T09:17:29.000Z</time>
      </trkpt>
      <trkpt lat="47.30962" lon="6.0367">
        <ele>540.8</ele>
        <time>2000-01-01T09:17:39.000Z</time>
      </trkpt>
      <trkpt lat="47.30962" lon="6.03653">
        <ele>540.3</ele>
        <time>2000-01-01T09:17:49.000Z</time>
      </trkpt>
      <trkpt lat="47.30961" lon="6.03639">
        <ele>540</ele>
        <time>2000-01-01T09:17:59.000Z</time>
      </trkpt>
      <trkpt lat="47.30959" lon="6.03628">
        <ele>539.6</ele>
        <time>2000-01-01T09:18:09.000Z</time>
      </trkpt>
      <trkpt lat="47.30957" lon="6.03623">
        <ele>539.4</ele>
        <time>2000-01-01T09:18:19.000Z</time>
      </trkpt>
      <trkpt lat="47.30956" lon="6.03621">
        <ele>539.4</ele>
        <time>2000-01-01T09:18:29.000Z</time>
      </trkpt>
      <trkpt lat="47.30954" lon="6.03616">
        <ele>539.2</ele>
        <time>2000-01-01T09:18:39.000Z</time>
      </trkpt>
      <trkpt lat="47.3096" lon="6.03616">
        <ele>539</ele>
        <time>2000-01-01T09:18:49.000Z</time>
      </trkpt>
      <trkpt lat="47.30959" lon="6.03604">
        <ele>538.9</ele>
        <time>2000-01-01T09:18:59.000Z</time>
      </trkpt>
      <trkpt lat="47.30954" lon="6.03562">
        <ele>538</ele>
        <time>2000-01-01T09:19:09.000Z</time>
      </trkpt>
      <trkpt lat="47.30958" lon="6.03524">
        <ele>537</ele>
        <time>2000-01-01T09:19:19.000Z</time>
      </trkpt>
      <trkpt lat="47.30995" lon="6.03487">
        <ele>537</ele>
        <time>2000-01-01T09:19:29.000Z</time>
      </trkpt>
      <trkpt lat="47.31015" lon="6.03481">
        <ele>537</ele>
        <time>2000-01-01T09:19:39.000Z</time>
      </trkpt>
      <trkpt lat="47.31034" lon="6.03435">
        <ele>532</ele>
        <time>2000-01-01T09:19:49.000Z</time>
      </trkpt>
      <trkpt lat="47.31061" lon="6.03383">
        <ele>524</ele>
        <time>2000-01-01T09:19:59.000Z</time>
      </trkpt>
      <trkpt lat="47.31086" lon="6.03342">
        <ele>518</ele>
        <time>2000-01-01T09:20:09.000Z</time>
      </trkpt>
      <trkpt lat="47.31103" lon="6.03318">
        <ele>512</ele>
        <time>2000-01-01T09:20:19.000Z</time>
      </trkpt>
      <trkpt lat="47.31121" lon="6.03293">
        <ele>507</ele>
        <time>2000-01-01T09:20:29.000Z</time>
      </trkpt>
      <trkpt lat="47.31157" lon="6.03265">
        <ele>500</ele>
        <time>2000-01-01T09:20:39.000Z</time>
      </trkpt>
      <trkpt lat="47.31177" lon="6.03233">
        <ele>495</ele>
        <time>2000-01-01T09:20:49.000Z</time>
      </trkpt>
      <trkpt lat="47.31194" lon="6.03207">
        <ele>490</ele>
        <time>2000-01-01T09:20:59.000Z</time>
      </trkpt>
      <trkpt lat="47.31214" lon="6.03176">
        <ele>485</ele>
        <time>2000-01-01T09:21:09.000Z</time>
      </trkpt>
      <trkpt lat="47.31224" lon="6.03141">
        <ele>480</ele>
        <time>2000-01-01T09:21:19.000Z</time>
      </trkpt>
      <trkpt lat="47.31236" lon="6.03098">
        <ele>473</ele>
        <time>2000-01-01T09:21:29.000Z</time>
      </trkpt>
      <trkpt lat="47.31259" lon="6.03041">
        <ele>467</ele>
        <time>2000-01-01T09:21:39.000Z</time>
      </trkpt>
      <trkpt lat="47.31264" lon="6.02985">
        <ele>461</ele>
        <time>2000-01-01T09:21:49.000Z</time>
      </trkpt>
      <trkpt lat="47.31255" lon="6.0293">
        <ele>457</ele>
        <time>2000-01-01T09:21:59.000Z</time>
      </trkpt>
      <trkpt lat="47.31243" lon="6.029">
        <ele>456</ele>
        <time>2000-01-01T09:22:09.000Z</time>
      </trkpt>
      <trkpt lat="47.31231" lon="6.02868">
        <ele>455</ele>
        <time>2000-01-01T09:22:19.000Z</time>
      </trkpt>
      <trkpt lat="47.31232" lon="6.0283">
        <ele>455</ele>
        <time>2000-01-01T09:22:29.000Z</time>
      </trkpt>
      <trkpt lat="47.31233" lon="6.02779">
        <ele>455</ele>
        <time>2000-01-01T09:22:39.000Z</time>
      </trkpt>
      <trkpt lat="47.31223" lon="6.0273">
        <ele>455</ele>
        <time>2000-01-01T09:22:49.000Z</time>
      </trkpt>
      <trkpt lat="47.31218" lon="6.02727">
        <ele>454.7</ele>
        <time>2000-01-01T09:22:59.000Z</time>
      </trkpt>
      <trkpt lat="47.31217" lon="6.02726">
        <ele>454.6</ele>
        <time>2000-01-01T09:23:09.000Z</time>
      </trkpt>
      <trkpt lat="47.31215" lon="6.02725">
        <ele>454.5</ele>
        <time>2000-01-01T09:23:19.000Z</time>
      </trkpt>
      <trkpt lat="47.31206" lon="6.02719">
        <ele>453</ele>
        <time>2000-01-01T09:23:29.000Z</time>
      </trkpt>
      <trkpt lat="47.31192" lon="6.0271">
        <ele>453.2</ele>
        <time>2000-01-01T09:23:39.000Z</time>
      </trkpt>
      <trkpt lat="47.31188" lon="6.02708">
        <ele>453</ele>
        <time>2000-01-01T09:23:49.000Z</time>
      </trkpt>
      <trkpt lat="47.31201" lon="6.02687">
        <ele>454</ele>
        <time>2000-01-01T09:23:59.000Z</time>
      </trkpt>
      <trkpt lat="47.31211" lon="6.02668">
        <ele>455.2</ele>
        <time>2000-01-01T09:24:09.000Z</time>
      </trkpt>
      <trkpt lat="47.31217" lon="6.02651">
        <ele>455</ele>
        <time>2000-01-01T09:24:19.000Z</time>
      </trkpt>
      <trkpt lat="47.3122" lon="6.02635">
        <ele>455.9</ele>
        <time>2000-01-01T09:24:29.000Z</time>
      </trkpt>
      <trkpt lat="47.31223" lon="6.02622">
        <ele>456</ele>
        <time>2000-01-01T09:24:39.000Z</time>
      </trkpt>
      <trkpt lat="47.31227" lon="6.02595">
        <ele>456.7</ele>
        <time>2000-01-01T09:24:49.000Z</time>
      </trkpt>
      <trkpt lat="47.31228" lon="6.02588">
        <ele>456</ele>
        <time>2000-01-01T09:24:59.000Z</time>
      </trkpt>
      <trkpt lat="47.31232" lon="6.02539">
        <ele>458</ele>
        <time>2000-01-01T09:25:09.000Z</time>
      </trkpt>
      <trkpt lat="47.31237" lon="6.02475">
        <ele>461</ele>
        <time>2000-01-01T09:25:19.000Z</time>
      </trkpt>
      <trkpt lat="47.31237" lon="6.0247">
        <ele>460.1</ele>
        <time>2000-01-01T09:25:29.000Z</time>
      </trkpt>
      <trkpt lat="47.31241" lon="6.0244">
        <ele>461</ele>
        <time>2000-01-01T09:25:39.000Z</time>
      </trkpt>
      <trkpt lat="47.31243" lon="6.02412">
        <ele>462</ele>
        <time>2000-01-01T09:25:49.000Z</time>
      </trkpt>
      <trkpt lat="47.31244" lon="6.02391">
        <ele>462.9</ele>
        <time>2000-01-01T09:25:59.000Z</time>
      </trkpt>
      <trkpt lat="47.31246" lon="6.02373">
        <ele>464</ele>
        <time>2000-01-01T09:26:09.000Z</time>
      </trkpt>
      <trkpt lat="47.31247" lon="6.02369">
        <ele>464.4</ele>
        <time>2000-01-01T09:26:19.000Z</time>
      </trkpt>
      <trkpt lat="47.31253" lon="6.02337">
        <ele>466</ele>
        <time>2000-01-01T09:26:29.000Z</time>
      </trkpt>
      <trkpt lat="47.31258" lon="6.02319">
        <ele>466.8</ele>
        <time>2000-01-01T09:26:39.000Z</time>
      </trkpt>
      <trkpt lat="47.31264" lon="6.02301">
        <ele>467</ele>
        <time>2000-01-01T09:26:49.000Z</time>
      </trkpt>
      <trkpt lat="47.31271" lon="6.02274">
        <ele>468</ele>
        <time>2000-01-01T09:26:59.000Z</time>
      </trkpt>
      <trkpt lat="47.31273" lon="6.02263">
        <ele>468.8</ele>
        <time>2000-01-01T09:27:09.000Z</time>
      </trkpt>
      <trkpt lat="47.31274" lon="6.02257">
        <ele>468.9</ele>
        <time>2000-01-01T09:27:19.000Z</time>
      </trkpt>
      <trkpt lat="47.31275" lon="6.02256">
        <ele>468.9</ele>
        <time>2000-01-01T09:27:29.000Z</time>
      </trkpt>
      <trkpt lat="47.31276" lon="6.0224">
        <ele>468</ele>
        <time>2000-01-01T09:27:39.000Z</time>
      </trkpt>
      <trkpt lat="47.31276" lon="6.02217">
        <ele>468.9</ele>
        <time>2000-01-01T09:27:49.000Z</time>
      </trkpt>
      <trkpt lat="47.31276" lon="6.02216">
        <ele>468.9</ele>
        <time>2000-01-01T09:27:59.000Z</time>
      </trkpt>
      <trkpt lat="47.31276" lon="6.02195">
        <ele>468</ele>
        <time>2000-01-01T09:28:09.000Z</time>
      </trkpt>
      <trkpt lat="47.31275" lon="6.0219">
        <ele>468.6</ele>
        <time>2000-01-01T09:28:19.000Z</time>
      </trkpt>
      <trkpt lat="47.31273" lon="6.02163">
        <ele>467</ele>
        <time>2000-01-01T09:28:29.000Z</time>
      </trkpt>
      <trkpt lat="47.31272" lon="6.02157">
        <ele>467.2</ele>
        <time>2000-01-01T09:28:39.000Z</time>
      </trkpt>
      <trkpt lat="47.31271" lon="6.02103">
        <ele>464</ele>
        <time>2000-01-01T09:28:49.000Z</time>
      </trkpt>
      <trkpt lat="47.31274" lon="6.02069">
        <ele>463</ele>
        <time>2000-01-01T09:28:59.000Z</time>
      </trkpt>
      <trkpt lat="47.31277" lon="6.02036">
        <ele>463</ele>
        <time>2000-01-01T09:29:09.000Z</time>
      </trkpt>
      <trkpt lat="47.31274" lon="6.01998">
        <ele>463</ele>
        <time>2000-01-01T09:29:19.000Z</time>
      </trkpt>
      <trkpt lat="47.31271" lon="6.01951">
        <ele>463</ele>
        <time>2000-01-01T09:29:29.000Z</time>
      </trkpt>
      <trkpt lat="47.31255" lon="6.01917">
        <ele>461</ele>
        <time>2000-01-01T09:29:39.000Z</time>
      </trkpt>
      <trkpt lat="47.31229" lon="6.01862">
        <ele>456</ele>
        <time>2000-01-01T09:29:49.000Z</time>
      </trkpt>
      <trkpt lat="47.3121" lon="6.01832">
        <ele>454</ele>
        <time>2000-01-01T09:29:59.000Z</time>
      </trkpt>
      <trkpt lat="47.31181" lon="6.01787">
        <ele>450</ele>
        <time>2000-01-01T09:30:09.000Z</time>
      </trkpt>
      <trkpt lat="47.31166" lon="6.01761">
        <ele>448</ele>
        <time>2000-01-01T09:30:19.000Z</time>
      </trkpt>
      <trkpt lat="47.31151" lon="6.01734">
        <ele>447</ele>
        <time>2000-01-01T09:30:29.000Z</time>
      </trkpt>
      <trkpt lat="47.31153" lon="6.01699">
        <ele>445</ele>
        <time>2000-01-01T09:30:39.000Z</time>
      </trkpt>
      <trkpt lat="47.31155" lon="6.0166">
        <ele>443</ele>
        <time>2000-01-01T09:30:49.000Z</time>
      </trkpt>
      <trkpt lat="47.31144" lon="6.01619">
        <ele>441</ele>
        <time>2000-01-01T09:30:59.000Z</time>
      </trkpt>
      <trkpt lat="47.31121" lon="6.01578">
        <ele>438</ele>
        <time>2000-01-01T09:31:09.000Z</time>
      </trkpt>
      <trkpt lat="47.31107" lon="6.01536">
        <ele>436</ele>
        <time>2000-01-01T09:31:19.000Z</time>
      </trkpt>
      <trkpt lat="47.31119" lon="6.01508">
        <ele>434</ele>
        <time>2000-01-01T09:31:29.000Z</time>
      </trkpt>
      <trkpt lat="47.31127" lon="6.01501">
        <ele>431.3</ele>
        <time>2000-01-01T09:31:39.000Z</time>
      </trkpt>
      <trkpt lat="47.31154" lon="6.01521">
        <ele>429</ele>
        <time>2000-01-01T09:31:49.000Z</time>
      </trkpt>
      <trkpt lat="47.3118" lon="6.01544">
        <ele>426</ele>
        <time>2000-01-01T09:31:59.000Z</time>
      </trkpt>
      <trkpt lat="47.31202" lon="6.01564">
        <ele>421</ele>
        <time>2000-01-01T09:32:09.000Z</time>
      </trkpt>
      <trkpt lat="47.31231" lon="6.01591">
        <ele>416</ele>
        <time>2000-01-01T09:32:19.000Z</time>
      </trkpt>
      <trkpt lat="47.31246" lon="6.01596">
        <ele>410.7</ele>
        <time>2000-01-01T09:32:29.000Z</time>
      </trkpt>
      <trkpt lat="47.31278" lon="6.01595">
        <ele>400</ele>
        <time>2000-01-01T09:32:39.000Z</time>
      </trkpt>
      <trkpt lat="47.31295" lon="6.01603">
        <ele>394.4</ele>
        <time>2000-01-01T09:32:49.000Z</time>
      </trkpt>
      <trkpt lat="47.31316" lon="6.01625">
        <ele>390</ele>
        <time>2000-01-01T09:32:59.000Z</time>
      </trkpt>
      <trkpt lat="47.31329" lon="6.0165">
        <ele>388</ele>
        <time>2000-01-01T09:33:09.000Z</time>
      </trkpt>
      <trkpt lat="47.31346" lon="6.01672">
        <ele>383</ele>
        <time>2000-01-01T09:33:19.000Z</time>
      </trkpt>
      <trkpt lat="47.31376" lon="6.01674">
        <ele>373</ele>
        <time>2000-01-01T09:33:29.000Z</time>
      </trkpt>
      <trkpt lat="47.31407" lon="6.01677">
        <ele>366</ele>
        <time>2000-01-01T09:33:39.000Z</time>
      </trkpt>
      <trkpt lat="47.31438" lon="6.01679">
        <ele>362</ele>
        <time>2000-01-01T09:33:49.000Z</time>
      </trkpt>
      <trkpt lat="47.3146" lon="6.01674">
        <ele>360</ele>
        <time>2000-01-01T09:33:59.000Z</time>
      </trkpt>
      <trkpt lat="47.31475" lon="6.0166">
        <ele>356.1</ele>
        <time>2000-01-01T09:34:09.000Z</time>
      </trkpt>
      <trkpt lat="47.31581" lon="6.01668">
        <ele>342</ele>
        <time>2000-01-01T09:34:19.000Z</time>
      </trkpt>
      <trkpt lat="47.31607" lon="6.01665">
        <ele>341</ele>
        <time>2000-01-01T09:34:29.000Z</time>
      </trkpt>
      <trkpt lat="47.31641" lon="6.01661">
        <ele>336</ele>
        <time>2000-01-01T09:34:39.000Z</time>
      </trkpt>
      <trkpt lat="47.31643" lon="6.01662">
        <ele>335.8</ele>
        <time>2000-01-01T09:34:49.000Z</time>
      </trkpt>
      <trkpt lat="47.31651" lon="6.01666">
        <ele>334.3</ele>
        <time>2000-01-01T09:34:59.000Z</time>
      </trkpt>
      <trkpt lat="47.31658" lon="6.01672">
        <ele>335</ele>
        <time>2000-01-01T09:35:09.000Z</time>
      </trkpt>
      <trkpt lat="47.31665" lon="6.01681">
        <ele>331.9</ele>
        <time>2000-01-01T09:35:19.000Z</time>
      </trkpt>
      <trkpt lat="47.31671" lon="6.01689">
        <ele>330.6</ele>
        <time>2000-01-01T09:35:29.000Z</time>
      </trkpt>
      <trkpt lat="47.31677" lon="6.01699">
        <ele>330</ele>
        <time>2000-01-01T09:35:39.000Z</time>
      </trkpt>
      <trkpt lat="47.31685" lon="6.0171">
        <ele>328.2</ele>
        <time>2000-01-01T09:35:49.000Z</time>
      </trkpt>
      <trkpt lat="47.31693" lon="6.0172">
        <ele>327</ele>
        <time>2000-01-01T09:35:59.000Z</time>
      </trkpt>
      <trkpt lat="47.31698" lon="6.01725">
        <ele>326.6</ele>
        <time>2000-01-01T09:36:09.000Z</time>
      </trkpt>
      <trkpt lat="47.31703" lon="6.01731">
        <ele>326.2</ele>
        <time>2000-01-01T09:36:19.000Z</time>
      </trkpt>
      <trkpt lat="47.31711" lon="6.01737">
        <ele>324</ele>
        <time>2000-01-01T09:36:29.000Z</time>
      </trkpt>
      <trkpt lat="47.3172" lon="6.01739">
        <ele>324.2</ele>
        <time>2000-01-01T09:36:39.000Z</time>
      </trkpt>
      <trkpt lat="47.31728" lon="6.01738">
        <ele>323</ele>
        <time>2000-01-01T09:36:49.000Z</time>
      </trkpt>
      <trkpt lat="47.3173" lon="6.01738">
        <ele>323</ele>
        <time>2000-01-01T09:36:59.000Z</time>
      </trkpt>
      <trkpt lat="47.31738" lon="6.01736">
        <ele>321.5</ele>
        <time>2000-01-01T09:37:09.000Z</time>
      </trkpt>
      <trkpt lat="47.31749" lon="6.01736">
        <ele>320</ele>
        <time>2000-01-01T09:37:19.000Z</time>
      </trkpt>
      <trkpt lat="47.31757" lon="6.01735">
        <ele>319</ele>
        <time>2000-01-01T09:37:29.000Z</time>
      </trkpt>
      <trkpt lat="47.31765" lon="6.01732">
        <ele>317.7</ele>
        <time>2000-01-01T09:37:39.000Z</time>
      </trkpt>
      <trkpt lat="47.31771" lon="6.01726">
        <ele>315</ele>
        <time>2000-01-01T09:37:49.000Z</time>
      </trkpt>
      <trkpt lat="47.31781" lon="6.01717">
        <ele>314.1</ele>
        <time>2000-01-01T09:37:59.000Z</time>
      </trkpt>
      <trkpt lat="47.3179" lon="6.01707">
        <ele>311</ele>
        <time>2000-01-01T09:38:09.000Z</time>
      </trkpt>
      <trkpt lat="47.31798" lon="6.01697">
        <ele>309.6</ele>
        <time>2000-01-01T09:38:19.000Z</time>
      </trkpt>
      <trkpt lat="47.31805" lon="6.0169">
        <ele>308</ele>
        <time>2000-01-01T09:38:29.000Z</time>
      </trkpt>
      <trkpt lat="47.31812" lon="6.01686">
        <ele>306</ele>
        <time>2000-01-01T09:38:39.000Z</time>
      </trkpt>
      <trkpt lat="47.31819" lon="6.01684">
        <ele>304.6</ele>
        <time>2000-01-01T09:38:49.000Z</time>
      </trkpt>
      <trkpt lat="47.31824" lon="6.01683">
        <ele>303</ele>
        <time>2000-01-01T09:38:59.000Z</time>
      </trkpt>
      <trkpt lat="47.31828" lon="6.01683">
        <ele>303.1</ele>
        <time>2000-01-01T09:39:09.000Z</time>
      </trkpt>
      <trkpt lat="47.31839" lon="6.01682">
        <ele>301.6</ele>
        <time>2000-01-01T09:39:19.000Z</time>
      </trkpt>
      <trkpt lat="47.31851" lon="6.0168">
        <ele>300</ele>
        <time>2000-01-01T09:39:29.000Z</time>
      </trkpt>
      <trkpt lat="47.31863" lon="6.01679">
        <ele>299.2</ele>
        <time>2000-01-01T09:39:39.000Z</time>
      </trkpt>
      <trkpt lat="47.31867" lon="6.01678">
        <ele>298.8</ele>
        <time>2000-01-01T09:39:49.000Z</time>
      </trkpt>
      <trkpt lat="47.31872" lon="6.01677">
        <ele>297</ele>
        <time>2000-01-01T09:39:59.000Z</time>
      </trkpt>
      <trkpt lat="47.31879" lon="6.01673">
        <ele>297.4</ele>
        <time>2000-01-01T09:40:09.000Z</time>
      </trkpt>
      <trkpt lat="47.31889" lon="6.01662">
        <ele>296</ele>
        <time>2000-01-01T09:40:19.000Z</time>
      </trkpt>
      <trkpt lat="47.31904" lon="6.01644">
        <ele>293</ele>
        <time>2000-01-01T09:40:29.000Z</time>
      </trkpt>
      <trkpt lat="47.31914" lon="6.01632">
        <ele>291.7</ele>
        <time>2000-01-01T09:40:39.000Z</time>
      </trkpt>
      <trkpt lat="47.31919" lon="6.01623">
        <ele>291</ele>
        <time>2000-01-01T09:40:49.000Z</time>
      </trkpt>
      <trkpt lat="47.31925" lon="6.0161">
        <ele>289.6</ele>
        <time>2000-01-01T09:40:59.000Z</time>
      </trkpt>
      <trkpt lat="47.31934" lon="6.01593">
        <ele>288</ele>
        <time>2000-01-01T09:41:09.000Z</time>
      </trkpt>
      <trkpt lat="47.31946" lon="6.01574">
        <ele>286.2</ele>
        <time>2000-01-01T09:41:19.000Z</time>
      </trkpt>
      <trkpt lat="47.31959" lon="6.01551">
        <ele>284</ele>
        <time>2000-01-01T09:41:29.000Z</time>
      </trkpt>
      <trkpt lat="47.31972" lon="6.01529">
        <ele>280</ele>
        <time>2000-01-01T09:41:39.000Z</time>
      </trkpt>
      <trkpt lat="47.31985" lon="6.01509">
        <ele>277</ele>
        <time>2000-01-01T09:41:49.000Z</time>
      </trkpt>
      <trkpt lat="47.31997" lon="6.01491">
        <ele>275.7</ele>
        <time>2000-01-01T09:41:59.000Z</time>
      </trkpt>
      <trkpt lat="47.32007" lon="6.01478">
        <ele>273</ele>
        <time>2000-01-01T09:42:09.000Z</time>
      </trkpt>
      <trkpt lat="47.32017" lon="6.01464">
        <ele>271.8</ele>
        <time>2000-01-01T09:42:19.000Z</time>
      </trkpt>
      <trkpt lat="47.32026" lon="6.0145">
        <ele>270</ele>
        <time>2000-01-01T09:42:29.000Z</time>
      </trkpt>
      <trkpt lat="47.32036" lon="6.01434">
        <ele>268.6</ele>
        <time>2000-01-01T09:42:39.000Z</time>
      </trkpt>
      <trkpt lat="47.32038" lon="6.0143">
        <ele>268.2</ele>
        <time>2000-01-01T09:42:49.000Z</time>
      </trkpt>
      <trkpt lat="47.32048" lon="6.01413">
        <ele>267</ele>
        <time>2000-01-01T09:42:59.000Z</time>
      </trkpt>
      <trkpt lat="47.32058" lon="6.01399">
        <ele>265.1</ele>
        <time>2000-01-01T09:43:09.000Z</time>
      </trkpt>
      <trkpt lat="47.32068" lon="6.01391">
        <ele>265</ele>
        <time>2000-01-01T09:43:19.000Z</time>
      </trkpt>
      <trkpt lat="47.32078" lon="6.01381">
        <ele>263.2</ele>
        <time>2000-01-01T09:43:29.000Z</time>
      </trkpt>
      <trkpt lat="47.32088" lon="6.01372">
        <ele>263</ele>
        <time>2000-01-01T09:43:39.000Z</time>
      </trkpt>
      <trkpt lat="47.32089" lon="6.01374">
        <ele>261.4</ele>
        <time>2000-01-01T09:43:49.000Z</time>
      </trkpt>
      <trkpt lat="47.32098" lon="6.01396">
        <ele>262</ele>
        <time>2000-01-01T09:43:59.000Z</time>
      </trkpt>
      <trkpt lat="47.321" lon="6.01405">
        <ele>260.1</ele>
        <time>2000-01-01T09:44:09.000Z</time>
      </trkpt>
      <trkpt lat="47.32103" lon="6.01414">
        <ele>259.8</ele>
        <time>2000-01-01T09:44:19.000Z</time>
      </trkpt>
      <trkpt lat="47.32113" lon="6.0146">
        <ele>260</ele>
        <time>2000-01-01T09:44:29.000Z</time>
      </trkpt>
      <trkpt lat="47.32123" lon="6.01506">
        <ele>259</ele>
        <time>2000-01-01T09:44:39.000Z</time>
      </trkpt>
      <trkpt lat="47.3213" lon="6.01539">
        <ele>259</ele>
        <time>2000-01-01T09:44:49.000Z</time>
      </trkpt>
      <trkpt lat="47.32138" lon="6.01575">
        <ele>259</ele>
        <time>2000-01-01T09:44:59.000Z</time>
      </trkpt>
      <trkpt lat="47.32152" lon="6.01615">
        <ele>255</ele>
        <time>2000-01-01T09:45:09.000Z</time>
      </trkpt>
      <trkpt lat="47.32168" lon="6.01634">
        <ele>254</ele>
        <time>2000-01-01T09:45:19.000Z</time>
      </trkpt>
      <trkpt lat="47.3221" lon="6.01621">
        <ele>249</ele>
        <time>2000-01-01T09:45:29.000Z</time>
      </trkpt>
      <trkpt lat="47.32233" lon="6.0162">
        <ele>244</ele>
        <time>2000-01-01T09:45:39.000Z</time>
      </trkpt>
      <trkpt lat="47.32257" lon="6.01619">
        <ele>242</ele>
        <time>2000-01-01T09:45:49.000Z</time>
      </trkpt>
      <trkpt lat="47.32282" lon="6.0162">
        <ele>239</ele>
        <time>2000-01-01T09:45:59.000Z</time>
      </trkpt>
      <trkpt lat="47.32312" lon="6.01621">
        <ele>234</ele>
        <time>2000-01-01T09:46:09.000Z</time>
      </trkpt>
      <trkpt lat="47.32339" lon="6.01633">
        <ele>231</ele>
        <time>2000-01-01T09:46:19.000Z</time>
      </trkpt>
      <trkpt lat="47.32367" lon="6.01662">
        <ele>227</ele>
        <time>2000-01-01T09:46:29.000Z</time>
      </trkpt>
      <trkpt lat="47.32398" lon="6.01635">
        <ele>227</ele>
        <time>2000-01-01T09:46:39.000Z</time>
      </trkpt>
      <trkpt lat="47.32423" lon="6.01604">
        <ele>229</ele>
        <time>2000-01-01T09:46:49.000Z</time>
      </trkpt>
      <trkpt lat="47.32447" lon="6.01573">
        <ele>229</ele>
        <time>2000-01-01T09:46:59.000Z</time>
      </trkpt>
      <trkpt lat="47.32465" lon="6.0155">
        <ele>227</ele>
        <time>2000-01-01T09:47:09.000Z</time>
      </trkpt>
      <trkpt lat="47.32484" lon="6.01527">
        <ele>227</ele>
        <time>2000-01-01T09:47:19.000Z</time>
      </trkpt>
      <trkpt lat="47.3251" lon="6.01499">
        <ele>225</ele>
        <time>2000-01-01T09:47:29.000Z</time>
      </trkpt>
      <trkpt lat="47.32536" lon="6.0147">
        <ele>224</ele>
        <time>2000-01-01T09:47:39.000Z</time>
      </trkpt>
      <trkpt lat="47.32554" lon="6.0145">
        <ele>224</ele>
        <time>2000-01-01T09:47:49.000Z</time>
      </trkpt>
      <trkpt lat="47.32573" lon="6.0143">
        <ele>223</ele>
        <time>2000-01-01T09:47:59.000Z</time>
      </trkpt>
      <trkpt lat="47.32599" lon="6.01418">
        <ele>222</ele>
        <time>2000-01-01T09:48:09.000Z</time>
      </trkpt>
      <trkpt lat="47.32639" lon="6.01399">
        <ele>222</ele>
        <time>2000-01-01T09:48:19.000Z</time>
      </trkpt>
      <trkpt lat="47.32662" lon="6.01393">
        <ele>222</ele>
        <time>2000-01-01T09:48:29.000Z</time>
      </trkpt>
      <trkpt lat="47.32688" lon="6.01386">
        <ele>222</ele>
        <time>2000-01-01T09:48:39.000Z</time>
      </trkpt>
      <trkpt lat="47.32719" lon="6.01381">
        <ele>222</ele>
        <time>2000-01-01T09:48:49.000Z</time>
      </trkpt>
      <trkpt lat="47.32745" lon="6.01403">
        <ele>222</ele>
        <time>2000-01-01T09:48:59.000Z</time>
      </trkpt>
      <trkpt lat="47.32782" lon="6.01434">
        <ele>222</ele>
        <time>2000-01-01T09:49:09.000Z</time>
      </trkpt>
      <trkpt lat="47.32784" lon="6.01436">
        <ele>222.5</ele>
        <time>2000-01-01T09:49:19.000Z</time>
      </trkpt>
      <trkpt lat="47.32792" lon="6.01443">
        <ele>222.6</ele>
        <time>2000-01-01T09:49:29.000Z</time>
      </trkpt>
      <trkpt lat="47.32803" lon="6.01452">
        <ele>222</ele>
        <time>2000-01-01T09:49:39.000Z</time>
      </trkpt>
      <trkpt lat="47.32821" lon="6.01465">
        <ele>221</ele>
        <time>2000-01-01T09:49:49.000Z</time>
      </trkpt>
      <trkpt lat="47.3284" lon="6.0147">
        <ele>221</ele>
        <time>2000-01-01T09:49:59.000Z</time>
      </trkpt>
      <trkpt lat="47.32851" lon="6.01472">
        <ele>222</ele>
        <time>2000-01-01T09:50:09.000Z</time>
      </trkpt>
      <trkpt lat="47.32865" lon="6.01469">
        <ele>221</ele>
        <time>2000-01-01T09:50:19.000Z</time>
      </trkpt>
      <trkpt lat="47.32875" lon="6.01467">
        <ele>223.7</ele>
        <time>2000-01-01T09:50:29.000Z</time>
      </trkpt>
      <trkpt lat="47.32879" lon="6.01465">
        <ele>224.3</ele>
        <time>2000-01-01T09:50:39.000Z</time>
      </trkpt>
      <trkpt lat="47.32887" lon="6.01462">
        <ele>221</ele>
        <time>2000-01-01T09:50:49.000Z</time>
      </trkpt>
      <trkpt lat="47.32893" lon="6.01459">
        <ele>225.2</ele>
        <time>2000-01-01T09:50:59.000Z</time>
      </trkpt>
      <trkpt lat="47.32904" lon="6.01454">
        <ele>223.6</ele>
        <time>2000-01-01T09:51:09.000Z</time>
      </trkpt>
      <trkpt lat="47.32909" lon="6.01451">
        <ele>223</ele>
        <time>2000-01-01T09:51:19.000Z</time>
      </trkpt>
      <trkpt lat="47.32925" lon="6.01429">
        <ele>223</ele>
        <time>2000-01-01T09:51:29.000Z</time>
      </trkpt>
      <trkpt lat="47.32945" lon="6.01401">
        <ele>223</ele>
        <time>2000-01-01T09:51:39.000Z</time>
      </trkpt>
      <trkpt lat="47.32951" lon="6.01393">
        <ele>223.6</ele>
        <time>2000-01-01T09:51:49.000Z</time>
      </trkpt>
      <trkpt lat="47.32971" lon="6.01364">
        <ele>223</ele>
        <time>2000-01-01T09:51:59.000Z</time>
      </trkpt>
      <trkpt lat="47.32989" lon="6.01335">
        <ele>223</ele>
        <time>2000-01-01T09:52:09.000Z</time>
      </trkpt>
      <trkpt lat="47.33008" lon="6.01307">
        <ele>223</ele>
        <time>2000-01-01T09:52:19.000Z</time>
      </trkpt>
      <trkpt lat="47.33034" lon="6.01268">
        <ele>223</ele>
        <time>2000-01-01T09:52:29.000Z</time>
      </trkpt>
      <trkpt lat="47.33061" lon="6.01228">
        <ele>223</ele>
        <time>2000-01-01T09:52:39.000Z</time>
      </trkpt>
      <trkpt lat="47.33085" lon="6.01194">
        <ele>223</ele>
        <time>2000-01-01T09:52:49.000Z</time>
      </trkpt>
      <trkpt lat="47.33099" lon="6.01177">
        <ele>222</ele>
        <time>2000-01-01T09:52:59.000Z</time>
      </trkpt>
      <trkpt lat="47.3311" lon="6.01166">
        <ele>224</ele>
        <time>2000-01-01T09:53:09.000Z</time>
      </trkpt>
      <trkpt lat="47.33122" lon="6.01159">
        <ele>222</ele>
        <time>2000-01-01T09:53:19.000Z</time>
      </trkpt>
      <trkpt lat="47.33148" lon="6.01141">
        <ele>221</ele>
        <time>2000-01-01T09:53:29.000Z</time>
      </trkpt>
      <trkpt lat="47.33185" lon="6.01114">
        <ele>221</ele>
        <time>2000-01-01T09:53:39.000Z</time>
      </trkpt>
      <trkpt lat="47.33191" lon="6.0111">
        <ele>220.4</ele>
        <time>2000-01-01T09:53:49.000Z</time>
      </trkpt>
      <trkpt lat="47.33213" lon="6.0109">
        <ele>220</ele>
        <time>2000-01-01T09:53:59.000Z</time>
      </trkpt>
      <trkpt lat="47.33233" lon="6.01075">
        <ele>220</ele>
        <time>2000-01-01T09:54:09.000Z</time>
      </trkpt>
      <trkpt lat="47.33243" lon="6.01066">
        <ele>220.2</ele>
        <time>2000-01-01T09:54:19.000Z</time>
      </trkpt>
      <trkpt lat="47.33251" lon="6.0106">
        <ele>220</ele>
        <time>2000-01-01T09:54:29.000Z</time>
      </trkpt>
      <trkpt lat="47.33286" lon="6.0104">
        <ele>219</ele>
        <time>2000-01-01T09:54:39.000Z</time>
      </trkpt>
      <trkpt lat="47.33294" lon="6.01036">
        <ele>219.4</ele>
        <time>2000-01-01T09:54:49.000Z</time>
      </trkpt>
      <trkpt lat="47.33305" lon="6.01032">
        <ele>219</ele>
        <time>2000-01-01T09:54:59.000Z</time>
      </trkpt>
      <trkpt lat="47.33309" lon="6.01028">
        <ele>219.7</ele>
        <time>2000-01-01T09:55:09.000Z</time>
      </trkpt>
      <trkpt lat="47.33316" lon="6.01014">
        <ele>219.4</ele>
        <time>2000-01-01T09:55:19.000Z</time>
      </trkpt>
      <trkpt lat="47.33317" lon="6.01006">
        <ele>219</ele>
        <time>2000-01-01T09:55:29.000Z</time>
      </trkpt>
      <trkpt lat="47.33317" lon="6.01002">
        <ele>219.6</ele>
        <time>2000-01-01T09:55:39.000Z</time>
      </trkpt>
      <trkpt lat="47.33316" lon="6.00998">
        <ele>219.7</ele>
        <time>2000-01-01T09:55:49.000Z</time>
      </trkpt>
      <trkpt lat="47.33314" lon="6.00989">
        <ele>220.2</ele>
        <time>2000-01-01T09:55:59.000Z</time>
      </trkpt>
      <trkpt lat="47.3331" lon="6.00979">
        <ele>220</ele>
        <time>2000-01-01T09:56:09.000Z</time>
      </trkpt>
      <trkpt lat="47.33295" lon="6.00952">
        <ele>223</ele>
        <time>2000-01-01T09:56:19.000Z</time>
      </trkpt>
      <trkpt lat="47.33279" lon="6.00921">
        <ele>225</ele>
        <time>2000-01-01T09:56:29.000Z</time>
      </trkpt>
      <trkpt lat="47.33265" lon="6.00897">
        <ele>227</ele>
        <time>2000-01-01T09:56:39.000Z</time>
      </trkpt>
      <trkpt lat="47.33255" lon="6.00883">
        <ele>229.8</ele>
        <time>2000-01-01T09:56:49.000Z</time>
      </trkpt>
      <trkpt lat="47.33253" lon="6.00877">
        <ele>230</ele>
        <time>2000-01-01T09:56:59.000Z</time>
      </trkpt>
      <trkpt lat="47.33252" lon="6.0087">
        <ele>229</ele>
        <time>2000-01-01T09:57:09.000Z</time>
      </trkpt>
      <trkpt lat="47.33252" lon="6.00864">
        <ele>230.1</ele>
        <time>2000-01-01T09:57:19.000Z</time>
      </trkpt>
      <trkpt lat="47.33265" lon="6.0082">
        <ele>229</ele>
        <time>2000-01-01T09:57:29.000Z</time>
      </trkpt>
      <trkpt lat="47.33273" lon="6.00784">
        <ele>228</ele>
        <time>2000-01-01T09:57:39.000Z</time>
      </trkpt>
      <trkpt lat="47.33279" lon="6.00756">
        <ele>228</ele>
        <time>2000-01-01T09:57:49.000Z</time>
      </trkpt>
      <trkpt lat="47.33286" lon="6.00732">
        <ele>229.5</ele>
        <time>2000-01-01T09:57:59.000Z</time>
      </trkpt>
      <trkpt lat="47.33303" lon="6.00686">
        <ele>227</ele>
        <time>2000-01-01T09:58:09.000Z</time>
      </trkpt>
      <trkpt lat="47.33316" lon="6.00651">
        <ele>227</ele>
        <time>2000-01-01T09:58:19.000Z</time>
      </trkpt>
      <trkpt lat="47.33336" lon="6.006">
        <ele>227</ele>
        <time>2000-01-01T09:58:29.000Z</time>
      </trkpt>
      <trkpt lat="47.33343" lon="6.00582">
        <ele>228.5</ele>
        <time>2000-01-01T09:58:39.000Z</time>
      </trkpt>
      <trkpt lat="47.33348" lon="6.00565">
        <ele>227</ele>
        <time>2000-01-01T09:58:49.000Z</time>
      </trkpt>
      <trkpt lat="47.33354" lon="6.00553">
        <ele>230.2</ele>
        <time>2000-01-01T09:58:59.000Z</time>
      </trkpt>
      <trkpt lat="47.33357" lon="6.00548">
        <ele>229.8</ele>
        <time>2000-01-01T09:59:09.000Z</time>
      </trkpt>
      <trkpt lat="47.33359" lon="6.00542">
        <ele>229.2</ele>
        <time>2000-01-01T09:59:19.000Z</time>
      </trkpt>
      <trkpt lat="47.33363" lon="6.0053">
        <ele>228</ele>
        <time>2000-01-01T09:59:29.000Z</time>
      </trkpt>
      <trkpt lat="47.33368" lon="6.00516">
        <ele>228.4</ele>
        <time>2000-01-01T09:59:39.000Z</time>
      </trkpt>
      <trkpt lat="47.3338" lon="6.00484">
        <ele>229</ele>
        <time>2000-01-01T09:59:49.000Z</time>
      </trkpt>
      <trkpt lat="47.3339" lon="6.00455">
        <ele>230</ele>
        <time>2000-01-01T09:59:59.000Z</time>
      </trkpt>
      <trkpt lat="47.33395" lon="6.00431">
        <ele>231.4</ele>
        <time>2000-01-01T10:00:09.000Z</time>
      </trkpt>
      <trkpt lat="47.33402" lon="6.00375">
        <ele>228</ele>
        <time>2000-01-01T10:00:19.000Z</time>
      </trkpt>
      <trkpt lat="47.33404" lon="6.00357">
        <ele>230.5</ele>
        <time>2000-01-01T10:00:29.000Z</time>
      </trkpt>
      <trkpt lat="47.33404" lon="6.00349">
        <ele>229.6</ele>
        <time>2000-01-01T10:00:39.000Z</time>
      </trkpt>
      <trkpt lat="47.33405" lon="6.00341">
        <ele>228</ele>
        <time>2000-01-01T10:00:49.000Z</time>
      </trkpt>
      <trkpt lat="47.33405" lon="6.00331">
        <ele>228</ele>
        <time>2000-01-01T10:00:59.000Z</time>
      </trkpt>
      <trkpt lat="47.33405" lon="6.0032">
        <ele>228.3</ele>
        <time>2000-01-01T10:01:09.000Z</time>
      </trkpt>
      <trkpt lat="47.33406" lon="6.0031">
        <ele>229</ele>
        <time>2000-01-01T10:01:19.000Z</time>
      </trkpt>
      <trkpt lat="47.33406" lon="6.003">
        <ele>229.1</ele>
        <time>2000-01-01T10:01:29.000Z</time>
      </trkpt>
      <trkpt lat="47.33406" lon="6.00293">
        <ele>229.8</ele>
        <time>2000-01-01T10:01:39.000Z</time>
      </trkpt>
      <trkpt lat="47.33406" lon="6.00287">
        <ele>230.4</ele>
        <time>2000-01-01T10:01:49.000Z</time>
      </trkpt>
      <trkpt lat="47.33406" lon="6.00283">
        <ele>230.7</ele>
        <time>2000-01-01T10:01:59.000Z</time>
      </trkpt>
      <trkpt lat="47.33405" lon="6.0028">
        <ele>230</ele>
        <time>2000-01-01T10:02:09.000Z</time>
      </trkpt>
      <trkpt lat="47.33405" lon="6.00275">
        <ele>231</ele>
        <time>2000-01-01T10:02:19.000Z</time>
      </trkpt>
      <trkpt lat="47.33403" lon="6.00267">
        <ele>230.6</ele>
        <time>2000-01-01T10:02:29.000Z</time>
      </trkpt>
      <trkpt lat="47.33402" lon="6.00257">
        <ele>230.3</ele>
        <time>2000-01-01T10:02:39.000Z</time>
      </trkpt>
      <trkpt lat="47.33399" lon="6.00245">
        <ele>231</ele>
        <time>2000-01-01T10:02:49.000Z</time>
      </trkpt>
      <trkpt lat="47.33397" lon="6.0023">
        <ele>230.7</ele>
        <time>2000-01-01T10:02:59.000Z</time>
      </trkpt>
      <trkpt lat="47.33394" lon="6.00214">
        <ele>231</ele>
        <time>2000-01-01T10:03:09.000Z</time>
      </trkpt>
      <trkpt lat="47.33391" lon="6.00198">
        <ele>231.8</ele>
        <time>2000-01-01T10:03:19.000Z</time>
      </trkpt>
      <trkpt lat="47.33388" lon="6.00176">
        <ele>231</ele>
        <time>2000-01-01T10:03:29.000Z</time>
      </trkpt>
      <trkpt lat="47.33386" lon="6.00168">
        <ele>231.1</ele>
        <time>2000-01-01T10:03:39.000Z</time>
      </trkpt>
      <trkpt lat="47.33386" lon="6.00163">
        <ele>231</ele>
        <time>2000-01-01T10:03:49.000Z</time>
      </trkpt>
      <trkpt lat="47.33384" lon="6.0015">
        <ele>230.7</ele>
        <time>2000-01-01T10:03:59.000Z</time>
      </trkpt>
      <trkpt lat="47.33384" lon="6.00142">
        <ele>230</ele>
        <time>2000-01-01T10:04:09.000Z</time>
      </trkpt>
      <trkpt lat="47.33383" lon="6.00136">
        <ele>230.3</ele>
        <time>2000-01-01T10:04:19.000Z</time>
      </trkpt>
      <trkpt lat="47.33382" lon="6.00126">
        <ele>230</ele>
        <time>2000-01-01T10:04:29.000Z</time>
      </trkpt>
      <trkpt lat="47.33382" lon="6.00106">
        <ele>229</ele>
        <time>2000-01-01T10:04:39.000Z</time>
      </trkpt>
      <trkpt lat="47.33384" lon="6.0005">
        <ele>227</ele>
        <time>2000-01-01T10:04:49.000Z</time>
      </trkpt>
      <trkpt lat="47.33387" lon="5.99993">
        <ele>224</ele>
        <time>2000-01-01T10:04:59.000Z</time>
      </trkpt>
      <trkpt lat="47.33392" lon="5.99955">
        <ele>223</ele>
        <time>2000-01-01T10:05:09.000Z</time>
      </trkpt>
      <trkpt lat="47.33397" lon="5.99903">
        <ele>221</ele>
        <time>2000-01-01T10:05:19.000Z</time>
      </trkpt>
      <trkpt lat="47.334" lon="5.99881">
        <ele>220.4</ele>
        <time>2000-01-01T10:05:29.000Z</time>
      </trkpt>
      <trkpt lat="47.33402" lon="5.99871">
        <ele>219</ele>
        <time>2000-01-01T10:05:39.000Z</time>
      </trkpt>
      <trkpt lat="47.33403" lon="5.99848">
        <ele>219.5</ele>
        <time>2000-01-01T10:05:49.000Z</time>
      </trkpt>
      <trkpt lat="47.33402" lon="5.99842">
        <ele>218</ele>
        <time>2000-01-01T10:05:59.000Z</time>
      </trkpt>
      <trkpt lat="47.33402" lon="5.99836">
        <ele>219.1</ele>
        <time>2000-01-01T10:06:09.000Z</time>
      </trkpt>
      <trkpt lat="47.33395" lon="5.99822">
        <ele>218.7</ele>
        <time>2000-01-01T10:06:19.000Z</time>
      </trkpt>
      <trkpt lat="47.33376" lon="5.99803">
        <ele>218</ele>
        <time>2000-01-01T10:06:29.000Z</time>
      </trkpt>
      <trkpt lat="47.33334" lon="5.99816">
        <ele>219</ele>
        <time>2000-01-01T10:06:39.000Z</time>
      </trkpt>
      <trkpt lat="47.3331" lon="5.99802">
        <ele>220</ele>
        <time>2000-01-01T10:06:49.000Z</time>
      </trkpt>
      <trkpt lat="47.33303" lon="5.99807">
        <ele>220</ele>
        <time>2000-01-01T10:06:59.000Z</time>
      </trkpt>
      <trkpt lat="47.33291" lon="5.99794">
        <ele>220</ele>
        <time>2000-01-01T10:07:09.000Z</time>
      </trkpt>
      <trkpt lat="47.33261" lon="5.99791">
        <ele>220</ele>
        <time>2000-01-01T10:07:19.000Z</time>
      </trkpt>
      <trkpt lat="47.33227" lon="5.99798">
        <ele>220</ele>
        <time>2000-01-01T10:07:29.000Z</time>
      </trkpt>
      <trkpt lat="47.33194" lon="5.99805">
        <ele>220</ele>
        <time>2000-01-01T10:07:39.000Z</time>
      </trkpt>
      <trkpt lat="47.33168" lon="5.99811">
        <ele>220</ele>
        <time>2000-01-01T10:07:49.000Z</time>
      </trkpt>
      <trkpt lat="47.33131" lon="5.99819">
        <ele>220</ele>
        <time>2000-01-01T10:07:59.000Z</time>
      </trkpt>
      <trkpt lat="47.33101" lon="5.99824">
        <ele>220</ele>
        <time>2000-01-01T10:08:09.000Z</time>
      </trkpt>
      <trkpt lat="47.33076" lon="5.99829">
        <ele>220</ele>
        <time>2000-01-01T10:08:19.000Z</time>
      </trkpt>
      <trkpt lat="47.33046" lon="5.99834">
        <ele>220</ele>
        <time>2000-01-01T10:08:29.000Z</time>
      </trkpt>
      <trkpt lat="47.33018" lon="5.9984">
        <ele>221</ele>
        <time>2000-01-01T10:08:39.000Z</time>
      </trkpt>
      <trkpt lat="47.32995" lon="5.99846">
        <ele>222</ele>
        <time>2000-01-01T10:08:49.000Z</time>
      </trkpt>
      <trkpt lat="47.32972" lon="5.99851">
        <ele>222</ele>
        <time>2000-01-01T10:08:59.000Z</time>
      </trkpt>
      <trkpt lat="47.32949" lon="5.99828">
        <ele>222</ele>
        <time>2000-01-01T10:09:09.000Z</time>
      </trkpt>
      <trkpt lat="47.32913" lon="5.99791">
        <ele>222</ele>
        <time>2000-01-01T10:09:19.000Z</time>
      </trkpt>
      <trkpt lat="47.32913" lon="5.99777">
        <ele>221.1</ele>
        <time>2000-01-01T10:09:29.000Z</time>
      </trkpt>
      <trkpt lat="47.32917" lon="5.9976">
        <ele>220</ele>
        <time>2000-01-01T10:09:39.000Z</time>
      </trkpt>
      <trkpt lat="47.32913" lon="5.99738">
        <ele>219.1</ele>
        <time>2000-01-01T10:09:49.000Z</time>
      </trkpt>
      <trkpt lat="47.32901" lon="5.9972">
        <ele>218</ele>
        <time>2000-01-01T10:09:59.000Z</time>
      </trkpt>
      <trkpt lat="47.32883" lon="5.99706">
        <ele>218</ele>
        <time>2000-01-01T10:10:09.000Z</time>
      </trkpt>
      <trkpt lat="47.32845" lon="5.99709">
        <ele>219</ele>
        <time>2000-01-01T10:10:19.000Z</time>
      </trkpt>
      <trkpt lat="47.32828" lon="5.99696">
        <ele>220</ele>
        <time>2000-01-01T10:10:29.000Z</time>
      </trkpt>
      <trkpt lat="47.328" lon="5.99665">
        <ele>223</ele>
        <time>2000-01-01T10:10:39.000Z</time>
      </trkpt>
      <trkpt lat="47.32772" lon="5.99634">
        <ele>223</ele>
        <time>2000-01-01T10:10:49.000Z</time>
      </trkpt>
      <trkpt lat="47.32744" lon="5.99603">
        <ele>226</ele>
        <time>2000-01-01T10:10:59.000Z</time>
      </trkpt>
      <trkpt lat="47.32708" lon="5.99563">
        <ele>230</ele>
        <time>2000-01-01T10:11:09.000Z</time>
      </trkpt>
      <trkpt lat="47.32686" lon="5.99534">
        <ele>231</ele>
        <time>2000-01-01T10:11:19.000Z</time>
      </trkpt>
      <trkpt lat="47.32667" lon="5.9951">
        <ele>231</ele>
        <time>2000-01-01T10:11:29.000Z</time>
      </trkpt>
      <trkpt lat="47.32644" lon="5.99481">
        <ele>230</ele>
        <time>2000-01-01T10:11:39.000Z</time>
      </trkpt>
      <trkpt lat="47.32616" lon="5.9945">
        <ele>229</ele>
        <time>2000-01-01T10:11:49.000Z</time>
      </trkpt>
      <trkpt lat="47.32587" lon="5.99419">
        <ele>227</ele>
        <time>2000-01-01T10:11:59.000Z</time>
      </trkpt>
      <trkpt lat="47.32559" lon="5.99388">
        <ele>226</ele>
        <time>2000-01-01T10:12:09.000Z</time>
      </trkpt>
      <trkpt lat="47.3254" lon="5.99367">
        <ele>225</ele>
        <time>2000-01-01T10:12:19.000Z</time>
      </trkpt>
      <trkpt lat="47.32519" lon="5.99344">
        <ele>224</ele>
        <time>2000-01-01T10:12:29.000Z</time>
      </trkpt>
      <trkpt lat="47.325" lon="5.99321">
        <ele>223</ele>
        <time>2000-01-01T10:12:39.000Z</time>
      </trkpt>
      <trkpt lat="47.32477" lon="5.99294">
        <ele>222</ele>
        <time>2000-01-01T10:12:49.000Z</time>
      </trkpt>
      <trkpt lat="47.32462" lon="5.99266">
        <ele>221</ele>
        <time>2000-01-01T10:12:59.000Z</time>
      </trkpt>
      <trkpt lat="47.32444" lon="5.99234">
        <ele>220</ele>
        <time>2000-01-01T10:13:09.000Z</time>
      </trkpt>
      <trkpt lat="47.32427" lon="5.99208">
        <ele>220</ele>
        <time>2000-01-01T10:13:19.000Z</time>
      </trkpt>
      <trkpt lat="47.32408" lon="5.99178">
        <ele>220</ele>
        <time>2000-01-01T10:13:29.000Z</time>
      </trkpt>
      <trkpt lat="47.32402" lon="5.99164">
        <ele>219.6</ele>
        <time>2000-01-01T10:13:39.000Z</time>
      </trkpt>
      <trkpt lat="47.32404" lon="5.99141">
        <ele>221</ele>
        <time>2000-01-01T10:13:49.000Z</time>
      </trkpt>
      <trkpt lat="47.32408" lon="5.99126">
        <ele>220.2</ele>
        <time>2000-01-01T10:13:59.000Z</time>
      </trkpt>
      <trkpt lat="47.32398" lon="5.99109">
        <ele>223</ele>
        <time>2000-01-01T10:14:09.000Z</time>
      </trkpt>
      <trkpt lat="47.32384" lon="5.99091">
        <ele>224</ele>
        <time>2000-01-01T10:14:19.000Z</time>
      </trkpt>
      <trkpt lat="47.32373" lon="5.99082">
        <ele>224.2</ele>
        <time>2000-01-01T10:14:29.000Z</time>
      </trkpt>
      <trkpt lat="47.32361" lon="5.99079">
        <ele>225</ele>
        <time>2000-01-01T10:14:39.000Z</time>
      </trkpt>
      <trkpt lat="47.32349" lon="5.99083">
        <ele>225.9</ele>
        <time>2000-01-01T10:14:49.000Z</time>
      </trkpt>
      <trkpt lat="47.32284" lon="5.98983">
        <ele>231</ele>
        <time>2000-01-01T10:14:59.000Z</time>
      </trkpt>
      <trkpt lat="47.32292" lon="5.98976">
        <ele>231</ele>
        <time>2000-01-01T10:15:09.000Z</time>
      </trkpt>
      <trkpt lat="47.32284" lon="5.98968">
        <ele>231</ele>
        <time>2000-01-01T10:15:19.000Z</time>
      </trkpt>
      <trkpt lat="47.32259" lon="5.98957">
        <ele>232</ele>
        <time>2000-01-01T10:15:29.000Z</time>
      </trkpt>
      <trkpt lat="47.3224" lon="5.98925">
        <ele>233</ele>
        <time>2000-01-01T10:15:39.000Z</time>
      </trkpt>
      <trkpt lat="47.32223" lon="5.98899">
        <ele>234</ele>
        <time>2000-01-01T10:15:49.000Z</time>
      </trkpt>
      <trkpt lat="47.32206" lon="5.98871">
        <ele>234</ele>
        <time>2000-01-01T10:15:59.000Z</time>
      </trkpt>
      <trkpt lat="47.32182" lon="5.98837">
        <ele>233</ele>
        <time>2000-01-01T10:16:09.000Z</time>
      </trkpt>
      <trkpt lat="47.32158" lon="5.98804">
        <ele>232</ele>
        <time>2000-01-01T10:16:19.000Z</time>
      </trkpt>
      <trkpt lat="47.32141" lon="5.98779">
        <ele>232</ele>
        <time>2000-01-01T10:16:29.000Z</time>
      </trkpt>
      <trkpt lat="47.32121" lon="5.98751">
        <ele>232</ele>
        <time>2000-01-01T10:16:39.000Z</time>
      </trkpt>
      <trkpt lat="47.32094" lon="5.98707">
        <ele>231</ele>
        <time>2000-01-01T10:16:49.000Z</time>
      </trkpt>
      <trkpt lat="47.32066" lon="5.98663">
        <ele>231</ele>
        <time>2000-01-01T10:16:59.000Z</time>
      </trkpt>
      <trkpt lat="47.32039" lon="5.98619">
        <ele>231</ele>
        <time>2000-01-01T10:17:09.000Z</time>
      </trkpt>
      <trkpt lat="47.32012" lon="5.98575">
        <ele>230</ele>
        <time>2000-01-01T10:17:19.000Z</time>
      </trkpt>
      <trkpt lat="47.31985" lon="5.98531">
        <ele>229</ele>
        <time>2000-01-01T10:17:29.000Z</time>
      </trkpt>
      <trkpt lat="47.31957" lon="5.98487">
        <ele>228</ele>
        <time>2000-01-01T10:17:39.000Z</time>
      </trkpt>
      <trkpt lat="47.3193" lon="5.98443">
        <ele>226</ele>
        <time>2000-01-01T10:17:49.000Z</time>
      </trkpt>
      <trkpt lat="47.31912" lon="5.98413">
        <ele>225</ele>
        <time>2000-01-01T10:17:59.000Z</time>
      </trkpt>
      <trkpt lat="47.31885" lon="5.9837">
        <ele>224</ele>
        <time>2000-01-01T10:18:09.000Z</time>
      </trkpt>
      <trkpt lat="47.31867" lon="5.98326">
        <ele>223</ele>
        <time>2000-01-01T10:18:19.000Z</time>
      </trkpt>
      <trkpt lat="47.31849" lon="5.98282">
        <ele>221</ele>
        <time>2000-01-01T10:18:29.000Z</time>
      </trkpt>
      <trkpt lat="47.31831" lon="5.98238">
        <ele>221</ele>
        <time>2000-01-01T10:18:39.000Z</time>
      </trkpt>
      <trkpt lat="47.31811" lon="5.98188">
        <ele>219</ele>
        <time>2000-01-01T10:18:49.000Z</time>
      </trkpt>
      <trkpt lat="47.31814" lon="5.98178">
        <ele>220</ele>
        <time>2000-01-01T10:18:59.000Z</time>
      </trkpt>
      <trkpt lat="47.31828" lon="5.98161">
        <ele>218</ele>
        <time>2000-01-01T10:19:09.000Z</time>
      </trkpt>
      <trkpt lat="47.31826" lon="5.98152">
        <ele>219.3</ele>
        <time>2000-01-01T10:19:19.000Z</time>
      </trkpt>
      <trkpt lat="47.31815" lon="5.98132">
        <ele>218</ele>
        <time>2000-01-01T10:19:29.000Z</time>
      </trkpt>
      <trkpt lat="47.31813" lon="5.9812">
        <ele>218.7</ele>
        <time>2000-01-01T10:19:39.000Z</time>
      </trkpt>
      <trkpt lat="47.31815" lon="5.98096">
        <ele>218</ele>
        <time>2000-01-01T10:19:49.000Z</time>
      </trkpt>
      <trkpt lat="47.3182" lon="5.98073">
        <ele>218.3</ele>
        <time>2000-01-01T10:19:59.000Z</time>
      </trkpt>
      <trkpt lat="47.31812" lon="5.98047">
        <ele>217</ele>
        <time>2000-01-01T10:20:09.000Z</time>
      </trkpt>
      <trkpt lat="47.31838" lon="5.98033">
        <ele>217</ele>
        <time>2000-01-01T10:20:19.000Z</time>
      </trkpt>
      <trkpt lat="47.31878" lon="5.98012">
        <ele>217</ele>
        <time>2000-01-01T10:20:29.000Z</time>
      </trkpt>
      <trkpt lat="47.31912" lon="5.97995">
        <ele>216</ele>
        <time>2000-01-01T10:20:39.000Z</time>
      </trkpt>
      <trkpt lat="47.31947" lon="5.97979">
        <ele>216</ele>
        <time>2000-01-01T10:20:49.000Z</time>
      </trkpt>
      <trkpt lat="47.31981" lon="5.97963">
        <ele>216</ele>
        <time>2000-01-01T10:20:59.000Z</time>
      </trkpt>
      <trkpt lat="47.32007" lon="5.9795">
        <ele>216</ele>
        <time>2000-01-01T10:21:09.000Z</time>
      </trkpt>
      <trkpt lat="47.32043" lon="5.97933">
        <ele>215</ele>
        <time>2000-01-01T10:21:19.000Z</time>
      </trkpt>
      <trkpt lat="47.32079" lon="5.97917">
        <ele>215</ele>
        <time>2000-01-01T10:21:29.000Z</time>
      </trkpt>
      <trkpt lat="47.32097" lon="5.97913">
        <ele>215.4</ele>
        <time>2000-01-01T10:21:39.000Z</time>
      </trkpt>
      <trkpt lat="47.32107" lon="5.9792">
        <ele>215</ele>
        <time>2000-01-01T10:21:49.000Z</time>
      </trkpt>
      <trkpt lat="47.32127" lon="5.97961">
        <ele>215</ele>
        <time>2000-01-01T10:21:59.000Z</time>
      </trkpt>
      <trkpt lat="47.32164" lon="5.97977">
        <ele>216</ele>
        <time>2000-01-01T10:22:09.000Z</time>
      </trkpt>
      <trkpt lat="47.32186" lon="5.9797">
        <ele>216</ele>
        <time>2000-01-01T10:22:19.000Z</time>
      </trkpt>
      <trkpt lat="47.32209" lon="5.97956">
        <ele>216</ele>
        <time>2000-01-01T10:22:29.000Z</time>
      </trkpt>
      <trkpt lat="47.32235" lon="5.97941">
        <ele>216</ele>
        <time>2000-01-01T10:22:39.000Z</time>
      </trkpt>
      <trkpt lat="47.32264" lon="5.97927">
        <ele>216</ele>
        <time>2000-01-01T10:22:49.000Z</time>
      </trkpt>
      <trkpt lat="47.32293" lon="5.97912">
        <ele>215</ele>
        <time>2000-01-01T10:22:59.000Z</time>
      </trkpt>
      <trkpt lat="47.32325" lon="5.97897">
        <ele>214</ele>
        <time>2000-01-01T10:23:09.000Z</time>
      </trkpt>
      <trkpt lat="47.32339" lon="5.97898">
        <ele>214.1</ele>
        <time>2000-01-01T10:23:19.000Z</time>
      </trkpt>
      <trkpt lat="47.32385" lon="5.97872">
        <ele>214</ele>
        <time>2000-01-01T10:23:29.000Z</time>
      </trkpt>
      <trkpt lat="47.3241" lon="5.97861">
        <ele>213</ele>
        <time>2000-01-01T10:23:39.000Z</time>
      </trkpt>
      <trkpt lat="47.32434" lon="5.97854">
        <ele>213</ele>
        <time>2000-01-01T10:23:49.000Z</time>
      </trkpt>
      <trkpt lat="47.32462" lon="5.97828">
        <ele>213</ele>
        <time>2000-01-01T10:23:59.000Z</time>
      </trkpt>
      <trkpt lat="47.32464" lon="5.97785">
        <ele>213</ele>
        <time>2000-01-01T10:24:09.000Z</time>
      </trkpt>
      <trkpt lat="47.32458" lon="5.97739">
        <ele>213</ele>
        <time>2000-01-01T10:24:19.000Z</time>
      </trkpt>
      <trkpt lat="47.32454" lon="5.97689">
        <ele>214</ele>
        <time>2000-01-01T10:24:29.000Z</time>
      </trkpt>
      <trkpt lat="47.32451" lon="5.9764">
        <ele>214</ele>
        <time>2000-01-01T10:24:39.000Z</time>
      </trkpt>
      <trkpt lat="47.32448" lon="5.97601">
        <ele>214</ele>
        <time>2000-01-01T10:24:49.000Z</time>
      </trkpt>
      <trkpt lat="47.32444" lon="5.97547">
        <ele>214</ele>
        <time>2000-01-01T10:24:59.000Z</time>
      </trkpt>
      <trkpt lat="47.32439" lon="5.97505">
        <ele>214</ele>
        <time>2000-01-01T10:25:09.000Z</time>
      </trkpt>
      <trkpt lat="47.32434" lon="5.9747">
        <ele>214</ele>
        <time>2000-01-01T10:25:19.000Z</time>
      </trkpt>
      <trkpt lat="47.32429" lon="5.97431">
        <ele>214</ele>
        <time>2000-01-01T10:25:29.000Z</time>
      </trkpt>
      <trkpt lat="47.32422" lon="5.97399">
        <ele>215</ele>
        <time>2000-01-01T10:25:39.000Z</time>
      </trkpt>
      <trkpt lat="47.32408" lon="5.97368">
        <ele>215</ele>
        <time>2000-01-01T10:25:49.000Z</time>
      </trkpt>
      <trkpt lat="47.3239" lon="5.9733">
        <ele>215</ele>
        <time>2000-01-01T10:25:59.000Z</time>
      </trkpt>
      <trkpt lat="47.32397" lon="5.97265">
        <ele>220</ele>
        <time>2000-01-01T10:26:09.000Z</time>
      </trkpt>
      <trkpt lat="47.32381" lon="5.9722">
        <ele>222</ele>
        <time>2000-01-01T10:26:19.000Z</time>
      </trkpt>
      <trkpt lat="47.32373" lon="5.97188">
        <ele>223</ele>
        <time>2000-01-01T10:26:29.000Z</time>
      </trkpt>
      <trkpt lat="47.32364" lon="5.97154">
        <ele>224</ele>
        <time>2000-01-01T10:26:39.000Z</time>
      </trkpt>
      <trkpt lat="47.32342" lon="5.97169">
        <ele>226</ele>
        <time>2000-01-01T10:26:49.000Z</time>
      </trkpt>
      <trkpt lat="47.32318" lon="5.97186">
        <ele>228</ele>
        <time>2000-01-01T10:26:59.000Z</time>
      </trkpt>
      <trkpt lat="47.32302" lon="5.97193">
        <ele>228.2</ele>
        <time>2000-01-01T10:27:09.000Z</time>
      </trkpt>
      <trkpt lat="47.32294" lon="5.97167">
        <ele>229</ele>
        <time>2000-01-01T10:27:19.000Z</time>
      </trkpt>
      <trkpt lat="47.3229" lon="5.97161">
        <ele>229.6</ele>
        <time>2000-01-01T10:27:29.000Z</time>
      </trkpt>
      <trkpt lat="47.32283" lon="5.97157">
        <ele>229.9</ele>
        <time>2000-01-01T10:27:39.000Z</time>
      </trkpt>
      <trkpt lat="47.32272" lon="5.97158">
        <ele>229</ele>
        <time>2000-01-01T10:27:49.000Z</time>
      </trkpt>
      <trkpt lat="47.32264" lon="5.97152">
        <ele>230.5</ele>
        <time>2000-01-01T10:27:59.000Z</time>
      </trkpt>
      <trkpt lat="47.32272" lon="5.97098">
        <ele>229</ele>
        <time>2000-01-01T10:28:09.000Z</time>
      </trkpt>
      <trkpt lat="47.3227" lon="5.97082">
        <ele>229.2</ele>
        <time>2000-01-01T10:28:19.000Z</time>
      </trkpt>
      <trkpt lat="47.3222" lon="5.9709">
        <ele>231</ele>
        <time>2000-01-01T10:28:29.000Z</time>
      </trkpt>
      <trkpt lat="47.32206" lon="5.9709">
        <ele>231.8</ele>
        <time>2000-01-01T10:28:39.000Z</time>
      </trkpt>
      <trkpt lat="47.32123" lon="5.97117">
        <ele>234</ele>
        <time>2000-01-01T10:28:49.000Z</time>
      </trkpt>
      <trkpt lat="47.32107" lon="5.97119">
        <ele>235.2</ele>
        <time>2000-01-01T10:28:59.000Z</time>
      </trkpt>
      <trkpt lat="47.32091" lon="5.97117">
        <ele>235</ele>
        <time>2000-01-01T10:29:09.000Z</time>
      </trkpt>
      <trkpt lat="47.32058" lon="5.97104">
        <ele>237</ele>
        <time>2000-01-01T10:29:19.000Z</time>
      </trkpt>
      <trkpt lat="47.32025" lon="5.97092">
        <ele>238</ele>
        <time>2000-01-01T10:29:29.000Z</time>
      </trkpt>
      <trkpt lat="47.31999" lon="5.97082">
        <ele>240</ele>
        <time>2000-01-01T10:29:39.000Z</time>
      </trkpt>
      <trkpt lat="47.31963" lon="5.97068">
        <ele>240</ele>
        <time>2000-01-01T10:29:49.000Z</time>
      </trkpt>
      <trkpt lat="47.31958" lon="5.97064">
        <ele>242.5</ele>
        <time>2000-01-01T10:29:59.000Z</time>
      </trkpt>
      <trkpt lat="47.31867" lon="5.9691">
        <ele>238</ele>
        <time>2000-01-01T10:30:09.000Z</time>
      </trkpt>
      <trkpt lat="47.31852" lon="5.96908">
        <ele>241.1</ele>
        <time>2000-01-01T10:30:19.000Z</time>
      </trkpt>
      <trkpt lat="47.31786" lon="5.96997">
        <ele>237</ele>
        <time>2000-01-01T10:30:29.000Z</time>
      </trkpt>
      <trkpt lat="47.31781" lon="5.97007">
        <ele>237.2</ele>
        <time>2000-01-01T10:30:39.000Z</time>
      </trkpt>
      <trkpt lat="47.3157" lon="5.97211">
        <ele>234</ele>
        <time>2000-01-01T10:30:49.000Z</time>
      </trkpt>
      <trkpt lat="47.31533" lon="5.9725">
        <ele>232</ele>
        <time>2000-01-01T10:30:59.000Z</time>
      </trkpt>
      <trkpt lat="47.31518" lon="5.97212">
        <ele>232</ele>
        <time>2000-01-01T10:31:09.000Z</time>
      </trkpt>
      <trkpt lat="47.31506" lon="5.9718">
        <ele>231</ele>
        <time>2000-01-01T10:31:19.000Z</time>
      </trkpt>
      <trkpt lat="47.31491" lon="5.97141">
        <ele>231</ele>
        <time>2000-01-01T10:31:29.000Z</time>
      </trkpt>
      <trkpt lat="47.3147" lon="5.97094">
        <ele>230</ele>
        <time>2000-01-01T10:31:39.000Z</time>
      </trkpt>
      <trkpt lat="47.31449" lon="5.97048">
        <ele>230</ele>
        <time>2000-01-01T10:31:49.000Z</time>
      </trkpt>
      <trkpt lat="47.31428" lon="5.97001">
        <ele>230</ele>
        <time>2000-01-01T10:31:59.000Z</time>
      </trkpt>
      <trkpt lat="47.31406" lon="5.96955">
        <ele>228</ele>
        <time>2000-01-01T10:32:09.000Z</time>
      </trkpt>
      <trkpt lat="47.31391" lon="5.96921">
        <ele>227</ele>
        <time>2000-01-01T10:32:19.000Z</time>
      </trkpt>
      <trkpt lat="47.31366" lon="5.96866">
        <ele>225</ele>
        <time>2000-01-01T10:32:29.000Z</time>
      </trkpt>
      <trkpt lat="47.3136" lon="5.96861">
        <ele>225</ele>
        <time>2000-01-01T10:32:39.000Z</time>
      </trkpt>
      <trkpt lat="47.31313" lon="5.96855">
        <ele>225</ele>
        <time>2000-01-01T10:32:49.000Z</time>
      </trkpt>
      <trkpt lat="47.31305" lon="5.96843">
        <ele>225</ele>
        <time>2000-01-01T10:32:59.000Z</time>
      </trkpt>
      <trkpt lat="47.31255" lon="5.96689">
        <ele>225</ele>
        <time>2000-01-01T10:33:09.000Z</time>
      </trkpt>
      <trkpt lat="47.31246" lon="5.96656">
        <ele>225</ele>
        <time>2000-01-01T10:33:19.000Z</time>
      </trkpt>
      <trkpt lat="47.31236" lon="5.96618">
        <ele>225</ele>
        <time>2000-01-01T10:33:29.000Z</time>
      </trkpt>
      <trkpt lat="47.31247" lon="5.96585">
        <ele>225</ele>
        <time>2000-01-01T10:33:39.000Z</time>
      </trkpt>
      <trkpt lat="47.31259" lon="5.96547">
        <ele>225</ele>
        <time>2000-01-01T10:33:49.000Z</time>
      </trkpt>
      <trkpt lat="47.31261" lon="5.96527">
        <ele>225.4</ele>
        <time>2000-01-01T10:33:59.000Z</time>
      </trkpt>
      <trkpt lat="47.31236" lon="5.96465">
        <ele>223</ele>
        <time>2000-01-01T10:34:09.000Z</time>
      </trkpt>
      <trkpt lat="47.31245" lon="5.96453">
        <ele>224</ele>
        <time>2000-01-01T10:34:19.000Z</time>
      </trkpt>
      <trkpt lat="47.31245" lon="5.9644">
        <ele>223</ele>
        <time>2000-01-01T10:34:29.000Z</time>
      </trkpt>
      <trkpt lat="47.31237" lon="5.96425">
        <ele>223.6</ele>
        <time>2000-01-01T10:34:39.000Z</time>
      </trkpt>
      <trkpt lat="47.31228" lon="5.96419">
        <ele>223</ele>
        <time>2000-01-01T10:34:49.000Z</time>
      </trkpt>
      <trkpt lat="47.31222" lon="5.96419">
        <ele>224</ele>
        <time>2000-01-01T10:34:59.000Z</time>
      </trkpt>
      <trkpt lat="47.31217" lon="5.96407">
        <ele>224</ele>
        <time>2000-01-01T10:35:09.000Z</time>
      </trkpt>
      <trkpt lat="47.31206" lon="5.96395">
        <ele>223</ele>
        <time>2000-01-01T10:35:19.000Z</time>
      </trkpt>
      <trkpt lat="47.31198" lon="5.96394">
        <ele>224</ele>
        <time>2000-01-01T10:35:29.000Z</time>
      </trkpt>
      <trkpt lat="47.31169" lon="5.96399">
        <ele>223</ele>
        <time>2000-01-01T10:35:39.000Z</time>
      </trkpt>
      <trkpt lat="47.31167" lon="5.96398">
        <ele>224</ele>
        <time>2000-01-01T10:35:49.000Z</time>
      </trkpt>
      <trkpt lat="47.31167" lon="5.96398">
        <ele>224</ele>
        <time>2000-01-01T10:35:59.000Z</time>
      </trkpt>
      <trkpt lat="47.31162" lon="5.96397">
        <ele>224</ele>
        <time>2000-01-01T10:36:09.000Z</time>
      </trkpt>
      <trkpt lat="47.31157" lon="5.96394">
        <ele>224</ele>
        <time>2000-01-01T10:36:19.000Z</time>
      </trkpt>
      <trkpt lat="47.31152" lon="5.96389">
        <ele>223</ele>
        <time>2000-01-01T10:36:29.000Z</time>
      </trkpt>
      <trkpt lat="47.31149" lon="5.9638">
        <ele>224</ele>
        <time>2000-01-01T10:36:39.000Z</time>
      </trkpt>
      <trkpt lat="47.31142" lon="5.9636">
        <ele>223</ele>
        <time>2000-01-01T10:36:49.000Z</time>
      </trkpt>
      <trkpt lat="47.31135" lon="5.96339">
        <ele>224</ele>
        <time>2000-01-01T10:36:59.000Z</time>
      </trkpt>
      <trkpt lat="47.31127" lon="5.96317">
        <ele>223</ele>
        <time>2000-01-01T10:37:09.000Z</time>
      </trkpt>
      <trkpt lat="47.31128" lon="5.96312">
        <ele>224</ele>
        <time>2000-01-01T10:37:19.000Z</time>
      </trkpt>
      <trkpt lat="47.31127" lon="5.96304">
        <ele>224</ele>
        <time>2000-01-01T10:37:29.000Z</time>
      </trkpt>
      <trkpt lat="47.31122" lon="5.96289">
        <ele>224</ele>
        <time>2000-01-01T10:37:39.000Z</time>
      </trkpt>
      <trkpt lat="47.31116" lon="5.96272">
        <ele>224.2</ele>
        <time>2000-01-01T10:37:49.000Z</time>
      </trkpt>
      <trkpt lat="47.31109" lon="5.96257">
        <ele>224</ele>
        <time>2000-01-01T10:37:59.000Z</time>
      </trkpt>
      <trkpt lat="47.31103" lon="5.96242">
        <ele>225.1</ele>
        <time>2000-01-01T10:38:09.000Z</time>
      </trkpt>
      <trkpt lat="47.31097" lon="5.96228">
        <ele>225</ele>
        <time>2000-01-01T10:38:19.000Z</time>
      </trkpt>
      <trkpt lat="47.31089" lon="5.96205">
        <ele>225.8</ele>
        <time>2000-01-01T10:38:29.000Z</time>
      </trkpt>
      <trkpt lat="47.31084" lon="5.96189">
        <ele>226</ele>
        <time>2000-01-01T10:38:39.000Z</time>
      </trkpt>
      <trkpt lat="47.31078" lon="5.96172">
        <ele>226</ele>
        <time>2000-01-01T10:38:49.000Z</time>
      </trkpt>
      <trkpt lat="47.31071" lon="5.96156">
        <ele>226</ele>
        <time>2000-01-01T10:38:59.000Z</time>
      </trkpt>
      <trkpt lat="47.31065" lon="5.96139">
        <ele>226</ele>
        <time>2000-01-01T10:39:09.000Z</time>
      </trkpt>
      <trkpt lat="47.31059" lon="5.96123">
        <ele>226</ele>
        <time>2000-01-01T10:39:19.000Z</time>
      </trkpt>
      <trkpt lat="47.31053" lon="5.96106">
        <ele>226.3</ele>
        <time>2000-01-01T10:39:29.000Z</time>
      </trkpt>
      <trkpt lat="47.31047" lon="5.96089">
        <ele>226</ele>
        <time>2000-01-01T10:39:39.000Z</time>
      </trkpt>
      <trkpt lat="47.31041" lon="5.96072">
        <ele>227</ele>
        <time>2000-01-01T10:39:49.000Z</time>
      </trkpt>
      <trkpt lat="47.31035" lon="5.96055">
        <ele>227</ele>
        <time>2000-01-01T10:39:59.000Z</time>
      </trkpt>
      <trkpt lat="47.31029" lon="5.96039">
        <ele>227</ele>
        <time>2000-01-01T10:40:09.000Z</time>
      </trkpt>
      <trkpt lat="47.31023" lon="5.96022">
        <ele>227</ele>
        <time>2000-01-01T10:40:19.000Z</time>
      </trkpt>
      <trkpt lat="47.31019" lon="5.96007">
        <ele>227</ele>
        <time>2000-01-01T10:40:29.000Z</time>
      </trkpt>
      <trkpt lat="47.31014" lon="5.95993">
        <ele>227</ele>
        <time>2000-01-01T10:40:39.000Z</time>
      </trkpt>
      <trkpt lat="47.3101" lon="5.95978">
        <ele>227.8</ele>
        <time>2000-01-01T10:40:49.000Z</time>
      </trkpt>
      <trkpt lat="47.31006" lon="5.95963">
        <ele>227</ele>
        <time>2000-01-01T10:40:59.000Z</time>
      </trkpt>
      <trkpt lat="47.31001" lon="5.9595">
        <ele>228</ele>
        <time>2000-01-01T10:41:09.000Z</time>
      </trkpt>
      <trkpt lat="47.30999" lon="5.95939">
        <ele>228.2</ele>
        <time>2000-01-01T10:41:19.000Z</time>
      </trkpt>
      <trkpt lat="47.30997" lon="5.95928">
        <ele>228</ele>
        <time>2000-01-01T10:41:29.000Z</time>
      </trkpt>
      <trkpt lat="47.31" lon="5.95917">
        <ele>229</ele>
        <time>2000-01-01T10:41:39.000Z</time>
      </trkpt>
      <trkpt lat="47.31002" lon="5.95904">
        <ele>229</ele>
        <time>2000-01-01T10:41:49.000Z</time>
      </trkpt>
      <trkpt lat="47.31001" lon="5.95887">
        <ele>229</ele>
        <time>2000-01-01T10:41:59.000Z</time>
      </trkpt>
      <trkpt lat="47.30992" lon="5.95848">
        <ele>230</ele>
        <time>2000-01-01T10:42:09.000Z</time>
      </trkpt>
      <trkpt lat="47.3098" lon="5.95792">
        <ele>232</ele>
        <time>2000-01-01T10:42:19.000Z</time>
      </trkpt>
      <trkpt lat="47.3097" lon="5.95751">
        <ele>232</ele>
        <time>2000-01-01T10:42:29.000Z</time>
      </trkpt>
      <trkpt lat="47.30962" lon="5.95716">
        <ele>233</ele>
        <time>2000-01-01T10:42:39.000Z</time>
      </trkpt>
      <trkpt lat="47.30953" lon="5.95676">
        <ele>233</ele>
        <time>2000-01-01T10:42:49.000Z</time>
      </trkpt>
      <trkpt lat="47.30947" lon="5.9565">
        <ele>233</ele>
        <time>2000-01-01T10:42:59.000Z</time>
      </trkpt>
      <trkpt lat="47.30946" lon="5.95639">
        <ele>233</ele>
        <time>2000-01-01T10:43:09.000Z</time>
      </trkpt>
      <trkpt lat="47.30935" lon="5.95602">
        <ele>233</ele>
        <time>2000-01-01T10:43:19.000Z</time>
      </trkpt>
      <trkpt lat="47.30924" lon="5.95568">
        <ele>233</ele>
        <time>2000-01-01T10:43:29.000Z</time>
      </trkpt>
      <trkpt lat="47.30909" lon="5.95521">
        <ele>232</ele>
        <time>2000-01-01T10:43:39.000Z</time>
      </trkpt>
      <trkpt lat="47.30902" lon="5.95501">
        <ele>232.5</ele>
        <time>2000-01-01T10:43:49.000Z</time>
      </trkpt>
      <trkpt lat="47.30898" lon="5.9548">
        <ele>231</ele>
        <time>2000-01-01T10:43:59.000Z</time>
      </trkpt>
      <trkpt lat="47.30897" lon="5.95449">
        <ele>230</ele>
        <time>2000-01-01T10:44:09.000Z</time>
      </trkpt>
      <trkpt lat="47.309" lon="5.95425">
        <ele>230.2</ele>
        <time>2000-01-01T10:44:19.000Z</time>
      </trkpt>
      <trkpt lat="47.30902" lon="5.95401">
        <ele>229</ele>
        <time>2000-01-01T10:44:29.000Z</time>
      </trkpt>
      <trkpt lat="47.30905" lon="5.95392">
        <ele>229.5</ele>
        <time>2000-01-01T10:44:39.000Z</time>
      </trkpt>
      <trkpt lat="47.30903" lon="5.95355">
        <ele>229</ele>
        <time>2000-01-01T10:44:49.000Z</time>
      </trkpt>
      <trkpt lat="47.30888" lon="5.95302">
        <ele>230</ele>
        <time>2000-01-01T10:44:59.000Z</time>
      </trkpt>
      <trkpt lat="47.30882" lon="5.95278">
        <ele>230.2</ele>
        <time>2000-01-01T10:45:09.000Z</time>
      </trkpt>
      <trkpt lat="47.30881" lon="5.95241">
        <ele>230</ele>
        <time>2000-01-01T10:45:19.000Z</time>
      </trkpt>
      <trkpt lat="47.30876" lon="5.95209">
        <ele>230</ele>
        <time>2000-01-01T10:45:29.000Z</time>
      </trkpt>
      <trkpt lat="47.30873" lon="5.95192">
        <ele>230.5</ele>
        <time>2000-01-01T10:45:39.000Z</time>
      </trkpt>
      <trkpt lat="47.30871" lon="5.95184">
        <ele>230.3</ele>
        <time>2000-01-01T10:45:49.000Z</time>
      </trkpt>
      <trkpt lat="47.30777" lon="5.94751">
        <ele>226</ele>
        <time>2000-01-01T10:45:59.000Z</time>
      </trkpt>
      <trkpt lat="47.30766" lon="5.94694">
        <ele>226</ele>
        <time>2000-01-01T10:46:09.000Z</time>
      </trkpt>
      <trkpt lat="47.30755" lon="5.94638">
        <ele>227</ele>
        <time>2000-01-01T10:46:19.000Z</time>
      </trkpt>
      <trkpt lat="47.30744" lon="5.94582">
        <ele>227</ele>
        <time>2000-01-01T10:46:29.000Z</time>
      </trkpt>
      <trkpt lat="47.30733" lon="5.94526">
        <ele>226</ele>
        <time>2000-01-01T10:46:39.000Z</time>
      </trkpt>
      <trkpt lat="47.30722" lon="5.94469">
        <ele>226</ele>
        <time>2000-01-01T10:46:49.000Z</time>
      </trkpt>
      <trkpt lat="47.30711" lon="5.94413">
        <ele>226</ele>
        <time>2000-01-01T10:46:59.000Z</time>
      </trkpt>
      <trkpt lat="47.30704" lon="5.94375">
        <ele>226</ele>
        <time>2000-01-01T10:47:09.000Z</time>
      </trkpt>
      <trkpt lat="47.30694" lon="5.94323">
        <ele>224</ele>
        <time>2000-01-01T10:47:19.000Z</time>
      </trkpt>
      <trkpt lat="47.30669" lon="5.94356">
        <ele>223</ele>
        <time>2000-01-01T10:47:29.000Z</time>
      </trkpt>
      <trkpt lat="47.30658" lon="5.94394">
        <ele>222</ele>
        <time>2000-01-01T10:47:39.000Z</time>
      </trkpt>
      <trkpt lat="47.30642" lon="5.94454">
        <ele>222</ele>
        <time>2000-01-01T10:47:49.000Z</time>
      </trkpt>
      <trkpt lat="47.30627" lon="5.94488">
        <ele>222</ele>
        <time>2000-01-01T10:47:59.000Z</time>
      </trkpt>
      <trkpt lat="47.30612" lon="5.94507">
        <ele>222</ele>
        <time>2000-01-01T10:48:09.000Z</time>
      </trkpt>
      <trkpt lat="47.30605" lon="5.94497">
        <ele>222</ele>
        <time>2000-01-01T10:48:19.000Z</time>
      </trkpt>
      <trkpt lat="47.30572" lon="5.94491">
        <ele>222</ele>
        <time>2000-01-01T10:48:29.000Z</time>
      </trkpt>
      <trkpt lat="47.30563" lon="5.94485">
        <ele>222.3</ele>
        <time>2000-01-01T10:48:39.000Z</time>
      </trkpt>
      <trkpt lat="47.30496" lon="5.94268">
        <ele>222</ele>
        <time>2000-01-01T10:48:49.000Z</time>
      </trkpt>
      <trkpt lat="47.30481" lon="5.94225">
        <ele>221</ele>
        <time>2000-01-01T10:48:59.000Z</time>
      </trkpt>
      <trkpt lat="47.30467" lon="5.94182">
        <ele>221</ele>
        <time>2000-01-01T10:49:09.000Z</time>
      </trkpt>
      <trkpt lat="47.30457" lon="5.94152">
        <ele>221</ele>
        <time>2000-01-01T10:49:19.000Z</time>
      </trkpt>
      <trkpt lat="47.30446" lon="5.94121">
        <ele>221</ele>
        <time>2000-01-01T10:49:29.000Z</time>
      </trkpt>
      <trkpt lat="47.30443" lon="5.94086">
        <ele>219</ele>
        <time>2000-01-01T10:49:39.000Z</time>
      </trkpt>
      <trkpt lat="47.30434" lon="5.94066">
        <ele>220.9</ele>
        <time>2000-01-01T10:49:49.000Z</time>
      </trkpt>
      <trkpt lat="47.30411" lon="5.9398">
        <ele>222</ele>
        <time>2000-01-01T10:49:59.000Z</time>
      </trkpt>
      <trkpt lat="47.30402" lon="5.93978">
        <ele>222.4</ele>
        <time>2000-01-01T10:50:09.000Z</time>
      </trkpt>
      <trkpt lat="47.30378" lon="5.93986">
        <ele>220</ele>
        <time>2000-01-01T10:50:19.000Z</time>
      </trkpt>
      <trkpt lat="47.30358" lon="5.93996">
        <ele>219</ele>
        <time>2000-01-01T10:50:29.000Z</time>
      </trkpt>
      <trkpt lat="47.30353" lon="5.93991">
        <ele>220.6</ele>
        <time>2000-01-01T10:50:39.000Z</time>
      </trkpt>
      <trkpt lat="47.30324" lon="5.93897">
        <ele>219</ele>
        <time>2000-01-01T10:50:49.000Z</time>
      </trkpt>
      <trkpt lat="47.30323" lon="5.93896">
        <ele>220.6</ele>
        <time>2000-01-01T10:50:59.000Z</time>
      </trkpt>
      <trkpt lat="47.3032" lon="5.93894">
        <ele>220.4</ele>
        <time>2000-01-01T10:51:09.000Z</time>
      </trkpt>
      <trkpt lat="47.30317" lon="5.93893">
        <ele>220.1</ele>
        <time>2000-01-01T10:51:19.000Z</time>
      </trkpt>
      <trkpt lat="47.30313" lon="5.93894">
        <ele>219.7</ele>
        <time>2000-01-01T10:51:29.000Z</time>
      </trkpt>
      <trkpt lat="47.3031" lon="5.93895">
        <ele>219.4</ele>
        <time>2000-01-01T10:51:39.000Z</time>
      </trkpt>
      <trkpt lat="47.30307" lon="5.93894">
        <ele>219.1</ele>
        <time>2000-01-01T10:51:49.000Z</time>
      </trkpt>
      <trkpt lat="47.30304" lon="5.93891">
        <ele>219</ele>
        <time>2000-01-01T10:51:59.000Z</time>
      </trkpt>
      <trkpt lat="47.30303" lon="5.93887">
        <ele>219.1</ele>
        <time>2000-01-01T10:52:09.000Z</time>
      </trkpt>
      <trkpt lat="47.30301" lon="5.93882">
        <ele>219.2</ele>
        <time>2000-01-01T10:52:19.000Z</time>
      </trkpt>
      <trkpt lat="47.303" lon="5.93877">
        <ele>219.4</ele>
        <time>2000-01-01T10:52:29.000Z</time>
      </trkpt>
      <trkpt lat="47.30298" lon="5.93872">
        <ele>219.6</ele>
        <time>2000-01-01T10:52:39.000Z</time>
      </trkpt>
      <trkpt lat="47.30295" lon="5.93866">
        <ele>219</ele>
        <time>2000-01-01T10:52:49.000Z</time>
      </trkpt>
      <trkpt lat="47.30293" lon="5.9386">
        <ele>220</ele>
        <time>2000-01-01T10:52:59.000Z</time>
      </trkpt>
      <trkpt lat="47.30291" lon="5.93854">
        <ele>220</ele>
        <time>2000-01-01T10:53:09.000Z</time>
      </trkpt>
      <trkpt lat="47.30288" lon="5.93848">
        <ele>220</ele>
        <time>2000-01-01T10:53:19.000Z</time>
      </trkpt>
      <trkpt lat="47.30286" lon="5.93841">
        <ele>219</ele>
        <time>2000-01-01T10:53:29.000Z</time>
      </trkpt>
      <trkpt lat="47.30283" lon="5.93835">
        <ele>220</ele>
        <time>2000-01-01T10:53:39.000Z</time>
      </trkpt>
      <trkpt lat="47.30281" lon="5.93829">
        <ele>220.1</ele>
        <time>2000-01-01T10:53:49.000Z</time>
      </trkpt>
      <trkpt lat="47.30279" lon="5.93822">
        <ele>220.1</ele>
        <time>2000-01-01T10:53:59.000Z</time>
      </trkpt>
      <trkpt lat="47.30278" lon="5.93816">
        <ele>220</ele>
        <time>2000-01-01T10:54:09.000Z</time>
      </trkpt>
      <trkpt lat="47.30277" lon="5.9381">
        <ele>220</ele>
        <time>2000-01-01T10:54:19.000Z</time>
      </trkpt>
      <trkpt lat="47.30276" lon="5.93805">
        <ele>220</ele>
        <time>2000-01-01T10:54:29.000Z</time>
      </trkpt>
      <trkpt lat="47.30276" lon="5.93803">
        <ele>220.2</ele>
        <time>2000-01-01T10:54:39.000Z</time>
      </trkpt>
      <trkpt lat="47.30276" lon="5.938">
        <ele>220.4</ele>
        <time>2000-01-01T10:54:49.000Z</time>
      </trkpt>
      <trkpt lat="47.30276" lon="5.93797">
        <ele>220.6</ele>
        <time>2000-01-01T10:54:59.000Z</time>
      </trkpt>
      <trkpt lat="47.30275" lon="5.93794">
        <ele>220.8</ele>
        <time>2000-01-01T10:55:09.000Z</time>
      </trkpt>
      <trkpt lat="47.30275" lon="5.9379">
        <ele>221.1</ele>
        <time>2000-01-01T10:55:19.000Z</time>
      </trkpt>
      <trkpt lat="47.30275" lon="5.93786">
        <ele>222</ele>
        <time>2000-01-01T10:55:29.000Z</time>
      </trkpt>
      <trkpt lat="47.30275" lon="5.93782">
        <ele>221.6</ele>
        <time>2000-01-01T10:55:39.000Z</time>
      </trkpt>
      <trkpt lat="47.30275" lon="5.93779">
        <ele>221.8</ele>
        <time>2000-01-01T10:55:49.000Z</time>
      </trkpt>
      <trkpt lat="47.30274" lon="5.93776">
        <ele>221.9</ele>
        <time>2000-01-01T10:55:59.000Z</time>
      </trkpt>
      <trkpt lat="47.30274" lon="5.93773">
        <ele>222.1</ele>
        <time>2000-01-01T10:56:09.000Z</time>
      </trkpt>
      <trkpt lat="47.30273" lon="5.93769">
        <ele>222.2</ele>
        <time>2000-01-01T10:56:19.000Z</time>
      </trkpt>
      <trkpt lat="47.30268" lon="5.93765">
        <ele>222.3</ele>
        <time>2000-01-01T10:56:29.000Z</time>
      </trkpt>
      <trkpt lat="47.30264" lon="5.9376">
        <ele>223</ele>
        <time>2000-01-01T10:56:39.000Z</time>
      </trkpt>
      <trkpt lat="47.30261" lon="5.93753">
        <ele>222.8</ele>
        <time>2000-01-01T10:56:49.000Z</time>
      </trkpt>
      <trkpt lat="47.30258" lon="5.93746">
        <ele>223.2</ele>
        <time>2000-01-01T10:56:59.000Z</time>
      </trkpt>
      <trkpt lat="47.30256" lon="5.93737">
        <ele>223.7</ele>
        <time>2000-01-01T10:57:09.000Z</time>
      </trkpt>
      <trkpt lat="47.30252" lon="5.9372">
        <ele>224</ele>
        <time>2000-01-01T10:57:19.000Z</time>
      </trkpt>
      <trkpt lat="47.30248" lon="5.93701">
        <ele>224.7</ele>
        <time>2000-01-01T10:57:29.000Z</time>
      </trkpt>
      <trkpt lat="47.30246" lon="5.93693">
        <ele>225</ele>
        <time>2000-01-01T10:57:39.000Z</time>
      </trkpt>
      <trkpt lat="47.30244" lon="5.93684">
        <ele>225.5</ele>
        <time>2000-01-01T10:57:49.000Z</time>
      </trkpt>
      <trkpt lat="47.30241" lon="5.93676">
        <ele>226</ele>
        <time>2000-01-01T10:57:59.000Z</time>
      </trkpt>
      <trkpt lat="47.30237" lon="5.93669">
        <ele>226</ele>
        <time>2000-01-01T10:58:09.000Z</time>
      </trkpt>
      <trkpt lat="47.30234" lon="5.93664">
        <ele>226.5</ele>
        <time>2000-01-01T10:58:19.000Z</time>
      </trkpt>
      <trkpt lat="47.30231" lon="5.9366">
        <ele>226.6</ele>
        <time>2000-01-01T10:58:29.000Z</time>
      </trkpt>
      <trkpt lat="47.30227" lon="5.93657">
        <ele>226.5</ele>
        <time>2000-01-01T10:58:39.000Z</time>
      </trkpt>
      <trkpt lat="47.30222" lon="5.93655">
        <ele>226</ele>
        <time>2000-01-01T10:58:49.000Z</time>
      </trkpt>
      <trkpt lat="47.30203" lon="5.93655">
        <ele>225</ele>
        <time>2000-01-01T10:58:59.000Z</time>
      </trkpt>
      <trkpt lat="47.30191" lon="5.93656">
        <ele>225.3</ele>
        <time>2000-01-01T10:59:09.000Z</time>
      </trkpt>
      <trkpt lat="47.30183" lon="5.93658">
        <ele>224</ele>
        <time>2000-01-01T10:59:19.000Z</time>
      </trkpt>
      <trkpt lat="47.30173" lon="5.93664">
        <ele>224.3</ele>
        <time>2000-01-01T10:59:29.000Z</time>
      </trkpt>
      <trkpt lat="47.30152" lon="5.93679">
        <ele>222</ele>
        <time>2000-01-01T10:59:39.000Z</time>
      </trkpt>
      <trkpt lat="47.30126" lon="5.93698">
        <ele>222</ele>
        <time>2000-01-01T10:59:49.000Z</time>
      </trkpt>
      <trkpt lat="47.30115" lon="5.93704">
        <ele>222</ele>
        <time>2000-01-01T10:59:59.000Z</time>
      </trkpt>
      <trkpt lat="47.30112" lon="5.93705">
        <ele>222</ele>
        <time>2000-01-01T11:00:09.000Z</time>
      </trkpt>
      <trkpt lat="47.30113" lon="5.93696">
        <ele>222</ele>
        <time>2000-01-01T11:00:19.000Z</time>
      </trkpt>
      <trkpt lat="47.30112" lon="5.93687">
        <ele>222</ele>
        <time>2000-01-01T11:00:29.000Z</time>
      </trkpt>
      <trkpt lat="47.30111" lon="5.93683">
        <ele>222</ele>
        <time>2000-01-01T11:00:39.000Z</time>
      </trkpt>
      <trkpt lat="47.30107" lon="5.93669">
        <ele>222</ele>
        <time>2000-01-01T11:00:49.000Z</time>
      </trkpt>
      <trkpt lat="47.30101" lon="5.93657">
        <ele>222.3</ele>
        <time>2000-01-01T11:00:59.000Z</time>
      </trkpt>
      <trkpt lat="47.30096" lon="5.9365">
        <ele>222.6</ele>
        <time>2000-01-01T11:01:09.000Z</time>
      </trkpt>
      <trkpt lat="47.30089" lon="5.9364">
        <ele>223</ele>
        <time>2000-01-01T11:01:19.000Z</time>
      </trkpt>
      <trkpt lat="47.30071" lon="5.93615">
        <ele>223</ele>
        <time>2000-01-01T11:01:29.000Z</time>
      </trkpt>
      <trkpt lat="47.3006" lon="5.93599">
        <ele>223.2</ele>
        <time>2000-01-01T11:01:39.000Z</time>
      </trkpt>
      <trkpt lat="47.30049" lon="5.93581">
        <ele>222</ele>
        <time>2000-01-01T11:01:49.000Z</time>
      </trkpt>
      <trkpt lat="47.30044" lon="5.93571">
        <ele>223.3</ele>
        <time>2000-01-01T11:01:59.000Z</time>
      </trkpt>
      <trkpt lat="47.30036" lon="5.93557">
        <ele>222</ele>
        <time>2000-01-01T11:02:09.000Z</time>
      </trkpt>
      <trkpt lat="47.30029" lon="5.93533">
        <ele>223.2</ele>
        <time>2000-01-01T11:02:19.000Z</time>
      </trkpt>
      <trkpt lat="47.30023" lon="5.93512">
        <ele>223</ele>
        <time>2000-01-01T11:02:29.000Z</time>
      </trkpt>
      <trkpt lat="47.30017" lon="5.93496">
        <ele>223.5</ele>
        <time>2000-01-01T11:02:39.000Z</time>
      </trkpt>
      <trkpt lat="47.30006" lon="5.93479">
        <ele>224</ele>
        <time>2000-01-01T11:02:49.000Z</time>
      </trkpt>
      <trkpt lat="47.29993" lon="5.93466">
        <ele>224.7</ele>
        <time>2000-01-01T11:02:59.000Z</time>
      </trkpt>
      <trkpt lat="47.29989" lon="5.93462">
        <ele>225</ele>
        <time>2000-01-01T11:03:09.000Z</time>
      </trkpt>
      <trkpt lat="47.29962" lon="5.93441">
        <ele>227</ele>
        <time>2000-01-01T11:03:19.000Z</time>
      </trkpt>
      <trkpt lat="47.29936" lon="5.93422">
        <ele>230</ele>
        <time>2000-01-01T11:03:29.000Z</time>
      </trkpt>
      <trkpt lat="47.2991" lon="5.93402">
        <ele>231</ele>
        <time>2000-01-01T11:03:39.000Z</time>
      </trkpt>
      <trkpt lat="47.2989" lon="5.93382">
        <ele>232</ele>
        <time>2000-01-01T11:03:49.000Z</time>
      </trkpt>
      <trkpt lat="47.29871" lon="5.93358">
        <ele>233</ele>
        <time>2000-01-01T11:03:59.000Z</time>
      </trkpt>
      <trkpt lat="47.29859" lon="5.93338">
        <ele>233.1</ele>
        <time>2000-01-01T11:04:09.000Z</time>
      </trkpt>
      <trkpt lat="47.29848" lon="5.93316">
        <ele>233</ele>
        <time>2000-01-01T11:04:19.000Z</time>
      </trkpt>
      <trkpt lat="47.29835" lon="5.93296">
        <ele>233</ele>
        <time>2000-01-01T11:04:29.000Z</time>
      </trkpt>
      <trkpt lat="47.2982" lon="5.93276">
        <ele>234</ele>
        <time>2000-01-01T11:04:39.000Z</time>
      </trkpt>
      <trkpt lat="47.29796" lon="5.9325">
        <ele>234</ele>
        <time>2000-01-01T11:04:49.000Z</time>
      </trkpt>
      <trkpt lat="47.29781" lon="5.93228">
        <ele>234</ele>
        <time>2000-01-01T11:04:59.000Z</time>
      </trkpt>
      <trkpt lat="47.29777" lon="5.93222">
        <ele>234</ele>
        <time>2000-01-01T11:05:09.000Z</time>
      </trkpt>
      <trkpt lat="47.29754" lon="5.93189">
        <ele>234</ele>
        <time>2000-01-01T11:05:19.000Z</time>
      </trkpt>
      <trkpt lat="47.29734" lon="5.93156">
        <ele>235</ele>
        <time>2000-01-01T11:05:29.000Z</time>
      </trkpt>
      <trkpt lat="47.29718" lon="5.93129">
        <ele>236</ele>
        <time>2000-01-01T11:05:39.000Z</time>
      </trkpt>
      <trkpt lat="47.29699" lon="5.93097">
        <ele>237</ele>
        <time>2000-01-01T11:05:49.000Z</time>
      </trkpt>
      <trkpt lat="47.2969" lon="5.93084">
        <ele>238.1</ele>
        <time>2000-01-01T11:05:59.000Z</time>
      </trkpt>
      <trkpt lat="47.2968" lon="5.93073">
        <ele>238</ele>
        <time>2000-01-01T11:06:09.000Z</time>
      </trkpt>
      <trkpt lat="47.29671" lon="5.93065">
        <ele>238.9</ele>
        <time>2000-01-01T11:06:19.000Z</time>
      </trkpt>
      <trkpt lat="47.29657" lon="5.93053">
        <ele>240</ele>
        <time>2000-01-01T11:06:29.000Z</time>
      </trkpt>
      <trkpt lat="47.29643" lon="5.93042">
        <ele>240.3</ele>
        <time>2000-01-01T11:06:39.000Z</time>
      </trkpt>
      <trkpt lat="47.29638" lon="5.93037">
        <ele>240</ele>
        <time>2000-01-01T11:06:49.000Z</time>
      </trkpt>
      <trkpt lat="47.29631" lon="5.93029">
        <ele>241</ele>
        <time>2000-01-01T11:06:59.000Z</time>
      </trkpt>
      <trkpt lat="47.29622" lon="5.93016">
        <ele>240</ele>
        <time>2000-01-01T11:07:09.000Z</time>
      </trkpt>
      <trkpt lat="47.29618" lon="5.93009">
        <ele>241</ele>
        <time>2000-01-01T11:07:19.000Z</time>
      </trkpt>
      <trkpt lat="47.29613" lon="5.93">
        <ele>241</ele>
        <time>2000-01-01T11:07:29.000Z</time>
      </trkpt>
      <trkpt lat="47.29603" lon="5.9298">
        <ele>240</ele>
        <time>2000-01-01T11:07:39.000Z</time>
      </trkpt>
      <trkpt lat="47.29588" lon="5.92947">
        <ele>240</ele>
        <time>2000-01-01T11:07:49.000Z</time>
      </trkpt>
      <trkpt lat="47.29566" lon="5.92899">
        <ele>238</ele>
        <time>2000-01-01T11:07:59.000Z</time>
      </trkpt>
      <trkpt lat="47.29543" lon="5.92845">
        <ele>236</ele>
        <time>2000-01-01T11:08:09.000Z</time>
      </trkpt>
      <trkpt lat="47.29532" lon="5.92823">
        <ele>235</ele>
        <time>2000-01-01T11:08:19.000Z</time>
      </trkpt>
      <trkpt lat="47.29528" lon="5.92815">
        <ele>236.3</ele>
        <time>2000-01-01T11:08:29.000Z</time>
      </trkpt>
      <trkpt lat="47.29527" lon="5.92814">
        <ele>236.3</ele>
        <time>2000-01-01T11:08:39.000Z</time>
      </trkpt>
      <trkpt lat="47.29502" lon="5.92778">
        <ele>235</ele>
        <time>2000-01-01T11:08:49.000Z</time>
      </trkpt>
      <trkpt lat="47.29477" lon="5.92742">
        <ele>233</ele>
        <time>2000-01-01T11:08:59.000Z</time>
      </trkpt>
      <trkpt lat="47.29452" lon="5.92706">
        <ele>232</ele>
        <time>2000-01-01T11:09:09.000Z</time>
      </trkpt>
      <trkpt lat="47.29419" lon="5.92659">
        <ele>232</ele>
        <time>2000-01-01T11:09:19.000Z</time>
      </trkpt>
      <trkpt lat="47.29433" lon="5.92606">
        <ele>232</ele>
        <time>2000-01-01T11:09:29.000Z</time>
      </trkpt>
      <trkpt lat="47.29447" lon="5.92553">
        <ele>234</ele>
        <time>2000-01-01T11:09:39.000Z</time>
      </trkpt>
      <trkpt lat="47.29461" lon="5.925">
        <ele>238</ele>
        <time>2000-01-01T11:09:49.000Z</time>
      </trkpt>
      <trkpt lat="47.29475" lon="5.92447">
        <ele>243</ele>
        <time>2000-01-01T11:09:59.000Z</time>
      </trkpt>
      <trkpt lat="47.29489" lon="5.92394">
        <ele>248</ele>
        <time>2000-01-01T11:10:09.000Z</time>
      </trkpt>
      <trkpt lat="47.29498" lon="5.92359">
        <ele>250</ele>
        <time>2000-01-01T11:10:19.000Z</time>
      </trkpt>
      <trkpt lat="47.29509" lon="5.92318">
        <ele>250</ele>
        <time>2000-01-01T11:10:29.000Z</time>
      </trkpt>
      <trkpt lat="47.29484" lon="5.92283">
        <ele>249</ele>
        <time>2000-01-01T11:10:39.000Z</time>
      </trkpt>
      <trkpt lat="47.29458" lon="5.92248">
        <ele>248</ele>
        <time>2000-01-01T11:10:49.000Z</time>
      </trkpt>
      <trkpt lat="47.29433" lon="5.92214">
        <ele>247</ele>
        <time>2000-01-01T11:10:59.000Z</time>
      </trkpt>
      <trkpt lat="47.29405" lon="5.92175">
        <ele>247</ele>
        <time>2000-01-01T11:11:09.000Z</time>
      </trkpt>
      <trkpt lat="47.29372" lon="5.9214">
        <ele>248</ele>
        <time>2000-01-01T11:11:19.000Z</time>
      </trkpt>
      <trkpt lat="47.29348" lon="5.92127">
        <ele>250</ele>
        <time>2000-01-01T11:11:29.000Z</time>
      </trkpt>
      <trkpt lat="47.29318" lon="5.9211">
        <ele>252</ele>
        <time>2000-01-01T11:11:39.000Z</time>
      </trkpt>
      <trkpt lat="47.29296" lon="5.92094">
        <ele>252</ele>
        <time>2000-01-01T11:11:49.000Z</time>
      </trkpt>
      <trkpt lat="47.29272" lon="5.92077">
        <ele>251</ele>
        <time>2000-01-01T11:11:59.000Z</time>
      </trkpt>
      <trkpt lat="47.29258" lon="5.92077">
        <ele>251.3</ele>
        <time>2000-01-01T11:12:09.000Z</time>
      </trkpt>
      <trkpt lat="47.29221" lon="5.9211">
        <ele>251</ele>
        <time>2000-01-01T11:12:19.000Z</time>
      </trkpt>
      <trkpt lat="47.29214" lon="5.92143">
        <ele>251</ele>
        <time>2000-01-01T11:12:29.000Z</time>
      </trkpt>
      <trkpt lat="47.29191" lon="5.92158">
        <ele>251</ele>
        <time>2000-01-01T11:12:39.000Z</time>
      </trkpt>
      <trkpt lat="47.29163" lon="5.92177">
        <ele>250</ele>
        <time>2000-01-01T11:12:49.000Z</time>
      </trkpt>
      <trkpt lat="47.29135" lon="5.92185">
        <ele>249</ele>
        <time>2000-01-01T11:12:59.000Z</time>
      </trkpt>
      <trkpt lat="47.29102" lon="5.92205">
        <ele>249</ele>
        <time>2000-01-01T11:13:09.000Z</time>
      </trkpt>
      <trkpt lat="47.29071" lon="5.92219">
        <ele>250</ele>
        <time>2000-01-01T11:13:19.000Z</time>
      </trkpt>
      <trkpt lat="47.29045" lon="5.9222">
        <ele>251</ele>
        <time>2000-01-01T11:13:29.000Z</time>
      </trkpt>
      <trkpt lat="47.29009" lon="5.92222">
        <ele>251</ele>
        <time>2000-01-01T11:13:39.000Z</time>
      </trkpt>
      <trkpt lat="47.28987" lon="5.92236">
        <ele>251</ele>
        <time>2000-01-01T11:13:49.000Z</time>
      </trkpt>
      <trkpt lat="47.28963" lon="5.92251">
        <ele>251</ele>
        <time>2000-01-01T11:13:59.000Z</time>
      </trkpt>
      <trkpt lat="47.28949" lon="5.92263">
        <ele>251.2</ele>
        <time>2000-01-01T11:14:09.000Z</time>
      </trkpt>
      <trkpt lat="47.28925" lon="5.9229">
        <ele>250</ele>
        <time>2000-01-01T11:14:19.000Z</time>
      </trkpt>
      <trkpt lat="47.28914" lon="5.9232">
        <ele>249</ele>
        <time>2000-01-01T11:14:29.000Z</time>
      </trkpt>
      <trkpt lat="47.28908" lon="5.92355">
        <ele>246</ele>
        <time>2000-01-01T11:14:39.000Z</time>
      </trkpt>
      <trkpt lat="47.28899" lon="5.92382">
        <ele>245</ele>
        <time>2000-01-01T11:14:49.000Z</time>
      </trkpt>
      <trkpt lat="47.28875" lon="5.9235">
        <ele>245</ele>
        <time>2000-01-01T11:14:59.000Z</time>
      </trkpt>
      <trkpt lat="47.2885" lon="5.92319">
        <ele>245</ele>
        <time>2000-01-01T11:15:09.000Z</time>
      </trkpt>
      <trkpt lat="47.28833" lon="5.92296">
        <ele>246</ele>
        <time>2000-01-01T11:15:19.000Z</time>
      </trkpt>
      <trkpt lat="47.28815" lon="5.92273">
        <ele>247</ele>
        <time>2000-01-01T11:15:29.000Z</time>
      </trkpt>
      <trkpt lat="47.2879" lon="5.92242">
        <ele>247</ele>
        <time>2000-01-01T11:15:39.000Z</time>
      </trkpt>
      <trkpt lat="47.28764" lon="5.92211">
        <ele>249</ele>
        <time>2000-01-01T11:15:49.000Z</time>
      </trkpt>
      <trkpt lat="47.28745" lon="5.92188">
        <ele>250</ele>
        <time>2000-01-01T11:15:59.000Z</time>
      </trkpt>
      <trkpt lat="47.28724" lon="5.92162">
        <ele>251</ele>
        <time>2000-01-01T11:16:09.000Z</time>
      </trkpt>
      <trkpt lat="47.28701" lon="5.92131">
        <ele>253</ele>
        <time>2000-01-01T11:16:19.000Z</time>
      </trkpt>
      <trkpt lat="47.28678" lon="5.921">
        <ele>256</ele>
        <time>2000-01-01T11:16:29.000Z</time>
      </trkpt>
      <trkpt lat="47.28652" lon="5.92064">
        <ele>257</ele>
        <time>2000-01-01T11:16:39.000Z</time>
      </trkpt>
      <trkpt lat="47.2864" lon="5.92045">
        <ele>257.4</ele>
        <time>2000-01-01T11:16:49.000Z</time>
      </trkpt>
      <trkpt lat="47.28549" lon="5.91906">
        <ele>262</ele>
        <time>2000-01-01T11:16:59.000Z</time>
      </trkpt>
      <trkpt lat="47.28529" lon="5.91873">
        <ele>263</ele>
        <time>2000-01-01T11:17:09.000Z</time>
      </trkpt>
      <trkpt lat="47.28513" lon="5.91845">
        <ele>264</ele>
        <time>2000-01-01T11:17:19.000Z</time>
      </trkpt>
      <trkpt lat="47.28493" lon="5.91812">
        <ele>266</ele>
        <time>2000-01-01T11:17:29.000Z</time>
      </trkpt>
      <trkpt lat="47.28486" lon="5.91798">
        <ele>267.3</ele>
        <time>2000-01-01T11:17:39.000Z</time>
      </trkpt>
      <trkpt lat="47.28511" lon="5.91748">
        <ele>266</ele>
        <time>2000-01-01T11:17:49.000Z</time>
      </trkpt>
      <trkpt lat="47.28529" lon="5.91711">
        <ele>264</ele>
        <time>2000-01-01T11:17:59.000Z</time>
      </trkpt>
      <trkpt lat="47.28547" lon="5.91674">
        <ele>262</ele>
        <time>2000-01-01T11:18:09.000Z</time>
      </trkpt>
      <trkpt lat="47.28567" lon="5.91633">
        <ele>260</ele>
        <time>2000-01-01T11:18:19.000Z</time>
      </trkpt>
      <trkpt lat="47.2857" lon="5.91628">
        <ele>259.6</ele>
        <time>2000-01-01T11:18:29.000Z</time>
      </trkpt>
      <trkpt lat="47.2857" lon="5.91627">
        <ele>259.5</ele>
        <time>2000-01-01T11:18:39.000Z</time>
      </trkpt>
      <trkpt lat="47.28578" lon="5.91607">
        <ele>258</ele>
        <time>2000-01-01T11:18:49.000Z</time>
      </trkpt>
      <trkpt lat="47.28586" lon="5.91584">
        <ele>256.9</ele>
        <time>2000-01-01T11:18:59.000Z</time>
      </trkpt>
      <trkpt lat="47.2859" lon="5.91573">
        <ele>256</ele>
        <time>2000-01-01T11:19:09.000Z</time>
      </trkpt>
      <trkpt lat="47.28605" lon="5.91529">
        <ele>253</ele>
        <time>2000-01-01T11:19:19.000Z</time>
      </trkpt>
      <trkpt lat="47.2862" lon="5.91484">
        <ele>249</ele>
        <time>2000-01-01T11:19:29.000Z</time>
      </trkpt>
      <trkpt lat="47.28631" lon="5.9145">
        <ele>247</ele>
        <time>2000-01-01T11:19:39.000Z</time>
      </trkpt>
      <trkpt lat="47.28646" lon="5.91405">
        <ele>244</ele>
        <time>2000-01-01T11:19:49.000Z</time>
      </trkpt>
      <trkpt lat="47.28659" lon="5.9137">
        <ele>242</ele>
        <time>2000-01-01T11:19:59.000Z</time>
      </trkpt>
      <trkpt lat="47.28676" lon="5.9132">
        <ele>241</ele>
        <time>2000-01-01T11:20:09.000Z</time>
      </trkpt>
      <trkpt lat="47.28689" lon="5.91284">
        <ele>241</ele>
        <time>2000-01-01T11:20:19.000Z</time>
      </trkpt>
      <trkpt lat="47.28708" lon="5.9123">
        <ele>240</ele>
        <time>2000-01-01T11:20:29.000Z</time>
      </trkpt>
      <trkpt lat="47.28698" lon="5.91196">
        <ele>240</ele>
        <time>2000-01-01T11:20:39.000Z</time>
      </trkpt>
      <trkpt lat="47.28686" lon="5.91155">
        <ele>239</ele>
        <time>2000-01-01T11:20:49.000Z</time>
      </trkpt>
      <trkpt lat="47.28674" lon="5.91115">
        <ele>238</ele>
        <time>2000-01-01T11:20:59.000Z</time>
      </trkpt>
      <trkpt lat="47.28663" lon="5.9108">
        <ele>237</ele>
        <time>2000-01-01T11:21:09.000Z</time>
      </trkpt>
      <trkpt lat="47.2865" lon="5.91038">
        <ele>236</ele>
        <time>2000-01-01T11:21:19.000Z</time>
      </trkpt>
      <trkpt lat="47.28648" lon="5.91029">
        <ele>236.4</ele>
        <time>2000-01-01T11:21:29.000Z</time>
      </trkpt>
      <trkpt lat="47.28638" lon="5.90984">
        <ele>234</ele>
        <time>2000-01-01T11:21:39.000Z</time>
      </trkpt>
      <trkpt lat="47.28631" lon="5.90933">
        <ele>233</ele>
        <time>2000-01-01T11:21:49.000Z</time>
      </trkpt>
      <trkpt lat="47.28627" lon="5.90893">
        <ele>232</ele>
        <time>2000-01-01T11:21:59.000Z</time>
      </trkpt>
      <trkpt lat="47.28625" lon="5.90847">
        <ele>231</ele>
        <time>2000-01-01T11:22:09.000Z</time>
      </trkpt>
      <trkpt lat="47.28626" lon="5.90799">
        <ele>230</ele>
        <time>2000-01-01T11:22:19.000Z</time>
      </trkpt>
      <trkpt lat="47.2863" lon="5.9075">
        <ele>228</ele>
        <time>2000-01-01T11:22:29.000Z</time>
      </trkpt>
      <trkpt lat="47.28633" lon="5.90726">
        <ele>228.8</ele>
        <time>2000-01-01T11:22:39.000Z</time>
      </trkpt>
      <trkpt lat="47.28636" lon="5.90704">
        <ele>228</ele>
        <time>2000-01-01T11:22:49.000Z</time>
      </trkpt>
      <trkpt lat="47.28641" lon="5.90669">
        <ele>226</ele>
        <time>2000-01-01T11:22:59.000Z</time>
      </trkpt>
      <trkpt lat="47.28648" lon="5.90629">
        <ele>225</ele>
        <time>2000-01-01T11:23:09.000Z</time>
      </trkpt>
      <trkpt lat="47.28652" lon="5.90603">
        <ele>225</ele>
        <time>2000-01-01T11:23:19.000Z</time>
      </trkpt>
      <trkpt lat="47.28655" lon="5.90557">
        <ele>224</ele>
        <time>2000-01-01T11:23:29.000Z</time>
      </trkpt>
      <trkpt lat="47.28658" lon="5.90511">
        <ele>223</ele>
        <time>2000-01-01T11:23:39.000Z</time>
      </trkpt>
      <trkpt lat="47.28661" lon="5.90459">
        <ele>222</ele>
        <time>2000-01-01T11:23:49.000Z</time>
      </trkpt>
      <trkpt lat="47.28663" lon="5.90417">
        <ele>221</ele>
        <time>2000-01-01T11:23:59.000Z</time>
      </trkpt>
      <trkpt lat="47.28664" lon="5.90383">
        <ele>220</ele>
        <time>2000-01-01T11:24:09.000Z</time>
      </trkpt>
      <trkpt lat="47.28665" lon="5.90348">
        <ele>218</ele>
        <time>2000-01-01T11:24:19.000Z</time>
      </trkpt>
      <trkpt lat="47.28667" lon="5.90293">
        <ele>217</ele>
        <time>2000-01-01T11:24:29.000Z</time>
      </trkpt>
      <trkpt lat="47.28668" lon="5.9026">
        <ele>216</ele>
        <time>2000-01-01T11:24:39.000Z</time>
      </trkpt>
      <trkpt lat="47.28669" lon="5.90244">
        <ele>216</ele>
        <time>2000-01-01T11:24:49.000Z</time>
      </trkpt>
      <trkpt lat="47.28672" lon="5.90161">
        <ele>215</ele>
        <time>2000-01-01T11:24:59.000Z</time>
      </trkpt>
      <trkpt lat="47.28672" lon="5.90144">
        <ele>215</ele>
        <time>2000-01-01T11:25:09.000Z</time>
      </trkpt>
      <trkpt lat="47.28675" lon="5.90133">
        <ele>215</ele>
        <time>2000-01-01T11:25:19.000Z</time>
      </trkpt>
      <trkpt lat="47.28675" lon="5.90133">
        <ele>214.7</ele>
        <time>2000-01-01T11:25:29.000Z</time>
      </trkpt>
      <trkpt lat="47.28675" lon="5.90133">
        <ele>214.7</ele>
        <time>2000-01-01T11:25:39.000Z</time>
      </trkpt>
      <trkpt lat="47.28677" lon="5.90126">
        <ele>214.6</ele>
        <time>2000-01-01T11:25:49.000Z</time>
      </trkpt>
      <trkpt lat="47.28673" lon="5.90113">
        <ele>214.8</ele>
        <time>2000-01-01T11:25:59.000Z</time>
      </trkpt>
      <trkpt lat="47.28655" lon="5.90051">
        <ele>214</ele>
        <time>2000-01-01T11:26:09.000Z</time>
      </trkpt>
      <trkpt lat="47.28653" lon="5.90043">
        <ele>214.3</ele>
        <time>2000-01-01T11:26:19.000Z</time>
      </trkpt>
      <trkpt lat="47.28652" lon="5.90039">
        <ele>214.2</ele>
        <time>2000-01-01T11:26:29.000Z</time>
      </trkpt>
      <trkpt lat="47.28651" lon="5.90035">
        <ele>214.1</ele>
        <time>2000-01-01T11:26:39.000Z</time>
      </trkpt>
      <trkpt lat="47.28616" lon="5.89897">
        <ele>214</ele>
        <time>2000-01-01T11:26:49.000Z</time>
      </trkpt>
      <trkpt lat="47.28614" lon="5.89888">
        <ele>214.9</ele>
        <time>2000-01-01T11:26:59.000Z</time>
      </trkpt>
      <trkpt lat="47.28612" lon="5.89879">
        <ele>215</ele>
        <time>2000-01-01T11:27:09.000Z</time>
      </trkpt>
      <trkpt lat="47.2861" lon="5.89871">
        <ele>215</ele>
        <time>2000-01-01T11:27:19.000Z</time>
      </trkpt>
      <trkpt lat="47.28602" lon="5.89847">
        <ele>216.3</ele>
        <time>2000-01-01T11:27:29.000Z</time>
      </trkpt>
      <trkpt lat="47.28587" lon="5.89809">
        <ele>217</ele>
        <time>2000-01-01T11:27:39.000Z</time>
      </trkpt>
      <trkpt lat="47.28579" lon="5.89791">
        <ele>217.8</ele>
        <time>2000-01-01T11:27:49.000Z</time>
      </trkpt>
      <trkpt lat="47.28563" lon="5.8981">
        <ele>218</ele>
        <time>2000-01-01T11:27:59.000Z</time>
      </trkpt>
      <trkpt lat="47.28532" lon="5.89843">
        <ele>218</ele>
        <time>2000-01-01T11:28:09.000Z</time>
      </trkpt>
      <trkpt lat="47.28513" lon="5.89864">
        <ele>217</ele>
        <time>2000-01-01T11:28:19.000Z</time>
      </trkpt>
      <trkpt lat="47.28497" lon="5.89878">
        <ele>216</ele>
        <time>2000-01-01T11:28:29.000Z</time>
      </trkpt>
      <trkpt lat="47.28475" lon="5.89892">
        <ele>215</ele>
        <time>2000-01-01T11:28:39.000Z</time>
      </trkpt>
      <trkpt lat="47.28456" lon="5.89903">
        <ele>215</ele>
        <time>2000-01-01T11:28:49.000Z</time>
      </trkpt>
      <trkpt lat="47.28446" lon="5.89905">
        <ele>215</ele>
        <time>2000-01-01T11:28:59.000Z</time>
      </trkpt>
      <trkpt lat="47.28404" lon="5.899">
        <ele>216</ele>
        <time>2000-01-01T11:29:09.000Z</time>
      </trkpt>
      <trkpt lat="47.28391" lon="5.89893">
        <ele>217.8</ele>
        <time>2000-01-01T11:29:19.000Z</time>
      </trkpt>
      <trkpt lat="47.28376" lon="5.89881">
        <ele>218</ele>
        <time>2000-01-01T11:29:29.000Z</time>
      </trkpt>
      <trkpt lat="47.28358" lon="5.89866">
        <ele>220</ele>
        <time>2000-01-01T11:29:39.000Z</time>
      </trkpt>
      <trkpt lat="47.2833" lon="5.89835">
        <ele>222</ele>
        <time>2000-01-01T11:29:49.000Z</time>
      </trkpt>
      <trkpt lat="47.28304" lon="5.89789">
        <ele>223</ele>
        <time>2000-01-01T11:29:59.000Z</time>
      </trkpt>
      <trkpt lat="47.28307" lon="5.89784">
        <ele>222.9</ele>
        <time>2000-01-01T11:30:09.000Z</time>
      </trkpt>
      <trkpt lat="47.283" lon="5.89772">
        <ele>223.4</ele>
        <time>2000-01-01T11:30:19.000Z</time>
      </trkpt>
      <trkpt lat="47.28293" lon="5.89759">
        <ele>224</ele>
        <time>2000-01-01T11:30:29.000Z</time>
      </trkpt>
      <trkpt lat="47.28287" lon="5.89748">
        <ele>224.7</ele>
        <time>2000-01-01T11:30:39.000Z</time>
      </trkpt>
      <trkpt lat="47.28279" lon="5.89728">
        <ele>226</ele>
        <time>2000-01-01T11:30:49.000Z</time>
      </trkpt>
      <trkpt lat="47.28277" lon="5.89725">
        <ele>225.9</ele>
        <time>2000-01-01T11:30:59.000Z</time>
      </trkpt>
      <trkpt lat="47.28257" lon="5.89682">
        <ele>227</ele>
        <time>2000-01-01T11:31:09.000Z</time>
      </trkpt>
      <trkpt lat="47.28237" lon="5.89639">
        <ele>230</ele>
        <time>2000-01-01T11:31:19.000Z</time>
      </trkpt>
      <trkpt lat="47.28216" lon="5.89595">
        <ele>232</ele>
        <time>2000-01-01T11:31:29.000Z</time>
      </trkpt>
      <trkpt lat="47.28202" lon="5.89565">
        <ele>232</ele>
        <time>2000-01-01T11:31:39.000Z</time>
      </trkpt>
      <trkpt lat="47.28186" lon="5.8953">
        <ele>232</ele>
        <time>2000-01-01T11:31:49.000Z</time>
      </trkpt>
      <trkpt lat="47.2816" lon="5.89486">
        <ele>231</ele>
        <time>2000-01-01T11:31:59.000Z</time>
      </trkpt>
      <trkpt lat="47.28135" lon="5.89443">
        <ele>231</ele>
        <time>2000-01-01T11:32:09.000Z</time>
      </trkpt>
      <trkpt lat="47.28109" lon="5.89399">
        <ele>233</ele>
        <time>2000-01-01T11:32:19.000Z</time>
      </trkpt>
      <trkpt lat="47.28084" lon="5.89356">
        <ele>236</ele>
        <time>2000-01-01T11:32:29.000Z</time>
      </trkpt>
      <trkpt lat="47.28058" lon="5.89312">
        <ele>239</ele>
        <time>2000-01-01T11:32:39.000Z</time>
      </trkpt>
      <trkpt lat="47.28039" lon="5.89281">
        <ele>239</ele>
        <time>2000-01-01T11:32:49.000Z</time>
      </trkpt>
      <trkpt lat="47.28024" lon="5.89255">
        <ele>239</ele>
        <time>2000-01-01T11:32:59.000Z</time>
      </trkpt>
      <trkpt lat="47.28009" lon="5.89229">
        <ele>239</ele>
        <time>2000-01-01T11:33:09.000Z</time>
      </trkpt>
      <trkpt lat="47.28037" lon="5.8919">
        <ele>239</ele>
        <time>2000-01-01T11:33:19.000Z</time>
      </trkpt>
      <trkpt lat="47.28066" lon="5.89151">
        <ele>241</ele>
        <time>2000-01-01T11:33:29.000Z</time>
      </trkpt>
      <trkpt lat="47.28094" lon="5.89112">
        <ele>241</ele>
        <time>2000-01-01T11:33:39.000Z</time>
      </trkpt>
      <trkpt lat="47.28122" lon="5.89073">
        <ele>241</ele>
        <time>2000-01-01T11:33:49.000Z</time>
      </trkpt>
      <trkpt lat="47.2815" lon="5.89034">
        <ele>241</ele>
        <time>2000-01-01T11:33:59.000Z</time>
      </trkpt>
      <trkpt lat="47.28169" lon="5.89008">
        <ele>241</ele>
        <time>2000-01-01T11:34:09.000Z</time>
      </trkpt>
      <trkpt lat="47.28194" lon="5.88974">
        <ele>240</ele>
        <time>2000-01-01T11:34:19.000Z</time>
      </trkpt>
      <trkpt lat="47.28219" lon="5.88942">
        <ele>239</ele>
        <time>2000-01-01T11:34:29.000Z</time>
      </trkpt>
      <trkpt lat="47.28243" lon="5.88911">
        <ele>237</ele>
        <time>2000-01-01T11:34:39.000Z</time>
      </trkpt>
      <trkpt lat="47.28261" lon="5.88888">
        <ele>237</ele>
        <time>2000-01-01T11:34:49.000Z</time>
      </trkpt>
      <trkpt lat="47.2828" lon="5.88863">
        <ele>238</ele>
        <time>2000-01-01T11:34:59.000Z</time>
      </trkpt>
      <trkpt lat="47.28307" lon="5.88819">
        <ele>240</ele>
        <time>2000-01-01T11:35:09.000Z</time>
      </trkpt>
      <trkpt lat="47.28335" lon="5.8878">
        <ele>240</ele>
        <time>2000-01-01T11:35:19.000Z</time>
      </trkpt>
      <trkpt lat="47.2831" lon="5.88738">
        <ele>241</ele>
        <time>2000-01-01T11:35:29.000Z</time>
      </trkpt>
      <trkpt lat="47.28285" lon="5.88695">
        <ele>242</ele>
        <time>2000-01-01T11:35:39.000Z</time>
      </trkpt>
      <trkpt lat="47.28259" lon="5.88653">
        <ele>243</ele>
        <time>2000-01-01T11:35:49.000Z</time>
      </trkpt>
      <trkpt lat="47.28234" lon="5.88611">
        <ele>245</ele>
        <time>2000-01-01T11:35:59.000Z</time>
      </trkpt>
      <trkpt lat="47.28209" lon="5.88568">
        <ele>248</ele>
        <time>2000-01-01T11:36:09.000Z</time>
      </trkpt>
      <trkpt lat="47.28182" lon="5.88523">
        <ele>249</ele>
        <time>2000-01-01T11:36:19.000Z</time>
      </trkpt>
      <trkpt lat="47.28163" lon="5.88494">
        <ele>249</ele>
        <time>2000-01-01T11:36:29.000Z</time>
      </trkpt>
      <trkpt lat="47.28137" lon="5.88453">
        <ele>249</ele>
        <time>2000-01-01T11:36:39.000Z</time>
      </trkpt>
      <trkpt lat="47.28118" lon="5.88418">
        <ele>249</ele>
        <time>2000-01-01T11:36:49.000Z</time>
      </trkpt>
      <trkpt lat="47.28103" lon="5.88389">
        <ele>248</ele>
        <time>2000-01-01T11:36:59.000Z</time>
      </trkpt>
      <trkpt lat="47.28083" lon="5.88352">
        <ele>247</ele>
        <time>2000-01-01T11:37:09.000Z</time>
      </trkpt>
      <trkpt lat="47.28092" lon="5.88323">
        <ele>246</ele>
        <time>2000-01-01T11:37:19.000Z</time>
      </trkpt>
      <trkpt lat="47.2807" lon="5.88289">
        <ele>245</ele>
        <time>2000-01-01T11:37:29.000Z</time>
      </trkpt>
      <trkpt lat="47.2804" lon="5.88255">
        <ele>242</ele>
        <time>2000-01-01T11:37:39.000Z</time>
      </trkpt>
      <trkpt lat="47.2801" lon="5.88221">
        <ele>239</ele>
        <time>2000-01-01T11:37:49.000Z</time>
      </trkpt>
      <trkpt lat="47.2798" lon="5.88187">
        <ele>237</ele>
        <time>2000-01-01T11:37:59.000Z</time>
      </trkpt>
      <trkpt lat="47.2795" lon="5.88152">
        <ele>236</ele>
        <time>2000-01-01T11:38:09.000Z</time>
      </trkpt>
      <trkpt lat="47.27928" lon="5.88127">
        <ele>235</ele>
        <time>2000-01-01T11:38:19.000Z</time>
      </trkpt>
      <trkpt lat="47.27893" lon="5.88088">
        <ele>234</ele>
        <time>2000-01-01T11:38:29.000Z</time>
      </trkpt>
      <trkpt lat="47.27859" lon="5.88058">
        <ele>233</ele>
        <time>2000-01-01T11:38:39.000Z</time>
      </trkpt>
      <trkpt lat="47.27841" lon="5.8803">
        <ele>232</ele>
        <time>2000-01-01T11:38:49.000Z</time>
      </trkpt>
      <trkpt lat="47.27816" lon="5.87993">
        <ele>229</ele>
        <time>2000-01-01T11:38:59.000Z</time>
      </trkpt>
      <trkpt lat="47.2781" lon="5.87959">
        <ele>227</ele>
        <time>2000-01-01T11:39:09.000Z</time>
      </trkpt>
      <trkpt lat="47.27799" lon="5.87933">
        <ele>226</ele>
        <time>2000-01-01T11:39:19.000Z</time>
      </trkpt>
      <trkpt lat="47.27803" lon="5.87902">
        <ele>225</ele>
        <time>2000-01-01T11:39:29.000Z</time>
      </trkpt>
      <trkpt lat="47.27829" lon="5.87894">
        <ele>224</ele>
        <time>2000-01-01T11:39:39.000Z</time>
      </trkpt>
      <trkpt lat="47.27866" lon="5.87882">
        <ele>224</ele>
        <time>2000-01-01T11:39:49.000Z</time>
      </trkpt>
      <trkpt lat="47.27896" lon="5.87876">
        <ele>224</ele>
        <time>2000-01-01T11:39:59.000Z</time>
      </trkpt>
      <trkpt lat="47.27922" lon="5.8787">
        <ele>224</ele>
        <time>2000-01-01T11:40:09.000Z</time>
      </trkpt>
      <trkpt lat="47.27955" lon="5.87863">
        <ele>224</ele>
        <time>2000-01-01T11:40:19.000Z</time>
      </trkpt>
      <trkpt lat="47.27988" lon="5.87839">
        <ele>223</ele>
        <time>2000-01-01T11:40:29.000Z</time>
      </trkpt>
      <trkpt lat="47.28005" lon="5.8781">
        <ele>223</ele>
        <time>2000-01-01T11:40:39.000Z</time>
      </trkpt>
      <trkpt lat="47.28028" lon="5.87771">
        <ele>223</ele>
        <time>2000-01-01T11:40:49.000Z</time>
      </trkpt>
      <trkpt lat="47.2802" lon="5.87727">
        <ele>224</ele>
        <time>2000-01-01T11:40:59.000Z</time>
      </trkpt>
      <trkpt lat="47.28" lon="5.87726">
        <ele>224</ele>
        <time>2000-01-01T11:41:09.000Z</time>
      </trkpt>
      <trkpt lat="47.27979" lon="5.87747">
        <ele>224</ele>
        <time>2000-01-01T11:41:19.000Z</time>
      </trkpt>
      <trkpt lat="47.27951" lon="5.87775">
        <ele>224</ele>
        <time>2000-01-01T11:41:29.000Z</time>
      </trkpt>
      <trkpt lat="47.27934" lon="5.87786">
        <ele>224</ele>
        <time>2000-01-01T11:41:39.000Z</time>
      </trkpt>
      <trkpt lat="47.27919" lon="5.8779">
        <ele>224.5</ele>
        <time>2000-01-01T11:41:49.000Z</time>
      </trkpt>
      <trkpt lat="47.27894" lon="5.87782">
        <ele>224</ele>
        <time>2000-01-01T11:41:59.000Z</time>
      </trkpt>
      <trkpt lat="47.27865" lon="5.87779">
        <ele>224</ele>
        <time>2000-01-01T11:42:09.000Z</time>
      </trkpt>
      <trkpt lat="47.27821" lon="5.87781">
        <ele>223</ele>
        <time>2000-01-01T11:42:19.000Z</time>
      </trkpt>
      <trkpt lat="47.27799" lon="5.87772">
        <ele>223</ele>
        <time>2000-01-01T11:42:29.000Z</time>
      </trkpt>
      <trkpt lat="47.27786" lon="5.87744">
        <ele>223</ele>
        <time>2000-01-01T11:42:39.000Z</time>
      </trkpt>
      <trkpt lat="47.27772" lon="5.87716">
        <ele>224</ele>
        <time>2000-01-01T11:42:49.000Z</time>
      </trkpt>
      <trkpt lat="47.27754" lon="5.87703">
        <ele>224</ele>
        <time>2000-01-01T11:42:59.000Z</time>
      </trkpt>
      <trkpt lat="47.27736" lon="5.8768">
        <ele>224</ele>
        <time>2000-01-01T11:43:09.000Z</time>
      </trkpt>
      <trkpt lat="47.27718" lon="5.87657">
        <ele>224</ele>
        <time>2000-01-01T11:43:19.000Z</time>
      </trkpt>
      <trkpt lat="47.27696" lon="5.87642">
        <ele>224</ele>
        <time>2000-01-01T11:43:29.000Z</time>
      </trkpt>
      <trkpt lat="47.27676" lon="5.87613">
        <ele>224</ele>
        <time>2000-01-01T11:43:39.000Z</time>
      </trkpt>
      <trkpt lat="47.27659" lon="5.87589">
        <ele>223</ele>
        <time>2000-01-01T11:43:49.000Z</time>
      </trkpt>
      <trkpt lat="47.27642" lon="5.87565">
        <ele>223</ele>
        <time>2000-01-01T11:43:59.000Z</time>
      </trkpt>
      <trkpt lat="47.27628" lon="5.87529">
        <ele>222</ele>
        <time>2000-01-01T11:44:09.000Z</time>
      </trkpt>
      <trkpt lat="47.27594" lon="5.87516">
        <ele>222</ele>
        <time>2000-01-01T11:44:19.000Z</time>
      </trkpt>
      <trkpt lat="47.2756" lon="5.87503">
        <ele>221</ele>
        <time>2000-01-01T11:44:29.000Z</time>
      </trkpt>
      <trkpt lat="47.27526" lon="5.87489">
        <ele>220</ele>
        <time>2000-01-01T11:44:39.000Z</time>
      </trkpt>
      <trkpt lat="47.27504" lon="5.87481">
        <ele>220</ele>
        <time>2000-01-01T11:44:49.000Z</time>
      </trkpt>
      <trkpt lat="47.27482" lon="5.87472">
        <ele>220</ele>
        <time>2000-01-01T11:44:59.000Z</time>
      </trkpt>
      <trkpt lat="47.27444" lon="5.87462">
        <ele>218</ele>
        <time>2000-01-01T11:45:09.000Z</time>
      </trkpt>
      <trkpt lat="47.27424" lon="5.87466">
        <ele>217</ele>
        <time>2000-01-01T11:45:19.000Z</time>
      </trkpt>
      <trkpt lat="47.27402" lon="5.87487">
        <ele>217</ele>
        <time>2000-01-01T11:45:29.000Z</time>
      </trkpt>
      <trkpt lat="47.27375" lon="5.87513">
        <ele>217</ele>
        <time>2000-01-01T11:45:39.000Z</time>
      </trkpt>
      <trkpt lat="47.27356" lon="5.87539">
        <ele>217</ele>
        <time>2000-01-01T11:45:49.000Z</time>
      </trkpt>
      <trkpt lat="47.2733" lon="5.87575">
        <ele>217</ele>
        <time>2000-01-01T11:45:59.000Z</time>
      </trkpt>
      <trkpt lat="47.27311" lon="5.87612">
        <ele>217</ele>
        <time>2000-01-01T11:46:09.000Z</time>
      </trkpt>
      <trkpt lat="47.27297" lon="5.87672">
        <ele>217</ele>
        <time>2000-01-01T11:46:19.000Z</time>
      </trkpt>
      <trkpt lat="47.27272" lon="5.87675">
        <ele>217</ele>
        <time>2000-01-01T11:46:29.000Z</time>
      </trkpt>
      <trkpt lat="47.2724" lon="5.87678">
        <ele>218</ele>
        <time>2000-01-01T11:46:39.000Z</time>
      </trkpt>
      <trkpt lat="47.27247" lon="5.87728">
        <ele>219</ele>
        <time>2000-01-01T11:46:49.000Z</time>
      </trkpt>
      <trkpt lat="47.27228" lon="5.87721">
        <ele>219</ele>
        <time>2000-01-01T11:46:59.000Z</time>
      </trkpt>
      <trkpt lat="47.27202" lon="5.87726">
        <ele>219</ele>
        <time>2000-01-01T11:47:09.000Z</time>
      </trkpt>
      <trkpt lat="47.27194" lon="5.87721">
        <ele>220</ele>
        <time>2000-01-01T11:47:19.000Z</time>
      </trkpt>
      <trkpt lat="47.27176" lon="5.877">
        <ele>218</ele>
        <time>2000-01-01T11:47:29.000Z</time>
      </trkpt>
      <trkpt lat="47.27164" lon="5.8767">
        <ele>217</ele>
        <time>2000-01-01T11:47:39.000Z</time>
      </trkpt>
      <trkpt lat="47.2715" lon="5.87636">
        <ele>217</ele>
        <time>2000-01-01T11:47:49.000Z</time>
      </trkpt>
      <trkpt lat="47.27162" lon="5.87606">
        <ele>217</ele>
        <time>2000-01-01T11:47:59.000Z</time>
      </trkpt>
      <trkpt lat="47.27144" lon="5.87583">
        <ele>217</ele>
        <time>2000-01-01T11:48:09.000Z</time>
      </trkpt>
      <trkpt lat="47.27124" lon="5.87557">
        <ele>217</ele>
        <time>2000-01-01T11:48:19.000Z</time>
      </trkpt>
      <trkpt lat="47.27129" lon="5.87532">
        <ele>217.8</ele>
        <time>2000-01-01T11:48:29.000Z</time>
      </trkpt>
      <trkpt lat="47.27142" lon="5.87524">
        <ele>218</ele>
        <time>2000-01-01T11:48:39.000Z</time>
      </trkpt>
      <trkpt lat="47.27165" lon="5.87538">
        <ele>218</ele>
        <time>2000-01-01T11:48:49.000Z</time>
      </trkpt>
      <trkpt lat="47.27187" lon="5.87517">
        <ele>219</ele>
        <time>2000-01-01T11:48:59.000Z</time>
      </trkpt>
      <trkpt lat="47.27172" lon="5.87487">
        <ele>220</ele>
        <time>2000-01-01T11:49:09.000Z</time>
      </trkpt>
      <trkpt lat="47.27154" lon="5.87451">
        <ele>221</ele>
        <time>2000-01-01T11:49:19.000Z</time>
      </trkpt>
      <trkpt lat="47.27123" lon="5.87443">
        <ele>221</ele>
        <time>2000-01-01T11:49:29.000Z</time>
      </trkpt>
      <trkpt lat="47.27093" lon="5.87435">
        <ele>222</ele>
        <time>2000-01-01T11:49:39.000Z</time>
      </trkpt>
      <trkpt lat="47.27063" lon="5.87428">
        <ele>223</ele>
        <time>2000-01-01T11:49:49.000Z</time>
      </trkpt>
      <trkpt lat="47.27057" lon="5.87428">
        <ele>223.9</ele>
        <time>2000-01-01T11:49:59.000Z</time>
      </trkpt>
      <trkpt lat="47.27047" lon="5.87428">
        <ele>224.4</ele>
        <time>2000-01-01T11:50:09.000Z</time>
      </trkpt>
      <trkpt lat="47.27035" lon="5.87426">
        <ele>224</ele>
        <time>2000-01-01T11:50:19.000Z</time>
      </trkpt>
      <trkpt lat="47.27022" lon="5.87422">
        <ele>225.6</ele>
        <time>2000-01-01T11:50:29.000Z</time>
      </trkpt>
      <trkpt lat="47.27008" lon="5.87422">
        <ele>227</ele>
        <time>2000-01-01T11:50:39.000Z</time>
      </trkpt>
      <trkpt lat="47.27" lon="5.87422">
        <ele>227.2</ele>
        <time>2000-01-01T11:50:49.000Z</time>
      </trkpt>
      <trkpt lat="47.26978" lon="5.87427">
        <ele>228</ele>
        <time>2000-01-01T11:50:59.000Z</time>
      </trkpt>
      <trkpt lat="47.26951" lon="5.87436">
        <ele>230</ele>
        <time>2000-01-01T11:51:09.000Z</time>
      </trkpt>
      <trkpt lat="47.26932" lon="5.87445">
        <ele>231</ele>
        <time>2000-01-01T11:51:19.000Z</time>
      </trkpt>
      <trkpt lat="47.26912" lon="5.87458">
        <ele>232</ele>
        <time>2000-01-01T11:51:29.000Z</time>
      </trkpt>
      <trkpt lat="47.26896" lon="5.87469">
        <ele>234.6</ele>
        <time>2000-01-01T11:51:39.000Z</time>
      </trkpt>
      <trkpt lat="47.26891" lon="5.87472">
        <ele>234</ele>
        <time>2000-01-01T11:51:49.000Z</time>
      </trkpt>
      <trkpt lat="47.2688" lon="5.87479">
        <ele>235.6</ele>
        <time>2000-01-01T11:51:59.000Z</time>
      </trkpt>
      <trkpt lat="47.26869" lon="5.87484">
        <ele>236</ele>
        <time>2000-01-01T11:52:09.000Z</time>
      </trkpt>
      <trkpt lat="47.2686" lon="5.87484">
        <ele>236.6</ele>
        <time>2000-01-01T11:52:19.000Z</time>
      </trkpt>
      <trkpt lat="47.2684" lon="5.87478">
        <ele>238</ele>
        <time>2000-01-01T11:52:29.000Z</time>
      </trkpt>
      <trkpt lat="47.26802" lon="5.87462">
        <ele>241</ele>
        <time>2000-01-01T11:52:39.000Z</time>
      </trkpt>
      <trkpt lat="47.2677" lon="5.87449">
        <ele>246</ele>
        <time>2000-01-01T11:52:49.000Z</time>
      </trkpt>
      <trkpt lat="47.26748" lon="5.87436">
        <ele>247</ele>
        <time>2000-01-01T11:52:59.000Z</time>
      </trkpt>
      <trkpt lat="47.26744" lon="5.87433">
        <ele>248.2</ele>
        <time>2000-01-01T11:53:09.000Z</time>
      </trkpt>
      <trkpt lat="47.26736" lon="5.87426">
        <ele>249.2</ele>
        <time>2000-01-01T11:53:19.000Z</time>
      </trkpt>
      <trkpt lat="47.26723" lon="5.87413">
        <ele>249</ele>
        <time>2000-01-01T11:53:29.000Z</time>
      </trkpt>
      <trkpt lat="47.26699" lon="5.87393">
        <ele>252</ele>
        <time>2000-01-01T11:53:39.000Z</time>
      </trkpt>
      <trkpt lat="47.26683" lon="5.8738">
        <ele>253.1</ele>
        <time>2000-01-01T11:53:49.000Z</time>
      </trkpt>
      <trkpt lat="47.26664" lon="5.87368">
        <ele>254</ele>
        <time>2000-01-01T11:53:59.000Z</time>
      </trkpt>
      <trkpt lat="47.26645" lon="5.87357">
        <ele>256</ele>
        <time>2000-01-01T11:54:09.000Z</time>
      </trkpt>
      <trkpt lat="47.26623" lon="5.87344">
        <ele>257</ele>
        <time>2000-01-01T11:54:19.000Z</time>
      </trkpt>
      <trkpt lat="47.26598" lon="5.87331">
        <ele>259</ele>
        <time>2000-01-01T11:54:29.000Z</time>
      </trkpt>
      <trkpt lat="47.26588" lon="5.87329">
        <ele>259.7</ele>
        <time>2000-01-01T11:54:39.000Z</time>
      </trkpt>
      <trkpt lat="47.26582" lon="5.8733">
        <ele>260.1</ele>
        <time>2000-01-01T11:54:49.000Z</time>
      </trkpt>
      <trkpt lat="47.26579" lon="5.87331">
        <ele>261</ele>
        <time>2000-01-01T11:54:59.000Z</time>
      </trkpt>
      <trkpt lat="47.2657" lon="5.87335">
        <ele>261.5</ele>
        <time>2000-01-01T11:55:09.000Z</time>
      </trkpt>
      <trkpt lat="47.2656" lon="5.87345">
        <ele>261</ele>
        <time>2000-01-01T11:55:19.000Z</time>
      </trkpt>
      <trkpt lat="47.26551" lon="5.87353">
        <ele>262.4</ele>
        <time>2000-01-01T11:55:29.000Z</time>
      </trkpt>
      <trkpt lat="47.2654" lon="5.87362">
        <ele>261</ele>
        <time>2000-01-01T11:55:39.000Z</time>
      </trkpt>
      <trkpt lat="47.26536" lon="5.87364">
        <ele>261.6</ele>
        <time>2000-01-01T11:55:49.000Z</time>
      </trkpt>
      <trkpt lat="47.26531" lon="5.87367">
        <ele>261.2</ele>
        <time>2000-01-01T11:55:59.000Z</time>
      </trkpt>
      <trkpt lat="47.26522" lon="5.87368">
        <ele>260</ele>
        <time>2000-01-01T11:56:09.000Z</time>
      </trkpt>
      <trkpt lat="47.26509" lon="5.87372">
        <ele>259.5</ele>
        <time>2000-01-01T11:56:19.000Z</time>
      </trkpt>
      <trkpt lat="47.26484" lon="5.87382">
        <ele>260</ele>
        <time>2000-01-01T11:56:29.000Z</time>
      </trkpt>
      <trkpt lat="47.26464" lon="5.87388">
        <ele>260</ele>
        <time>2000-01-01T11:56:39.000Z</time>
      </trkpt>
      <trkpt lat="47.26451" lon="5.87392">
        <ele>259.3</ele>
        <time>2000-01-01T11:56:49.000Z</time>
      </trkpt>
      <trkpt lat="47.26436" lon="5.87395">
        <ele>261</ele>
        <time>2000-01-01T11:56:59.000Z</time>
      </trkpt>
      <trkpt lat="47.26434" lon="5.87395">
        <ele>260</ele>
        <time>2000-01-01T11:57:09.000Z</time>
      </trkpt>
      <trkpt lat="47.26426" lon="5.87394">
        <ele>260.4</ele>
        <time>2000-01-01T11:57:19.000Z</time>
      </trkpt>
      <trkpt lat="47.26415" lon="5.87392">
        <ele>261</ele>
        <time>2000-01-01T11:57:29.000Z</time>
      </trkpt>
      <trkpt lat="47.26414" lon="5.87392">
        <ele>260.8</ele>
        <time>2000-01-01T11:57:39.000Z</time>
      </trkpt>
      <trkpt lat="47.26401" lon="5.87386">
        <ele>260.7</ele>
        <time>2000-01-01T11:57:49.000Z</time>
      </trkpt>
      <trkpt lat="47.26389" lon="5.87377">
        <ele>259</ele>
        <time>2000-01-01T11:57:59.000Z</time>
      </trkpt>
      <trkpt lat="47.26366" lon="5.87356">
        <ele>258</ele>
        <time>2000-01-01T11:58:09.000Z</time>
      </trkpt>
      <trkpt lat="47.2634" lon="5.87329">
        <ele>256</ele>
        <time>2000-01-01T11:58:19.000Z</time>
      </trkpt>
      <trkpt lat="47.26306" lon="5.87292">
        <ele>252</ele>
        <time>2000-01-01T11:58:29.000Z</time>
      </trkpt>
      <trkpt lat="47.26288" lon="5.87275">
        <ele>251</ele>
        <time>2000-01-01T11:58:39.000Z</time>
      </trkpt>
      <trkpt lat="47.26281" lon="5.8727">
        <ele>251.8</ele>
        <time>2000-01-01T11:58:49.000Z</time>
      </trkpt>
      <trkpt lat="47.26272" lon="5.87268">
        <ele>251</ele>
        <time>2000-01-01T11:58:59.000Z</time>
      </trkpt>
      <trkpt lat="47.26265" lon="5.87267">
        <ele>250</ele>
        <time>2000-01-01T11:59:09.000Z</time>
      </trkpt>
      <trkpt lat="47.26255" lon="5.87269">
        <ele>249.9</ele>
        <time>2000-01-01T11:59:19.000Z</time>
      </trkpt>
      <trkpt lat="47.26246" lon="5.87252">
        <ele>250</ele>
        <time>2000-01-01T11:59:29.000Z</time>
      </trkpt>
      <trkpt lat="47.26219" lon="5.87202">
        <ele>251</ele>
        <time>2000-01-01T11:59:39.000Z</time>
      </trkpt>
      <trkpt lat="47.26194" lon="5.87154">
        <ele>255</ele>
        <time>2000-01-01T11:59:49.000Z</time>
      </trkpt>
      <trkpt lat="47.2618" lon="5.87115">
        <ele>256</ele>
        <time>2000-01-01T11:59:59.000Z</time>
      </trkpt>
      <trkpt lat="47.26176" lon="5.87099">
        <ele>257.3</ele>
        <time>2000-01-01T12:00:09.000Z</time>
      </trkpt>
      <trkpt lat="47.26175" lon="5.87094">
        <ele>257.4</ele>
        <time>2000-01-01T12:00:19.000Z</time>
      </trkpt>
      <trkpt lat="47.26173" lon="5.87085">
        <ele>257</ele>
        <time>2000-01-01T12:00:29.000Z</time>
      </trkpt>
      <trkpt lat="47.26171" lon="5.87065">
        <ele>257.6</ele>
        <time>2000-01-01T12:00:39.000Z</time>
      </trkpt>
      <trkpt lat="47.26166" lon="5.87032">
        <ele>257</ele>
        <time>2000-01-01T12:00:49.000Z</time>
      </trkpt>
      <trkpt lat="47.26163" lon="5.87008">
        <ele>258.5</ele>
        <time>2000-01-01T12:00:59.000Z</time>
      </trkpt>
      <trkpt lat="47.26162" lon="5.86997">
        <ele>259</ele>
        <time>2000-01-01T12:01:09.000Z</time>
      </trkpt>
      <trkpt lat="47.26157" lon="5.86963">
        <ele>259</ele>
        <time>2000-01-01T12:01:19.000Z</time>
      </trkpt>
      <trkpt lat="47.26145" lon="5.8697">
        <ele>258.5</ele>
        <time>2000-01-01T12:01:29.000Z</time>
      </trkpt>
      <trkpt lat="47.26128" lon="5.86978">
        <ele>258</ele>
        <time>2000-01-01T12:01:39.000Z</time>
      </trkpt>
      <trkpt lat="47.2612" lon="5.8698">
        <ele>258.2</ele>
        <time>2000-01-01T12:01:49.000Z</time>
      </trkpt>
      <trkpt lat="47.26115" lon="5.86978">
        <ele>258.2</ele>
        <time>2000-01-01T12:01:59.000Z</time>
      </trkpt>
      <trkpt lat="47.26114" lon="5.86977">
        <ele>258.2</ele>
        <time>2000-01-01T12:02:09.000Z</time>
      </trkpt>
      <trkpt lat="47.26103" lon="5.86956">
        <ele>258</ele>
        <time>2000-01-01T12:02:19.000Z</time>
      </trkpt>
      <trkpt lat="47.26101" lon="5.86953">
        <ele>258.1</ele>
        <time>2000-01-01T12:02:29.000Z</time>
      </trkpt>
      <trkpt lat="47.2608" lon="5.86921">
        <ele>258</ele>
        <time>2000-01-01T12:02:39.000Z</time>
      </trkpt>
      <trkpt lat="47.26053" lon="5.86883">
        <ele>257</ele>
        <time>2000-01-01T12:02:49.000Z</time>
      </trkpt>
      <trkpt lat="47.26037" lon="5.86859">
        <ele>256</ele>
        <time>2000-01-01T12:02:59.000Z</time>
      </trkpt>
      <trkpt lat="47.2602" lon="5.86834">
        <ele>255</ele>
        <time>2000-01-01T12:03:09.000Z</time>
      </trkpt>
      <trkpt lat="47.26009" lon="5.86818">
        <ele>254.4</ele>
        <time>2000-01-01T12:03:19.000Z</time>
      </trkpt>
      <trkpt lat="47.25997" lon="5.86806">
        <ele>253</ele>
        <time>2000-01-01T12:03:29.000Z</time>
      </trkpt>
      <trkpt lat="47.25978" lon="5.86785">
        <ele>252</ele>
        <time>2000-01-01T12:03:39.000Z</time>
      </trkpt>
      <trkpt lat="47.25971" lon="5.86777">
        <ele>251.9</ele>
        <time>2000-01-01T12:03:49.000Z</time>
      </trkpt>
      <trkpt lat="47.25964" lon="5.86769">
        <ele>251.2</ele>
        <time>2000-01-01T12:03:59.000Z</time>
      </trkpt>
      <trkpt lat="47.25957" lon="5.86759">
        <ele>252</ele>
        <time>2000-01-01T12:04:09.000Z</time>
      </trkpt>
      <trkpt lat="47.25956" lon="5.86758">
        <ele>251.4</ele>
        <time>2000-01-01T12:04:19.000Z</time>
      </trkpt>
      <trkpt lat="47.25949" lon="5.86738">
        <ele>252.2</ele>
        <time>2000-01-01T12:04:29.000Z</time>
      </trkpt>
      <trkpt lat="47.25938" lon="5.8671">
        <ele>254</ele>
        <time>2000-01-01T12:04:39.000Z</time>
      </trkpt>
      <trkpt lat="47.25919" lon="5.86701">
        <ele>255</ele>
        <time>2000-01-01T12:04:49.000Z</time>
      </trkpt>
      <trkpt lat="47.25902" lon="5.86692">
        <ele>256</ele>
        <time>2000-01-01T12:04:59.000Z</time>
      </trkpt>
      <trkpt lat="47.25884" lon="5.86685">
        <ele>256.5</ele>
        <time>2000-01-01T12:05:09.000Z</time>
      </trkpt>
      <trkpt lat="47.25878" lon="5.86683">
        <ele>257</ele>
        <time>2000-01-01T12:05:19.000Z</time>
      </trkpt>
      <trkpt lat="47.25868" lon="5.8668">
        <ele>257.3</ele>
        <time>2000-01-01T12:05:29.000Z</time>
      </trkpt>
      <trkpt lat="47.25852" lon="5.86677">
        <ele>259</ele>
        <time>2000-01-01T12:05:39.000Z</time>
      </trkpt>
      <trkpt lat="47.25836" lon="5.86671">
        <ele>259.8</ele>
        <time>2000-01-01T12:05:49.000Z</time>
      </trkpt>
      <trkpt lat="47.25823" lon="5.86664">
        <ele>260</ele>
        <time>2000-01-01T12:05:59.000Z</time>
      </trkpt>
      <trkpt lat="47.25813" lon="5.86655">
        <ele>260.3</ele>
        <time>2000-01-01T12:06:09.000Z</time>
      </trkpt>
      <trkpt lat="47.25801" lon="5.86641">
        <ele>260</ele>
        <time>2000-01-01T12:06:19.000Z</time>
      </trkpt>
      <trkpt lat="47.25786" lon="5.86625">
        <ele>261</ele>
        <time>2000-01-01T12:06:29.000Z</time>
      </trkpt>
      <trkpt lat="47.25772" lon="5.86608">
        <ele>261.3</ele>
        <time>2000-01-01T12:06:39.000Z</time>
      </trkpt>
      <trkpt lat="47.25757" lon="5.86598">
        <ele>262</ele>
        <time>2000-01-01T12:06:49.000Z</time>
      </trkpt>
      <trkpt lat="47.25746" lon="5.86591">
        <ele>262</ele>
        <time>2000-01-01T12:06:59.000Z</time>
      </trkpt>
      <trkpt lat="47.25731" lon="5.86587">
        <ele>262</ele>
        <time>2000-01-01T12:07:09.000Z</time>
      </trkpt>
      <trkpt lat="47.25715" lon="5.86585">
        <ele>261.8</ele>
        <time>2000-01-01T12:07:19.000Z</time>
      </trkpt>
      <trkpt lat="47.257" lon="5.86581">
        <ele>263</ele>
        <time>2000-01-01T12:07:29.000Z</time>
      </trkpt>
      <trkpt lat="47.25696" lon="5.8658">
        <ele>261.2</ele>
        <time>2000-01-01T12:07:39.000Z</time>
      </trkpt>
      <trkpt lat="47.25686" lon="5.86578">
        <ele>261.9</ele>
        <time>2000-01-01T12:07:49.000Z</time>
      </trkpt>
      <trkpt lat="47.25666" lon="5.86565">
        <ele>265</ele>
        <time>2000-01-01T12:07:59.000Z</time>
      </trkpt>
      <trkpt lat="47.25687" lon="5.86534">
        <ele>265</ele>
        <time>2000-01-01T12:08:09.000Z</time>
      </trkpt>
      <trkpt lat="47.25713" lon="5.86504">
        <ele>265</ele>
        <time>2000-01-01T12:08:19.000Z</time>
      </trkpt>
      <trkpt lat="47.25739" lon="5.86475">
        <ele>265</ele>
        <time>2000-01-01T12:08:29.000Z</time>
      </trkpt>
      <trkpt lat="47.25759" lon="5.86453">
        <ele>265</ele>
        <time>2000-01-01T12:08:39.000Z</time>
      </trkpt>
      <trkpt lat="47.25781" lon="5.86428">
        <ele>265</ele>
        <time>2000-01-01T12:08:49.000Z</time>
      </trkpt>
      <trkpt lat="47.25803" lon="5.86413">
        <ele>265</ele>
        <time>2000-01-01T12:08:59.000Z</time>
      </trkpt>
      <trkpt lat="47.25828" lon="5.86396">
        <ele>264</ele>
        <time>2000-01-01T12:09:09.000Z</time>
      </trkpt>
      <trkpt lat="47.25836" lon="5.86373">
        <ele>262.2</ele>
        <time>2000-01-01T12:09:19.000Z</time>
      </trkpt>
      <trkpt lat="47.2581" lon="5.86287">
        <ele>262</ele>
        <time>2000-01-01T12:09:29.000Z</time>
      </trkpt>
      <trkpt lat="47.25798" lon="5.86252">
        <ele>262</ele>
        <time>2000-01-01T12:09:39.000Z</time>
      </trkpt>
      <trkpt lat="47.25781" lon="5.86203">
        <ele>262</ele>
        <time>2000-01-01T12:09:49.000Z</time>
      </trkpt>
      <trkpt lat="47.25773" lon="5.86169">
        <ele>262</ele>
        <time>2000-01-01T12:09:59.000Z</time>
      </trkpt>
      <trkpt lat="47.25763" lon="5.86129">
        <ele>262</ele>
        <time>2000-01-01T12:10:09.000Z</time>
      </trkpt>
      <trkpt lat="47.2576" lon="5.86082">
        <ele>262</ele>
        <time>2000-01-01T12:10:19.000Z</time>
      </trkpt>
      <trkpt lat="47.25757" lon="5.86034">
        <ele>261</ele>
        <time>2000-01-01T12:10:29.000Z</time>
      </trkpt>
      <trkpt lat="47.25754" lon="5.86001">
        <ele>261</ele>
        <time>2000-01-01T12:10:39.000Z</time>
      </trkpt>
      <trkpt lat="47.25752" lon="5.85967">
        <ele>260</ele>
        <time>2000-01-01T12:10:49.000Z</time>
      </trkpt>
      <trkpt lat="47.25739" lon="5.85913">
        <ele>260</ele>
        <time>2000-01-01T12:10:59.000Z</time>
      </trkpt>
      <trkpt lat="47.25713" lon="5.85877">
        <ele>260</ele>
        <time>2000-01-01T12:11:09.000Z</time>
      </trkpt>
      <trkpt lat="47.25688" lon="5.85841">
        <ele>260</ele>
        <time>2000-01-01T12:11:19.000Z</time>
      </trkpt>
      <trkpt lat="47.25662" lon="5.85805">
        <ele>261</ele>
        <time>2000-01-01T12:11:29.000Z</time>
      </trkpt>
      <trkpt lat="47.25645" lon="5.8578">
        <ele>261</ele>
        <time>2000-01-01T12:11:39.000Z</time>
      </trkpt>
      <trkpt lat="47.25625" lon="5.85752">
        <ele>261</ele>
        <time>2000-01-01T12:11:49.000Z</time>
      </trkpt>
      <trkpt lat="47.25604" lon="5.85721">
        <ele>261</ele>
        <time>2000-01-01T12:11:59.000Z</time>
      </trkpt>
      <trkpt lat="47.25587" lon="5.85695">
        <ele>260</ele>
        <time>2000-01-01T12:12:09.000Z</time>
      </trkpt>
      <trkpt lat="47.25567" lon="5.85664">
        <ele>260</ele>
        <time>2000-01-01T12:12:19.000Z</time>
      </trkpt>
      <trkpt lat="47.25545" lon="5.85636">
        <ele>259</ele>
        <time>2000-01-01T12:12:29.000Z</time>
      </trkpt>
      <trkpt lat="47.25526" lon="5.85613">
        <ele>258</ele>
        <time>2000-01-01T12:12:39.000Z</time>
      </trkpt>
      <trkpt lat="47.25505" lon="5.85586">
        <ele>258</ele>
        <time>2000-01-01T12:12:49.000Z</time>
      </trkpt>
      <trkpt lat="47.25483" lon="5.85561">
        <ele>258</ele>
        <time>2000-01-01T12:12:59.000Z</time>
      </trkpt>
      <trkpt lat="47.2545" lon="5.85524">
        <ele>260</ele>
        <time>2000-01-01T12:13:09.000Z</time>
      </trkpt>
      <trkpt lat="47.2543" lon="5.85491">
        <ele>261</ele>
        <time>2000-01-01T12:13:19.000Z</time>
      </trkpt>
      <trkpt lat="47.25412" lon="5.85462">
        <ele>262</ele>
        <time>2000-01-01T12:13:29.000Z</time>
      </trkpt>
      <trkpt lat="47.2539" lon="5.85425">
        <ele>262</ele>
        <time>2000-01-01T12:13:39.000Z</time>
      </trkpt>
      <trkpt lat="47.25371" lon="5.85391">
        <ele>262</ele>
        <time>2000-01-01T12:13:49.000Z</time>
      </trkpt>
      <trkpt lat="47.25355" lon="5.85363">
        <ele>262</ele>
        <time>2000-01-01T12:13:59.000Z</time>
      </trkpt>
      <trkpt lat="47.25336" lon="5.8533">
        <ele>261</ele>
        <time>2000-01-01T12:14:09.000Z</time>
      </trkpt>
      <trkpt lat="47.25318" lon="5.85302">
        <ele>260</ele>
        <time>2000-01-01T12:14:19.000Z</time>
      </trkpt>
      <trkpt lat="47.25295" lon="5.85266">
        <ele>258</ele>
        <time>2000-01-01T12:14:29.000Z</time>
      </trkpt>
      <trkpt lat="47.25288" lon="5.85238">
        <ele>258</ele>
        <time>2000-01-01T12:14:39.000Z</time>
      </trkpt>
      <trkpt lat="47.25267" lon="5.85263">
        <ele>255</ele>
        <time>2000-01-01T12:14:49.000Z</time>
      </trkpt>
      <trkpt lat="47.25239" lon="5.85297">
        <ele>252</ele>
        <time>2000-01-01T12:14:59.000Z</time>
      </trkpt>
      <trkpt lat="47.2522" lon="5.85329">
        <ele>251</ele>
        <time>2000-01-01T12:15:09.000Z</time>
      </trkpt>
      <trkpt lat="47.25205" lon="5.85356">
        <ele>247</ele>
        <time>2000-01-01T12:15:19.000Z</time>
      </trkpt>
      <trkpt lat="47.25188" lon="5.85385">
        <ele>245</ele>
        <time>2000-01-01T12:15:29.000Z</time>
      </trkpt>
      <trkpt lat="47.25156" lon="5.85418">
        <ele>243</ele>
        <time>2000-01-01T12:15:39.000Z</time>
      </trkpt>
      <trkpt lat="47.25132" lon="5.85436">
        <ele>243</ele>
        <time>2000-01-01T12:15:49.000Z</time>
      </trkpt>
      <trkpt lat="47.251" lon="5.85461">
        <ele>248</ele>
        <time>2000-01-01T12:15:59.000Z</time>
      </trkpt>
      <trkpt lat="47.25066" lon="5.85482">
        <ele>251</ele>
        <time>2000-01-01T12:16:09.000Z</time>
      </trkpt>
      <trkpt lat="47.25044" lon="5.8548">
        <ele>252</ele>
        <time>2000-01-01T12:16:19.000Z</time>
      </trkpt>
      <trkpt lat="47.25031" lon="5.85497">
        <ele>255.4</ele>
        <time>2000-01-01T12:16:29.000Z</time>
      </trkpt>
      <trkpt lat="47.24988" lon="5.85516">
        <ele>260</ele>
        <time>2000-01-01T12:16:39.000Z</time>
      </trkpt>
      <trkpt lat="47.24961" lon="5.85547">
        <ele>264</ele>
        <time>2000-01-01T12:16:49.000Z</time>
      </trkpt>
      <trkpt lat="47.24945" lon="5.85577">
        <ele>268</ele>
        <time>2000-01-01T12:16:59.000Z</time>
      </trkpt>
      <trkpt lat="47.24926" lon="5.85626">
        <ele>274</ele>
        <time>2000-01-01T12:17:09.000Z</time>
      </trkpt>
      <trkpt lat="47.24918" lon="5.85661">
        <ele>277</ele>
        <time>2000-01-01T12:17:19.000Z</time>
      </trkpt>
      <trkpt lat="47.24908" lon="5.85702">
        <ele>278</ele>
        <time>2000-01-01T12:17:29.000Z</time>
      </trkpt>
      <trkpt lat="47.24903" lon="5.85743">
        <ele>280</ele>
        <time>2000-01-01T12:17:39.000Z</time>
      </trkpt>
      <trkpt lat="47.24894" lon="5.85807">
        <ele>280</ele>
        <time>2000-01-01T12:17:49.000Z</time>
      </trkpt>
      <trkpt lat="47.24886" lon="5.85843">
        <ele>280</ele>
        <time>2000-01-01T12:17:59.000Z</time>
      </trkpt>
      <trkpt lat="47.24876" lon="5.85887">
        <ele>280</ele>
        <time>2000-01-01T12:18:09.000Z</time>
      </trkpt>
      <trkpt lat="47.24853" lon="5.85929">
        <ele>280</ele>
        <time>2000-01-01T12:18:19.000Z</time>
      </trkpt>
      <trkpt lat="47.24821" lon="5.85962">
        <ele>280</ele>
        <time>2000-01-01T12:18:29.000Z</time>
      </trkpt>
      <trkpt lat="47.24789" lon="5.85995">
        <ele>282</ele>
        <time>2000-01-01T12:18:39.000Z</time>
      </trkpt>
      <trkpt lat="47.24757" lon="5.86028">
        <ele>282</ele>
        <time>2000-01-01T12:18:49.000Z</time>
      </trkpt>
      <trkpt lat="47.24755" lon="5.86031">
        <ele>281.7</ele>
        <time>2000-01-01T12:18:59.000Z</time>
      </trkpt>
      <trkpt lat="47.2474" lon="5.86048">
        <ele>281</ele>
        <time>2000-01-01T12:19:09.000Z</time>
      </trkpt>
      <trkpt lat="47.24734" lon="5.86054">
        <ele>281.1</ele>
        <time>2000-01-01T12:19:19.000Z</time>
      </trkpt>
      <trkpt lat="47.24731" lon="5.86057">
        <ele>280.9</ele>
        <time>2000-01-01T12:19:29.000Z</time>
      </trkpt>
      <trkpt lat="47.24692" lon="5.86096">
        <ele>278</ele>
        <time>2000-01-01T12:19:39.000Z</time>
      </trkpt>
      <trkpt lat="47.24657" lon="5.86131">
        <ele>274</ele>
        <time>2000-01-01T12:19:49.000Z</time>
      </trkpt>
      <trkpt lat="47.24648" lon="5.8614">
        <ele>273.6</ele>
        <time>2000-01-01T12:19:59.000Z</time>
      </trkpt>
      <trkpt lat="47.24632" lon="5.86161">
        <ele>271</ele>
        <time>2000-01-01T12:20:09.000Z</time>
      </trkpt>
      <trkpt lat="47.24622" lon="5.86178">
        <ele>270.2</ele>
        <time>2000-01-01T12:20:19.000Z</time>
      </trkpt>
      <trkpt lat="47.24579" lon="5.86253">
        <ele>263</ele>
        <time>2000-01-01T12:20:29.000Z</time>
      </trkpt>
      <trkpt lat="47.24557" lon="5.86295">
        <ele>260</ele>
        <time>2000-01-01T12:20:39.000Z</time>
      </trkpt>
      <trkpt lat="47.24539" lon="5.86329">
        <ele>257</ele>
        <time>2000-01-01T12:20:49.000Z</time>
      </trkpt>
      <trkpt lat="47.24521" lon="5.86364">
        <ele>253</ele>
        <time>2000-01-01T12:20:59.000Z</time>
      </trkpt>
      <trkpt lat="47.2451" lon="5.86381">
        <ele>252.3</ele>
        <time>2000-01-01T12:21:09.000Z</time>
      </trkpt>
      <trkpt lat="47.24503" lon="5.86391">
        <ele>251</ele>
        <time>2000-01-01T12:21:19.000Z</time>
      </trkpt>
      <trkpt lat="47.24495" lon="5.86396">
        <ele>250.4</ele>
        <time>2000-01-01T12:21:29.000Z</time>
      </trkpt>
      <trkpt lat="47.24486" lon="5.86399">
        <ele>249.6</ele>
        <time>2000-01-01T12:21:39.000Z</time>
      </trkpt>
      <trkpt lat="47.24478" lon="5.86399">
        <ele>248</ele>
        <time>2000-01-01T12:21:49.000Z</time>
      </trkpt>
      <trkpt lat="47.24468" lon="5.86395">
        <ele>248.4</ele>
        <time>2000-01-01T12:21:59.000Z</time>
      </trkpt>
      <trkpt lat="47.24459" lon="5.86387">
        <ele>246</ele>
        <time>2000-01-01T12:22:09.000Z</time>
      </trkpt>
      <trkpt lat="47.24449" lon="5.86375">
        <ele>246.5</ele>
        <time>2000-01-01T12:22:19.000Z</time>
      </trkpt>
      <trkpt lat="47.2444" lon="5.86368">
        <ele>245</ele>
        <time>2000-01-01T12:22:29.000Z</time>
      </trkpt>
      <trkpt lat="47.24434" lon="5.86365">
        <ele>244.9</ele>
        <time>2000-01-01T12:22:39.000Z</time>
      </trkpt>
      <trkpt lat="47.24428" lon="5.86365">
        <ele>244.3</ele>
        <time>2000-01-01T12:22:49.000Z</time>
      </trkpt>
      <trkpt lat="47.24422" lon="5.86367">
        <ele>243</ele>
        <time>2000-01-01T12:22:59.000Z</time>
      </trkpt>
      <trkpt lat="47.24421" lon="5.86369">
        <ele>243.7</ele>
        <time>2000-01-01T12:23:09.000Z</time>
      </trkpt>
      <trkpt lat="47.24417" lon="5.86372">
        <ele>243.4</ele>
        <time>2000-01-01T12:23:19.000Z</time>
      </trkpt>
      <trkpt lat="47.24409" lon="5.86382">
        <ele>243</ele>
        <time>2000-01-01T12:23:29.000Z</time>
      </trkpt>
      <trkpt lat="47.244" lon="5.86392">
        <ele>241</ele>
        <time>2000-01-01T12:23:39.000Z</time>
      </trkpt>
      <trkpt lat="47.24391" lon="5.86406">
        <ele>240.6</ele>
        <time>2000-01-01T12:23:49.000Z</time>
      </trkpt>
      <trkpt lat="47.24383" lon="5.86421">
        <ele>239</ele>
        <time>2000-01-01T12:23:59.000Z</time>
      </trkpt>
      <trkpt lat="47.2438" lon="5.86425">
        <ele>239.1</ele>
        <time>2000-01-01T12:24:09.000Z</time>
      </trkpt>
      <trkpt lat="47.24362" lon="5.86454">
        <ele>236</ele>
        <time>2000-01-01T12:24:19.000Z</time>
      </trkpt>
      <trkpt lat="47.2436" lon="5.86457">
        <ele>236.5</ele>
        <time>2000-01-01T12:24:29.000Z</time>
      </trkpt>
      <trkpt lat="47.24348" lon="5.86475">
        <ele>235</ele>
        <time>2000-01-01T12:24:39.000Z</time>
      </trkpt>
      <trkpt lat="47.24336" lon="5.8649">
        <ele>235.4</ele>
        <time>2000-01-01T12:24:49.000Z</time>
      </trkpt>
      <trkpt lat="47.24334" lon="5.86493">
        <ele>235</ele>
        <time>2000-01-01T12:24:59.000Z</time>
      </trkpt>
      <trkpt lat="47.24318" lon="5.86512">
        <ele>235</ele>
        <time>2000-01-01T12:25:09.000Z</time>
      </trkpt>
      <trkpt lat="47.24292" lon="5.8654">
        <ele>233</ele>
        <time>2000-01-01T12:25:19.000Z</time>
      </trkpt>
      <trkpt lat="47.24279" lon="5.86553">
        <ele>234</ele>
        <time>2000-01-01T12:25:29.000Z</time>
      </trkpt>
      <trkpt lat="47.24275" lon="5.86557">
        <ele>233</ele>
        <time>2000-01-01T12:25:39.000Z</time>
      </trkpt>
      <trkpt lat="47.24271" lon="5.8656">
        <ele>234</ele>
        <time>2000-01-01T12:25:49.000Z</time>
      </trkpt>
      <trkpt lat="47.24262" lon="5.86569">
        <ele>234.3</ele>
        <time>2000-01-01T12:25:59.000Z</time>
      </trkpt>
      <trkpt lat="47.24233" lon="5.86597">
        <ele>236</ele>
        <time>2000-01-01T12:26:09.000Z</time>
      </trkpt>
      <trkpt lat="47.24221" lon="5.86608">
        <ele>238</ele>
        <time>2000-01-01T12:26:19.000Z</time>
      </trkpt>
      <trkpt lat="47.24208" lon="5.86619">
        <ele>239</ele>
        <time>2000-01-01T12:26:29.000Z</time>
      </trkpt>
      <trkpt lat="47.24204" lon="5.86624">
        <ele>239.9</ele>
        <time>2000-01-01T12:26:39.000Z</time>
      </trkpt>
      <trkpt lat="47.242" lon="5.86628">
        <ele>240.3</ele>
        <time>2000-01-01T12:26:49.000Z</time>
      </trkpt>
      <trkpt lat="47.24192" lon="5.86638">
        <ele>240</ele>
        <time>2000-01-01T12:26:59.000Z</time>
      </trkpt>
      <trkpt lat="47.2418" lon="5.86657">
        <ele>243.5</ele>
        <time>2000-01-01T12:27:09.000Z</time>
      </trkpt>
      <trkpt lat="47.24171" lon="5.86676">
        <ele>244</ele>
        <time>2000-01-01T12:27:19.000Z</time>
      </trkpt>
      <trkpt lat="47.2417" lon="5.86679">
        <ele>245.3</ele>
        <time>2000-01-01T12:27:29.000Z</time>
      </trkpt>
      <trkpt lat="47.24163" lon="5.86699">
        <ele>246.6</ele>
        <time>2000-01-01T12:27:39.000Z</time>
      </trkpt>
      <trkpt lat="47.24158" lon="5.86708">
        <ele>247</ele>
        <time>2000-01-01T12:27:49.000Z</time>
      </trkpt>
      <trkpt lat="47.24156" lon="5.86717">
        <ele>248.1</ele>
        <time>2000-01-01T12:27:59.000Z</time>
      </trkpt>
      <trkpt lat="47.24149" lon="5.86742">
        <ele>250</ele>
        <time>2000-01-01T12:28:09.000Z</time>
      </trkpt>
      <trkpt lat="47.24144" lon="5.86762">
        <ele>251.7</ele>
        <time>2000-01-01T12:28:19.000Z</time>
      </trkpt>
      <trkpt lat="47.24139" lon="5.86794">
        <ele>254</ele>
        <time>2000-01-01T12:28:29.000Z</time>
      </trkpt>
      <trkpt lat="47.24134" lon="5.86826">
        <ele>255</ele>
        <time>2000-01-01T12:28:39.000Z</time>
      </trkpt>
      <trkpt lat="47.24133" lon="5.86833">
        <ele>256.4</ele>
        <time>2000-01-01T12:28:49.000Z</time>
      </trkpt>
      <trkpt lat="47.2413" lon="5.8685">
        <ele>257.8</ele>
        <time>2000-01-01T12:28:59.000Z</time>
      </trkpt>
      <trkpt lat="47.24123" lon="5.86871">
        <ele>259</ele>
        <time>2000-01-01T12:29:09.000Z</time>
      </trkpt>
      <trkpt lat="47.24118" lon="5.86884">
        <ele>260.3</ele>
        <time>2000-01-01T12:29:19.000Z</time>
      </trkpt>
      <trkpt lat="47.2411" lon="5.869">
        <ele>260</ele>
        <time>2000-01-01T12:29:29.000Z</time>
      </trkpt>
      <trkpt lat="47.24104" lon="5.8691">
        <ele>261.3</ele>
        <time>2000-01-01T12:29:39.000Z</time>
      </trkpt>
      <trkpt lat="47.24097" lon="5.8692">
        <ele>260</ele>
        <time>2000-01-01T12:29:49.000Z</time>
      </trkpt>
      <trkpt lat="47.2411" lon="5.86948">
        <ele>260</ele>
        <time>2000-01-01T12:29:59.000Z</time>
      </trkpt>
      <trkpt lat="47.24111" lon="5.8695">
        <ele>258.8</ele>
        <time>2000-01-01T12:30:09.000Z</time>
      </trkpt>
      <trkpt lat="47.24097" lon="5.86976">
        <ele>259</ele>
        <time>2000-01-01T12:30:19.000Z</time>
      </trkpt>
      <trkpt lat="47.24091" lon="5.86991">
        <ele>257.6</ele>
        <time>2000-01-01T12:30:29.000Z</time>
      </trkpt>
      <trkpt lat="47.24081" lon="5.87015">
        <ele>256</ele>
        <time>2000-01-01T12:30:39.000Z</time>
      </trkpt>
      <trkpt lat="47.24072" lon="5.87033">
        <ele>253.5</ele>
        <time>2000-01-01T12:30:49.000Z</time>
      </trkpt>
      <trkpt lat="47.24062" lon="5.8705">
        <ele>252</ele>
        <time>2000-01-01T12:30:59.000Z</time>
      </trkpt>
      <trkpt lat="47.24059" lon="5.87056">
        <ele>251.1</ele>
        <time>2000-01-01T12:31:09.000Z</time>
      </trkpt>
      <trkpt lat="47.24055" lon="5.87062">
        <ele>250.6</ele>
        <time>2000-01-01T12:31:19.000Z</time>
      </trkpt>
      <trkpt lat="47.24052" lon="5.87069">
        <ele>250.1</ele>
        <time>2000-01-01T12:31:29.000Z</time>
      </trkpt>
      <trkpt lat="47.2405" lon="5.87079">
        <ele>249</ele>
        <time>2000-01-01T12:31:39.000Z</time>
      </trkpt>
      <trkpt lat="47.24048" lon="5.87079">
        <ele>249.4</ele>
        <time>2000-01-01T12:31:49.000Z</time>
      </trkpt>
      <trkpt lat="47.24032" lon="5.87099">
        <ele>248</ele>
        <time>2000-01-01T12:31:59.000Z</time>
      </trkpt>
      <trkpt lat="47.24014" lon="5.8712">
        <ele>247</ele>
        <time>2000-01-01T12:32:09.000Z</time>
      </trkpt>
      <trkpt lat="47.23995" lon="5.87142">
        <ele>245</ele>
        <time>2000-01-01T12:32:19.000Z</time>
      </trkpt>
      <trkpt lat="47.23979" lon="5.8717">
        <ele>243</ele>
        <time>2000-01-01T12:32:29.000Z</time>
      </trkpt>
      <trkpt lat="47.23959" lon="5.87204">
        <ele>241</ele>
        <time>2000-01-01T12:32:39.000Z</time>
      </trkpt>
      <trkpt lat="47.23953" lon="5.87253">
        <ele>237</ele>
        <time>2000-01-01T12:32:49.000Z</time>
      </trkpt>
      <trkpt lat="47.23948" lon="5.87302">
        <ele>236</ele>
        <time>2000-01-01T12:32:59.000Z</time>
      </trkpt>
      <trkpt lat="47.23947" lon="5.87303">
        <ele>236.1</ele>
        <time>2000-01-01T12:33:09.000Z</time>
      </trkpt>
      <trkpt lat="47.23946" lon="5.87319">
        <ele>236</ele>
        <time>2000-01-01T12:33:19.000Z</time>
      </trkpt>
      <trkpt lat="47.23943" lon="5.87353">
        <ele>235</ele>
        <time>2000-01-01T12:33:29.000Z</time>
      </trkpt>
      <trkpt lat="47.2394" lon="5.87377">
        <ele>235.2</ele>
        <time>2000-01-01T12:33:39.000Z</time>
      </trkpt>
      <trkpt lat="47.23936" lon="5.87392">
        <ele>235</ele>
        <time>2000-01-01T12:33:49.000Z</time>
      </trkpt>
      <trkpt lat="47.23928" lon="5.87412">
        <ele>234.8</ele>
        <time>2000-01-01T12:33:59.000Z</time>
      </trkpt>
      <trkpt lat="47.23916" lon="5.87433">
        <ele>234</ele>
        <time>2000-01-01T12:34:09.000Z</time>
      </trkpt>
      <trkpt lat="47.2391" lon="5.87442">
        <ele>234.1</ele>
        <time>2000-01-01T12:34:19.000Z</time>
      </trkpt>
      <trkpt lat="47.23906" lon="5.87449">
        <ele>233.9</ele>
        <time>2000-01-01T12:34:29.000Z</time>
      </trkpt>
      <trkpt lat="47.23892" lon="5.87467">
        <ele>234</ele>
        <time>2000-01-01T12:34:39.000Z</time>
      </trkpt>
      <trkpt lat="47.23876" lon="5.87489">
        <ele>234</ele>
        <time>2000-01-01T12:34:49.000Z</time>
      </trkpt>
      <trkpt lat="47.23865" lon="5.87503">
        <ele>235.2</ele>
        <time>2000-01-01T12:34:59.000Z</time>
      </trkpt>
      <trkpt lat="47.23855" lon="5.87524">
        <ele>237</ele>
        <time>2000-01-01T12:35:09.000Z</time>
      </trkpt>
      <trkpt lat="47.23842" lon="5.87554">
        <ele>239</ele>
        <time>2000-01-01T12:35:19.000Z</time>
      </trkpt>
      <trkpt lat="47.23831" lon="5.87585">
        <ele>242</ele>
        <time>2000-01-01T12:35:29.000Z</time>
      </trkpt>
      <trkpt lat="47.23819" lon="5.8762">
        <ele>245</ele>
        <time>2000-01-01T12:35:39.000Z</time>
      </trkpt>
      <trkpt lat="47.23818" lon="5.87623">
        <ele>245</ele>
        <time>2000-01-01T12:35:49.000Z</time>
      </trkpt>
      <trkpt lat="47.23791" lon="5.87706">
        <ele>245</ele>
        <time>2000-01-01T12:35:59.000Z</time>
      </trkpt>
      <trkpt lat="47.23778" lon="5.87749">
        <ele>243</ele>
        <time>2000-01-01T12:36:09.000Z</time>
      </trkpt>
      <trkpt lat="47.23767" lon="5.8778">
        <ele>240</ele>
        <time>2000-01-01T12:36:19.000Z</time>
      </trkpt>
      <trkpt lat="47.23754" lon="5.87812">
        <ele>239</ele>
        <time>2000-01-01T12:36:29.000Z</time>
      </trkpt>
      <trkpt lat="47.23739" lon="5.87845">
        <ele>235</ele>
        <time>2000-01-01T12:36:39.000Z</time>
      </trkpt>
      <trkpt lat="47.23722" lon="5.87881">
        <ele>232</ele>
        <time>2000-01-01T12:36:49.000Z</time>
      </trkpt>
      <trkpt lat="47.23719" lon="5.87886">
        <ele>232.1</ele>
        <time>2000-01-01T12:36:59.000Z</time>
      </trkpt>
      <trkpt lat="47.23716" lon="5.87893">
        <ele>231.5</ele>
        <time>2000-01-01T12:37:09.000Z</time>
      </trkpt>
      <trkpt lat="47.23721" lon="5.87936">
        <ele>229</ele>
        <time>2000-01-01T12:37:19.000Z</time>
      </trkpt>
      <trkpt lat="47.23718" lon="5.87991">
        <ele>227</ele>
        <time>2000-01-01T12:37:29.000Z</time>
      </trkpt>
      <trkpt lat="47.23715" lon="5.88046">
        <ele>227</ele>
        <time>2000-01-01T12:37:39.000Z</time>
      </trkpt>
      <trkpt lat="47.23712" lon="5.88101">
        <ele>227</ele>
        <time>2000-01-01T12:37:49.000Z</time>
      </trkpt>
      <trkpt lat="47.23709" lon="5.88156">
        <ele>227</ele>
        <time>2000-01-01T12:37:59.000Z</time>
      </trkpt>
      <trkpt lat="47.23707" lon="5.88194">
        <ele>228</ele>
        <time>2000-01-01T12:38:09.000Z</time>
      </trkpt>
      <trkpt lat="47.23705" lon="5.88241">
        <ele>231</ele>
        <time>2000-01-01T12:38:19.000Z</time>
      </trkpt>
      <trkpt lat="47.23697" lon="5.88247">
        <ele>231.9</ele>
        <time>2000-01-01T12:38:29.000Z</time>
      </trkpt>
      <trkpt lat="47.23705" lon="5.88285">
        <ele>235</ele>
        <time>2000-01-01T12:38:39.000Z</time>
      </trkpt>
      <trkpt lat="47.23707" lon="5.88331">
        <ele>238</ele>
        <time>2000-01-01T12:38:49.000Z</time>
      </trkpt>
      <trkpt lat="47.23686" lon="5.88354">
        <ele>240</ele>
        <time>2000-01-01T12:38:59.000Z</time>
      </trkpt>
      <trkpt lat="47.23658" lon="5.88385">
        <ele>241</ele>
        <time>2000-01-01T12:39:09.000Z</time>
      </trkpt>
      <trkpt lat="47.2364" lon="5.88388">
        <ele>242</ele>
        <time>2000-01-01T12:39:19.000Z</time>
      </trkpt>
      <trkpt lat="47.23639" lon="5.884">
        <ele>242</ele>
        <time>2000-01-01T12:39:29.000Z</time>
      </trkpt>
      <trkpt lat="47.23619" lon="5.88435">
        <ele>247</ele>
        <time>2000-01-01T12:39:39.000Z</time>
      </trkpt>
      <trkpt lat="47.23601" lon="5.88441">
        <ele>250</ele>
        <time>2000-01-01T12:39:49.000Z</time>
      </trkpt>
      <trkpt lat="47.23598" lon="5.88457">
        <ele>254.8</ele>
        <time>2000-01-01T12:39:59.000Z</time>
      </trkpt>
      <trkpt lat="47.23589" lon="5.88455">
        <ele>256</ele>
        <time>2000-01-01T12:40:09.000Z</time>
      </trkpt>
      <trkpt lat="47.23558" lon="5.88421">
        <ele>258</ele>
        <time>2000-01-01T12:40:19.000Z</time>
      </trkpt>
      <trkpt lat="47.23546" lon="5.88417">
        <ele>258.5</ele>
        <time>2000-01-01T12:40:29.000Z</time>
      </trkpt>
      <trkpt lat="47.2352" lon="5.88425">
        <ele>260</ele>
        <time>2000-01-01T12:40:39.000Z</time>
      </trkpt>
      <trkpt lat="47.23505" lon="5.88399">
        <ele>262</ele>
        <time>2000-01-01T12:40:49.000Z</time>
      </trkpt>
      <trkpt lat="47.2349" lon="5.88374">
        <ele>260</ele>
        <time>2000-01-01T12:40:59.000Z</time>
      </trkpt>
      <trkpt lat="47.2347" lon="5.88343">
        <ele>258</ele>
        <time>2000-01-01T12:41:09.000Z</time>
      </trkpt>
      <trkpt lat="47.23454" lon="5.88318">
        <ele>257</ele>
        <time>2000-01-01T12:41:19.000Z</time>
      </trkpt>
      <trkpt lat="47.23437" lon="5.88291">
        <ele>256</ele>
        <time>2000-01-01T12:41:29.000Z</time>
      </trkpt>
      <trkpt lat="47.23416" lon="5.88262">
        <ele>257</ele>
        <time>2000-01-01T12:41:39.000Z</time>
      </trkpt>
      <trkpt lat="47.23405" lon="5.88277">
        <ele>256.7</ele>
        <time>2000-01-01T12:41:49.000Z</time>
      </trkpt>
      <trkpt lat="47.23385" lon="5.88281">
        <ele>257</ele>
        <time>2000-01-01T12:41:59.000Z</time>
      </trkpt>
      <trkpt lat="47.2336" lon="5.88269">
        <ele>257</ele>
        <time>2000-01-01T12:42:09.000Z</time>
      </trkpt>
      <trkpt lat="47.23327" lon="5.88252">
        <ele>260</ele>
        <time>2000-01-01T12:42:19.000Z</time>
      </trkpt>
      <trkpt lat="47.23299" lon="5.88243">
        <ele>261</ele>
        <time>2000-01-01T12:42:29.000Z</time>
      </trkpt>
      <trkpt lat="47.23274" lon="5.88239">
        <ele>263</ele>
        <time>2000-01-01T12:42:39.000Z</time>
      </trkpt>
      <trkpt lat="47.23243" lon="5.88234">
        <ele>268</ele>
        <time>2000-01-01T12:42:49.000Z</time>
      </trkpt>
      <trkpt lat="47.232" lon="5.8823">
        <ele>273</ele>
        <time>2000-01-01T12:42:59.000Z</time>
      </trkpt>
      <trkpt lat="47.23188" lon="5.88235">
        <ele>275.3</ele>
        <time>2000-01-01T12:43:09.000Z</time>
      </trkpt>
      <trkpt lat="47.23183" lon="5.88243">
        <ele>277</ele>
        <time>2000-01-01T12:43:19.000Z</time>
      </trkpt>
      <trkpt lat="47.23176" lon="5.88276">
        <ele>280</ele>
        <time>2000-01-01T12:43:29.000Z</time>
      </trkpt>
      <trkpt lat="47.23169" lon="5.8831">
        <ele>280</ele>
        <time>2000-01-01T12:43:39.000Z</time>
      </trkpt>
      <trkpt lat="47.23158" lon="5.88349">
        <ele>280</ele>
        <time>2000-01-01T12:43:49.000Z</time>
      </trkpt>
      <trkpt lat="47.23158" lon="5.88375">
        <ele>279.6</ele>
        <time>2000-01-01T12:43:59.000Z</time>
      </trkpt>
      <trkpt lat="47.23184" lon="5.8841">
        <ele>281</ele>
        <time>2000-01-01T12:44:09.000Z</time>
      </trkpt>
      <trkpt lat="47.23183" lon="5.88432">
        <ele>282.6</ele>
        <time>2000-01-01T12:44:19.000Z</time>
      </trkpt>
      <trkpt lat="47.23167" lon="5.88457">
        <ele>282</ele>
        <time>2000-01-01T12:44:29.000Z</time>
      </trkpt>
      <trkpt lat="47.23163" lon="5.88459">
        <ele>282.4</ele>
        <time>2000-01-01T12:44:39.000Z</time>
      </trkpt>
      <trkpt lat="47.23158" lon="5.8846">
        <ele>282.3</ele>
        <time>2000-01-01T12:44:49.000Z</time>
      </trkpt>
      <trkpt lat="47.23149" lon="5.88466">
        <ele>282</ele>
        <time>2000-01-01T12:44:59.000Z</time>
      </trkpt>
      <trkpt lat="47.23137" lon="5.88478">
        <ele>281.6</ele>
        <time>2000-01-01T12:45:09.000Z</time>
      </trkpt>
      <trkpt lat="47.23122" lon="5.88498">
        <ele>282</ele>
        <time>2000-01-01T12:45:19.000Z</time>
      </trkpt>
      <trkpt lat="47.2311" lon="5.88511">
        <ele>282</ele>
        <time>2000-01-01T12:45:29.000Z</time>
      </trkpt>
      <trkpt lat="47.23107" lon="5.88513">
        <ele>282</ele>
        <time>2000-01-01T12:45:39.000Z</time>
      </trkpt>
      <trkpt lat="47.23102" lon="5.88517">
        <ele>282.1</ele>
        <time>2000-01-01T12:45:49.000Z</time>
      </trkpt>
      <trkpt lat="47.23096" lon="5.88521">
        <ele>282.1</ele>
        <time>2000-01-01T12:45:59.000Z</time>
      </trkpt>
      <trkpt lat="47.23072" lon="5.88537">
        <ele>281</ele>
        <time>2000-01-01T12:46:09.000Z</time>
      </trkpt>
      <trkpt lat="47.2306" lon="5.88541">
        <ele>281.7</ele>
        <time>2000-01-01T12:46:19.000Z</time>
      </trkpt>
      <trkpt lat="47.23042" lon="5.88551">
        <ele>281</ele>
        <time>2000-01-01T12:46:29.000Z</time>
      </trkpt>
      <trkpt lat="47.23029" lon="5.88558">
        <ele>280.9</ele>
        <time>2000-01-01T12:46:39.000Z</time>
      </trkpt>
      <trkpt lat="47.23022" lon="5.88562">
        <ele>280</ele>
        <time>2000-01-01T12:46:49.000Z</time>
      </trkpt>
      <trkpt lat="47.23011" lon="5.88568">
        <ele>280.9</ele>
        <time>2000-01-01T12:46:59.000Z</time>
      </trkpt>
      <trkpt lat="47.23002" lon="5.88573">
        <ele>280</ele>
        <time>2000-01-01T12:47:09.000Z</time>
      </trkpt>
      <trkpt lat="47.22981" lon="5.88584">
        <ele>280</ele>
        <time>2000-01-01T12:47:19.000Z</time>
      </trkpt>
      <trkpt lat="47.22971" lon="5.8859">
        <ele>280.5</ele>
        <time>2000-01-01T12:47:29.000Z</time>
      </trkpt>
      <trkpt lat="47.22947" lon="5.88609">
        <ele>280</ele>
        <time>2000-01-01T12:47:39.000Z</time>
      </trkpt>
      <trkpt lat="47.22938" lon="5.88615">
        <ele>279.2</ele>
        <time>2000-01-01T12:47:49.000Z</time>
      </trkpt>
      <trkpt lat="47.22928" lon="5.88622">
        <ele>277</ele>
        <time>2000-01-01T12:47:59.000Z</time>
      </trkpt>
      <trkpt lat="47.22913" lon="5.88635">
        <ele>274.6</ele>
        <time>2000-01-01T12:48:09.000Z</time>
      </trkpt>
      <trkpt lat="47.22908" lon="5.88639">
        <ele>277</ele>
        <time>2000-01-01T12:48:19.000Z</time>
      </trkpt>
      <trkpt lat="47.22902" lon="5.88644">
        <ele>274.6</ele>
        <time>2000-01-01T12:48:29.000Z</time>
      </trkpt>
      <trkpt lat="47.22888" lon="5.88655">
        <ele>277</ele>
        <time>2000-01-01T12:48:39.000Z</time>
      </trkpt>
      <trkpt lat="47.22881" lon="5.88661">
        <ele>277</ele>
        <time>2000-01-01T12:48:49.000Z</time>
      </trkpt>
      <trkpt lat="47.22877" lon="5.88664">
        <ele>277.3</ele>
        <time>2000-01-01T12:48:59.000Z</time>
      </trkpt>
      <trkpt lat="47.22865" lon="5.8867">
        <ele>277</ele>
        <time>2000-01-01T12:49:09.000Z</time>
      </trkpt>
      <trkpt lat="47.22832" lon="5.88697">
        <ele>276</ele>
        <time>2000-01-01T12:49:19.000Z</time>
      </trkpt>
      <trkpt lat="47.22809" lon="5.88715">
        <ele>272</ele>
        <time>2000-01-01T12:49:29.000Z</time>
      </trkpt>
      <trkpt lat="47.22803" lon="5.88721">
        <ele>272</ele>
        <time>2000-01-01T12:49:39.000Z</time>
      </trkpt>
      <trkpt lat="47.22776" lon="5.88746">
        <ele>272</ele>
        <time>2000-01-01T12:49:49.000Z</time>
      </trkpt>
      <trkpt lat="47.22756" lon="5.88764">
        <ele>274</ele>
        <time>2000-01-01T12:49:59.000Z</time>
      </trkpt>
      <trkpt lat="47.22735" lon="5.88783">
        <ele>277</ele>
        <time>2000-01-01T12:50:09.000Z</time>
      </trkpt>
      <trkpt lat="47.22715" lon="5.88805">
        <ele>280</ele>
        <time>2000-01-01T12:50:19.000Z</time>
      </trkpt>
      <trkpt lat="47.22691" lon="5.88831">
        <ele>280</ele>
        <time>2000-01-01T12:50:29.000Z</time>
      </trkpt>
      <trkpt lat="47.22673" lon="5.88855">
        <ele>280</ele>
        <time>2000-01-01T12:50:39.000Z</time>
      </trkpt>
      <trkpt lat="47.22653" lon="5.88881">
        <ele>279</ele>
        <time>2000-01-01T12:50:49.000Z</time>
      </trkpt>
      <trkpt lat="47.22641" lon="5.88891">
        <ele>278.8</ele>
        <time>2000-01-01T12:50:59.000Z</time>
      </trkpt>
      <trkpt lat="47.2263" lon="5.88895">
        <ele>279</ele>
        <time>2000-01-01T12:51:09.000Z</time>
      </trkpt>
      <trkpt lat="47.22585" lon="5.88905">
        <ele>282</ele>
        <time>2000-01-01T12:51:19.000Z</time>
      </trkpt>
      <trkpt lat="47.22565" lon="5.88944">
        <ele>286</ele>
        <time>2000-01-01T12:51:29.000Z</time>
      </trkpt>
      <trkpt lat="47.22563" lon="5.88944">
        <ele>287.2</ele>
        <time>2000-01-01T12:51:39.000Z</time>
      </trkpt>
      <trkpt lat="47.22561" lon="5.88943">
        <ele>287.3</ele>
        <time>2000-01-01T12:51:49.000Z</time>
      </trkpt>
      <trkpt lat="47.22558" lon="5.88941">
        <ele>287.6</ele>
        <time>2000-01-01T12:51:59.000Z</time>
      </trkpt>
      <trkpt lat="47.22556" lon="5.88949">
        <ele>288.1</ele>
        <time>2000-01-01T12:52:09.000Z</time>
      </trkpt>
      <trkpt lat="47.22552" lon="5.88958">
        <ele>288</ele>
        <time>2000-01-01T12:52:19.000Z</time>
      </trkpt>
      <trkpt lat="47.22547" lon="5.88966">
        <ele>290</ele>
        <time>2000-01-01T12:52:29.000Z</time>
      </trkpt>
      <trkpt lat="47.22541" lon="5.88975">
        <ele>291.2</ele>
        <time>2000-01-01T12:52:39.000Z</time>
      </trkpt>
      <trkpt lat="47.22534" lon="5.88983">
        <ele>292</ele>
        <time>2000-01-01T12:52:49.000Z</time>
      </trkpt>
      <trkpt lat="47.22527" lon="5.8899">
        <ele>293.7</ele>
        <time>2000-01-01T12:52:59.000Z</time>
      </trkpt>
      <trkpt lat="47.22513" lon="5.89008">
        <ele>294</ele>
        <time>2000-01-01T12:53:09.000Z</time>
      </trkpt>
      <trkpt lat="47.22502" lon="5.89024">
        <ele>296.8</ele>
        <time>2000-01-01T12:53:19.000Z</time>
      </trkpt>
      <trkpt lat="47.22494" lon="5.89032">
        <ele>297</ele>
        <time>2000-01-01T12:53:29.000Z</time>
      </trkpt>
      <trkpt lat="47.22483" lon="5.89039">
        <ele>297.8</ele>
        <time>2000-01-01T12:53:39.000Z</time>
      </trkpt>
      <trkpt lat="47.22475" lon="5.89043">
        <ele>297</ele>
        <time>2000-01-01T12:53:49.000Z</time>
      </trkpt>
      <trkpt lat="47.22468" lon="5.89047">
        <ele>297.7</ele>
        <time>2000-01-01T12:53:59.000Z</time>
      </trkpt>
      <trkpt lat="47.22461" lon="5.89017">
        <ele>297</ele>
        <time>2000-01-01T12:54:09.000Z</time>
      </trkpt>
      <trkpt lat="47.22454" lon="5.88979">
        <ele>297</ele>
        <time>2000-01-01T12:54:19.000Z</time>
      </trkpt>
      <trkpt lat="47.22442" lon="5.88945">
        <ele>297</ele>
        <time>2000-01-01T12:54:29.000Z</time>
      </trkpt>
      <trkpt lat="47.22438" lon="5.88929">
        <ele>296.7</ele>
        <time>2000-01-01T12:54:39.000Z</time>
      </trkpt>
      <trkpt lat="47.22435" lon="5.8892">
        <ele>296</ele>
        <time>2000-01-01T12:54:49.000Z</time>
      </trkpt>
      <trkpt lat="47.22429" lon="5.889">
        <ele>296.5</ele>
        <time>2000-01-01T12:54:59.000Z</time>
      </trkpt>
      <trkpt lat="47.22425" lon="5.88887">
        <ele>296</ele>
        <time>2000-01-01T12:55:09.000Z</time>
      </trkpt>
      <trkpt lat="47.22417" lon="5.88876">
        <ele>296.5</ele>
        <time>2000-01-01T12:55:19.000Z</time>
      </trkpt>
      <trkpt lat="47.22406" lon="5.88862">
        <ele>297</ele>
        <time>2000-01-01T12:55:29.000Z</time>
      </trkpt>
      <trkpt lat="47.22387" lon="5.8884">
        <ele>298</ele>
        <time>2000-01-01T12:55:39.000Z</time>
      </trkpt>
      <trkpt lat="47.22368" lon="5.88824">
        <ele>299</ele>
        <time>2000-01-01T12:55:49.000Z</time>
      </trkpt>
      <trkpt lat="47.22355" lon="5.88818">
        <ele>300.1</ele>
        <time>2000-01-01T12:55:59.000Z</time>
      </trkpt>
      <trkpt lat="47.22342" lon="5.88812">
        <ele>300</ele>
        <time>2000-01-01T12:56:09.000Z</time>
      </trkpt>
      <trkpt lat="47.22336" lon="5.88807">
        <ele>300.9</ele>
        <time>2000-01-01T12:56:19.000Z</time>
      </trkpt>
      <trkpt lat="47.22324" lon="5.88793">
        <ele>302</ele>
        <time>2000-01-01T12:56:29.000Z</time>
      </trkpt>
      <trkpt lat="47.22314" lon="5.88773">
        <ele>303.6</ele>
        <time>2000-01-01T12:56:39.000Z</time>
      </trkpt>
      <trkpt lat="47.2231" lon="5.88764">
        <ele>303</ele>
        <time>2000-01-01T12:56:49.000Z</time>
      </trkpt>
      <trkpt lat="47.22304" lon="5.88755">
        <ele>304.5</ele>
        <time>2000-01-01T12:56:59.000Z</time>
      </trkpt>
      <trkpt lat="47.22288" lon="5.88712">
        <ele>303</ele>
        <time>2000-01-01T12:57:09.000Z</time>
      </trkpt>
      <trkpt lat="47.2228" lon="5.8871">
        <ele>306</ele>
        <time>2000-01-01T12:57:19.000Z</time>
      </trkpt>
      <trkpt lat="47.22271" lon="5.88704">
        <ele>305.5</ele>
        <time>2000-01-01T12:57:29.000Z</time>
      </trkpt>
      <trkpt lat="47.22256" lon="5.88692">
        <ele>303</ele>
        <time>2000-01-01T12:57:39.000Z</time>
      </trkpt>
      <trkpt lat="47.2224" lon="5.8868">
        <ele>304.5</ele>
        <time>2000-01-01T12:57:49.000Z</time>
      </trkpt>
      <trkpt lat="47.22214" lon="5.88669">
        <ele>303</ele>
        <time>2000-01-01T12:57:59.000Z</time>
      </trkpt>
      <trkpt lat="47.22201" lon="5.88663">
        <ele>302.1</ele>
        <time>2000-01-01T12:58:09.000Z</time>
      </trkpt>
      <trkpt lat="47.22187" lon="5.88657">
        <ele>301</ele>
        <time>2000-01-01T12:58:19.000Z</time>
      </trkpt>
      <trkpt lat="47.22177" lon="5.88651">
        <ele>300.9</ele>
        <time>2000-01-01T12:58:29.000Z</time>
      </trkpt>
      <trkpt lat="47.22168" lon="5.88647">
        <ele>300</ele>
        <time>2000-01-01T12:58:39.000Z</time>
      </trkpt>
      <trkpt lat="47.22156" lon="5.88643">
        <ele>300.1</ele>
        <time>2000-01-01T12:58:49.000Z</time>
      </trkpt>
      <trkpt lat="47.22143" lon="5.8864">
        <ele>299</ele>
        <time>2000-01-01T12:58:59.000Z</time>
      </trkpt>
      <trkpt lat="47.22133" lon="5.88638">
        <ele>298.7</ele>
        <time>2000-01-01T12:59:09.000Z</time>
      </trkpt>
      <trkpt lat="47.22125" lon="5.88637">
        <ele>299</ele>
        <time>2000-01-01T12:59:19.000Z</time>
      </trkpt>
      <trkpt lat="47.22117" lon="5.88633">
        <ele>298.3</ele>
        <time>2000-01-01T12:59:29.000Z</time>
      </trkpt>
      <trkpt lat="47.22106" lon="5.8863">
        <ele>299</ele>
        <time>2000-01-01T12:59:39.000Z</time>
      </trkpt>
      <trkpt lat="47.22099" lon="5.88623">
        <ele>298.8</ele>
        <time>2000-01-01T12:59:49.000Z</time>
      </trkpt>
      <trkpt lat="47.22094" lon="5.88617">
        <ele>299.2</ele>
        <time>2000-01-01T12:59:59.000Z</time>
      </trkpt>
      <trkpt lat="47.22077" lon="5.88592">
        <ele>299</ele>
        <time>2000-01-01T13:00:09.000Z</time>
      </trkpt>
      <trkpt lat="47.22073" lon="5.88586">
        <ele>300.1</ele>
        <time>2000-01-01T13:00:19.000Z</time>
      </trkpt>
      <trkpt lat="47.22039" lon="5.88544">
        <ele>299</ele>
        <time>2000-01-01T13:00:29.000Z</time>
      </trkpt>
      <trkpt lat="47.22006" lon="5.88508">
        <ele>299</ele>
        <time>2000-01-01T13:00:39.000Z</time>
      </trkpt>
      <trkpt lat="47.21996" lon="5.88497">
        <ele>300</ele>
        <time>2000-01-01T13:00:49.000Z</time>
      </trkpt>
      <trkpt lat="47.21957" lon="5.88457">
        <ele>299</ele>
        <time>2000-01-01T13:00:59.000Z</time>
      </trkpt>
      <trkpt lat="47.21933" lon="5.88431">
        <ele>299</ele>
        <time>2000-01-01T13:01:09.000Z</time>
      </trkpt>
      <trkpt lat="47.21932" lon="5.88434">
        <ele>299.1</ele>
        <time>2000-01-01T13:01:19.000Z</time>
      </trkpt>
      <trkpt lat="47.21931" lon="5.88433">
        <ele>299.1</ele>
        <time>2000-01-01T13:01:29.000Z</time>
      </trkpt>
      <trkpt lat="47.21908" lon="5.8848">
        <ele>294</ele>
        <time>2000-01-01T13:01:39.000Z</time>
      </trkpt>
      <trkpt lat="47.21884" lon="5.88527">
        <ele>290</ele>
        <time>2000-01-01T13:01:49.000Z</time>
      </trkpt>
      <trkpt lat="47.21861" lon="5.88574">
        <ele>286</ele>
        <time>2000-01-01T13:01:59.000Z</time>
      </trkpt>
      <trkpt lat="47.21838" lon="5.88621">
        <ele>282</ele>
        <time>2000-01-01T13:02:09.000Z</time>
      </trkpt>
      <trkpt lat="47.21814" lon="5.88668">
        <ele>279</ele>
        <time>2000-01-01T13:02:19.000Z</time>
      </trkpt>
      <trkpt lat="47.21791" lon="5.88715">
        <ele>278</ele>
        <time>2000-01-01T13:02:29.000Z</time>
      </trkpt>
      <trkpt lat="47.21776" lon="5.88745">
        <ele>278</ele>
        <time>2000-01-01T13:02:39.000Z</time>
      </trkpt>
      <trkpt lat="47.21759" lon="5.8878">
        <ele>278</ele>
        <time>2000-01-01T13:02:49.000Z</time>
      </trkpt>
      <trkpt lat="47.21757" lon="5.88779">
        <ele>278.3</ele>
        <time>2000-01-01T13:02:59.000Z</time>
      </trkpt>
      <trkpt lat="47.21755" lon="5.88779">
        <ele>278.2</ele>
        <time>2000-01-01T13:03:09.000Z</time>
      </trkpt>
      <trkpt lat="47.21724" lon="5.88769">
        <ele>277</ele>
        <time>2000-01-01T13:03:19.000Z</time>
      </trkpt>
      <trkpt lat="47.21717" lon="5.88767">
        <ele>277.5</ele>
        <time>2000-01-01T13:03:29.000Z</time>
      </trkpt>
      <trkpt lat="47.21712" lon="5.88766">
        <ele>277.4</ele>
        <time>2000-01-01T13:03:39.000Z</time>
      </trkpt>
      <trkpt lat="47.21675" lon="5.88756">
        <ele>277</ele>
        <time>2000-01-01T13:03:49.000Z</time>
      </trkpt>
      <trkpt lat="47.21659" lon="5.88753">
        <ele>277</ele>
        <time>2000-01-01T13:03:59.000Z</time>
      </trkpt>
      <trkpt lat="47.21644" lon="5.88754">
        <ele>276</ele>
        <time>2000-01-01T13:04:09.000Z</time>
      </trkpt>
      <trkpt lat="47.21632" lon="5.88752">
        <ele>276.9</ele>
        <time>2000-01-01T13:04:19.000Z</time>
      </trkpt>
      <trkpt lat="47.21625" lon="5.88752">
        <ele>276</ele>
        <time>2000-01-01T13:04:29.000Z</time>
      </trkpt>
      <trkpt lat="47.21595" lon="5.8877">
        <ele>276</ele>
        <time>2000-01-01T13:04:39.000Z</time>
      </trkpt>
      <trkpt lat="47.21566" lon="5.88788">
        <ele>276</ele>
        <time>2000-01-01T13:04:49.000Z</time>
      </trkpt>
      <trkpt lat="47.21525" lon="5.88812">
        <ele>277</ele>
        <time>2000-01-01T13:04:59.000Z</time>
      </trkpt>
      <trkpt lat="47.21508" lon="5.88824">
        <ele>277</ele>
        <time>2000-01-01T13:05:09.000Z</time>
      </trkpt>
      <trkpt lat="47.21488" lon="5.88837">
        <ele>277</ele>
        <time>2000-01-01T13:05:19.000Z</time>
      </trkpt>
      <trkpt lat="47.21455" lon="5.88865">
        <ele>276</ele>
        <time>2000-01-01T13:05:29.000Z</time>
      </trkpt>
      <trkpt lat="47.21442" lon="5.88876">
        <ele>276.4</ele>
        <time>2000-01-01T13:05:39.000Z</time>
      </trkpt>
      <trkpt lat="47.21437" lon="5.88894">
        <ele>275</ele>
        <time>2000-01-01T13:05:49.000Z</time>
      </trkpt>
      <trkpt lat="47.2143" lon="5.88917">
        <ele>275.5</ele>
        <time>2000-01-01T13:05:59.000Z</time>
      </trkpt>
      <trkpt lat="47.21417" lon="5.88943">
        <ele>274</ele>
        <time>2000-01-01T13:06:09.000Z</time>
      </trkpt>
      <trkpt lat="47.21404" lon="5.8896">
        <ele>273.3</ele>
        <time>2000-01-01T13:06:19.000Z</time>
      </trkpt>
      <trkpt lat="47.21388" lon="5.88975">
        <ele>271</ele>
        <time>2000-01-01T13:06:29.000Z</time>
      </trkpt>
      <trkpt lat="47.21373" lon="5.88989">
        <ele>270.6</ele>
        <time>2000-01-01T13:06:39.000Z</time>
      </trkpt>
      <trkpt lat="47.21345" lon="5.89008">
        <ele>268</ele>
        <time>2000-01-01T13:06:49.000Z</time>
      </trkpt>
      <trkpt lat="47.21323" lon="5.89022">
        <ele>266</ele>
        <time>2000-01-01T13:06:59.000Z</time>
      </trkpt>
      <trkpt lat="47.21301" lon="5.89033">
        <ele>264</ele>
        <time>2000-01-01T13:07:09.000Z</time>
      </trkpt>
      <trkpt lat="47.21284" lon="5.89034">
        <ele>263.4</ele>
        <time>2000-01-01T13:07:19.000Z</time>
      </trkpt>
      <trkpt lat="47.21282" lon="5.89029">
        <ele>269</ele>
        <time>2000-01-01T13:07:29.000Z</time>
      </trkpt>
      <trkpt lat="47.21282" lon="5.8903">
        <ele>263.3</ele>
        <time>2000-01-01T13:07:39.000Z</time>
      </trkpt>
      <trkpt lat="47.21056" lon="5.88344">
        <ele>275</ele>
        <time>2000-01-01T13:07:49.000Z</time>
      </trkpt>
      <trkpt lat="47.21035" lon="5.88336">
        <ele>275</ele>
        <time>2000-01-01T13:07:59.000Z</time>
      </trkpt>
      <trkpt lat="47.21033" lon="5.88329">
        <ele>275.6</ele>
        <time>2000-01-01T13:08:09.000Z</time>
      </trkpt>
      <trkpt lat="47.21025" lon="5.88324">
        <ele>275.8</ele>
        <time>2000-01-01T13:08:19.000Z</time>
      </trkpt>
      <trkpt lat="47.20987" lon="5.88292">
        <ele>279</ele>
        <time>2000-01-01T13:08:29.000Z</time>
      </trkpt>
      <trkpt lat="47.20966" lon="5.88274">
        <ele>280</ele>
        <time>2000-01-01T13:08:39.000Z</time>
      </trkpt>
      <trkpt lat="47.20942" lon="5.88252">
        <ele>281</ele>
        <time>2000-01-01T13:08:49.000Z</time>
      </trkpt>
      <trkpt lat="47.20931" lon="5.88246">
        <ele>281.1</ele>
        <time>2000-01-01T13:08:59.000Z</time>
      </trkpt>
      <trkpt lat="47.20922" lon="5.88245">
        <ele>281</ele>
        <time>2000-01-01T13:09:09.000Z</time>
      </trkpt>
      <trkpt lat="47.2091" lon="5.88242">
        <ele>281</ele>
        <time>2000-01-01T13:09:19.000Z</time>
      </trkpt>
      <trkpt lat="47.20856" lon="5.88233">
        <ele>278</ele>
        <time>2000-01-01T13:09:29.000Z</time>
      </trkpt>
      <trkpt lat="47.20824" lon="5.88227">
        <ele>277</ele>
        <time>2000-01-01T13:09:39.000Z</time>
      </trkpt>
      <trkpt lat="47.20793" lon="5.88221">
        <ele>275</ele>
        <time>2000-01-01T13:09:49.000Z</time>
      </trkpt>
      <trkpt lat="47.20752" lon="5.88213">
        <ele>274</ele>
        <time>2000-01-01T13:09:59.000Z</time>
      </trkpt>
      <trkpt lat="47.20739" lon="5.88212">
        <ele>272.7</ele>
        <time>2000-01-01T13:10:09.000Z</time>
      </trkpt>
      <trkpt lat="47.20733" lon="5.88212">
        <ele>273</ele>
        <time>2000-01-01T13:10:19.000Z</time>
      </trkpt>
      <trkpt lat="47.20726" lon="5.88213">
        <ele>271.1</ele>
        <time>2000-01-01T13:10:29.000Z</time>
      </trkpt>
      <trkpt lat="47.20726" lon="5.88199">
        <ele>272</ele>
        <time>2000-01-01T13:10:39.000Z</time>
      </trkpt>
      <trkpt lat="47.20724" lon="5.88182">
        <ele>271</ele>
        <time>2000-01-01T13:10:49.000Z</time>
      </trkpt>
      <trkpt lat="47.20719" lon="5.8817">
        <ele>271.3</ele>
        <time>2000-01-01T13:10:59.000Z</time>
      </trkpt>
      <trkpt lat="47.20718" lon="5.88165">
        <ele>271.1</ele>
        <time>2000-01-01T13:11:09.000Z</time>
      </trkpt>
      <trkpt lat="47.20708" lon="5.88116">
        <ele>269</ele>
        <time>2000-01-01T13:11:19.000Z</time>
      </trkpt>
      <trkpt lat="47.20705" lon="5.88102">
        <ele>269.1</ele>
        <time>2000-01-01T13:11:29.000Z</time>
      </trkpt>
      <trkpt lat="47.20702" lon="5.88082">
        <ele>269</ele>
        <time>2000-01-01T13:11:39.000Z</time>
      </trkpt>
      <trkpt lat="47.20694" lon="5.88041">
        <ele>269</ele>
        <time>2000-01-01T13:11:49.000Z</time>
      </trkpt>
      <trkpt lat="47.20687" lon="5.88011">
        <ele>269</ele>
        <time>2000-01-01T13:11:59.000Z</time>
      </trkpt>
      <trkpt lat="47.20676" lon="5.87977">
        <ele>269</ele>
        <time>2000-01-01T13:12:09.000Z</time>
      </trkpt>
      <trkpt lat="47.20661" lon="5.87934">
        <ele>269</ele>
        <time>2000-01-01T13:12:19.000Z</time>
      </trkpt>
      <trkpt lat="47.20651" lon="5.87901">
        <ele>268</ele>
        <time>2000-01-01T13:12:29.000Z</time>
      </trkpt>
      <trkpt lat="47.20639" lon="5.87865">
        <ele>266</ele>
        <time>2000-01-01T13:12:39.000Z</time>
      </trkpt>
      <trkpt lat="47.20629" lon="5.87821">
        <ele>265</ele>
        <time>2000-01-01T13:12:49.000Z</time>
      </trkpt>
      <trkpt lat="47.20625" lon="5.87796">
        <ele>265.7</ele>
        <time>2000-01-01T13:12:59.000Z</time>
      </trkpt>
      <trkpt lat="47.20626" lon="5.87776">
        <ele>265</ele>
        <time>2000-01-01T13:13:09.000Z</time>
      </trkpt>
      <trkpt lat="47.20628" lon="5.87742">
        <ele>264</ele>
        <time>2000-01-01T13:13:19.000Z</time>
      </trkpt>
      <trkpt lat="47.2063" lon="5.87707">
        <ele>264</ele>
        <time>2000-01-01T13:13:29.000Z</time>
      </trkpt>
      <trkpt lat="47.20632" lon="5.87672">
        <ele>266</ele>
        <time>2000-01-01T13:13:39.000Z</time>
      </trkpt>
      <trkpt lat="47.20634" lon="5.87633">
        <ele>268</ele>
        <time>2000-01-01T13:13:49.000Z</time>
      </trkpt>
      <trkpt lat="47.20638" lon="5.87599">
        <ele>270</ele>
        <time>2000-01-01T13:13:59.000Z</time>
      </trkpt>
      <trkpt lat="47.20643" lon="5.87566">
        <ele>270</ele>
        <time>2000-01-01T13:14:09.000Z</time>
      </trkpt>
      <trkpt lat="47.20645" lon="5.87538">
        <ele>269</ele>
        <time>2000-01-01T13:14:19.000Z</time>
      </trkpt>
      <trkpt lat="47.20644" lon="5.87504">
        <ele>268</ele>
        <time>2000-01-01T13:14:29.000Z</time>
      </trkpt>
      <trkpt lat="47.20644" lon="5.87493">
        <ele>267.7</ele>
        <time>2000-01-01T13:14:39.000Z</time>
      </trkpt>
      <trkpt lat="47.20642" lon="5.87483">
        <ele>267.4</ele>
        <time>2000-01-01T13:14:49.000Z</time>
      </trkpt>
      <trkpt lat="47.20641" lon="5.87474">
        <ele>266</ele>
        <time>2000-01-01T13:14:59.000Z</time>
      </trkpt>
      <trkpt lat="47.20638" lon="5.87464">
        <ele>266.7</ele>
        <time>2000-01-01T13:15:09.000Z</time>
      </trkpt>
      <trkpt lat="47.20636" lon="5.87456">
        <ele>266.4</ele>
        <time>2000-01-01T13:15:19.000Z</time>
      </trkpt>
      <trkpt lat="47.20634" lon="5.87446">
        <ele>265</ele>
        <time>2000-01-01T13:15:29.000Z</time>
      </trkpt>
      <trkpt lat="47.20632" lon="5.87432">
        <ele>265.3</ele>
        <time>2000-01-01T13:15:39.000Z</time>
      </trkpt>
      <trkpt lat="47.2063" lon="5.87417">
        <ele>265</ele>
        <time>2000-01-01T13:15:49.000Z</time>
      </trkpt>
      <trkpt lat="47.2063" lon="5.87404">
        <ele>264.8</ele>
        <time>2000-01-01T13:15:59.000Z</time>
      </trkpt>
      <trkpt lat="47.20629" lon="5.87396">
        <ele>264.9</ele>
        <time>2000-01-01T13:16:09.000Z</time>
      </trkpt>
      <trkpt lat="47.20626" lon="5.87386">
        <ele>265</ele>
        <time>2000-01-01T13:16:19.000Z</time>
      </trkpt>
      <trkpt lat="47.20622" lon="5.87378">
        <ele>265.2</ele>
        <time>2000-01-01T13:16:29.000Z</time>
      </trkpt>
      <trkpt lat="47.20616" lon="5.87371">
        <ele>265.1</ele>
        <time>2000-01-01T13:16:39.000Z</time>
      </trkpt>
      <trkpt lat="47.20608" lon="5.87363">
        <ele>265</ele>
        <time>2000-01-01T13:16:49.000Z</time>
      </trkpt>
      <trkpt lat="47.20605" lon="5.87361">
        <ele>264.8</ele>
        <time>2000-01-01T13:16:59.000Z</time>
      </trkpt>
      <trkpt lat="47.20596" lon="5.87353">
        <ele>264.7</ele>
        <time>2000-01-01T13:17:09.000Z</time>
      </trkpt>
      <trkpt lat="47.20584" lon="5.87345">
        <ele>264</ele>
        <time>2000-01-01T13:17:19.000Z</time>
      </trkpt>
      <trkpt lat="47.20553" lon="5.87328">
        <ele>263</ele>
        <time>2000-01-01T13:17:29.000Z</time>
      </trkpt>
      <trkpt lat="47.20548" lon="5.87325">
        <ele>263.7</ele>
        <time>2000-01-01T13:17:39.000Z</time>
      </trkpt>
      <trkpt lat="47.2054" lon="5.87322">
        <ele>263.1</ele>
        <time>2000-01-01T13:17:49.000Z</time>
      </trkpt>
      <trkpt lat="47.20534" lon="5.87316">
        <ele>262</ele>
        <time>2000-01-01T13:17:59.000Z</time>
      </trkpt>
      <trkpt lat="47.2053" lon="5.87314">
        <ele>262.2</ele>
        <time>2000-01-01T13:18:09.000Z</time>
      </trkpt>
      <trkpt lat="47.20514" lon="5.873">
        <ele>260</ele>
        <time>2000-01-01T13:18:19.000Z</time>
      </trkpt>
      <trkpt lat="47.20498" lon="5.87283">
        <ele>259</ele>
        <time>2000-01-01T13:18:29.000Z</time>
      </trkpt>
      <trkpt lat="47.20487" lon="5.87272">
        <ele>259.6</ele>
        <time>2000-01-01T13:18:39.000Z</time>
      </trkpt>
      <trkpt lat="47.20466" lon="5.87249">
        <ele>258</ele>
        <time>2000-01-01T13:18:49.000Z</time>
      </trkpt>
      <trkpt lat="47.2045" lon="5.8723">
        <ele>258</ele>
        <time>2000-01-01T13:18:59.000Z</time>
      </trkpt>
      <trkpt lat="47.20447" lon="5.87239">
        <ele>258.6</ele>
        <time>2000-01-01T13:19:09.000Z</time>
      </trkpt>
      <trkpt lat="47.20435" lon="5.87258">
        <ele>258</ele>
        <time>2000-01-01T13:19:19.000Z</time>
      </trkpt>
      <trkpt lat="47.20418" lon="5.87276">
        <ele>258</ele>
        <time>2000-01-01T13:19:29.000Z</time>
      </trkpt>
      <trkpt lat="47.20413" lon="5.8728">
        <ele>259.2</ele>
        <time>2000-01-01T13:19:39.000Z</time>
      </trkpt>
      <trkpt lat="47.20377" lon="5.87312">
        <ele>263</ele>
        <time>2000-01-01T13:19:49.000Z</time>
      </trkpt>
      <trkpt lat="47.20364" lon="5.87322">
        <ele>264.7</ele>
        <time>2000-01-01T13:19:59.000Z</time>
      </trkpt>
      <trkpt lat="47.20356" lon="5.87328">
        <ele>263</ele>
        <time>2000-01-01T13:20:09.000Z</time>
      </trkpt>
      <trkpt lat="47.20352" lon="5.87331">
        <ele>264.1</ele>
        <time>2000-01-01T13:20:19.000Z</time>
      </trkpt>
      <trkpt lat="47.2033" lon="5.87349">
        <ele>263</ele>
        <time>2000-01-01T13:20:29.000Z</time>
      </trkpt>
      <trkpt lat="47.20305" lon="5.87371">
        <ele>263</ele>
        <time>2000-01-01T13:20:39.000Z</time>
      </trkpt>
      <trkpt lat="47.20295" lon="5.8738">
        <ele>263.4</ele>
        <time>2000-01-01T13:20:49.000Z</time>
      </trkpt>
      <trkpt lat="47.20277" lon="5.87391">
        <ele>264</ele>
        <time>2000-01-01T13:20:59.000Z</time>
      </trkpt>
      <trkpt lat="47.20261" lon="5.87398">
        <ele>264.6</ele>
        <time>2000-01-01T13:21:09.000Z</time>
      </trkpt>
      <trkpt lat="47.20247" lon="5.874">
        <ele>265</ele>
        <time>2000-01-01T13:21:19.000Z</time>
      </trkpt>
      <trkpt lat="47.2023" lon="5.874">
        <ele>265.7</ele>
        <time>2000-01-01T13:21:29.000Z</time>
      </trkpt>
      <trkpt lat="47.20205" lon="5.87396">
        <ele>267</ele>
        <time>2000-01-01T13:21:39.000Z</time>
      </trkpt>
      <trkpt lat="47.20201" lon="5.87395">
        <ele>266.9</ele>
        <time>2000-01-01T13:21:49.000Z</time>
      </trkpt>
      <trkpt lat="47.20173" lon="5.87387">
        <ele>268</ele>
        <time>2000-01-01T13:21:59.000Z</time>
      </trkpt>
      <trkpt lat="47.2016" lon="5.87385">
        <ele>268.4</ele>
        <time>2000-01-01T13:22:09.000Z</time>
      </trkpt>
      <trkpt lat="47.20156" lon="5.87385">
        <ele>268.5</ele>
        <time>2000-01-01T13:22:19.000Z</time>
      </trkpt>
      <trkpt lat="47.20149" lon="5.87385">
        <ele>268</ele>
        <time>2000-01-01T13:22:29.000Z</time>
      </trkpt>
      <trkpt lat="47.20136" lon="5.87388">
        <ele>268.9</ele>
        <time>2000-01-01T13:22:39.000Z</time>
      </trkpt>
      <trkpt lat="47.20111" lon="5.87399">
        <ele>269</ele>
        <time>2000-01-01T13:22:49.000Z</time>
      </trkpt>
      <trkpt lat="47.20076" lon="5.87422">
        <ele>267</ele>
        <time>2000-01-01T13:22:59.000Z</time>
      </trkpt>
      <trkpt lat="47.2004" lon="5.87445">
        <ele>268</ele>
        <time>2000-01-01T13:23:09.000Z</time>
      </trkpt>
      <trkpt lat="47.20005" lon="5.87467">
        <ele>269</ele>
        <time>2000-01-01T13:23:19.000Z</time>
      </trkpt>
      <trkpt lat="47.1997" lon="5.8749">
        <ele>271</ele>
        <time>2000-01-01T13:23:29.000Z</time>
      </trkpt>
      <trkpt lat="47.1996" lon="5.87496">
        <ele>272</ele>
        <time>2000-01-01T13:23:39.000Z</time>
      </trkpt>
      <trkpt lat="47.19941" lon="5.87509">
        <ele>272</ele>
        <time>2000-01-01T13:23:49.000Z</time>
      </trkpt>
      <trkpt lat="47.19906" lon="5.87531">
        <ele>275</ele>
        <time>2000-01-01T13:23:59.000Z</time>
      </trkpt>
      <trkpt lat="47.19871" lon="5.87553">
        <ele>275</ele>
        <time>2000-01-01T13:24:09.000Z</time>
      </trkpt>
      <trkpt lat="47.1983" lon="5.87574">
        <ele>276</ele>
        <time>2000-01-01T13:24:19.000Z</time>
      </trkpt>
      <trkpt lat="47.19827" lon="5.87557">
        <ele>276.9</ele>
        <time>2000-01-01T13:24:29.000Z</time>
      </trkpt>
      <trkpt lat="47.19823" lon="5.87546">
        <ele>277</ele>
        <time>2000-01-01T13:24:39.000Z</time>
      </trkpt>
      <trkpt lat="47.19821" lon="5.87542">
        <ele>277.7</ele>
        <time>2000-01-01T13:24:49.000Z</time>
      </trkpt>
      <trkpt lat="47.1982" lon="5.8754">
        <ele>277.8</ele>
        <time>2000-01-01T13:24:59.000Z</time>
      </trkpt>
      <trkpt lat="47.19796" lon="5.87494">
        <ele>279</ele>
        <time>2000-01-01T13:25:09.000Z</time>
      </trkpt>
      <trkpt lat="47.19771" lon="5.87448">
        <ele>279</ele>
        <time>2000-01-01T13:25:19.000Z</time>
      </trkpt>
      <trkpt lat="47.19747" lon="5.87402">
        <ele>279</ele>
        <time>2000-01-01T13:25:29.000Z</time>
      </trkpt>
      <trkpt lat="47.19722" lon="5.87355">
        <ele>279</ele>
        <time>2000-01-01T13:25:39.000Z</time>
      </trkpt>
      <trkpt lat="47.19698" lon="5.87309">
        <ele>278</ele>
        <time>2000-01-01T13:25:49.000Z</time>
      </trkpt>
      <trkpt lat="47.19673" lon="5.87263">
        <ele>277</ele>
        <time>2000-01-01T13:25:59.000Z</time>
      </trkpt>
      <trkpt lat="47.19657" lon="5.87233">
        <ele>276</ele>
        <time>2000-01-01T13:26:09.000Z</time>
      </trkpt>
      <trkpt lat="47.19637" lon="5.87196">
        <ele>275</ele>
        <time>2000-01-01T13:26:19.000Z</time>
      </trkpt>
      <trkpt lat="47.19637" lon="5.87195">
        <ele>275.9</ele>
        <time>2000-01-01T13:26:29.000Z</time>
      </trkpt>
      <trkpt lat="47.19635" lon="5.87186">
        <ele>275.6</ele>
        <time>2000-01-01T13:26:39.000Z</time>
      </trkpt>
      <trkpt lat="47.19634" lon="5.87181">
        <ele>275.4</ele>
        <time>2000-01-01T13:26:49.000Z</time>
      </trkpt>
      <trkpt lat="47.19634" lon="5.87176">
        <ele>275.3</ele>
        <time>2000-01-01T13:26:59.000Z</time>
      </trkpt>
      <trkpt lat="47.19634" lon="5.87171">
        <ele>275.1</ele>
        <time>2000-01-01T13:27:09.000Z</time>
      </trkpt>
      <trkpt lat="47.19627" lon="5.87168">
        <ele>275</ele>
        <time>2000-01-01T13:27:19.000Z</time>
      </trkpt>
      <trkpt lat="47.19622" lon="5.87167">
        <ele>275</ele>
        <time>2000-01-01T13:27:29.000Z</time>
      </trkpt>
      <trkpt lat="47.19615" lon="5.8717">
        <ele>275</ele>
        <time>2000-01-01T13:27:39.000Z</time>
      </trkpt>
      <trkpt lat="47.19608" lon="5.87179">
        <ele>273</ele>
        <time>2000-01-01T13:27:49.000Z</time>
      </trkpt>
      <trkpt lat="47.19592" lon="5.87199">
        <ele>273</ele>
        <time>2000-01-01T13:27:59.000Z</time>
      </trkpt>
      <trkpt lat="47.19583" lon="5.87208">
        <ele>272.5</ele>
        <time>2000-01-01T13:28:09.000Z</time>
      </trkpt>
      <trkpt lat="47.19581" lon="5.87213">
        <ele>272</ele>
        <time>2000-01-01T13:28:19.000Z</time>
      </trkpt>
      <trkpt lat="47.19573" lon="5.87223">
        <ele>270</ele>
        <time>2000-01-01T13:28:29.000Z</time>
      </trkpt>
      <trkpt lat="47.19559" lon="5.87237">
        <ele>268</ele>
        <time>2000-01-01T13:28:39.000Z</time>
      </trkpt>
      <trkpt lat="47.19535" lon="5.87267">
        <ele>265</ele>
        <time>2000-01-01T13:28:49.000Z</time>
      </trkpt>
      <trkpt lat="47.19516" lon="5.87296">
        <ele>263</ele>
        <time>2000-01-01T13:28:59.000Z</time>
      </trkpt>
      <trkpt lat="47.19486" lon="5.87341">
        <ele>262</ele>
        <time>2000-01-01T13:29:09.000Z</time>
      </trkpt>
      <trkpt lat="47.19473" lon="5.87372">
        <ele>262</ele>
        <time>2000-01-01T13:29:19.000Z</time>
      </trkpt>
      <trkpt lat="47.19465" lon="5.87405">
        <ele>262</ele>
        <time>2000-01-01T13:29:29.000Z</time>
      </trkpt>
      <trkpt lat="47.19465" lon="5.87444">
        <ele>263</ele>
        <time>2000-01-01T13:29:39.000Z</time>
      </trkpt>
      <trkpt lat="47.19465" lon="5.87499">
        <ele>266</ele>
        <time>2000-01-01T13:29:49.000Z</time>
      </trkpt>
      <trkpt lat="47.19468" lon="5.87534">
        <ele>269</ele>
        <time>2000-01-01T13:29:59.000Z</time>
      </trkpt>
      <trkpt lat="47.19465" lon="5.87541">
        <ele>269.6</ele>
        <time>2000-01-01T13:30:09.000Z</time>
      </trkpt>
      <trkpt lat="47.19465" lon="5.87541">
        <ele>269.6</ele>
        <time>2000-01-01T13:30:19.000Z</time>
      </trkpt>
      <trkpt lat="47.19459" lon="5.87556">
        <ele>271.5</ele>
        <time>2000-01-01T13:30:29.000Z</time>
      </trkpt>
      <trkpt lat="47.19451" lon="5.87566">
        <ele>272</ele>
        <time>2000-01-01T13:30:39.000Z</time>
      </trkpt>
      <trkpt lat="47.19447" lon="5.87569">
        <ele>273.7</ele>
        <time>2000-01-01T13:30:49.000Z</time>
      </trkpt>
      <trkpt lat="47.19437" lon="5.87576">
        <ele>275.2</ele>
        <time>2000-01-01T13:30:59.000Z</time>
      </trkpt>
      <trkpt lat="47.1943" lon="5.87579">
        <ele>276</ele>
        <time>2000-01-01T13:31:09.000Z</time>
      </trkpt>
      <trkpt lat="47.19423" lon="5.87584">
        <ele>277.4</ele>
        <time>2000-01-01T13:31:19.000Z</time>
      </trkpt>
      <trkpt lat="47.19421" lon="5.87588">
        <ele>278</ele>
        <time>2000-01-01T13:31:29.000Z</time>
      </trkpt>
      <trkpt lat="47.19419" lon="5.87594">
        <ele>278.9</ele>
        <time>2000-01-01T13:31:39.000Z</time>
      </trkpt>
      <trkpt lat="47.19418" lon="5.87602">
        <ele>280</ele>
        <time>2000-01-01T13:31:49.000Z</time>
      </trkpt>
      <trkpt lat="47.1939" lon="5.8759">
        <ele>281</ele>
        <time>2000-01-01T13:31:59.000Z</time>
      </trkpt>
      <trkpt lat="47.19378" lon="5.87587">
        <ele>282.5</ele>
        <time>2000-01-01T13:32:09.000Z</time>
      </trkpt>
      <trkpt lat="47.19369" lon="5.87587">
        <ele>283</ele>
        <time>2000-01-01T13:32:19.000Z</time>
      </trkpt>
      <trkpt lat="47.19357" lon="5.87586">
        <ele>284.5</ele>
        <time>2000-01-01T13:32:29.000Z</time>
      </trkpt>
      <trkpt lat="47.1934" lon="5.87587">
        <ele>285</ele>
        <time>2000-01-01T13:32:39.000Z</time>
      </trkpt>
      <trkpt lat="47.19335" lon="5.87588">
        <ele>286.1</ele>
        <time>2000-01-01T13:32:49.000Z</time>
      </trkpt>
      <trkpt lat="47.1932" lon="5.87589">
        <ele>285</ele>
        <time>2000-01-01T13:32:59.000Z</time>
      </trkpt>
      <trkpt lat="47.1931" lon="5.8759">
        <ele>286</ele>
        <time>2000-01-01T13:33:09.000Z</time>
      </trkpt>
      <trkpt lat="47.19299" lon="5.87592">
        <ele>285</ele>
        <time>2000-01-01T13:33:19.000Z</time>
      </trkpt>
      <trkpt lat="47.19299" lon="5.87582">
        <ele>286</ele>
        <time>2000-01-01T13:33:29.000Z</time>
      </trkpt>
      <trkpt lat="47.19298" lon="5.87564">
        <ele>286</ele>
        <time>2000-01-01T13:33:39.000Z</time>
      </trkpt>
      <trkpt lat="47.19295" lon="5.87544">
        <ele>285.7</ele>
        <time>2000-01-01T13:33:49.000Z</time>
      </trkpt>
      <trkpt lat="47.19288" lon="5.87526">
        <ele>286</ele>
        <time>2000-01-01T13:33:59.000Z</time>
      </trkpt>
      <trkpt lat="47.1928" lon="5.87514">
        <ele>285.3</ele>
        <time>2000-01-01T13:34:09.000Z</time>
      </trkpt>
      <trkpt lat="47.19271" lon="5.87504">
        <ele>285</ele>
        <time>2000-01-01T13:34:19.000Z</time>
      </trkpt>
      <trkpt lat="47.19262" lon="5.87495">
        <ele>285.2</ele>
        <time>2000-01-01T13:34:29.000Z</time>
      </trkpt>
      <trkpt lat="47.19248" lon="5.87478">
        <ele>285</ele>
        <time>2000-01-01T13:34:39.000Z</time>
      </trkpt>
      <trkpt lat="47.19227" lon="5.87451">
        <ele>284</ele>
        <time>2000-01-01T13:34:49.000Z</time>
      </trkpt>
      <trkpt lat="47.1921" lon="5.8743">
        <ele>283</ele>
        <time>2000-01-01T13:34:59.000Z</time>
      </trkpt>
      <trkpt lat="47.19177" lon="5.87388">
        <ele>283</ele>
        <time>2000-01-01T13:35:09.000Z</time>
      </trkpt>
      <trkpt lat="47.19165" lon="5.87367">
        <ele>283</ele>
        <time>2000-01-01T13:35:19.000Z</time>
      </trkpt>
      <trkpt lat="47.19161" lon="5.87356">
        <ele>283</ele>
        <time>2000-01-01T13:35:29.000Z</time>
      </trkpt>
      <trkpt lat="47.1916" lon="5.87349">
        <ele>283.3</ele>
        <time>2000-01-01T13:35:39.000Z</time>
      </trkpt>
      <trkpt lat="47.1916" lon="5.8734">
        <ele>283</ele>
        <time>2000-01-01T13:35:49.000Z</time>
      </trkpt>
      <trkpt lat="47.19161" lon="5.87327">
        <ele>284.3</ele>
        <time>2000-01-01T13:35:59.000Z</time>
      </trkpt>
      <trkpt lat="47.19162" lon="5.87308">
        <ele>285</ele>
        <time>2000-01-01T13:36:09.000Z</time>
      </trkpt>
      <trkpt lat="47.19162" lon="5.87291">
        <ele>284.7</ele>
        <time>2000-01-01T13:36:19.000Z</time>
      </trkpt>
      <trkpt lat="47.19159" lon="5.87274">
        <ele>285</ele>
        <time>2000-01-01T13:36:29.000Z</time>
      </trkpt>
      <trkpt lat="47.19153" lon="5.8725">
        <ele>284.5</ele>
        <time>2000-01-01T13:36:39.000Z</time>
      </trkpt>
      <trkpt lat="47.19143" lon="5.87227">
        <ele>285</ele>
        <time>2000-01-01T13:36:49.000Z</time>
      </trkpt>
      <trkpt lat="47.19138" lon="5.87219">
        <ele>285.9</ele>
        <time>2000-01-01T13:36:59.000Z</time>
      </trkpt>
      <trkpt lat="47.19134" lon="5.87215">
        <ele>286</ele>
        <time>2000-01-01T13:37:09.000Z</time>
      </trkpt>
      <trkpt lat="47.19128" lon="5.87207">
        <ele>286</ele>
        <time>2000-01-01T13:37:19.000Z</time>
      </trkpt>
      <trkpt lat="47.1912" lon="5.87194">
        <ele>286.3</ele>
        <time>2000-01-01T13:37:29.000Z</time>
      </trkpt>
      <trkpt lat="47.19094" lon="5.87156">
        <ele>287</ele>
        <time>2000-01-01T13:37:39.000Z</time>
      </trkpt>
      <trkpt lat="47.19075" lon="5.87127">
        <ele>287</ele>
        <time>2000-01-01T13:37:49.000Z</time>
      </trkpt>
      <trkpt lat="47.19062" lon="5.87123">
        <ele>287.4</ele>
        <time>2000-01-01T13:37:59.000Z</time>
      </trkpt>
      <trkpt lat="47.1905" lon="5.87122">
        <ele>287</ele>
        <time>2000-01-01T13:38:09.000Z</time>
      </trkpt>
      <trkpt lat="47.1904" lon="5.87123">
        <ele>287.3</ele>
        <time>2000-01-01T13:38:19.000Z</time>
      </trkpt>
      <trkpt lat="47.19026" lon="5.87128">
        <ele>287</ele>
        <time>2000-01-01T13:38:29.000Z</time>
      </trkpt>
      <trkpt lat="47.19001" lon="5.87139">
        <ele>286</ele>
        <time>2000-01-01T13:38:39.000Z</time>
      </trkpt>
      <trkpt lat="47.18983" lon="5.87147">
        <ele>284.5</ele>
        <time>2000-01-01T13:38:49.000Z</time>
      </trkpt>
      <trkpt lat="47.18974" lon="5.8715">
        <ele>284</ele>
        <time>2000-01-01T13:38:59.000Z</time>
      </trkpt>
      <trkpt lat="47.18964" lon="5.87154">
        <ele>283.4</ele>
        <time>2000-01-01T13:39:09.000Z</time>
      </trkpt>
      <trkpt lat="47.18964" lon="5.87154">
        <ele>283.4</ele>
        <time>2000-01-01T13:39:19.000Z</time>
      </trkpt>
      <trkpt lat="47.18937" lon="5.8715">
        <ele>284</ele>
        <time>2000-01-01T13:39:29.000Z</time>
      </trkpt>
      <trkpt lat="47.18917" lon="5.8713">
        <ele>285</ele>
        <time>2000-01-01T13:39:39.000Z</time>
      </trkpt>
      <trkpt lat="47.18897" lon="5.8711">
        <ele>286</ele>
        <time>2000-01-01T13:39:49.000Z</time>
      </trkpt>
      <trkpt lat="47.18888" lon="5.87094">
        <ele>286.6</ele>
        <time>2000-01-01T13:39:59.000Z</time>
      </trkpt>
      <trkpt lat="47.18867" lon="5.87056">
        <ele>286</ele>
        <time>2000-01-01T13:40:09.000Z</time>
      </trkpt>
      <trkpt lat="47.18843" lon="5.87006">
        <ele>285</ele>
        <time>2000-01-01T13:40:19.000Z</time>
      </trkpt>
      <trkpt lat="47.18837" lon="5.86985">
        <ele>285.3</ele>
        <time>2000-01-01T13:40:29.000Z</time>
      </trkpt>
      <trkpt lat="47.18823" lon="5.86946">
        <ele>284</ele>
        <time>2000-01-01T13:40:39.000Z</time>
      </trkpt>
      <trkpt lat="47.18811" lon="5.86913">
        <ele>283</ele>
        <time>2000-01-01T13:40:49.000Z</time>
      </trkpt>
      <trkpt lat="47.18797" lon="5.86871">
        <ele>282</ele>
        <time>2000-01-01T13:40:59.000Z</time>
      </trkpt>
      <trkpt lat="47.18785" lon="5.86836">
        <ele>282</ele>
        <time>2000-01-01T13:41:09.000Z</time>
      </trkpt>
      <trkpt lat="47.18767" lon="5.86785">
        <ele>281</ele>
        <time>2000-01-01T13:41:19.000Z</time>
      </trkpt>
      <trkpt lat="47.18754" lon="5.86748">
        <ele>281</ele>
        <time>2000-01-01T13:41:29.000Z</time>
      </trkpt>
      <trkpt lat="47.18747" lon="5.86714">
        <ele>281</ele>
        <time>2000-01-01T13:41:39.000Z</time>
      </trkpt>
      <trkpt lat="47.1874" lon="5.8668">
        <ele>281</ele>
        <time>2000-01-01T13:41:49.000Z</time>
      </trkpt>
      <trkpt lat="47.18734" lon="5.86652">
        <ele>282</ele>
        <time>2000-01-01T13:41:59.000Z</time>
      </trkpt>
      <trkpt lat="47.18725" lon="5.86609">
        <ele>284</ele>
        <time>2000-01-01T13:42:09.000Z</time>
      </trkpt>
      <trkpt lat="47.18718" lon="5.8658">
        <ele>284</ele>
        <time>2000-01-01T13:42:19.000Z</time>
      </trkpt>
      <trkpt lat="47.18713" lon="5.86558">
        <ele>285.5</ele>
        <time>2000-01-01T13:42:29.000Z</time>
      </trkpt>
      <trkpt lat="47.18706" lon="5.8653">
        <ele>285</ele>
        <time>2000-01-01T13:42:39.000Z</time>
      </trkpt>
      <trkpt lat="47.18701" lon="5.86517">
        <ele>286.1</ele>
        <time>2000-01-01T13:42:49.000Z</time>
      </trkpt>
      <trkpt lat="47.18693" lon="5.86502">
        <ele>285</ele>
        <time>2000-01-01T13:42:59.000Z</time>
      </trkpt>
      <trkpt lat="47.18683" lon="5.86484">
        <ele>285.9</ele>
        <time>2000-01-01T13:43:09.000Z</time>
      </trkpt>
      <trkpt lat="47.18682" lon="5.8648">
        <ele>285</ele>
        <time>2000-01-01T13:43:19.000Z</time>
      </trkpt>
      <trkpt lat="47.18664" lon="5.86453">
        <ele>285</ele>
        <time>2000-01-01T13:43:29.000Z</time>
      </trkpt>
      <trkpt lat="47.18647" lon="5.86436">
        <ele>283</ele>
        <time>2000-01-01T13:43:39.000Z</time>
      </trkpt>
      <trkpt lat="47.1863" lon="5.86414">
        <ele>282</ele>
        <time>2000-01-01T13:43:49.000Z</time>
      </trkpt>
      <trkpt lat="47.18619" lon="5.864">
        <ele>283.2</ele>
        <time>2000-01-01T13:43:59.000Z</time>
      </trkpt>
      <trkpt lat="47.18607" lon="5.8639">
        <ele>281</ele>
        <time>2000-01-01T13:44:09.000Z</time>
      </trkpt>
      <trkpt lat="47.18595" lon="5.86382">
        <ele>281.1</ele>
        <time>2000-01-01T13:44:19.000Z</time>
      </trkpt>
      <trkpt lat="47.18577" lon="5.86376">
        <ele>278</ele>
        <time>2000-01-01T13:44:29.000Z</time>
      </trkpt>
      <trkpt lat="47.18548" lon="5.86364">
        <ele>276</ele>
        <time>2000-01-01T13:44:39.000Z</time>
      </trkpt>
      <trkpt lat="47.18524" lon="5.86354">
        <ele>275</ele>
        <time>2000-01-01T13:44:49.000Z</time>
      </trkpt>
      <trkpt lat="47.18495" lon="5.86342">
        <ele>273</ele>
        <time>2000-01-01T13:44:59.000Z</time>
      </trkpt>
      <trkpt lat="47.18489" lon="5.86341">
        <ele>273.9</ele>
        <time>2000-01-01T13:45:09.000Z</time>
      </trkpt>
      <trkpt lat="47.18446" lon="5.86285">
        <ele>273</ele>
        <time>2000-01-01T13:45:19.000Z</time>
      </trkpt>
      <trkpt lat="47.18444" lon="5.86283">
        <ele>273.8</ele>
        <time>2000-01-01T13:45:29.000Z</time>
      </trkpt>
      <trkpt lat="47.18357" lon="5.86161">
        <ele>271</ele>
        <time>2000-01-01T13:45:39.000Z</time>
      </trkpt>
      <trkpt lat="47.18352" lon="5.8615">
        <ele>270</ele>
        <time>2000-01-01T13:45:49.000Z</time>
      </trkpt>
      <trkpt lat="47.1834" lon="5.86112">
        <ele>270</ele>
        <time>2000-01-01T13:45:59.000Z</time>
      </trkpt>
      <trkpt lat="47.18338" lon="5.86106">
        <ele>270</ele>
        <time>2000-01-01T13:46:09.000Z</time>
      </trkpt>
      <trkpt lat="47.18321" lon="5.86084">
        <ele>269</ele>
        <time>2000-01-01T13:46:19.000Z</time>
      </trkpt>
      <trkpt lat="47.1831" lon="5.86044">
        <ele>268</ele>
        <time>2000-01-01T13:46:29.000Z</time>
      </trkpt>
      <trkpt lat="47.18293" lon="5.86014">
        <ele>268</ele>
        <time>2000-01-01T13:46:39.000Z</time>
      </trkpt>
      <trkpt lat="47.1827" lon="5.85974">
        <ele>267</ele>
        <time>2000-01-01T13:46:49.000Z</time>
      </trkpt>
      <trkpt lat="47.18252" lon="5.85932">
        <ele>267</ele>
        <time>2000-01-01T13:46:59.000Z</time>
      </trkpt>
      <trkpt lat="47.18242" lon="5.85901">
        <ele>267</ele>
        <time>2000-01-01T13:47:09.000Z</time>
      </trkpt>
      <trkpt lat="47.18223" lon="5.85871">
        <ele>265</ele>
        <time>2000-01-01T13:47:19.000Z</time>
      </trkpt>
      <trkpt lat="47.18218" lon="5.85847">
        <ele>265.4</ele>
        <time>2000-01-01T13:47:29.000Z</time>
      </trkpt>
      <trkpt lat="47.18186" lon="5.85788">
        <ele>258</ele>
        <time>2000-01-01T13:47:39.000Z</time>
      </trkpt>
      <trkpt lat="47.18169" lon="5.85735">
        <ele>257</ele>
        <time>2000-01-01T13:47:49.000Z</time>
      </trkpt>
      <trkpt lat="47.18168" lon="5.85715">
        <ele>256.5</ele>
        <time>2000-01-01T13:47:59.000Z</time>
      </trkpt>
      <trkpt lat="47.18154" lon="5.8566">
        <ele>256</ele>
        <time>2000-01-01T13:48:09.000Z</time>
      </trkpt>
      <trkpt lat="47.18145" lon="5.8565">
        <ele>255.5</ele>
        <time>2000-01-01T13:48:19.000Z</time>
      </trkpt>
      <trkpt lat="47.18122" lon="5.85633">
        <ele>251</ele>
        <time>2000-01-01T13:48:29.000Z</time>
      </trkpt>
      <trkpt lat="47.18099" lon="5.85592">
        <ele>249</ele>
        <time>2000-01-01T13:48:39.000Z</time>
      </trkpt>
      <trkpt lat="47.18092" lon="5.85571">
        <ele>251.9</ele>
        <time>2000-01-01T13:48:49.000Z</time>
      </trkpt>
      <trkpt lat="47.1807" lon="5.85533">
        <ele>249</ele>
        <time>2000-01-01T13:48:59.000Z</time>
      </trkpt>
      <trkpt lat="47.18056" lon="5.85522">
        <ele>249.9</ele>
        <time>2000-01-01T13:49:09.000Z</time>
      </trkpt>
      <trkpt lat="47.18043" lon="5.85518">
        <ele>248</ele>
        <time>2000-01-01T13:49:19.000Z</time>
      </trkpt>
      <trkpt lat="47.18016" lon="5.85521">
        <ele>246</ele>
        <time>2000-01-01T13:49:29.000Z</time>
      </trkpt>
      <trkpt lat="47.18005" lon="5.85498">
        <ele>245</ele>
        <time>2000-01-01T13:49:39.000Z</time>
      </trkpt>
      <trkpt lat="47.17977" lon="5.8546">
        <ele>243</ele>
        <time>2000-01-01T13:49:49.000Z</time>
      </trkpt>
      <trkpt lat="47.17956" lon="5.85437">
        <ele>242</ele>
        <time>2000-01-01T13:49:59.000Z</time>
      </trkpt>
      <trkpt lat="47.1793" lon="5.85407">
        <ele>242</ele>
        <time>2000-01-01T13:50:09.000Z</time>
      </trkpt>
      <trkpt lat="47.17914" lon="5.85381">
        <ele>242</ele>
        <time>2000-01-01T13:50:19.000Z</time>
      </trkpt>
      <trkpt lat="47.17896" lon="5.85354">
        <ele>242</ele>
        <time>2000-01-01T13:50:29.000Z</time>
      </trkpt>
      <trkpt lat="47.17886" lon="5.85332">
        <ele>242.8</ele>
        <time>2000-01-01T13:50:39.000Z</time>
      </trkpt>
      <trkpt lat="47.17869" lon="5.85308">
        <ele>240</ele>
        <time>2000-01-01T13:50:49.000Z</time>
      </trkpt>
      <trkpt lat="47.17854" lon="5.85293">
        <ele>240.3</ele>
        <time>2000-01-01T13:50:59.000Z</time>
      </trkpt>
      <trkpt lat="47.17846" lon="5.85267">
        <ele>240</ele>
        <time>2000-01-01T13:51:09.000Z</time>
      </trkpt>
      <trkpt lat="47.17829" lon="5.85237">
        <ele>239</ele>
        <time>2000-01-01T13:51:19.000Z</time>
      </trkpt>
      <trkpt lat="47.17806" lon="5.85196">
        <ele>239</ele>
        <time>2000-01-01T13:51:29.000Z</time>
      </trkpt>
      <trkpt lat="47.178" lon="5.85178">
        <ele>239.9</ele>
        <time>2000-01-01T13:51:39.000Z</time>
      </trkpt>
      <trkpt lat="47.17783" lon="5.85159">
        <ele>238</ele>
        <time>2000-01-01T13:51:49.000Z</time>
      </trkpt>
      <trkpt lat="47.1777" lon="5.85153">
        <ele>236.8</ele>
        <time>2000-01-01T13:51:59.000Z</time>
      </trkpt>
      <trkpt lat="47.17746" lon="5.85085">
        <ele>235</ele>
        <time>2000-01-01T13:52:09.000Z</time>
      </trkpt>
      <trkpt lat="47.17744" lon="5.85059">
        <ele>236.3</ele>
        <time>2000-01-01T13:52:19.000Z</time>
      </trkpt>
      <trkpt lat="47.17738" lon="5.85034">
        <ele>235</ele>
        <time>2000-01-01T13:52:29.000Z</time>
      </trkpt>
      <trkpt lat="47.17729" lon="5.85012">
        <ele>236.1</ele>
        <time>2000-01-01T13:52:39.000Z</time>
      </trkpt>
      <trkpt lat="47.17747" lon="5.84973">
        <ele>235</ele>
        <time>2000-01-01T13:52:49.000Z</time>
      </trkpt>
      <trkpt lat="47.17778" lon="5.84924">
        <ele>235</ele>
        <time>2000-01-01T13:52:59.000Z</time>
      </trkpt>
      <trkpt lat="47.17783" lon="5.84908">
        <ele>234.6</ele>
        <time>2000-01-01T13:53:09.000Z</time>
      </trkpt>
      <trkpt lat="47.17796" lon="5.84882">
        <ele>234</ele>
        <time>2000-01-01T13:53:19.000Z</time>
      </trkpt>
      <trkpt lat="47.17802" lon="5.84861">
        <ele>232</ele>
        <time>2000-01-01T13:53:29.000Z</time>
      </trkpt>
      <trkpt lat="47.17798" lon="5.8481">
        <ele>233</ele>
        <time>2000-01-01T13:53:39.000Z</time>
      </trkpt>
      <trkpt lat="47.17768" lon="5.84773">
        <ele>232</ele>
        <time>2000-01-01T13:53:49.000Z</time>
      </trkpt>
      <trkpt lat="47.17754" lon="5.84744">
        <ele>230</ele>
        <time>2000-01-01T13:53:59.000Z</time>
      </trkpt>
      <trkpt lat="47.17737" lon="5.8471">
        <ele>230</ele>
        <time>2000-01-01T13:54:09.000Z</time>
      </trkpt>
      <trkpt lat="47.17736" lon="5.84706">
        <ele>230.1</ele>
        <time>2000-01-01T13:54:19.000Z</time>
      </trkpt>
      <trkpt lat="47.17731" lon="5.84696">
        <ele>229.9</ele>
        <time>2000-01-01T13:54:29.000Z</time>
      </trkpt>
      <trkpt lat="47.17728" lon="5.8469">
        <ele>230</ele>
        <time>2000-01-01T13:54:39.000Z</time>
      </trkpt>
      <trkpt lat="47.17725" lon="5.84688">
        <ele>230</ele>
        <time>2000-01-01T13:54:49.000Z</time>
      </trkpt>
      <trkpt lat="47.17722" lon="5.84685">
        <ele>230.7</ele>
        <time>2000-01-01T13:54:59.000Z</time>
      </trkpt>
      <trkpt lat="47.1772" lon="5.84679">
        <ele>231.3</ele>
        <time>2000-01-01T13:55:09.000Z</time>
      </trkpt>
      <trkpt lat="47.1772" lon="5.8467">
        <ele>230.9</ele>
        <time>2000-01-01T13:55:19.000Z</time>
      </trkpt>
      <trkpt lat="47.1772" lon="5.84659">
        <ele>230</ele>
        <time>2000-01-01T13:55:29.000Z</time>
      </trkpt>
      <trkpt lat="47.17721" lon="5.84648">
        <ele>230.4</ele>
        <time>2000-01-01T13:55:39.000Z</time>
      </trkpt>
      <trkpt lat="47.17722" lon="5.8464">
        <ele>230.1</ele>
        <time>2000-01-01T13:55:49.000Z</time>
      </trkpt>
      <trkpt lat="47.17722" lon="5.8463">
        <ele>231</ele>
        <time>2000-01-01T13:55:59.000Z</time>
      </trkpt>
      <trkpt lat="47.17722" lon="5.8462">
        <ele>230.7</ele>
        <time>2000-01-01T13:56:09.000Z</time>
      </trkpt>
      <trkpt lat="47.17721" lon="5.84613">
        <ele>231.2</ele>
        <time>2000-01-01T13:56:19.000Z</time>
      </trkpt>
      <trkpt lat="47.1772" lon="5.84604">
        <ele>231.5</ele>
        <time>2000-01-01T13:56:29.000Z</time>
      </trkpt>
      <trkpt lat="47.17719" lon="5.84597">
        <ele>233</ele>
        <time>2000-01-01T13:56:39.000Z</time>
      </trkpt>
      <trkpt lat="47.17717" lon="5.84587">
        <ele>232</ele>
        <time>2000-01-01T13:56:49.000Z</time>
      </trkpt>
      <trkpt lat="47.17707" lon="5.84561">
        <ele>233</ele>
        <time>2000-01-01T13:56:59.000Z</time>
      </trkpt>
      <trkpt lat="47.17701" lon="5.84544">
        <ele>231.5</ele>
        <time>2000-01-01T13:57:09.000Z</time>
      </trkpt>
      <trkpt lat="47.17696" lon="5.84527">
        <ele>230</ele>
        <time>2000-01-01T13:57:19.000Z</time>
      </trkpt>
      <trkpt lat="47.17689" lon="5.84505">
        <ele>229.9</ele>
        <time>2000-01-01T13:57:29.000Z</time>
      </trkpt>
      <trkpt lat="47.17681" lon="5.84483">
        <ele>228</ele>
        <time>2000-01-01T13:57:39.000Z</time>
      </trkpt>
      <trkpt lat="47.17678" lon="5.84476">
        <ele>228.5</ele>
        <time>2000-01-01T13:57:49.000Z</time>
      </trkpt>
      <trkpt lat="47.17673" lon="5.84459">
        <ele>227</ele>
        <time>2000-01-01T13:57:59.000Z</time>
      </trkpt>
      <trkpt lat="47.17669" lon="5.8445">
        <ele>227.2</ele>
        <time>2000-01-01T13:58:09.000Z</time>
      </trkpt>
      <trkpt lat="47.17666" lon="5.84444">
        <ele>227.1</ele>
        <time>2000-01-01T13:58:19.000Z</time>
      </trkpt>
      <trkpt lat="47.17661" lon="5.84439">
        <ele>227.4</ele>
        <time>2000-01-01T13:58:29.000Z</time>
      </trkpt>
      <trkpt lat="47.17651" lon="5.8443">
        <ele>227</ele>
        <time>2000-01-01T13:58:39.000Z</time>
      </trkpt>
      <trkpt lat="47.17641" lon="5.84422">
        <ele>228.2</ele>
        <time>2000-01-01T13:58:49.000Z</time>
      </trkpt>
      <trkpt lat="47.17628" lon="5.84412">
        <ele>228</ele>
        <time>2000-01-01T13:58:59.000Z</time>
      </trkpt>
      <trkpt lat="47.17618" lon="5.84403">
        <ele>228.5</ele>
        <time>2000-01-01T13:59:09.000Z</time>
      </trkpt>
      <trkpt lat="47.17608" lon="5.84391">
        <ele>228</ele>
        <time>2000-01-01T13:59:19.000Z</time>
      </trkpt>
      <trkpt lat="47.17606" lon="5.84388">
        <ele>228.3</ele>
        <time>2000-01-01T13:59:29.000Z</time>
      </trkpt>
      <trkpt lat="47.17597" lon="5.84379">
        <ele>228.3</ele>
        <time>2000-01-01T13:59:39.000Z</time>
      </trkpt>
      <trkpt lat="47.17588" lon="5.84367">
        <ele>227</ele>
        <time>2000-01-01T13:59:49.000Z</time>
      </trkpt>
      <trkpt lat="47.17576" lon="5.84355">
        <ele>228.2</ele>
        <time>2000-01-01T13:59:59.000Z</time>
      </trkpt>
      <trkpt lat="47.17571" lon="5.84352">
        <ele>227</ele>
        <time>2000-01-01T14:00:09.000Z</time>
      </trkpt>
      <trkpt lat="47.17562" lon="5.84345">
        <ele>228.5</ele>
        <time>2000-01-01T14:00:19.000Z</time>
      </trkpt>
      <trkpt lat="47.17553" lon="5.84337">
        <ele>227</ele>
        <time>2000-01-01T14:00:29.000Z</time>
      </trkpt>
      <trkpt lat="47.1754" lon="5.8433">
        <ele>228.4</ele>
        <time>2000-01-01T14:00:39.000Z</time>
      </trkpt>
      <trkpt lat="47.1753" lon="5.84325">
        <ele>227</ele>
        <time>2000-01-01T14:00:49.000Z</time>
      </trkpt>
      <trkpt lat="47.17521" lon="5.84319">
        <ele>228.3</ele>
        <time>2000-01-01T14:00:59.000Z</time>
      </trkpt>
      <trkpt lat="47.17516" lon="5.84316">
        <ele>228.3</ele>
        <time>2000-01-01T14:01:09.000Z</time>
      </trkpt>
      <trkpt lat="47.17501" lon="5.84306">
        <ele>227</ele>
        <time>2000-01-01T14:01:19.000Z</time>
      </trkpt>
      <trkpt lat="47.17488" lon="5.84301">
        <ele>228.2</ele>
        <time>2000-01-01T14:01:29.000Z</time>
      </trkpt>
      <trkpt lat="47.17491" lon="5.84298">
        <ele>228</ele>
        <time>2000-01-01T14:01:39.000Z</time>
      </trkpt>
      <trkpt lat="47.17493" lon="5.84294">
        <ele>227</ele>
        <time>2000-01-01T14:01:49.000Z</time>
      </trkpt>
      <trkpt lat="47.17496" lon="5.84285">
        <ele>227.3</ele>
        <time>2000-01-01T14:01:59.000Z</time>
      </trkpt>
      <trkpt lat="47.17498" lon="5.84272">
        <ele>227</ele>
        <time>2000-01-01T14:02:09.000Z</time>
      </trkpt>
      <trkpt lat="47.17498" lon="5.84269">
        <ele>226</ele>
        <time>2000-01-01T14:02:19.000Z</time>
      </trkpt>
      <trkpt lat="47.17504" lon="5.8423">
        <ele>226</ele>
        <time>2000-01-01T14:02:29.000Z</time>
      </trkpt>
      <trkpt lat="47.17506" lon="5.84217">
        <ele>227.4</ele>
        <time>2000-01-01T14:02:39.000Z</time>
      </trkpt>
      <trkpt lat="47.17507" lon="5.84206">
        <ele>227.8</ele>
        <time>2000-01-01T14:02:49.000Z</time>
      </trkpt>
      <trkpt lat="47.17507" lon="5.84195">
        <ele>227</ele>
        <time>2000-01-01T14:02:59.000Z</time>
      </trkpt>
      <trkpt lat="47.17507" lon="5.84185">
        <ele>228.6</ele>
        <time>2000-01-01T14:03:09.000Z</time>
      </trkpt>
      <trkpt lat="47.17505" lon="5.84174">
        <ele>228.9</ele>
        <time>2000-01-01T14:03:19.000Z</time>
      </trkpt>
      <trkpt lat="47.17504" lon="5.84169">
        <ele>229.1</ele>
        <time>2000-01-01T14:03:29.000Z</time>
      </trkpt>
      <trkpt lat="47.17496" lon="5.84146">
        <ele>228</ele>
        <time>2000-01-01T14:03:39.000Z</time>
      </trkpt>
      <trkpt lat="47.17491" lon="5.84132">
        <ele>229</ele>
        <time>2000-01-01T14:03:49.000Z</time>
      </trkpt>
      <trkpt lat="47.1749" lon="5.84121">
        <ele>228.9</ele>
        <time>2000-01-01T14:03:59.000Z</time>
      </trkpt>
      <trkpt lat="47.1749" lon="5.84113">
        <ele>229</ele>
        <time>2000-01-01T14:04:09.000Z</time>
      </trkpt>
      <trkpt lat="47.17492" lon="5.84108">
        <ele>229.1</ele>
        <time>2000-01-01T14:04:19.000Z</time>
      </trkpt>
      <trkpt lat="47.17498" lon="5.84095">
        <ele>229.8</ele>
        <time>2000-01-01T14:04:29.000Z</time>
      </trkpt>
      <trkpt lat="47.17506" lon="5.84089">
        <ele>230</ele>
        <time>2000-01-01T14:04:39.000Z</time>
      </trkpt>
      <trkpt lat="47.17515" lon="5.84084">
        <ele>231.1</ele>
        <time>2000-01-01T14:04:49.000Z</time>
      </trkpt>
      <trkpt lat="47.17553" lon="5.84072">
        <ele>233</ele>
        <time>2000-01-01T14:04:59.000Z</time>
      </trkpt>
      <trkpt lat="47.17558" lon="5.8407">
        <ele>234.2</ele>
        <time>2000-01-01T14:05:09.000Z</time>
      </trkpt>
      <trkpt lat="47.1757" lon="5.84066">
        <ele>235.4</ele>
        <time>2000-01-01T14:05:19.000Z</time>
      </trkpt>
      <trkpt lat="47.1758" lon="5.8406">
        <ele>236</ele>
        <time>2000-01-01T14:05:29.000Z</time>
      </trkpt>
      <trkpt lat="47.17584" lon="5.84058">
        <ele>237</ele>
        <time>2000-01-01T14:05:39.000Z</time>
      </trkpt>
      <trkpt lat="47.17587" lon="5.84055">
        <ele>237.3</ele>
        <time>2000-01-01T14:05:49.000Z</time>
      </trkpt>
      <trkpt lat="47.17593" lon="5.84048">
        <ele>238</ele>
        <time>2000-01-01T14:05:59.000Z</time>
      </trkpt>
      <trkpt lat="47.17596" lon="5.84041">
        <ele>237</ele>
        <time>2000-01-01T14:06:09.000Z</time>
      </trkpt>
      <trkpt lat="47.17598" lon="5.84033">
        <ele>238.9</ele>
        <time>2000-01-01T14:06:19.000Z</time>
      </trkpt>
      <trkpt lat="47.17598" lon="5.84025">
        <ele>239.2</ele>
        <time>2000-01-01T14:06:29.000Z</time>
      </trkpt>
      <trkpt lat="47.17598" lon="5.84016">
        <ele>239.5</ele>
        <time>2000-01-01T14:06:39.000Z</time>
      </trkpt>
      <trkpt lat="47.17595" lon="5.83995">
        <ele>240</ele>
        <time>2000-01-01T14:06:49.000Z</time>
      </trkpt>
      <trkpt lat="47.17592" lon="5.8397">
        <ele>241.8</ele>
        <time>2000-01-01T14:06:59.000Z</time>
      </trkpt>
      <trkpt lat="47.1759" lon="5.83954">
        <ele>243</ele>
        <time>2000-01-01T14:07:09.000Z</time>
      </trkpt>
      <trkpt lat="47.17591" lon="5.83933">
        <ele>244.1</ele>
        <time>2000-01-01T14:07:19.000Z</time>
      </trkpt>
      <trkpt lat="47.17591" lon="5.83921">
        <ele>244</ele>
        <time>2000-01-01T14:07:29.000Z</time>
      </trkpt>
      <trkpt lat="47.17569" lon="5.83901">
        <ele>244</ele>
        <time>2000-01-01T14:07:39.000Z</time>
      </trkpt>
      <trkpt lat="47.17533" lon="5.83868">
        <ele>244</ele>
        <time>2000-01-01T14:07:49.000Z</time>
      </trkpt>
      <trkpt lat="47.17511" lon="5.83881">
        <ele>244</ele>
        <time>2000-01-01T14:07:59.000Z</time>
      </trkpt>
      <trkpt lat="47.17487" lon="5.83896">
        <ele>241</ele>
        <time>2000-01-01T14:08:09.000Z</time>
      </trkpt>
      <trkpt lat="47.1746" lon="5.83875">
        <ele>243</ele>
        <time>2000-01-01T14:08:19.000Z</time>
      </trkpt>
      <trkpt lat="47.17437" lon="5.83858">
        <ele>245</ele>
        <time>2000-01-01T14:08:29.000Z</time>
      </trkpt>
      <trkpt lat="47.17407" lon="5.83835">
        <ele>247</ele>
        <time>2000-01-01T14:08:39.000Z</time>
      </trkpt>
      <trkpt lat="47.17374" lon="5.83832">
        <ele>249</ele>
        <time>2000-01-01T14:08:49.000Z</time>
      </trkpt>
      <trkpt lat="47.17342" lon="5.8383">
        <ele>249</ele>
        <time>2000-01-01T14:08:59.000Z</time>
      </trkpt>
      <trkpt lat="47.17318" lon="5.83828">
        <ele>249</ele>
        <time>2000-01-01T14:09:09.000Z</time>
      </trkpt>
      <trkpt lat="47.17293" lon="5.83826">
        <ele>249</ele>
        <time>2000-01-01T14:09:19.000Z</time>
      </trkpt>
      <trkpt lat="47.17268" lon="5.83819">
        <ele>250</ele>
        <time>2000-01-01T14:09:29.000Z</time>
      </trkpt>
      <trkpt lat="47.17236" lon="5.83811">
        <ele>250</ele>
        <time>2000-01-01T14:09:39.000Z</time>
      </trkpt>
      <trkpt lat="47.17211" lon="5.83789">
        <ele>250</ele>
        <time>2000-01-01T14:09:49.000Z</time>
      </trkpt>
      <trkpt lat="47.17189" lon="5.8377">
        <ele>251</ele>
        <time>2000-01-01T14:09:59.000Z</time>
      </trkpt>
      <trkpt lat="47.17164" lon="5.83748">
        <ele>253</ele>
        <time>2000-01-01T14:10:09.000Z</time>
      </trkpt>
      <trkpt lat="47.17133" lon="5.83725">
        <ele>253</ele>
        <time>2000-01-01T14:10:19.000Z</time>
      </trkpt>
      <trkpt lat="47.17102" lon="5.83703">
        <ele>253</ele>
        <time>2000-01-01T14:10:29.000Z</time>
      </trkpt>
      <trkpt lat="47.17071" lon="5.8368">
        <ele>253</ele>
        <time>2000-01-01T14:10:39.000Z</time>
      </trkpt>
      <trkpt lat="47.17038" lon="5.83656">
        <ele>252</ele>
        <time>2000-01-01T14:10:49.000Z</time>
      </trkpt>
      <trkpt lat="47.17011" lon="5.83661">
        <ele>249</ele>
        <time>2000-01-01T14:10:59.000Z</time>
      </trkpt>
      <trkpt lat="47.16973" lon="5.83668">
        <ele>247</ele>
        <time>2000-01-01T14:11:09.000Z</time>
      </trkpt>
      <trkpt lat="47.16943" lon="5.83662">
        <ele>245</ele>
        <time>2000-01-01T14:11:19.000Z</time>
      </trkpt>
      <trkpt lat="47.16919" lon="5.83658">
        <ele>243</ele>
        <time>2000-01-01T14:11:29.000Z</time>
      </trkpt>
      <trkpt lat="47.16889" lon="5.83652">
        <ele>238</ele>
        <time>2000-01-01T14:11:39.000Z</time>
      </trkpt>
      <trkpt lat="47.16844" lon="5.83648">
        <ele>232</ele>
        <time>2000-01-01T14:11:49.000Z</time>
      </trkpt>
      <trkpt lat="47.16805" lon="5.83618">
        <ele>225</ele>
        <time>2000-01-01T14:11:59.000Z</time>
      </trkpt>
      <trkpt lat="47.16783" lon="5.83586">
        <ele>221</ele>
        <time>2000-01-01T14:12:09.000Z</time>
      </trkpt>
      <trkpt lat="47.16773" lon="5.8362">
        <ele>221</ele>
        <time>2000-01-01T14:12:19.000Z</time>
      </trkpt>
      <trkpt lat="47.16767" lon="5.83629">
        <ele>221.9</ele>
        <time>2000-01-01T14:12:29.000Z</time>
      </trkpt>
      <trkpt lat="47.16757" lon="5.83633">
        <ele>221</ele>
        <time>2000-01-01T14:12:39.000Z</time>
      </trkpt>
      <trkpt lat="47.16742" lon="5.83672">
        <ele>221</ele>
        <time>2000-01-01T14:12:49.000Z</time>
      </trkpt>
      <trkpt lat="47.16742" lon="5.83629">
        <ele>221</ele>
        <time>2000-01-01T14:12:59.000Z</time>
      </trkpt>
      <trkpt lat="47.16742" lon="5.83594">
        <ele>221</ele>
        <time>2000-01-01T14:13:09.000Z</time>
      </trkpt>
      <trkpt lat="47.16742" lon="5.83556">
        <ele>220</ele>
        <time>2000-01-01T14:13:19.000Z</time>
      </trkpt>
      <trkpt lat="47.16739" lon="5.8351">
        <ele>220</ele>
        <time>2000-01-01T14:13:29.000Z</time>
      </trkpt>
      <trkpt lat="47.16736" lon="5.83464">
        <ele>220</ele>
        <time>2000-01-01T14:13:39.000Z</time>
      </trkpt>
      <trkpt lat="47.16732" lon="5.8341">
        <ele>220</ele>
        <time>2000-01-01T14:13:49.000Z</time>
      </trkpt>
      <trkpt lat="47.16727" lon="5.83374">
        <ele>220</ele>
        <time>2000-01-01T14:13:59.000Z</time>
      </trkpt>
      <trkpt lat="47.1672" lon="5.83329">
        <ele>220</ele>
        <time>2000-01-01T14:14:09.000Z</time>
      </trkpt>
      <trkpt lat="47.16711" lon="5.83283">
        <ele>220</ele>
        <time>2000-01-01T14:14:19.000Z</time>
      </trkpt>
      <trkpt lat="47.16702" lon="5.83237">
        <ele>220</ele>
        <time>2000-01-01T14:14:29.000Z</time>
      </trkpt>
      <trkpt lat="47.16695" lon="5.83203">
        <ele>220</ele>
        <time>2000-01-01T14:14:39.000Z</time>
      </trkpt>
      <trkpt lat="47.16688" lon="5.83168">
        <ele>220</ele>
        <time>2000-01-01T14:14:49.000Z</time>
      </trkpt>
      <trkpt lat="47.16674" lon="5.83123">
        <ele>220</ele>
        <time>2000-01-01T14:14:59.000Z</time>
      </trkpt>
      <trkpt lat="47.1666" lon="5.83077">
        <ele>220</ele>
        <time>2000-01-01T14:15:09.000Z</time>
      </trkpt>
      <trkpt lat="47.16649" lon="5.83042">
        <ele>220</ele>
        <time>2000-01-01T14:15:19.000Z</time>
      </trkpt>
      <trkpt lat="47.16634" lon="5.82995">
        <ele>220</ele>
        <time>2000-01-01T14:15:29.000Z</time>
      </trkpt>
      <trkpt lat="47.16638" lon="5.82969">
        <ele>222.5</ele>
        <time>2000-01-01T14:15:39.000Z</time>
      </trkpt>
      <trkpt lat="47.16519" lon="5.8304">
        <ele>221</ele>
        <time>2000-01-01T14:15:49.000Z</time>
      </trkpt>
      <trkpt lat="47.16491" lon="5.83053">
        <ele>221</ele>
        <time>2000-01-01T14:15:59.000Z</time>
      </trkpt>
      <trkpt lat="47.16466" lon="5.8305">
        <ele>222</ele>
        <time>2000-01-01T14:16:09.000Z</time>
      </trkpt>
      <trkpt lat="47.16446" lon="5.8304">
        <ele>224</ele>
        <time>2000-01-01T14:16:19.000Z</time>
      </trkpt>
      <trkpt lat="47.16432" lon="5.83009">
        <ele>226</ele>
        <time>2000-01-01T14:16:29.000Z</time>
      </trkpt>
      <trkpt lat="47.16427" lon="5.8297">
        <ele>228</ele>
        <time>2000-01-01T14:16:39.000Z</time>
      </trkpt>
      <trkpt lat="47.16421" lon="5.82916">
        <ele>230</ele>
        <time>2000-01-01T14:16:49.000Z</time>
      </trkpt>
      <trkpt lat="47.16413" lon="5.82869">
        <ele>233</ele>
        <time>2000-01-01T14:16:59.000Z</time>
      </trkpt>
      <trkpt lat="47.16405" lon="5.82822">
        <ele>240</ele>
        <time>2000-01-01T14:17:09.000Z</time>
      </trkpt>
      <trkpt lat="47.16399" lon="5.82788">
        <ele>240</ele>
        <time>2000-01-01T14:17:19.000Z</time>
      </trkpt>
      <trkpt lat="47.16393" lon="5.82751">
        <ele>239</ele>
        <time>2000-01-01T14:17:29.000Z</time>
      </trkpt>
      <trkpt lat="47.16391" lon="5.82748">
        <ele>238.3</ele>
        <time>2000-01-01T14:17:39.000Z</time>
      </trkpt>
      <trkpt lat="47.1639" lon="5.82744">
        <ele>238.6</ele>
        <time>2000-01-01T14:17:49.000Z</time>
      </trkpt>
      <trkpt lat="47.1638" lon="5.82726">
        <ele>239</ele>
        <time>2000-01-01T14:17:59.000Z</time>
      </trkpt>
      <trkpt lat="47.16378" lon="5.82723">
        <ele>239.4</ele>
        <time>2000-01-01T14:18:09.000Z</time>
      </trkpt>
      <trkpt lat="47.1637" lon="5.82712">
        <ele>239.7</ele>
        <time>2000-01-01T14:18:19.000Z</time>
      </trkpt>
      <trkpt lat="47.16366" lon="5.82708">
        <ele>239</ele>
        <time>2000-01-01T14:18:29.000Z</time>
      </trkpt>
      <trkpt lat="47.1636" lon="5.82699">
        <ele>240</ele>
        <time>2000-01-01T14:18:39.000Z</time>
      </trkpt>
      <trkpt lat="47.16358" lon="5.82696">
        <ele>240</ele>
        <time>2000-01-01T14:18:49.000Z</time>
      </trkpt>
      <trkpt lat="47.16348" lon="5.82688">
        <ele>239</ele>
        <time>2000-01-01T14:18:59.000Z</time>
      </trkpt>
      <trkpt lat="47.16345" lon="5.82686">
        <ele>239.8</ele>
        <time>2000-01-01T14:19:09.000Z</time>
      </trkpt>
      <trkpt lat="47.16337" lon="5.82682">
        <ele>239.6</ele>
        <time>2000-01-01T14:19:19.000Z</time>
      </trkpt>
      <trkpt lat="47.16321" lon="5.82677">
        <ele>239</ele>
        <time>2000-01-01T14:19:29.000Z</time>
      </trkpt>
      <trkpt lat="47.16307" lon="5.82673">
        <ele>238.8</ele>
        <time>2000-01-01T14:19:39.000Z</time>
      </trkpt>
      <trkpt lat="47.16303" lon="5.82672">
        <ele>238.6</ele>
        <time>2000-01-01T14:19:49.000Z</time>
      </trkpt>
      <trkpt lat="47.1628" lon="5.82662">
        <ele>237</ele>
        <time>2000-01-01T14:19:59.000Z</time>
      </trkpt>
      <trkpt lat="47.16274" lon="5.82659">
        <ele>237</ele>
        <time>2000-01-01T14:20:09.000Z</time>
      </trkpt>
      <trkpt lat="47.16257" lon="5.82652">
        <ele>237</ele>
        <time>2000-01-01T14:20:19.000Z</time>
      </trkpt>
      <trkpt lat="47.16225" lon="5.82638">
        <ele>238</ele>
        <time>2000-01-01T14:20:29.000Z</time>
      </trkpt>
      <trkpt lat="47.16205" lon="5.82628">
        <ele>238</ele>
        <time>2000-01-01T14:20:39.000Z</time>
      </trkpt>
      <trkpt lat="47.1619" lon="5.82623">
        <ele>238.5</ele>
        <time>2000-01-01T14:20:49.000Z</time>
      </trkpt>
      <trkpt lat="47.16171" lon="5.82621">
        <ele>238</ele>
        <time>2000-01-01T14:20:59.000Z</time>
      </trkpt>
      <trkpt lat="47.1614" lon="5.82617">
        <ele>240</ele>
        <time>2000-01-01T14:21:09.000Z</time>
      </trkpt>
      <trkpt lat="47.16112" lon="5.82614">
        <ele>243</ele>
        <time>2000-01-01T14:21:19.000Z</time>
      </trkpt>
      <trkpt lat="47.16084" lon="5.82609">
        <ele>245</ele>
        <time>2000-01-01T14:21:29.000Z</time>
      </trkpt>
      <trkpt lat="47.16072" lon="5.82608">
        <ele>245.4</ele>
        <time>2000-01-01T14:21:39.000Z</time>
      </trkpt>
      <trkpt lat="47.16063" lon="5.82607">
        <ele>245</ele>
        <time>2000-01-01T14:21:49.000Z</time>
      </trkpt>
      <trkpt lat="47.16052" lon="5.82608">
        <ele>245.7</ele>
        <time>2000-01-01T14:21:59.000Z</time>
      </trkpt>
      <trkpt lat="47.16041" lon="5.82612">
        <ele>246</ele>
        <time>2000-01-01T14:22:09.000Z</time>
      </trkpt>
      <trkpt lat="47.16029" lon="5.82619">
        <ele>245.3</ele>
        <time>2000-01-01T14:22:19.000Z</time>
      </trkpt>
      <trkpt lat="47.16017" lon="5.8263">
        <ele>246</ele>
        <time>2000-01-01T14:22:29.000Z</time>
      </trkpt>
      <trkpt lat="47.16004" lon="5.82644">
        <ele>247.9</ele>
        <time>2000-01-01T14:22:39.000Z</time>
      </trkpt>
      <trkpt lat="47.15995" lon="5.82655">
        <ele>248</ele>
        <time>2000-01-01T14:22:49.000Z</time>
      </trkpt>
      <trkpt lat="47.15992" lon="5.82659">
        <ele>249</ele>
        <time>2000-01-01T14:22:59.000Z</time>
      </trkpt>
      <trkpt lat="47.15979" lon="5.82674">
        <ele>249</ele>
        <time>2000-01-01T14:23:09.000Z</time>
      </trkpt>
      <trkpt lat="47.15971" lon="5.82682">
        <ele>251.2</ele>
        <time>2000-01-01T14:23:19.000Z</time>
      </trkpt>
      <trkpt lat="47.15961" lon="5.82698">
        <ele>252</ele>
        <time>2000-01-01T14:23:29.000Z</time>
      </trkpt>
      <trkpt lat="47.15948" lon="5.82716">
        <ele>252.3</ele>
        <time>2000-01-01T14:23:39.000Z</time>
      </trkpt>
      <trkpt lat="47.15945" lon="5.82721">
        <ele>252</ele>
        <time>2000-01-01T14:23:49.000Z</time>
      </trkpt>
      <trkpt lat="47.15929" lon="5.82738">
        <ele>250</ele>
        <time>2000-01-01T14:23:59.000Z</time>
      </trkpt>
      <trkpt lat="47.15913" lon="5.82756">
        <ele>248</ele>
        <time>2000-01-01T14:24:09.000Z</time>
      </trkpt>
      <trkpt lat="47.15895" lon="5.82773">
        <ele>248</ele>
        <time>2000-01-01T14:24:19.000Z</time>
      </trkpt>
      <trkpt lat="47.15885" lon="5.82778">
        <ele>248.8</ele>
        <time>2000-01-01T14:24:29.000Z</time>
      </trkpt>
      <trkpt lat="47.15876" lon="5.82778">
        <ele>248</ele>
        <time>2000-01-01T14:24:39.000Z</time>
      </trkpt>
      <trkpt lat="47.15859" lon="5.82782">
        <ele>247.3</ele>
        <time>2000-01-01T14:24:49.000Z</time>
      </trkpt>
      <trkpt lat="47.15841" lon="5.82793">
        <ele>246</ele>
        <time>2000-01-01T14:24:59.000Z</time>
      </trkpt>
      <trkpt lat="47.15823" lon="5.82807">
        <ele>246</ele>
        <time>2000-01-01T14:25:09.000Z</time>
      </trkpt>
      <trkpt lat="47.15796" lon="5.82834">
        <ele>246</ele>
        <time>2000-01-01T14:25:19.000Z</time>
      </trkpt>
      <trkpt lat="47.15772" lon="5.82861">
        <ele>247</ele>
        <time>2000-01-01T14:25:29.000Z</time>
      </trkpt>
      <trkpt lat="47.15756" lon="5.82881">
        <ele>248</ele>
        <time>2000-01-01T14:25:39.000Z</time>
      </trkpt>
      <trkpt lat="47.15751" lon="5.82887">
        <ele>249.8</ele>
        <time>2000-01-01T14:25:49.000Z</time>
      </trkpt>
      <trkpt lat="47.15732" lon="5.82913">
        <ele>251</ele>
        <time>2000-01-01T14:25:59.000Z</time>
      </trkpt>
      <trkpt lat="47.15713" lon="5.82947">
        <ele>253</ele>
        <time>2000-01-01T14:26:09.000Z</time>
      </trkpt>
      <trkpt lat="47.15698" lon="5.82982">
        <ele>255</ele>
        <time>2000-01-01T14:26:19.000Z</time>
      </trkpt>
      <trkpt lat="47.15684" lon="5.83012">
        <ele>256</ele>
        <time>2000-01-01T14:26:29.000Z</time>
      </trkpt>
      <trkpt lat="47.15671" lon="5.83048">
        <ele>258</ele>
        <time>2000-01-01T14:26:39.000Z</time>
      </trkpt>
      <trkpt lat="47.1566" lon="5.83073">
        <ele>259</ele>
        <time>2000-01-01T14:26:49.000Z</time>
      </trkpt>
      <trkpt lat="47.15635" lon="5.83063">
        <ele>259</ele>
        <time>2000-01-01T14:26:59.000Z</time>
      </trkpt>
      <trkpt lat="47.15612" lon="5.8305">
        <ele>259</ele>
        <time>2000-01-01T14:27:09.000Z</time>
      </trkpt>
      <trkpt lat="47.15578" lon="5.83027">
        <ele>259</ele>
        <time>2000-01-01T14:27:19.000Z</time>
      </trkpt>
      <trkpt lat="47.15557" lon="5.83012">
        <ele>259</ele>
        <time>2000-01-01T14:27:29.000Z</time>
      </trkpt>
      <trkpt lat="47.15536" lon="5.82997">
        <ele>258</ele>
        <time>2000-01-01T14:27:39.000Z</time>
      </trkpt>
      <trkpt lat="47.15523" lon="5.82991">
        <ele>258.2</ele>
        <time>2000-01-01T14:27:49.000Z</time>
      </trkpt>
      <trkpt lat="47.15501" lon="5.82984">
        <ele>257</ele>
        <time>2000-01-01T14:27:59.000Z</time>
      </trkpt>
      <trkpt lat="47.15488" lon="5.83019">
        <ele>257</ele>
        <time>2000-01-01T14:28:09.000Z</time>
      </trkpt>
      <trkpt lat="47.15479" lon="5.83045">
        <ele>259</ele>
        <time>2000-01-01T14:28:19.000Z</time>
      </trkpt>
      <trkpt lat="47.15467" lon="5.83088">
        <ele>261</ele>
        <time>2000-01-01T14:28:29.000Z</time>
      </trkpt>
      <trkpt lat="47.15462" lon="5.8311">
        <ele>262.9</ele>
        <time>2000-01-01T14:28:39.000Z</time>
      </trkpt>
      <trkpt lat="47.1546" lon="5.83128">
        <ele>263</ele>
        <time>2000-01-01T14:28:49.000Z</time>
      </trkpt>
      <trkpt lat="47.15459" lon="5.83137">
        <ele>264.4</ele>
        <time>2000-01-01T14:28:59.000Z</time>
      </trkpt>
      <trkpt lat="47.15454" lon="5.83144">
        <ele>264.5</ele>
        <time>2000-01-01T14:29:09.000Z</time>
      </trkpt>
      <trkpt lat="47.15444" lon="5.8315">
        <ele>264</ele>
        <time>2000-01-01T14:29:19.000Z</time>
      </trkpt>
      <trkpt lat="47.15417" lon="5.83168">
        <ele>264</ele>
        <time>2000-01-01T14:29:29.000Z</time>
      </trkpt>
      <trkpt lat="47.15395" lon="5.83183">
        <ele>265</ele>
        <time>2000-01-01T14:29:39.000Z</time>
      </trkpt>
      <trkpt lat="47.15367" lon="5.83201">
        <ele>265</ele>
        <time>2000-01-01T14:29:49.000Z</time>
      </trkpt>
      <trkpt lat="47.15346" lon="5.83213">
        <ele>265</ele>
        <time>2000-01-01T14:29:59.000Z</time>
      </trkpt>
      <trkpt lat="47.15324" lon="5.83224">
        <ele>264</ele>
        <time>2000-01-01T14:30:09.000Z</time>
      </trkpt>
      <trkpt lat="47.153" lon="5.83234">
        <ele>264</ele>
        <time>2000-01-01T14:30:19.000Z</time>
      </trkpt>
      <trkpt lat="47.15273" lon="5.83246">
        <ele>266</ele>
        <time>2000-01-01T14:30:29.000Z</time>
      </trkpt>
      <trkpt lat="47.15247" lon="5.83269">
        <ele>267</ele>
        <time>2000-01-01T14:30:39.000Z</time>
      </trkpt>
      <trkpt lat="47.15217" lon="5.83298">
        <ele>269</ele>
        <time>2000-01-01T14:30:49.000Z</time>
      </trkpt>
      <trkpt lat="47.15186" lon="5.83328">
        <ele>271</ele>
        <time>2000-01-01T14:30:59.000Z</time>
      </trkpt>
      <trkpt lat="47.15186" lon="5.83328">
        <ele>271.5</ele>
        <time>2000-01-01T14:31:09.000Z</time>
      </trkpt>
      <trkpt lat="47.15161" lon="5.83376">
        <ele>273</ele>
        <time>2000-01-01T14:31:19.000Z</time>
      </trkpt>
      <trkpt lat="47.15153" lon="5.83425">
        <ele>273</ele>
        <time>2000-01-01T14:31:29.000Z</time>
      </trkpt>
      <trkpt lat="47.15148" lon="5.8349">
        <ele>267</ele>
        <time>2000-01-01T14:31:39.000Z</time>
      </trkpt>
      <trkpt lat="47.15149" lon="5.83535">
        <ele>265</ele>
        <time>2000-01-01T14:31:49.000Z</time>
      </trkpt>
      <trkpt lat="47.15155" lon="5.8356">
        <ele>264</ele>
        <time>2000-01-01T14:31:59.000Z</time>
      </trkpt>
      <trkpt lat="47.15177" lon="5.83612">
        <ele>264</ele>
        <time>2000-01-01T14:32:09.000Z</time>
      </trkpt>
      <trkpt lat="47.15189" lon="5.83642">
        <ele>264</ele>
        <time>2000-01-01T14:32:19.000Z</time>
      </trkpt>
      <trkpt lat="47.15201" lon="5.83675">
        <ele>265</ele>
        <time>2000-01-01T14:32:29.000Z</time>
      </trkpt>
      <trkpt lat="47.15218" lon="5.83722">
        <ele>265</ele>
        <time>2000-01-01T14:32:39.000Z</time>
      </trkpt>
      <trkpt lat="47.15219" lon="5.83739">
        <ele>264.6</ele>
        <time>2000-01-01T14:32:49.000Z</time>
      </trkpt>
      <trkpt lat="47.1523" lon="5.83808">
        <ele>263</ele>
        <time>2000-01-01T14:32:59.000Z</time>
      </trkpt>
      <trkpt lat="47.15241" lon="5.83861">
        <ele>261</ele>
        <time>2000-01-01T14:33:09.000Z</time>
      </trkpt>
      <trkpt lat="47.15249" lon="5.83894">
        <ele>261</ele>
        <time>2000-01-01T14:33:19.000Z</time>
      </trkpt>
      <trkpt lat="47.15263" lon="5.83939">
        <ele>262</ele>
        <time>2000-01-01T14:33:29.000Z</time>
      </trkpt>
      <trkpt lat="47.15268" lon="5.83974">
        <ele>262</ele>
        <time>2000-01-01T14:33:39.000Z</time>
      </trkpt>
      <trkpt lat="47.15275" lon="5.84022">
        <ele>260</ele>
        <time>2000-01-01T14:33:49.000Z</time>
      </trkpt>
      <trkpt lat="47.15279" lon="5.84058">
        <ele>260</ele>
        <time>2000-01-01T14:33:59.000Z</time>
      </trkpt>
      <trkpt lat="47.15284" lon="5.841">
        <ele>260</ele>
        <time>2000-01-01T14:34:09.000Z</time>
      </trkpt>
      <trkpt lat="47.15287" lon="5.84141">
        <ele>263</ele>
        <time>2000-01-01T14:34:19.000Z</time>
      </trkpt>
      <trkpt lat="47.15289" lon="5.84181">
        <ele>264</ele>
        <time>2000-01-01T14:34:29.000Z</time>
      </trkpt>
      <trkpt lat="47.15299" lon="5.84222">
        <ele>265</ele>
        <time>2000-01-01T14:34:39.000Z</time>
      </trkpt>
      <trkpt lat="47.1531" lon="5.84255">
        <ele>268</ele>
        <time>2000-01-01T14:34:49.000Z</time>
      </trkpt>
      <trkpt lat="47.15321" lon="5.84281">
        <ele>270</ele>
        <time>2000-01-01T14:34:59.000Z</time>
      </trkpt>
      <trkpt lat="47.15341" lon="5.84327">
        <ele>271</ele>
        <time>2000-01-01T14:35:09.000Z</time>
      </trkpt>
      <trkpt lat="47.15361" lon="5.84373">
        <ele>271</ele>
        <time>2000-01-01T14:35:19.000Z</time>
      </trkpt>
      <trkpt lat="47.15383" lon="5.84425">
        <ele>271</ele>
        <time>2000-01-01T14:35:29.000Z</time>
      </trkpt>
      <trkpt lat="47.15405" lon="5.84459">
        <ele>271</ele>
        <time>2000-01-01T14:35:39.000Z</time>
      </trkpt>
      <trkpt lat="47.15412" lon="5.84481">
        <ele>268.9</ele>
        <time>2000-01-01T14:35:49.000Z</time>
      </trkpt>
      <trkpt lat="47.15386" lon="5.84581">
        <ele>260</ele>
        <time>2000-01-01T14:35:59.000Z</time>
      </trkpt>
      <trkpt lat="47.15391" lon="5.84616">
        <ele>255</ele>
        <time>2000-01-01T14:36:09.000Z</time>
      </trkpt>
      <trkpt lat="47.15396" lon="5.84656">
        <ele>251</ele>
        <time>2000-01-01T14:36:19.000Z</time>
      </trkpt>
      <trkpt lat="47.15404" lon="5.84692">
        <ele>250</ele>
        <time>2000-01-01T14:36:29.000Z</time>
      </trkpt>
      <trkpt lat="47.15414" lon="5.84737">
        <ele>245</ele>
        <time>2000-01-01T14:36:39.000Z</time>
      </trkpt>
      <trkpt lat="47.15414" lon="5.8476">
        <ele>243.2</ele>
        <time>2000-01-01T14:36:49.000Z</time>
      </trkpt>
      <trkpt lat="47.15412" lon="5.84771">
        <ele>245</ele>
        <time>2000-01-01T14:36:59.000Z</time>
      </trkpt>
      <trkpt lat="47.15423" lon="5.84809">
        <ele>246</ele>
        <time>2000-01-01T14:37:09.000Z</time>
      </trkpt>
      <trkpt lat="47.15404" lon="5.84788">
        <ele>248</ele>
        <time>2000-01-01T14:37:19.000Z</time>
      </trkpt>
      <trkpt lat="47.15385" lon="5.84784">
        <ele>252</ele>
        <time>2000-01-01T14:37:29.000Z</time>
      </trkpt>
      <trkpt lat="47.15372" lon="5.84803">
        <ele>251.6</ele>
        <time>2000-01-01T14:37:39.000Z</time>
      </trkpt>
      <trkpt lat="47.15358" lon="5.84824">
        <ele>256</ele>
        <time>2000-01-01T14:37:49.000Z</time>
      </trkpt>
      <trkpt lat="47.15344" lon="5.84822">
        <ele>259</ele>
        <time>2000-01-01T14:37:59.000Z</time>
      </trkpt>
      <trkpt lat="47.15329" lon="5.84804">
        <ele>270</ele>
        <time>2000-01-01T14:38:09.000Z</time>
      </trkpt>
      <trkpt lat="47.15317" lon="5.84787">
        <ele>271.1</ele>
        <time>2000-01-01T14:38:19.000Z</time>
      </trkpt>
      <trkpt lat="47.15305" lon="5.8476">
        <ele>276</ele>
        <time>2000-01-01T14:38:29.000Z</time>
      </trkpt>
      <trkpt lat="47.1529" lon="5.8473">
        <ele>280</ele>
        <time>2000-01-01T14:38:39.000Z</time>
      </trkpt>
      <trkpt lat="47.15275" lon="5.84703">
        <ele>285</ele>
        <time>2000-01-01T14:38:49.000Z</time>
      </trkpt>
      <trkpt lat="47.15264" lon="5.84699">
        <ele>287</ele>
        <time>2000-01-01T14:38:59.000Z</time>
      </trkpt>
      <trkpt lat="47.15264" lon="5.84724">
        <ele>290</ele>
        <time>2000-01-01T14:39:09.000Z</time>
      </trkpt>
      <trkpt lat="47.15269" lon="5.84746">
        <ele>290.5</ele>
        <time>2000-01-01T14:39:19.000Z</time>
      </trkpt>
      <trkpt lat="47.15268" lon="5.84762">
        <ele>294</ele>
        <time>2000-01-01T14:39:29.000Z</time>
      </trkpt>
      <trkpt lat="47.15261" lon="5.84767">
        <ele>292.9</ele>
        <time>2000-01-01T14:39:39.000Z</time>
      </trkpt>
      <trkpt lat="47.15252" lon="5.84761">
        <ele>295.6</ele>
        <time>2000-01-01T14:39:49.000Z</time>
      </trkpt>
      <trkpt lat="47.15244" lon="5.84747">
        <ele>299</ele>
        <time>2000-01-01T14:39:59.000Z</time>
      </trkpt>
      <trkpt lat="47.15233" lon="5.84736">
        <ele>298.8</ele>
        <time>2000-01-01T14:40:09.000Z</time>
      </trkpt>
      <trkpt lat="47.15214" lon="5.84734">
        <ele>299</ele>
        <time>2000-01-01T14:40:19.000Z</time>
      </trkpt>
      <trkpt lat="47.15193" lon="5.84732">
        <ele>300</ele>
        <time>2000-01-01T14:40:29.000Z</time>
      </trkpt>
      <trkpt lat="47.15185" lon="5.84719">
        <ele>303</ele>
        <time>2000-01-01T14:40:39.000Z</time>
      </trkpt>
      <trkpt lat="47.15175" lon="5.84713">
        <ele>306</ele>
        <time>2000-01-01T14:40:49.000Z</time>
      </trkpt>
      <trkpt lat="47.15162" lon="5.84722">
        <ele>305.6</ele>
        <time>2000-01-01T14:40:59.000Z</time>
      </trkpt>
      <trkpt lat="47.15143" lon="5.84722">
        <ele>313</ele>
        <time>2000-01-01T14:41:09.000Z</time>
      </trkpt>
      <trkpt lat="47.15123" lon="5.84709">
        <ele>316</ele>
        <time>2000-01-01T14:41:19.000Z</time>
      </trkpt>
      <trkpt lat="47.15109" lon="5.84674">
        <ele>318</ele>
        <time>2000-01-01T14:41:29.000Z</time>
      </trkpt>
      <trkpt lat="47.15094" lon="5.84643">
        <ele>319</ele>
        <time>2000-01-01T14:41:39.000Z</time>
      </trkpt>
      <trkpt lat="47.15074" lon="5.84618">
        <ele>321</ele>
        <time>2000-01-01T14:41:49.000Z</time>
      </trkpt>
      <trkpt lat="47.15045" lon="5.84583">
        <ele>322</ele>
        <time>2000-01-01T14:41:59.000Z</time>
      </trkpt>
      <trkpt lat="47.15027" lon="5.84558">
        <ele>323</ele>
        <time>2000-01-01T14:42:09.000Z</time>
      </trkpt>
      <trkpt lat="47.15006" lon="5.84528">
        <ele>325</ele>
        <time>2000-01-01T14:42:19.000Z</time>
      </trkpt>
      <trkpt lat="47.15004" lon="5.84502">
        <ele>326.7</ele>
        <time>2000-01-01T14:42:29.000Z</time>
      </trkpt>
      <trkpt lat="47.15008" lon="5.84469">
        <ele>329</ele>
        <time>2000-01-01T14:42:39.000Z</time>
      </trkpt>
      <trkpt lat="47.14985" lon="5.84418">
        <ele>333</ele>
        <time>2000-01-01T14:42:49.000Z</time>
      </trkpt>
      <trkpt lat="47.14973" lon="5.8439">
        <ele>334</ele>
        <time>2000-01-01T14:42:59.000Z</time>
      </trkpt>
      <trkpt lat="47.14958" lon="5.84358">
        <ele>336</ele>
        <time>2000-01-01T14:43:09.000Z</time>
      </trkpt>
      <trkpt lat="47.14938" lon="5.84317">
        <ele>337</ele>
        <time>2000-01-01T14:43:19.000Z</time>
      </trkpt>
      <trkpt lat="47.14909" lon="5.84298">
        <ele>339</ele>
        <time>2000-01-01T14:43:29.000Z</time>
      </trkpt>
      <trkpt lat="47.14879" lon="5.84267">
        <ele>341</ele>
        <time>2000-01-01T14:43:39.000Z</time>
      </trkpt>
      <trkpt lat="47.14861" lon="5.84238">
        <ele>341</ele>
        <time>2000-01-01T14:43:49.000Z</time>
      </trkpt>
      <trkpt lat="47.1483" lon="5.84215">
        <ele>342</ele>
        <time>2000-01-01T14:43:59.000Z</time>
      </trkpt>
      <trkpt lat="47.14799" lon="5.84192">
        <ele>343</ele>
        <time>2000-01-01T14:44:09.000Z</time>
      </trkpt>
      <trkpt lat="47.14768" lon="5.84169">
        <ele>343</ele>
        <time>2000-01-01T14:44:19.000Z</time>
      </trkpt>
      <trkpt lat="47.14733" lon="5.84143">
        <ele>344</ele>
        <time>2000-01-01T14:44:29.000Z</time>
      </trkpt>
      <trkpt lat="47.14733" lon="5.84143">
        <ele>344.9</ele>
        <time>2000-01-01T14:44:39.000Z</time>
      </trkpt>
      <trkpt lat="47.14676" lon="5.84102">
        <ele>348</ele>
        <time>2000-01-01T14:44:49.000Z</time>
      </trkpt>
      <trkpt lat="47.14651" lon="5.84078">
        <ele>349</ele>
        <time>2000-01-01T14:44:59.000Z</time>
      </trkpt>
      <trkpt lat="47.14639" lon="5.84069">
        <ele>349.5</ele>
        <time>2000-01-01T14:45:09.000Z</time>
      </trkpt>
      <trkpt lat="47.14628" lon="5.84059">
        <ele>351</ele>
        <time>2000-01-01T14:45:19.000Z</time>
      </trkpt>
      <trkpt lat="47.14608" lon="5.84038">
        <ele>352</ele>
        <time>2000-01-01T14:45:29.000Z</time>
      </trkpt>
      <trkpt lat="47.14599" lon="5.8402">
        <ele>352.5</ele>
        <time>2000-01-01T14:45:39.000Z</time>
      </trkpt>
      <trkpt lat="47.1459" lon="5.83998">
        <ele>352</ele>
        <time>2000-01-01T14:45:49.000Z</time>
      </trkpt>
      <trkpt lat="47.14579" lon="5.83967">
        <ele>351</ele>
        <time>2000-01-01T14:45:59.000Z</time>
      </trkpt>
      <trkpt lat="47.14557" lon="5.83932">
        <ele>351</ele>
        <time>2000-01-01T14:46:09.000Z</time>
      </trkpt>
      <trkpt lat="47.14532" lon="5.83891">
        <ele>350</ele>
        <time>2000-01-01T14:46:19.000Z</time>
      </trkpt>
      <trkpt lat="47.1452" lon="5.83845">
        <ele>350</ele>
        <time>2000-01-01T14:46:29.000Z</time>
      </trkpt>
      <trkpt lat="47.1452" lon="5.83804">
        <ele>350</ele>
        <time>2000-01-01T14:46:39.000Z</time>
      </trkpt>
      <trkpt lat="47.14518" lon="5.83774">
        <ele>349</ele>
        <time>2000-01-01T14:46:49.000Z</time>
      </trkpt>
      <trkpt lat="47.14526" lon="5.83754">
        <ele>351</ele>
        <time>2000-01-01T14:46:59.000Z</time>
      </trkpt>
      <trkpt lat="47.14536" lon="5.83727">
        <ele>349</ele>
        <time>2000-01-01T14:47:09.000Z</time>
      </trkpt>
      <trkpt lat="47.14536" lon="5.83709">
        <ele>349.5</ele>
        <time>2000-01-01T14:47:19.000Z</time>
      </trkpt>
      <trkpt lat="47.14522" lon="5.83681">
        <ele>347</ele>
        <time>2000-01-01T14:47:29.000Z</time>
      </trkpt>
      <trkpt lat="47.14518" lon="5.83645">
        <ele>345</ele>
        <time>2000-01-01T14:47:39.000Z</time>
      </trkpt>
      <trkpt lat="47.14501" lon="5.83609">
        <ele>343</ele>
        <time>2000-01-01T14:47:49.000Z</time>
      </trkpt>
      <trkpt lat="47.1449" lon="5.83597">
        <ele>342.4</ele>
        <time>2000-01-01T14:47:59.000Z</time>
      </trkpt>
      <trkpt lat="47.14464" lon="5.83584">
        <ele>340</ele>
        <time>2000-01-01T14:48:09.000Z</time>
      </trkpt>
      <trkpt lat="47.14446" lon="5.83574">
        <ele>339</ele>
        <time>2000-01-01T14:48:19.000Z</time>
      </trkpt>
      <trkpt lat="47.1442" lon="5.83552">
        <ele>337</ele>
        <time>2000-01-01T14:48:29.000Z</time>
      </trkpt>
      <trkpt lat="47.14398" lon="5.83525">
        <ele>336</ele>
        <time>2000-01-01T14:48:39.000Z</time>
      </trkpt>
      <trkpt lat="47.14372" lon="5.83476">
        <ele>336</ele>
        <time>2000-01-01T14:48:49.000Z</time>
      </trkpt>
      <trkpt lat="47.14351" lon="5.83459">
        <ele>337</ele>
        <time>2000-01-01T14:48:59.000Z</time>
      </trkpt>
      <trkpt lat="47.1433" lon="5.83441">
        <ele>337</ele>
        <time>2000-01-01T14:49:09.000Z</time>
      </trkpt>
      <trkpt lat="47.14316" lon="5.83429">
        <ele>337.5</ele>
        <time>2000-01-01T14:49:19.000Z</time>
      </trkpt>
      <trkpt lat="47.14278" lon="5.83409">
        <ele>334</ele>
        <time>2000-01-01T14:49:29.000Z</time>
      </trkpt>
      <trkpt lat="47.14255" lon="5.83393">
        <ele>332</ele>
        <time>2000-01-01T14:49:39.000Z</time>
      </trkpt>
      <trkpt lat="47.14223" lon="5.83371">
        <ele>330</ele>
        <time>2000-01-01T14:49:49.000Z</time>
      </trkpt>
      <trkpt lat="47.14198" lon="5.83355">
        <ele>329</ele>
        <time>2000-01-01T14:49:59.000Z</time>
      </trkpt>
      <trkpt lat="47.1417" lon="5.83332">
        <ele>328</ele>
        <time>2000-01-01T14:50:09.000Z</time>
      </trkpt>
      <trkpt lat="47.14152" lon="5.83317">
        <ele>326</ele>
        <time>2000-01-01T14:50:19.000Z</time>
      </trkpt>
      <trkpt lat="47.14142" lon="5.8331">
        <ele>325.2</ele>
        <time>2000-01-01T14:50:29.000Z</time>
      </trkpt>
      <trkpt lat="47.14134" lon="5.83304">
        <ele>323</ele>
        <time>2000-01-01T14:50:39.000Z</time>
      </trkpt>
      <trkpt lat="47.14126" lon="5.833">
        <ele>323.1</ele>
        <time>2000-01-01T14:50:49.000Z</time>
      </trkpt>
      <trkpt lat="47.1411" lon="5.83277">
        <ele>320</ele>
        <time>2000-01-01T14:50:59.000Z</time>
      </trkpt>
      <trkpt lat="47.14092" lon="5.83252">
        <ele>319</ele>
        <time>2000-01-01T14:51:09.000Z</time>
      </trkpt>
      <trkpt lat="47.14072" lon="5.83225">
        <ele>316</ele>
        <time>2000-01-01T14:51:19.000Z</time>
      </trkpt>
      <trkpt lat="47.14059" lon="5.83187">
        <ele>314</ele>
        <time>2000-01-01T14:51:29.000Z</time>
      </trkpt>
      <trkpt lat="47.14049" lon="5.83155">
        <ele>312</ele>
        <time>2000-01-01T14:51:39.000Z</time>
      </trkpt>
      <trkpt lat="47.14037" lon="5.8312">
        <ele>312</ele>
        <time>2000-01-01T14:51:49.000Z</time>
      </trkpt>
      <trkpt lat="47.14042" lon="5.8307">
        <ele>314</ele>
        <time>2000-01-01T14:51:59.000Z</time>
      </trkpt>
      <trkpt lat="47.14047" lon="5.8302">
        <ele>314</ele>
        <time>2000-01-01T14:52:09.000Z</time>
      </trkpt>
      <trkpt lat="47.1405" lon="5.82981">
        <ele>313</ele>
        <time>2000-01-01T14:52:19.000Z</time>
      </trkpt>
      <trkpt lat="47.14056" lon="5.82923">
        <ele>312</ele>
        <time>2000-01-01T14:52:29.000Z</time>
      </trkpt>
      <trkpt lat="47.14054" lon="5.82887">
        <ele>310</ele>
        <time>2000-01-01T14:52:39.000Z</time>
      </trkpt>
      <trkpt lat="47.14056" lon="5.82849">
        <ele>309</ele>
        <time>2000-01-01T14:52:49.000Z</time>
      </trkpt>
      <trkpt lat="47.14051" lon="5.82817">
        <ele>308</ele>
        <time>2000-01-01T14:52:59.000Z</time>
      </trkpt>
      <trkpt lat="47.14034" lon="5.8279">
        <ele>304</ele>
        <time>2000-01-01T14:53:09.000Z</time>
      </trkpt>
      <trkpt lat="47.14014" lon="5.82757">
        <ele>302</ele>
        <time>2000-01-01T14:53:19.000Z</time>
      </trkpt>
      <trkpt lat="47.13988" lon="5.82718">
        <ele>298</ele>
        <time>2000-01-01T14:53:29.000Z</time>
      </trkpt>
      <trkpt lat="47.13971" lon="5.82672">
        <ele>297</ele>
        <time>2000-01-01T14:53:39.000Z</time>
      </trkpt>
      <trkpt lat="47.13955" lon="5.82616">
        <ele>295</ele>
        <time>2000-01-01T14:53:49.000Z</time>
      </trkpt>
      <trkpt lat="47.1395" lon="5.82597">
        <ele>295</ele>
        <time>2000-01-01T14:53:59.000Z</time>
      </trkpt>
      <trkpt lat="47.13949" lon="5.82574">
        <ele>294</ele>
        <time>2000-01-01T14:54:09.000Z</time>
      </trkpt>
      <trkpt lat="47.1395" lon="5.82564">
        <ele>294</ele>
        <time>2000-01-01T14:54:19.000Z</time>
      </trkpt>
      <trkpt lat="47.13955" lon="5.82553">
        <ele>293.1</ele>
        <time>2000-01-01T14:54:29.000Z</time>
      </trkpt>
      <trkpt lat="47.13919" lon="5.82481">
        <ele>292</ele>
        <time>2000-01-01T14:54:39.000Z</time>
      </trkpt>
      <trkpt lat="47.13914" lon="5.82447">
        <ele>291</ele>
        <time>2000-01-01T14:54:49.000Z</time>
      </trkpt>
      <trkpt lat="47.13907" lon="5.82409">
        <ele>290</ele>
        <time>2000-01-01T14:54:59.000Z</time>
      </trkpt>
      <trkpt lat="47.13902" lon="5.82383">
        <ele>289.7</ele>
        <time>2000-01-01T14:55:09.000Z</time>
      </trkpt>
      <trkpt lat="47.13891" lon="5.82367">
        <ele>291</ele>
        <time>2000-01-01T14:55:19.000Z</time>
      </trkpt>
      <trkpt lat="47.13868" lon="5.82342">
        <ele>292</ele>
        <time>2000-01-01T14:55:29.000Z</time>
      </trkpt>
      <trkpt lat="47.13845" lon="5.82322">
        <ele>292</ele>
        <time>2000-01-01T14:55:39.000Z</time>
      </trkpt>
      <trkpt lat="47.13832" lon="5.82307">
        <ele>293.1</ele>
        <time>2000-01-01T14:55:49.000Z</time>
      </trkpt>
      <trkpt lat="47.13801" lon="5.82254">
        <ele>292</ele>
        <time>2000-01-01T14:55:59.000Z</time>
      </trkpt>
      <trkpt lat="47.13776" lon="5.82242">
        <ele>291</ele>
        <time>2000-01-01T14:56:09.000Z</time>
      </trkpt>
      <trkpt lat="47.13747" lon="5.82229">
        <ele>291</ele>
        <time>2000-01-01T14:56:19.000Z</time>
      </trkpt>
      <trkpt lat="47.13727" lon="5.82211">
        <ele>290</ele>
        <time>2000-01-01T14:56:29.000Z</time>
      </trkpt>
      <trkpt lat="47.13705" lon="5.8219">
        <ele>288</ele>
        <time>2000-01-01T14:56:39.000Z</time>
      </trkpt>
      <trkpt lat="47.13682" lon="5.82174">
        <ele>287</ele>
        <time>2000-01-01T14:56:49.000Z</time>
      </trkpt>
      <trkpt lat="47.13651" lon="5.82152">
        <ele>283</ele>
        <time>2000-01-01T14:56:59.000Z</time>
      </trkpt>
      <trkpt lat="47.13631" lon="5.82121">
        <ele>281</ele>
        <time>2000-01-01T14:57:09.000Z</time>
      </trkpt>
      <trkpt lat="47.13608" lon="5.82081">
        <ele>277</ele>
        <time>2000-01-01T14:57:19.000Z</time>
      </trkpt>
      <trkpt lat="47.13599" lon="5.82073">
        <ele>277.3</ele>
        <time>2000-01-01T14:57:29.000Z</time>
      </trkpt>
      <trkpt lat="47.13592" lon="5.82065">
        <ele>276</ele>
        <time>2000-01-01T14:57:39.000Z</time>
      </trkpt>
      <trkpt lat="47.13583" lon="5.82056">
        <ele>275</ele>
        <time>2000-01-01T14:57:49.000Z</time>
      </trkpt>
      <trkpt lat="47.13572" lon="5.82045">
        <ele>272</ele>
        <time>2000-01-01T14:57:59.000Z</time>
      </trkpt>
      <trkpt lat="47.13562" lon="5.82034">
        <ele>271.9</ele>
        <time>2000-01-01T14:58:09.000Z</time>
      </trkpt>
      <trkpt lat="47.13553" lon="5.82026">
        <ele>269</ele>
        <time>2000-01-01T14:58:19.000Z</time>
      </trkpt>
      <trkpt lat="47.13545" lon="5.82019">
        <ele>269.5</ele>
        <time>2000-01-01T14:58:29.000Z</time>
      </trkpt>
      <trkpt lat="47.13541" lon="5.8201">
        <ele>268.9</ele>
        <time>2000-01-01T14:58:39.000Z</time>
      </trkpt>
      <trkpt lat="47.13538" lon="5.82">
        <ele>267</ele>
        <time>2000-01-01T14:58:49.000Z</time>
      </trkpt>
      <trkpt lat="47.13534" lon="5.81985">
        <ele>267.9</ele>
        <time>2000-01-01T14:58:59.000Z</time>
      </trkpt>
      <trkpt lat="47.1353" lon="5.81971">
        <ele>266</ele>
        <time>2000-01-01T14:59:09.000Z</time>
      </trkpt>
      <trkpt lat="47.13525" lon="5.81958">
        <ele>266.6</ele>
        <time>2000-01-01T14:59:19.000Z</time>
      </trkpt>
      <trkpt lat="47.13518" lon="5.81943">
        <ele>264</ele>
        <time>2000-01-01T14:59:29.000Z</time>
      </trkpt>
      <trkpt lat="47.13513" lon="5.81933">
        <ele>265.1</ele>
        <time>2000-01-01T14:59:39.000Z</time>
      </trkpt>
      <trkpt lat="47.13507" lon="5.81921">
        <ele>263</ele>
        <time>2000-01-01T14:59:49.000Z</time>
      </trkpt>
      <trkpt lat="47.135" lon="5.81908">
        <ele>263</ele>
        <time>2000-01-01T14:59:59.000Z</time>
      </trkpt>
      <trkpt lat="47.1349" lon="5.81893">
        <ele>261</ele>
        <time>2000-01-01T15:00:09.000Z</time>
      </trkpt>
      <trkpt lat="47.13483" lon="5.81883">
        <ele>261.3</ele>
        <time>2000-01-01T15:00:19.000Z</time>
      </trkpt>
      <trkpt lat="47.13477" lon="5.81873">
        <ele>260</ele>
        <time>2000-01-01T15:00:29.000Z</time>
      </trkpt>
      <trkpt lat="47.1347" lon="5.8186">
        <ele>259.8</ele>
        <time>2000-01-01T15:00:39.000Z</time>
      </trkpt>
      <trkpt lat="47.13466" lon="5.81849">
        <ele>258</ele>
        <time>2000-01-01T15:00:49.000Z</time>
      </trkpt>
      <trkpt lat="47.13461" lon="5.81834">
        <ele>259.4</ele>
        <time>2000-01-01T15:00:59.000Z</time>
      </trkpt>
      <trkpt lat="47.13454" lon="5.81816">
        <ele>258</ele>
        <time>2000-01-01T15:01:09.000Z</time>
      </trkpt>
      <trkpt lat="47.13447" lon="5.81803">
        <ele>258.6</ele>
        <time>2000-01-01T15:01:19.000Z</time>
      </trkpt>
      <trkpt lat="47.13442" lon="5.81796">
        <ele>258</ele>
        <time>2000-01-01T15:01:29.000Z</time>
      </trkpt>
      <trkpt lat="47.13434" lon="5.81786">
        <ele>258.4</ele>
        <time>2000-01-01T15:01:39.000Z</time>
      </trkpt>
      <trkpt lat="47.13422" lon="5.81773">
        <ele>258</ele>
        <time>2000-01-01T15:01:49.000Z</time>
      </trkpt>
      <trkpt lat="47.13408" lon="5.81755">
        <ele>258.1</ele>
        <time>2000-01-01T15:01:59.000Z</time>
      </trkpt>
      <trkpt lat="47.13396" lon="5.81744">
        <ele>258</ele>
        <time>2000-01-01T15:02:09.000Z</time>
      </trkpt>
      <trkpt lat="47.13382" lon="5.81726">
        <ele>259</ele>
        <time>2000-01-01T15:02:19.000Z</time>
      </trkpt>
      <trkpt lat="47.13364" lon="5.81702">
        <ele>260</ele>
        <time>2000-01-01T15:02:29.000Z</time>
      </trkpt>
      <trkpt lat="47.13351" lon="5.81687">
        <ele>262.9</ele>
        <time>2000-01-01T15:02:39.000Z</time>
      </trkpt>
      <trkpt lat="47.13351" lon="5.81687">
        <ele>262.9</ele>
        <time>2000-01-01T15:02:49.000Z</time>
      </trkpt>
      <trkpt lat="47.1334" lon="5.81678">
        <ele>265</ele>
        <time>2000-01-01T15:02:59.000Z</time>
      </trkpt>
      <trkpt lat="47.13334" lon="5.81671">
        <ele>265.5</ele>
        <time>2000-01-01T15:03:09.000Z</time>
      </trkpt>
      <trkpt lat="47.13328" lon="5.81659">
        <ele>268</ele>
        <time>2000-01-01T15:03:19.000Z</time>
      </trkpt>
      <trkpt lat="47.13322" lon="5.8165">
        <ele>268.2</ele>
        <time>2000-01-01T15:03:29.000Z</time>
      </trkpt>
      <trkpt lat="47.13314" lon="5.81642">
        <ele>269.2</ele>
        <time>2000-01-01T15:03:39.000Z</time>
      </trkpt>
      <trkpt lat="47.13305" lon="5.81638">
        <ele>271</ele>
        <time>2000-01-01T15:03:49.000Z</time>
      </trkpt>
      <trkpt lat="47.13299" lon="5.81636">
        <ele>270.5</ele>
        <time>2000-01-01T15:03:59.000Z</time>
      </trkpt>
      <trkpt lat="47.13292" lon="5.81633">
        <ele>270.9</ele>
        <time>2000-01-01T15:04:09.000Z</time>
      </trkpt>
      <trkpt lat="47.13271" lon="5.81654">
        <ele>271</ele>
        <time>2000-01-01T15:04:19.000Z</time>
      </trkpt>
      <trkpt lat="47.13258" lon="5.81666">
        <ele>270.7</ele>
        <time>2000-01-01T15:04:29.000Z</time>
      </trkpt>
      <trkpt lat="47.13249" lon="5.81673">
        <ele>270</ele>
        <time>2000-01-01T15:04:39.000Z</time>
      </trkpt>
      <trkpt lat="47.1324" lon="5.81678">
        <ele>270.3</ele>
        <time>2000-01-01T15:04:49.000Z</time>
      </trkpt>
      <trkpt lat="47.1323" lon="5.81682">
        <ele>270</ele>
        <time>2000-01-01T15:04:59.000Z</time>
      </trkpt>
      <trkpt lat="47.13219" lon="5.81687">
        <ele>270.4</ele>
        <time>2000-01-01T15:05:09.000Z</time>
      </trkpt>
      <trkpt lat="47.13205" lon="5.81692">
        <ele>271</ele>
        <time>2000-01-01T15:05:19.000Z</time>
      </trkpt>
      <trkpt lat="47.13193" lon="5.81696">
        <ele>271.1</ele>
        <time>2000-01-01T15:05:29.000Z</time>
      </trkpt>
      <trkpt lat="47.13181" lon="5.81703">
        <ele>271</ele>
        <time>2000-01-01T15:05:39.000Z</time>
      </trkpt>
      <trkpt lat="47.13172" lon="5.8171">
        <ele>271.8</ele>
        <time>2000-01-01T15:05:49.000Z</time>
      </trkpt>
      <trkpt lat="47.13163" lon="5.81719">
        <ele>272</ele>
        <time>2000-01-01T15:05:59.000Z</time>
      </trkpt>
      <trkpt lat="47.13155" lon="5.81728">
        <ele>272.5</ele>
        <time>2000-01-01T15:06:09.000Z</time>
      </trkpt>
      <trkpt lat="47.13149" lon="5.81735">
        <ele>272.9</ele>
        <time>2000-01-01T15:06:19.000Z</time>
      </trkpt>
      <trkpt lat="47.13141" lon="5.81745">
        <ele>273</ele>
        <time>2000-01-01T15:06:29.000Z</time>
      </trkpt>
      <trkpt lat="47.13133" lon="5.81758">
        <ele>274.1</ele>
        <time>2000-01-01T15:06:39.000Z</time>
      </trkpt>
      <trkpt lat="47.13125" lon="5.81772">
        <ele>274</ele>
        <time>2000-01-01T15:06:49.000Z</time>
      </trkpt>
      <trkpt lat="47.13117" lon="5.81784">
        <ele>275</ele>
        <time>2000-01-01T15:06:59.000Z</time>
      </trkpt>
      <trkpt lat="47.13108" lon="5.81799">
        <ele>275</ele>
        <time>2000-01-01T15:07:09.000Z</time>
      </trkpt>
      <trkpt lat="47.13099" lon="5.81815">
        <ele>276.8</ele>
        <time>2000-01-01T15:07:19.000Z</time>
      </trkpt>
      <trkpt lat="47.13082" lon="5.81849">
        <ele>278</ele>
        <time>2000-01-01T15:07:29.000Z</time>
      </trkpt>
      <trkpt lat="47.13076" lon="5.81861">
        <ele>279</ele>
        <time>2000-01-01T15:07:39.000Z</time>
      </trkpt>
      <trkpt lat="47.13069" lon="5.81876">
        <ele>279</ele>
        <time>2000-01-01T15:07:49.000Z</time>
      </trkpt>
      <trkpt lat="47.13061" lon="5.81894">
        <ele>280.1</ele>
        <time>2000-01-01T15:07:59.000Z</time>
      </trkpt>
      <trkpt lat="47.13052" lon="5.81914">
        <ele>280</ele>
        <time>2000-01-01T15:08:09.000Z</time>
      </trkpt>
      <trkpt lat="47.13044" lon="5.81935">
        <ele>281.7</ele>
        <time>2000-01-01T15:08:19.000Z</time>
      </trkpt>
      <trkpt lat="47.13034" lon="5.81958">
        <ele>282</ele>
        <time>2000-01-01T15:08:29.000Z</time>
      </trkpt>
      <trkpt lat="47.13023" lon="5.81984">
        <ele>282</ele>
        <time>2000-01-01T15:08:39.000Z</time>
      </trkpt>
      <trkpt lat="47.13016" lon="5.82001">
        <ele>283</ele>
        <time>2000-01-01T15:08:49.000Z</time>
      </trkpt>
      <trkpt lat="47.12997" lon="5.82044">
        <ele>283</ele>
        <time>2000-01-01T15:08:59.000Z</time>
      </trkpt>
      <trkpt lat="47.12971" lon="5.82098">
        <ele>284</ele>
        <time>2000-01-01T15:09:09.000Z</time>
      </trkpt>
      <trkpt lat="47.12946" lon="5.82152">
        <ele>285</ele>
        <time>2000-01-01T15:09:19.000Z</time>
      </trkpt>
      <trkpt lat="47.12938" lon="5.82171">
        <ele>286</ele>
        <time>2000-01-01T15:09:29.000Z</time>
      </trkpt>
      <trkpt lat="47.12933" lon="5.82181">
        <ele>286</ele>
        <time>2000-01-01T15:09:39.000Z</time>
      </trkpt>
      <trkpt lat="47.12926" lon="5.82195">
        <ele>286</ele>
        <time>2000-01-01T15:09:49.000Z</time>
      </trkpt>
      <trkpt lat="47.12921" lon="5.82208">
        <ele>286</ele>
        <time>2000-01-01T15:09:59.000Z</time>
      </trkpt>
      <trkpt lat="47.12917" lon="5.82216">
        <ele>286.8</ele>
        <time>2000-01-01T15:10:09.000Z</time>
      </trkpt>
      <trkpt lat="47.12913" lon="5.82226">
        <ele>286.9</ele>
        <time>2000-01-01T15:10:19.000Z</time>
      </trkpt>
      <trkpt lat="47.12908" lon="5.82234">
        <ele>286</ele>
        <time>2000-01-01T15:10:29.000Z</time>
      </trkpt>
      <trkpt lat="47.12904" lon="5.82242">
        <ele>286.9</ele>
        <time>2000-01-01T15:10:39.000Z</time>
      </trkpt>
      <trkpt lat="47.12898" lon="5.8225">
        <ele>287</ele>
        <time>2000-01-01T15:10:49.000Z</time>
      </trkpt>
      <trkpt lat="47.12889" lon="5.82259">
        <ele>286</ele>
        <time>2000-01-01T15:10:59.000Z</time>
      </trkpt>
      <trkpt lat="47.1288" lon="5.82266">
        <ele>287.4</ele>
        <time>2000-01-01T15:11:09.000Z</time>
      </trkpt>
      <trkpt lat="47.12868" lon="5.8227">
        <ele>286</ele>
        <time>2000-01-01T15:11:19.000Z</time>
      </trkpt>
      <trkpt lat="47.12851" lon="5.82274">
        <ele>286.6</ele>
        <time>2000-01-01T15:11:29.000Z</time>
      </trkpt>
      <trkpt lat="47.1284" lon="5.82277">
        <ele>285</ele>
        <time>2000-01-01T15:11:39.000Z</time>
      </trkpt>
      <trkpt lat="47.12834" lon="5.82279">
        <ele>286</ele>
        <time>2000-01-01T15:11:49.000Z</time>
      </trkpt>
      <trkpt lat="47.12826" lon="5.82286">
        <ele>285.7</ele>
        <time>2000-01-01T15:11:59.000Z</time>
      </trkpt>
      <trkpt lat="47.12819" lon="5.82292">
        <ele>285</ele>
        <time>2000-01-01T15:12:09.000Z</time>
      </trkpt>
      <trkpt lat="47.12809" lon="5.82302">
        <ele>285.1</ele>
        <time>2000-01-01T15:12:19.000Z</time>
      </trkpt>
      <trkpt lat="47.12802" lon="5.82313">
        <ele>285</ele>
        <time>2000-01-01T15:12:29.000Z</time>
      </trkpt>
      <trkpt lat="47.12787" lon="5.82335">
        <ele>284</ele>
        <time>2000-01-01T15:12:39.000Z</time>
      </trkpt>
      <trkpt lat="47.12775" lon="5.82354">
        <ele>284.7</ele>
        <time>2000-01-01T15:12:49.000Z</time>
      </trkpt>
      <trkpt lat="47.12768" lon="5.82365">
        <ele>284</ele>
        <time>2000-01-01T15:12:59.000Z</time>
      </trkpt>
      <trkpt lat="47.12759" lon="5.82381">
        <ele>284.3</ele>
        <time>2000-01-01T15:13:09.000Z</time>
      </trkpt>
      <trkpt lat="47.12759" lon="5.82381">
        <ele>284.3</ele>
        <time>2000-01-01T15:13:19.000Z</time>
      </trkpt>
      <trkpt lat="47.12768" lon="5.82365">
        <ele>284</ele>
        <time>2000-01-01T15:13:29.000Z</time>
      </trkpt>
      <trkpt lat="47.12768" lon="5.82365">
        <ele>284.6</ele>
        <time>2000-01-01T15:13:39.000Z</time>
      </trkpt>
      <trkpt lat="47.12759" lon="5.82381">
        <ele>284.3</ele>
        <time>2000-01-01T15:13:49.000Z</time>
      </trkpt>
      <trkpt lat="47.12759" lon="5.82381">
        <ele>284.3</ele>
        <time>2000-01-01T15:13:59.000Z</time>
      </trkpt>
      <trkpt lat="47.12768" lon="5.82365">
        <ele>284</ele>
        <time>2000-01-01T15:14:09.000Z</time>
      </trkpt>
      <trkpt lat="47.12775" lon="5.82354">
        <ele>284.7</ele>
        <time>2000-01-01T15:14:19.000Z</time>
      </trkpt>
      <trkpt lat="47.12775" lon="5.82354">
        <ele>284.7</ele>
        <time>2000-01-01T15:14:29.000Z</time>
      </trkpt>
      <trkpt lat="47.12775" lon="5.82354">
        <ele>284.7</ele>
        <time>2000-01-01T15:14:39.000Z</time>
      </trkpt>
      <trkpt lat="47.12768" lon="5.82365">
        <ele>284</ele>
        <time>2000-01-01T15:14:49.000Z</time>
      </trkpt>
      <trkpt lat="47.12759" lon="5.82381">
        <ele>284.3</ele>
        <time>2000-01-01T15:14:59.000Z</time>
      </trkpt>
      <trkpt lat="47.12748" lon="5.82399">
        <ele>284</ele>
        <time>2000-01-01T15:15:09.000Z</time>
      </trkpt>
      <trkpt lat="47.12736" lon="5.82419">
        <ele>283</ele>
        <time>2000-01-01T15:15:19.000Z</time>
      </trkpt>
      <trkpt lat="47.12733" lon="5.82424">
        <ele>283</ele>
        <time>2000-01-01T15:15:29.000Z</time>
      </trkpt>
      <trkpt lat="47.12724" lon="5.8244">
        <ele>283</ele>
        <time>2000-01-01T15:15:39.000Z</time>
      </trkpt>
      <trkpt lat="47.12716" lon="5.8245">
        <ele>282</ele>
        <time>2000-01-01T15:15:49.000Z</time>
      </trkpt>
      <trkpt lat="47.12706" lon="5.82462">
        <ele>282.3</ele>
        <time>2000-01-01T15:15:59.000Z</time>
      </trkpt>
      <trkpt lat="47.12686" lon="5.82482">
        <ele>281</ele>
        <time>2000-01-01T15:16:09.000Z</time>
      </trkpt>
      <trkpt lat="47.12681" lon="5.8249">
        <ele>281.5</ele>
        <time>2000-01-01T15:16:19.000Z</time>
      </trkpt>
      <trkpt lat="47.12671" lon="5.82501">
        <ele>280</ele>
        <time>2000-01-01T15:16:29.000Z</time>
      </trkpt>
      <trkpt lat="47.1266" lon="5.82514">
        <ele>281</ele>
        <time>2000-01-01T15:16:39.000Z</time>
      </trkpt>
      <trkpt lat="47.1265" lon="5.82528">
        <ele>280</ele>
        <time>2000-01-01T15:16:49.000Z</time>
      </trkpt>
      <trkpt lat="47.12642" lon="5.82539">
        <ele>280.6</ele>
        <time>2000-01-01T15:16:59.000Z</time>
      </trkpt>
      <trkpt lat="47.12635" lon="5.82551">
        <ele>279</ele>
        <time>2000-01-01T15:17:09.000Z</time>
      </trkpt>
      <trkpt lat="47.12632" lon="5.82558">
        <ele>280.2</ele>
        <time>2000-01-01T15:17:19.000Z</time>
      </trkpt>
      <trkpt lat="47.12629" lon="5.82574">
        <ele>279.7</ele>
        <time>2000-01-01T15:17:29.000Z</time>
      </trkpt>
      <trkpt lat="47.12627" lon="5.82582">
        <ele>279</ele>
        <time>2000-01-01T15:17:39.000Z</time>
      </trkpt>
      <trkpt lat="47.12624" lon="5.82595">
        <ele>279.1</ele>
        <time>2000-01-01T15:17:49.000Z</time>
      </trkpt>
      <trkpt lat="47.1262" lon="5.82615">
        <ele>278</ele>
        <time>2000-01-01T15:17:59.000Z</time>
      </trkpt>
      <trkpt lat="47.12614" lon="5.82641">
        <ele>276</ele>
        <time>2000-01-01T15:18:09.000Z</time>
      </trkpt>
      <trkpt lat="47.12608" lon="5.82674">
        <ele>275</ele>
        <time>2000-01-01T15:18:19.000Z</time>
      </trkpt>
      <trkpt lat="47.12603" lon="5.82694">
        <ele>275.6</ele>
        <time>2000-01-01T15:18:29.000Z</time>
      </trkpt>
      <trkpt lat="47.126" lon="5.82717">
        <ele>275</ele>
        <time>2000-01-01T15:18:39.000Z</time>
      </trkpt>
      <trkpt lat="47.12594" lon="5.82728">
        <ele>275.5</ele>
        <time>2000-01-01T15:18:49.000Z</time>
      </trkpt>
      <trkpt lat="47.12588" lon="5.82746">
        <ele>276</ele>
        <time>2000-01-01T15:18:59.000Z</time>
      </trkpt>
      <trkpt lat="47.1258" lon="5.82764">
        <ele>275.8</ele>
        <time>2000-01-01T15:19:09.000Z</time>
      </trkpt>
      <trkpt lat="47.12571" lon="5.82786">
        <ele>276</ele>
        <time>2000-01-01T15:19:19.000Z</time>
      </trkpt>
      <trkpt lat="47.12568" lon="5.82792">
        <ele>276.6</ele>
        <time>2000-01-01T15:19:29.000Z</time>
      </trkpt>
      <trkpt lat="47.12564" lon="5.82802">
        <ele>276.7</ele>
        <time>2000-01-01T15:19:39.000Z</time>
      </trkpt>
      <trkpt lat="47.12546" lon="5.82842">
        <ele>276</ele>
        <time>2000-01-01T15:19:49.000Z</time>
      </trkpt>
      <trkpt lat="47.12541" lon="5.82856">
        <ele>277.6</ele>
        <time>2000-01-01T15:19:59.000Z</time>
      </trkpt>
      <trkpt lat="47.12533" lon="5.82881">
        <ele>276</ele>
        <time>2000-01-01T15:20:09.000Z</time>
      </trkpt>
      <trkpt lat="47.12527" lon="5.82899">
        <ele>275.7</ele>
        <time>2000-01-01T15:20:19.000Z</time>
      </trkpt>
      <trkpt lat="47.12521" lon="5.82911">
        <ele>275</ele>
        <time>2000-01-01T15:20:29.000Z</time>
      </trkpt>
      <trkpt lat="47.12513" lon="5.82923">
        <ele>275.1</ele>
        <time>2000-01-01T15:20:39.000Z</time>
      </trkpt>
      <trkpt lat="47.12506" lon="5.82932">
        <ele>273</ele>
        <time>2000-01-01T15:20:49.000Z</time>
      </trkpt>
      <trkpt lat="47.125" lon="5.82936">
        <ele>272.8</ele>
        <time>2000-01-01T15:20:59.000Z</time>
      </trkpt>
      <trkpt lat="47.12492" lon="5.82938">
        <ele>271.7</ele>
        <time>2000-01-01T15:21:09.000Z</time>
      </trkpt>
      <trkpt lat="47.12485" lon="5.82938">
        <ele>272</ele>
        <time>2000-01-01T15:21:19.000Z</time>
      </trkpt>
      <trkpt lat="47.12476" lon="5.82937">
        <ele>270.6</ele>
        <time>2000-01-01T15:21:29.000Z</time>
      </trkpt>
      <trkpt lat="47.12458" lon="5.82932">
        <ele>270</ele>
        <time>2000-01-01T15:21:39.000Z</time>
      </trkpt>
      <trkpt lat="47.12445" lon="5.82928">
        <ele>269</ele>
        <time>2000-01-01T15:21:49.000Z</time>
      </trkpt>
      <trkpt lat="47.12434" lon="5.82925">
        <ele>268</ele>
        <time>2000-01-01T15:21:59.000Z</time>
      </trkpt>
      <trkpt lat="47.12423" lon="5.82923">
        <ele>268.5</ele>
        <time>2000-01-01T15:22:09.000Z</time>
      </trkpt>
      <trkpt lat="47.12411" lon="5.82922">
        <ele>267</ele>
        <time>2000-01-01T15:22:19.000Z</time>
      </trkpt>
      <trkpt lat="47.12399" lon="5.82925">
        <ele>266.9</ele>
        <time>2000-01-01T15:22:29.000Z</time>
      </trkpt>
      <trkpt lat="47.12389" lon="5.82928">
        <ele>266</ele>
        <time>2000-01-01T15:22:39.000Z</time>
      </trkpt>
      <trkpt lat="47.12381" lon="5.82934">
        <ele>265.5</ele>
        <time>2000-01-01T15:22:49.000Z</time>
      </trkpt>
      <trkpt lat="47.12373" lon="5.8294">
        <ele>264.7</ele>
        <time>2000-01-01T15:22:59.000Z</time>
      </trkpt>
      <trkpt lat="47.12373" lon="5.8294">
        <ele>264.7</ele>
        <time>2000-01-01T15:23:09.000Z</time>
      </trkpt>
      <trkpt lat="47.12371" lon="5.82942">
        <ele>265</ele>
        <time>2000-01-01T15:23:19.000Z</time>
      </trkpt>
      <trkpt lat="47.12362" lon="5.82951">
        <ele>263.8</ele>
        <time>2000-01-01T15:23:29.000Z</time>
      </trkpt>
      <trkpt lat="47.12349" lon="5.82968">
        <ele>262</ele>
        <time>2000-01-01T15:23:39.000Z</time>
      </trkpt>
      <trkpt lat="47.12334" lon="5.8299">
        <ele>262</ele>
        <time>2000-01-01T15:23:49.000Z</time>
      </trkpt>
      <trkpt lat="47.12324" lon="5.83">
        <ele>261.7</ele>
        <time>2000-01-01T15:23:59.000Z</time>
      </trkpt>
      <trkpt lat="47.12307" lon="5.8302">
        <ele>260</ele>
        <time>2000-01-01T15:24:09.000Z</time>
      </trkpt>
      <trkpt lat="47.12288" lon="5.83041">
        <ele>258</ele>
        <time>2000-01-01T15:24:19.000Z</time>
      </trkpt>
      <trkpt lat="47.12277" lon="5.83052">
        <ele>257.9</ele>
        <time>2000-01-01T15:24:29.000Z</time>
      </trkpt>
      <trkpt lat="47.12264" lon="5.83067">
        <ele>256</ele>
        <time>2000-01-01T15:24:39.000Z</time>
      </trkpt>
      <trkpt lat="47.12244" lon="5.83086">
        <ele>256</ele>
        <time>2000-01-01T15:24:49.000Z</time>
      </trkpt>
      <trkpt lat="47.12229" lon="5.83096">
        <ele>255.7</ele>
        <time>2000-01-01T15:24:59.000Z</time>
      </trkpt>
      <trkpt lat="47.12212" lon="5.83108">
        <ele>255</ele>
        <time>2000-01-01T15:25:09.000Z</time>
      </trkpt>
      <trkpt lat="47.12194" lon="5.83118">
        <ele>254</ele>
        <time>2000-01-01T15:25:19.000Z</time>
      </trkpt>
      <trkpt lat="47.12172" lon="5.83132">
        <ele>253</ele>
        <time>2000-01-01T15:25:29.000Z</time>
      </trkpt>
      <trkpt lat="47.12142" lon="5.83153">
        <ele>253</ele>
        <time>2000-01-01T15:25:39.000Z</time>
      </trkpt>
      <trkpt lat="47.12122" lon="5.83167">
        <ele>253</ele>
        <time>2000-01-01T15:25:49.000Z</time>
      </trkpt>
      <trkpt lat="47.12116" lon="5.83175">
        <ele>253.8</ele>
        <time>2000-01-01T15:25:59.000Z</time>
      </trkpt>
      <trkpt lat="47.12109" lon="5.83184">
        <ele>254</ele>
        <time>2000-01-01T15:26:09.000Z</time>
      </trkpt>
      <trkpt lat="47.12105" lon="5.83192">
        <ele>254</ele>
        <time>2000-01-01T15:26:19.000Z</time>
      </trkpt>
      <trkpt lat="47.12104" lon="5.83195">
        <ele>254</ele>
        <time>2000-01-01T15:26:29.000Z</time>
      </trkpt>
      <trkpt lat="47.12098" lon="5.8321">
        <ele>254</ele>
        <time>2000-01-01T15:26:39.000Z</time>
      </trkpt>
      <trkpt lat="47.12092" lon="5.83229">
        <ele>254</ele>
        <time>2000-01-01T15:26:49.000Z</time>
      </trkpt>
      <trkpt lat="47.12088" lon="5.83246">
        <ele>255.5</ele>
        <time>2000-01-01T15:26:59.000Z</time>
      </trkpt>
      <trkpt lat="47.12083" lon="5.83278">
        <ele>256</ele>
        <time>2000-01-01T15:27:09.000Z</time>
      </trkpt>
      <trkpt lat="47.12078" lon="5.83303">
        <ele>257.1</ele>
        <time>2000-01-01T15:27:19.000Z</time>
      </trkpt>
      <trkpt lat="47.12073" lon="5.83324">
        <ele>258</ele>
        <time>2000-01-01T15:27:29.000Z</time>
      </trkpt>
      <trkpt lat="47.12067" lon="5.83343">
        <ele>258.9</ele>
        <time>2000-01-01T15:27:39.000Z</time>
      </trkpt>
      <trkpt lat="47.12062" lon="5.83357">
        <ele>259</ele>
        <time>2000-01-01T15:27:49.000Z</time>
      </trkpt>
      <trkpt lat="47.12054" lon="5.8337">
        <ele>260.3</ele>
        <time>2000-01-01T15:27:59.000Z</time>
      </trkpt>
      <trkpt lat="47.12047" lon="5.83379">
        <ele>260</ele>
        <time>2000-01-01T15:28:09.000Z</time>
      </trkpt>
      <trkpt lat="47.12036" lon="5.83388">
        <ele>261</ele>
        <time>2000-01-01T15:28:19.000Z</time>
      </trkpt>
      <trkpt lat="47.12023" lon="5.83396">
        <ele>261</ele>
        <time>2000-01-01T15:28:29.000Z</time>
      </trkpt>
      <trkpt lat="47.11992" lon="5.8341">
        <ele>261</ele>
        <time>2000-01-01T15:28:39.000Z</time>
      </trkpt>
      <trkpt lat="47.1196" lon="5.83423">
        <ele>263</ele>
        <time>2000-01-01T15:28:49.000Z</time>
      </trkpt>
      <trkpt lat="47.11938" lon="5.83432">
        <ele>265</ele>
        <time>2000-01-01T15:28:59.000Z</time>
      </trkpt>
      <trkpt lat="47.11923" lon="5.83436">
        <ele>266.2</ele>
        <time>2000-01-01T15:29:09.000Z</time>
      </trkpt>
      <trkpt lat="47.11912" lon="5.83438">
        <ele>266</ele>
        <time>2000-01-01T15:29:19.000Z</time>
      </trkpt>
      <trkpt lat="47.11898" lon="5.83437">
        <ele>267.6</ele>
        <time>2000-01-01T15:29:29.000Z</time>
      </trkpt>
      <trkpt lat="47.11877" lon="5.83433">
        <ele>268</ele>
        <time>2000-01-01T15:29:39.000Z</time>
      </trkpt>
      <trkpt lat="47.11864" lon="5.83428">
        <ele>269.4</ele>
        <time>2000-01-01T15:29:49.000Z</time>
      </trkpt>
      <trkpt lat="47.11851" lon="5.83424">
        <ele>269</ele>
        <time>2000-01-01T15:29:59.000Z</time>
      </trkpt>
      <trkpt lat="47.11839" lon="5.83422">
        <ele>271.2</ele>
        <time>2000-01-01T15:30:09.000Z</time>
      </trkpt>
      <trkpt lat="47.11828" lon="5.83422">
        <ele>271</ele>
        <time>2000-01-01T15:30:19.000Z</time>
      </trkpt>
      <trkpt lat="47.11815" lon="5.83421">
        <ele>273</ele>
        <time>2000-01-01T15:30:29.000Z</time>
      </trkpt>
      <trkpt lat="47.11801" lon="5.8342">
        <ele>272</ele>
        <time>2000-01-01T15:30:39.000Z</time>
      </trkpt>
      <trkpt lat="47.11788" lon="5.83417">
        <ele>274.3</ele>
        <time>2000-01-01T15:30:49.000Z</time>
      </trkpt>
      <trkpt lat="47.11774" lon="5.83413">
        <ele>274</ele>
        <time>2000-01-01T15:30:59.000Z</time>
      </trkpt>
      <trkpt lat="47.11762" lon="5.8341">
        <ele>274.8</ele>
        <time>2000-01-01T15:31:09.000Z</time>
      </trkpt>
      <trkpt lat="47.11742" lon="5.83405">
        <ele>275</ele>
        <time>2000-01-01T15:31:19.000Z</time>
      </trkpt>
      <trkpt lat="47.11714" lon="5.83401">
        <ele>277</ele>
        <time>2000-01-01T15:31:29.000Z</time>
      </trkpt>
      <trkpt lat="47.11688" lon="5.83399">
        <ele>277</ele>
        <time>2000-01-01T15:31:39.000Z</time>
      </trkpt>
      <trkpt lat="47.11668" lon="5.83398">
        <ele>279</ele>
        <time>2000-01-01T15:31:49.000Z</time>
      </trkpt>
      <trkpt lat="47.11653" lon="5.83401">
        <ele>280.1</ele>
        <time>2000-01-01T15:31:59.000Z</time>
      </trkpt>
      <trkpt lat="47.11644" lon="5.83405">
        <ele>280</ele>
        <time>2000-01-01T15:32:09.000Z</time>
      </trkpt>
      <trkpt lat="47.11644" lon="5.83405">
        <ele>280.5</ele>
        <time>2000-01-01T15:32:19.000Z</time>
      </trkpt>
      <trkpt lat="47.11633" lon="5.83412">
        <ele>281</ele>
        <time>2000-01-01T15:32:29.000Z</time>
      </trkpt>
      <trkpt lat="47.11648" lon="5.83429">
        <ele>281</ele>
        <time>2000-01-01T15:32:39.000Z</time>
      </trkpt>
      <trkpt lat="47.1166" lon="5.83441">
        <ele>282.8</ele>
        <time>2000-01-01T15:32:49.000Z</time>
      </trkpt>
      <trkpt lat="47.11692" lon="5.83453">
        <ele>283</ele>
        <time>2000-01-01T15:32:59.000Z</time>
      </trkpt>
      <trkpt lat="47.11718" lon="5.83476">
        <ele>283</ele>
        <time>2000-01-01T15:33:09.000Z</time>
      </trkpt>
      <trkpt lat="47.1174" lon="5.83495">
        <ele>284</ele>
        <time>2000-01-01T15:33:19.000Z</time>
      </trkpt>
      <trkpt lat="47.11769" lon="5.83521">
        <ele>285</ele>
        <time>2000-01-01T15:33:29.000Z</time>
      </trkpt>
      <trkpt lat="47.11797" lon="5.83529">
        <ele>286</ele>
        <time>2000-01-01T15:33:39.000Z</time>
      </trkpt>
      <trkpt lat="47.11821" lon="5.83535">
        <ele>286</ele>
        <time>2000-01-01T15:33:49.000Z</time>
      </trkpt>
      <trkpt lat="47.11848" lon="5.83543">
        <ele>286</ele>
        <time>2000-01-01T15:33:59.000Z</time>
      </trkpt>
      <trkpt lat="47.11875" lon="5.83546">
        <ele>286</ele>
        <time>2000-01-01T15:34:09.000Z</time>
      </trkpt>
      <trkpt lat="47.11911" lon="5.83552">
        <ele>284</ele>
        <time>2000-01-01T15:34:19.000Z</time>
      </trkpt>
      <trkpt lat="47.11951" lon="5.83569">
        <ele>282</ele>
        <time>2000-01-01T15:34:29.000Z</time>
      </trkpt>
      <trkpt lat="47.11977" lon="5.83579">
        <ele>280</ele>
        <time>2000-01-01T15:34:39.000Z</time>
      </trkpt>
      <trkpt lat="47.12013" lon="5.83593">
        <ele>279</ele>
        <time>2000-01-01T15:34:49.000Z</time>
      </trkpt>
      <trkpt lat="47.12039" lon="5.83605">
        <ele>278</ele>
        <time>2000-01-01T15:34:59.000Z</time>
      </trkpt>
      <trkpt lat="47.12075" lon="5.83621">
        <ele>277</ele>
        <time>2000-01-01T15:35:09.000Z</time>
      </trkpt>
      <trkpt lat="47.12107" lon="5.8364">
        <ele>275</ele>
        <time>2000-01-01T15:35:19.000Z</time>
      </trkpt>
      <trkpt lat="47.1214" lon="5.83658">
        <ele>273</ele>
        <time>2000-01-01T15:35:29.000Z</time>
      </trkpt>
      <trkpt lat="47.12173" lon="5.83676">
        <ele>273</ele>
        <time>2000-01-01T15:35:39.000Z</time>
      </trkpt>
      <trkpt lat="47.12215" lon="5.83699">
        <ele>273</ele>
        <time>2000-01-01T15:35:49.000Z</time>
      </trkpt>
      <trkpt lat="47.12243" lon="5.8371">
        <ele>273</ele>
        <time>2000-01-01T15:35:59.000Z</time>
      </trkpt>
      <trkpt lat="47.12266" lon="5.8372">
        <ele>273</ele>
        <time>2000-01-01T15:36:09.000Z</time>
      </trkpt>
      <trkpt lat="47.1229" lon="5.8373">
        <ele>273</ele>
        <time>2000-01-01T15:36:19.000Z</time>
      </trkpt>
      <trkpt lat="47.12315" lon="5.83738">
        <ele>273</ele>
        <time>2000-01-01T15:36:29.000Z</time>
      </trkpt>
      <trkpt lat="47.12344" lon="5.83748">
        <ele>273</ele>
        <time>2000-01-01T15:36:39.000Z</time>
      </trkpt>
      <trkpt lat="47.12365" lon="5.83764">
        <ele>273</ele>
        <time>2000-01-01T15:36:49.000Z</time>
      </trkpt>
      <trkpt lat="47.1239" lon="5.83782">
        <ele>272</ele>
        <time>2000-01-01T15:36:59.000Z</time>
      </trkpt>
      <trkpt lat="47.12417" lon="5.83782">
        <ele>268</ele>
        <time>2000-01-01T15:37:09.000Z</time>
      </trkpt>
      <trkpt lat="47.12453" lon="5.83784">
        <ele>268</ele>
        <time>2000-01-01T15:37:19.000Z</time>
      </trkpt>
      <trkpt lat="47.12474" lon="5.83761">
        <ele>266</ele>
        <time>2000-01-01T15:37:29.000Z</time>
      </trkpt>
      <trkpt lat="47.125" lon="5.83733">
        <ele>264</ele>
        <time>2000-01-01T15:37:39.000Z</time>
      </trkpt>
      <trkpt lat="47.12529" lon="5.83696">
        <ele>260</ele>
        <time>2000-01-01T15:37:49.000Z</time>
      </trkpt>
      <trkpt lat="47.12553" lon="5.83693">
        <ele>257</ele>
        <time>2000-01-01T15:37:59.000Z</time>
      </trkpt>
      <trkpt lat="47.12582" lon="5.83689">
        <ele>255</ele>
        <time>2000-01-01T15:38:09.000Z</time>
      </trkpt>
      <trkpt lat="47.1262" lon="5.837">
        <ele>254</ele>
        <time>2000-01-01T15:38:19.000Z</time>
      </trkpt>
      <trkpt lat="47.12646" lon="5.83726">
        <ele>254</ele>
        <time>2000-01-01T15:38:29.000Z</time>
      </trkpt>
      <trkpt lat="47.12672" lon="5.83753">
        <ele>254</ele>
        <time>2000-01-01T15:38:39.000Z</time>
      </trkpt>
      <trkpt lat="47.12705" lon="5.83786">
        <ele>255</ele>
        <time>2000-01-01T15:38:49.000Z</time>
      </trkpt>
      <trkpt lat="47.1272" lon="5.83819">
        <ele>255</ele>
        <time>2000-01-01T15:38:59.000Z</time>
      </trkpt>
      <trkpt lat="47.12736" lon="5.83854">
        <ele>254</ele>
        <time>2000-01-01T15:39:09.000Z</time>
      </trkpt>
      <trkpt lat="47.12742" lon="5.83867">
        <ele>256.4</ele>
        <time>2000-01-01T15:39:19.000Z</time>
      </trkpt>
      <trkpt lat="47.1276" lon="5.83946">
        <ele>254</ele>
        <time>2000-01-01T15:39:29.000Z</time>
      </trkpt>
      <trkpt lat="47.12769" lon="5.83985">
        <ele>253</ele>
        <time>2000-01-01T15:39:39.000Z</time>
      </trkpt>
      <trkpt lat="47.12792" lon="5.84018">
        <ele>253</ele>
        <time>2000-01-01T15:39:49.000Z</time>
      </trkpt>
      <trkpt lat="47.12802" lon="5.84043">
        <ele>253</ele>
        <time>2000-01-01T15:39:59.000Z</time>
      </trkpt>
      <trkpt lat="47.12834" lon="5.8409">
        <ele>250</ele>
        <time>2000-01-01T15:40:09.000Z</time>
      </trkpt>
      <trkpt lat="47.12854" lon="5.84131">
        <ele>249</ele>
        <time>2000-01-01T15:40:19.000Z</time>
      </trkpt>
      <trkpt lat="47.12879" lon="5.84157">
        <ele>247</ele>
        <time>2000-01-01T15:40:29.000Z</time>
      </trkpt>
      <trkpt lat="47.129" lon="5.8418">
        <ele>245</ele>
        <time>2000-01-01T15:40:39.000Z</time>
      </trkpt>
      <trkpt lat="47.12927" lon="5.84208">
        <ele>244</ele>
        <time>2000-01-01T15:40:49.000Z</time>
      </trkpt>
      <trkpt lat="47.12947" lon="5.84237">
        <ele>244</ele>
        <time>2000-01-01T15:40:59.000Z</time>
      </trkpt>
      <trkpt lat="47.12976" lon="5.84278">
        <ele>245</ele>
        <time>2000-01-01T15:41:09.000Z</time>
      </trkpt>
      <trkpt lat="47.12997" lon="5.84331">
        <ele>247</ele>
        <time>2000-01-01T15:41:19.000Z</time>
      </trkpt>
      <trkpt lat="47.12998" lon="5.84365">
        <ele>247</ele>
        <time>2000-01-01T15:41:29.000Z</time>
      </trkpt>
      <trkpt lat="47.12999" lon="5.84402">
        <ele>247</ele>
        <time>2000-01-01T15:41:39.000Z</time>
      </trkpt>
      <trkpt lat="47.12995" lon="5.84436">
        <ele>245</ele>
        <time>2000-01-01T15:41:49.000Z</time>
      </trkpt>
      <trkpt lat="47.12994" lon="5.84442">
        <ele>243.7</ele>
        <time>2000-01-01T15:41:59.000Z</time>
      </trkpt>
      <trkpt lat="47.12991" lon="5.84486">
        <ele>244</ele>
        <time>2000-01-01T15:42:09.000Z</time>
      </trkpt>
      <trkpt lat="47.12979" lon="5.84533">
        <ele>243</ele>
        <time>2000-01-01T15:42:19.000Z</time>
      </trkpt>
      <trkpt lat="47.12966" lon="5.84579">
        <ele>243</ele>
        <time>2000-01-01T15:42:29.000Z</time>
      </trkpt>
      <trkpt lat="47.12957" lon="5.84616">
        <ele>243</ele>
        <time>2000-01-01T15:42:39.000Z</time>
      </trkpt>
      <trkpt lat="47.12943" lon="5.84668">
        <ele>242</ele>
        <time>2000-01-01T15:42:49.000Z</time>
      </trkpt>
      <trkpt lat="47.12937" lon="5.84717">
        <ele>242</ele>
        <time>2000-01-01T15:42:59.000Z</time>
      </trkpt>
      <trkpt lat="47.12932" lon="5.84765">
        <ele>238</ele>
        <time>2000-01-01T15:43:09.000Z</time>
      </trkpt>
      <trkpt lat="47.12928" lon="5.848">
        <ele>238</ele>
        <time>2000-01-01T15:43:19.000Z</time>
      </trkpt>
      <trkpt lat="47.12923" lon="5.84837">
        <ele>234</ele>
        <time>2000-01-01T15:43:29.000Z</time>
      </trkpt>
      <trkpt lat="47.12922" lon="5.84857">
        <ele>232.1</ele>
        <time>2000-01-01T15:43:39.000Z</time>
      </trkpt>
      <trkpt lat="47.12915" lon="5.84857">
        <ele>234</ele>
        <time>2000-01-01T15:43:49.000Z</time>
      </trkpt>
      <trkpt lat="47.12893" lon="5.84859">
        <ele>234</ele>
        <time>2000-01-01T15:43:59.000Z</time>
      </trkpt>
      <trkpt lat="47.12859" lon="5.8486">
        <ele>233</ele>
        <time>2000-01-01T15:44:09.000Z</time>
      </trkpt>
      <trkpt lat="47.12831" lon="5.84862">
        <ele>233</ele>
        <time>2000-01-01T15:44:19.000Z</time>
      </trkpt>
      <trkpt lat="47.12793" lon="5.84863">
        <ele>234</ele>
        <time>2000-01-01T15:44:29.000Z</time>
      </trkpt>
      <trkpt lat="47.12784" lon="5.84864">
        <ele>234.7</ele>
        <time>2000-01-01T15:44:39.000Z</time>
      </trkpt>
      <trkpt lat="47.12772" lon="5.84865">
        <ele>235</ele>
        <time>2000-01-01T15:44:49.000Z</time>
      </trkpt>
      <trkpt lat="47.12765" lon="5.84865">
        <ele>234.9</ele>
        <time>2000-01-01T15:44:59.000Z</time>
      </trkpt>
      <trkpt lat="47.12757" lon="5.84866">
        <ele>235</ele>
        <time>2000-01-01T15:45:09.000Z</time>
      </trkpt>
      <trkpt lat="47.12745" lon="5.84869">
        <ele>235</ele>
        <time>2000-01-01T15:45:19.000Z</time>
      </trkpt>
      <trkpt lat="47.12737" lon="5.84871">
        <ele>234.7</ele>
        <time>2000-01-01T15:45:29.000Z</time>
      </trkpt>
      <trkpt lat="47.1273" lon="5.84874">
        <ele>234.7</ele>
        <time>2000-01-01T15:45:39.000Z</time>
      </trkpt>
      <trkpt lat="47.12714" lon="5.84882">
        <ele>236</ele>
        <time>2000-01-01T15:45:49.000Z</time>
      </trkpt>
      <trkpt lat="47.12706" lon="5.84887">
        <ele>235.2</ele>
        <time>2000-01-01T15:45:59.000Z</time>
      </trkpt>
      <trkpt lat="47.12698" lon="5.84894">
        <ele>235.4</ele>
        <time>2000-01-01T15:46:09.000Z</time>
      </trkpt>
      <trkpt lat="47.12691" lon="5.84901">
        <ele>235</ele>
        <time>2000-01-01T15:46:19.000Z</time>
      </trkpt>
      <trkpt lat="47.12687" lon="5.84905">
        <ele>235.1</ele>
        <time>2000-01-01T15:46:29.000Z</time>
      </trkpt>
      <trkpt lat="47.12681" lon="5.84913">
        <ele>235.4</ele>
        <time>2000-01-01T15:46:39.000Z</time>
      </trkpt>
      <trkpt lat="47.12676" lon="5.84918">
        <ele>235</ele>
        <time>2000-01-01T15:46:49.000Z</time>
      </trkpt>
      <trkpt lat="47.12672" lon="5.84923">
        <ele>236.2</ele>
        <time>2000-01-01T15:46:59.000Z</time>
      </trkpt>
      <trkpt lat="47.1267" lon="5.84926">
        <ele>236.3</ele>
        <time>2000-01-01T15:47:09.000Z</time>
      </trkpt>
      <trkpt lat="47.12637" lon="5.84958">
        <ele>236</ele>
        <time>2000-01-01T15:47:19.000Z</time>
      </trkpt>
      <trkpt lat="47.12599" lon="5.84973">
        <ele>239</ele>
        <time>2000-01-01T15:47:29.000Z</time>
      </trkpt>
      <trkpt lat="47.12566" lon="5.84975">
        <ele>241</ele>
        <time>2000-01-01T15:47:39.000Z</time>
      </trkpt>
      <trkpt lat="47.1259" lon="5.85003">
        <ele>241</ele>
        <time>2000-01-01T15:47:49.000Z</time>
      </trkpt>
      <trkpt lat="47.1261" lon="5.85027">
        <ele>238</ele>
        <time>2000-01-01T15:47:59.000Z</time>
      </trkpt>
      <trkpt lat="47.12637" lon="5.85058">
        <ele>237</ele>
        <time>2000-01-01T15:48:09.000Z</time>
      </trkpt>
      <trkpt lat="47.12643" lon="5.85101">
        <ele>237</ele>
        <time>2000-01-01T15:48:19.000Z</time>
      </trkpt>
      <trkpt lat="47.12661" lon="5.85125">
        <ele>236</ele>
        <time>2000-01-01T15:48:29.000Z</time>
      </trkpt>
      <trkpt lat="47.12681" lon="5.85153">
        <ele>236</ele>
        <time>2000-01-01T15:48:39.000Z</time>
      </trkpt>
      <trkpt lat="47.12699" lon="5.85176">
        <ele>236</ele>
        <time>2000-01-01T15:48:49.000Z</time>
      </trkpt>
      <trkpt lat="47.12719" lon="5.852">
        <ele>236</ele>
        <time>2000-01-01T15:48:59.000Z</time>
      </trkpt>
      <trkpt lat="47.12738" lon="5.85234">
        <ele>236</ele>
        <time>2000-01-01T15:49:09.000Z</time>
      </trkpt>
      <trkpt lat="47.12773" lon="5.85223">
        <ele>237</ele>
        <time>2000-01-01T15:49:19.000Z</time>
      </trkpt>
      <trkpt lat="47.12796" lon="5.85234">
        <ele>237</ele>
        <time>2000-01-01T15:49:29.000Z</time>
      </trkpt>
      <trkpt lat="47.12821" lon="5.85257">
        <ele>236</ele>
        <time>2000-01-01T15:49:39.000Z</time>
      </trkpt>
      <trkpt lat="47.12841" lon="5.85277">
        <ele>236</ele>
        <time>2000-01-01T15:49:49.000Z</time>
      </trkpt>
      <trkpt lat="47.12864" lon="5.85299">
        <ele>237</ele>
        <time>2000-01-01T15:49:59.000Z</time>
      </trkpt>
      <trkpt lat="47.1289" lon="5.85329">
        <ele>236</ele>
        <time>2000-01-01T15:50:09.000Z</time>
      </trkpt>
      <trkpt lat="47.12916" lon="5.85359">
        <ele>236</ele>
        <time>2000-01-01T15:50:19.000Z</time>
      </trkpt>
      <trkpt lat="47.12935" lon="5.85381">
        <ele>235</ele>
        <time>2000-01-01T15:50:29.000Z</time>
      </trkpt>
      <trkpt lat="47.12956" lon="5.85405">
        <ele>234</ele>
        <time>2000-01-01T15:50:39.000Z</time>
      </trkpt>
      <trkpt lat="47.1299" lon="5.85437">
        <ele>231</ele>
        <time>2000-01-01T15:50:49.000Z</time>
      </trkpt>
      <trkpt lat="47.13003" lon="5.85481">
        <ele>229</ele>
        <time>2000-01-01T15:50:59.000Z</time>
      </trkpt>
      <trkpt lat="47.13016" lon="5.85524">
        <ele>229</ele>
        <time>2000-01-01T15:51:09.000Z</time>
      </trkpt>
      <trkpt lat="47.13025" lon="5.85555">
        <ele>227</ele>
        <time>2000-01-01T15:51:19.000Z</time>
      </trkpt>
      <trkpt lat="47.13035" lon="5.85587">
        <ele>226</ele>
        <time>2000-01-01T15:51:29.000Z</time>
      </trkpt>
      <trkpt lat="47.13039" lon="5.85618">
        <ele>226</ele>
        <time>2000-01-01T15:51:39.000Z</time>
      </trkpt>
      <trkpt lat="47.13062" lon="5.85622">
        <ele>226</ele>
        <time>2000-01-01T15:51:49.000Z</time>
      </trkpt>
      <trkpt lat="47.13086" lon="5.85627">
        <ele>225</ele>
        <time>2000-01-01T15:51:59.000Z</time>
      </trkpt>
      <trkpt lat="47.13088" lon="5.85633">
        <ele>225.8</ele>
        <time>2000-01-01T15:52:09.000Z</time>
      </trkpt>
      <trkpt lat="47.1309" lon="5.85642">
        <ele>225.7</ele>
        <time>2000-01-01T15:52:19.000Z</time>
      </trkpt>
      <trkpt lat="47.13095" lon="5.85658">
        <ele>225</ele>
        <time>2000-01-01T15:52:29.000Z</time>
      </trkpt>
      <trkpt lat="47.13103" lon="5.85679">
        <ele>225</ele>
        <time>2000-01-01T15:52:39.000Z</time>
      </trkpt>
      <trkpt lat="47.13112" lon="5.85707">
        <ele>225</ele>
        <time>2000-01-01T15:52:49.000Z</time>
      </trkpt>
      <trkpt lat="47.13127" lon="5.8575">
        <ele>225</ele>
        <time>2000-01-01T15:52:59.000Z</time>
      </trkpt>
      <trkpt lat="47.13136" lon="5.85775">
        <ele>225</ele>
        <time>2000-01-01T15:53:09.000Z</time>
      </trkpt>
      <trkpt lat="47.13142" lon="5.85794">
        <ele>225</ele>
        <time>2000-01-01T15:53:19.000Z</time>
      </trkpt>
      <trkpt lat="47.13148" lon="5.85812">
        <ele>225</ele>
        <time>2000-01-01T15:53:29.000Z</time>
      </trkpt>
      <trkpt lat="47.13153" lon="5.85828">
        <ele>225</ele>
        <time>2000-01-01T15:53:39.000Z</time>
      </trkpt>
      <trkpt lat="47.13158" lon="5.85842">
        <ele>225</ele>
        <time>2000-01-01T15:53:49.000Z</time>
      </trkpt>
      <trkpt lat="47.13163" lon="5.85856">
        <ele>225</ele>
        <time>2000-01-01T15:53:59.000Z</time>
      </trkpt>
      <trkpt lat="47.13166" lon="5.85867">
        <ele>225</ele>
        <time>2000-01-01T15:54:09.000Z</time>
      </trkpt>
      <trkpt lat="47.13168" lon="5.85878">
        <ele>225</ele>
        <time>2000-01-01T15:54:19.000Z</time>
      </trkpt>
      <trkpt lat="47.13168" lon="5.8589">
        <ele>225</ele>
        <time>2000-01-01T15:54:29.000Z</time>
      </trkpt>
      <trkpt lat="47.13168" lon="5.85977">
        <ele>225</ele>
        <time>2000-01-01T15:54:39.000Z</time>
      </trkpt>
      <trkpt lat="47.13167" lon="5.86004">
        <ele>225</ele>
        <time>2000-01-01T15:54:49.000Z</time>
      </trkpt>
      <trkpt lat="47.13167" lon="5.86022">
        <ele>226</ele>
        <time>2000-01-01T15:54:59.000Z</time>
      </trkpt>
      <trkpt lat="47.13168" lon="5.8604">
        <ele>225</ele>
        <time>2000-01-01T15:55:09.000Z</time>
      </trkpt>
      <trkpt lat="47.1317" lon="5.86057">
        <ele>226</ele>
        <time>2000-01-01T15:55:19.000Z</time>
      </trkpt>
      <trkpt lat="47.13173" lon="5.86075">
        <ele>225</ele>
        <time>2000-01-01T15:55:29.000Z</time>
      </trkpt>
      <trkpt lat="47.13178" lon="5.86096">
        <ele>226</ele>
        <time>2000-01-01T15:55:39.000Z</time>
      </trkpt>
      <trkpt lat="47.13182" lon="5.86112">
        <ele>226</ele>
        <time>2000-01-01T15:55:49.000Z</time>
      </trkpt>
      <trkpt lat="47.13187" lon="5.86131">
        <ele>226</ele>
        <time>2000-01-01T15:55:59.000Z</time>
      </trkpt>
      <trkpt lat="47.13192" lon="5.8615">
        <ele>226</ele>
        <time>2000-01-01T15:56:09.000Z</time>
      </trkpt>
      <trkpt lat="47.13195" lon="5.86167">
        <ele>226</ele>
        <time>2000-01-01T15:56:19.000Z</time>
      </trkpt>
      <trkpt lat="47.13197" lon="5.86181">
        <ele>226</ele>
        <time>2000-01-01T15:56:29.000Z</time>
      </trkpt>
      <trkpt lat="47.13198" lon="5.86191">
        <ele>226.8</ele>
        <time>2000-01-01T15:56:39.000Z</time>
      </trkpt>
      <trkpt lat="47.13199" lon="5.86213">
        <ele>226</ele>
        <time>2000-01-01T15:56:49.000Z</time>
      </trkpt>
      <trkpt lat="47.13198" lon="5.86227">
        <ele>227</ele>
        <time>2000-01-01T15:56:59.000Z</time>
      </trkpt>
      <trkpt lat="47.13197" lon="5.86248">
        <ele>226</ele>
        <time>2000-01-01T15:57:09.000Z</time>
      </trkpt>
      <trkpt lat="47.13195" lon="5.86265">
        <ele>227</ele>
        <time>2000-01-01T15:57:19.000Z</time>
      </trkpt>
      <trkpt lat="47.13195" lon="5.8628">
        <ele>227</ele>
        <time>2000-01-01T15:57:29.000Z</time>
      </trkpt>
      <trkpt lat="47.13195" lon="5.86293">
        <ele>227.5</ele>
        <time>2000-01-01T15:57:39.000Z</time>
      </trkpt>
      <trkpt lat="47.13196" lon="5.86305">
        <ele>227.9</ele>
        <time>2000-01-01T15:57:49.000Z</time>
      </trkpt>
      <trkpt lat="47.13197" lon="5.86323">
        <ele>228</ele>
        <time>2000-01-01T15:57:59.000Z</time>
      </trkpt>
      <trkpt lat="47.13199" lon="5.86343">
        <ele>228.3</ele>
        <time>2000-01-01T15:58:09.000Z</time>
      </trkpt>
      <trkpt lat="47.13201" lon="5.86365">
        <ele>228</ele>
        <time>2000-01-01T15:58:19.000Z</time>
      </trkpt>
      <trkpt lat="47.13202" lon="5.86386">
        <ele>229</ele>
        <time>2000-01-01T15:58:29.000Z</time>
      </trkpt>
      <trkpt lat="47.13207" lon="5.86447">
        <ele>229</ele>
        <time>2000-01-01T15:58:39.000Z</time>
      </trkpt>
      <trkpt lat="47.13208" lon="5.86465">
        <ele>230.8</ele>
        <time>2000-01-01T15:58:49.000Z</time>
      </trkpt>
      <trkpt lat="47.13209" lon="5.8648">
        <ele>231</ele>
        <time>2000-01-01T15:58:59.000Z</time>
      </trkpt>
      <trkpt lat="47.13209" lon="5.86493">
        <ele>231.7</ele>
        <time>2000-01-01T15:59:09.000Z</time>
      </trkpt>
      <trkpt lat="47.1321" lon="5.86508">
        <ele>232</ele>
        <time>2000-01-01T15:59:19.000Z</time>
      </trkpt>
      <trkpt lat="47.1321" lon="5.86525">
        <ele>231.9</ele>
        <time>2000-01-01T15:59:29.000Z</time>
      </trkpt>
      <trkpt lat="47.13208" lon="5.86539">
        <ele>232</ele>
        <time>2000-01-01T15:59:39.000Z</time>
      </trkpt>
      <trkpt lat="47.13206" lon="5.86561">
        <ele>233.2</ele>
        <time>2000-01-01T15:59:49.000Z</time>
      </trkpt>
      <trkpt lat="47.13204" lon="5.86577">
        <ele>233</ele>
        <time>2000-01-01T15:59:59.000Z</time>
      </trkpt>
      <trkpt lat="47.132" lon="5.86598">
        <ele>233.6</ele>
        <time>2000-01-01T16:00:09.000Z</time>
      </trkpt>
      <trkpt lat="47.13196" lon="5.86613">
        <ele>234</ele>
        <time>2000-01-01T16:00:19.000Z</time>
      </trkpt>
      <trkpt lat="47.13192" lon="5.86629">
        <ele>234.3</ele>
        <time>2000-01-01T16:00:29.000Z</time>
      </trkpt>
      <trkpt lat="47.13189" lon="5.8664">
        <ele>235</ele>
        <time>2000-01-01T16:00:39.000Z</time>
      </trkpt>
      <trkpt lat="47.13184" lon="5.86662">
        <ele>235.1</ele>
        <time>2000-01-01T16:00:49.000Z</time>
      </trkpt>
      <trkpt lat="47.13182" lon="5.86672">
        <ele>235</ele>
        <time>2000-01-01T16:00:59.000Z</time>
      </trkpt>
      <trkpt lat="47.13182" lon="5.86686">
        <ele>235.3</ele>
        <time>2000-01-01T16:01:09.000Z</time>
      </trkpt>
      <trkpt lat="47.13183" lon="5.86699">
        <ele>235</ele>
        <time>2000-01-01T16:01:19.000Z</time>
      </trkpt>
      <trkpt lat="47.13186" lon="5.86723">
        <ele>235.6</ele>
        <time>2000-01-01T16:01:29.000Z</time>
      </trkpt>
      <trkpt lat="47.13191" lon="5.8676">
        <ele>235</ele>
        <time>2000-01-01T16:01:39.000Z</time>
      </trkpt>
      <trkpt lat="47.13193" lon="5.86778">
        <ele>236.1</ele>
        <time>2000-01-01T16:01:49.000Z</time>
      </trkpt>
      <trkpt lat="47.13195" lon="5.86794">
        <ele>236</ele>
        <time>2000-01-01T16:01:59.000Z</time>
      </trkpt>
      <trkpt lat="47.13196" lon="5.86807">
        <ele>235.9</ele>
        <time>2000-01-01T16:02:09.000Z</time>
      </trkpt>
      <trkpt lat="47.13195" lon="5.86822">
        <ele>236</ele>
        <time>2000-01-01T16:02:19.000Z</time>
      </trkpt>
      <trkpt lat="47.13192" lon="5.86845">
        <ele>236.2</ele>
        <time>2000-01-01T16:02:29.000Z</time>
      </trkpt>
      <trkpt lat="47.13189" lon="5.86865">
        <ele>236</ele>
        <time>2000-01-01T16:02:39.000Z</time>
      </trkpt>
      <trkpt lat="47.13185" lon="5.86881">
        <ele>238.1</ele>
        <time>2000-01-01T16:02:49.000Z</time>
      </trkpt>
      <trkpt lat="47.13182" lon="5.86893">
        <ele>236</ele>
        <time>2000-01-01T16:02:59.000Z</time>
      </trkpt>
      <trkpt lat="47.13179" lon="5.86899">
        <ele>239.7</ele>
        <time>2000-01-01T16:03:09.000Z</time>
      </trkpt>
      <trkpt lat="47.13179" lon="5.86899">
        <ele>239.7</ele>
        <time>2000-01-01T16:03:19.000Z</time>
      </trkpt>
      <trkpt lat="47.13168" lon="5.86907">
        <ele>242</ele>
        <time>2000-01-01T16:03:29.000Z</time>
      </trkpt>
      <trkpt lat="47.13159" lon="5.86914">
        <ele>236</ele>
        <time>2000-01-01T16:03:39.000Z</time>
      </trkpt>
      <trkpt lat="47.13155" lon="5.86919">
        <ele>240.3</ele>
        <time>2000-01-01T16:03:49.000Z</time>
      </trkpt>
      <trkpt lat="47.13154" lon="5.86927">
        <ele>240</ele>
        <time>2000-01-01T16:03:59.000Z</time>
      </trkpt>
      <trkpt lat="47.13157" lon="5.86941">
        <ele>237</ele>
        <time>2000-01-01T16:04:09.000Z</time>
      </trkpt>
      <trkpt lat="47.13166" lon="5.86961">
        <ele>239.2</ele>
        <time>2000-01-01T16:04:19.000Z</time>
      </trkpt>
      <trkpt lat="47.1318" lon="5.86984">
        <ele>237</ele>
        <time>2000-01-01T16:04:29.000Z</time>
      </trkpt>
      <trkpt lat="47.13191" lon="5.87003">
        <ele>239.7</ele>
        <time>2000-01-01T16:04:39.000Z</time>
      </trkpt>
      <trkpt lat="47.13198" lon="5.87017">
        <ele>237</ele>
        <time>2000-01-01T16:04:49.000Z</time>
      </trkpt>
      <trkpt lat="47.13212" lon="5.8704">
        <ele>238</ele>
        <time>2000-01-01T16:04:59.000Z</time>
      </trkpt>
      <trkpt lat="47.13229" lon="5.87065">
        <ele>238</ele>
        <time>2000-01-01T16:05:09.000Z</time>
      </trkpt>
      <trkpt lat="47.13244" lon="5.87085">
        <ele>238</ele>
        <time>2000-01-01T16:05:19.000Z</time>
      </trkpt>
      <trkpt lat="47.13255" lon="5.87098">
        <ele>239.6</ele>
        <time>2000-01-01T16:05:29.000Z</time>
      </trkpt>
      <trkpt lat="47.13267" lon="5.87111">
        <ele>238</ele>
        <time>2000-01-01T16:05:39.000Z</time>
      </trkpt>
      <trkpt lat="47.1328" lon="5.87123">
        <ele>240.1</ele>
        <time>2000-01-01T16:05:49.000Z</time>
      </trkpt>
      <trkpt lat="47.1329" lon="5.87134">
        <ele>239</ele>
        <time>2000-01-01T16:05:59.000Z</time>
      </trkpt>
      <trkpt lat="47.1331" lon="5.8715">
        <ele>239</ele>
        <time>2000-01-01T16:06:09.000Z</time>
      </trkpt>
      <trkpt lat="47.13313" lon="5.87153">
        <ele>239.7</ele>
        <time>2000-01-01T16:06:19.000Z</time>
      </trkpt>
      <trkpt lat="47.13318" lon="5.87156">
        <ele>239.6</ele>
        <time>2000-01-01T16:06:29.000Z</time>
      </trkpt>
      <trkpt lat="47.13348" lon="5.87177">
        <ele>239</ele>
        <time>2000-01-01T16:06:39.000Z</time>
      </trkpt>
      <trkpt lat="47.13359" lon="5.87184">
        <ele>240.6</ele>
        <time>2000-01-01T16:06:49.000Z</time>
      </trkpt>
      <trkpt lat="47.13366" lon="5.87188">
        <ele>239</ele>
        <time>2000-01-01T16:06:59.000Z</time>
      </trkpt>
      <trkpt lat="47.13379" lon="5.87195">
        <ele>240.4</ele>
        <time>2000-01-01T16:07:09.000Z</time>
      </trkpt>
      <trkpt lat="47.13393" lon="5.87204">
        <ele>240</ele>
        <time>2000-01-01T16:07:19.000Z</time>
      </trkpt>
      <trkpt lat="47.13397" lon="5.8721">
        <ele>241</ele>
        <time>2000-01-01T16:07:29.000Z</time>
      </trkpt>
      <trkpt lat="47.13407" lon="5.8723">
        <ele>242</ele>
        <time>2000-01-01T16:07:39.000Z</time>
      </trkpt>
      <trkpt lat="47.13409" lon="5.87243">
        <ele>242.7</ele>
        <time>2000-01-01T16:07:49.000Z</time>
      </trkpt>
      <trkpt lat="47.13409" lon="5.87256">
        <ele>243.4</ele>
        <time>2000-01-01T16:07:59.000Z</time>
      </trkpt>
      <trkpt lat="47.13408" lon="5.87266">
        <ele>243</ele>
        <time>2000-01-01T16:08:09.000Z</time>
      </trkpt>
      <trkpt lat="47.13405" lon="5.87281">
        <ele>245.3</ele>
        <time>2000-01-01T16:08:19.000Z</time>
      </trkpt>
      <trkpt lat="47.13402" lon="5.87296">
        <ele>247</ele>
        <time>2000-01-01T16:08:29.000Z</time>
      </trkpt>
      <trkpt lat="47.134" lon="5.87307">
        <ele>247.8</ele>
        <time>2000-01-01T16:08:39.000Z</time>
      </trkpt>
      <trkpt lat="47.13398" lon="5.87317">
        <ele>249.2</ele>
        <time>2000-01-01T16:08:49.000Z</time>
      </trkpt>
      <trkpt lat="47.13399" lon="5.87329">
        <ele>250</ele>
        <time>2000-01-01T16:08:59.000Z</time>
      </trkpt>
      <trkpt lat="47.13402" lon="5.87343">
        <ele>251.9</ele>
        <time>2000-01-01T16:09:09.000Z</time>
      </trkpt>
      <trkpt lat="47.13403" lon="5.87351">
        <ele>252.6</ele>
        <time>2000-01-01T16:09:19.000Z</time>
      </trkpt>
      <trkpt lat="47.13402" lon="5.87359">
        <ele>252</ele>
        <time>2000-01-01T16:09:29.000Z</time>
      </trkpt>
      <trkpt lat="47.13398" lon="5.87369">
        <ele>254.6</ele>
        <time>2000-01-01T16:09:39.000Z</time>
      </trkpt>
      <trkpt lat="47.13391" lon="5.8738">
        <ele>256</ele>
        <time>2000-01-01T16:09:49.000Z</time>
      </trkpt>
      <trkpt lat="47.13385" lon="5.87387">
        <ele>256</ele>
        <time>2000-01-01T16:09:59.000Z</time>
      </trkpt>
      <trkpt lat="47.13379" lon="5.87396">
        <ele>258.1</ele>
        <time>2000-01-01T16:10:09.000Z</time>
      </trkpt>
      <trkpt lat="47.13377" lon="5.87404">
        <ele>258.7</ele>
        <time>2000-01-01T16:10:19.000Z</time>
      </trkpt>
      <trkpt lat="47.13374" lon="5.87416">
        <ele>259</ele>
        <time>2000-01-01T16:10:29.000Z</time>
      </trkpt>
      <trkpt lat="47.13384" lon="5.8742">
        <ele>259.3</ele>
        <time>2000-01-01T16:10:39.000Z</time>
      </trkpt>
      <trkpt lat="47.13381" lon="5.87427">
        <ele>259.4</ele>
        <time>2000-01-01T16:10:49.000Z</time>
      </trkpt>
      <trkpt lat="47.13377" lon="5.8744">
        <ele>259</ele>
        <time>2000-01-01T16:10:59.000Z</time>
      </trkpt>
      <trkpt lat="47.1337" lon="5.87461">
        <ele>259.1</ele>
        <time>2000-01-01T16:11:09.000Z</time>
      </trkpt>
      <trkpt lat="47.13369" lon="5.87477">
        <ele>258</ele>
        <time>2000-01-01T16:11:19.000Z</time>
      </trkpt>
      <trkpt lat="47.13368" lon="5.87494">
        <ele>258.2</ele>
        <time>2000-01-01T16:11:29.000Z</time>
      </trkpt>
      <trkpt lat="47.13368" lon="5.87509">
        <ele>258</ele>
        <time>2000-01-01T16:11:39.000Z</time>
      </trkpt>
      <trkpt lat="47.13368" lon="5.87525">
        <ele>258.9</ele>
        <time>2000-01-01T16:11:49.000Z</time>
      </trkpt>
      <trkpt lat="47.13368" lon="5.87539">
        <ele>258</ele>
        <time>2000-01-01T16:11:59.000Z</time>
      </trkpt>
      <trkpt lat="47.13367" lon="5.87551">
        <ele>259.8</ele>
        <time>2000-01-01T16:12:09.000Z</time>
      </trkpt>
      <trkpt lat="47.13364" lon="5.87563">
        <ele>260.2</ele>
        <time>2000-01-01T16:12:19.000Z</time>
      </trkpt>
      <trkpt lat="47.1336" lon="5.87582">
        <ele>260</ele>
        <time>2000-01-01T16:12:29.000Z</time>
      </trkpt>
      <trkpt lat="47.13356" lon="5.87598">
        <ele>260.9</ele>
        <time>2000-01-01T16:12:39.000Z</time>
      </trkpt>
      <trkpt lat="47.1335" lon="5.8762">
        <ele>261</ele>
        <time>2000-01-01T16:12:49.000Z</time>
      </trkpt>
      <trkpt lat="47.13345" lon="5.87632">
        <ele>261.4</ele>
        <time>2000-01-01T16:12:59.000Z</time>
      </trkpt>
      <trkpt lat="47.1334" lon="5.87645">
        <ele>262</ele>
        <time>2000-01-01T16:13:09.000Z</time>
      </trkpt>
      <trkpt lat="47.13334" lon="5.8766">
        <ele>263.5</ele>
        <time>2000-01-01T16:13:19.000Z</time>
      </trkpt>
      <trkpt lat="47.13332" lon="5.87666">
        <ele>264</ele>
        <time>2000-01-01T16:13:29.000Z</time>
      </trkpt>
      <trkpt lat="47.13329" lon="5.87673">
        <ele>264</ele>
        <time>2000-01-01T16:13:39.000Z</time>
      </trkpt>
      <trkpt lat="47.13325" lon="5.87685">
        <ele>264.9</ele>
        <time>2000-01-01T16:13:49.000Z</time>
      </trkpt>
      <trkpt lat="47.13321" lon="5.87694">
        <ele>265.4</ele>
        <time>2000-01-01T16:13:59.000Z</time>
      </trkpt>
      <trkpt lat="47.13318" lon="5.87704">
        <ele>266</ele>
        <time>2000-01-01T16:14:09.000Z</time>
      </trkpt>
      <trkpt lat="47.13316" lon="5.87714">
        <ele>266.3</ele>
        <time>2000-01-01T16:14:19.000Z</time>
      </trkpt>
      <trkpt lat="47.13312" lon="5.8773">
        <ele>267</ele>
        <time>2000-01-01T16:14:29.000Z</time>
      </trkpt>
      <trkpt lat="47.1331" lon="5.8774">
        <ele>267.5</ele>
        <time>2000-01-01T16:14:39.000Z</time>
      </trkpt>
      <trkpt lat="47.13309" lon="5.87754">
        <ele>267.9</ele>
        <time>2000-01-01T16:14:49.000Z</time>
      </trkpt>
      <trkpt lat="47.13309" lon="5.87769">
        <ele>267</ele>
        <time>2000-01-01T16:14:59.000Z</time>
      </trkpt>
      <trkpt lat="47.1331" lon="5.87783">
        <ele>268.2</ele>
        <time>2000-01-01T16:15:09.000Z</time>
      </trkpt>
      <trkpt lat="47.13314" lon="5.87814">
        <ele>268</ele>
        <time>2000-01-01T16:15:19.000Z</time>
      </trkpt>
      <trkpt lat="47.13316" lon="5.87828">
        <ele>268.9</ele>
        <time>2000-01-01T16:15:29.000Z</time>
      </trkpt>
      <trkpt lat="47.13316" lon="5.87838">
        <ele>269.2</ele>
        <time>2000-01-01T16:15:39.000Z</time>
      </trkpt>
      <trkpt lat="47.13316" lon="5.87849">
        <ele>269</ele>
        <time>2000-01-01T16:15:49.000Z</time>
      </trkpt>
      <trkpt lat="47.13314" lon="5.87867">
        <ele>270.5</ele>
        <time>2000-01-01T16:15:59.000Z</time>
      </trkpt>
      <trkpt lat="47.13312" lon="5.8788">
        <ele>270</ele>
        <time>2000-01-01T16:16:09.000Z</time>
      </trkpt>
      <trkpt lat="47.13308" lon="5.87903">
        <ele>271.5</ele>
        <time>2000-01-01T16:16:19.000Z</time>
      </trkpt>
      <trkpt lat="47.133" lon="5.87948">
        <ele>273</ele>
        <time>2000-01-01T16:16:29.000Z</time>
      </trkpt>
      <trkpt lat="47.13297" lon="5.87962">
        <ele>274</ele>
        <time>2000-01-01T16:16:39.000Z</time>
      </trkpt>
      <trkpt lat="47.13297" lon="5.87962">
        <ele>274</ele>
        <time>2000-01-01T16:16:49.000Z</time>
      </trkpt>
      <trkpt lat="47.13286" lon="5.88006">
        <ele>273</ele>
        <time>2000-01-01T16:16:59.000Z</time>
      </trkpt>
      <trkpt lat="47.1328" lon="5.88027">
        <ele>273.9</ele>
        <time>2000-01-01T16:17:09.000Z</time>
      </trkpt>
      <trkpt lat="47.13277" lon="5.88043">
        <ele>274</ele>
        <time>2000-01-01T16:17:19.000Z</time>
      </trkpt>
      <trkpt lat="47.13276" lon="5.88058">
        <ele>275</ele>
        <time>2000-01-01T16:17:29.000Z</time>
      </trkpt>
      <trkpt lat="47.13271" lon="5.88074">
        <ele>275</ele>
        <time>2000-01-01T16:17:39.000Z</time>
      </trkpt>
      <trkpt lat="47.13266" lon="5.88093">
        <ele>275.8</ele>
        <time>2000-01-01T16:17:49.000Z</time>
      </trkpt>
      <trkpt lat="47.13261" lon="5.88109">
        <ele>276</ele>
        <time>2000-01-01T16:17:59.000Z</time>
      </trkpt>
      <trkpt lat="47.13253" lon="5.88128">
        <ele>277.6</ele>
        <time>2000-01-01T16:18:09.000Z</time>
      </trkpt>
      <trkpt lat="47.1324" lon="5.88152">
        <ele>278</ele>
        <time>2000-01-01T16:18:19.000Z</time>
      </trkpt>
      <trkpt lat="47.13231" lon="5.88169">
        <ele>279.1</ele>
        <time>2000-01-01T16:18:29.000Z</time>
      </trkpt>
      <trkpt lat="47.13227" lon="5.88176">
        <ele>278</ele>
        <time>2000-01-01T16:18:39.000Z</time>
      </trkpt>
      <trkpt lat="47.13222" lon="5.88186">
        <ele>279.7</ele>
        <time>2000-01-01T16:18:49.000Z</time>
      </trkpt>
      <trkpt lat="47.13217" lon="5.88197">
        <ele>280.3</ele>
        <time>2000-01-01T16:18:59.000Z</time>
      </trkpt>
      <trkpt lat="47.13214" lon="5.88204">
        <ele>280</ele>
        <time>2000-01-01T16:19:09.000Z</time>
      </trkpt>
      <trkpt lat="47.13211" lon="5.88218">
        <ele>281.3</ele>
        <time>2000-01-01T16:19:19.000Z</time>
      </trkpt>
      <trkpt lat="47.13209" lon="5.88235">
        <ele>281</ele>
        <time>2000-01-01T16:19:29.000Z</time>
      </trkpt>
      <trkpt lat="47.13204" lon="5.88268">
        <ele>284</ele>
        <time>2000-01-01T16:19:39.000Z</time>
      </trkpt>
      <trkpt lat="47.13201" lon="5.88283">
        <ele>285.7</ele>
        <time>2000-01-01T16:19:49.000Z</time>
      </trkpt>
      <trkpt lat="47.13198" lon="5.88295">
        <ele>286</ele>
        <time>2000-01-01T16:19:59.000Z</time>
      </trkpt>
      <trkpt lat="47.13195" lon="5.88303">
        <ele>287.8</ele>
        <time>2000-01-01T16:20:09.000Z</time>
      </trkpt>
      <trkpt lat="47.1319" lon="5.88311">
        <ele>288.6</ele>
        <time>2000-01-01T16:20:19.000Z</time>
      </trkpt>
      <trkpt lat="47.13185" lon="5.88318">
        <ele>288</ele>
        <time>2000-01-01T16:20:29.000Z</time>
      </trkpt>
      <trkpt lat="47.1318" lon="5.88324">
        <ele>290.5</ele>
        <time>2000-01-01T16:20:39.000Z</time>
      </trkpt>
      <trkpt lat="47.13172" lon="5.88329">
        <ele>291.9</ele>
        <time>2000-01-01T16:20:49.000Z</time>
      </trkpt>
      <trkpt lat="47.13161" lon="5.88336">
        <ele>292</ele>
        <time>2000-01-01T16:20:59.000Z</time>
      </trkpt>
      <trkpt lat="47.1315" lon="5.88339">
        <ele>294.9</ele>
        <time>2000-01-01T16:21:09.000Z</time>
      </trkpt>
      <trkpt lat="47.13136" lon="5.8834">
        <ele>295</ele>
        <time>2000-01-01T16:21:19.000Z</time>
      </trkpt>
      <trkpt lat="47.13113" lon="5.88345">
        <ele>299</ele>
        <time>2000-01-01T16:21:29.000Z</time>
      </trkpt>
      <trkpt lat="47.13074" lon="5.88346">
        <ele>305</ele>
        <time>2000-01-01T16:21:39.000Z</time>
      </trkpt>
      <trkpt lat="47.13037" lon="5.88343">
        <ele>312</ele>
        <time>2000-01-01T16:21:49.000Z</time>
      </trkpt>
      <trkpt lat="47.13009" lon="5.88338">
        <ele>316</ele>
        <time>2000-01-01T16:21:59.000Z</time>
      </trkpt>
      <trkpt lat="47.12963" lon="5.88329">
        <ele>323</ele>
        <time>2000-01-01T16:22:09.000Z</time>
      </trkpt>
      <trkpt lat="47.12949" lon="5.88331">
        <ele>325.3</ele>
        <time>2000-01-01T16:22:19.000Z</time>
      </trkpt>
      <trkpt lat="47.12938" lon="5.88338">
        <ele>327</ele>
        <time>2000-01-01T16:22:29.000Z</time>
      </trkpt>
      <trkpt lat="47.12924" lon="5.88349">
        <ele>330.1</ele>
        <time>2000-01-01T16:22:39.000Z</time>
      </trkpt>
      <trkpt lat="47.12913" lon="5.88356">
        <ele>331</ele>
        <time>2000-01-01T16:22:49.000Z</time>
      </trkpt>
      <trkpt lat="47.12901" lon="5.88361">
        <ele>333.7</ele>
        <time>2000-01-01T16:22:59.000Z</time>
      </trkpt>
      <trkpt lat="47.12889" lon="5.88359">
        <ele>334</ele>
        <time>2000-01-01T16:23:09.000Z</time>
      </trkpt>
      <trkpt lat="47.12881" lon="5.88355">
        <ele>335.9</ele>
        <time>2000-01-01T16:23:19.000Z</time>
      </trkpt>
      <trkpt lat="47.12869" lon="5.88347">
        <ele>337</ele>
        <time>2000-01-01T16:23:29.000Z</time>
      </trkpt>
      <trkpt lat="47.12862" lon="5.88344">
        <ele>338</ele>
        <time>2000-01-01T16:23:39.000Z</time>
      </trkpt>
      <trkpt lat="47.1285" lon="5.88345">
        <ele>338</ele>
        <time>2000-01-01T16:23:49.000Z</time>
      </trkpt>
      <trkpt lat="47.12839" lon="5.88351">
        <ele>341</ele>
        <time>2000-01-01T16:23:59.000Z</time>
      </trkpt>
      <trkpt lat="47.1283" lon="5.88354">
        <ele>341</ele>
        <time>2000-01-01T16:24:09.000Z</time>
      </trkpt>
      <trkpt lat="47.12824" lon="5.88351">
        <ele>343.3</ele>
        <time>2000-01-01T16:24:19.000Z</time>
      </trkpt>
      <trkpt lat="47.12812" lon="5.8834">
        <ele>343</ele>
        <time>2000-01-01T16:24:29.000Z</time>
      </trkpt>
      <trkpt lat="47.12801" lon="5.88336">
        <ele>344.5</ele>
        <time>2000-01-01T16:24:39.000Z</time>
      </trkpt>
      <trkpt lat="47.12791" lon="5.88332">
        <ele>345</ele>
        <time>2000-01-01T16:24:49.000Z</time>
      </trkpt>
      <trkpt lat="47.12773" lon="5.88327">
        <ele>348</ele>
        <time>2000-01-01T16:24:59.000Z</time>
      </trkpt>
      <trkpt lat="47.12759" lon="5.88327">
        <ele>350.4</ele>
        <time>2000-01-01T16:25:09.000Z</time>
      </trkpt>
      <trkpt lat="47.12751" lon="5.88331">
        <ele>351</ele>
        <time>2000-01-01T16:25:19.000Z</time>
      </trkpt>
      <trkpt lat="47.12737" lon="5.88334">
        <ele>353.6</ele>
        <time>2000-01-01T16:25:29.000Z</time>
      </trkpt>
      <trkpt lat="47.12727" lon="5.88335">
        <ele>354</ele>
        <time>2000-01-01T16:25:39.000Z</time>
      </trkpt>
      <trkpt lat="47.1271" lon="5.88337">
        <ele>355.3</ele>
        <time>2000-01-01T16:25:49.000Z</time>
      </trkpt>
      <trkpt lat="47.12699" lon="5.88335">
        <ele>356</ele>
        <time>2000-01-01T16:25:59.000Z</time>
      </trkpt>
      <trkpt lat="47.12681" lon="5.88335">
        <ele>358.1</ele>
        <time>2000-01-01T16:26:09.000Z</time>
      </trkpt>
      <trkpt lat="47.12668" lon="5.88339">
        <ele>360</ele>
        <time>2000-01-01T16:26:19.000Z</time>
      </trkpt>
      <trkpt lat="47.12654" lon="5.88343">
        <ele>362.1</ele>
        <time>2000-01-01T16:26:29.000Z</time>
      </trkpt>
      <trkpt lat="47.12641" lon="5.88344">
        <ele>363</ele>
        <time>2000-01-01T16:26:39.000Z</time>
      </trkpt>
      <trkpt lat="47.12622" lon="5.88344">
        <ele>365</ele>
        <time>2000-01-01T16:26:49.000Z</time>
      </trkpt>
      <trkpt lat="47.12607" lon="5.88343">
        <ele>368.5</ele>
        <time>2000-01-01T16:26:59.000Z</time>
      </trkpt>
      <trkpt lat="47.12591" lon="5.88344">
        <ele>369</ele>
        <time>2000-01-01T16:27:09.000Z</time>
      </trkpt>
      <trkpt lat="47.12572" lon="5.88348">
        <ele>372</ele>
        <time>2000-01-01T16:27:19.000Z</time>
      </trkpt>
      <trkpt lat="47.12539" lon="5.88357">
        <ele>378</ele>
        <time>2000-01-01T16:27:29.000Z</time>
      </trkpt>
      <trkpt lat="47.12515" lon="5.88357">
        <ele>381</ele>
        <time>2000-01-01T16:27:39.000Z</time>
      </trkpt>
      <trkpt lat="47.12487" lon="5.88357">
        <ele>381</ele>
        <time>2000-01-01T16:27:49.000Z</time>
      </trkpt>
      <trkpt lat="47.12482" lon="5.88368">
        <ele>386.1</ele>
        <time>2000-01-01T16:27:59.000Z</time>
      </trkpt>
      <trkpt lat="47.12549" lon="5.88433">
        <ele>380</ele>
        <time>2000-01-01T16:28:09.000Z</time>
      </trkpt>
      <trkpt lat="47.12574" lon="5.88453">
        <ele>379</ele>
        <time>2000-01-01T16:28:19.000Z</time>
      </trkpt>
      <trkpt lat="47.12596" lon="5.8847">
        <ele>377</ele>
        <time>2000-01-01T16:28:29.000Z</time>
      </trkpt>
      <trkpt lat="47.12613" lon="5.8848">
        <ele>374.9</ele>
        <time>2000-01-01T16:28:39.000Z</time>
      </trkpt>
      <trkpt lat="47.12622" lon="5.88487">
        <ele>376</ele>
        <time>2000-01-01T16:28:49.000Z</time>
      </trkpt>
      <trkpt lat="47.12636" lon="5.88495">
        <ele>374.1</ele>
        <time>2000-01-01T16:28:59.000Z</time>
      </trkpt>
      <trkpt lat="47.12649" lon="5.88501">
        <ele>374</ele>
        <time>2000-01-01T16:29:09.000Z</time>
      </trkpt>
      <trkpt lat="47.12659" lon="5.88502">
        <ele>373</ele>
        <time>2000-01-01T16:29:19.000Z</time>
      </trkpt>
      <trkpt lat="47.12669" lon="5.88501">
        <ele>372</ele>
        <time>2000-01-01T16:29:29.000Z</time>
      </trkpt>
      <trkpt lat="47.12678" lon="5.88499">
        <ele>371.4</ele>
        <time>2000-01-01T16:29:39.000Z</time>
      </trkpt>
      <trkpt lat="47.12689" lon="5.88494">
        <ele>370</ele>
        <time>2000-01-01T16:29:49.000Z</time>
      </trkpt>
      <trkpt lat="47.12701" lon="5.88489">
        <ele>368</ele>
        <time>2000-01-01T16:29:59.000Z</time>
      </trkpt>
      <trkpt lat="47.12713" lon="5.88485">
        <ele>367</ele>
        <time>2000-01-01T16:30:09.000Z</time>
      </trkpt>
      <trkpt lat="47.12726" lon="5.88485">
        <ele>365.7</ele>
        <time>2000-01-01T16:30:19.000Z</time>
      </trkpt>
      <trkpt lat="47.12735" lon="5.88487">
        <ele>366</ele>
        <time>2000-01-01T16:30:29.000Z</time>
      </trkpt>
      <trkpt lat="47.12747" lon="5.88494">
        <ele>364.7</ele>
        <time>2000-01-01T16:30:39.000Z</time>
      </trkpt>
      <trkpt lat="47.12759" lon="5.88501">
        <ele>365</ele>
        <time>2000-01-01T16:30:49.000Z</time>
      </trkpt>
      <trkpt lat="47.12772" lon="5.88513">
        <ele>362.7</ele>
        <time>2000-01-01T16:30:59.000Z</time>
      </trkpt>
      <trkpt lat="47.12785" lon="5.88529">
        <ele>363</ele>
        <time>2000-01-01T16:31:09.000Z</time>
      </trkpt>
      <trkpt lat="47.128" lon="5.88548">
        <ele>362</ele>
        <time>2000-01-01T16:31:19.000Z</time>
      </trkpt>
      <trkpt lat="47.12814" lon="5.88563">
        <ele>362.5</ele>
        <time>2000-01-01T16:31:29.000Z</time>
      </trkpt>
      <trkpt lat="47.12826" lon="5.88567">
        <ele>362</ele>
        <time>2000-01-01T16:31:39.000Z</time>
      </trkpt>
      <trkpt lat="47.12836" lon="5.88568">
        <ele>362.9</ele>
        <time>2000-01-01T16:31:49.000Z</time>
      </trkpt>
      <trkpt lat="47.12847" lon="5.88567">
        <ele>362</ele>
        <time>2000-01-01T16:31:59.000Z</time>
      </trkpt>
      <trkpt lat="47.12853" lon="5.88595">
        <ele>365</ele>
        <time>2000-01-01T16:32:09.000Z</time>
      </trkpt>
      <trkpt lat="47.12861" lon="5.88628">
        <ele>364</ele>
        <time>2000-01-01T16:32:19.000Z</time>
      </trkpt>
      <trkpt lat="47.1288" lon="5.88654">
        <ele>363</ele>
        <time>2000-01-01T16:32:29.000Z</time>
      </trkpt>
      <trkpt lat="47.12906" lon="5.88689">
        <ele>359</ele>
        <time>2000-01-01T16:32:39.000Z</time>
      </trkpt>
      <trkpt lat="47.12931" lon="5.88703">
        <ele>359</ele>
        <time>2000-01-01T16:32:49.000Z</time>
      </trkpt>
      <trkpt lat="47.12969" lon="5.88725">
        <ele>358</ele>
        <time>2000-01-01T16:32:59.000Z</time>
      </trkpt>
      <trkpt lat="47.12998" lon="5.88755">
        <ele>354</ele>
        <time>2000-01-01T16:33:09.000Z</time>
      </trkpt>
      <trkpt lat="47.13027" lon="5.88785">
        <ele>351</ele>
        <time>2000-01-01T16:33:19.000Z</time>
      </trkpt>
      <trkpt lat="47.13056" lon="5.88815">
        <ele>350</ele>
        <time>2000-01-01T16:33:29.000Z</time>
      </trkpt>
      <trkpt lat="47.13076" lon="5.88836">
        <ele>346</ele>
        <time>2000-01-01T16:33:39.000Z</time>
      </trkpt>
      <trkpt lat="47.13099" lon="5.88859">
        <ele>346</ele>
        <time>2000-01-01T16:33:49.000Z</time>
      </trkpt>
      <trkpt lat="47.13125" lon="5.88876">
        <ele>346</ele>
        <time>2000-01-01T16:33:59.000Z</time>
      </trkpt>
      <trkpt lat="47.13146" lon="5.88891">
        <ele>346</ele>
        <time>2000-01-01T16:34:09.000Z</time>
      </trkpt>
      <trkpt lat="47.13169" lon="5.88906">
        <ele>346</ele>
        <time>2000-01-01T16:34:19.000Z</time>
      </trkpt>
      <trkpt lat="47.13186" lon="5.88939">
        <ele>342</ele>
        <time>2000-01-01T16:34:29.000Z</time>
      </trkpt>
      <trkpt lat="47.13213" lon="5.88992">
        <ele>334</ele>
        <time>2000-01-01T16:34:39.000Z</time>
      </trkpt>
      <trkpt lat="47.13239" lon="5.89026">
        <ele>334</ele>
        <time>2000-01-01T16:34:49.000Z</time>
      </trkpt>
      <trkpt lat="47.13264" lon="5.8906">
        <ele>334</ele>
        <time>2000-01-01T16:34:59.000Z</time>
      </trkpt>
      <trkpt lat="47.1329" lon="5.89094">
        <ele>334</ele>
        <time>2000-01-01T16:35:09.000Z</time>
      </trkpt>
      <trkpt lat="47.13317" lon="5.8913">
        <ele>336</ele>
        <time>2000-01-01T16:35:19.000Z</time>
      </trkpt>
      <trkpt lat="47.13345" lon="5.89147">
        <ele>336</ele>
        <time>2000-01-01T16:35:29.000Z</time>
      </trkpt>
      <trkpt lat="47.13368" lon="5.89162">
        <ele>337</ele>
        <time>2000-01-01T16:35:39.000Z</time>
      </trkpt>
      <trkpt lat="47.13398" lon="5.8918">
        <ele>340</ele>
        <time>2000-01-01T16:35:49.000Z</time>
      </trkpt>
      <trkpt lat="47.13422" lon="5.89186">
        <ele>339</ele>
        <time>2000-01-01T16:35:59.000Z</time>
      </trkpt>
      <trkpt lat="47.13449" lon="5.89194">
        <ele>339</ele>
        <time>2000-01-01T16:36:09.000Z</time>
      </trkpt>
      <trkpt lat="47.13484" lon="5.89194">
        <ele>339</ele>
        <time>2000-01-01T16:36:19.000Z</time>
      </trkpt>
      <trkpt lat="47.13518" lon="5.89194">
        <ele>339</ele>
        <time>2000-01-01T16:36:29.000Z</time>
      </trkpt>
      <trkpt lat="47.13553" lon="5.89194">
        <ele>337</ele>
        <time>2000-01-01T16:36:39.000Z</time>
      </trkpt>
      <trkpt lat="47.1359" lon="5.89194">
        <ele>335</ele>
        <time>2000-01-01T16:36:49.000Z</time>
      </trkpt>
      <trkpt lat="47.13619" lon="5.89193">
        <ele>331</ele>
        <time>2000-01-01T16:36:59.000Z</time>
      </trkpt>
      <trkpt lat="47.13642" lon="5.89192">
        <ele>324</ele>
        <time>2000-01-01T16:37:09.000Z</time>
      </trkpt>
      <trkpt lat="47.13666" lon="5.89191">
        <ele>315</ele>
        <time>2000-01-01T16:37:19.000Z</time>
      </trkpt>
      <trkpt lat="47.13682" lon="5.89212">
        <ele>306</ele>
        <time>2000-01-01T16:37:29.000Z</time>
      </trkpt>
      <trkpt lat="47.13701" lon="5.89212">
        <ele>302</ele>
        <time>2000-01-01T16:37:39.000Z</time>
      </trkpt>
      <trkpt lat="47.13717" lon="5.89224">
        <ele>296.8</ele>
        <time>2000-01-01T16:37:49.000Z</time>
      </trkpt>
      <trkpt lat="47.1371" lon="5.89253">
        <ele>296</ele>
        <time>2000-01-01T16:37:59.000Z</time>
      </trkpt>
      <trkpt lat="47.13696" lon="5.89288">
        <ele>292</ele>
        <time>2000-01-01T16:38:09.000Z</time>
      </trkpt>
      <trkpt lat="47.13672" lon="5.8931">
        <ele>292</ele>
        <time>2000-01-01T16:38:19.000Z</time>
      </trkpt>
      <trkpt lat="47.13634" lon="5.89344">
        <ele>293</ele>
        <time>2000-01-01T16:38:29.000Z</time>
      </trkpt>
      <trkpt lat="47.13597" lon="5.89338">
        <ele>294</ele>
        <time>2000-01-01T16:38:39.000Z</time>
      </trkpt>
      <trkpt lat="47.13559" lon="5.89331">
        <ele>295</ele>
        <time>2000-01-01T16:38:49.000Z</time>
      </trkpt>
      <trkpt lat="47.13522" lon="5.89325">
        <ele>297</ele>
        <time>2000-01-01T16:38:59.000Z</time>
      </trkpt>
      <trkpt lat="47.13485" lon="5.89319">
        <ele>299</ele>
        <time>2000-01-01T16:39:09.000Z</time>
      </trkpt>
      <trkpt lat="47.13459" lon="5.89314">
        <ele>299</ele>
        <time>2000-01-01T16:39:19.000Z</time>
      </trkpt>
      <trkpt lat="47.13427" lon="5.89309">
        <ele>301</ele>
        <time>2000-01-01T16:39:29.000Z</time>
      </trkpt>
      <trkpt lat="47.13395" lon="5.89293">
        <ele>302</ele>
        <time>2000-01-01T16:39:39.000Z</time>
      </trkpt>
      <trkpt lat="47.13363" lon="5.89277">
        <ele>302</ele>
        <time>2000-01-01T16:39:49.000Z</time>
      </trkpt>
      <trkpt lat="47.13337" lon="5.89264">
        <ele>304</ele>
        <time>2000-01-01T16:39:59.000Z</time>
      </trkpt>
      <trkpt lat="47.13302" lon="5.89246">
        <ele>307</ele>
        <time>2000-01-01T16:40:09.000Z</time>
      </trkpt>
      <trkpt lat="47.13281" lon="5.89255">
        <ele>312</ele>
        <time>2000-01-01T16:40:19.000Z</time>
      </trkpt>
      <trkpt lat="47.13291" lon="5.89294">
        <ele>318</ele>
        <time>2000-01-01T16:40:29.000Z</time>
      </trkpt>
      <trkpt lat="47.13293" lon="5.89295">
        <ele>319.2</ele>
        <time>2000-01-01T16:40:39.000Z</time>
      </trkpt>
      <trkpt lat="47.13314" lon="5.89305">
        <ele>322</ele>
        <time>2000-01-01T16:40:49.000Z</time>
      </trkpt>
      <trkpt lat="47.13321" lon="5.89313">
        <ele>323.3</ele>
        <time>2000-01-01T16:40:59.000Z</time>
      </trkpt>
      <trkpt lat="47.13327" lon="5.89326">
        <ele>325</ele>
        <time>2000-01-01T16:41:09.000Z</time>
      </trkpt>
      <trkpt lat="47.13335" lon="5.89341">
        <ele>328.7</ele>
        <time>2000-01-01T16:41:19.000Z</time>
      </trkpt>
      <trkpt lat="47.13357" lon="5.89366">
        <ele>330</ele>
        <time>2000-01-01T16:41:29.000Z</time>
      </trkpt>
      <trkpt lat="47.13377" lon="5.89387">
        <ele>332</ele>
        <time>2000-01-01T16:41:39.000Z</time>
      </trkpt>
      <trkpt lat="47.13399" lon="5.8941">
        <ele>336</ele>
        <time>2000-01-01T16:41:49.000Z</time>
      </trkpt>
      <trkpt lat="47.13421" lon="5.89429">
        <ele>337</ele>
        <time>2000-01-01T16:41:59.000Z</time>
      </trkpt>
      <trkpt lat="47.13446" lon="5.8945">
        <ele>344</ele>
        <time>2000-01-01T16:42:09.000Z</time>
      </trkpt>
      <trkpt lat="47.1348" lon="5.89483">
        <ele>352</ele>
        <time>2000-01-01T16:42:19.000Z</time>
      </trkpt>
      <trkpt lat="47.1351" lon="5.89517">
        <ele>357</ele>
        <time>2000-01-01T16:42:29.000Z</time>
      </trkpt>
      <trkpt lat="47.13539" lon="5.89544">
        <ele>361</ele>
        <time>2000-01-01T16:42:39.000Z</time>
      </trkpt>
      <trkpt lat="47.1357" lon="5.89562">
        <ele>364</ele>
        <time>2000-01-01T16:42:49.000Z</time>
      </trkpt>
      <trkpt lat="47.13604" lon="5.8958">
        <ele>367</ele>
        <time>2000-01-01T16:42:59.000Z</time>
      </trkpt>
      <trkpt lat="47.13619" lon="5.89588">
        <ele>370.2</ele>
        <time>2000-01-01T16:43:09.000Z</time>
      </trkpt>
      <trkpt lat="47.13629" lon="5.89602">
        <ele>372</ele>
        <time>2000-01-01T16:43:19.000Z</time>
      </trkpt>
      <trkpt lat="47.13635" lon="5.8962">
        <ele>374.8</ele>
        <time>2000-01-01T16:43:29.000Z</time>
      </trkpt>
      <trkpt lat="47.1364" lon="5.89647">
        <ele>372</ele>
        <time>2000-01-01T16:43:39.000Z</time>
      </trkpt>
      <trkpt lat="47.13648" lon="5.89702">
        <ele>371</ele>
        <time>2000-01-01T16:43:49.000Z</time>
      </trkpt>
      <trkpt lat="47.13652" lon="5.89724">
        <ele>373.8</ele>
        <time>2000-01-01T16:43:59.000Z</time>
      </trkpt>
      <trkpt lat="47.13655" lon="5.89734">
        <ele>371</ele>
        <time>2000-01-01T16:44:09.000Z</time>
      </trkpt>
      <trkpt lat="47.13656" lon="5.89746">
        <ele>372.2</ele>
        <time>2000-01-01T16:44:19.000Z</time>
      </trkpt>
      <trkpt lat="47.13656" lon="5.89753">
        <ele>371.5</ele>
        <time>2000-01-01T16:44:29.000Z</time>
      </trkpt>
      <trkpt lat="47.13654" lon="5.89763">
        <ele>369</ele>
        <time>2000-01-01T16:44:39.000Z</time>
      </trkpt>
      <trkpt lat="47.13648" lon="5.89774">
        <ele>369.3</ele>
        <time>2000-01-01T16:44:49.000Z</time>
      </trkpt>
      <trkpt lat="47.13636" lon="5.89788">
        <ele>369</ele>
        <time>2000-01-01T16:44:59.000Z</time>
      </trkpt>
      <trkpt lat="47.13626" lon="5.89799">
        <ele>369.9</ele>
        <time>2000-01-01T16:45:09.000Z</time>
      </trkpt>
      <trkpt lat="47.13623" lon="5.89805">
        <ele>370.3</ele>
        <time>2000-01-01T16:45:19.000Z</time>
      </trkpt>
      <trkpt lat="47.13623" lon="5.89818">
        <ele>368</ele>
        <time>2000-01-01T16:45:29.000Z</time>
      </trkpt>
      <trkpt lat="47.13624" lon="5.89839">
        <ele>368.9</ele>
        <time>2000-01-01T16:45:39.000Z</time>
      </trkpt>
      <trkpt lat="47.13625" lon="5.89862">
        <ele>368</ele>
        <time>2000-01-01T16:45:49.000Z</time>
      </trkpt>
      <trkpt lat="47.13624" lon="5.89876">
        <ele>368.9</ele>
        <time>2000-01-01T16:45:59.000Z</time>
      </trkpt>
      <trkpt lat="47.1362" lon="5.89891">
        <ele>370</ele>
        <time>2000-01-01T16:46:09.000Z</time>
      </trkpt>
      <trkpt lat="47.13612" lon="5.89911">
        <ele>372.5</ele>
        <time>2000-01-01T16:46:19.000Z</time>
      </trkpt>
      <trkpt lat="47.13604" lon="5.89932">
        <ele>375</ele>
        <time>2000-01-01T16:46:29.000Z</time>
      </trkpt>
      <trkpt lat="47.13594" lon="5.8995">
        <ele>377.2</ele>
        <time>2000-01-01T16:46:39.000Z</time>
      </trkpt>
      <trkpt lat="47.13589" lon="5.89964">
        <ele>376</ele>
        <time>2000-01-01T16:46:49.000Z</time>
      </trkpt>
      <trkpt lat="47.13604" lon="5.89977">
        <ele>378</ele>
        <time>2000-01-01T16:46:59.000Z</time>
      </trkpt>
      <trkpt lat="47.13617" lon="5.8999">
        <ele>375</ele>
        <time>2000-01-01T16:47:09.000Z</time>
      </trkpt>
      <trkpt lat="47.13631" lon="5.90007">
        <ele>375.5</ele>
        <time>2000-01-01T16:47:19.000Z</time>
      </trkpt>
      <trkpt lat="47.13643" lon="5.90024">
        <ele>374</ele>
        <time>2000-01-01T16:47:29.000Z</time>
      </trkpt>
      <trkpt lat="47.13657" lon="5.90043">
        <ele>373</ele>
        <time>2000-01-01T16:47:39.000Z</time>
      </trkpt>
      <trkpt lat="47.13671" lon="5.90065">
        <ele>371</ele>
        <time>2000-01-01T16:47:49.000Z</time>
      </trkpt>
      <trkpt lat="47.13685" lon="5.90085">
        <ele>370</ele>
        <time>2000-01-01T16:47:59.000Z</time>
      </trkpt>
      <trkpt lat="47.13697" lon="5.90103">
        <ele>369.2</ele>
        <time>2000-01-01T16:48:09.000Z</time>
      </trkpt>
      <trkpt lat="47.13711" lon="5.90122">
        <ele>369</ele>
        <time>2000-01-01T16:48:19.000Z</time>
      </trkpt>
      <trkpt lat="47.13727" lon="5.90143">
        <ele>368</ele>
        <time>2000-01-01T16:48:29.000Z</time>
      </trkpt>
      <trkpt lat="47.13744" lon="5.90166">
        <ele>366</ele>
        <time>2000-01-01T16:48:39.000Z</time>
      </trkpt>
      <trkpt lat="47.13757" lon="5.90182">
        <ele>366.1</ele>
        <time>2000-01-01T16:48:49.000Z</time>
      </trkpt>
      <trkpt lat="47.13774" lon="5.90205">
        <ele>365</ele>
        <time>2000-01-01T16:48:59.000Z</time>
      </trkpt>
      <trkpt lat="47.13786" lon="5.90225">
        <ele>365</ele>
        <time>2000-01-01T16:49:09.000Z</time>
      </trkpt>
      <trkpt lat="47.13795" lon="5.90243">
        <ele>365</ele>
        <time>2000-01-01T16:49:19.000Z</time>
      </trkpt>
      <trkpt lat="47.13803" lon="5.90261">
        <ele>364.8</ele>
        <time>2000-01-01T16:49:29.000Z</time>
      </trkpt>
      <trkpt lat="47.1381" lon="5.90276">
        <ele>365</ele>
        <time>2000-01-01T16:49:39.000Z</time>
      </trkpt>
      <trkpt lat="47.13818" lon="5.90296">
        <ele>363.8</ele>
        <time>2000-01-01T16:49:49.000Z</time>
      </trkpt>
      <trkpt lat="47.13824" lon="5.90311">
        <ele>364</ele>
        <time>2000-01-01T16:49:59.000Z</time>
      </trkpt>
      <trkpt lat="47.1383" lon="5.90322">
        <ele>362.9</ele>
        <time>2000-01-01T16:50:09.000Z</time>
      </trkpt>
      <trkpt lat="47.13838" lon="5.90335">
        <ele>363</ele>
        <time>2000-01-01T16:50:19.000Z</time>
      </trkpt>
      <trkpt lat="47.13848" lon="5.90351">
        <ele>360.8</ele>
        <time>2000-01-01T16:50:29.000Z</time>
      </trkpt>
      <trkpt lat="47.13858" lon="5.9037">
        <ele>360</ele>
        <time>2000-01-01T16:50:39.000Z</time>
      </trkpt>
      <trkpt lat="47.13868" lon="5.90387">
        <ele>357.7</ele>
        <time>2000-01-01T16:50:49.000Z</time>
      </trkpt>
      <trkpt lat="47.13878" lon="5.90406">
        <ele>358</ele>
        <time>2000-01-01T16:50:59.000Z</time>
      </trkpt>
      <trkpt lat="47.13887" lon="5.90425">
        <ele>356.9</ele>
        <time>2000-01-01T16:51:09.000Z</time>
      </trkpt>
      <trkpt lat="47.13898" lon="5.90442">
        <ele>357</ele>
        <time>2000-01-01T16:51:19.000Z</time>
      </trkpt>
      <trkpt lat="47.13907" lon="5.90456">
        <ele>356.5</ele>
        <time>2000-01-01T16:51:29.000Z</time>
      </trkpt>
      <trkpt lat="47.13918" lon="5.90472">
        <ele>357</ele>
        <time>2000-01-01T16:51:39.000Z</time>
      </trkpt>
      <trkpt lat="47.13928" lon="5.90485">
        <ele>357.6</ele>
        <time>2000-01-01T16:51:49.000Z</time>
      </trkpt>
      <trkpt lat="47.13938" lon="5.90496">
        <ele>357</ele>
        <time>2000-01-01T16:51:59.000Z</time>
      </trkpt>
      <trkpt lat="47.1395" lon="5.90509">
        <ele>358.8</ele>
        <time>2000-01-01T16:52:09.000Z</time>
      </trkpt>
      <trkpt lat="47.13968" lon="5.90525">
        <ele>359</ele>
        <time>2000-01-01T16:52:19.000Z</time>
      </trkpt>
      <trkpt lat="47.13978" lon="5.90533">
        <ele>360.4</ele>
        <time>2000-01-01T16:52:29.000Z</time>
      </trkpt>
      <trkpt lat="47.13989" lon="5.9054">
        <ele>359</ele>
        <time>2000-01-01T16:52:39.000Z</time>
      </trkpt>
      <trkpt lat="47.13999" lon="5.90545">
        <ele>361.5</ele>
        <time>2000-01-01T16:52:49.000Z</time>
      </trkpt>
      <trkpt lat="47.14007" lon="5.90546">
        <ele>361.6</ele>
        <time>2000-01-01T16:52:59.000Z</time>
      </trkpt>
      <trkpt lat="47.14014" lon="5.90546">
        <ele>359</ele>
        <time>2000-01-01T16:53:09.000Z</time>
      </trkpt>
      <trkpt lat="47.14024" lon="5.90543">
        <ele>361.2</ele>
        <time>2000-01-01T16:53:19.000Z</time>
      </trkpt>
      <trkpt lat="47.14034" lon="5.9054">
        <ele>359</ele>
        <time>2000-01-01T16:53:29.000Z</time>
      </trkpt>
      <trkpt lat="47.14043" lon="5.90537">
        <ele>360.5</ele>
        <time>2000-01-01T16:53:39.000Z</time>
      </trkpt>
      <trkpt lat="47.14049" lon="5.90538">
        <ele>360.8</ele>
        <time>2000-01-01T16:53:49.000Z</time>
      </trkpt>
      <trkpt lat="47.1406" lon="5.90534">
        <ele>359</ele>
        <time>2000-01-01T16:53:59.000Z</time>
      </trkpt>
      <trkpt lat="47.14067" lon="5.90535">
        <ele>360.5</ele>
        <time>2000-01-01T16:54:09.000Z</time>
      </trkpt>
      <trkpt lat="47.1408" lon="5.9054">
        <ele>361</ele>
        <time>2000-01-01T16:54:19.000Z</time>
      </trkpt>
      <trkpt lat="47.14091" lon="5.90552">
        <ele>364.9</ele>
        <time>2000-01-01T16:54:29.000Z</time>
      </trkpt>
      <trkpt lat="47.14106" lon="5.90568">
        <ele>366</ele>
        <time>2000-01-01T16:54:39.000Z</time>
      </trkpt>
      <trkpt lat="47.14132" lon="5.90592">
        <ele>366</ele>
        <time>2000-01-01T16:54:49.000Z</time>
      </trkpt>
      <trkpt lat="47.14143" lon="5.90598">
        <ele>365.3</ele>
        <time>2000-01-01T16:54:59.000Z</time>
      </trkpt>
      <trkpt lat="47.14157" lon="5.90606">
        <ele>365</ele>
        <time>2000-01-01T16:55:09.000Z</time>
      </trkpt>
      <trkpt lat="47.14178" lon="5.90615">
        <ele>364</ele>
        <time>2000-01-01T16:55:19.000Z</time>
      </trkpt>
      <trkpt lat="47.14198" lon="5.90624">
        <ele>364</ele>
        <time>2000-01-01T16:55:29.000Z</time>
      </trkpt>
      <trkpt lat="47.14218" lon="5.90634">
        <ele>363</ele>
        <time>2000-01-01T16:55:39.000Z</time>
      </trkpt>
      <trkpt lat="47.14231" lon="5.9064">
        <ele>364</ele>
        <time>2000-01-01T16:55:49.000Z</time>
      </trkpt>
      <trkpt lat="47.14246" lon="5.90649">
        <ele>363</ele>
        <time>2000-01-01T16:55:59.000Z</time>
      </trkpt>
      <trkpt lat="47.14253" lon="5.90655">
        <ele>364.4</ele>
        <time>2000-01-01T16:56:09.000Z</time>
      </trkpt>
      <trkpt lat="47.14255" lon="5.90656">
        <ele>364.3</ele>
        <time>2000-01-01T16:56:19.000Z</time>
      </trkpt>
      <trkpt lat="47.14263" lon="5.90663">
        <ele>363</ele>
        <time>2000-01-01T16:56:29.000Z</time>
      </trkpt>
      <trkpt lat="47.14265" lon="5.90665">
        <ele>363.9</ele>
        <time>2000-01-01T16:56:39.000Z</time>
      </trkpt>
      <trkpt lat="47.14275" lon="5.9068">
        <ele>363.6</ele>
        <time>2000-01-01T16:56:49.000Z</time>
      </trkpt>
      <trkpt lat="47.14296" lon="5.9072">
        <ele>364</ele>
        <time>2000-01-01T16:56:59.000Z</time>
      </trkpt>
      <trkpt lat="47.14307" lon="5.90749">
        <ele>364</ele>
        <time>2000-01-01T16:57:09.000Z</time>
      </trkpt>
      <trkpt lat="47.14319" lon="5.90779">
        <ele>364</ele>
        <time>2000-01-01T16:57:19.000Z</time>
      </trkpt>
      <trkpt lat="47.14324" lon="5.90793">
        <ele>364.7</ele>
        <time>2000-01-01T16:57:29.000Z</time>
      </trkpt>
      <trkpt lat="47.14331" lon="5.90812">
        <ele>364</ele>
        <time>2000-01-01T16:57:39.000Z</time>
      </trkpt>
      <trkpt lat="47.1434" lon="5.90833">
        <ele>365.5</ele>
        <time>2000-01-01T16:57:49.000Z</time>
      </trkpt>
      <trkpt lat="47.14355" lon="5.90868">
        <ele>364</ele>
        <time>2000-01-01T16:57:59.000Z</time>
      </trkpt>
      <trkpt lat="47.14364" lon="5.9089">
        <ele>364.8</ele>
        <time>2000-01-01T16:58:09.000Z</time>
      </trkpt>
      <trkpt lat="47.14373" lon="5.9091">
        <ele>364</ele>
        <time>2000-01-01T16:58:19.000Z</time>
      </trkpt>
      <trkpt lat="47.14379" lon="5.90925">
        <ele>363</ele>
        <time>2000-01-01T16:58:29.000Z</time>
      </trkpt>
      <trkpt lat="47.14382" lon="5.90931">
        <ele>363.2</ele>
        <time>2000-01-01T16:58:39.000Z</time>
      </trkpt>
      <trkpt lat="47.14385" lon="5.90936">
        <ele>364</ele>
        <time>2000-01-01T16:58:49.000Z</time>
      </trkpt>
      <trkpt lat="47.14393" lon="5.9095">
        <ele>364.2</ele>
        <time>2000-01-01T16:58:59.000Z</time>
      </trkpt>
      <trkpt lat="47.14403" lon="5.90968">
        <ele>365</ele>
        <time>2000-01-01T16:59:09.000Z</time>
      </trkpt>
      <trkpt lat="47.14408" lon="5.90977">
        <ele>366.3</ele>
        <time>2000-01-01T16:59:19.000Z</time>
      </trkpt>
      <trkpt lat="47.14427" lon="5.90972">
        <ele>365</ele>
        <time>2000-01-01T16:59:29.000Z</time>
      </trkpt>
      <trkpt lat="47.14435" lon="5.90971">
        <ele>365.2</ele>
        <time>2000-01-01T16:59:39.000Z</time>
      </trkpt>
      <trkpt lat="47.14443" lon="5.90973">
        <ele>365.1</ele>
        <time>2000-01-01T16:59:49.000Z</time>
      </trkpt>
      <trkpt lat="47.14452" lon="5.90976">
        <ele>365</ele>
        <time>2000-01-01T16:59:59.000Z</time>
      </trkpt>
      <trkpt lat="47.14459" lon="5.90982">
        <ele>364.1</ele>
        <time>2000-01-01T17:00:09.000Z</time>
      </trkpt>
      <trkpt lat="47.1447" lon="5.90993">
        <ele>365</ele>
        <time>2000-01-01T17:00:19.000Z</time>
      </trkpt>
      <trkpt lat="47.14489" lon="5.91018">
        <ele>365</ele>
        <time>2000-01-01T17:00:29.000Z</time>
      </trkpt>
      <trkpt lat="47.14513" lon="5.91048">
        <ele>364</ele>
        <time>2000-01-01T17:00:39.000Z</time>
      </trkpt>
      <trkpt lat="47.14538" lon="5.9108">
        <ele>364</ele>
        <time>2000-01-01T17:00:49.000Z</time>
      </trkpt>
      <trkpt lat="47.14553" lon="5.91099">
        <ele>364</ele>
        <time>2000-01-01T17:00:59.000Z</time>
      </trkpt>
      <trkpt lat="47.1457" lon="5.91119">
        <ele>364</ele>
        <time>2000-01-01T17:01:09.000Z</time>
      </trkpt>
      <trkpt lat="47.14591" lon="5.91144">
        <ele>364</ele>
        <time>2000-01-01T17:01:19.000Z</time>
      </trkpt>
      <trkpt lat="47.14613" lon="5.91171">
        <ele>365</ele>
        <time>2000-01-01T17:01:29.000Z</time>
      </trkpt>
      <trkpt lat="47.1463" lon="5.9119">
        <ele>366</ele>
        <time>2000-01-01T17:01:39.000Z</time>
      </trkpt>
      <trkpt lat="47.14648" lon="5.91213">
        <ele>366</ele>
        <time>2000-01-01T17:01:49.000Z</time>
      </trkpt>
      <trkpt lat="47.14663" lon="5.91231">
        <ele>367</ele>
        <time>2000-01-01T17:01:59.000Z</time>
      </trkpt>
      <trkpt lat="47.14682" lon="5.91253">
        <ele>367</ele>
        <time>2000-01-01T17:02:09.000Z</time>
      </trkpt>
      <trkpt lat="47.14702" lon="5.91279">
        <ele>367</ele>
        <time>2000-01-01T17:02:19.000Z</time>
      </trkpt>
      <trkpt lat="47.14719" lon="5.91299">
        <ele>368</ele>
        <time>2000-01-01T17:02:29.000Z</time>
      </trkpt>
      <trkpt lat="47.1473" lon="5.91311">
        <ele>368.7</ele>
        <time>2000-01-01T17:02:39.000Z</time>
      </trkpt>
      <trkpt lat="47.14738" lon="5.91321">
        <ele>368</ele>
        <time>2000-01-01T17:02:49.000Z</time>
      </trkpt>
      <trkpt lat="47.14752" lon="5.91337">
        <ele>369</ele>
        <time>2000-01-01T17:02:59.000Z</time>
      </trkpt>
      <trkpt lat="47.1477" lon="5.91355">
        <ele>368</ele>
        <time>2000-01-01T17:03:09.000Z</time>
      </trkpt>
      <trkpt lat="47.1479" lon="5.91372">
        <ele>367</ele>
        <time>2000-01-01T17:03:19.000Z</time>
      </trkpt>
      <trkpt lat="47.14794" lon="5.91375">
        <ele>366.2</ele>
        <time>2000-01-01T17:03:29.000Z</time>
      </trkpt>
      <trkpt lat="47.14808" lon="5.9139">
        <ele>365</ele>
        <time>2000-01-01T17:03:39.000Z</time>
      </trkpt>
      <trkpt lat="47.14823" lon="5.9141">
        <ele>364</ele>
        <time>2000-01-01T17:03:49.000Z</time>
      </trkpt>
      <trkpt lat="47.14834" lon="5.9143">
        <ele>364.1</ele>
        <time>2000-01-01T17:03:59.000Z</time>
      </trkpt>
      <trkpt lat="47.14844" lon="5.91451">
        <ele>363</ele>
        <time>2000-01-01T17:04:09.000Z</time>
      </trkpt>
      <trkpt lat="47.14855" lon="5.9147">
        <ele>362</ele>
        <time>2000-01-01T17:04:19.000Z</time>
      </trkpt>
      <trkpt lat="47.1487" lon="5.91488">
        <ele>361</ele>
        <time>2000-01-01T17:04:29.000Z</time>
      </trkpt>
      <trkpt lat="47.14894" lon="5.91512">
        <ele>360</ele>
        <time>2000-01-01T17:04:39.000Z</time>
      </trkpt>
      <trkpt lat="47.14914" lon="5.91532">
        <ele>359</ele>
        <time>2000-01-01T17:04:49.000Z</time>
      </trkpt>
      <trkpt lat="47.14936" lon="5.91555">
        <ele>358</ele>
        <time>2000-01-01T17:04:59.000Z</time>
      </trkpt>
      <trkpt lat="47.14971" lon="5.91583">
        <ele>356</ele>
        <time>2000-01-01T17:05:09.000Z</time>
      </trkpt>
      <trkpt lat="47.14994" lon="5.91594">
        <ele>354</ele>
        <time>2000-01-01T17:05:19.000Z</time>
      </trkpt>
      <trkpt lat="47.15019" lon="5.91605">
        <ele>353</ele>
        <time>2000-01-01T17:05:29.000Z</time>
      </trkpt>
      <trkpt lat="47.15033" lon="5.91607">
        <ele>351.7</ele>
        <time>2000-01-01T17:05:39.000Z</time>
      </trkpt>
      <trkpt lat="47.15078" lon="5.91611">
        <ele>349</ele>
        <time>2000-01-01T17:05:49.000Z</time>
      </trkpt>
      <trkpt lat="47.15106" lon="5.91611">
        <ele>347</ele>
        <time>2000-01-01T17:05:59.000Z</time>
      </trkpt>
      <trkpt lat="47.15152" lon="5.91611">
        <ele>343</ele>
        <time>2000-01-01T17:06:09.000Z</time>
      </trkpt>
      <trkpt lat="47.15182" lon="5.9161">
        <ele>341</ele>
        <time>2000-01-01T17:06:19.000Z</time>
      </trkpt>
      <trkpt lat="47.15207" lon="5.9161">
        <ele>339</ele>
        <time>2000-01-01T17:06:29.000Z</time>
      </trkpt>
      <trkpt lat="47.15239" lon="5.91609">
        <ele>337</ele>
        <time>2000-01-01T17:06:39.000Z</time>
      </trkpt>
      <trkpt lat="47.15256" lon="5.9161">
        <ele>336.2</ele>
        <time>2000-01-01T17:06:49.000Z</time>
      </trkpt>
      <trkpt lat="47.15282" lon="5.9161">
        <ele>334</ele>
        <time>2000-01-01T17:06:59.000Z</time>
      </trkpt>
      <trkpt lat="47.1531" lon="5.91611">
        <ele>333</ele>
        <time>2000-01-01T17:07:09.000Z</time>
      </trkpt>
      <trkpt lat="47.15351" lon="5.91612">
        <ele>329</ele>
        <time>2000-01-01T17:07:19.000Z</time>
      </trkpt>
      <trkpt lat="47.15382" lon="5.91611">
        <ele>327</ele>
        <time>2000-01-01T17:07:29.000Z</time>
      </trkpt>
      <trkpt lat="47.15413" lon="5.91609">
        <ele>323</ele>
        <time>2000-01-01T17:07:39.000Z</time>
      </trkpt>
      <trkpt lat="47.15445" lon="5.91608">
        <ele>321</ele>
        <time>2000-01-01T17:07:49.000Z</time>
      </trkpt>
      <trkpt lat="47.15469" lon="5.91593">
        <ele>319</ele>
        <time>2000-01-01T17:07:59.000Z</time>
      </trkpt>
      <trkpt lat="47.15499" lon="5.91574">
        <ele>316</ele>
        <time>2000-01-01T17:08:09.000Z</time>
      </trkpt>
      <trkpt lat="47.15534" lon="5.91546">
        <ele>314</ele>
        <time>2000-01-01T17:08:19.000Z</time>
      </trkpt>
      <trkpt lat="47.15527" lon="5.91492">
        <ele>312</ele>
        <time>2000-01-01T17:08:29.000Z</time>
      </trkpt>
      <trkpt lat="47.15529" lon="5.91456">
        <ele>310</ele>
        <time>2000-01-01T17:08:39.000Z</time>
      </trkpt>
      <trkpt lat="47.15532" lon="5.91414">
        <ele>311</ele>
        <time>2000-01-01T17:08:49.000Z</time>
      </trkpt>
      <trkpt lat="47.15566" lon="5.9145">
        <ele>313</ele>
        <time>2000-01-01T17:08:59.000Z</time>
      </trkpt>
      <trkpt lat="47.15603" lon="5.91468">
        <ele>318</ele>
        <time>2000-01-01T17:09:09.000Z</time>
      </trkpt>
      <trkpt lat="47.15625" lon="5.91478">
        <ele>322</ele>
        <time>2000-01-01T17:09:19.000Z</time>
      </trkpt>
      <trkpt lat="47.15632" lon="5.91484">
        <ele>323</ele>
        <time>2000-01-01T17:09:29.000Z</time>
      </trkpt>
      <trkpt lat="47.15653" lon="5.91494">
        <ele>325</ele>
        <time>2000-01-01T17:09:39.000Z</time>
      </trkpt>
      <trkpt lat="47.15674" lon="5.91499">
        <ele>328</ele>
        <time>2000-01-01T17:09:49.000Z</time>
      </trkpt>
      <trkpt lat="47.15698" lon="5.91512">
        <ele>331</ele>
        <time>2000-01-01T17:09:59.000Z</time>
      </trkpt>
      <trkpt lat="47.15728" lon="5.9153">
        <ele>335</ele>
        <time>2000-01-01T17:10:09.000Z</time>
      </trkpt>
      <trkpt lat="47.15746" lon="5.91539">
        <ele>338</ele>
        <time>2000-01-01T17:10:19.000Z</time>
      </trkpt>
      <trkpt lat="47.15784" lon="5.91555">
        <ele>341</ele>
        <time>2000-01-01T17:10:29.000Z</time>
      </trkpt>
      <trkpt lat="47.15814" lon="5.91566">
        <ele>341</ele>
        <time>2000-01-01T17:10:39.000Z</time>
      </trkpt>
      <trkpt lat="47.1583" lon="5.91564">
        <ele>343</ele>
        <time>2000-01-01T17:10:49.000Z</time>
      </trkpt>
      <trkpt lat="47.15847" lon="5.9156">
        <ele>340</ele>
        <time>2000-01-01T17:10:59.000Z</time>
      </trkpt>
      <trkpt lat="47.15859" lon="5.91552">
        <ele>340.1</ele>
        <time>2000-01-01T17:11:09.000Z</time>
      </trkpt>
      <trkpt lat="47.15863" lon="5.91551">
        <ele>339.7</ele>
        <time>2000-01-01T17:11:19.000Z</time>
      </trkpt>
      <trkpt lat="47.15898" lon="5.91524">
        <ele>342</ele>
        <time>2000-01-01T17:11:29.000Z</time>
      </trkpt>
      <trkpt lat="47.15914" lon="5.91493">
        <ele>344</ele>
        <time>2000-01-01T17:11:39.000Z</time>
      </trkpt>
      <trkpt lat="47.15932" lon="5.91458">
        <ele>352</ele>
        <time>2000-01-01T17:11:49.000Z</time>
      </trkpt>
      <trkpt lat="47.15951" lon="5.91434">
        <ele>354</ele>
        <time>2000-01-01T17:11:59.000Z</time>
      </trkpt>
      <trkpt lat="47.15975" lon="5.91404">
        <ele>354</ele>
        <time>2000-01-01T17:12:09.000Z</time>
      </trkpt>
      <trkpt lat="47.15995" lon="5.91386">
        <ele>354</ele>
        <time>2000-01-01T17:12:19.000Z</time>
      </trkpt>
      <trkpt lat="47.16" lon="5.91381">
        <ele>355.1</ele>
        <time>2000-01-01T17:12:29.000Z</time>
      </trkpt>
      <trkpt lat="47.16032" lon="5.91351">
        <ele>353</ele>
        <time>2000-01-01T17:12:39.000Z</time>
      </trkpt>
      <trkpt lat="47.1605" lon="5.9133">
        <ele>352</ele>
        <time>2000-01-01T17:12:49.000Z</time>
      </trkpt>
      <trkpt lat="47.1608" lon="5.91297">
        <ele>354</ele>
        <time>2000-01-01T17:12:59.000Z</time>
      </trkpt>
      <trkpt lat="47.16089" lon="5.91287">
        <ele>352.6</ele>
        <time>2000-01-01T17:13:09.000Z</time>
      </trkpt>
      <trkpt lat="47.16159" lon="5.91233">
        <ele>356</ele>
        <time>2000-01-01T17:13:19.000Z</time>
      </trkpt>
      <trkpt lat="47.16182" lon="5.91215">
        <ele>358</ele>
        <time>2000-01-01T17:13:29.000Z</time>
      </trkpt>
      <trkpt lat="47.16204" lon="5.91196">
        <ele>359</ele>
        <time>2000-01-01T17:13:39.000Z</time>
      </trkpt>
      <trkpt lat="47.16232" lon="5.91172">
        <ele>360</ele>
        <time>2000-01-01T17:13:49.000Z</time>
      </trkpt>
      <trkpt lat="47.16265" lon="5.91146">
        <ele>360</ele>
        <time>2000-01-01T17:13:59.000Z</time>
      </trkpt>
      <trkpt lat="47.16287" lon="5.9113">
        <ele>360</ele>
        <time>2000-01-01T17:14:09.000Z</time>
      </trkpt>
      <trkpt lat="47.1631" lon="5.91119">
        <ele>360</ele>
        <time>2000-01-01T17:14:19.000Z</time>
      </trkpt>
      <trkpt lat="47.16325" lon="5.91113">
        <ele>362</ele>
        <time>2000-01-01T17:14:29.000Z</time>
      </trkpt>
      <trkpt lat="47.16333" lon="5.91108">
        <ele>361</ele>
        <time>2000-01-01T17:14:39.000Z</time>
      </trkpt>
      <trkpt lat="47.16348" lon="5.91104">
        <ele>362.2</ele>
        <time>2000-01-01T17:14:49.000Z</time>
      </trkpt>
      <trkpt lat="47.1636" lon="5.91105">
        <ele>361</ele>
        <time>2000-01-01T17:14:59.000Z</time>
      </trkpt>
      <trkpt lat="47.1637" lon="5.91109">
        <ele>364</ele>
        <time>2000-01-01T17:15:09.000Z</time>
      </trkpt>
      <trkpt lat="47.16384" lon="5.91092">
        <ele>361</ele>
        <time>2000-01-01T17:15:19.000Z</time>
      </trkpt>
      <trkpt lat="47.16389" lon="5.91087">
        <ele>361.5</ele>
        <time>2000-01-01T17:15:29.000Z</time>
      </trkpt>
      <trkpt lat="47.16422" lon="5.91052">
        <ele>357</ele>
        <time>2000-01-01T17:15:39.000Z</time>
      </trkpt>
      <trkpt lat="47.16429" lon="5.91044">
        <ele>356.5</ele>
        <time>2000-01-01T17:15:49.000Z</time>
      </trkpt>
      <trkpt lat="47.16434" lon="5.9104">
        <ele>356.1</ele>
        <time>2000-01-01T17:15:59.000Z</time>
      </trkpt>
      <trkpt lat="47.16451" lon="5.91021">
        <ele>352</ele>
        <time>2000-01-01T17:16:09.000Z</time>
      </trkpt>
      <trkpt lat="47.16486" lon="5.90987">
        <ele>347</ele>
        <time>2000-01-01T17:16:19.000Z</time>
      </trkpt>
      <trkpt lat="47.16488" lon="5.90984">
        <ele>347.7</ele>
        <time>2000-01-01T17:16:29.000Z</time>
      </trkpt>
      <trkpt lat="47.16512" lon="5.90962">
        <ele>347</ele>
        <time>2000-01-01T17:16:39.000Z</time>
      </trkpt>
      <trkpt lat="47.1654" lon="5.90994">
        <ele>347</ele>
        <time>2000-01-01T17:16:49.000Z</time>
      </trkpt>
      <trkpt lat="47.16566" lon="5.91021">
        <ele>351</ele>
        <time>2000-01-01T17:16:59.000Z</time>
      </trkpt>
      <trkpt lat="47.16605" lon="5.91055">
        <ele>355</ele>
        <time>2000-01-01T17:17:09.000Z</time>
      </trkpt>
      <trkpt lat="47.1661" lon="5.91059">
        <ele>356.5</ele>
        <time>2000-01-01T17:17:19.000Z</time>
      </trkpt>
      <trkpt lat="47.1661" lon="5.91059">
        <ele>356.5</ele>
        <time>2000-01-01T17:17:29.000Z</time>
      </trkpt>
      <trkpt lat="47.16614" lon="5.91063">
        <ele>357.1</ele>
        <time>2000-01-01T17:17:39.000Z</time>
      </trkpt>
      <trkpt lat="47.16617" lon="5.91069">
        <ele>357.9</ele>
        <time>2000-01-01T17:17:49.000Z</time>
      </trkpt>
      <trkpt lat="47.16624" lon="5.91084">
        <ele>359</ele>
        <time>2000-01-01T17:17:59.000Z</time>
      </trkpt>
      <trkpt lat="47.16632" lon="5.91106">
        <ele>363.3</ele>
        <time>2000-01-01T17:18:09.000Z</time>
      </trkpt>
      <trkpt lat="47.1665" lon="5.91148">
        <ele>368</ele>
        <time>2000-01-01T17:18:19.000Z</time>
      </trkpt>
      <trkpt lat="47.16661" lon="5.91166">
        <ele>371.9</ele>
        <time>2000-01-01T17:18:29.000Z</time>
      </trkpt>
      <trkpt lat="47.16681" lon="5.91201">
        <ele>375</ele>
        <time>2000-01-01T17:18:39.000Z</time>
      </trkpt>
      <trkpt lat="47.16691" lon="5.91224">
        <ele>379.1</ele>
        <time>2000-01-01T17:18:49.000Z</time>
      </trkpt>
      <trkpt lat="47.16695" lon="5.9123">
        <ele>379</ele>
        <time>2000-01-01T17:18:59.000Z</time>
      </trkpt>
      <trkpt lat="47.16698" lon="5.9124">
        <ele>378.6</ele>
        <time>2000-01-01T17:19:09.000Z</time>
      </trkpt>
      <trkpt lat="47.16691" lon="5.91255">
        <ele>381</ele>
        <time>2000-01-01T17:19:19.000Z</time>
      </trkpt>
      <trkpt lat="47.16683" lon="5.91275">
        <ele>377.1</ele>
        <time>2000-01-01T17:19:29.000Z</time>
      </trkpt>
      <trkpt lat="47.16675" lon="5.91289">
        <ele>386</ele>
        <time>2000-01-01T17:19:39.000Z</time>
      </trkpt>
      <trkpt lat="47.16668" lon="5.91302">
        <ele>379.2</ele>
        <time>2000-01-01T17:19:49.000Z</time>
      </trkpt>
      <trkpt lat="47.16662" lon="5.91308">
        <ele>379.8</ele>
        <time>2000-01-01T17:19:59.000Z</time>
      </trkpt>
      <trkpt lat="47.16659" lon="5.91312">
        <ele>388</ele>
        <time>2000-01-01T17:20:09.000Z</time>
      </trkpt>
      <trkpt lat="47.16655" lon="5.91315">
        <ele>377.8</ele>
        <time>2000-01-01T17:20:19.000Z</time>
      </trkpt>
      <trkpt lat="47.16649" lon="5.91318">
        <ele>379.2</ele>
        <time>2000-01-01T17:20:29.000Z</time>
      </trkpt>
      <trkpt lat="47.16636" lon="5.91326">
        <ele>390</ele>
        <time>2000-01-01T17:20:39.000Z</time>
      </trkpt>
      <trkpt lat="47.16623" lon="5.91335">
        <ele>385.7</ele>
        <time>2000-01-01T17:20:49.000Z</time>
      </trkpt>
      <trkpt lat="47.16621" lon="5.91338">
        <ele>386.4</ele>
        <time>2000-01-01T17:20:59.000Z</time>
      </trkpt>
      <trkpt lat="47.1662" lon="5.91341">
        <ele>391</ele>
        <time>2000-01-01T17:21:09.000Z</time>
      </trkpt>
      <trkpt lat="47.16619" lon="5.91351">
        <ele>386</ele>
        <time>2000-01-01T17:21:19.000Z</time>
      </trkpt>
      <trkpt lat="47.1662" lon="5.91361">
        <ele>384</ele>
        <time>2000-01-01T17:21:29.000Z</time>
      </trkpt>
      <trkpt lat="47.1662" lon="5.91369">
        <ele>390</ele>
        <time>2000-01-01T17:21:39.000Z</time>
      </trkpt>
      <trkpt lat="47.16618" lon="5.91373">
        <ele>380.4</ele>
        <time>2000-01-01T17:21:49.000Z</time>
      </trkpt>
      <trkpt lat="47.16613" lon="5.91376">
        <ele>383.4</ele>
        <time>2000-01-01T17:21:59.000Z</time>
      </trkpt>
      <trkpt lat="47.16601" lon="5.91385">
        <ele>393</ele>
        <time>2000-01-01T17:22:09.000Z</time>
      </trkpt>
      <trkpt lat="47.16587" lon="5.91394">
        <ele>387.2</ele>
        <time>2000-01-01T17:22:19.000Z</time>
      </trkpt>
      <trkpt lat="47.16579" lon="5.91399">
        <ele>391</ele>
        <time>2000-01-01T17:22:29.000Z</time>
      </trkpt>
      <trkpt lat="47.16574" lon="5.91402">
        <ele>387.7</ele>
        <time>2000-01-01T17:22:39.000Z</time>
      </trkpt>
      <trkpt lat="47.16562" lon="5.9141">
        <ele>393</ele>
        <time>2000-01-01T17:22:49.000Z</time>
      </trkpt>
      <trkpt lat="47.16549" lon="5.91425">
        <ele>389</ele>
        <time>2000-01-01T17:22:59.000Z</time>
      </trkpt>
      <trkpt lat="47.16548" lon="5.91425">
        <ele>389.4</ele>
        <time>2000-01-01T17:23:09.000Z</time>
      </trkpt>
      <trkpt lat="47.16537" lon="5.91436">
        <ele>393</ele>
        <time>2000-01-01T17:23:19.000Z</time>
      </trkpt>
      <trkpt lat="47.16527" lon="5.91447">
        <ele>391.2</ele>
        <time>2000-01-01T17:23:29.000Z</time>
      </trkpt>
      <trkpt lat="47.16522" lon="5.91456">
        <ele>393</ele>
        <time>2000-01-01T17:23:39.000Z</time>
      </trkpt>
      <trkpt lat="47.16519" lon="5.91462">
        <ele>389</ele>
        <time>2000-01-01T17:23:49.000Z</time>
      </trkpt>
      <trkpt lat="47.16514" lon="5.91475">
        <ele>388.2</ele>
        <time>2000-01-01T17:23:59.000Z</time>
      </trkpt>
      <trkpt lat="47.16511" lon="5.91494">
        <ele>392</ele>
        <time>2000-01-01T17:24:09.000Z</time>
      </trkpt>
      <trkpt lat="47.1651" lon="5.91506">
        <ele>389.2</ele>
        <time>2000-01-01T17:24:19.000Z</time>
      </trkpt>
      <trkpt lat="47.16511" lon="5.91516">
        <ele>389.8</ele>
        <time>2000-01-01T17:24:29.000Z</time>
      </trkpt>
      <trkpt lat="47.16512" lon="5.91529">
        <ele>392</ele>
        <time>2000-01-01T17:24:39.000Z</time>
      </trkpt>
      <trkpt lat="47.16515" lon="5.91538">
        <ele>387.7</ele>
        <time>2000-01-01T17:24:49.000Z</time>
      </trkpt>
      <trkpt lat="47.16514" lon="5.91554">
        <ele>385.7</ele>
        <time>2000-01-01T17:24:59.000Z</time>
      </trkpt>
      <trkpt lat="47.16509" lon="5.91572">
        <ele>392</ele>
        <time>2000-01-01T17:25:09.000Z</time>
      </trkpt>
      <trkpt lat="47.165" lon="5.91603">
        <ele>392</ele>
        <time>2000-01-01T17:25:19.000Z</time>
      </trkpt>
      <trkpt lat="47.16489" lon="5.91642">
        <ele>387</ele>
        <time>2000-01-01T17:25:29.000Z</time>
      </trkpt>
      <trkpt lat="47.16483" lon="5.91662">
        <ele>382.7</ele>
        <time>2000-01-01T17:25:39.000Z</time>
      </trkpt>
      <trkpt lat="47.16471" lon="5.91705">
        <ele>383</ele>
        <time>2000-01-01T17:25:49.000Z</time>
      </trkpt>
      <trkpt lat="47.1646" lon="5.91756">
        <ele>380</ele>
        <time>2000-01-01T17:25:59.000Z</time>
      </trkpt>
      <trkpt lat="47.16454" lon="5.91803">
        <ele>374</ele>
        <time>2000-01-01T17:26:09.000Z</time>
      </trkpt>
      <trkpt lat="47.16452" lon="5.9185">
        <ele>368</ele>
        <time>2000-01-01T17:26:19.000Z</time>
      </trkpt>
      <trkpt lat="47.16453" lon="5.91887">
        <ele>366</ele>
        <time>2000-01-01T17:26:29.000Z</time>
      </trkpt>
      <trkpt lat="47.16458" lon="5.91916">
        <ele>366</ele>
        <time>2000-01-01T17:26:39.000Z</time>
      </trkpt>
      <trkpt lat="47.16461" lon="5.91937">
        <ele>360</ele>
        <time>2000-01-01T17:26:49.000Z</time>
      </trkpt>
      <trkpt lat="47.16466" lon="5.91958">
        <ele>364</ele>
        <time>2000-01-01T17:26:59.000Z</time>
      </trkpt>
      <trkpt lat="47.16471" lon="5.91972">
        <ele>358.3</ele>
        <time>2000-01-01T17:27:09.000Z</time>
      </trkpt>
      <trkpt lat="47.16472" lon="5.91976">
        <ele>358.2</ele>
        <time>2000-01-01T17:27:19.000Z</time>
      </trkpt>
      <trkpt lat="47.16476" lon="5.91976">
        <ele>355.4</ele>
        <time>2000-01-01T17:27:29.000Z</time>
      </trkpt>
      <trkpt lat="47.16478" lon="5.91973">
        <ele>358</ele>
        <time>2000-01-01T17:27:39.000Z</time>
      </trkpt>
      <trkpt lat="47.16478" lon="5.91965">
        <ele>352.8</ele>
        <time>2000-01-01T17:27:49.000Z</time>
      </trkpt>
      <trkpt lat="47.16472" lon="5.91948">
        <ele>354.6</ele>
        <time>2000-01-01T17:27:59.000Z</time>
      </trkpt>
      <trkpt lat="47.16471" lon="5.9192">
        <ele>351</ele>
        <time>2000-01-01T17:28:09.000Z</time>
      </trkpt>
      <trkpt lat="47.16474" lon="5.91886">
        <ele>351</ele>
        <time>2000-01-01T17:28:19.000Z</time>
      </trkpt>
      <trkpt lat="47.16478" lon="5.91856">
        <ele>351</ele>
        <time>2000-01-01T17:28:29.000Z</time>
      </trkpt>
      <trkpt lat="47.16481" lon="5.91845">
        <ele>348.7</ele>
        <time>2000-01-01T17:28:39.000Z</time>
      </trkpt>
      <trkpt lat="47.16483" lon="5.91838">
        <ele>348.5</ele>
        <time>2000-01-01T17:28:49.000Z</time>
      </trkpt>
      <trkpt lat="47.16487" lon="5.91825">
        <ele>352</ele>
        <time>2000-01-01T17:28:59.000Z</time>
      </trkpt>
      <trkpt lat="47.16491" lon="5.91813">
        <ele>349</ele>
        <time>2000-01-01T17:29:09.000Z</time>
      </trkpt>
      <trkpt lat="47.16498" lon="5.91799">
        <ele>348</ele>
        <time>2000-01-01T17:29:19.000Z</time>
      </trkpt>
      <trkpt lat="47.1651" lon="5.91782">
        <ele>346</ele>
        <time>2000-01-01T17:29:29.000Z</time>
      </trkpt>
      <trkpt lat="47.16523" lon="5.91761">
        <ele>345</ele>
        <time>2000-01-01T17:29:39.000Z</time>
      </trkpt>
      <trkpt lat="47.16531" lon="5.91746">
        <ele>341.9</ele>
        <time>2000-01-01T17:29:49.000Z</time>
      </trkpt>
      <trkpt lat="47.16543" lon="5.9172">
        <ele>339</ele>
        <time>2000-01-01T17:29:59.000Z</time>
      </trkpt>
      <trkpt lat="47.16547" lon="5.91711">
        <ele>338.5</ele>
        <time>2000-01-01T17:30:09.000Z</time>
      </trkpt>
      <trkpt lat="47.16548" lon="5.91704">
        <ele>338.9</ele>
        <time>2000-01-01T17:30:19.000Z</time>
      </trkpt>
      <trkpt lat="47.16553" lon="5.91702">
        <ele>335.9</ele>
        <time>2000-01-01T17:30:29.000Z</time>
      </trkpt>
      <trkpt lat="47.16556" lon="5.91706">
        <ele>335</ele>
        <time>2000-01-01T17:30:39.000Z</time>
      </trkpt>
      <trkpt lat="47.16556" lon="5.91713">
        <ele>332.8</ele>
        <time>2000-01-01T17:30:49.000Z</time>
      </trkpt>
      <trkpt lat="47.16553" lon="5.91726">
        <ele>332.8</ele>
        <time>2000-01-01T17:30:59.000Z</time>
      </trkpt>
      <trkpt lat="47.16544" lon="5.91765">
        <ele>333</ele>
        <time>2000-01-01T17:31:09.000Z</time>
      </trkpt>
      <trkpt lat="47.1654" lon="5.91784">
        <ele>329.7</ele>
        <time>2000-01-01T17:31:19.000Z</time>
      </trkpt>
      <trkpt lat="47.16533" lon="5.91826">
        <ele>329</ele>
        <time>2000-01-01T17:31:29.000Z</time>
      </trkpt>
      <trkpt lat="47.16528" lon="5.91854">
        <ele>326</ele>
        <time>2000-01-01T17:31:39.000Z</time>
      </trkpt>
      <trkpt lat="47.16526" lon="5.91876">
        <ele>319.9</ele>
        <time>2000-01-01T17:31:49.000Z</time>
      </trkpt>
      <trkpt lat="47.16533" lon="5.91935">
        <ele>316</ele>
        <time>2000-01-01T17:31:59.000Z</time>
      </trkpt>
      <trkpt lat="47.16538" lon="5.91982">
        <ele>316</ele>
        <time>2000-01-01T17:32:09.000Z</time>
      </trkpt>
      <trkpt lat="47.16541" lon="5.92006">
        <ele>311.5</ele>
        <time>2000-01-01T17:32:19.000Z</time>
      </trkpt>
      <trkpt lat="47.16538" lon="5.92035">
        <ele>313</ele>
        <time>2000-01-01T17:32:29.000Z</time>
      </trkpt>
      <trkpt lat="47.16538" lon="5.92048">
        <ele>313.5</ele>
        <time>2000-01-01T17:32:39.000Z</time>
      </trkpt>
      <trkpt lat="47.1654" lon="5.92053">
        <ele>312.1</ele>
        <time>2000-01-01T17:32:49.000Z</time>
      </trkpt>
      <trkpt lat="47.1654" lon="5.92053">
        <ele>312.1</ele>
        <time>2000-01-01T17:32:59.000Z</time>
      </trkpt>
      <trkpt lat="47.1654" lon="5.92053">
        <ele>312.1</ele>
        <time>2000-01-01T17:33:09.000Z</time>
      </trkpt>
      <trkpt lat="47.16543" lon="5.92052">
        <ele>310.2</ele>
        <time>2000-01-01T17:33:19.000Z</time>
      </trkpt>
      <trkpt lat="47.16547" lon="5.92045">
        <ele>312</ele>
        <time>2000-01-01T17:33:29.000Z</time>
      </trkpt>
      <trkpt lat="47.16549" lon="5.92038">
        <ele>306.7</ele>
        <time>2000-01-01T17:33:39.000Z</time>
      </trkpt>
      <trkpt lat="47.16548" lon="5.92023">
        <ele>307.6</ele>
        <time>2000-01-01T17:33:49.000Z</time>
      </trkpt>
      <trkpt lat="47.16549" lon="5.92006">
        <ele>311</ele>
        <time>2000-01-01T17:33:59.000Z</time>
      </trkpt>
      <trkpt lat="47.16556" lon="5.91967">
        <ele>308</ele>
        <time>2000-01-01T17:34:09.000Z</time>
      </trkpt>
      <trkpt lat="47.16563" lon="5.91935">
        <ele>301</ele>
        <time>2000-01-01T17:34:19.000Z</time>
      </trkpt>
      <trkpt lat="47.16567" lon="5.9192">
        <ele>300.2</ele>
        <time>2000-01-01T17:34:29.000Z</time>
      </trkpt>
      <trkpt lat="47.16574" lon="5.91906">
        <ele>299</ele>
        <time>2000-01-01T17:34:39.000Z</time>
      </trkpt>
      <trkpt lat="47.16581" lon="5.91897">
        <ele>297.1</ele>
        <time>2000-01-01T17:34:49.000Z</time>
      </trkpt>
      <trkpt lat="47.16595" lon="5.91877">
        <ele>295</ele>
        <time>2000-01-01T17:34:59.000Z</time>
      </trkpt>
      <trkpt lat="47.166" lon="5.91869">
        <ele>294.4</ele>
        <time>2000-01-01T17:35:09.000Z</time>
      </trkpt>
      <trkpt lat="47.16607" lon="5.91863">
        <ele>293</ele>
        <time>2000-01-01T17:35:19.000Z</time>
      </trkpt>
      <trkpt lat="47.16611" lon="5.91859">
        <ele>293</ele>
        <time>2000-01-01T17:35:29.000Z</time>
      </trkpt>
      <trkpt lat="47.16623" lon="5.91852">
        <ele>290.8</ele>
        <time>2000-01-01T17:35:39.000Z</time>
      </trkpt>
      <trkpt lat="47.1663" lon="5.9185">
        <ele>289</ele>
        <time>2000-01-01T17:35:49.000Z</time>
      </trkpt>
      <trkpt lat="47.16637" lon="5.91851">
        <ele>288.7</ele>
        <time>2000-01-01T17:35:59.000Z</time>
      </trkpt>
      <trkpt lat="47.16644" lon="5.91857">
        <ele>287.6</ele>
        <time>2000-01-01T17:36:09.000Z</time>
      </trkpt>
      <trkpt lat="47.16654" lon="5.91863">
        <ele>286</ele>
        <time>2000-01-01T17:36:19.000Z</time>
      </trkpt>
      <trkpt lat="47.16668" lon="5.91875">
        <ele>285.5</ele>
        <time>2000-01-01T17:36:29.000Z</time>
      </trkpt>
      <trkpt lat="47.16671" lon="5.91877">
        <ele>285</ele>
        <time>2000-01-01T17:36:39.000Z</time>
      </trkpt>
      <trkpt lat="47.16689" lon="5.91884">
        <ele>285</ele>
        <time>2000-01-01T17:36:49.000Z</time>
      </trkpt>
      <trkpt lat="47.16694" lon="5.91884">
        <ele>285.2</ele>
        <time>2000-01-01T17:36:59.000Z</time>
      </trkpt>
      <trkpt lat="47.16701" lon="5.91883">
        <ele>283.3</ele>
        <time>2000-01-01T17:37:09.000Z</time>
      </trkpt>
      <trkpt lat="47.16706" lon="5.91878">
        <ele>282.5</ele>
        <time>2000-01-01T17:37:19.000Z</time>
      </trkpt>
      <trkpt lat="47.16711" lon="5.9187">
        <ele>283</ele>
        <time>2000-01-01T17:37:29.000Z</time>
      </trkpt>
      <trkpt lat="47.16717" lon="5.91861">
        <ele>282.7</ele>
        <time>2000-01-01T17:37:39.000Z</time>
      </trkpt>
      <trkpt lat="47.1672" lon="5.91846">
        <ele>282</ele>
        <time>2000-01-01T17:37:49.000Z</time>
      </trkpt>
      <trkpt lat="47.1672" lon="5.91835">
        <ele>281.2</ele>
        <time>2000-01-01T17:37:59.000Z</time>
      </trkpt>
      <trkpt lat="47.1672" lon="5.91823">
        <ele>280.5</ele>
        <time>2000-01-01T17:38:09.000Z</time>
      </trkpt>
      <trkpt lat="47.16718" lon="5.91803">
        <ele>282</ele>
        <time>2000-01-01T17:38:19.000Z</time>
      </trkpt>
      <trkpt lat="47.16714" lon="5.91777">
        <ele>276.4</ele>
        <time>2000-01-01T17:38:29.000Z</time>
      </trkpt>
      <trkpt lat="47.16708" lon="5.91756">
        <ele>279</ele>
        <time>2000-01-01T17:38:39.000Z</time>
      </trkpt>
      <trkpt lat="47.16708" lon="5.91747">
        <ele>274.5</ele>
        <time>2000-01-01T17:38:49.000Z</time>
      </trkpt>
      <trkpt lat="47.16708" lon="5.91738">
        <ele>273.8</ele>
        <time>2000-01-01T17:38:59.000Z</time>
      </trkpt>
      <trkpt lat="47.16709" lon="5.9173">
        <ele>272.7</ele>
        <time>2000-01-01T17:39:09.000Z</time>
      </trkpt>
      <trkpt lat="47.16708" lon="5.91713">
        <ele>277</ele>
        <time>2000-01-01T17:39:19.000Z</time>
      </trkpt>
      <trkpt lat="47.16708" lon="5.91696">
        <ele>271.3</ele>
        <time>2000-01-01T17:39:29.000Z</time>
      </trkpt>
      <trkpt lat="47.16706" lon="5.91683">
        <ele>274</ele>
        <time>2000-01-01T17:39:39.000Z</time>
      </trkpt>
      <trkpt lat="47.16704" lon="5.91672">
        <ele>269.2</ele>
        <time>2000-01-01T17:39:49.000Z</time>
      </trkpt>
      <trkpt lat="47.16701" lon="5.91665">
        <ele>269.2</ele>
        <time>2000-01-01T17:39:59.000Z</time>
      </trkpt>
      <trkpt lat="47.16699" lon="5.91654">
        <ele>269</ele>
        <time>2000-01-01T17:40:09.000Z</time>
      </trkpt>
      <trkpt lat="47.16698" lon="5.91646">
        <ele>267.3</ele>
        <time>2000-01-01T17:40:19.000Z</time>
      </trkpt>
      <trkpt lat="47.16699" lon="5.91637">
        <ele>265.8</ele>
        <time>2000-01-01T17:40:29.000Z</time>
      </trkpt>
      <trkpt lat="47.16701" lon="5.91622">
        <ele>265</ele>
        <time>2000-01-01T17:40:39.000Z</time>
      </trkpt>
      <trkpt lat="47.16708" lon="5.91596">
        <ele>265</ele>
        <time>2000-01-01T17:40:49.000Z</time>
      </trkpt>
      <trkpt lat="47.16718" lon="5.91569">
        <ele>262</ele>
        <time>2000-01-01T17:40:59.000Z</time>
      </trkpt>
      <trkpt lat="47.16734" lon="5.91536">
        <ele>258</ele>
        <time>2000-01-01T17:41:09.000Z</time>
      </trkpt>
      <trkpt lat="47.16746" lon="5.91519">
        <ele>255.7</ele>
        <time>2000-01-01T17:41:19.000Z</time>
      </trkpt>
      <trkpt lat="47.16762" lon="5.91502">
        <ele>254</ele>
        <time>2000-01-01T17:41:29.000Z</time>
      </trkpt>
      <trkpt lat="47.16783" lon="5.91481">
        <ele>251</ele>
        <time>2000-01-01T17:41:39.000Z</time>
      </trkpt>
      <trkpt lat="47.16798" lon="5.91467">
        <ele>249.1</ele>
        <time>2000-01-01T17:41:49.000Z</time>
      </trkpt>
      <trkpt lat="47.16812" lon="5.91452">
        <ele>248</ele>
        <time>2000-01-01T17:41:59.000Z</time>
      </trkpt>
      <trkpt lat="47.16819" lon="5.91442">
        <ele>246.9</ele>
        <time>2000-01-01T17:42:09.000Z</time>
      </trkpt>
      <trkpt lat="47.16825" lon="5.91431">
        <ele>247</ele>
        <time>2000-01-01T17:42:19.000Z</time>
      </trkpt>
      <trkpt lat="47.16829" lon="5.91421">
        <ele>244.6</ele>
        <time>2000-01-01T17:42:29.000Z</time>
      </trkpt>
      <trkpt lat="47.16833" lon="5.9141">
        <ele>243.9</ele>
        <time>2000-01-01T17:42:39.000Z</time>
      </trkpt>
      <trkpt lat="47.16837" lon="5.91397">
        <ele>246</ele>
        <time>2000-01-01T17:42:49.000Z</time>
      </trkpt>
      <trkpt lat="47.16851" lon="5.91379">
        <ele>241</ele>
        <time>2000-01-01T17:42:59.000Z</time>
      </trkpt>
      <trkpt lat="47.16851" lon="5.91379">
        <ele>241.8</ele>
        <time>2000-01-01T17:43:09.000Z</time>
      </trkpt>
      <trkpt lat="47.16873" lon="5.91354">
        <ele>239</ele>
        <time>2000-01-01T17:43:19.000Z</time>
      </trkpt>
      <trkpt lat="47.16893" lon="5.91342">
        <ele>235</ele>
        <time>2000-01-01T17:43:29.000Z</time>
      </trkpt>
      <trkpt lat="47.16909" lon="5.91338">
        <ele>232.2</ele>
        <time>2000-01-01T17:43:39.000Z</time>
      </trkpt>
      <trkpt lat="47.16925" lon="5.91341">
        <ele>233</ele>
        <time>2000-01-01T17:43:49.000Z</time>
      </trkpt>
      <trkpt lat="47.16943" lon="5.91342">
        <ele>231.6</ele>
        <time>2000-01-01T17:43:59.000Z</time>
      </trkpt>
      <trkpt lat="47.16955" lon="5.91363">
        <ele>232</ele>
        <time>2000-01-01T17:44:09.000Z</time>
      </trkpt>
      <trkpt lat="47.16961" lon="5.91397">
        <ele>232</ele>
        <time>2000-01-01T17:44:19.000Z</time>
      </trkpt>
      <trkpt lat="47.16968" lon="5.91436">
        <ele>232</ele>
        <time>2000-01-01T17:44:29.000Z</time>
      </trkpt>
      <trkpt lat="47.16989" lon="5.91486">
        <ele>232</ele>
        <time>2000-01-01T17:44:39.000Z</time>
      </trkpt>
      <trkpt lat="47.17007" lon="5.91538">
        <ele>231</ele>
        <time>2000-01-01T17:44:49.000Z</time>
      </trkpt>
      <trkpt lat="47.17019" lon="5.91588">
        <ele>230</ele>
        <time>2000-01-01T17:44:59.000Z</time>
      </trkpt>
      <trkpt lat="47.1703" lon="5.91637">
        <ele>230</ele>
        <time>2000-01-01T17:45:09.000Z</time>
      </trkpt>
      <trkpt lat="47.17042" lon="5.91687">
        <ele>230</ele>
        <time>2000-01-01T17:45:19.000Z</time>
      </trkpt>
      <trkpt lat="47.1705" lon="5.91721">
        <ele>230</ele>
        <time>2000-01-01T17:45:29.000Z</time>
      </trkpt>
      <trkpt lat="47.17059" lon="5.91761">
        <ele>230</ele>
        <time>2000-01-01T17:45:39.000Z</time>
      </trkpt>
      <trkpt lat="47.17059" lon="5.91814">
        <ele>230</ele>
        <time>2000-01-01T17:45:49.000Z</time>
      </trkpt>
      <trkpt lat="47.17059" lon="5.91867">
        <ele>230</ele>
        <time>2000-01-01T17:45:59.000Z</time>
      </trkpt>
      <trkpt lat="47.17059" lon="5.9192">
        <ele>230</ele>
        <time>2000-01-01T17:46:09.000Z</time>
      </trkpt>
      <trkpt lat="47.17059" lon="5.91987">
        <ele>230</ele>
        <time>2000-01-01T17:46:19.000Z</time>
      </trkpt>
      <trkpt lat="47.17058" lon="5.92009">
        <ele>230.8</ele>
        <time>2000-01-01T17:46:29.000Z</time>
      </trkpt>
      <trkpt lat="47.17053" lon="5.92013">
        <ele>230</ele>
        <time>2000-01-01T17:46:39.000Z</time>
      </trkpt>
      <trkpt lat="47.17041" lon="5.92018">
        <ele>231</ele>
        <time>2000-01-01T17:46:49.000Z</time>
      </trkpt>
      <trkpt lat="47.17011" lon="5.92027">
        <ele>230</ele>
        <time>2000-01-01T17:46:59.000Z</time>
      </trkpt>
      <trkpt lat="47.16995" lon="5.92032">
        <ele>231</ele>
        <time>2000-01-01T17:47:09.000Z</time>
      </trkpt>
      <trkpt lat="47.16968" lon="5.92039">
        <ele>230</ele>
        <time>2000-01-01T17:47:19.000Z</time>
      </trkpt>
      <trkpt lat="47.16932" lon="5.92051">
        <ele>231</ele>
        <time>2000-01-01T17:47:29.000Z</time>
      </trkpt>
      <trkpt lat="47.16921" lon="5.92055">
        <ele>231</ele>
        <time>2000-01-01T17:47:39.000Z</time>
      </trkpt>
      <trkpt lat="47.16911" lon="5.92062">
        <ele>231</ele>
        <time>2000-01-01T17:47:49.000Z</time>
      </trkpt>
      <trkpt lat="47.16907" lon="5.92068">
        <ele>231.2</ele>
        <time>2000-01-01T17:47:59.000Z</time>
      </trkpt>
      <trkpt lat="47.16897" lon="5.9208">
        <ele>231</ele>
        <time>2000-01-01T17:48:09.000Z</time>
      </trkpt>
      <trkpt lat="47.16883" lon="5.92099">
        <ele>231</ele>
        <time>2000-01-01T17:48:19.000Z</time>
      </trkpt>
      <trkpt lat="47.16876" lon="5.92111">
        <ele>232</ele>
        <time>2000-01-01T17:48:29.000Z</time>
      </trkpt>
      <trkpt lat="47.16867" lon="5.92132">
        <ele>231</ele>
        <time>2000-01-01T17:48:39.000Z</time>
      </trkpt>
      <trkpt lat="47.16854" lon="5.92183">
        <ele>232</ele>
        <time>2000-01-01T17:48:49.000Z</time>
      </trkpt>
      <trkpt lat="47.16844" lon="5.92217">
        <ele>232</ele>
        <time>2000-01-01T17:48:59.000Z</time>
      </trkpt>
      <trkpt lat="47.16833" lon="5.92257">
        <ele>233</ele>
        <time>2000-01-01T17:49:09.000Z</time>
      </trkpt>
      <trkpt lat="47.16814" lon="5.92316">
        <ele>234</ele>
        <time>2000-01-01T17:49:19.000Z</time>
      </trkpt>
      <trkpt lat="47.16812" lon="5.92323">
        <ele>234.9</ele>
        <time>2000-01-01T17:49:29.000Z</time>
      </trkpt>
      <trkpt lat="47.16797" lon="5.92368">
        <ele>235</ele>
        <time>2000-01-01T17:49:39.000Z</time>
      </trkpt>
      <trkpt lat="47.16783" lon="5.92404">
        <ele>236</ele>
        <time>2000-01-01T17:49:49.000Z</time>
      </trkpt>
      <trkpt lat="47.16775" lon="5.92421">
        <ele>237.2</ele>
        <time>2000-01-01T17:49:59.000Z</time>
      </trkpt>
      <trkpt lat="47.16766" lon="5.92443">
        <ele>237</ele>
        <time>2000-01-01T17:50:09.000Z</time>
      </trkpt>
      <trkpt lat="47.1676" lon="5.9246">
        <ele>238.4</ele>
        <time>2000-01-01T17:50:19.000Z</time>
      </trkpt>
      <trkpt lat="47.16755" lon="5.92471">
        <ele>238</ele>
        <time>2000-01-01T17:50:29.000Z</time>
      </trkpt>
      <trkpt lat="47.16742" lon="5.92483">
        <ele>240.5</ele>
        <time>2000-01-01T17:50:39.000Z</time>
      </trkpt>
      <trkpt lat="47.16725" lon="5.92498">
        <ele>242</ele>
        <time>2000-01-01T17:50:49.000Z</time>
      </trkpt>
      <trkpt lat="47.16706" lon="5.92515">
        <ele>243</ele>
        <time>2000-01-01T17:50:59.000Z</time>
      </trkpt>
      <trkpt lat="47.16692" lon="5.92529">
        <ele>241.8</ele>
        <time>2000-01-01T17:51:09.000Z</time>
      </trkpt>
      <trkpt lat="47.1668" lon="5.92547">
        <ele>242</ele>
        <time>2000-01-01T17:51:19.000Z</time>
      </trkpt>
      <trkpt lat="47.16675" lon="5.92564">
        <ele>243.4</ele>
        <time>2000-01-01T17:51:29.000Z</time>
      </trkpt>
      <trkpt lat="47.16672" lon="5.92583">
        <ele>241</ele>
        <time>2000-01-01T17:51:39.000Z</time>
      </trkpt>
      <trkpt lat="47.16667" lon="5.92602">
        <ele>242.3</ele>
        <time>2000-01-01T17:51:49.000Z</time>
      </trkpt>
      <trkpt lat="47.16661" lon="5.92614">
        <ele>241</ele>
        <time>2000-01-01T17:51:59.000Z</time>
      </trkpt>
      <trkpt lat="47.16653" lon="5.92627">
        <ele>243.8</ele>
        <time>2000-01-01T17:52:09.000Z</time>
      </trkpt>
      <trkpt lat="47.16643" lon="5.92636">
        <ele>243</ele>
        <time>2000-01-01T17:52:19.000Z</time>
      </trkpt>
      <trkpt lat="47.16632" lon="5.92641">
        <ele>242.3</ele>
        <time>2000-01-01T17:52:29.000Z</time>
      </trkpt>
      <trkpt lat="47.16623" lon="5.9264">
        <ele>243</ele>
        <time>2000-01-01T17:52:39.000Z</time>
      </trkpt>
      <trkpt lat="47.16612" lon="5.92638">
        <ele>243.1</ele>
        <time>2000-01-01T17:52:49.000Z</time>
      </trkpt>
      <trkpt lat="47.16608" lon="5.92636">
        <ele>243.5</ele>
        <time>2000-01-01T17:52:59.000Z</time>
      </trkpt>
      <trkpt lat="47.16607" lon="5.92642">
        <ele>243</ele>
        <time>2000-01-01T17:53:09.000Z</time>
      </trkpt>
      <trkpt lat="47.16606" lon="5.92654">
        <ele>243.2</ele>
        <time>2000-01-01T17:53:19.000Z</time>
      </trkpt>
      <trkpt lat="47.16603" lon="5.92667">
        <ele>243.3</ele>
        <time>2000-01-01T17:53:29.000Z</time>
      </trkpt>
      <trkpt lat="47.16594" lon="5.92685">
        <ele>243</ele>
        <time>2000-01-01T17:53:39.000Z</time>
      </trkpt>
      <trkpt lat="47.16587" lon="5.927">
        <ele>244.4</ele>
        <time>2000-01-01T17:53:49.000Z</time>
      </trkpt>
      <trkpt lat="47.16585" lon="5.92709">
        <ele>244</ele>
        <time>2000-01-01T17:53:59.000Z</time>
      </trkpt>
      <trkpt lat="47.16585" lon="5.92709">
        <ele>245</ele>
        <time>2000-01-01T17:54:09.000Z</time>
      </trkpt>
      <trkpt lat="47.16583" lon="5.92717">
        <ele>245.6</ele>
        <time>2000-01-01T17:54:19.000Z</time>
      </trkpt>
      <trkpt lat="47.16581" lon="5.92729">
        <ele>246.9</ele>
        <time>2000-01-01T17:54:29.000Z</time>
      </trkpt>
      <trkpt lat="47.16582" lon="5.92746">
        <ele>248</ele>
        <time>2000-01-01T17:54:39.000Z</time>
      </trkpt>
      <trkpt lat="47.16582" lon="5.92764">
        <ele>250.6</ele>
        <time>2000-01-01T17:54:49.000Z</time>
      </trkpt>
      <trkpt lat="47.16582" lon="5.9277">
        <ele>251.2</ele>
        <time>2000-01-01T17:54:59.000Z</time>
      </trkpt>
      <trkpt lat="47.16579" lon="5.92775">
        <ele>251</ele>
        <time>2000-01-01T17:55:09.000Z</time>
      </trkpt>
      <trkpt lat="47.16577" lon="5.92779">
        <ele>252.3</ele>
        <time>2000-01-01T17:55:19.000Z</time>
      </trkpt>
      <trkpt lat="47.16574" lon="5.92801">
        <ele>254</ele>
        <time>2000-01-01T17:55:29.000Z</time>
      </trkpt>
      <trkpt lat="47.16571" lon="5.9282">
        <ele>256.2</ele>
        <time>2000-01-01T17:55:39.000Z</time>
      </trkpt>
      <trkpt lat="47.1657" lon="5.92833">
        <ele>258</ele>
        <time>2000-01-01T17:55:49.000Z</time>
      </trkpt>
      <trkpt lat="47.16567" lon="5.92845">
        <ele>259</ele>
        <time>2000-01-01T17:55:59.000Z</time>
      </trkpt>
      <trkpt lat="47.16565" lon="5.92852">
        <ele>260</ele>
        <time>2000-01-01T17:56:09.000Z</time>
      </trkpt>
      <trkpt lat="47.1656" lon="5.92857">
        <ele>259</ele>
        <time>2000-01-01T17:56:19.000Z</time>
      </trkpt>
      <trkpt lat="47.16555" lon="5.9286">
        <ele>262</ele>
        <time>2000-01-01T17:56:29.000Z</time>
      </trkpt>
      <trkpt lat="47.16551" lon="5.92861">
        <ele>262.8</ele>
        <time>2000-01-01T17:56:39.000Z</time>
      </trkpt>
      <trkpt lat="47.1655" lon="5.92872">
        <ele>264.6</ele>
        <time>2000-01-01T17:56:49.000Z</time>
      </trkpt>
      <trkpt lat="47.16548" lon="5.92878">
        <ele>265</ele>
        <time>2000-01-01T17:56:59.000Z</time>
      </trkpt>
      <trkpt lat="47.16545" lon="5.92884">
        <ele>267.2</ele>
        <time>2000-01-01T17:57:09.000Z</time>
      </trkpt>
      <trkpt lat="47.16543" lon="5.92896">
        <ele>269.1</ele>
        <time>2000-01-01T17:57:19.000Z</time>
      </trkpt>
      <trkpt lat="47.16542" lon="5.92907">
        <ele>270</ele>
        <time>2000-01-01T17:57:29.000Z</time>
      </trkpt>
      <trkpt lat="47.16545" lon="5.92919">
        <ele>271.7</ele>
        <time>2000-01-01T17:57:39.000Z</time>
      </trkpt>
      <trkpt lat="47.16551" lon="5.92936">
        <ele>272</ele>
        <time>2000-01-01T17:57:49.000Z</time>
      </trkpt>
      <trkpt lat="47.16563" lon="5.92957">
        <ele>272</ele>
        <time>2000-01-01T17:57:59.000Z</time>
      </trkpt>
      <trkpt lat="47.1657" lon="5.92962">
        <ele>272.9</ele>
        <time>2000-01-01T17:58:09.000Z</time>
      </trkpt>
      <trkpt lat="47.16578" lon="5.92974">
        <ele>274</ele>
        <time>2000-01-01T17:58:19.000Z</time>
      </trkpt>
      <trkpt lat="47.16586" lon="5.92994">
        <ele>273.5</ele>
        <time>2000-01-01T17:58:29.000Z</time>
      </trkpt>
      <trkpt lat="47.16607" lon="5.93035">
        <ele>273</ele>
        <time>2000-01-01T17:58:39.000Z</time>
      </trkpt>
      <trkpt lat="47.16624" lon="5.93067">
        <ele>273</ele>
        <time>2000-01-01T17:58:49.000Z</time>
      </trkpt>
      <trkpt lat="47.16635" lon="5.93092">
        <ele>275</ele>
        <time>2000-01-01T17:58:59.000Z</time>
      </trkpt>
      <trkpt lat="47.16644" lon="5.93114">
        <ele>273.2</ele>
        <time>2000-01-01T17:59:09.000Z</time>
      </trkpt>
      <trkpt lat="47.16647" lon="5.93123">
        <ele>271</ele>
        <time>2000-01-01T17:59:19.000Z</time>
      </trkpt>
      <trkpt lat="47.16662" lon="5.93158">
        <ele>271</ele>
        <time>2000-01-01T17:59:29.000Z</time>
      </trkpt>
      <trkpt lat="47.16682" lon="5.93196">
        <ele>272</ele>
        <time>2000-01-01T17:59:39.000Z</time>
      </trkpt>
      <trkpt lat="47.16704" lon="5.93232">
        <ele>275</ele>
        <time>2000-01-01T17:59:49.000Z</time>
      </trkpt>
      <trkpt lat="47.16724" lon="5.9326">
        <ele>276</ele>
        <time>2000-01-01T17:59:59.000Z</time>
      </trkpt>
      <trkpt lat="47.16745" lon="5.93289">
        <ele>276</ele>
        <time>2000-01-01T18:00:09.000Z</time>
      </trkpt>
      <trkpt lat="47.16759" lon="5.93309">
        <ele>279</ele>
        <time>2000-01-01T18:00:19.000Z</time>
      </trkpt>
      <trkpt lat="47.1677" lon="5.93326">
        <ele>280.3</ele>
        <time>2000-01-01T18:00:29.000Z</time>
      </trkpt>
      <trkpt lat="47.16773" lon="5.9334">
        <ele>282</ele>
        <time>2000-01-01T18:00:39.000Z</time>
      </trkpt>
      <trkpt lat="47.16775" lon="5.93359">
        <ele>285.5</ele>
        <time>2000-01-01T18:00:49.000Z</time>
      </trkpt>
      <trkpt lat="47.16776" lon="5.9339">
        <ele>290</ele>
        <time>2000-01-01T18:00:59.000Z</time>
      </trkpt>
      <trkpt lat="47.1678" lon="5.93431">
        <ele>295</ele>
        <time>2000-01-01T18:01:09.000Z</time>
      </trkpt>
      <trkpt lat="47.16782" lon="5.93447">
        <ele>297.8</ele>
        <time>2000-01-01T18:01:19.000Z</time>
      </trkpt>
      <trkpt lat="47.16785" lon="5.93471">
        <ele>300</ele>
        <time>2000-01-01T18:01:29.000Z</time>
      </trkpt>
      <trkpt lat="47.16793" lon="5.93503">
        <ele>302</ele>
        <time>2000-01-01T18:01:39.000Z</time>
      </trkpt>
      <trkpt lat="47.16804" lon="5.93542">
        <ele>304</ele>
        <time>2000-01-01T18:01:49.000Z</time>
      </trkpt>
      <trkpt lat="47.16817" lon="5.93592">
        <ele>308</ele>
        <time>2000-01-01T18:01:59.000Z</time>
      </trkpt>
      <trkpt lat="47.16825" lon="5.93632">
        <ele>311</ele>
        <time>2000-01-01T18:02:09.000Z</time>
      </trkpt>
      <trkpt lat="47.16831" lon="5.9366">
        <ele>312</ele>
        <time>2000-01-01T18:02:19.000Z</time>
      </trkpt>
      <trkpt lat="47.16832" lon="5.93669">
        <ele>313.2</ele>
        <time>2000-01-01T18:02:29.000Z</time>
      </trkpt>
      <trkpt lat="47.16833" lon="5.93677">
        <ele>313.8</ele>
        <time>2000-01-01T18:02:39.000Z</time>
      </trkpt>
      <trkpt lat="47.16832" lon="5.93703">
        <ele>315</ele>
        <time>2000-01-01T18:02:49.000Z</time>
      </trkpt>
      <trkpt lat="47.1683" lon="5.9372">
        <ele>315.9</ele>
        <time>2000-01-01T18:02:59.000Z</time>
      </trkpt>
      <trkpt lat="47.1683" lon="5.93723">
        <ele>316</ele>
        <time>2000-01-01T18:03:09.000Z</time>
      </trkpt>
      <trkpt lat="47.16819" lon="5.93772">
        <ele>317</ele>
        <time>2000-01-01T18:03:19.000Z</time>
      </trkpt>
      <trkpt lat="47.16809" lon="5.93802">
        <ele>317</ele>
        <time>2000-01-01T18:03:29.000Z</time>
      </trkpt>
      <trkpt lat="47.16798" lon="5.93834">
        <ele>316</ele>
        <time>2000-01-01T18:03:39.000Z</time>
      </trkpt>
      <trkpt lat="47.16786" lon="5.93842">
        <ele>316</ele>
        <time>2000-01-01T18:03:49.000Z</time>
      </trkpt>
      <trkpt lat="47.16777" lon="5.93845">
        <ele>315</ele>
        <time>2000-01-01T18:03:59.000Z</time>
      </trkpt>
      <trkpt lat="47.16766" lon="5.93852">
        <ele>315</ele>
        <time>2000-01-01T18:04:09.000Z</time>
      </trkpt>
      <trkpt lat="47.16762" lon="5.93857">
        <ele>314.7</ele>
        <time>2000-01-01T18:04:19.000Z</time>
      </trkpt>
      <trkpt lat="47.16759" lon="5.93854">
        <ele>315</ele>
        <time>2000-01-01T18:04:29.000Z</time>
      </trkpt>
      <trkpt lat="47.16754" lon="5.9385">
        <ele>314.9</ele>
        <time>2000-01-01T18:04:39.000Z</time>
      </trkpt>
      <trkpt lat="47.16748" lon="5.93843">
        <ele>315.3</ele>
        <time>2000-01-01T18:04:49.000Z</time>
      </trkpt>
      <trkpt lat="47.16737" lon="5.93833">
        <ele>316</ele>
        <time>2000-01-01T18:04:59.000Z</time>
      </trkpt>
      <trkpt lat="47.16728" lon="5.93824">
        <ele>316.3</ele>
        <time>2000-01-01T18:05:09.000Z</time>
      </trkpt>
      <trkpt lat="47.16714" lon="5.93805">
        <ele>317</ele>
        <time>2000-01-01T18:05:19.000Z</time>
      </trkpt>
      <trkpt lat="47.16693" lon="5.93773">
        <ele>319</ele>
        <time>2000-01-01T18:05:29.000Z</time>
      </trkpt>
      <trkpt lat="47.16668" lon="5.93734">
        <ele>320</ele>
        <time>2000-01-01T18:05:39.000Z</time>
      </trkpt>
      <trkpt lat="47.1665" lon="5.937">
        <ele>320</ele>
        <time>2000-01-01T18:05:49.000Z</time>
      </trkpt>
      <trkpt lat="47.16632" lon="5.93668">
        <ele>321</ele>
        <time>2000-01-01T18:05:59.000Z</time>
      </trkpt>
      <trkpt lat="47.16619" lon="5.93642">
        <ele>321</ele>
        <time>2000-01-01T18:06:09.000Z</time>
      </trkpt>
      <trkpt lat="47.16612" lon="5.93624">
        <ele>321.9</ele>
        <time>2000-01-01T18:06:19.000Z</time>
      </trkpt>
      <trkpt lat="47.16605" lon="5.93607">
        <ele>322</ele>
        <time>2000-01-01T18:06:29.000Z</time>
      </trkpt>
      <trkpt lat="47.16599" lon="5.93589">
        <ele>322.7</ele>
        <time>2000-01-01T18:06:39.000Z</time>
      </trkpt>
      <trkpt lat="47.16592" lon="5.93565">
        <ele>324</ele>
        <time>2000-01-01T18:06:49.000Z</time>
      </trkpt>
      <trkpt lat="47.16585" lon="5.93536">
        <ele>328</ele>
        <time>2000-01-01T18:06:59.000Z</time>
      </trkpt>
      <trkpt lat="47.16578" lon="5.93513">
        <ele>329.5</ele>
        <time>2000-01-01T18:07:09.000Z</time>
      </trkpt>
      <trkpt lat="47.16574" lon="5.93501">
        <ele>332</ele>
        <time>2000-01-01T18:07:19.000Z</time>
      </trkpt>
      <trkpt lat="47.16571" lon="5.93486">
        <ele>332</ele>
        <time>2000-01-01T18:07:29.000Z</time>
      </trkpt>
      <trkpt lat="47.16569" lon="5.93472">
        <ele>335</ele>
        <time>2000-01-01T18:07:39.000Z</time>
      </trkpt>
      <trkpt lat="47.16568" lon="5.93464">
        <ele>333.6</ele>
        <time>2000-01-01T18:07:49.000Z</time>
      </trkpt>
      <trkpt lat="47.16568" lon="5.93458">
        <ele>333.8</ele>
        <time>2000-01-01T18:07:59.000Z</time>
      </trkpt>
      <trkpt lat="47.1657" lon="5.93454">
        <ele>333.5</ele>
        <time>2000-01-01T18:08:09.000Z</time>
      </trkpt>
      <trkpt lat="47.1657" lon="5.93448">
        <ele>333.8</ele>
        <time>2000-01-01T18:08:19.000Z</time>
      </trkpt>
      <trkpt lat="47.16568" lon="5.93443">
        <ele>336</ele>
        <time>2000-01-01T18:08:29.000Z</time>
      </trkpt>
      <trkpt lat="47.16563" lon="5.93435">
        <ele>335.5</ele>
        <time>2000-01-01T18:08:39.000Z</time>
      </trkpt>
      <trkpt lat="47.16558" lon="5.93428">
        <ele>336.5</ele>
        <time>2000-01-01T18:08:49.000Z</time>
      </trkpt>
      <trkpt lat="47.16551" lon="5.93419">
        <ele>337</ele>
        <time>2000-01-01T18:08:59.000Z</time>
      </trkpt>
      <trkpt lat="47.16546" lon="5.93408">
        <ele>337.8</ele>
        <time>2000-01-01T18:09:09.000Z</time>
      </trkpt>
      <trkpt lat="47.16543" lon="5.93398">
        <ele>338</ele>
        <time>2000-01-01T18:09:19.000Z</time>
      </trkpt>
      <trkpt lat="47.16541" lon="5.93388">
        <ele>338</ele>
        <time>2000-01-01T18:09:29.000Z</time>
      </trkpt>
      <trkpt lat="47.16539" lon="5.93373">
        <ele>338.7</ele>
        <time>2000-01-01T18:09:39.000Z</time>
      </trkpt>
      <trkpt lat="47.16535" lon="5.93357">
        <ele>340</ele>
        <time>2000-01-01T18:09:49.000Z</time>
      </trkpt>
      <trkpt lat="47.16531" lon="5.93343">
        <ele>341</ele>
        <time>2000-01-01T18:09:59.000Z</time>
      </trkpt>
      <trkpt lat="47.16526" lon="5.93332">
        <ele>343</ele>
        <time>2000-01-01T18:10:09.000Z</time>
      </trkpt>
      <trkpt lat="47.16523" lon="5.93325">
        <ele>342.6</ele>
        <time>2000-01-01T18:10:19.000Z</time>
      </trkpt>
      <trkpt lat="47.16514" lon="5.93311">
        <ele>345</ele>
        <time>2000-01-01T18:10:29.000Z</time>
      </trkpt>
      <trkpt lat="47.16502" lon="5.93295">
        <ele>345.8</ele>
        <time>2000-01-01T18:10:39.000Z</time>
      </trkpt>
      <trkpt lat="47.16492" lon="5.93285">
        <ele>346</ele>
        <time>2000-01-01T18:10:49.000Z</time>
      </trkpt>
      <trkpt lat="47.16485" lon="5.93276">
        <ele>346.4</ele>
        <time>2000-01-01T18:10:59.000Z</time>
      </trkpt>
      <trkpt lat="47.16478" lon="5.93266">
        <ele>346</ele>
        <time>2000-01-01T18:11:09.000Z</time>
      </trkpt>
      <trkpt lat="47.16474" lon="5.93252">
        <ele>345</ele>
        <time>2000-01-01T18:11:19.000Z</time>
      </trkpt>
      <trkpt lat="47.16472" lon="5.9324">
        <ele>344</ele>
        <time>2000-01-01T18:11:29.000Z</time>
      </trkpt>
      <trkpt lat="47.16474" lon="5.93219">
        <ele>344</ele>
        <time>2000-01-01T18:11:39.000Z</time>
      </trkpt>
      <trkpt lat="47.16471" lon="5.93209">
        <ele>341.3</ele>
        <time>2000-01-01T18:11:49.000Z</time>
      </trkpt>
      <trkpt lat="47.16468" lon="5.93202">
        <ele>341.3</ele>
        <time>2000-01-01T18:11:59.000Z</time>
      </trkpt>
      <trkpt lat="47.16461" lon="5.93191">
        <ele>343</ele>
        <time>2000-01-01T18:12:09.000Z</time>
      </trkpt>
      <trkpt lat="47.16446" lon="5.93172">
        <ele>343</ele>
        <time>2000-01-01T18:12:19.000Z</time>
      </trkpt>
      <trkpt lat="47.16446" lon="5.93172">
        <ele>343.1</ele>
        <time>2000-01-01T18:12:29.000Z</time>
      </trkpt>
      <trkpt lat="47.16446" lon="5.93172">
        <ele>343.1</ele>
        <time>2000-01-01T18:12:39.000Z</time>
      </trkpt>
      <trkpt lat="47.16435" lon="5.93163">
        <ele>343.5</ele>
        <time>2000-01-01T18:12:49.000Z</time>
      </trkpt>
      <trkpt lat="47.16424" lon="5.93156">
        <ele>343</ele>
        <time>2000-01-01T18:12:59.000Z</time>
      </trkpt>
      <trkpt lat="47.16403" lon="5.93146">
        <ele>344</ele>
        <time>2000-01-01T18:13:09.000Z</time>
      </trkpt>
      <trkpt lat="47.1639" lon="5.93139">
        <ele>344.9</ele>
        <time>2000-01-01T18:13:19.000Z</time>
      </trkpt>
      <trkpt lat="47.16381" lon="5.93134">
        <ele>344</ele>
        <time>2000-01-01T18:13:29.000Z</time>
      </trkpt>
      <trkpt lat="47.16374" lon="5.9313">
        <ele>344.6</ele>
        <time>2000-01-01T18:13:39.000Z</time>
      </trkpt>
      <trkpt lat="47.16362" lon="5.93119">
        <ele>343</ele>
        <time>2000-01-01T18:13:49.000Z</time>
      </trkpt>
      <trkpt lat="47.16354" lon="5.93108">
        <ele>342.9</ele>
        <time>2000-01-01T18:13:59.000Z</time>
      </trkpt>
      <trkpt lat="47.16347" lon="5.93103">
        <ele>343</ele>
        <time>2000-01-01T18:14:09.000Z</time>
      </trkpt>
      <trkpt lat="47.1634" lon="5.93097">
        <ele>342.6</ele>
        <time>2000-01-01T18:14:19.000Z</time>
      </trkpt>
      <trkpt lat="47.16337" lon="5.93095">
        <ele>342.6</ele>
        <time>2000-01-01T18:14:29.000Z</time>
      </trkpt>
      <trkpt lat="47.16326" lon="5.93085">
        <ele>342</ele>
        <time>2000-01-01T18:14:39.000Z</time>
      </trkpt>
      <trkpt lat="47.16313" lon="5.93075">
        <ele>341.9</ele>
        <time>2000-01-01T18:14:49.000Z</time>
      </trkpt>
      <trkpt lat="47.16301" lon="5.93066">
        <ele>341</ele>
        <time>2000-01-01T18:14:59.000Z</time>
      </trkpt>
      <trkpt lat="47.16287" lon="5.93058">
        <ele>340.1</ele>
        <time>2000-01-01T18:15:09.000Z</time>
      </trkpt>
      <trkpt lat="47.16279" lon="5.93055">
        <ele>339</ele>
        <time>2000-01-01T18:15:19.000Z</time>
      </trkpt>
      <trkpt lat="47.16268" lon="5.93047">
        <ele>338.7</ele>
        <time>2000-01-01T18:15:29.000Z</time>
      </trkpt>
      <trkpt lat="47.16258" lon="5.93038">
        <ele>337</ele>
        <time>2000-01-01T18:15:39.000Z</time>
      </trkpt>
      <trkpt lat="47.16254" lon="5.93033">
        <ele>337.9</ele>
        <time>2000-01-01T18:15:49.000Z</time>
      </trkpt>
      <trkpt lat="47.16248" lon="5.93023">
        <ele>337.6</ele>
        <time>2000-01-01T18:15:59.000Z</time>
      </trkpt>
      <trkpt lat="47.1624" lon="5.93011">
        <ele>336</ele>
        <time>2000-01-01T18:16:09.000Z</time>
      </trkpt>
      <trkpt lat="47.1623" lon="5.93">
        <ele>336.3</ele>
        <time>2000-01-01T18:16:19.000Z</time>
      </trkpt>
      <trkpt lat="47.16223" lon="5.92994">
        <ele>335</ele>
        <time>2000-01-01T18:16:29.000Z</time>
      </trkpt>
      <trkpt lat="47.16214" lon="5.92991">
        <ele>334.8</ele>
        <time>2000-01-01T18:16:39.000Z</time>
      </trkpt>
      <trkpt lat="47.16202" lon="5.92988">
        <ele>332</ele>
        <time>2000-01-01T18:16:49.000Z</time>
      </trkpt>
      <trkpt lat="47.16192" lon="5.92987">
        <ele>332.3</ele>
        <time>2000-01-01T18:16:59.000Z</time>
      </trkpt>
      <trkpt lat="47.16185" lon="5.9299">
        <ele>331.7</ele>
        <time>2000-01-01T18:17:09.000Z</time>
      </trkpt>
      <trkpt lat="47.16176" lon="5.92991">
        <ele>331</ele>
        <time>2000-01-01T18:17:19.000Z</time>
      </trkpt>
      <trkpt lat="47.16157" lon="5.9299">
        <ele>331</ele>
        <time>2000-01-01T18:17:29.000Z</time>
      </trkpt>
      <trkpt lat="47.16146" lon="5.92986">
        <ele>331.5</ele>
        <time>2000-01-01T18:17:39.000Z</time>
      </trkpt>
      <trkpt lat="47.1613" lon="5.92973">
        <ele>334</ele>
        <time>2000-01-01T18:17:49.000Z</time>
      </trkpt>
      <trkpt lat="47.1612" lon="5.92965">
        <ele>335</ele>
        <time>2000-01-01T18:17:59.000Z</time>
      </trkpt>
      <trkpt lat="47.16102" lon="5.92945">
        <ele>336</ele>
        <time>2000-01-01T18:18:09.000Z</time>
      </trkpt>
      <trkpt lat="47.16074" lon="5.92923">
        <ele>336</ele>
        <time>2000-01-01T18:18:19.000Z</time>
      </trkpt>
      <trkpt lat="47.16054" lon="5.92905">
        <ele>336</ele>
        <time>2000-01-01T18:18:29.000Z</time>
      </trkpt>
      <trkpt lat="47.16018" lon="5.92876">
        <ele>334</ele>
        <time>2000-01-01T18:18:39.000Z</time>
      </trkpt>
      <trkpt lat="47.1601" lon="5.92872">
        <ele>334.5</ele>
        <time>2000-01-01T18:18:49.000Z</time>
      </trkpt>
      <trkpt lat="47.16003" lon="5.92869">
        <ele>333.7</ele>
        <time>2000-01-01T18:18:59.000Z</time>
      </trkpt>
      <trkpt lat="47.15995" lon="5.92865">
        <ele>333</ele>
        <time>2000-01-01T18:19:09.000Z</time>
      </trkpt>
      <trkpt lat="47.15984" lon="5.9286">
        <ele>332.4</ele>
        <time>2000-01-01T18:19:19.000Z</time>
      </trkpt>
      <trkpt lat="47.15966" lon="5.92848">
        <ele>331</ele>
        <time>2000-01-01T18:19:29.000Z</time>
      </trkpt>
      <trkpt lat="47.15954" lon="5.9284">
        <ele>330.8</ele>
        <time>2000-01-01T18:19:39.000Z</time>
      </trkpt>
      <trkpt lat="47.15944" lon="5.92827">
        <ele>330</ele>
        <time>2000-01-01T18:19:49.000Z</time>
      </trkpt>
      <trkpt lat="47.1592" lon="5.92797">
        <ele>330</ele>
        <time>2000-01-01T18:19:59.000Z</time>
      </trkpt>
      <trkpt lat="47.15914" lon="5.9279">
        <ele>329.8</ele>
        <time>2000-01-01T18:20:09.000Z</time>
      </trkpt>
      <trkpt lat="47.15901" lon="5.92779">
        <ele>329</ele>
        <time>2000-01-01T18:20:19.000Z</time>
      </trkpt>
      <trkpt lat="47.15889" lon="5.92772">
        <ele>328.6</ele>
        <time>2000-01-01T18:20:29.000Z</time>
      </trkpt>
      <trkpt lat="47.15881" lon="5.92766">
        <ele>328</ele>
        <time>2000-01-01T18:20:39.000Z</time>
      </trkpt>
      <trkpt lat="47.15858" lon="5.92741">
        <ele>328</ele>
        <time>2000-01-01T18:20:49.000Z</time>
      </trkpt>
      <trkpt lat="47.15832" lon="5.92717">
        <ele>328</ele>
        <time>2000-01-01T18:20:59.000Z</time>
      </trkpt>
      <trkpt lat="47.15813" lon="5.92699">
        <ele>328</ele>
        <time>2000-01-01T18:21:09.000Z</time>
      </trkpt>
      <trkpt lat="47.15794" lon="5.9268">
        <ele>328</ele>
        <time>2000-01-01T18:21:19.000Z</time>
      </trkpt>
      <trkpt lat="47.15778" lon="5.92665">
        <ele>328</ele>
        <time>2000-01-01T18:21:29.000Z</time>
      </trkpt>
      <trkpt lat="47.15773" lon="5.92662">
        <ele>329.1</ele>
        <time>2000-01-01T18:21:39.000Z</time>
      </trkpt>
      <trkpt lat="47.15768" lon="5.92661">
        <ele>328.8</ele>
        <time>2000-01-01T18:21:49.000Z</time>
      </trkpt>
      <trkpt lat="47.15766" lon="5.92662">
        <ele>328.5</ele>
        <time>2000-01-01T18:21:59.000Z</time>
      </trkpt>
      <trkpt lat="47.15766" lon="5.92662">
        <ele>328.5</ele>
        <time>2000-01-01T18:22:09.000Z</time>
      </trkpt>
      <trkpt lat="47.15762" lon="5.92663">
        <ele>328.1</ele>
        <time>2000-01-01T18:22:19.000Z</time>
      </trkpt>
      <trkpt lat="47.1576" lon="5.92672">
        <ele>326</ele>
        <time>2000-01-01T18:22:29.000Z</time>
      </trkpt>
      <trkpt lat="47.15754" lon="5.92691">
        <ele>326.2</ele>
        <time>2000-01-01T18:22:39.000Z</time>
      </trkpt>
      <trkpt lat="47.15747" lon="5.92719">
        <ele>326</ele>
        <time>2000-01-01T18:22:49.000Z</time>
      </trkpt>
      <trkpt lat="47.15738" lon="5.92748">
        <ele>324</ele>
        <time>2000-01-01T18:22:59.000Z</time>
      </trkpt>
      <trkpt lat="47.15729" lon="5.92775">
        <ele>324</ele>
        <time>2000-01-01T18:23:09.000Z</time>
      </trkpt>
      <trkpt lat="47.15741" lon="5.92787">
        <ele>323.5</ele>
        <time>2000-01-01T18:23:19.000Z</time>
      </trkpt>
      <trkpt lat="47.15735" lon="5.92793">
        <ele>324</ele>
        <time>2000-01-01T18:23:29.000Z</time>
      </trkpt>
      <trkpt lat="47.15728" lon="5.92795">
        <ele>324.1</ele>
        <time>2000-01-01T18:23:39.000Z</time>
      </trkpt>
      <trkpt lat="47.15712" lon="5.92797">
        <ele>325</ele>
        <time>2000-01-01T18:23:49.000Z</time>
      </trkpt>
      <trkpt lat="47.15696" lon="5.928">
        <ele>325.9</ele>
        <time>2000-01-01T18:23:59.000Z</time>
      </trkpt>
      <trkpt lat="47.15685" lon="5.92803">
        <ele>325</ele>
        <time>2000-01-01T18:24:09.000Z</time>
      </trkpt>
      <trkpt lat="47.15676" lon="5.92807">
        <ele>326.7</ele>
        <time>2000-01-01T18:24:19.000Z</time>
      </trkpt>
      <trkpt lat="47.15667" lon="5.92814">
        <ele>327</ele>
        <time>2000-01-01T18:24:29.000Z</time>
      </trkpt>
      <trkpt lat="47.15655" lon="5.92825">
        <ele>328.2</ele>
        <time>2000-01-01T18:24:39.000Z</time>
      </trkpt>
      <trkpt lat="47.15642" lon="5.9284">
        <ele>328</ele>
        <time>2000-01-01T18:24:49.000Z</time>
      </trkpt>
      <trkpt lat="47.15627" lon="5.92857">
        <ele>330</ele>
        <time>2000-01-01T18:24:59.000Z</time>
      </trkpt>
      <trkpt lat="47.15615" lon="5.9287">
        <ele>331.1</ele>
        <time>2000-01-01T18:25:09.000Z</time>
      </trkpt>
      <trkpt lat="47.1561" lon="5.92864">
        <ele>330</ele>
        <time>2000-01-01T18:25:19.000Z</time>
      </trkpt>
      <trkpt lat="47.15597" lon="5.92858">
        <ele>332.5</ele>
        <time>2000-01-01T18:25:29.000Z</time>
      </trkpt>
      <trkpt lat="47.1559" lon="5.92852">
        <ele>332</ele>
        <time>2000-01-01T18:25:39.000Z</time>
      </trkpt>
      <trkpt lat="47.15584" lon="5.92845">
        <ele>333.9</ele>
        <time>2000-01-01T18:25:49.000Z</time>
      </trkpt>
      <trkpt lat="47.15574" lon="5.92835">
        <ele>334</ele>
        <time>2000-01-01T18:25:59.000Z</time>
      </trkpt>
      <trkpt lat="47.15565" lon="5.92826">
        <ele>335.2</ele>
        <time>2000-01-01T18:26:09.000Z</time>
      </trkpt>
      <trkpt lat="47.15556" lon="5.92818">
        <ele>336</ele>
        <time>2000-01-01T18:26:19.000Z</time>
      </trkpt>
      <trkpt lat="47.15549" lon="5.92812">
        <ele>336.9</ele>
        <time>2000-01-01T18:26:29.000Z</time>
      </trkpt>
      <trkpt lat="47.15539" lon="5.92805">
        <ele>338</ele>
        <time>2000-01-01T18:26:39.000Z</time>
      </trkpt>
      <trkpt lat="47.15514" lon="5.92791">
        <ele>340</ele>
        <time>2000-01-01T18:26:49.000Z</time>
      </trkpt>
      <trkpt lat="47.15505" lon="5.92787">
        <ele>340.9</ele>
        <time>2000-01-01T18:26:59.000Z</time>
      </trkpt>
      <trkpt lat="47.15495" lon="5.92784">
        <ele>342</ele>
        <time>2000-01-01T18:27:09.000Z</time>
      </trkpt>
      <trkpt lat="47.15486" lon="5.92783">
        <ele>342.8</ele>
        <time>2000-01-01T18:27:19.000Z</time>
      </trkpt>
      <trkpt lat="47.15472" lon="5.92781">
        <ele>343</ele>
        <time>2000-01-01T18:27:29.000Z</time>
      </trkpt>
      <trkpt lat="47.15461" lon="5.92779">
        <ele>344.9</ele>
        <time>2000-01-01T18:27:39.000Z</time>
      </trkpt>
      <trkpt lat="47.1544" lon="5.92773">
        <ele>345</ele>
        <time>2000-01-01T18:27:49.000Z</time>
      </trkpt>
      <trkpt lat="47.15427" lon="5.92768">
        <ele>347.6</ele>
        <time>2000-01-01T18:27:59.000Z</time>
      </trkpt>
      <trkpt lat="47.15416" lon="5.92764">
        <ele>347</ele>
        <time>2000-01-01T18:28:09.000Z</time>
      </trkpt>
      <trkpt lat="47.15402" lon="5.92758">
        <ele>349.8</ele>
        <time>2000-01-01T18:28:19.000Z</time>
      </trkpt>
      <trkpt lat="47.15393" lon="5.92753">
        <ele>349</ele>
        <time>2000-01-01T18:28:29.000Z</time>
      </trkpt>
      <trkpt lat="47.15384" lon="5.9275">
        <ele>350.7</ele>
        <time>2000-01-01T18:28:39.000Z</time>
      </trkpt>
      <trkpt lat="47.15378" lon="5.92751">
        <ele>351.7</ele>
        <time>2000-01-01T18:28:49.000Z</time>
      </trkpt>
      <trkpt lat="47.1537" lon="5.92755">
        <ele>354</ele>
        <time>2000-01-01T18:28:59.000Z</time>
      </trkpt>
      <trkpt lat="47.15363" lon="5.92759">
        <ele>354.4</ele>
        <time>2000-01-01T18:29:09.000Z</time>
      </trkpt>
      <trkpt lat="47.15358" lon="5.92765">
        <ele>355.3</ele>
        <time>2000-01-01T18:29:19.000Z</time>
      </trkpt>
      <trkpt lat="47.15353" lon="5.92776">
        <ele>354</ele>
        <time>2000-01-01T18:29:29.000Z</time>
      </trkpt>
      <trkpt lat="47.15348" lon="5.9279">
        <ele>356.9</ele>
        <time>2000-01-01T18:29:39.000Z</time>
      </trkpt>
      <trkpt lat="47.1534" lon="5.92811">
        <ele>357</ele>
        <time>2000-01-01T18:29:49.000Z</time>
      </trkpt>
      <trkpt lat="47.15336" lon="5.92826">
        <ele>358.5</ele>
        <time>2000-01-01T18:29:59.000Z</time>
      </trkpt>
      <trkpt lat="47.15332" lon="5.9284">
        <ele>359</ele>
        <time>2000-01-01T18:30:09.000Z</time>
      </trkpt>
      <trkpt lat="47.15323" lon="5.92872">
        <ele>360</ele>
        <time>2000-01-01T18:30:19.000Z</time>
      </trkpt>
      <trkpt lat="47.15312" lon="5.92915">
        <ele>363</ele>
        <time>2000-01-01T18:30:29.000Z</time>
      </trkpt>
      <trkpt lat="47.15308" lon="5.92926">
        <ele>363.6</ele>
        <time>2000-01-01T18:30:39.000Z</time>
      </trkpt>
      <trkpt lat="47.15302" lon="5.92941">
        <ele>365</ele>
        <time>2000-01-01T18:30:49.000Z</time>
      </trkpt>
      <trkpt lat="47.15295" lon="5.92959">
        <ele>365</ele>
        <time>2000-01-01T18:30:59.000Z</time>
      </trkpt>
      <trkpt lat="47.1529" lon="5.92975">
        <ele>368</ele>
        <time>2000-01-01T18:31:09.000Z</time>
      </trkpt>
      <trkpt lat="47.15283" lon="5.92996">
        <ele>368.6</ele>
        <time>2000-01-01T18:31:19.000Z</time>
      </trkpt>
      <trkpt lat="47.1528" lon="5.9301">
        <ele>371</ele>
        <time>2000-01-01T18:31:29.000Z</time>
      </trkpt>
      <trkpt lat="47.15277" lon="5.9302">
        <ele>371.6</ele>
        <time>2000-01-01T18:31:39.000Z</time>
      </trkpt>
      <trkpt lat="47.15273" lon="5.93027">
        <ele>372.8</ele>
        <time>2000-01-01T18:31:49.000Z</time>
      </trkpt>
      <trkpt lat="47.15261" lon="5.93033">
        <ele>374</ele>
        <time>2000-01-01T18:31:59.000Z</time>
      </trkpt>
      <trkpt lat="47.15251" lon="5.93037">
        <ele>377.8</ele>
        <time>2000-01-01T18:32:09.000Z</time>
      </trkpt>
      <trkpt lat="47.1524" lon="5.93042">
        <ele>377</ele>
        <time>2000-01-01T18:32:19.000Z</time>
      </trkpt>
      <trkpt lat="47.1523" lon="5.93048">
        <ele>380</ele>
        <time>2000-01-01T18:32:29.000Z</time>
      </trkpt>
      <trkpt lat="47.1522" lon="5.93055">
        <ele>380</ele>
        <time>2000-01-01T18:32:39.000Z</time>
      </trkpt>
      <trkpt lat="47.15213" lon="5.93063">
        <ele>379.7</ele>
        <time>2000-01-01T18:32:49.000Z</time>
      </trkpt>
      <trkpt lat="47.15205" lon="5.93073">
        <ele>380</ele>
        <time>2000-01-01T18:32:59.000Z</time>
      </trkpt>
      <trkpt lat="47.15197" lon="5.93085">
        <ele>380.7</ele>
        <time>2000-01-01T18:33:09.000Z</time>
      </trkpt>
      <trkpt lat="47.15185" lon="5.93105">
        <ele>382</ele>
        <time>2000-01-01T18:33:19.000Z</time>
      </trkpt>
      <trkpt lat="47.15173" lon="5.93125">
        <ele>383.5</ele>
        <time>2000-01-01T18:33:29.000Z</time>
      </trkpt>
      <trkpt lat="47.15162" lon="5.93143">
        <ele>385</ele>
        <time>2000-01-01T18:33:39.000Z</time>
      </trkpt>
      <trkpt lat="47.15154" lon="5.93154">
        <ele>386.9</ele>
        <time>2000-01-01T18:33:49.000Z</time>
      </trkpt>
      <trkpt lat="47.15148" lon="5.9316">
        <ele>387</ele>
        <time>2000-01-01T18:33:59.000Z</time>
      </trkpt>
      <trkpt lat="47.15143" lon="5.93162">
        <ele>389</ele>
        <time>2000-01-01T18:34:09.000Z</time>
      </trkpt>
      <trkpt lat="47.15138" lon="5.93163">
        <ele>389.9</ele>
        <time>2000-01-01T18:34:19.000Z</time>
      </trkpt>
      <trkpt lat="47.15132" lon="5.93163">
        <ele>390.7</ele>
        <time>2000-01-01T18:34:29.000Z</time>
      </trkpt>
      <trkpt lat="47.15126" lon="5.9316">
        <ele>391</ele>
        <time>2000-01-01T18:34:39.000Z</time>
      </trkpt>
      <trkpt lat="47.1512" lon="5.93156">
        <ele>392</ele>
        <time>2000-01-01T18:34:49.000Z</time>
      </trkpt>
      <trkpt lat="47.15113" lon="5.9315">
        <ele>392.5</ele>
        <time>2000-01-01T18:34:59.000Z</time>
      </trkpt>
      <trkpt lat="47.15109" lon="5.93152">
        <ele>394</ele>
        <time>2000-01-01T18:35:09.000Z</time>
      </trkpt>
      <trkpt lat="47.15101" lon="5.93143">
        <ele>393.8</ele>
        <time>2000-01-01T18:35:19.000Z</time>
      </trkpt>
      <trkpt lat="47.15095" lon="5.93138">
        <ele>394.3</ele>
        <time>2000-01-01T18:35:29.000Z</time>
      </trkpt>
      <trkpt lat="47.15087" lon="5.93133">
        <ele>395</ele>
        <time>2000-01-01T18:35:39.000Z</time>
      </trkpt>
      <trkpt lat="47.15076" lon="5.93129">
        <ele>395.8</ele>
        <time>2000-01-01T18:35:49.000Z</time>
      </trkpt>
      <trkpt lat="47.15054" lon="5.9312">
        <ele>396</ele>
        <time>2000-01-01T18:35:59.000Z</time>
      </trkpt>
      <trkpt lat="47.15011" lon="5.93106">
        <ele>397</ele>
        <time>2000-01-01T18:36:09.000Z</time>
      </trkpt>
      <trkpt lat="47.15011" lon="5.93106">
        <ele>397.1</ele>
        <time>2000-01-01T18:36:19.000Z</time>
      </trkpt>
      <trkpt lat="47.15011" lon="5.93106">
        <ele>397.1</ele>
        <time>2000-01-01T18:36:29.000Z</time>
      </trkpt>
      <trkpt lat="47.15" lon="5.93119">
        <ele>398.9</ele>
        <time>2000-01-01T18:36:39.000Z</time>
      </trkpt>
      <trkpt lat="47.14977" lon="5.93134">
        <ele>401</ele>
        <time>2000-01-01T18:36:49.000Z</time>
      </trkpt>
      <trkpt lat="47.14951" lon="5.93155">
        <ele>405</ele>
        <time>2000-01-01T18:36:59.000Z</time>
      </trkpt>
      <trkpt lat="47.14929" lon="5.93164">
        <ele>407</ele>
        <time>2000-01-01T18:37:09.000Z</time>
      </trkpt>
      <trkpt lat="47.14909" lon="5.9317">
        <ele>410</ele>
        <time>2000-01-01T18:37:19.000Z</time>
      </trkpt>
      <trkpt lat="47.14883" lon="5.93161">
        <ele>413</ele>
        <time>2000-01-01T18:37:29.000Z</time>
      </trkpt>
      <trkpt lat="47.14869" lon="5.93163">
        <ele>416.2</ele>
        <time>2000-01-01T18:37:39.000Z</time>
      </trkpt>
      <trkpt lat="47.14859" lon="5.93167">
        <ele>420</ele>
        <time>2000-01-01T18:37:49.000Z</time>
      </trkpt>
      <trkpt lat="47.14846" lon="5.93166">
        <ele>423.6</ele>
        <time>2000-01-01T18:37:59.000Z</time>
      </trkpt>
      <trkpt lat="47.14808" lon="5.93158">
        <ele>430</ele>
        <time>2000-01-01T18:38:09.000Z</time>
      </trkpt>
      <trkpt lat="47.14787" lon="5.93153">
        <ele>436</ele>
        <time>2000-01-01T18:38:19.000Z</time>
      </trkpt>
      <trkpt lat="47.14774" lon="5.93156">
        <ele>441.5</ele>
        <time>2000-01-01T18:38:29.000Z</time>
      </trkpt>
      <trkpt lat="47.14755" lon="5.9316">
        <ele>440</ele>
        <time>2000-01-01T18:38:39.000Z</time>
      </trkpt>
      <trkpt lat="47.14752" lon="5.93178">
        <ele>446.4</ele>
        <time>2000-01-01T18:38:49.000Z</time>
      </trkpt>
      <trkpt lat="47.14754" lon="5.93193">
        <ele>442</ele>
        <time>2000-01-01T18:38:59.000Z</time>
      </trkpt>
      <trkpt lat="47.14774" lon="5.93226">
        <ele>442</ele>
        <time>2000-01-01T18:39:09.000Z</time>
      </trkpt>
      <trkpt lat="47.14809" lon="5.93265">
        <ele>442</ele>
        <time>2000-01-01T18:39:19.000Z</time>
      </trkpt>
      <trkpt lat="47.14836" lon="5.93295">
        <ele>441</ele>
        <time>2000-01-01T18:39:29.000Z</time>
      </trkpt>
      <trkpt lat="47.14847" lon="5.93303">
        <ele>440.5</ele>
        <time>2000-01-01T18:39:39.000Z</time>
      </trkpt>
      <trkpt lat="47.14857" lon="5.93303">
        <ele>441</ele>
        <time>2000-01-01T18:39:49.000Z</time>
      </trkpt>
      <trkpt lat="47.14868" lon="5.93301">
        <ele>444.4</ele>
        <time>2000-01-01T18:39:59.000Z</time>
      </trkpt>
      <trkpt lat="47.1488" lon="5.93303">
        <ele>443</ele>
        <time>2000-01-01T18:40:09.000Z</time>
      </trkpt>
      <trkpt lat="47.14894" lon="5.93314">
        <ele>446.8</ele>
        <time>2000-01-01T18:40:19.000Z</time>
      </trkpt>
      <trkpt lat="47.14924" lon="5.93343">
        <ele>445</ele>
        <time>2000-01-01T18:40:29.000Z</time>
      </trkpt>
      <trkpt lat="47.14947" lon="5.93361">
        <ele>445</ele>
        <time>2000-01-01T18:40:39.000Z</time>
      </trkpt>
      <trkpt lat="47.14965" lon="5.93372">
        <ele>445</ele>
        <time>2000-01-01T18:40:49.000Z</time>
      </trkpt>
      <trkpt lat="47.14982" lon="5.9338">
        <ele>447</ele>
        <time>2000-01-01T18:40:59.000Z</time>
      </trkpt>
      <trkpt lat="47.15005" lon="5.93401">
        <ele>445</ele>
        <time>2000-01-01T18:41:09.000Z</time>
      </trkpt>
      <trkpt lat="47.15031" lon="5.93426">
        <ele>445</ele>
        <time>2000-01-01T18:41:19.000Z</time>
      </trkpt>
      <trkpt lat="47.15062" lon="5.93453">
        <ele>444</ele>
        <time>2000-01-01T18:41:29.000Z</time>
      </trkpt>
      <trkpt lat="47.15081" lon="5.93466">
        <ele>444</ele>
        <time>2000-01-01T18:41:39.000Z</time>
      </trkpt>
      <trkpt lat="47.15109" lon="5.93489">
        <ele>443</ele>
        <time>2000-01-01T18:41:49.000Z</time>
      </trkpt>
      <trkpt lat="47.15136" lon="5.9351">
        <ele>442</ele>
        <time>2000-01-01T18:41:59.000Z</time>
      </trkpt>
      <trkpt lat="47.15136" lon="5.9351">
        <ele>440.6</ele>
        <time>2000-01-01T18:42:09.000Z</time>
      </trkpt>
      <trkpt lat="47.15183" lon="5.93547">
        <ele>440</ele>
        <time>2000-01-01T18:42:19.000Z</time>
      </trkpt>
      <trkpt lat="47.15219" lon="5.93581">
        <ele>438</ele>
        <time>2000-01-01T18:42:29.000Z</time>
      </trkpt>
      <trkpt lat="47.15251" lon="5.93606">
        <ele>437</ele>
        <time>2000-01-01T18:42:39.000Z</time>
      </trkpt>
      <trkpt lat="47.15274" lon="5.93626">
        <ele>437</ele>
        <time>2000-01-01T18:42:49.000Z</time>
      </trkpt>
      <trkpt lat="47.15308" lon="5.93654">
        <ele>437</ele>
        <time>2000-01-01T18:42:59.000Z</time>
      </trkpt>
      <trkpt lat="47.15341" lon="5.93684">
        <ele>436</ele>
        <time>2000-01-01T18:43:09.000Z</time>
      </trkpt>
      <trkpt lat="47.1537" lon="5.93713">
        <ele>436</ele>
        <time>2000-01-01T18:43:19.000Z</time>
      </trkpt>
      <trkpt lat="47.15398" lon="5.93742">
        <ele>436</ele>
        <time>2000-01-01T18:43:29.000Z</time>
      </trkpt>
      <trkpt lat="47.15426" lon="5.93771">
        <ele>436</ele>
        <time>2000-01-01T18:43:39.000Z</time>
      </trkpt>
      <trkpt lat="47.15456" lon="5.938">
        <ele>436</ele>
        <time>2000-01-01T18:43:49.000Z</time>
      </trkpt>
      <trkpt lat="47.15478" lon="5.93825">
        <ele>437</ele>
        <time>2000-01-01T18:43:59.000Z</time>
      </trkpt>
      <trkpt lat="47.15513" lon="5.93863">
        <ele>438</ele>
        <time>2000-01-01T18:44:09.000Z</time>
      </trkpt>
      <trkpt lat="47.15539" lon="5.93885">
        <ele>438</ele>
        <time>2000-01-01T18:44:19.000Z</time>
      </trkpt>
      <trkpt lat="47.1556" lon="5.93904">
        <ele>439</ele>
        <time>2000-01-01T18:44:29.000Z</time>
      </trkpt>
      <trkpt lat="47.15586" lon="5.93926">
        <ele>439</ele>
        <time>2000-01-01T18:44:39.000Z</time>
      </trkpt>
      <trkpt lat="47.15605" lon="5.93946">
        <ele>438</ele>
        <time>2000-01-01T18:44:49.000Z</time>
      </trkpt>
      <trkpt lat="47.15624" lon="5.93965">
        <ele>437</ele>
        <time>2000-01-01T18:44:59.000Z</time>
      </trkpt>
      <trkpt lat="47.1564" lon="5.93986">
        <ele>437</ele>
        <time>2000-01-01T18:45:09.000Z</time>
      </trkpt>
      <trkpt lat="47.15647" lon="5.93998">
        <ele>433.8</ele>
        <time>2000-01-01T18:45:19.000Z</time>
      </trkpt>
      <trkpt lat="47.15653" lon="5.94003">
        <ele>432.6</ele>
        <time>2000-01-01T18:45:29.000Z</time>
      </trkpt>
      <trkpt lat="47.15679" lon="5.94026">
        <ele>434</ele>
        <time>2000-01-01T18:45:39.000Z</time>
      </trkpt>
      <trkpt lat="47.1569" lon="5.94043">
        <ele>429.1</ele>
        <time>2000-01-01T18:45:49.000Z</time>
      </trkpt>
      <trkpt lat="47.15695" lon="5.94057">
        <ele>432</ele>
        <time>2000-01-01T18:45:59.000Z</time>
      </trkpt>
      <trkpt lat="47.15696" lon="5.94059">
        <ele>430.3</ele>
        <time>2000-01-01T18:46:09.000Z</time>
      </trkpt>
      <trkpt lat="47.15698" lon="5.94066">
        <ele>429.4</ele>
        <time>2000-01-01T18:46:19.000Z</time>
      </trkpt>
      <trkpt lat="47.15727" lon="5.94077">
        <ele>427</ele>
        <time>2000-01-01T18:46:29.000Z</time>
      </trkpt>
      <trkpt lat="47.15741" lon="5.94086">
        <ele>420</ele>
        <time>2000-01-01T18:46:39.000Z</time>
      </trkpt>
      <trkpt lat="47.1576" lon="5.94119">
        <ele>421</ele>
        <time>2000-01-01T18:46:49.000Z</time>
      </trkpt>
      <trkpt lat="47.15772" lon="5.94176">
        <ele>417</ele>
        <time>2000-01-01T18:46:59.000Z</time>
      </trkpt>
      <trkpt lat="47.15782" lon="5.94194">
        <ele>416.8</ele>
        <time>2000-01-01T18:47:09.000Z</time>
      </trkpt>
      <trkpt lat="47.15797" lon="5.94208">
        <ele>416</ele>
        <time>2000-01-01T18:47:19.000Z</time>
      </trkpt>
      <trkpt lat="47.15826" lon="5.9425">
        <ele>413</ele>
        <time>2000-01-01T18:47:29.000Z</time>
      </trkpt>
      <trkpt lat="47.15829" lon="5.94287">
        <ele>412</ele>
        <time>2000-01-01T18:47:39.000Z</time>
      </trkpt>
      <trkpt lat="47.15821" lon="5.94326">
        <ele>409</ele>
        <time>2000-01-01T18:47:49.000Z</time>
      </trkpt>
      <trkpt lat="47.15818" lon="5.94377">
        <ele>405</ele>
        <time>2000-01-01T18:47:59.000Z</time>
      </trkpt>
      <trkpt lat="47.15822" lon="5.9441">
        <ele>403</ele>
        <time>2000-01-01T18:48:09.000Z</time>
      </trkpt>
      <trkpt lat="47.1584" lon="5.94448">
        <ele>401</ele>
        <time>2000-01-01T18:48:19.000Z</time>
      </trkpt>
      <trkpt lat="47.15849" lon="5.9448">
        <ele>399</ele>
        <time>2000-01-01T18:48:29.000Z</time>
      </trkpt>
      <trkpt lat="47.15859" lon="5.94515">
        <ele>398</ele>
        <time>2000-01-01T18:48:39.000Z</time>
      </trkpt>
      <trkpt lat="47.15839" lon="5.94561">
        <ele>391</ele>
        <time>2000-01-01T18:48:49.000Z</time>
      </trkpt>
      <trkpt lat="47.15848" lon="5.94597">
        <ele>390</ele>
        <time>2000-01-01T18:48:59.000Z</time>
      </trkpt>
      <trkpt lat="47.15849" lon="5.94609">
        <ele>390.4</ele>
        <time>2000-01-01T18:49:09.000Z</time>
      </trkpt>
      <trkpt lat="47.15857" lon="5.94635">
        <ele>388</ele>
        <time>2000-01-01T18:49:19.000Z</time>
      </trkpt>
      <trkpt lat="47.15867" lon="5.94671">
        <ele>386</ele>
        <time>2000-01-01T18:49:29.000Z</time>
      </trkpt>
      <trkpt lat="47.15875" lon="5.94719">
        <ele>383</ele>
        <time>2000-01-01T18:49:39.000Z</time>
      </trkpt>
      <trkpt lat="47.1588" lon="5.94749">
        <ele>381</ele>
        <time>2000-01-01T18:49:49.000Z</time>
      </trkpt>
      <trkpt lat="47.15892" lon="5.94777">
        <ele>380</ele>
        <time>2000-01-01T18:49:59.000Z</time>
      </trkpt>
      <trkpt lat="47.15903" lon="5.94797">
        <ele>379.5</ele>
        <time>2000-01-01T18:50:09.000Z</time>
      </trkpt>
      <trkpt lat="47.15921" lon="5.94824">
        <ele>379</ele>
        <time>2000-01-01T18:50:19.000Z</time>
      </trkpt>
      <trkpt lat="47.15934" lon="5.94849">
        <ele>379</ele>
        <time>2000-01-01T18:50:29.000Z</time>
      </trkpt>
      <trkpt lat="47.15942" lon="5.94865">
        <ele>379.3</ele>
        <time>2000-01-01T18:50:39.000Z</time>
      </trkpt>
      <trkpt lat="47.15948" lon="5.94889">
        <ele>377</ele>
        <time>2000-01-01T18:50:49.000Z</time>
      </trkpt>
      <trkpt lat="47.15957" lon="5.94925">
        <ele>375</ele>
        <time>2000-01-01T18:50:59.000Z</time>
      </trkpt>
      <trkpt lat="47.1597" lon="5.9496">
        <ele>375</ele>
        <time>2000-01-01T18:51:09.000Z</time>
      </trkpt>
      <trkpt lat="47.15985" lon="5.95006">
        <ele>375</ele>
        <time>2000-01-01T18:51:19.000Z</time>
      </trkpt>
      <trkpt lat="47.15995" lon="5.95031">
        <ele>374</ele>
        <time>2000-01-01T18:51:29.000Z</time>
      </trkpt>
      <trkpt lat="47.15996" lon="5.95033">
        <ele>375.2</ele>
        <time>2000-01-01T18:51:39.000Z</time>
      </trkpt>
      <trkpt lat="47.16007" lon="5.95051">
        <ele>375.1</ele>
        <time>2000-01-01T18:51:49.000Z</time>
      </trkpt>
      <trkpt lat="47.16021" lon="5.95078">
        <ele>374</ele>
        <time>2000-01-01T18:51:59.000Z</time>
      </trkpt>
      <trkpt lat="47.1603" lon="5.95105">
        <ele>372</ele>
        <time>2000-01-01T18:52:09.000Z</time>
      </trkpt>
      <trkpt lat="47.16031" lon="5.95112">
        <ele>373.3</ele>
        <time>2000-01-01T18:52:19.000Z</time>
      </trkpt>
      <trkpt lat="47.16029" lon="5.95117">
        <ele>372.7</ele>
        <time>2000-01-01T18:52:29.000Z</time>
      </trkpt>
      <trkpt lat="47.16027" lon="5.95123">
        <ele>372</ele>
        <time>2000-01-01T18:52:39.000Z</time>
      </trkpt>
      <trkpt lat="47.16027" lon="5.95128">
        <ele>371.7</ele>
        <time>2000-01-01T18:52:49.000Z</time>
      </trkpt>
      <trkpt lat="47.16027" lon="5.95133">
        <ele>371</ele>
        <time>2000-01-01T18:52:59.000Z</time>
      </trkpt>
      <trkpt lat="47.1603" lon="5.95139">
        <ele>371.2</ele>
        <time>2000-01-01T18:53:09.000Z</time>
      </trkpt>
      <trkpt lat="47.16037" lon="5.95144">
        <ele>371.4</ele>
        <time>2000-01-01T18:53:19.000Z</time>
      </trkpt>
      <trkpt lat="47.1605" lon="5.95155">
        <ele>370</ele>
        <time>2000-01-01T18:53:29.000Z</time>
      </trkpt>
      <trkpt lat="47.16054" lon="5.95158">
        <ele>371.1</ele>
        <time>2000-01-01T18:53:39.000Z</time>
      </trkpt>
      <trkpt lat="47.16055" lon="5.95167">
        <ele>369.9</ele>
        <time>2000-01-01T18:53:49.000Z</time>
      </trkpt>
      <trkpt lat="47.16053" lon="5.95185">
        <ele>368</ele>
        <time>2000-01-01T18:53:59.000Z</time>
      </trkpt>
      <trkpt lat="47.16045" lon="5.9521">
        <ele>368</ele>
        <time>2000-01-01T18:54:09.000Z</time>
      </trkpt>
      <trkpt lat="47.16037" lon="5.95224">
        <ele>367.3</ele>
        <time>2000-01-01T18:54:19.000Z</time>
      </trkpt>
      <trkpt lat="47.16026" lon="5.95236">
        <ele>366</ele>
        <time>2000-01-01T18:54:29.000Z</time>
      </trkpt>
      <trkpt lat="47.16013" lon="5.9524">
        <ele>365.3</ele>
        <time>2000-01-01T18:54:39.000Z</time>
      </trkpt>
      <trkpt lat="47.15982" lon="5.95246">
        <ele>362</ele>
        <time>2000-01-01T18:54:49.000Z</time>
      </trkpt>
      <trkpt lat="47.15978" lon="5.95246">
        <ele>361.8</ele>
        <time>2000-01-01T18:54:59.000Z</time>
      </trkpt>
      <trkpt lat="47.1596" lon="5.95248">
        <ele>360</ele>
        <time>2000-01-01T18:55:09.000Z</time>
      </trkpt>
      <trkpt lat="47.15948" lon="5.95251">
        <ele>360.9</ele>
        <time>2000-01-01T18:55:19.000Z</time>
      </trkpt>
      <trkpt lat="47.15943" lon="5.95252">
        <ele>360.8</ele>
        <time>2000-01-01T18:55:29.000Z</time>
      </trkpt>
      <trkpt lat="47.15929" lon="5.95257">
        <ele>358</ele>
        <time>2000-01-01T18:55:39.000Z</time>
      </trkpt>
      <trkpt lat="47.15909" lon="5.95259">
        <ele>359</ele>
        <time>2000-01-01T18:55:49.000Z</time>
      </trkpt>
      <trkpt lat="47.15893" lon="5.95265">
        <ele>358.3</ele>
        <time>2000-01-01T18:55:59.000Z</time>
      </trkpt>
      <trkpt lat="47.1588" lon="5.95272">
        <ele>359</ele>
        <time>2000-01-01T18:56:09.000Z</time>
      </trkpt>
      <trkpt lat="47.15878" lon="5.95265">
        <ele>358.7</ele>
        <time>2000-01-01T18:56:19.000Z</time>
      </trkpt>
      <trkpt lat="47.15869" lon="5.95257">
        <ele>358.8</ele>
        <time>2000-01-01T18:56:29.000Z</time>
      </trkpt>
      <trkpt lat="47.15863" lon="5.95252">
        <ele>359</ele>
        <time>2000-01-01T18:56:39.000Z</time>
      </trkpt>
      <trkpt lat="47.15836" lon="5.9524">
        <ele>358</ele>
        <time>2000-01-01T18:56:49.000Z</time>
      </trkpt>
      <trkpt lat="47.15831" lon="5.95239">
        <ele>358</ele>
        <time>2000-01-01T18:56:59.000Z</time>
      </trkpt>
      <trkpt lat="47.15825" lon="5.95236">
        <ele>357.5</ele>
        <time>2000-01-01T18:57:09.000Z</time>
      </trkpt>
      <trkpt lat="47.15822" lon="5.95236">
        <ele>357.4</ele>
        <time>2000-01-01T18:57:19.000Z</time>
      </trkpt>
      <trkpt lat="47.1582" lon="5.95237">
        <ele>357.3</ele>
        <time>2000-01-01T18:57:29.000Z</time>
      </trkpt>
      <trkpt lat="47.15819" lon="5.95241">
        <ele>357</ele>
        <time>2000-01-01T18:57:39.000Z</time>
      </trkpt>
      <trkpt lat="47.15819" lon="5.95245">
        <ele>357</ele>
        <time>2000-01-01T18:57:49.000Z</time>
      </trkpt>
      <trkpt lat="47.1582" lon="5.9525">
        <ele>357.1</ele>
        <time>2000-01-01T18:57:59.000Z</time>
      </trkpt>
      <trkpt lat="47.15823" lon="5.9526">
        <ele>355.9</ele>
        <time>2000-01-01T18:58:09.000Z</time>
      </trkpt>
      <trkpt lat="47.15831" lon="5.95279">
        <ele>356</ele>
        <time>2000-01-01T18:58:19.000Z</time>
      </trkpt>
      <trkpt lat="47.15843" lon="5.95307">
        <ele>353</ele>
        <time>2000-01-01T18:58:29.000Z</time>
      </trkpt>
      <trkpt lat="47.15845" lon="5.95315">
        <ele>353.9</ele>
        <time>2000-01-01T18:58:39.000Z</time>
      </trkpt>
      <trkpt lat="47.15846" lon="5.95319">
        <ele>353.9</ele>
        <time>2000-01-01T18:58:49.000Z</time>
      </trkpt>
      <trkpt lat="47.15846" lon="5.95325">
        <ele>353.3</ele>
        <time>2000-01-01T18:58:59.000Z</time>
      </trkpt>
      <trkpt lat="47.15845" lon="5.95329">
        <ele>352.6</ele>
        <time>2000-01-01T18:59:09.000Z</time>
      </trkpt>
      <trkpt lat="47.15842" lon="5.95337">
        <ele>350</ele>
        <time>2000-01-01T18:59:19.000Z</time>
      </trkpt>
      <trkpt lat="47.15836" lon="5.95345">
        <ele>349.7</ele>
        <time>2000-01-01T18:59:29.000Z</time>
      </trkpt>
      <trkpt lat="47.1583" lon="5.95352">
        <ele>348.6</ele>
        <time>2000-01-01T18:59:39.000Z</time>
      </trkpt>
      <trkpt lat="47.15825" lon="5.95358">
        <ele>345</ele>
        <time>2000-01-01T18:59:49.000Z</time>
      </trkpt>
      <trkpt lat="47.15819" lon="5.95362">
        <ele>346.4</ele>
        <time>2000-01-01T18:59:59.000Z</time>
      </trkpt>
      <trkpt lat="47.1581" lon="5.95367">
        <ele>344.5</ele>
        <time>2000-01-01T19:00:09.000Z</time>
      </trkpt>
      <trkpt lat="47.15802" lon="5.9537">
        <ele>342</ele>
        <time>2000-01-01T19:00:19.000Z</time>
      </trkpt>
      <trkpt lat="47.1579" lon="5.95373">
        <ele>341.1</ele>
        <time>2000-01-01T19:00:29.000Z</time>
      </trkpt>
      <trkpt lat="47.15776" lon="5.95378">
        <ele>337</ele>
        <time>2000-01-01T19:00:39.000Z</time>
      </trkpt>
      <trkpt lat="47.15762" lon="5.95386">
        <ele>337.5</ele>
        <time>2000-01-01T19:00:49.000Z</time>
      </trkpt>
      <trkpt lat="47.1575" lon="5.95393">
        <ele>335</ele>
        <time>2000-01-01T19:00:59.000Z</time>
      </trkpt>
      <trkpt lat="47.15734" lon="5.95404">
        <ele>334.5</ele>
        <time>2000-01-01T19:01:09.000Z</time>
      </trkpt>
      <trkpt lat="47.15717" lon="5.95415">
        <ele>331</ele>
        <time>2000-01-01T19:01:19.000Z</time>
      </trkpt>
      <trkpt lat="47.1571" lon="5.95418">
        <ele>331.4</ele>
        <time>2000-01-01T19:01:29.000Z</time>
      </trkpt>
      <trkpt lat="47.15702" lon="5.95421">
        <ele>330.6</ele>
        <time>2000-01-01T19:01:39.000Z</time>
      </trkpt>
      <trkpt lat="47.15685" lon="5.95426">
        <ele>327</ele>
        <time>2000-01-01T19:01:49.000Z</time>
      </trkpt>
      <trkpt lat="47.15671" lon="5.95431">
        <ele>327.2</ele>
        <time>2000-01-01T19:01:59.000Z</time>
      </trkpt>
      <trkpt lat="47.15654" lon="5.95439">
        <ele>324</ele>
        <time>2000-01-01T19:02:09.000Z</time>
      </trkpt>
      <trkpt lat="47.15635" lon="5.95448">
        <ele>321</ele>
        <time>2000-01-01T19:02:19.000Z</time>
      </trkpt>
      <trkpt lat="47.15618" lon="5.95456">
        <ele>321.2</ele>
        <time>2000-01-01T19:02:29.000Z</time>
      </trkpt>
      <trkpt lat="47.15597" lon="5.95465">
        <ele>318</ele>
        <time>2000-01-01T19:02:39.000Z</time>
      </trkpt>
      <trkpt lat="47.15578" lon="5.95472">
        <ele>316</ele>
        <time>2000-01-01T19:02:49.000Z</time>
      </trkpt>
      <trkpt lat="47.15555" lon="5.95483">
        <ele>314</ele>
        <time>2000-01-01T19:02:59.000Z</time>
      </trkpt>
      <trkpt lat="47.1554" lon="5.95492">
        <ele>314.6</ele>
        <time>2000-01-01T19:03:09.000Z</time>
      </trkpt>
      <trkpt lat="47.1553" lon="5.95498">
        <ele>310</ele>
        <time>2000-01-01T19:03:19.000Z</time>
      </trkpt>
      <trkpt lat="47.15518" lon="5.95507">
        <ele>312.6</ele>
        <time>2000-01-01T19:03:29.000Z</time>
      </trkpt>
      <trkpt lat="47.15503" lon="5.95518">
        <ele>308</ele>
        <time>2000-01-01T19:03:39.000Z</time>
      </trkpt>
      <trkpt lat="47.15494" lon="5.95527">
        <ele>310.6</ele>
        <time>2000-01-01T19:03:49.000Z</time>
      </trkpt>
      <trkpt lat="47.1548" lon="5.95538">
        <ele>307</ele>
        <time>2000-01-01T19:03:59.000Z</time>
      </trkpt>
      <trkpt lat="47.15472" lon="5.95543">
        <ele>307.6</ele>
        <time>2000-01-01T19:04:09.000Z</time>
      </trkpt>
      <trkpt lat="47.15465" lon="5.95547">
        <ele>307.3</ele>
        <time>2000-01-01T19:04:19.000Z</time>
      </trkpt>
      <trkpt lat="47.15457" lon="5.95551">
        <ele>306</ele>
        <time>2000-01-01T19:04:29.000Z</time>
      </trkpt>
      <trkpt lat="47.1545" lon="5.95552">
        <ele>306.2</ele>
        <time>2000-01-01T19:04:39.000Z</time>
      </trkpt>
      <trkpt lat="47.15442" lon="5.95555">
        <ele>305.5</ele>
        <time>2000-01-01T19:04:49.000Z</time>
      </trkpt>
      <trkpt lat="47.15435" lon="5.9556">
        <ele>303</ele>
        <time>2000-01-01T19:04:59.000Z</time>
      </trkpt>
      <trkpt lat="47.15429" lon="5.95569">
        <ele>303.4</ele>
        <time>2000-01-01T19:05:09.000Z</time>
      </trkpt>
      <trkpt lat="47.15422" lon="5.95581">
        <ele>302</ele>
        <time>2000-01-01T19:05:19.000Z</time>
      </trkpt>
      <trkpt lat="47.15417" lon="5.95594">
        <ele>301.8</ele>
        <time>2000-01-01T19:05:29.000Z</time>
      </trkpt>
      <trkpt lat="47.15416" lon="5.95598">
        <ele>301.8</ele>
        <time>2000-01-01T19:05:39.000Z</time>
      </trkpt>
      <trkpt lat="47.1541" lon="5.9561">
        <ele>296</ele>
        <time>2000-01-01T19:05:49.000Z</time>
      </trkpt>
      <trkpt lat="47.15404" lon="5.9562">
        <ele>299.7</ele>
        <time>2000-01-01T19:05:59.000Z</time>
      </trkpt>
      <trkpt lat="47.15395" lon="5.95635">
        <ele>296</ele>
        <time>2000-01-01T19:06:09.000Z</time>
      </trkpt>
      <trkpt lat="47.15386" lon="5.9565">
        <ele>298.8</ele>
        <time>2000-01-01T19:06:19.000Z</time>
      </trkpt>
      <trkpt lat="47.1537" lon="5.95672">
        <ele>294</ele>
        <time>2000-01-01T19:06:29.000Z</time>
      </trkpt>
      <trkpt lat="47.15346" lon="5.95705">
        <ele>294</ele>
        <time>2000-01-01T19:06:39.000Z</time>
      </trkpt>
      <trkpt lat="47.1534" lon="5.95716">
        <ele>297.3</ele>
        <time>2000-01-01T19:06:49.000Z</time>
      </trkpt>
      <trkpt lat="47.15334" lon="5.95725">
        <ele>294</ele>
        <time>2000-01-01T19:06:59.000Z</time>
      </trkpt>
      <trkpt lat="47.1533" lon="5.95734">
        <ele>296.5</ele>
        <time>2000-01-01T19:07:09.000Z</time>
      </trkpt>
      <trkpt lat="47.15326" lon="5.95744">
        <ele>295.9</ele>
        <time>2000-01-01T19:07:19.000Z</time>
      </trkpt>
      <trkpt lat="47.15323" lon="5.95759">
        <ele>293</ele>
        <time>2000-01-01T19:07:29.000Z</time>
      </trkpt>
      <trkpt lat="47.15311" lon="5.95815">
        <ele>293</ele>
        <time>2000-01-01T19:07:39.000Z</time>
      </trkpt>
      <trkpt lat="47.15307" lon="5.95836">
        <ele>294.5</ele>
        <time>2000-01-01T19:07:49.000Z</time>
      </trkpt>
      <trkpt lat="47.15302" lon="5.95857">
        <ele>293</ele>
        <time>2000-01-01T19:07:59.000Z</time>
      </trkpt>
      <trkpt lat="47.15298" lon="5.95867">
        <ele>292.9</ele>
        <time>2000-01-01T19:08:09.000Z</time>
      </trkpt>
      <trkpt lat="47.15296" lon="5.95871">
        <ele>293</ele>
        <time>2000-01-01T19:08:19.000Z</time>
      </trkpt>
      <trkpt lat="47.15292" lon="5.95873">
        <ele>292.9</ele>
        <time>2000-01-01T19:08:29.000Z</time>
      </trkpt>
      <trkpt lat="47.15282" lon="5.95876">
        <ele>292</ele>
        <time>2000-01-01T19:08:39.000Z</time>
      </trkpt>
      <trkpt lat="47.15278" lon="5.9588">
        <ele>292.7</ele>
        <time>2000-01-01T19:08:49.000Z</time>
      </trkpt>
      <trkpt lat="47.15275" lon="5.95887">
        <ele>291.9</ele>
        <time>2000-01-01T19:08:59.000Z</time>
      </trkpt>
      <trkpt lat="47.15273" lon="5.95902">
        <ele>292</ele>
        <time>2000-01-01T19:09:09.000Z</time>
      </trkpt>
      <trkpt lat="47.15272" lon="5.95927">
        <ele>290.8</ele>
        <time>2000-01-01T19:09:19.000Z</time>
      </trkpt>
      <trkpt lat="47.15269" lon="5.95958">
        <ele>292</ele>
        <time>2000-01-01T19:09:29.000Z</time>
      </trkpt>
      <trkpt lat="47.15267" lon="5.95987">
        <ele>292</ele>
        <time>2000-01-01T19:09:39.000Z</time>
      </trkpt>
      <trkpt lat="47.15265" lon="5.96014">
        <ele>292</ele>
        <time>2000-01-01T19:09:49.000Z</time>
      </trkpt>
      <trkpt lat="47.15262" lon="5.96026">
        <ele>291.1</ele>
        <time>2000-01-01T19:09:59.000Z</time>
      </trkpt>
      <trkpt lat="47.15259" lon="5.96043">
        <ele>288</ele>
        <time>2000-01-01T19:10:09.000Z</time>
      </trkpt>
      <trkpt lat="47.15256" lon="5.96058">
        <ele>291.2</ele>
        <time>2000-01-01T19:10:19.000Z</time>
      </trkpt>
      <trkpt lat="47.15248" lon="5.96106">
        <ele>288</ele>
        <time>2000-01-01T19:10:29.000Z</time>
      </trkpt>
      <trkpt lat="47.15247" lon="5.96121">
        <ele>288.3</ele>
        <time>2000-01-01T19:10:39.000Z</time>
      </trkpt>
      <trkpt lat="47.15246" lon="5.96137">
        <ele>285</ele>
        <time>2000-01-01T19:10:49.000Z</time>
      </trkpt>
      <trkpt lat="47.15244" lon="5.96151">
        <ele>286.4</ele>
        <time>2000-01-01T19:10:59.000Z</time>
      </trkpt>
      <trkpt lat="47.15242" lon="5.96165">
        <ele>284</ele>
        <time>2000-01-01T19:11:09.000Z</time>
      </trkpt>
      <trkpt lat="47.15237" lon="5.96185">
        <ele>284.4</ele>
        <time>2000-01-01T19:11:19.000Z</time>
      </trkpt>
      <trkpt lat="47.15231" lon="5.96202">
        <ele>282</ele>
        <time>2000-01-01T19:11:29.000Z</time>
      </trkpt>
      <trkpt lat="47.15224" lon="5.96219">
        <ele>281.5</ele>
        <time>2000-01-01T19:11:39.000Z</time>
      </trkpt>
      <trkpt lat="47.15218" lon="5.96233">
        <ele>277</ele>
        <time>2000-01-01T19:11:49.000Z</time>
      </trkpt>
      <trkpt lat="47.15208" lon="5.96249">
        <ele>280.8</ele>
        <time>2000-01-01T19:11:59.000Z</time>
      </trkpt>
      <trkpt lat="47.15197" lon="5.96261">
        <ele>276</ele>
        <time>2000-01-01T19:12:09.000Z</time>
      </trkpt>
      <trkpt lat="47.15186" lon="5.96275">
        <ele>277.6</ele>
        <time>2000-01-01T19:12:19.000Z</time>
      </trkpt>
      <trkpt lat="47.15177" lon="5.96286">
        <ele>275</ele>
        <time>2000-01-01T19:12:29.000Z</time>
      </trkpt>
      <trkpt lat="47.15168" lon="5.96298">
        <ele>276.8</ele>
        <time>2000-01-01T19:12:39.000Z</time>
      </trkpt>
      <trkpt lat="47.15161" lon="5.96306">
        <ele>275</ele>
        <time>2000-01-01T19:12:49.000Z</time>
      </trkpt>
      <trkpt lat="47.15156" lon="5.96311">
        <ele>276.7</ele>
        <time>2000-01-01T19:12:59.000Z</time>
      </trkpt>
      <trkpt lat="47.15146" lon="5.96317">
        <ele>275.9</ele>
        <time>2000-01-01T19:13:09.000Z</time>
      </trkpt>
      <trkpt lat="47.15132" lon="5.96322">
        <ele>275</ele>
        <time>2000-01-01T19:13:19.000Z</time>
      </trkpt>
      <trkpt lat="47.15127" lon="5.96321">
        <ele>274.8</ele>
        <time>2000-01-01T19:13:29.000Z</time>
      </trkpt>
      <trkpt lat="47.15122" lon="5.9634">
        <ele>275</ele>
        <time>2000-01-01T19:13:39.000Z</time>
      </trkpt>
      <trkpt lat="47.15113" lon="5.9637">
        <ele>275</ele>
        <time>2000-01-01T19:13:49.000Z</time>
      </trkpt>
      <trkpt lat="47.15107" lon="5.96386">
        <ele>274.8</ele>
        <time>2000-01-01T19:13:59.000Z</time>
      </trkpt>
      <trkpt lat="47.15102" lon="5.96399">
        <ele>275</ele>
        <time>2000-01-01T19:14:09.000Z</time>
      </trkpt>
      <trkpt lat="47.15096" lon="5.96413">
        <ele>274.9</ele>
        <time>2000-01-01T19:14:19.000Z</time>
      </trkpt>
      <trkpt lat="47.15075" lon="5.96466">
        <ele>275</ele>
        <time>2000-01-01T19:14:29.000Z</time>
      </trkpt>
      <trkpt lat="47.15065" lon="5.96486">
        <ele>274.3</ele>
        <time>2000-01-01T19:14:39.000Z</time>
      </trkpt>
      <trkpt lat="47.15053" lon="5.96519">
        <ele>274</ele>
        <time>2000-01-01T19:14:49.000Z</time>
      </trkpt>
      <trkpt lat="47.15046" lon="5.96533">
        <ele>274.8</ele>
        <time>2000-01-01T19:14:59.000Z</time>
      </trkpt>
      <trkpt lat="47.15039" lon="5.96547">
        <ele>274</ele>
        <time>2000-01-01T19:15:09.000Z</time>
      </trkpt>
      <trkpt lat="47.15033" lon="5.96559">
        <ele>274.7</ele>
        <time>2000-01-01T19:15:19.000Z</time>
      </trkpt>
      <trkpt lat="47.15026" lon="5.96568">
        <ele>274</ele>
        <time>2000-01-01T19:15:29.000Z</time>
      </trkpt>
      <trkpt lat="47.1502" lon="5.96577">
        <ele>275.3</ele>
        <time>2000-01-01T19:15:39.000Z</time>
      </trkpt>
      <trkpt lat="47.1501" lon="5.96589">
        <ele>274</ele>
        <time>2000-01-01T19:15:49.000Z</time>
      </trkpt>
      <trkpt lat="47.14997" lon="5.96606">
        <ele>275.6</ele>
        <time>2000-01-01T19:15:59.000Z</time>
      </trkpt>
      <trkpt lat="47.14989" lon="5.96615">
        <ele>274</ele>
        <time>2000-01-01T19:16:09.000Z</time>
      </trkpt>
      <trkpt lat="47.14989" lon="5.96615">
        <ele>275.7</ele>
        <time>2000-01-01T19:16:19.000Z</time>
      </trkpt>
      <trkpt lat="47.14989" lon="5.96615">
        <ele>275.7</ele>
        <time>2000-01-01T19:16:29.000Z</time>
      </trkpt>
      <trkpt lat="47.14983" lon="5.96625">
        <ele>276.2</ele>
        <time>2000-01-01T19:16:39.000Z</time>
      </trkpt>
      <trkpt lat="47.14975" lon="5.96635">
        <ele>274</ele>
        <time>2000-01-01T19:16:49.000Z</time>
      </trkpt>
      <trkpt lat="47.14971" lon="5.96639">
        <ele>276</ele>
        <time>2000-01-01T19:16:59.000Z</time>
      </trkpt>
      <trkpt lat="47.14955" lon="5.96654">
        <ele>275</ele>
        <time>2000-01-01T19:17:09.000Z</time>
      </trkpt>
      <trkpt lat="47.14946" lon="5.96661">
        <ele>276.8</ele>
        <time>2000-01-01T19:17:19.000Z</time>
      </trkpt>
      <trkpt lat="47.14935" lon="5.96669">
        <ele>275</ele>
        <time>2000-01-01T19:17:29.000Z</time>
      </trkpt>
      <trkpt lat="47.14927" lon="5.96675">
        <ele>278.2</ele>
        <time>2000-01-01T19:17:39.000Z</time>
      </trkpt>
      <trkpt lat="47.14919" lon="5.96678">
        <ele>278.2</ele>
        <time>2000-01-01T19:17:49.000Z</time>
      </trkpt>
      <trkpt lat="47.14908" lon="5.96681">
        <ele>276</ele>
        <time>2000-01-01T19:17:59.000Z</time>
      </trkpt>
      <trkpt lat="47.14897" lon="5.96682">
        <ele>278.1</ele>
        <time>2000-01-01T19:18:09.000Z</time>
      </trkpt>
      <trkpt lat="47.14888" lon="5.96683">
        <ele>276</ele>
        <time>2000-01-01T19:18:19.000Z</time>
      </trkpt>
      <trkpt lat="47.14863" lon="5.9668">
        <ele>275</ele>
        <time>2000-01-01T19:18:29.000Z</time>
      </trkpt>
      <trkpt lat="47.14839" lon="5.96678">
        <ele>275</ele>
        <time>2000-01-01T19:18:39.000Z</time>
      </trkpt>
      <trkpt lat="47.14809" lon="5.96663">
        <ele>276</ele>
        <time>2000-01-01T19:18:49.000Z</time>
      </trkpt>
      <trkpt lat="47.14778" lon="5.9664">
        <ele>276</ele>
        <time>2000-01-01T19:18:59.000Z</time>
      </trkpt>
      <trkpt lat="47.14764" lon="5.96628">
        <ele>277.6</ele>
        <time>2000-01-01T19:19:09.000Z</time>
      </trkpt>
      <trkpt lat="47.14752" lon="5.96615">
        <ele>276</ele>
        <time>2000-01-01T19:19:19.000Z</time>
      </trkpt>
      <trkpt lat="47.14739" lon="5.96601">
        <ele>277.5</ele>
        <time>2000-01-01T19:19:29.000Z</time>
      </trkpt>
      <trkpt lat="47.14725" lon="5.96585">
        <ele>276</ele>
        <time>2000-01-01T19:19:39.000Z</time>
      </trkpt>
      <trkpt lat="47.14712" lon="5.96569">
        <ele>278.5</ele>
        <time>2000-01-01T19:19:49.000Z</time>
      </trkpt>
      <trkpt lat="47.14701" lon="5.96555">
        <ele>276</ele>
        <time>2000-01-01T19:19:59.000Z</time>
      </trkpt>
      <trkpt lat="47.14692" lon="5.96541">
        <ele>278.1</ele>
        <time>2000-01-01T19:20:09.000Z</time>
      </trkpt>
      <trkpt lat="47.14687" lon="5.96531">
        <ele>277</ele>
        <time>2000-01-01T19:20:19.000Z</time>
      </trkpt>
      <trkpt lat="47.14683" lon="5.9652">
        <ele>278.7</ele>
        <time>2000-01-01T19:20:29.000Z</time>
      </trkpt>
      <trkpt lat="47.1468" lon="5.9651">
        <ele>278.5</ele>
        <time>2000-01-01T19:20:39.000Z</time>
      </trkpt>
      <trkpt lat="47.14678" lon="5.96495">
        <ele>277</ele>
        <time>2000-01-01T19:20:49.000Z</time>
      </trkpt>
      <trkpt lat="47.14676" lon="5.9648">
        <ele>276.6</ele>
        <time>2000-01-01T19:20:59.000Z</time>
      </trkpt>
      <trkpt lat="47.14673" lon="5.96466">
        <ele>276</ele>
        <time>2000-01-01T19:21:09.000Z</time>
      </trkpt>
      <trkpt lat="47.14669" lon="5.96451">
        <ele>276</ele>
        <time>2000-01-01T19:21:19.000Z</time>
      </trkpt>
      <trkpt lat="47.14664" lon="5.96434">
        <ele>276</ele>
        <time>2000-01-01T19:21:29.000Z</time>
      </trkpt>
      <trkpt lat="47.14657" lon="5.96411">
        <ele>276.3</ele>
        <time>2000-01-01T19:21:39.000Z</time>
      </trkpt>
      <trkpt lat="47.14652" lon="5.9639">
        <ele>276</ele>
        <time>2000-01-01T19:21:49.000Z</time>
      </trkpt>
      <trkpt lat="47.14649" lon="5.9637">
        <ele>276.2</ele>
        <time>2000-01-01T19:21:59.000Z</time>
      </trkpt>
      <trkpt lat="47.14646" lon="5.96353">
        <ele>276</ele>
        <time>2000-01-01T19:22:09.000Z</time>
      </trkpt>
      <trkpt lat="47.14644" lon="5.96327">
        <ele>276.4</ele>
        <time>2000-01-01T19:22:19.000Z</time>
      </trkpt>
      <trkpt lat="47.14637" lon="5.96259">
        <ele>276</ele>
        <time>2000-01-01T19:22:29.000Z</time>
      </trkpt>
      <trkpt lat="47.14633" lon="5.96231">
        <ele>276</ele>
        <time>2000-01-01T19:22:39.000Z</time>
      </trkpt>
      <trkpt lat="47.14627" lon="5.96186">
        <ele>276</ele>
        <time>2000-01-01T19:22:49.000Z</time>
      </trkpt>
      <trkpt lat="47.14625" lon="5.96174">
        <ele>275.8</ele>
        <time>2000-01-01T19:22:59.000Z</time>
      </trkpt>
      <trkpt lat="47.1462" lon="5.96157">
        <ele>276</ele>
        <time>2000-01-01T19:23:09.000Z</time>
      </trkpt>
      <trkpt lat="47.14615" lon="5.96137">
        <ele>276.7</ele>
        <time>2000-01-01T19:23:19.000Z</time>
      </trkpt>
      <trkpt lat="47.1461" lon="5.96122">
        <ele>276</ele>
        <time>2000-01-01T19:23:29.000Z</time>
      </trkpt>
      <trkpt lat="47.14603" lon="5.96106">
        <ele>276.2</ele>
        <time>2000-01-01T19:23:39.000Z</time>
      </trkpt>
      <trkpt lat="47.14596" lon="5.96093">
        <ele>276</ele>
        <time>2000-01-01T19:23:49.000Z</time>
      </trkpt>
      <trkpt lat="47.14586" lon="5.9608">
        <ele>276.7</ele>
        <time>2000-01-01T19:23:59.000Z</time>
      </trkpt>
      <trkpt lat="47.14585" lon="5.96069">
        <ele>276</ele>
        <time>2000-01-01T19:24:09.000Z</time>
      </trkpt>
      <trkpt lat="47.14584" lon="5.96062">
        <ele>276.2</ele>
        <time>2000-01-01T19:24:19.000Z</time>
      </trkpt>
      <trkpt lat="47.14574" lon="5.96043">
        <ele>276</ele>
        <time>2000-01-01T19:24:29.000Z</time>
      </trkpt>
      <trkpt lat="47.14566" lon="5.96023">
        <ele>276</ele>
        <time>2000-01-01T19:24:39.000Z</time>
      </trkpt>
      <trkpt lat="47.14557" lon="5.96006">
        <ele>276</ele>
        <time>2000-01-01T19:24:49.000Z</time>
      </trkpt>
      <trkpt lat="47.14538" lon="5.95966">
        <ele>276</ele>
        <time>2000-01-01T19:24:59.000Z</time>
      </trkpt>
      <trkpt lat="47.14532" lon="5.95952">
        <ele>275.8</ele>
        <time>2000-01-01T19:25:09.000Z</time>
      </trkpt>
      <trkpt lat="47.14525" lon="5.95935">
        <ele>276</ele>
        <time>2000-01-01T19:25:19.000Z</time>
      </trkpt>
      <trkpt lat="47.14518" lon="5.95921">
        <ele>276</ele>
        <time>2000-01-01T19:25:29.000Z</time>
      </trkpt>
      <trkpt lat="47.1451" lon="5.95906">
        <ele>276</ele>
        <time>2000-01-01T19:25:39.000Z</time>
      </trkpt>
      <trkpt lat="47.14502" lon="5.95894">
        <ele>276.8</ele>
        <time>2000-01-01T19:25:49.000Z</time>
      </trkpt>
      <trkpt lat="47.14488" lon="5.95873">
        <ele>276</ele>
        <time>2000-01-01T19:25:59.000Z</time>
      </trkpt>
      <trkpt lat="47.14474" lon="5.95853">
        <ele>276</ele>
        <time>2000-01-01T19:26:09.000Z</time>
      </trkpt>
      <trkpt lat="47.14461" lon="5.95835">
        <ele>276.4</ele>
        <time>2000-01-01T19:26:19.000Z</time>
      </trkpt>
      <trkpt lat="47.14449" lon="5.95819">
        <ele>276</ele>
        <time>2000-01-01T19:26:29.000Z</time>
      </trkpt>
      <trkpt lat="47.14437" lon="5.95804">
        <ele>276.2</ele>
        <time>2000-01-01T19:26:39.000Z</time>
      </trkpt>
      <trkpt lat="47.14423" lon="5.95787">
        <ele>276</ele>
        <time>2000-01-01T19:26:49.000Z</time>
      </trkpt>
      <trkpt lat="47.14414" lon="5.95775">
        <ele>276.8</ele>
        <time>2000-01-01T19:26:59.000Z</time>
      </trkpt>
      <trkpt lat="47.14407" lon="5.95766">
        <ele>276</ele>
        <time>2000-01-01T19:27:09.000Z</time>
      </trkpt>
      <trkpt lat="47.14401" lon="5.9576">
        <ele>276.4</ele>
        <time>2000-01-01T19:27:19.000Z</time>
      </trkpt>
      <trkpt lat="47.14391" lon="5.95751">
        <ele>276</ele>
        <time>2000-01-01T19:27:29.000Z</time>
      </trkpt>
      <trkpt lat="47.1438" lon="5.95743">
        <ele>276.7</ele>
        <time>2000-01-01T19:27:39.000Z</time>
      </trkpt>
      <trkpt lat="47.14367" lon="5.95732">
        <ele>276</ele>
        <time>2000-01-01T19:27:49.000Z</time>
      </trkpt>
      <trkpt lat="47.14347" lon="5.95718">
        <ele>276</ele>
        <time>2000-01-01T19:27:59.000Z</time>
      </trkpt>
      <trkpt lat="47.1433" lon="5.95705">
        <ele>276</ele>
        <time>2000-01-01T19:28:09.000Z</time>
      </trkpt>
      <trkpt lat="47.14317" lon="5.95696">
        <ele>277</ele>
        <time>2000-01-01T19:28:19.000Z</time>
      </trkpt>
      <trkpt lat="47.14303" lon="5.95688">
        <ele>277</ele>
        <time>2000-01-01T19:28:29.000Z</time>
      </trkpt>
      <trkpt lat="47.14302" lon="5.95687">
        <ele>276.8</ele>
        <time>2000-01-01T19:28:39.000Z</time>
      </trkpt>
      <trkpt lat="47.14292" lon="5.95682">
        <ele>276.8</ele>
        <time>2000-01-01T19:28:49.000Z</time>
      </trkpt>
      <trkpt lat="47.14283" lon="5.95678">
        <ele>277</ele>
        <time>2000-01-01T19:28:59.000Z</time>
      </trkpt>
      <trkpt lat="47.14266" lon="5.95672">
        <ele>277</ele>
        <time>2000-01-01T19:29:09.000Z</time>
      </trkpt>
      <trkpt lat="47.14257" lon="5.95667">
        <ele>277</ele>
        <time>2000-01-01T19:29:19.000Z</time>
      </trkpt>
      <trkpt lat="47.14249" lon="5.95663">
        <ele>276.7</ele>
        <time>2000-01-01T19:29:29.000Z</time>
      </trkpt>
      <trkpt lat="47.14241" lon="5.95659">
        <ele>276.5</ele>
        <time>2000-01-01T19:29:39.000Z</time>
      </trkpt>
      <trkpt lat="47.14233" lon="5.95655">
        <ele>276</ele>
        <time>2000-01-01T19:29:49.000Z</time>
      </trkpt>
      <trkpt lat="47.14225" lon="5.95653">
        <ele>276.5</ele>
        <time>2000-01-01T19:29:59.000Z</time>
      </trkpt>
      <trkpt lat="47.14211" lon="5.95652">
        <ele>276</ele>
        <time>2000-01-01T19:30:09.000Z</time>
      </trkpt>
      <trkpt lat="47.14194" lon="5.95651">
        <ele>276.4</ele>
        <time>2000-01-01T19:30:19.000Z</time>
      </trkpt>
      <trkpt lat="47.14176" lon="5.95651">
        <ele>276</ele>
        <time>2000-01-01T19:30:29.000Z</time>
      </trkpt>
      <trkpt lat="47.14162" lon="5.95651">
        <ele>276.9</ele>
        <time>2000-01-01T19:30:39.000Z</time>
      </trkpt>
      <trkpt lat="47.14152" lon="5.95652">
        <ele>276</ele>
        <time>2000-01-01T19:30:49.000Z</time>
      </trkpt>
      <trkpt lat="47.14142" lon="5.95654">
        <ele>276.6</ele>
        <time>2000-01-01T19:30:59.000Z</time>
      </trkpt>
      <trkpt lat="47.14124" lon="5.95659">
        <ele>277</ele>
        <time>2000-01-01T19:31:09.000Z</time>
      </trkpt>
      <trkpt lat="47.14114" lon="5.95663">
        <ele>276.9</ele>
        <time>2000-01-01T19:31:19.000Z</time>
      </trkpt>
      <trkpt lat="47.14107" lon="5.95668">
        <ele>277</ele>
        <time>2000-01-01T19:31:29.000Z</time>
      </trkpt>
      <trkpt lat="47.141" lon="5.95674">
        <ele>277.3</ele>
        <time>2000-01-01T19:31:39.000Z</time>
      </trkpt>
      <trkpt lat="47.14094" lon="5.95682">
        <ele>277.6</ele>
        <time>2000-01-01T19:31:49.000Z</time>
      </trkpt>
      <trkpt lat="47.14092" lon="5.95692">
        <ele>277</ele>
        <time>2000-01-01T19:31:59.000Z</time>
      </trkpt>
      <trkpt lat="47.14092" lon="5.95701">
        <ele>278</ele>
        <time>2000-01-01T19:32:09.000Z</time>
      </trkpt>
      <trkpt lat="47.14091" lon="5.95706">
        <ele>278</ele>
        <time>2000-01-01T19:32:19.000Z</time>
      </trkpt>
      <trkpt lat="47.1409" lon="5.95711">
        <ele>278</ele>
        <time>2000-01-01T19:32:29.000Z</time>
      </trkpt>
      <trkpt lat="47.14083" lon="5.95716">
        <ele>277</ele>
        <time>2000-01-01T19:32:39.000Z</time>
      </trkpt>
      <trkpt lat="47.14074" lon="5.95723">
        <ele>278</ele>
        <time>2000-01-01T19:32:49.000Z</time>
      </trkpt>
      <trkpt lat="47.14069" lon="5.95726">
        <ele>278</ele>
        <time>2000-01-01T19:32:59.000Z</time>
      </trkpt>
      <trkpt lat="47.1406" lon="5.95727">
        <ele>277</ele>
        <time>2000-01-01T19:33:09.000Z</time>
      </trkpt>
      <trkpt lat="47.14047" lon="5.95728">
        <ele>278</ele>
        <time>2000-01-01T19:33:19.000Z</time>
      </trkpt>
      <trkpt lat="47.14039" lon="5.95728">
        <ele>277</ele>
        <time>2000-01-01T19:33:29.000Z</time>
      </trkpt>
      <trkpt lat="47.14033" lon="5.95728">
        <ele>278</ele>
        <time>2000-01-01T19:33:39.000Z</time>
      </trkpt>
      <trkpt lat="47.14026" lon="5.95731">
        <ele>278</ele>
        <time>2000-01-01T19:33:49.000Z</time>
      </trkpt>
      <trkpt lat="47.14015" lon="5.95736">
        <ele>277</ele>
        <time>2000-01-01T19:33:59.000Z</time>
      </trkpt>
      <trkpt lat="47.14" lon="5.95747">
        <ele>277.9</ele>
        <time>2000-01-01T19:34:09.000Z</time>
      </trkpt>
      <trkpt lat="47.13994" lon="5.95751">
        <ele>278</ele>
        <time>2000-01-01T19:34:19.000Z</time>
      </trkpt>
      <trkpt lat="47.13983" lon="5.95759">
        <ele>278.2</ele>
        <time>2000-01-01T19:34:29.000Z</time>
      </trkpt>
      <trkpt lat="47.13965" lon="5.95773">
        <ele>279</ele>
        <time>2000-01-01T19:34:39.000Z</time>
      </trkpt>
      <trkpt lat="47.13961" lon="5.95775">
        <ele>278.8</ele>
        <time>2000-01-01T19:34:49.000Z</time>
      </trkpt>
      <trkpt lat="47.14012" lon="5.95955">
        <ele>280</ele>
        <time>2000-01-01T19:34:59.000Z</time>
      </trkpt>
      <trkpt lat="47.1402" lon="5.95958">
        <ele>281.6</ele>
        <time>2000-01-01T19:35:09.000Z</time>
      </trkpt>
      <trkpt lat="47.14032" lon="5.95968">
        <ele>281</ele>
        <time>2000-01-01T19:35:19.000Z</time>
      </trkpt>
      <trkpt lat="47.14045" lon="5.95983">
        <ele>284.6</ele>
        <time>2000-01-01T19:35:29.000Z</time>
      </trkpt>
      <trkpt lat="47.14053" lon="5.9599">
        <ele>284</ele>
        <time>2000-01-01T19:35:39.000Z</time>
      </trkpt>
      <trkpt lat="47.14063" lon="5.95998">
        <ele>286.4</ele>
        <time>2000-01-01T19:35:49.000Z</time>
      </trkpt>
      <trkpt lat="47.1407" lon="5.96005">
        <ele>286</ele>
        <time>2000-01-01T19:35:59.000Z</time>
      </trkpt>
      <trkpt lat="47.1408" lon="5.96002">
        <ele>288.1</ele>
        <time>2000-01-01T19:36:09.000Z</time>
      </trkpt>
      <trkpt lat="47.14093" lon="5.95999">
        <ele>288</ele>
        <time>2000-01-01T19:36:19.000Z</time>
      </trkpt>
      <trkpt lat="47.14103" lon="5.95995">
        <ele>288.9</ele>
        <time>2000-01-01T19:36:29.000Z</time>
      </trkpt>
      <trkpt lat="47.14112" lon="5.95991">
        <ele>289</ele>
        <time>2000-01-01T19:36:39.000Z</time>
      </trkpt>
      <trkpt lat="47.14114" lon="5.95994">
        <ele>289.5</ele>
        <time>2000-01-01T19:36:49.000Z</time>
      </trkpt>
      <trkpt lat="47.14118" lon="5.95995">
        <ele>289.7</ele>
        <time>2000-01-01T19:36:59.000Z</time>
      </trkpt>
      <trkpt lat="47.14133" lon="5.95997">
        <ele>290</ele>
        <time>2000-01-01T19:37:09.000Z</time>
      </trkpt>
      <trkpt lat="47.14153" lon="5.96">
        <ele>290</ele>
        <time>2000-01-01T19:37:19.000Z</time>
      </trkpt>
      <trkpt lat="47.14162" lon="5.96001">
        <ele>292</ele>
        <time>2000-01-01T19:37:29.000Z</time>
      </trkpt>
      <trkpt lat="47.14163" lon="5.96001">
        <ele>292</ele>
        <time>2000-01-01T19:37:39.000Z</time>
      </trkpt>
      <trkpt lat="47.14171" lon="5.96002">
        <ele>292</ele>
        <time>2000-01-01T19:37:49.000Z</time>
      </trkpt>
      <trkpt lat="47.14186" lon="5.96005">
        <ele>293.4</ele>
        <time>2000-01-01T19:37:59.000Z</time>
      </trkpt>
      <trkpt lat="47.14197" lon="5.96009">
        <ele>293</ele>
        <time>2000-01-01T19:38:09.000Z</time>
      </trkpt>
      <trkpt lat="47.14194" lon="5.96017">
        <ele>295.4</ele>
        <time>2000-01-01T19:38:19.000Z</time>
      </trkpt>
      <trkpt lat="47.14191" lon="5.96029">
        <ele>297.1</ele>
        <time>2000-01-01T19:38:29.000Z</time>
      </trkpt>
      <trkpt lat="47.14189" lon="5.96044">
        <ele>298</ele>
        <time>2000-01-01T19:38:39.000Z</time>
      </trkpt>
      <trkpt lat="47.14189" lon="5.96063">
        <ele>301.9</ele>
        <time>2000-01-01T19:38:49.000Z</time>
      </trkpt>
      <trkpt lat="47.14188" lon="5.96087">
        <ele>304</ele>
        <time>2000-01-01T19:38:59.000Z</time>
      </trkpt>
      <trkpt lat="47.14187" lon="5.96101">
        <ele>308.7</ele>
        <time>2000-01-01T19:39:09.000Z</time>
      </trkpt>
      <trkpt lat="47.14194" lon="5.96108">
        <ele>309.5</ele>
        <time>2000-01-01T19:39:19.000Z</time>
      </trkpt>
      <trkpt lat="47.14206" lon="5.9612">
        <ele>311</ele>
        <time>2000-01-01T19:39:29.000Z</time>
      </trkpt>
      <trkpt lat="47.14218" lon="5.96133">
        <ele>313.8</ele>
        <time>2000-01-01T19:39:39.000Z</time>
      </trkpt>
      <trkpt lat="47.1423" lon="5.96147">
        <ele>314</ele>
        <time>2000-01-01T19:39:49.000Z</time>
      </trkpt>
      <trkpt lat="47.1423" lon="5.96147">
        <ele>315.6</ele>
        <time>2000-01-01T19:39:59.000Z</time>
      </trkpt>
      <trkpt lat="47.1423" lon="5.96147">
        <ele>315.6</ele>
        <time>2000-01-01T19:40:09.000Z</time>
      </trkpt>
      <trkpt lat="47.14238" lon="5.96157">
        <ele>316.5</ele>
        <time>2000-01-01T19:40:19.000Z</time>
      </trkpt>
      <trkpt lat="47.14259" lon="5.96188">
        <ele>319</ele>
        <time>2000-01-01T19:40:29.000Z</time>
      </trkpt>
      <trkpt lat="47.14268" lon="5.96199">
        <ele>321.7</ele>
        <time>2000-01-01T19:40:39.000Z</time>
      </trkpt>
      <trkpt lat="47.14273" lon="5.96209">
        <ele>321</ele>
        <time>2000-01-01T19:40:49.000Z</time>
      </trkpt>
      <trkpt lat="47.14278" lon="5.96219">
        <ele>323.5</ele>
        <time>2000-01-01T19:40:59.000Z</time>
      </trkpt>
      <trkpt lat="47.14281" lon="5.96228">
        <ele>324.3</ele>
        <time>2000-01-01T19:41:09.000Z</time>
      </trkpt>
      <trkpt lat="47.14282" lon="5.96235">
        <ele>325</ele>
        <time>2000-01-01T19:41:19.000Z</time>
      </trkpt>
      <trkpt lat="47.14284" lon="5.96239">
        <ele>325.6</ele>
        <time>2000-01-01T19:41:29.000Z</time>
      </trkpt>
      <trkpt lat="47.14288" lon="5.96249">
        <ele>326.7</ele>
        <time>2000-01-01T19:41:39.000Z</time>
      </trkpt>
      <trkpt lat="47.14292" lon="5.96262">
        <ele>328</ele>
        <time>2000-01-01T19:41:49.000Z</time>
      </trkpt>
      <trkpt lat="47.14298" lon="5.96272">
        <ele>330</ele>
        <time>2000-01-01T19:41:59.000Z</time>
      </trkpt>
      <trkpt lat="47.14306" lon="5.9629">
        <ele>330</ele>
        <time>2000-01-01T19:42:09.000Z</time>
      </trkpt>
      <trkpt lat="47.14313" lon="5.96305">
        <ele>332.6</ele>
        <time>2000-01-01T19:42:19.000Z</time>
      </trkpt>
      <trkpt lat="47.1432" lon="5.96318">
        <ele>334</ele>
        <time>2000-01-01T19:42:29.000Z</time>
      </trkpt>
      <trkpt lat="47.14322" lon="5.96324">
        <ele>334.1</ele>
        <time>2000-01-01T19:42:39.000Z</time>
      </trkpt>
      <trkpt lat="47.14324" lon="5.96331">
        <ele>335</ele>
        <time>2000-01-01T19:42:49.000Z</time>
      </trkpt>
      <trkpt lat="47.14325" lon="5.96336">
        <ele>335.6</ele>
        <time>2000-01-01T19:42:59.000Z</time>
      </trkpt>
      <trkpt lat="47.14325" lon="5.96337">
        <ele>335.8</ele>
        <time>2000-01-01T19:43:09.000Z</time>
      </trkpt>
      <trkpt lat="47.14334" lon="5.96374">
        <ele>339</ele>
        <time>2000-01-01T19:43:19.000Z</time>
      </trkpt>
      <trkpt lat="47.14336" lon="5.9638">
        <ele>340.2</ele>
        <time>2000-01-01T19:43:29.000Z</time>
      </trkpt>
      <trkpt lat="47.14347" lon="5.96409">
        <ele>342</ele>
        <time>2000-01-01T19:43:39.000Z</time>
      </trkpt>
      <trkpt lat="47.14353" lon="5.96427">
        <ele>344.2</ele>
        <time>2000-01-01T19:43:49.000Z</time>
      </trkpt>
      <trkpt lat="47.14357" lon="5.96445">
        <ele>346</ele>
        <time>2000-01-01T19:43:59.000Z</time>
      </trkpt>
      <trkpt lat="47.1436" lon="5.96457">
        <ele>348</ele>
        <time>2000-01-01T19:44:09.000Z</time>
      </trkpt>
      <trkpt lat="47.14364" lon="5.96475">
        <ele>349</ele>
        <time>2000-01-01T19:44:19.000Z</time>
      </trkpt>
      <trkpt lat="47.14368" lon="5.96492">
        <ele>351.2</ele>
        <time>2000-01-01T19:44:29.000Z</time>
      </trkpt>
      <trkpt lat="47.1437" lon="5.96501">
        <ele>353</ele>
        <time>2000-01-01T19:44:39.000Z</time>
      </trkpt>
      <trkpt lat="47.14372" lon="5.96514">
        <ele>353.6</ele>
        <time>2000-01-01T19:44:49.000Z</time>
      </trkpt>
      <trkpt lat="47.14374" lon="5.9653">
        <ele>354</ele>
        <time>2000-01-01T19:44:59.000Z</time>
      </trkpt>
      <trkpt lat="47.14374" lon="5.9655">
        <ele>357.5</ele>
        <time>2000-01-01T19:45:09.000Z</time>
      </trkpt>
      <trkpt lat="47.14375" lon="5.96563">
        <ele>359</ele>
        <time>2000-01-01T19:45:19.000Z</time>
      </trkpt>
      <trkpt lat="47.1438" lon="5.96591">
        <ele>362</ele>
        <time>2000-01-01T19:45:29.000Z</time>
      </trkpt>
      <trkpt lat="47.1438" lon="5.96607">
        <ele>362.3</ele>
        <time>2000-01-01T19:45:39.000Z</time>
      </trkpt>
      <trkpt lat="47.14381" lon="5.96618">
        <ele>362.9</ele>
        <time>2000-01-01T19:45:49.000Z</time>
      </trkpt>
      <trkpt lat="47.14383" lon="5.96634">
        <ele>363</ele>
        <time>2000-01-01T19:45:59.000Z</time>
      </trkpt>
      <trkpt lat="47.14387" lon="5.96657">
        <ele>365.2</ele>
        <time>2000-01-01T19:46:09.000Z</time>
      </trkpt>
      <trkpt lat="47.1439" lon="5.9667">
        <ele>365</ele>
        <time>2000-01-01T19:46:19.000Z</time>
      </trkpt>
      <trkpt lat="47.14391" lon="5.96683">
        <ele>366</ele>
        <time>2000-01-01T19:46:29.000Z</time>
      </trkpt>
      <trkpt lat="47.14392" lon="5.96693">
        <ele>366.1</ele>
        <time>2000-01-01T19:46:39.000Z</time>
      </trkpt>
      <trkpt lat="47.14391" lon="5.96702">
        <ele>366</ele>
        <time>2000-01-01T19:46:49.000Z</time>
      </trkpt>
      <trkpt lat="47.14388" lon="5.96716">
        <ele>367.5</ele>
        <time>2000-01-01T19:46:59.000Z</time>
      </trkpt>
      <trkpt lat="47.14385" lon="5.96737">
        <ele>367</ele>
        <time>2000-01-01T19:47:09.000Z</time>
      </trkpt>
      <trkpt lat="47.14379" lon="5.96754">
        <ele>369.8</ele>
        <time>2000-01-01T19:47:19.000Z</time>
      </trkpt>
      <trkpt lat="47.14373" lon="5.96768">
        <ele>370</ele>
        <time>2000-01-01T19:47:29.000Z</time>
      </trkpt>
      <trkpt lat="47.14365" lon="5.96787">
        <ele>372.5</ele>
        <time>2000-01-01T19:47:39.000Z</time>
      </trkpt>
      <trkpt lat="47.14361" lon="5.96799">
        <ele>372</ele>
        <time>2000-01-01T19:47:49.000Z</time>
      </trkpt>
      <trkpt lat="47.14359" lon="5.96808">
        <ele>372.9</ele>
        <time>2000-01-01T19:47:59.000Z</time>
      </trkpt>
      <trkpt lat="47.14358" lon="5.9682">
        <ele>373.2</ele>
        <time>2000-01-01T19:48:09.000Z</time>
      </trkpt>
      <trkpt lat="47.14358" lon="5.96838">
        <ele>372</ele>
        <time>2000-01-01T19:48:19.000Z</time>
      </trkpt>
      <trkpt lat="47.1436" lon="5.96859">
        <ele>373</ele>
        <time>2000-01-01T19:48:29.000Z</time>
      </trkpt>
      <trkpt lat="47.14362" lon="5.96874">
        <ele>372</ele>
        <time>2000-01-01T19:48:39.000Z</time>
      </trkpt>
      <trkpt lat="47.14367" lon="5.9689">
        <ele>372.6</ele>
        <time>2000-01-01T19:48:49.000Z</time>
      </trkpt>
      <trkpt lat="47.14372" lon="5.96905">
        <ele>372</ele>
        <time>2000-01-01T19:48:59.000Z</time>
      </trkpt>
      <trkpt lat="47.14378" lon="5.96928">
        <ele>372.6</ele>
        <time>2000-01-01T19:49:09.000Z</time>
      </trkpt>
      <trkpt lat="47.1439" lon="5.96959">
        <ele>372</ele>
        <time>2000-01-01T19:49:19.000Z</time>
      </trkpt>
      <trkpt lat="47.14393" lon="5.96965">
        <ele>372.7</ele>
        <time>2000-01-01T19:49:29.000Z</time>
      </trkpt>
      <trkpt lat="47.14406" lon="5.96995">
        <ele>372</ele>
        <time>2000-01-01T19:49:39.000Z</time>
      </trkpt>
      <trkpt lat="47.14413" lon="5.97013">
        <ele>373.6</ele>
        <time>2000-01-01T19:49:49.000Z</time>
      </trkpt>
      <trkpt lat="47.14418" lon="5.97028">
        <ele>373</ele>
        <time>2000-01-01T19:49:59.000Z</time>
      </trkpt>
      <trkpt lat="47.14423" lon="5.97045">
        <ele>374</ele>
        <time>2000-01-01T19:50:09.000Z</time>
      </trkpt>
      <trkpt lat="47.14427" lon="5.97065">
        <ele>373</ele>
        <time>2000-01-01T19:50:19.000Z</time>
      </trkpt>
      <trkpt lat="47.1443" lon="5.97094">
        <ele>374</ele>
        <time>2000-01-01T19:50:29.000Z</time>
      </trkpt>
      <trkpt lat="47.14435" lon="5.97127">
        <ele>374</ele>
        <time>2000-01-01T19:50:39.000Z</time>
      </trkpt>
      <trkpt lat="47.14437" lon="5.97133">
        <ele>374.5</ele>
        <time>2000-01-01T19:50:49.000Z</time>
      </trkpt>
      <trkpt lat="47.14441" lon="5.97127">
        <ele>374.8</ele>
        <time>2000-01-01T19:50:59.000Z</time>
      </trkpt>
      <trkpt lat="47.14441" lon="5.97127">
        <ele>374.8</ele>
        <time>2000-01-01T19:51:09.000Z</time>
      </trkpt>
      <trkpt lat="47.14461" lon="5.97113">
        <ele>376</ele>
        <time>2000-01-01T19:51:19.000Z</time>
      </trkpt>
      <trkpt lat="47.14469" lon="5.97109">
        <ele>376.8</ele>
        <time>2000-01-01T19:51:29.000Z</time>
      </trkpt>
      <trkpt lat="47.14479" lon="5.97105">
        <ele>377</ele>
        <time>2000-01-01T19:51:39.000Z</time>
      </trkpt>
      <trkpt lat="47.14487" lon="5.97105">
        <ele>377.5</ele>
        <time>2000-01-01T19:51:49.000Z</time>
      </trkpt>
      <trkpt lat="47.14493" lon="5.97106">
        <ele>377.7</ele>
        <time>2000-01-01T19:51:59.000Z</time>
      </trkpt>
      <trkpt lat="47.145" lon="5.9711">
        <ele>378</ele>
        <time>2000-01-01T19:52:09.000Z</time>
      </trkpt>
      <trkpt lat="47.14511" lon="5.97117">
        <ele>377.9</ele>
        <time>2000-01-01T19:52:19.000Z</time>
      </trkpt>
      <trkpt lat="47.14537" lon="5.97141">
        <ele>379</ele>
        <time>2000-01-01T19:52:29.000Z</time>
      </trkpt>
      <trkpt lat="47.1454" lon="5.97146">
        <ele>380</ele>
        <time>2000-01-01T19:52:39.000Z</time>
      </trkpt>
      <trkpt lat="47.14543" lon="5.97155">
        <ele>380.4</ele>
        <time>2000-01-01T19:52:49.000Z</time>
      </trkpt>
      <trkpt lat="47.14545" lon="5.97163">
        <ele>380.8</ele>
        <time>2000-01-01T19:52:59.000Z</time>
      </trkpt>
      <trkpt lat="47.14549" lon="5.97173">
        <ele>381</ele>
        <time>2000-01-01T19:53:09.000Z</time>
      </trkpt>
      <trkpt lat="47.14556" lon="5.97187">
        <ele>382</ele>
        <time>2000-01-01T19:53:19.000Z</time>
      </trkpt>
      <trkpt lat="47.14557" lon="5.97192">
        <ele>382.2</ele>
        <time>2000-01-01T19:53:29.000Z</time>
      </trkpt>
      <trkpt lat="47.14562" lon="5.97195">
        <ele>382</ele>
        <time>2000-01-01T19:53:39.000Z</time>
      </trkpt>
      <trkpt lat="47.14571" lon="5.97201">
        <ele>383.8</ele>
        <time>2000-01-01T19:53:49.000Z</time>
      </trkpt>
      <trkpt lat="47.14582" lon="5.97207">
        <ele>384</ele>
        <time>2000-01-01T19:53:59.000Z</time>
      </trkpt>
      <trkpt lat="47.1459" lon="5.97209">
        <ele>385.2</ele>
        <time>2000-01-01T19:54:09.000Z</time>
      </trkpt>
      <trkpt lat="47.146" lon="5.97211">
        <ele>385.6</ele>
        <time>2000-01-01T19:54:19.000Z</time>
      </trkpt>
      <trkpt lat="47.14609" lon="5.97212">
        <ele>385</ele>
        <time>2000-01-01T19:54:29.000Z</time>
      </trkpt>
      <trkpt lat="47.14612" lon="5.97213">
        <ele>386.1</ele>
        <time>2000-01-01T19:54:39.000Z</time>
      </trkpt>
      <trkpt lat="47.14617" lon="5.97214">
        <ele>386.6</ele>
        <time>2000-01-01T19:54:49.000Z</time>
      </trkpt>
      <trkpt lat="47.14628" lon="5.97218">
        <ele>387</ele>
        <time>2000-01-01T19:54:59.000Z</time>
      </trkpt>
      <trkpt lat="47.14635" lon="5.97219">
        <ele>388.5</ele>
        <time>2000-01-01T19:55:09.000Z</time>
      </trkpt>
      <trkpt lat="47.14641" lon="5.9722">
        <ele>389.1</ele>
        <time>2000-01-01T19:55:19.000Z</time>
      </trkpt>
      <trkpt lat="47.14645" lon="5.9722">
        <ele>389.4</ele>
        <time>2000-01-01T19:55:29.000Z</time>
      </trkpt>
      <trkpt lat="47.14655" lon="5.97219">
        <ele>389</ele>
        <time>2000-01-01T19:55:39.000Z</time>
      </trkpt>
      <trkpt lat="47.14675" lon="5.97216">
        <ele>390</ele>
        <time>2000-01-01T19:55:49.000Z</time>
      </trkpt>
      <trkpt lat="47.14704" lon="5.97202">
        <ele>391</ele>
        <time>2000-01-01T19:55:59.000Z</time>
      </trkpt>
      <trkpt lat="47.14721" lon="5.97185">
        <ele>391</ele>
        <time>2000-01-01T19:56:09.000Z</time>
      </trkpt>
      <trkpt lat="47.14738" lon="5.97163">
        <ele>392</ele>
        <time>2000-01-01T19:56:19.000Z</time>
      </trkpt>
      <trkpt lat="47.14751" lon="5.97143">
        <ele>392.3</ele>
        <time>2000-01-01T19:56:29.000Z</time>
      </trkpt>
      <trkpt lat="47.14772" lon="5.97124">
        <ele>394</ele>
        <time>2000-01-01T19:56:39.000Z</time>
      </trkpt>
      <trkpt lat="47.14791" lon="5.9711">
        <ele>396</ele>
        <time>2000-01-01T19:56:49.000Z</time>
      </trkpt>
      <trkpt lat="47.14803" lon="5.97093">
        <ele>398.7</ele>
        <time>2000-01-01T19:56:59.000Z</time>
      </trkpt>
      <trkpt lat="47.14808" lon="5.97088">
        <ele>398</ele>
        <time>2000-01-01T19:57:09.000Z</time>
      </trkpt>
      <trkpt lat="47.14826" lon="5.9705">
        <ele>402</ele>
        <time>2000-01-01T19:57:19.000Z</time>
      </trkpt>
      <trkpt lat="47.14839" lon="5.97029">
        <ele>402</ele>
        <time>2000-01-01T19:57:29.000Z</time>
      </trkpt>
      <trkpt lat="47.14847" lon="5.97027">
        <ele>404.5</ele>
        <time>2000-01-01T19:57:39.000Z</time>
      </trkpt>
      <trkpt lat="47.14856" lon="5.97016">
        <ele>404</ele>
        <time>2000-01-01T19:57:49.000Z</time>
      </trkpt>
      <trkpt lat="47.14872" lon="5.97007">
        <ele>407.2</ele>
        <time>2000-01-01T19:57:59.000Z</time>
      </trkpt>
      <trkpt lat="47.14893" lon="5.96984">
        <ele>402</ele>
        <time>2000-01-01T19:58:09.000Z</time>
      </trkpt>
      <trkpt lat="47.14901" lon="5.96963">
        <ele>404.1</ele>
        <time>2000-01-01T19:58:19.000Z</time>
      </trkpt>
      <trkpt lat="47.149" lon="5.96937">
        <ele>401</ele>
        <time>2000-01-01T19:58:29.000Z</time>
      </trkpt>
      <trkpt lat="47.14908" lon="5.96927">
        <ele>399.7</ele>
        <time>2000-01-01T19:58:39.000Z</time>
      </trkpt>
      <trkpt lat="47.14914" lon="5.96892">
        <ele>399</ele>
        <time>2000-01-01T19:58:49.000Z</time>
      </trkpt>
      <trkpt lat="47.14936" lon="5.9692">
        <ele>394</ele>
        <time>2000-01-01T19:58:59.000Z</time>
      </trkpt>
      <trkpt lat="47.14953" lon="5.96943">
        <ele>391</ele>
        <time>2000-01-01T19:59:09.000Z</time>
      </trkpt>
      <trkpt lat="47.14972" lon="5.96968">
        <ele>388</ele>
        <time>2000-01-01T19:59:19.000Z</time>
      </trkpt>
      <trkpt lat="47.15005" lon="5.96979">
        <ele>387</ele>
        <time>2000-01-01T19:59:29.000Z</time>
      </trkpt>
      <trkpt lat="47.15029" lon="5.9698">
        <ele>384</ele>
        <time>2000-01-01T19:59:39.000Z</time>
      </trkpt>
      <trkpt lat="47.15055" lon="5.96981">
        <ele>384</ele>
        <time>2000-01-01T19:59:49.000Z</time>
      </trkpt>
      <trkpt lat="47.15068" lon="5.97003">
        <ele>384</ele>
        <time>2000-01-01T19:59:59.000Z</time>
      </trkpt>
      <trkpt lat="47.15077" lon="5.97052">
        <ele>387</ele>
        <time>2000-01-01T20:00:09.000Z</time>
      </trkpt>
      <trkpt lat="47.15093" lon="5.97091">
        <ele>388</ele>
        <time>2000-01-01T20:00:19.000Z</time>
      </trkpt>
      <trkpt lat="47.15108" lon="5.9713">
        <ele>392</ele>
        <time>2000-01-01T20:00:29.000Z</time>
      </trkpt>
      <trkpt lat="47.15125" lon="5.97172">
        <ele>394</ele>
        <time>2000-01-01T20:00:39.000Z</time>
      </trkpt>
      <trkpt lat="47.15135" lon="5.97219">
        <ele>397</ele>
        <time>2000-01-01T20:00:49.000Z</time>
      </trkpt>
      <trkpt lat="47.15157" lon="5.97237">
        <ele>398</ele>
        <time>2000-01-01T20:00:59.000Z</time>
      </trkpt>
      <trkpt lat="47.15184" lon="5.97258">
        <ele>399</ele>
        <time>2000-01-01T20:01:09.000Z</time>
      </trkpt>
      <trkpt lat="47.15207" lon="5.97283">
        <ele>400</ele>
        <time>2000-01-01T20:01:19.000Z</time>
      </trkpt>
      <trkpt lat="47.15239" lon="5.97296">
        <ele>401</ele>
        <time>2000-01-01T20:01:29.000Z</time>
      </trkpt>
      <trkpt lat="47.1527" lon="5.97339">
        <ele>403</ele>
        <time>2000-01-01T20:01:39.000Z</time>
      </trkpt>
      <trkpt lat="47.15273" lon="5.9734">
        <ele>404.6</ele>
        <time>2000-01-01T20:01:49.000Z</time>
      </trkpt>
      <trkpt lat="47.15274" lon="5.97342">
        <ele>404.7</ele>
        <time>2000-01-01T20:01:59.000Z</time>
      </trkpt>
      <trkpt lat="47.15314" lon="5.97361">
        <ele>405</ele>
        <time>2000-01-01T20:02:09.000Z</time>
      </trkpt>
      <trkpt lat="47.15341" lon="5.97362">
        <ele>407</ele>
        <time>2000-01-01T20:02:19.000Z</time>
      </trkpt>
      <trkpt lat="47.15341" lon="5.97362">
        <ele>407.5</ele>
        <time>2000-01-01T20:02:29.000Z</time>
      </trkpt>
      <trkpt lat="47.15355" lon="5.97362">
        <ele>408.5</ele>
        <time>2000-01-01T20:02:39.000Z</time>
      </trkpt>
      <trkpt lat="47.15367" lon="5.9736">
        <ele>409</ele>
        <time>2000-01-01T20:02:49.000Z</time>
      </trkpt>
      <trkpt lat="47.15386" lon="5.97353">
        <ele>411</ele>
        <time>2000-01-01T20:02:59.000Z</time>
      </trkpt>
      <trkpt lat="47.15412" lon="5.97351">
        <ele>416</ele>
        <time>2000-01-01T20:03:09.000Z</time>
      </trkpt>
      <trkpt lat="47.15445" lon="5.97349">
        <ele>420</ele>
        <time>2000-01-01T20:03:19.000Z</time>
      </trkpt>
      <trkpt lat="47.15471" lon="5.9735">
        <ele>424</ele>
        <time>2000-01-01T20:03:29.000Z</time>
      </trkpt>
      <trkpt lat="47.15503" lon="5.97352">
        <ele>424</ele>
        <time>2000-01-01T20:03:39.000Z</time>
      </trkpt>
      <trkpt lat="47.15526" lon="5.97368">
        <ele>424</ele>
        <time>2000-01-01T20:03:49.000Z</time>
      </trkpt>
      <trkpt lat="47.15555" lon="5.97388">
        <ele>423</ele>
        <time>2000-01-01T20:03:59.000Z</time>
      </trkpt>
      <trkpt lat="47.15581" lon="5.97399">
        <ele>423</ele>
        <time>2000-01-01T20:04:09.000Z</time>
      </trkpt>
      <trkpt lat="47.1562" lon="5.97415">
        <ele>419</ele>
        <time>2000-01-01T20:04:19.000Z</time>
      </trkpt>
      <trkpt lat="47.15641" lon="5.97445">
        <ele>416</ele>
        <time>2000-01-01T20:04:29.000Z</time>
      </trkpt>
      <trkpt lat="47.15659" lon="5.97469">
        <ele>415</ele>
        <time>2000-01-01T20:04:39.000Z</time>
      </trkpt>
      <trkpt lat="47.1568" lon="5.97498">
        <ele>412</ele>
        <time>2000-01-01T20:04:49.000Z</time>
      </trkpt>
      <trkpt lat="47.15709" lon="5.97512">
        <ele>410</ele>
        <time>2000-01-01T20:04:59.000Z</time>
      </trkpt>
      <trkpt lat="47.15738" lon="5.97527">
        <ele>409</ele>
        <time>2000-01-01T20:05:09.000Z</time>
      </trkpt>
      <trkpt lat="47.15767" lon="5.97541">
        <ele>407</ele>
        <time>2000-01-01T20:05:19.000Z</time>
      </trkpt>
      <trkpt lat="47.15796" lon="5.97538">
        <ele>403</ele>
        <time>2000-01-01T20:05:29.000Z</time>
      </trkpt>
      <trkpt lat="47.15821" lon="5.97536">
        <ele>399</ele>
        <time>2000-01-01T20:05:39.000Z</time>
      </trkpt>
      <trkpt lat="47.1585" lon="5.97534">
        <ele>398</ele>
        <time>2000-01-01T20:05:49.000Z</time>
      </trkpt>
      <trkpt lat="47.15885" lon="5.97553">
        <ele>398</ele>
        <time>2000-01-01T20:05:59.000Z</time>
      </trkpt>
      <trkpt lat="47.15921" lon="5.97573">
        <ele>398</ele>
        <time>2000-01-01T20:06:09.000Z</time>
      </trkpt>
      <trkpt lat="47.15956" lon="5.97592">
        <ele>398</ele>
        <time>2000-01-01T20:06:19.000Z</time>
      </trkpt>
      <trkpt lat="47.15992" lon="5.97612">
        <ele>397</ele>
        <time>2000-01-01T20:06:29.000Z</time>
      </trkpt>
      <trkpt lat="47.16017" lon="5.97626">
        <ele>396</ele>
        <time>2000-01-01T20:06:39.000Z</time>
      </trkpt>
      <trkpt lat="47.16054" lon="5.97646">
        <ele>397</ele>
        <time>2000-01-01T20:06:49.000Z</time>
      </trkpt>
      <trkpt lat="47.16092" lon="5.9768">
        <ele>398</ele>
        <time>2000-01-01T20:06:59.000Z</time>
      </trkpt>
      <trkpt lat="47.16122" lon="5.97699">
        <ele>399</ele>
        <time>2000-01-01T20:07:09.000Z</time>
      </trkpt>
      <trkpt lat="47.16152" lon="5.97718">
        <ele>400</ele>
        <time>2000-01-01T20:07:19.000Z</time>
      </trkpt>
      <trkpt lat="47.16175" lon="5.97732">
        <ele>400</ele>
        <time>2000-01-01T20:07:29.000Z</time>
      </trkpt>
      <trkpt lat="47.16199" lon="5.97747">
        <ele>401</ele>
        <time>2000-01-01T20:07:39.000Z</time>
      </trkpt>
      <trkpt lat="47.16225" lon="5.97761">
        <ele>402</ele>
        <time>2000-01-01T20:07:49.000Z</time>
      </trkpt>
      <trkpt lat="47.16265" lon="5.97783">
        <ele>403</ele>
        <time>2000-01-01T20:07:59.000Z</time>
      </trkpt>
      <trkpt lat="47.16296" lon="5.97805">
        <ele>404</ele>
        <time>2000-01-01T20:08:09.000Z</time>
      </trkpt>
      <trkpt lat="47.16321" lon="5.97815">
        <ele>404</ele>
        <time>2000-01-01T20:08:19.000Z</time>
      </trkpt>
      <trkpt lat="47.16351" lon="5.97786">
        <ele>399</ele>
        <time>2000-01-01T20:08:29.000Z</time>
      </trkpt>
      <trkpt lat="47.16367" lon="5.97732">
        <ele>391</ele>
        <time>2000-01-01T20:08:39.000Z</time>
      </trkpt>
      <trkpt lat="47.16347" lon="5.97673">
        <ele>383</ele>
        <time>2000-01-01T20:08:49.000Z</time>
      </trkpt>
      <trkpt lat="47.16343" lon="5.97617">
        <ele>372</ele>
        <time>2000-01-01T20:08:59.000Z</time>
      </trkpt>
      <trkpt lat="47.16348" lon="5.97612">
        <ele>372.1</ele>
        <time>2000-01-01T20:09:09.000Z</time>
      </trkpt>
      <trkpt lat="47.16348" lon="5.97612">
        <ele>372.1</ele>
        <time>2000-01-01T20:09:19.000Z</time>
      </trkpt>
      <trkpt lat="47.1635" lon="5.97607">
        <ele>371.1</ele>
        <time>2000-01-01T20:09:29.000Z</time>
      </trkpt>
      <trkpt lat="47.16369" lon="5.97605">
        <ele>368</ele>
        <time>2000-01-01T20:09:39.000Z</time>
      </trkpt>
      <trkpt lat="47.16383" lon="5.97604">
        <ele>367.2</ele>
        <time>2000-01-01T20:09:49.000Z</time>
      </trkpt>
      <trkpt lat="47.16396" lon="5.97603">
        <ele>365</ele>
        <time>2000-01-01T20:09:59.000Z</time>
      </trkpt>
      <trkpt lat="47.16418" lon="5.976">
        <ele>359</ele>
        <time>2000-01-01T20:10:09.000Z</time>
      </trkpt>
      <trkpt lat="47.16428" lon="5.97599">
        <ele>359.2</ele>
        <time>2000-01-01T20:10:19.000Z</time>
      </trkpt>
      <trkpt lat="47.16432" lon="5.97599">
        <ele>358.6</ele>
        <time>2000-01-01T20:10:29.000Z</time>
      </trkpt>
      <trkpt lat="47.16451" lon="5.97597">
        <ele>353</ele>
        <time>2000-01-01T20:10:39.000Z</time>
      </trkpt>
      <trkpt lat="47.16474" lon="5.97587">
        <ele>349</ele>
        <time>2000-01-01T20:10:49.000Z</time>
      </trkpt>
      <trkpt lat="47.16499" lon="5.97577">
        <ele>346</ele>
        <time>2000-01-01T20:10:59.000Z</time>
      </trkpt>
      <trkpt lat="47.1653" lon="5.97547">
        <ele>341</ele>
        <time>2000-01-01T20:11:09.000Z</time>
      </trkpt>
      <trkpt lat="47.1655" lon="5.97514">
        <ele>340</ele>
        <time>2000-01-01T20:11:19.000Z</time>
      </trkpt>
      <trkpt lat="47.16562" lon="5.97478">
        <ele>339</ele>
        <time>2000-01-01T20:11:29.000Z</time>
      </trkpt>
      <trkpt lat="47.16538" lon="5.9745">
        <ele>338</ele>
        <time>2000-01-01T20:11:39.000Z</time>
      </trkpt>
      <trkpt lat="47.16536" lon="5.97448">
        <ele>338.6</ele>
        <time>2000-01-01T20:11:49.000Z</time>
      </trkpt>
      <trkpt lat="47.16531" lon="5.97441">
        <ele>338.4</ele>
        <time>2000-01-01T20:11:59.000Z</time>
      </trkpt>
      <trkpt lat="47.16523" lon="5.97436">
        <ele>337</ele>
        <time>2000-01-01T20:12:09.000Z</time>
      </trkpt>
      <trkpt lat="47.16519" lon="5.97431">
        <ele>338.2</ele>
        <time>2000-01-01T20:12:19.000Z</time>
      </trkpt>
      <trkpt lat="47.16499" lon="5.97406">
        <ele>337</ele>
        <time>2000-01-01T20:12:29.000Z</time>
      </trkpt>
      <trkpt lat="47.16496" lon="5.974">
        <ele>337.5</ele>
        <time>2000-01-01T20:12:39.000Z</time>
      </trkpt>
      <trkpt lat="47.16496" lon="5.97393">
        <ele>337.7</ele>
        <time>2000-01-01T20:12:49.000Z</time>
      </trkpt>
      <trkpt lat="47.16501" lon="5.97381">
        <ele>338</ele>
        <time>2000-01-01T20:12:59.000Z</time>
      </trkpt>
      <trkpt lat="47.1651" lon="5.9738">
        <ele>339.2</ele>
        <time>2000-01-01T20:13:09.000Z</time>
      </trkpt>
      <trkpt lat="47.16527" lon="5.97387">
        <ele>339</ele>
        <time>2000-01-01T20:13:19.000Z</time>
      </trkpt>
      <trkpt lat="47.16553" lon="5.97396">
        <ele>342</ele>
        <time>2000-01-01T20:13:29.000Z</time>
      </trkpt>
      <trkpt lat="47.1659" lon="5.97408">
        <ele>344</ele>
        <time>2000-01-01T20:13:39.000Z</time>
      </trkpt>
      <trkpt lat="47.16621" lon="5.97413">
        <ele>349</ele>
        <time>2000-01-01T20:13:49.000Z</time>
      </trkpt>
      <trkpt lat="47.16656" lon="5.97416">
        <ele>351</ele>
        <time>2000-01-01T20:13:59.000Z</time>
      </trkpt>
      <trkpt lat="47.16684" lon="5.97416">
        <ele>354</ele>
        <time>2000-01-01T20:14:09.000Z</time>
      </trkpt>
      <trkpt lat="47.16695" lon="5.97414">
        <ele>355.1</ele>
        <time>2000-01-01T20:14:19.000Z</time>
      </trkpt>
      <trkpt lat="47.16719" lon="5.9741">
        <ele>357</ele>
        <time>2000-01-01T20:14:29.000Z</time>
      </trkpt>
      <trkpt lat="47.16747" lon="5.97401">
        <ele>359</ele>
        <time>2000-01-01T20:14:39.000Z</time>
      </trkpt>
      <trkpt lat="47.16776" lon="5.97395">
        <ele>362</ele>
        <time>2000-01-01T20:14:49.000Z</time>
      </trkpt>
      <trkpt lat="47.16796" lon="5.97392">
        <ele>363</ele>
        <time>2000-01-01T20:14:59.000Z</time>
      </trkpt>
      <trkpt lat="47.16839" lon="5.97395">
        <ele>366</ele>
        <time>2000-01-01T20:15:09.000Z</time>
      </trkpt>
      <trkpt lat="47.16843" lon="5.97396">
        <ele>367</ele>
        <time>2000-01-01T20:15:19.000Z</time>
      </trkpt>
      <trkpt lat="47.16843" lon="5.97396">
        <ele>367</ele>
        <time>2000-01-01T20:15:29.000Z</time>
      </trkpt>
      <trkpt lat="47.16882" lon="5.97409">
        <ele>369</ele>
        <time>2000-01-01T20:15:39.000Z</time>
      </trkpt>
      <trkpt lat="47.16896" lon="5.97413">
        <ele>369.8</ele>
        <time>2000-01-01T20:15:49.000Z</time>
      </trkpt>
      <trkpt lat="47.1691" lon="5.97421">
        <ele>370</ele>
        <time>2000-01-01T20:15:59.000Z</time>
      </trkpt>
      <trkpt lat="47.16937" lon="5.97442">
        <ele>371</ele>
        <time>2000-01-01T20:16:09.000Z</time>
      </trkpt>
      <trkpt lat="47.16938" lon="5.97443">
        <ele>371.5</ele>
        <time>2000-01-01T20:16:19.000Z</time>
      </trkpt>
      <trkpt lat="47.16946" lon="5.97447">
        <ele>371.9</ele>
        <time>2000-01-01T20:16:29.000Z</time>
      </trkpt>
      <trkpt lat="47.16955" lon="5.9745">
        <ele>372</ele>
        <time>2000-01-01T20:16:39.000Z</time>
      </trkpt>
      <trkpt lat="47.16955" lon="5.9745">
        <ele>372.1</ele>
        <time>2000-01-01T20:16:49.000Z</time>
      </trkpt>
      <trkpt lat="47.16955" lon="5.9745">
        <ele>372.1</ele>
        <time>2000-01-01T20:16:59.000Z</time>
      </trkpt>
      <trkpt lat="47.16965" lon="5.9745">
        <ele>372.5</ele>
        <time>2000-01-01T20:17:09.000Z</time>
      </trkpt>
      <trkpt lat="47.17026" lon="5.97443">
        <ele>376</ele>
        <time>2000-01-01T20:17:19.000Z</time>
      </trkpt>
      <trkpt lat="47.17027" lon="5.97443">
        <ele>377</ele>
        <time>2000-01-01T20:17:29.000Z</time>
      </trkpt>
      <trkpt lat="47.17041" lon="5.97445">
        <ele>378.4</ele>
        <time>2000-01-01T20:17:39.000Z</time>
      </trkpt>
      <trkpt lat="47.17055" lon="5.97446">
        <ele>379</ele>
        <time>2000-01-01T20:17:49.000Z</time>
      </trkpt>
      <trkpt lat="47.17087" lon="5.97454">
        <ele>382</ele>
        <time>2000-01-01T20:17:59.000Z</time>
      </trkpt>
      <trkpt lat="47.17089" lon="5.97454">
        <ele>382.6</ele>
        <time>2000-01-01T20:18:09.000Z</time>
      </trkpt>
      <trkpt lat="47.17116" lon="5.97465">
        <ele>383</ele>
        <time>2000-01-01T20:18:19.000Z</time>
      </trkpt>
      <trkpt lat="47.17134" lon="5.9747">
        <ele>383.1</ele>
        <time>2000-01-01T20:18:29.000Z</time>
      </trkpt>
      <trkpt lat="47.17146" lon="5.97467">
        <ele>384</ele>
        <time>2000-01-01T20:18:39.000Z</time>
      </trkpt>
      <trkpt lat="47.17156" lon="5.97462">
        <ele>384.5</ele>
        <time>2000-01-01T20:18:49.000Z</time>
      </trkpt>
      <trkpt lat="47.17158" lon="5.9746">
        <ele>384.7</ele>
        <time>2000-01-01T20:18:59.000Z</time>
      </trkpt>
      <trkpt lat="47.17177" lon="5.97447">
        <ele>384</ele>
        <time>2000-01-01T20:19:09.000Z</time>
      </trkpt>
      <trkpt lat="47.17197" lon="5.9744">
        <ele>383</ele>
        <time>2000-01-01T20:19:19.000Z</time>
      </trkpt>
      <trkpt lat="47.17211" lon="5.97445">
        <ele>383.8</ele>
        <time>2000-01-01T20:19:29.000Z</time>
      </trkpt>
      <trkpt lat="47.17229" lon="5.97461">
        <ele>383</ele>
        <time>2000-01-01T20:19:39.000Z</time>
      </trkpt>
      <trkpt lat="47.17247" lon="5.97483">
        <ele>383</ele>
        <time>2000-01-01T20:19:49.000Z</time>
      </trkpt>
      <trkpt lat="47.17253" lon="5.97491">
        <ele>382.8</ele>
        <time>2000-01-01T20:19:59.000Z</time>
      </trkpt>
      <trkpt lat="47.17255" lon="5.97494">
        <ele>383</ele>
        <time>2000-01-01T20:20:09.000Z</time>
      </trkpt>
      <trkpt lat="47.17267" lon="5.97513">
        <ele>383</ele>
        <time>2000-01-01T20:20:19.000Z</time>
      </trkpt>
      <trkpt lat="47.17277" lon="5.97526">
        <ele>383.1</ele>
        <time>2000-01-01T20:20:29.000Z</time>
      </trkpt>
      <trkpt lat="47.17289" lon="5.97535">
        <ele>383</ele>
        <time>2000-01-01T20:20:39.000Z</time>
      </trkpt>
      <trkpt lat="47.17298" lon="5.9754">
        <ele>385.5</ele>
        <time>2000-01-01T20:20:49.000Z</time>
      </trkpt>
      <trkpt lat="47.17301" lon="5.9754">
        <ele>385.9</ele>
        <time>2000-01-01T20:20:59.000Z</time>
      </trkpt>
      <trkpt lat="47.17309" lon="5.97541">
        <ele>385</ele>
        <time>2000-01-01T20:21:09.000Z</time>
      </trkpt>
      <trkpt lat="47.1732" lon="5.97545">
        <ele>388.1</ele>
        <time>2000-01-01T20:21:19.000Z</time>
      </trkpt>
      <trkpt lat="47.17325" lon="5.97551">
        <ele>388.4</ele>
        <time>2000-01-01T20:21:29.000Z</time>
      </trkpt>
      <trkpt lat="47.17331" lon="5.97556">
        <ele>389</ele>
        <time>2000-01-01T20:21:39.000Z</time>
      </trkpt>
      <trkpt lat="47.17337" lon="5.97562">
        <ele>388.9</ele>
        <time>2000-01-01T20:21:49.000Z</time>
      </trkpt>
      <trkpt lat="47.17338" lon="5.97563">
        <ele>389</ele>
        <time>2000-01-01T20:21:59.000Z</time>
      </trkpt>
      <trkpt lat="47.17354" lon="5.97572">
        <ele>389</ele>
        <time>2000-01-01T20:22:09.000Z</time>
      </trkpt>
      <trkpt lat="47.17353" lon="5.97542">
        <ele>389</ele>
        <time>2000-01-01T20:22:19.000Z</time>
      </trkpt>
      <trkpt lat="47.17347" lon="5.97497">
        <ele>389</ele>
        <time>2000-01-01T20:22:29.000Z</time>
      </trkpt>
      <trkpt lat="47.17349" lon="5.9746">
        <ele>389</ele>
        <time>2000-01-01T20:22:39.000Z</time>
      </trkpt>
      <trkpt lat="47.17358" lon="5.97433">
        <ele>388</ele>
        <time>2000-01-01T20:22:49.000Z</time>
      </trkpt>
      <trkpt lat="47.1736" lon="5.97429">
        <ele>389</ele>
        <time>2000-01-01T20:22:59.000Z</time>
      </trkpt>
      <trkpt lat="47.17367" lon="5.97417">
        <ele>388.8</ele>
        <time>2000-01-01T20:23:09.000Z</time>
      </trkpt>
      <trkpt lat="47.17382" lon="5.97403">
        <ele>386</ele>
        <time>2000-01-01T20:23:19.000Z</time>
      </trkpt>
      <trkpt lat="47.1739" lon="5.97397">
        <ele>385.9</ele>
        <time>2000-01-01T20:23:29.000Z</time>
      </trkpt>
      <trkpt lat="47.174" lon="5.9739">
        <ele>385</ele>
        <time>2000-01-01T20:23:39.000Z</time>
      </trkpt>
      <trkpt lat="47.17416" lon="5.97376">
        <ele>384</ele>
        <time>2000-01-01T20:23:49.000Z</time>
      </trkpt>
      <trkpt lat="47.17438" lon="5.97366">
        <ele>383</ele>
        <time>2000-01-01T20:23:59.000Z</time>
      </trkpt>
      <trkpt lat="47.17463" lon="5.97355">
        <ele>381</ele>
        <time>2000-01-01T20:24:09.000Z</time>
      </trkpt>
      <trkpt lat="47.17489" lon="5.97342">
        <ele>380</ele>
        <time>2000-01-01T20:24:19.000Z</time>
      </trkpt>
      <trkpt lat="47.17512" lon="5.97332">
        <ele>378</ele>
        <time>2000-01-01T20:24:29.000Z</time>
      </trkpt>
      <trkpt lat="47.17527" lon="5.97322">
        <ele>376.8</ele>
        <time>2000-01-01T20:24:39.000Z</time>
      </trkpt>
      <trkpt lat="47.17529" lon="5.97321">
        <ele>376.6</ele>
        <time>2000-01-01T20:24:49.000Z</time>
      </trkpt>
      <trkpt lat="47.17546" lon="5.97327">
        <ele>376</ele>
        <time>2000-01-01T20:24:59.000Z</time>
      </trkpt>
      <trkpt lat="47.17546" lon="5.97327">
        <ele>376.8</ele>
        <time>2000-01-01T20:25:09.000Z</time>
      </trkpt>
      <trkpt lat="47.17546" lon="5.97327">
        <ele>376.8</ele>
        <time>2000-01-01T20:25:19.000Z</time>
      </trkpt>
      <trkpt lat="47.1756" lon="5.97327">
        <ele>376.4</ele>
        <time>2000-01-01T20:25:29.000Z</time>
      </trkpt>
      <trkpt lat="47.17575" lon="5.97327">
        <ele>376</ele>
        <time>2000-01-01T20:25:39.000Z</time>
      </trkpt>
      <trkpt lat="47.1758" lon="5.97329">
        <ele>375.9</ele>
        <time>2000-01-01T20:25:49.000Z</time>
      </trkpt>
      <trkpt lat="47.17573" lon="5.97351">
        <ele>377</ele>
        <time>2000-01-01T20:25:59.000Z</time>
      </trkpt>
      <trkpt lat="47.17569" lon="5.97366">
        <ele>376.8</ele>
        <time>2000-01-01T20:26:09.000Z</time>
      </trkpt>
      <trkpt lat="47.17561" lon="5.97398">
        <ele>378</ele>
        <time>2000-01-01T20:26:19.000Z</time>
      </trkpt>
      <trkpt lat="47.17552" lon="5.97419">
        <ele>380.4</ele>
        <time>2000-01-01T20:26:29.000Z</time>
      </trkpt>
      <trkpt lat="47.17539" lon="5.97424">
        <ele>381</ele>
        <time>2000-01-01T20:26:39.000Z</time>
      </trkpt>
      <trkpt lat="47.17527" lon="5.97424">
        <ele>382.6</ele>
        <time>2000-01-01T20:26:49.000Z</time>
      </trkpt>
      <trkpt lat="47.17466" lon="5.97415">
        <ele>386</ele>
        <time>2000-01-01T20:26:59.000Z</time>
      </trkpt>
      <trkpt lat="47.17427" lon="5.9741">
        <ele>388</ele>
        <time>2000-01-01T20:27:09.000Z</time>
      </trkpt>
      <trkpt lat="47.17412" lon="5.9741">
        <ele>389.4</ele>
        <time>2000-01-01T20:27:19.000Z</time>
      </trkpt>
      <trkpt lat="47.17405" lon="5.97418">
        <ele>388</ele>
        <time>2000-01-01T20:27:29.000Z</time>
      </trkpt>
      <trkpt lat="47.17403" lon="5.97428">
        <ele>390.7</ele>
        <time>2000-01-01T20:27:39.000Z</time>
      </trkpt>
      <trkpt lat="47.17403" lon="5.97436">
        <ele>391.6</ele>
        <time>2000-01-01T20:27:49.000Z</time>
      </trkpt>
      <trkpt lat="47.17407" lon="5.97443">
        <ele>392</ele>
        <time>2000-01-01T20:27:59.000Z</time>
      </trkpt>
      <trkpt lat="47.17412" lon="5.9745">
        <ele>393.2</ele>
        <time>2000-01-01T20:28:09.000Z</time>
      </trkpt>
      <trkpt lat="47.1742" lon="5.97457">
        <ele>393.7</ele>
        <time>2000-01-01T20:28:19.000Z</time>
      </trkpt>
      <trkpt lat="47.17434" lon="5.97469">
        <ele>393</ele>
        <time>2000-01-01T20:28:29.000Z</time>
      </trkpt>
      <trkpt lat="47.17452" lon="5.97481">
        <ele>393</ele>
        <time>2000-01-01T20:28:39.000Z</time>
      </trkpt>
      <trkpt lat="47.17463" lon="5.97491">
        <ele>393.1</ele>
        <time>2000-01-01T20:28:49.000Z</time>
      </trkpt>
      <trkpt lat="47.17491" lon="5.97517">
        <ele>392</ele>
        <time>2000-01-01T20:28:59.000Z</time>
      </trkpt>
      <trkpt lat="47.17519" lon="5.9754">
        <ele>392</ele>
        <time>2000-01-01T20:29:09.000Z</time>
      </trkpt>
      <trkpt lat="47.17545" lon="5.97549">
        <ele>392</ele>
        <time>2000-01-01T20:29:19.000Z</time>
      </trkpt>
      <trkpt lat="47.17581" lon="5.97563">
        <ele>391</ele>
        <time>2000-01-01T20:29:29.000Z</time>
      </trkpt>
      <trkpt lat="47.17606" lon="5.97554">
        <ele>391</ele>
        <time>2000-01-01T20:29:39.000Z</time>
      </trkpt>
      <trkpt lat="47.1764" lon="5.97543">
        <ele>388</ele>
        <time>2000-01-01T20:29:49.000Z</time>
      </trkpt>
      <trkpt lat="47.17669" lon="5.97537">
        <ele>387</ele>
        <time>2000-01-01T20:29:59.000Z</time>
      </trkpt>
      <trkpt lat="47.1772" lon="5.97527">
        <ele>385</ele>
        <time>2000-01-01T20:30:09.000Z</time>
      </trkpt>
      <trkpt lat="47.17747" lon="5.97508">
        <ele>383</ele>
        <time>2000-01-01T20:30:19.000Z</time>
      </trkpt>
      <trkpt lat="47.17793" lon="5.97475">
        <ele>381</ele>
        <time>2000-01-01T20:30:29.000Z</time>
      </trkpt>
      <trkpt lat="47.17835" lon="5.97477">
        <ele>380</ele>
        <time>2000-01-01T20:30:39.000Z</time>
      </trkpt>
      <trkpt lat="47.17866" lon="5.97485">
        <ele>380</ele>
        <time>2000-01-01T20:30:49.000Z</time>
      </trkpt>
      <trkpt lat="47.17896" lon="5.97492">
        <ele>381</ele>
        <time>2000-01-01T20:30:59.000Z</time>
      </trkpt>
      <trkpt lat="47.17926" lon="5.975">
        <ele>381</ele>
        <time>2000-01-01T20:31:09.000Z</time>
      </trkpt>
      <trkpt lat="47.17967" lon="5.97495">
        <ele>378</ele>
        <time>2000-01-01T20:31:19.000Z</time>
      </trkpt>
      <trkpt lat="47.17993" lon="5.97512">
        <ele>378</ele>
        <time>2000-01-01T20:31:29.000Z</time>
      </trkpt>
      <trkpt lat="47.18037" lon="5.9754">
        <ele>379</ele>
        <time>2000-01-01T20:31:39.000Z</time>
      </trkpt>
      <trkpt lat="47.18063" lon="5.97556">
        <ele>379</ele>
        <time>2000-01-01T20:31:49.000Z</time>
      </trkpt>
      <trkpt lat="47.1811" lon="5.97584">
        <ele>380</ele>
        <time>2000-01-01T20:31:59.000Z</time>
      </trkpt>
      <trkpt lat="47.18137" lon="5.97596">
        <ele>380</ele>
        <time>2000-01-01T20:32:09.000Z</time>
      </trkpt>
      <trkpt lat="47.18181" lon="5.97615">
        <ele>382</ele>
        <time>2000-01-01T20:32:19.000Z</time>
      </trkpt>
      <trkpt lat="47.18209" lon="5.9762">
        <ele>382</ele>
        <time>2000-01-01T20:32:29.000Z</time>
      </trkpt>
      <trkpt lat="47.18256" lon="5.97629">
        <ele>382</ele>
        <time>2000-01-01T20:32:39.000Z</time>
      </trkpt>
      <trkpt lat="47.18283" lon="5.97635">
        <ele>382</ele>
        <time>2000-01-01T20:32:49.000Z</time>
      </trkpt>
      <trkpt lat="47.18322" lon="5.97644">
        <ele>384</ele>
        <time>2000-01-01T20:32:59.000Z</time>
      </trkpt>
      <trkpt lat="47.1832" lon="5.97679">
        <ele>386</ele>
        <time>2000-01-01T20:33:09.000Z</time>
      </trkpt>
      <trkpt lat="47.18317" lon="5.97719">
        <ele>390</ele>
        <time>2000-01-01T20:33:19.000Z</time>
      </trkpt>
      <trkpt lat="47.18304" lon="5.97753">
        <ele>394</ele>
        <time>2000-01-01T20:33:29.000Z</time>
      </trkpt>
      <trkpt lat="47.18284" lon="5.97803">
        <ele>399</ele>
        <time>2000-01-01T20:33:39.000Z</time>
      </trkpt>
      <trkpt lat="47.18262" lon="5.9786">
        <ele>403</ele>
        <time>2000-01-01T20:33:49.000Z</time>
      </trkpt>
      <trkpt lat="47.18247" lon="5.97896">
        <ele>408</ele>
        <time>2000-01-01T20:33:59.000Z</time>
      </trkpt>
      <trkpt lat="47.18223" lon="5.97957">
        <ele>418</ele>
        <time>2000-01-01T20:34:09.000Z</time>
      </trkpt>
      <trkpt lat="47.18179" lon="5.97955">
        <ele>419</ele>
        <time>2000-01-01T20:34:19.000Z</time>
      </trkpt>
      <trkpt lat="47.18151" lon="5.97939">
        <ele>419</ele>
        <time>2000-01-01T20:34:29.000Z</time>
      </trkpt>
      <trkpt lat="47.18102" lon="5.97909">
        <ele>419</ele>
        <time>2000-01-01T20:34:39.000Z</time>
      </trkpt>
      <trkpt lat="47.1808" lon="5.97887">
        <ele>418</ele>
        <time>2000-01-01T20:34:49.000Z</time>
      </trkpt>
      <trkpt lat="47.18049" lon="5.97856">
        <ele>416</ele>
        <time>2000-01-01T20:34:59.000Z</time>
      </trkpt>
      <trkpt lat="47.18017" lon="5.97843">
        <ele>416</ele>
        <time>2000-01-01T20:35:09.000Z</time>
      </trkpt>
      <trkpt lat="47.17985" lon="5.97831">
        <ele>416</ele>
        <time>2000-01-01T20:35:19.000Z</time>
      </trkpt>
      <trkpt lat="47.1793" lon="5.97809">
        <ele>418</ele>
        <time>2000-01-01T20:35:29.000Z</time>
      </trkpt>
      <trkpt lat="47.17901" lon="5.97816">
        <ele>421</ele>
        <time>2000-01-01T20:35:39.000Z</time>
      </trkpt>
      <trkpt lat="47.17853" lon="5.97827">
        <ele>435</ele>
        <time>2000-01-01T20:35:49.000Z</time>
      </trkpt>
      <trkpt lat="47.17869" lon="5.97855">
        <ele>439</ele>
        <time>2000-01-01T20:35:59.000Z</time>
      </trkpt>
      <trkpt lat="47.17899" lon="5.97876">
        <ele>440</ele>
        <time>2000-01-01T20:36:09.000Z</time>
      </trkpt>
      <trkpt lat="47.1793" lon="5.97898">
        <ele>440</ele>
        <time>2000-01-01T20:36:19.000Z</time>
      </trkpt>
      <trkpt lat="47.17954" lon="5.97914">
        <ele>442</ele>
        <time>2000-01-01T20:36:29.000Z</time>
      </trkpt>
      <trkpt lat="47.17985" lon="5.97936">
        <ele>442</ele>
        <time>2000-01-01T20:36:39.000Z</time>
      </trkpt>
      <trkpt lat="47.18015" lon="5.9796">
        <ele>444</ele>
        <time>2000-01-01T20:36:49.000Z</time>
      </trkpt>
      <trkpt lat="47.18045" lon="5.97983">
        <ele>448</ele>
        <time>2000-01-01T20:36:59.000Z</time>
      </trkpt>
      <trkpt lat="47.18069" lon="5.98002">
        <ele>450</ele>
        <time>2000-01-01T20:37:09.000Z</time>
      </trkpt>
      <trkpt lat="47.18105" lon="5.9803">
        <ele>450</ele>
        <time>2000-01-01T20:37:19.000Z</time>
      </trkpt>
      <trkpt lat="47.18134" lon="5.98055">
        <ele>455</ele>
        <time>2000-01-01T20:37:29.000Z</time>
      </trkpt>
      <trkpt lat="47.18164" lon="5.9808">
        <ele>459</ele>
        <time>2000-01-01T20:37:39.000Z</time>
      </trkpt>
      <trkpt lat="47.18187" lon="5.98099">
        <ele>462</ele>
        <time>2000-01-01T20:37:49.000Z</time>
      </trkpt>
      <trkpt lat="47.18219" lon="5.98126">
        <ele>467</ele>
        <time>2000-01-01T20:37:59.000Z</time>
      </trkpt>
      <trkpt lat="47.18261" lon="5.98142">
        <ele>467</ele>
        <time>2000-01-01T20:38:09.000Z</time>
      </trkpt>
      <trkpt lat="47.18289" lon="5.98167">
        <ele>471</ele>
        <time>2000-01-01T20:38:19.000Z</time>
      </trkpt>
      <trkpt lat="47.18301" lon="5.98201">
        <ele>476</ele>
        <time>2000-01-01T20:38:29.000Z</time>
      </trkpt>
      <trkpt lat="47.18337" lon="5.98215">
        <ele>476</ele>
        <time>2000-01-01T20:38:39.000Z</time>
      </trkpt>
      <trkpt lat="47.1836" lon="5.98238">
        <ele>475</ele>
        <time>2000-01-01T20:38:49.000Z</time>
      </trkpt>
      <trkpt lat="47.18386" lon="5.98236">
        <ele>475</ele>
        <time>2000-01-01T20:38:59.000Z</time>
      </trkpt>
      <trkpt lat="47.18409" lon="5.98244">
        <ele>475</ele>
        <time>2000-01-01T20:39:09.000Z</time>
      </trkpt>
      <trkpt lat="47.18432" lon="5.98253">
        <ele>471</ele>
        <time>2000-01-01T20:39:19.000Z</time>
      </trkpt>
      <trkpt lat="47.18462" lon="5.98271">
        <ele>471</ele>
        <time>2000-01-01T20:39:29.000Z</time>
      </trkpt>
      <trkpt lat="47.18446" lon="5.98314">
        <ele>484</ele>
        <time>2000-01-01T20:39:39.000Z</time>
      </trkpt>
      <trkpt lat="47.18455" lon="5.9836">
        <ele>481</ele>
        <time>2000-01-01T20:39:49.000Z</time>
      </trkpt>
      <trkpt lat="47.18467" lon="5.98402">
        <ele>480</ele>
        <time>2000-01-01T20:39:59.000Z</time>
      </trkpt>
      <trkpt lat="47.18492" lon="5.98409">
        <ele>480</ele>
        <time>2000-01-01T20:40:09.000Z</time>
      </trkpt>
      <trkpt lat="47.18522" lon="5.98418">
        <ele>480</ele>
        <time>2000-01-01T20:40:19.000Z</time>
      </trkpt>
      <trkpt lat="47.18534" lon="5.98443">
        <ele>479</ele>
        <time>2000-01-01T20:40:29.000Z</time>
      </trkpt>
      <trkpt lat="47.18575" lon="5.9847">
        <ele>479</ele>
        <time>2000-01-01T20:40:39.000Z</time>
      </trkpt>
      <trkpt lat="47.18593" lon="5.98502">
        <ele>478</ele>
        <time>2000-01-01T20:40:49.000Z</time>
      </trkpt>
      <trkpt lat="47.18622" lon="5.98554">
        <ele>474</ele>
        <time>2000-01-01T20:40:59.000Z</time>
      </trkpt>
      <trkpt lat="47.18648" lon="5.9857">
        <ele>470</ele>
        <time>2000-01-01T20:41:09.000Z</time>
      </trkpt>
      <trkpt lat="47.1867" lon="5.98584">
        <ele>464</ele>
        <time>2000-01-01T20:41:19.000Z</time>
      </trkpt>
      <trkpt lat="47.18693" lon="5.98598">
        <ele>463</ele>
        <time>2000-01-01T20:41:29.000Z</time>
      </trkpt>
      <trkpt lat="47.1872" lon="5.98599">
        <ele>463</ele>
        <time>2000-01-01T20:41:39.000Z</time>
      </trkpt>
      <trkpt lat="47.18758" lon="5.986">
        <ele>462</ele>
        <time>2000-01-01T20:41:49.000Z</time>
      </trkpt>
      <trkpt lat="47.18784" lon="5.98604">
        <ele>462</ele>
        <time>2000-01-01T20:41:59.000Z</time>
      </trkpt>
      <trkpt lat="47.1882" lon="5.98609">
        <ele>462</ele>
        <time>2000-01-01T20:42:09.000Z</time>
      </trkpt>
      <trkpt lat="47.18847" lon="5.98603">
        <ele>461</ele>
        <time>2000-01-01T20:42:19.000Z</time>
      </trkpt>
      <trkpt lat="47.18871" lon="5.98594">
        <ele>461</ele>
        <time>2000-01-01T20:42:29.000Z</time>
      </trkpt>
      <trkpt lat="47.189" lon="5.98583">
        <ele>460</ele>
        <time>2000-01-01T20:42:39.000Z</time>
      </trkpt>
      <trkpt lat="47.18903" lon="5.98582">
        <ele>459.8</ele>
        <time>2000-01-01T20:42:49.000Z</time>
      </trkpt>
      <trkpt lat="47.18953" lon="5.9858">
        <ele>454</ele>
        <time>2000-01-01T20:42:59.000Z</time>
      </trkpt>
      <trkpt lat="47.18979" lon="5.9858">
        <ele>452</ele>
        <time>2000-01-01T20:43:09.000Z</time>
      </trkpt>
      <trkpt lat="47.19005" lon="5.98586">
        <ele>452</ele>
        <time>2000-01-01T20:43:19.000Z</time>
      </trkpt>
      <trkpt lat="47.19039" lon="5.98593">
        <ele>449</ele>
        <time>2000-01-01T20:43:29.000Z</time>
      </trkpt>
      <trkpt lat="47.19063" lon="5.986">
        <ele>447</ele>
        <time>2000-01-01T20:43:39.000Z</time>
      </trkpt>
      <trkpt lat="47.19072" lon="5.98604">
        <ele>446</ele>
        <time>2000-01-01T20:43:49.000Z</time>
      </trkpt>
      <trkpt lat="47.19076" lon="5.98606">
        <ele>445.6</ele>
        <time>2000-01-01T20:43:59.000Z</time>
      </trkpt>
      <trkpt lat="47.1909" lon="5.98608">
        <ele>447</ele>
        <time>2000-01-01T20:44:09.000Z</time>
      </trkpt>
      <trkpt lat="47.19095" lon="5.9863">
        <ele>445.8</ele>
        <time>2000-01-01T20:44:19.000Z</time>
      </trkpt>
      <trkpt lat="47.19099" lon="5.98645">
        <ele>447</ele>
        <time>2000-01-01T20:44:29.000Z</time>
      </trkpt>
      <trkpt lat="47.191" lon="5.98651">
        <ele>447.5</ele>
        <time>2000-01-01T20:44:39.000Z</time>
      </trkpt>
      <trkpt lat="47.19106" lon="5.98657">
        <ele>447.5</ele>
        <time>2000-01-01T20:44:49.000Z</time>
      </trkpt>
      <trkpt lat="47.19111" lon="5.98666">
        <ele>447</ele>
        <time>2000-01-01T20:44:59.000Z</time>
      </trkpt>
      <trkpt lat="47.19114" lon="5.98679">
        <ele>449.1</ele>
        <time>2000-01-01T20:45:09.000Z</time>
      </trkpt>
      <trkpt lat="47.19129" lon="5.98723">
        <ele>452</ele>
        <time>2000-01-01T20:45:19.000Z</time>
      </trkpt>
      <trkpt lat="47.19152" lon="5.98763">
        <ele>456</ele>
        <time>2000-01-01T20:45:29.000Z</time>
      </trkpt>
      <trkpt lat="47.1917" lon="5.98801">
        <ele>460</ele>
        <time>2000-01-01T20:45:39.000Z</time>
      </trkpt>
      <trkpt lat="47.19187" lon="5.98824">
        <ele>462</ele>
        <time>2000-01-01T20:45:49.000Z</time>
      </trkpt>
      <trkpt lat="47.19212" lon="5.98844">
        <ele>464</ele>
        <time>2000-01-01T20:45:59.000Z</time>
      </trkpt>
      <trkpt lat="47.19238" lon="5.98864">
        <ele>466</ele>
        <time>2000-01-01T20:46:09.000Z</time>
      </trkpt>
      <trkpt lat="47.19259" lon="5.98881">
        <ele>469</ele>
        <time>2000-01-01T20:46:19.000Z</time>
      </trkpt>
      <trkpt lat="47.19284" lon="5.989">
        <ele>470</ele>
        <time>2000-01-01T20:46:29.000Z</time>
      </trkpt>
      <trkpt lat="47.19305" lon="5.98914">
        <ele>471</ele>
        <time>2000-01-01T20:46:39.000Z</time>
      </trkpt>
      <trkpt lat="47.19321" lon="5.9893">
        <ele>472</ele>
        <time>2000-01-01T20:46:49.000Z</time>
      </trkpt>
      <trkpt lat="47.1933" lon="5.98938">
        <ele>473.5</ele>
        <time>2000-01-01T20:46:59.000Z</time>
      </trkpt>
      <trkpt lat="47.19346" lon="5.98957">
        <ele>474</ele>
        <time>2000-01-01T20:47:09.000Z</time>
      </trkpt>
      <trkpt lat="47.19355" lon="5.9897">
        <ele>475.1</ele>
        <time>2000-01-01T20:47:19.000Z</time>
      </trkpt>
      <trkpt lat="47.19363" lon="5.98979">
        <ele>474</ele>
        <time>2000-01-01T20:47:29.000Z</time>
      </trkpt>
      <trkpt lat="47.19372" lon="5.98992">
        <ele>474.6</ele>
        <time>2000-01-01T20:47:39.000Z</time>
      </trkpt>
      <trkpt lat="47.19375" lon="5.98996">
        <ele>474.5</ele>
        <time>2000-01-01T20:47:49.000Z</time>
      </trkpt>
      <trkpt lat="47.19384" lon="5.99008">
        <ele>474</ele>
        <time>2000-01-01T20:47:59.000Z</time>
      </trkpt>
      <trkpt lat="47.19384" lon="5.99019">
        <ele>473.1</ele>
        <time>2000-01-01T20:48:09.000Z</time>
      </trkpt>
      <trkpt lat="47.19398" lon="5.99078">
        <ele>474</ele>
        <time>2000-01-01T20:48:19.000Z</time>
      </trkpt>
      <trkpt lat="47.19406" lon="5.9912">
        <ele>475</ele>
        <time>2000-01-01T20:48:29.000Z</time>
      </trkpt>
      <trkpt lat="47.19413" lon="5.99144">
        <ele>478.1</ele>
        <time>2000-01-01T20:48:39.000Z</time>
      </trkpt>
      <trkpt lat="47.19413" lon="5.99144">
        <ele>478.1</ele>
        <time>2000-01-01T20:48:49.000Z</time>
      </trkpt>
      <trkpt lat="47.19419" lon="5.99165">
        <ele>478</ele>
        <time>2000-01-01T20:48:59.000Z</time>
      </trkpt>
      <trkpt lat="47.19429" lon="5.99204">
        <ele>480</ele>
        <time>2000-01-01T20:49:09.000Z</time>
      </trkpt>
      <trkpt lat="47.19436" lon="5.99238">
        <ele>483</ele>
        <time>2000-01-01T20:49:19.000Z</time>
      </trkpt>
      <trkpt lat="47.19443" lon="5.99261">
        <ele>486.3</ele>
        <time>2000-01-01T20:49:29.000Z</time>
      </trkpt>
      <trkpt lat="47.1945" lon="5.99302">
        <ele>488</ele>
        <time>2000-01-01T20:49:39.000Z</time>
      </trkpt>
      <trkpt lat="47.19458" lon="5.99335">
        <ele>492</ele>
        <time>2000-01-01T20:49:49.000Z</time>
      </trkpt>
      <trkpt lat="47.19468" lon="5.9936">
        <ele>495</ele>
        <time>2000-01-01T20:49:59.000Z</time>
      </trkpt>
      <trkpt lat="47.19477" lon="5.99386">
        <ele>497</ele>
        <time>2000-01-01T20:50:09.000Z</time>
      </trkpt>
      <trkpt lat="47.19488" lon="5.99397">
        <ele>497.5</ele>
        <time>2000-01-01T20:50:19.000Z</time>
      </trkpt>
      <trkpt lat="47.19499" lon="5.99411">
        <ele>498</ele>
        <time>2000-01-01T20:50:29.000Z</time>
      </trkpt>
      <trkpt lat="47.19501" lon="5.99413">
        <ele>498.5</ele>
        <time>2000-01-01T20:50:39.000Z</time>
      </trkpt>
      <trkpt lat="47.19509" lon="5.99423">
        <ele>498</ele>
        <time>2000-01-01T20:50:49.000Z</time>
      </trkpt>
      <trkpt lat="47.1952" lon="5.99435">
        <ele>498</ele>
        <time>2000-01-01T20:50:59.000Z</time>
      </trkpt>
      <trkpt lat="47.19535" lon="5.99445">
        <ele>498.4</ele>
        <time>2000-01-01T20:51:09.000Z</time>
      </trkpt>
      <trkpt lat="47.1954" lon="5.9945">
        <ele>498</ele>
        <time>2000-01-01T20:51:19.000Z</time>
      </trkpt>
      <trkpt lat="47.19564" lon="5.9947">
        <ele>496</ele>
        <time>2000-01-01T20:51:29.000Z</time>
      </trkpt>
      <trkpt lat="47.19568" lon="5.99472">
        <ele>498</ele>
        <time>2000-01-01T20:51:39.000Z</time>
      </trkpt>
      <trkpt lat="47.19574" lon="5.99475">
        <ele>497.6</ele>
        <time>2000-01-01T20:51:49.000Z</time>
      </trkpt>
      <trkpt lat="47.19591" lon="5.99479">
        <ele>495</ele>
        <time>2000-01-01T20:51:59.000Z</time>
      </trkpt>
      <trkpt lat="47.19597" lon="5.99483">
        <ele>492.2</ele>
        <time>2000-01-01T20:52:09.000Z</time>
      </trkpt>
      <trkpt lat="47.19604" lon="5.9949">
        <ele>490.4</ele>
        <time>2000-01-01T20:52:19.000Z</time>
      </trkpt>
      <trkpt lat="47.1961" lon="5.99502">
        <ele>494</ele>
        <time>2000-01-01T20:52:29.000Z</time>
      </trkpt>
      <trkpt lat="47.19617" lon="5.99523">
        <ele>489.9</ele>
        <time>2000-01-01T20:52:39.000Z</time>
      </trkpt>
      <trkpt lat="47.19625" lon="5.9954">
        <ele>490</ele>
        <time>2000-01-01T20:52:49.000Z</time>
      </trkpt>
      <trkpt lat="47.19625" lon="5.99563">
        <ele>488.2</ele>
        <time>2000-01-01T20:52:59.000Z</time>
      </trkpt>
      <trkpt lat="47.1963" lon="5.99575">
        <ele>489</ele>
        <time>2000-01-01T20:53:09.000Z</time>
      </trkpt>
      <trkpt lat="47.19641" lon="5.99596">
        <ele>486</ele>
        <time>2000-01-01T20:53:19.000Z</time>
      </trkpt>
      <trkpt lat="47.19651" lon="5.99602">
        <ele>482.5</ele>
        <time>2000-01-01T20:53:29.000Z</time>
      </trkpt>
      <trkpt lat="47.19668" lon="5.99623">
        <ele>480</ele>
        <time>2000-01-01T20:53:39.000Z</time>
      </trkpt>
      <trkpt lat="47.19689" lon="5.99656">
        <ele>475</ele>
        <time>2000-01-01T20:53:49.000Z</time>
      </trkpt>
      <trkpt lat="47.19707" lon="5.99683">
        <ele>473</ele>
        <time>2000-01-01T20:53:59.000Z</time>
      </trkpt>
      <trkpt lat="47.19731" lon="5.99719">
        <ele>472</ele>
        <time>2000-01-01T20:54:09.000Z</time>
      </trkpt>
      <trkpt lat="47.19738" lon="5.99721">
        <ele>472.6</ele>
        <time>2000-01-01T20:54:19.000Z</time>
      </trkpt>
      <trkpt lat="47.19749" lon="5.99748">
        <ele>472</ele>
        <time>2000-01-01T20:54:29.000Z</time>
      </trkpt>
      <trkpt lat="47.19754" lon="5.99756">
        <ele>472.4</ele>
        <time>2000-01-01T20:54:39.000Z</time>
      </trkpt>
      <trkpt lat="47.19783" lon="5.99783">
        <ele>471</ele>
        <time>2000-01-01T20:54:49.000Z</time>
      </trkpt>
      <trkpt lat="47.19793" lon="5.99799">
        <ele>468.6</ele>
        <time>2000-01-01T20:54:59.000Z</time>
      </trkpt>
      <trkpt lat="47.19799" lon="5.9981">
        <ele>465</ele>
        <time>2000-01-01T20:55:09.000Z</time>
      </trkpt>
      <trkpt lat="47.19807" lon="5.99815">
        <ele>466.6</ele>
        <time>2000-01-01T20:55:19.000Z</time>
      </trkpt>
      <trkpt lat="47.19813" lon="5.99823">
        <ele>465.5</ele>
        <time>2000-01-01T20:55:29.000Z</time>
      </trkpt>
      <trkpt lat="47.19817" lon="5.99834">
        <ele>462</ele>
        <time>2000-01-01T20:55:39.000Z</time>
      </trkpt>
      <trkpt lat="47.19819" lon="5.99843">
        <ele>460.8</ele>
        <time>2000-01-01T20:55:49.000Z</time>
      </trkpt>
      <trkpt lat="47.19823" lon="5.99851">
        <ele>459</ele>
        <time>2000-01-01T20:55:59.000Z</time>
      </trkpt>
      <trkpt lat="47.19826" lon="5.99855">
        <ele>458.4</ele>
        <time>2000-01-01T20:56:09.000Z</time>
      </trkpt>
      <trkpt lat="47.19826" lon="5.99855">
        <ele>458.4</ele>
        <time>2000-01-01T20:56:19.000Z</time>
      </trkpt>
      <trkpt lat="47.19835" lon="5.99865">
        <ele>457</ele>
        <time>2000-01-01T20:56:29.000Z</time>
      </trkpt>
      <trkpt lat="47.19837" lon="5.99872">
        <ele>454.8</ele>
        <time>2000-01-01T20:56:39.000Z</time>
      </trkpt>
      <trkpt lat="47.19842" lon="5.9988">
        <ele>452.8</ele>
        <time>2000-01-01T20:56:49.000Z</time>
      </trkpt>
      <trkpt lat="47.19858" lon="5.99895">
        <ele>451</ele>
        <time>2000-01-01T20:56:59.000Z</time>
      </trkpt>
      <trkpt lat="47.19874" lon="5.99906">
        <ele>448.1</ele>
        <time>2000-01-01T20:57:09.000Z</time>
      </trkpt>
      <trkpt lat="47.19869" lon="5.9991">
        <ele>446</ele>
        <time>2000-01-01T20:57:19.000Z</time>
      </trkpt>
      <trkpt lat="47.19857" lon="5.99917">
        <ele>444.3</ele>
        <time>2000-01-01T20:57:29.000Z</time>
      </trkpt>
      <trkpt lat="47.19847" lon="5.99922">
        <ele>441</ele>
        <time>2000-01-01T20:57:39.000Z</time>
      </trkpt>
      <trkpt lat="47.19836" lon="5.99925">
        <ele>439</ele>
        <time>2000-01-01T20:57:49.000Z</time>
      </trkpt>
      <trkpt lat="47.19822" lon="5.99925">
        <ele>437</ele>
        <time>2000-01-01T20:57:59.000Z</time>
      </trkpt>
      <trkpt lat="47.19802" lon="5.99924">
        <ele>433</ele>
        <time>2000-01-01T20:58:09.000Z</time>
      </trkpt>
      <trkpt lat="47.19797" lon="5.99934">
        <ele>429.7</ele>
        <time>2000-01-01T20:58:19.000Z</time>
      </trkpt>
      <trkpt lat="47.1982" lon="5.99994">
        <ele>418</ele>
        <time>2000-01-01T20:58:29.000Z</time>
      </trkpt>
      <trkpt lat="47.19831" lon="6.00025">
        <ele>414</ele>
        <time>2000-01-01T20:58:39.000Z</time>
      </trkpt>
      <trkpt lat="47.19843" lon="6.00054">
        <ele>411</ele>
        <time>2000-01-01T20:58:49.000Z</time>
      </trkpt>
      <trkpt lat="47.19858" lon="6.00082">
        <ele>411</ele>
        <time>2000-01-01T20:58:59.000Z</time>
      </trkpt>
      <trkpt lat="47.19871" lon="6.00101">
        <ele>411.7</ele>
        <time>2000-01-01T20:59:09.000Z</time>
      </trkpt>
      <trkpt lat="47.19872" lon="6.00104">
        <ele>411</ele>
        <time>2000-01-01T20:59:19.000Z</time>
      </trkpt>
      <trkpt lat="47.19874" lon="6.0011">
        <ele>411.4</ele>
        <time>2000-01-01T20:59:29.000Z</time>
      </trkpt>
      <trkpt lat="47.19874" lon="6.00128">
        <ele>408.8</ele>
        <time>2000-01-01T20:59:39.000Z</time>
      </trkpt>
      <trkpt lat="47.19866" lon="6.00131">
        <ele>405</ele>
        <time>2000-01-01T20:59:49.000Z</time>
      </trkpt>
      <trkpt lat="47.19858" lon="6.00138">
        <ele>403.2</ele>
        <time>2000-01-01T20:59:59.000Z</time>
      </trkpt>
      <trkpt lat="47.19851" lon="6.0014">
        <ele>400.9</ele>
        <time>2000-01-01T21:00:09.000Z</time>
      </trkpt>
      <trkpt lat="47.19843" lon="6.00137">
        <ele>399</ele>
        <time>2000-01-01T21:00:19.000Z</time>
      </trkpt>
      <trkpt lat="47.19839" lon="6.00137">
        <ele>398</ele>
        <time>2000-01-01T21:00:29.000Z</time>
      </trkpt>
      <trkpt lat="47.19816" lon="6.00124">
        <ele>393</ele>
        <time>2000-01-01T21:00:39.000Z</time>
      </trkpt>
      <trkpt lat="47.19795" lon="6.00116">
        <ele>390</ele>
        <time>2000-01-01T21:00:49.000Z</time>
      </trkpt>
      <trkpt lat="47.19784" lon="6.00117">
        <ele>388.4</ele>
        <time>2000-01-01T21:00:59.000Z</time>
      </trkpt>
      <trkpt lat="47.19761" lon="6.00127">
        <ele>387</ele>
        <time>2000-01-01T21:01:09.000Z</time>
      </trkpt>
      <trkpt lat="47.19759" lon="6.00129">
        <ele>385.1</ele>
        <time>2000-01-01T21:01:19.000Z</time>
      </trkpt>
      <trkpt lat="47.19757" lon="6.00127">
        <ele>385.2</ele>
        <time>2000-01-01T21:01:29.000Z</time>
      </trkpt>
      <trkpt lat="47.19747" lon="6.00119">
        <ele>385.1</ele>
        <time>2000-01-01T21:01:39.000Z</time>
      </trkpt>
      <trkpt lat="47.19732" lon="6.00108">
        <ele>387</ele>
        <time>2000-01-01T21:01:49.000Z</time>
      </trkpt>
      <trkpt lat="47.1971" lon="6.00095">
        <ele>387</ele>
        <time>2000-01-01T21:01:59.000Z</time>
      </trkpt>
      <trkpt lat="47.19681" lon="6.00083">
        <ele>387</ele>
        <time>2000-01-01T21:02:09.000Z</time>
      </trkpt>
      <trkpt lat="47.1968" lon="6.00082">
        <ele>388</ele>
        <time>2000-01-01T21:02:19.000Z</time>
      </trkpt>
      <trkpt lat="47.19651" lon="6.00075">
        <ele>388</ele>
        <time>2000-01-01T21:02:29.000Z</time>
      </trkpt>
      <trkpt lat="47.19629" lon="6.00073">
        <ele>390</ele>
        <time>2000-01-01T21:02:39.000Z</time>
      </trkpt>
      <trkpt lat="47.19604" lon="6.00068">
        <ele>391</ele>
        <time>2000-01-01T21:02:49.000Z</time>
      </trkpt>
      <trkpt lat="47.19576" lon="6.00056">
        <ele>393</ele>
        <time>2000-01-01T21:02:59.000Z</time>
      </trkpt>
      <trkpt lat="47.1956" lon="6.00044">
        <ele>394.3</ele>
        <time>2000-01-01T21:03:09.000Z</time>
      </trkpt>
      <trkpt lat="47.19547" lon="6.00032">
        <ele>395</ele>
        <time>2000-01-01T21:03:19.000Z</time>
      </trkpt>
      <trkpt lat="47.19537" lon="6.00025">
        <ele>395.3</ele>
        <time>2000-01-01T21:03:29.000Z</time>
      </trkpt>
      <trkpt lat="47.19536" lon="6.00025">
        <ele>395.4</ele>
        <time>2000-01-01T21:03:39.000Z</time>
      </trkpt>
      <trkpt lat="47.19527" lon="6.00021">
        <ele>396</ele>
        <time>2000-01-01T21:03:49.000Z</time>
      </trkpt>
      <trkpt lat="47.19514" lon="6.00017">
        <ele>396.8</ele>
        <time>2000-01-01T21:03:59.000Z</time>
      </trkpt>
      <trkpt lat="47.19489" lon="6.00016">
        <ele>398</ele>
        <time>2000-01-01T21:04:09.000Z</time>
      </trkpt>
      <trkpt lat="47.19462" lon="6.00017">
        <ele>399</ele>
        <time>2000-01-01T21:04:19.000Z</time>
      </trkpt>
      <trkpt lat="47.19438" lon="6.00017">
        <ele>401</ele>
        <time>2000-01-01T21:04:29.000Z</time>
      </trkpt>
      <trkpt lat="47.19411" lon="6.00016">
        <ele>402</ele>
        <time>2000-01-01T21:04:39.000Z</time>
      </trkpt>
      <trkpt lat="47.19379" lon="6.00018">
        <ele>405</ele>
        <time>2000-01-01T21:04:49.000Z</time>
      </trkpt>
      <trkpt lat="47.19347" lon="6.0002">
        <ele>406</ele>
        <time>2000-01-01T21:04:59.000Z</time>
      </trkpt>
      <trkpt lat="47.19304" lon="6.00023">
        <ele>408</ele>
        <time>2000-01-01T21:05:09.000Z</time>
      </trkpt>
      <trkpt lat="47.19305" lon="6.00026">
        <ele>408</ele>
        <time>2000-01-01T21:05:19.000Z</time>
      </trkpt>
      <trkpt lat="47.19305" lon="6.00034">
        <ele>408</ele>
        <time>2000-01-01T21:05:29.000Z</time>
      </trkpt>
      <trkpt lat="47.19307" lon="6.0004">
        <ele>408</ele>
        <time>2000-01-01T21:05:39.000Z</time>
      </trkpt>
      <trkpt lat="47.19313" lon="6.00044">
        <ele>408</ele>
        <time>2000-01-01T21:05:49.000Z</time>
      </trkpt>
      <trkpt lat="47.19325" lon="6.00051">
        <ele>407.9</ele>
        <time>2000-01-01T21:05:59.000Z</time>
      </trkpt>
      <trkpt lat="47.19329" lon="6.00054">
        <ele>408</ele>
        <time>2000-01-01T21:06:09.000Z</time>
      </trkpt>
      <trkpt lat="47.19336" lon="6.00065">
        <ele>408</ele>
        <time>2000-01-01T21:06:19.000Z</time>
      </trkpt>
      <trkpt lat="47.1935" lon="6.00101">
        <ele>410</ele>
        <time>2000-01-01T21:06:29.000Z</time>
      </trkpt>
      <trkpt lat="47.19362" lon="6.00149">
        <ele>412</ele>
        <time>2000-01-01T21:06:39.000Z</time>
      </trkpt>
      <trkpt lat="47.19367" lon="6.00177">
        <ele>413</ele>
        <time>2000-01-01T21:06:49.000Z</time>
      </trkpt>
      <trkpt lat="47.19368" lon="6.00193">
        <ele>415.2</ele>
        <time>2000-01-01T21:06:59.000Z</time>
      </trkpt>
      <trkpt lat="47.19368" lon="6.00194">
        <ele>415.2</ele>
        <time>2000-01-01T21:07:09.000Z</time>
      </trkpt>
      <trkpt lat="47.19367" lon="6.00202">
        <ele>415.6</ele>
        <time>2000-01-01T21:07:19.000Z</time>
      </trkpt>
      <trkpt lat="47.19364" lon="6.00209">
        <ele>416</ele>
        <time>2000-01-01T21:07:29.000Z</time>
      </trkpt>
      <trkpt lat="47.19356" lon="6.00216">
        <ele>417.1</ele>
        <time>2000-01-01T21:07:39.000Z</time>
      </trkpt>
      <trkpt lat="47.19341" lon="6.00219">
        <ele>418</ele>
        <time>2000-01-01T21:07:49.000Z</time>
      </trkpt>
      <trkpt lat="47.19332" lon="6.00224">
        <ele>419.3</ele>
        <time>2000-01-01T21:07:59.000Z</time>
      </trkpt>
      <trkpt lat="47.1933" lon="6.00233">
        <ele>420.3</ele>
        <time>2000-01-01T21:08:09.000Z</time>
      </trkpt>
      <trkpt lat="47.19333" lon="6.00246">
        <ele>421</ele>
        <time>2000-01-01T21:08:19.000Z</time>
      </trkpt>
      <trkpt lat="47.19348" lon="6.00263">
        <ele>422</ele>
        <time>2000-01-01T21:08:29.000Z</time>
      </trkpt>
      <trkpt lat="47.19368" lon="6.00284">
        <ele>424</ele>
        <time>2000-01-01T21:08:39.000Z</time>
      </trkpt>
      <trkpt lat="47.19375" lon="6.00292">
        <ele>424</ele>
        <time>2000-01-01T21:08:49.000Z</time>
      </trkpt>
      <trkpt lat="47.19407" lon="6.00333">
        <ele>427</ele>
        <time>2000-01-01T21:08:59.000Z</time>
      </trkpt>
      <trkpt lat="47.19427" lon="6.00361">
        <ele>429</ele>
        <time>2000-01-01T21:09:09.000Z</time>
      </trkpt>
      <trkpt lat="47.19457" lon="6.00403">
        <ele>433</ele>
        <time>2000-01-01T21:09:19.000Z</time>
      </trkpt>
      <trkpt lat="47.19471" lon="6.00435">
        <ele>435</ele>
        <time>2000-01-01T21:09:29.000Z</time>
      </trkpt>
      <trkpt lat="47.19483" lon="6.00478">
        <ele>437</ele>
        <time>2000-01-01T21:09:39.000Z</time>
      </trkpt>
      <trkpt lat="47.195" lon="6.00524">
        <ele>440</ele>
        <time>2000-01-01T21:09:49.000Z</time>
      </trkpt>
      <trkpt lat="47.19502" lon="6.00534">
        <ele>441.4</ele>
        <time>2000-01-01T21:09:59.000Z</time>
      </trkpt>
      <trkpt lat="47.19502" lon="6.00538">
        <ele>441.7</ele>
        <time>2000-01-01T21:10:09.000Z</time>
      </trkpt>
      <trkpt lat="47.19507" lon="6.00546">
        <ele>442.3</ele>
        <time>2000-01-01T21:10:19.000Z</time>
      </trkpt>
      <trkpt lat="47.19508" lon="6.00552">
        <ele>442</ele>
        <time>2000-01-01T21:10:29.000Z</time>
      </trkpt>
      <trkpt lat="47.19526" lon="6.00586">
        <ele>445</ele>
        <time>2000-01-01T21:10:39.000Z</time>
      </trkpt>
      <trkpt lat="47.1954" lon="6.00614">
        <ele>446</ele>
        <time>2000-01-01T21:10:49.000Z</time>
      </trkpt>
      <trkpt lat="47.19556" lon="6.00645">
        <ele>447</ele>
        <time>2000-01-01T21:10:59.000Z</time>
      </trkpt>
      <trkpt lat="47.19557" lon="6.00646">
        <ele>447.3</ele>
        <time>2000-01-01T21:11:09.000Z</time>
      </trkpt>
      <trkpt lat="47.19556" lon="6.00652">
        <ele>447.9</ele>
        <time>2000-01-01T21:11:19.000Z</time>
      </trkpt>
      <trkpt lat="47.19558" lon="6.00668">
        <ele>448.7</ele>
        <time>2000-01-01T21:11:29.000Z</time>
      </trkpt>
      <trkpt lat="47.1956" lon="6.00681">
        <ele>449</ele>
        <time>2000-01-01T21:11:39.000Z</time>
      </trkpt>
      <trkpt lat="47.19558" lon="6.00692">
        <ele>450.5</ele>
        <time>2000-01-01T21:11:49.000Z</time>
      </trkpt>
      <trkpt lat="47.19546" lon="6.00712">
        <ele>454</ele>
        <time>2000-01-01T21:11:59.000Z</time>
      </trkpt>
      <trkpt lat="47.19512" lon="6.0075">
        <ele>464</ele>
        <time>2000-01-01T21:12:09.000Z</time>
      </trkpt>
      <trkpt lat="47.19499" lon="6.00774">
        <ele>471</ele>
        <time>2000-01-01T21:12:19.000Z</time>
      </trkpt>
      <trkpt lat="47.195" lon="6.0078">
        <ele>471.5</ele>
        <time>2000-01-01T21:12:29.000Z</time>
      </trkpt>
      <trkpt lat="47.19504" lon="6.00801">
        <ele>475</ele>
        <time>2000-01-01T21:12:39.000Z</time>
      </trkpt>
      <trkpt lat="47.19515" lon="6.00831">
        <ele>478</ele>
        <time>2000-01-01T21:12:49.000Z</time>
      </trkpt>
      <trkpt lat="47.19527" lon="6.0086">
        <ele>479</ele>
        <time>2000-01-01T21:12:59.000Z</time>
      </trkpt>
      <trkpt lat="47.1954" lon="6.0089">
        <ele>479</ele>
        <time>2000-01-01T21:13:09.000Z</time>
      </trkpt>
      <trkpt lat="47.19553" lon="6.00917">
        <ele>479</ele>
        <time>2000-01-01T21:13:19.000Z</time>
      </trkpt>
      <trkpt lat="47.19566" lon="6.00943">
        <ele>479</ele>
        <time>2000-01-01T21:13:29.000Z</time>
      </trkpt>
      <trkpt lat="47.19574" lon="6.00959">
        <ele>479</ele>
        <time>2000-01-01T21:13:39.000Z</time>
      </trkpt>
      <trkpt lat="47.19574" lon="6.00964">
        <ele>479.7</ele>
        <time>2000-01-01T21:13:49.000Z</time>
      </trkpt>
      <trkpt lat="47.19574" lon="6.00967">
        <ele>480</ele>
        <time>2000-01-01T21:13:59.000Z</time>
      </trkpt>
      <trkpt lat="47.19571" lon="6.00972">
        <ele>481.6</ele>
        <time>2000-01-01T21:14:09.000Z</time>
      </trkpt>
      <trkpt lat="47.19568" lon="6.00979">
        <ele>482.8</ele>
        <time>2000-01-01T21:14:19.000Z</time>
      </trkpt>
      <trkpt lat="47.19566" lon="6.00997">
        <ele>481</ele>
        <time>2000-01-01T21:14:29.000Z</time>
      </trkpt>
      <trkpt lat="47.19583" lon="6.01018">
        <ele>483</ele>
        <time>2000-01-01T21:14:39.000Z</time>
      </trkpt>
      <trkpt lat="47.19583" lon="6.01019">
        <ele>482.7</ele>
        <time>2000-01-01T21:14:49.000Z</time>
      </trkpt>
      <trkpt lat="47.19599" lon="6.01036">
        <ele>483</ele>
        <time>2000-01-01T21:14:59.000Z</time>
      </trkpt>
      <trkpt lat="47.19614" lon="6.01057">
        <ele>483</ele>
        <time>2000-01-01T21:15:09.000Z</time>
      </trkpt>
      <trkpt lat="47.19624" lon="6.01067">
        <ele>479.5</ele>
        <time>2000-01-01T21:15:19.000Z</time>
      </trkpt>
      <trkpt lat="47.19632" lon="6.01075">
        <ele>479</ele>
        <time>2000-01-01T21:15:29.000Z</time>
      </trkpt>
      <trkpt lat="47.19658" lon="6.01102">
        <ele>476</ele>
        <time>2000-01-01T21:15:39.000Z</time>
      </trkpt>
      <trkpt lat="47.19685" lon="6.01128">
        <ele>475</ele>
        <time>2000-01-01T21:15:49.000Z</time>
      </trkpt>
      <trkpt lat="47.19709" lon="6.01162">
        <ele>474</ele>
        <time>2000-01-01T21:15:59.000Z</time>
      </trkpt>
      <trkpt lat="47.19723" lon="6.01185">
        <ele>474</ele>
        <time>2000-01-01T21:16:09.000Z</time>
      </trkpt>
      <trkpt lat="47.19734" lon="6.0121">
        <ele>475</ele>
        <time>2000-01-01T21:16:19.000Z</time>
      </trkpt>
      <trkpt lat="47.19739" lon="6.01226">
        <ele>476</ele>
        <time>2000-01-01T21:16:29.000Z</time>
      </trkpt>
      <trkpt lat="47.19745" lon="6.01246">
        <ele>475</ele>
        <time>2000-01-01T21:16:39.000Z</time>
      </trkpt>
      <trkpt lat="47.19758" lon="6.01263">
        <ele>474.3</ele>
        <time>2000-01-01T21:16:49.000Z</time>
      </trkpt>
      <trkpt lat="47.19769" lon="6.01284">
        <ele>473</ele>
        <time>2000-01-01T21:16:59.000Z</time>
      </trkpt>
      <trkpt lat="47.19788" lon="6.01318">
        <ele>473</ele>
        <time>2000-01-01T21:17:09.000Z</time>
      </trkpt>
      <trkpt lat="47.19794" lon="6.01337">
        <ele>469.6</ele>
        <time>2000-01-01T21:17:19.000Z</time>
      </trkpt>
      <trkpt lat="47.19811" lon="6.01433">
        <ele>465</ele>
        <time>2000-01-01T21:17:29.000Z</time>
      </trkpt>
      <trkpt lat="47.19819" lon="6.01477">
        <ele>464</ele>
        <time>2000-01-01T21:17:39.000Z</time>
      </trkpt>
      <trkpt lat="47.19821" lon="6.01495">
        <ele>460.3</ele>
        <time>2000-01-01T21:17:49.000Z</time>
      </trkpt>
      <trkpt lat="47.19822" lon="6.01538">
        <ele>460</ele>
        <time>2000-01-01T21:17:59.000Z</time>
      </trkpt>
      <trkpt lat="47.19824" lon="6.0155">
        <ele>458.5</ele>
        <time>2000-01-01T21:18:09.000Z</time>
      </trkpt>
      <trkpt lat="47.19835" lon="6.01577">
        <ele>457</ele>
        <time>2000-01-01T21:18:19.000Z</time>
      </trkpt>
      <trkpt lat="47.19847" lon="6.01602">
        <ele>456</ele>
        <time>2000-01-01T21:18:29.000Z</time>
      </trkpt>
      <trkpt lat="47.19864" lon="6.01637">
        <ele>455</ele>
        <time>2000-01-01T21:18:39.000Z</time>
      </trkpt>
      <trkpt lat="47.19867" lon="6.01645">
        <ele>453.9</ele>
        <time>2000-01-01T21:18:49.000Z</time>
      </trkpt>
      <trkpt lat="47.19885" lon="6.01686">
        <ele>453</ele>
        <time>2000-01-01T21:18:59.000Z</time>
      </trkpt>
      <trkpt lat="47.19902" lon="6.01729">
        <ele>452</ele>
        <time>2000-01-01T21:19:09.000Z</time>
      </trkpt>
      <trkpt lat="47.19919" lon="6.01773">
        <ele>450</ele>
        <time>2000-01-01T21:19:19.000Z</time>
      </trkpt>
      <trkpt lat="47.19933" lon="6.01807">
        <ele>449</ele>
        <time>2000-01-01T21:19:29.000Z</time>
      </trkpt>
      <trkpt lat="47.19952" lon="6.01857">
        <ele>447</ele>
        <time>2000-01-01T21:19:39.000Z</time>
      </trkpt>
      <trkpt lat="47.19956" lon="6.01864">
        <ele>446.5</ele>
        <time>2000-01-01T21:19:49.000Z</time>
      </trkpt>
      <trkpt lat="47.19956" lon="6.01863">
        <ele>446.5</ele>
        <time>2000-01-01T21:19:59.000Z</time>
      </trkpt>
      <trkpt lat="47.19953" lon="6.01859">
        <ele>446.7</ele>
        <time>2000-01-01T21:20:09.000Z</time>
      </trkpt>
      <trkpt lat="47.19952" lon="6.01858">
        <ele>446.7</ele>
        <time>2000-01-01T21:20:19.000Z</time>
      </trkpt>
      <trkpt lat="47.19952" lon="6.01858">
        <ele>446.7</ele>
        <time>2000-01-01T21:20:29.000Z</time>
      </trkpt>
      <trkpt lat="47.19953" lon="6.01859">
        <ele>446.7</ele>
        <time>2000-01-01T21:20:39.000Z</time>
      </trkpt>
      <trkpt lat="47.19956" lon="6.01863">
        <ele>446.5</ele>
        <time>2000-01-01T21:20:49.000Z</time>
      </trkpt>
      <trkpt lat="47.19962" lon="6.01871">
        <ele>446</ele>
        <time>2000-01-01T21:20:59.000Z</time>
      </trkpt>
      <trkpt lat="47.1996" lon="6.01875">
        <ele>446.2</ele>
        <time>2000-01-01T21:21:09.000Z</time>
      </trkpt>
      <trkpt lat="47.19961" lon="6.0188">
        <ele>446.1</ele>
        <time>2000-01-01T21:21:19.000Z</time>
      </trkpt>
      <trkpt lat="47.19962" lon="6.01884">
        <ele>446.1</ele>
        <time>2000-01-01T21:21:29.000Z</time>
      </trkpt>
      <trkpt lat="47.19964" lon="6.01887">
        <ele>446</ele>
        <time>2000-01-01T21:21:39.000Z</time>
      </trkpt>
      <trkpt lat="47.19967" lon="6.01888">
        <ele>446</ele>
        <time>2000-01-01T21:21:49.000Z</time>
      </trkpt>
      <trkpt lat="47.19972" lon="6.01887">
        <ele>446</ele>
        <time>2000-01-01T21:21:59.000Z</time>
      </trkpt>
      <trkpt lat="47.19974" lon="6.01883">
        <ele>445.7</ele>
        <time>2000-01-01T21:22:09.000Z</time>
      </trkpt>
      <trkpt lat="47.19977" lon="6.01888">
        <ele>445.3</ele>
        <time>2000-01-01T21:22:19.000Z</time>
      </trkpt>
      <trkpt lat="47.19978" lon="6.01892">
        <ele>445.2</ele>
        <time>2000-01-01T21:22:29.000Z</time>
      </trkpt>
      <trkpt lat="47.19979" lon="6.01897">
        <ele>445.2</ele>
        <time>2000-01-01T21:22:39.000Z</time>
      </trkpt>
      <trkpt lat="47.19981" lon="6.01901">
        <ele>445.1</ele>
        <time>2000-01-01T21:22:49.000Z</time>
      </trkpt>
      <trkpt lat="47.19981" lon="6.01906">
        <ele>445</ele>
        <time>2000-01-01T21:22:59.000Z</time>
      </trkpt>
      <trkpt lat="47.19981" lon="6.0191">
        <ele>445.5</ele>
        <time>2000-01-01T21:23:09.000Z</time>
      </trkpt>
      <trkpt lat="47.19979" lon="6.01914">
        <ele>445.7</ele>
        <time>2000-01-01T21:23:19.000Z</time>
      </trkpt>
      <trkpt lat="47.19972" lon="6.01918">
        <ele>446</ele>
        <time>2000-01-01T21:23:29.000Z</time>
      </trkpt>
      <trkpt lat="47.19968" lon="6.01921">
        <ele>445.8</ele>
        <time>2000-01-01T21:23:39.000Z</time>
      </trkpt>
      <trkpt lat="47.19965" lon="6.01925">
        <ele>445</ele>
        <time>2000-01-01T21:23:49.000Z</time>
      </trkpt>
      <trkpt lat="47.19963" lon="6.0193">
        <ele>445.7</ele>
        <time>2000-01-01T21:23:59.000Z</time>
      </trkpt>
      <trkpt lat="47.19962" lon="6.01936">
        <ele>445.6</ele>
        <time>2000-01-01T21:24:09.000Z</time>
      </trkpt>
      <trkpt lat="47.19963" lon="6.01941">
        <ele>445.7</ele>
        <time>2000-01-01T21:24:19.000Z</time>
      </trkpt>
      <trkpt lat="47.19966" lon="6.0195">
        <ele>445.6</ele>
        <time>2000-01-01T21:24:29.000Z</time>
      </trkpt>
      <trkpt lat="47.1997" lon="6.01959">
        <ele>445</ele>
        <time>2000-01-01T21:24:39.000Z</time>
      </trkpt>
      <trkpt lat="47.19975" lon="6.01969">
        <ele>445.3</ele>
        <time>2000-01-01T21:24:49.000Z</time>
      </trkpt>
      <trkpt lat="47.19981" lon="6.01981">
        <ele>445</ele>
        <time>2000-01-01T21:24:59.000Z</time>
      </trkpt>
      <trkpt lat="47.1999" lon="6.02001">
        <ele>444.9</ele>
        <time>2000-01-01T21:25:09.000Z</time>
      </trkpt>
      <trkpt lat="47.20001" lon="6.02023">
        <ele>445</ele>
        <time>2000-01-01T21:25:19.000Z</time>
      </trkpt>
      <trkpt lat="47.20011" lon="6.02045">
        <ele>445</ele>
        <time>2000-01-01T21:25:29.000Z</time>
      </trkpt>
      <trkpt lat="47.20019" lon="6.02062">
        <ele>445.3</ele>
        <time>2000-01-01T21:25:39.000Z</time>
      </trkpt>
      <trkpt lat="47.20026" lon="6.02075">
        <ele>445</ele>
        <time>2000-01-01T21:25:49.000Z</time>
      </trkpt>
      <trkpt lat="47.20034" lon="6.02089">
        <ele>445.6</ele>
        <time>2000-01-01T21:25:59.000Z</time>
      </trkpt>
      <trkpt lat="47.20038" lon="6.02102">
        <ele>445</ele>
        <time>2000-01-01T21:26:09.000Z</time>
      </trkpt>
      <trkpt lat="47.20044" lon="6.02115">
        <ele>445.6</ele>
        <time>2000-01-01T21:26:19.000Z</time>
      </trkpt>
      <trkpt lat="47.20053" lon="6.02133">
        <ele>445</ele>
        <time>2000-01-01T21:26:29.000Z</time>
      </trkpt>
      <trkpt lat="47.20057" lon="6.02137">
        <ele>446.3</ele>
        <time>2000-01-01T21:26:39.000Z</time>
      </trkpt>
      <trkpt lat="47.2006" lon="6.0214">
        <ele>446.6</ele>
        <time>2000-01-01T21:26:49.000Z</time>
      </trkpt>
      <trkpt lat="47.20062" lon="6.02142">
        <ele>446.8</ele>
        <time>2000-01-01T21:26:59.000Z</time>
      </trkpt>
      <trkpt lat="47.20062" lon="6.02142">
        <ele>446.8</ele>
        <time>2000-01-01T21:27:09.000Z</time>
      </trkpt>
      <trkpt lat="47.20063" lon="6.02143">
        <ele>446.9</ele>
        <time>2000-01-01T21:27:19.000Z</time>
      </trkpt>
      <trkpt lat="47.20067" lon="6.02151">
        <ele>445</ele>
        <time>2000-01-01T21:27:29.000Z</time>
      </trkpt>
      <trkpt lat="47.20073" lon="6.02162">
        <ele>447.7</ele>
        <time>2000-01-01T21:27:39.000Z</time>
      </trkpt>
      <trkpt lat="47.20082" lon="6.0218">
        <ele>448</ele>
        <time>2000-01-01T21:27:49.000Z</time>
      </trkpt>
      <trkpt lat="47.20084" lon="6.02186">
        <ele>448.4</ele>
        <time>2000-01-01T21:27:59.000Z</time>
      </trkpt>
      <trkpt lat="47.20086" lon="6.02192">
        <ele>448.5</ele>
        <time>2000-01-01T21:28:09.000Z</time>
      </trkpt>
      <trkpt lat="47.20088" lon="6.02198">
        <ele>448.5</ele>
        <time>2000-01-01T21:28:19.000Z</time>
      </trkpt>
      <trkpt lat="47.2012" lon="6.02172">
        <ele>454</ele>
        <time>2000-01-01T21:28:29.000Z</time>
      </trkpt>
      <trkpt lat="47.20133" lon="6.02161">
        <ele>457</ele>
        <time>2000-01-01T21:28:39.000Z</time>
      </trkpt>
      <trkpt lat="47.20155" lon="6.02137">
        <ele>455</ele>
        <time>2000-01-01T21:28:49.000Z</time>
      </trkpt>
      <trkpt lat="47.20164" lon="6.02123">
        <ele>456.6</ele>
        <time>2000-01-01T21:28:59.000Z</time>
      </trkpt>
      <trkpt lat="47.20173" lon="6.02121">
        <ele>454</ele>
        <time>2000-01-01T21:29:09.000Z</time>
      </trkpt>
      <trkpt lat="47.20196" lon="6.02122">
        <ele>453</ele>
        <time>2000-01-01T21:29:19.000Z</time>
      </trkpt>
      <trkpt lat="47.20216" lon="6.02117">
        <ele>443</ele>
        <time>2000-01-01T21:29:29.000Z</time>
      </trkpt>
      <trkpt lat="47.20232" lon="6.02112">
        <ele>438.5</ele>
        <time>2000-01-01T21:29:39.000Z</time>
      </trkpt>
      <trkpt lat="47.20252" lon="6.02128">
        <ele>436</ele>
        <time>2000-01-01T21:29:49.000Z</time>
      </trkpt>
      <trkpt lat="47.20286" lon="6.02149">
        <ele>435</ele>
        <time>2000-01-01T21:29:59.000Z</time>
      </trkpt>
      <trkpt lat="47.20307" lon="6.02161">
        <ele>435</ele>
        <time>2000-01-01T21:30:09.000Z</time>
      </trkpt>
      <trkpt lat="47.20332" lon="6.02175">
        <ele>430</ele>
        <time>2000-01-01T21:30:19.000Z</time>
      </trkpt>
      <trkpt lat="47.20366" lon="6.02194">
        <ele>429</ele>
        <time>2000-01-01T21:30:29.000Z</time>
      </trkpt>
      <trkpt lat="47.20402" lon="6.02209">
        <ele>427</ele>
        <time>2000-01-01T21:30:39.000Z</time>
      </trkpt>
      <trkpt lat="47.20412" lon="6.02223">
        <ele>426.1</ele>
        <time>2000-01-01T21:30:49.000Z</time>
      </trkpt>
      <trkpt lat="47.20434" lon="6.0225">
        <ele>427</ele>
        <time>2000-01-01T21:30:59.000Z</time>
      </trkpt>
      <trkpt lat="47.20455" lon="6.02274">
        <ele>427</ele>
        <time>2000-01-01T21:31:09.000Z</time>
      </trkpt>
      <trkpt lat="47.20485" lon="6.02307">
        <ele>427</ele>
        <time>2000-01-01T21:31:19.000Z</time>
      </trkpt>
      <trkpt lat="47.20519" lon="6.02345">
        <ele>428</ele>
        <time>2000-01-01T21:31:29.000Z</time>
      </trkpt>
      <trkpt lat="47.20532" lon="6.02362">
        <ele>428.5</ele>
        <time>2000-01-01T21:31:39.000Z</time>
      </trkpt>
      <trkpt lat="47.20543" lon="6.02381">
        <ele>429</ele>
        <time>2000-01-01T21:31:49.000Z</time>
      </trkpt>
      <trkpt lat="47.20558" lon="6.02413">
        <ele>430</ele>
        <time>2000-01-01T21:31:59.000Z</time>
      </trkpt>
      <trkpt lat="47.2058" lon="6.02457">
        <ele>432</ele>
        <time>2000-01-01T21:32:09.000Z</time>
      </trkpt>
      <trkpt lat="47.20598" lon="6.0249">
        <ele>433</ele>
        <time>2000-01-01T21:32:19.000Z</time>
      </trkpt>
      <trkpt lat="47.20613" lon="6.02518">
        <ele>433</ele>
        <time>2000-01-01T21:32:29.000Z</time>
      </trkpt>
      <trkpt lat="47.2063" lon="6.0255">
        <ele>433</ele>
        <time>2000-01-01T21:32:39.000Z</time>
      </trkpt>
      <trkpt lat="47.20657" lon="6.02604">
        <ele>436</ele>
        <time>2000-01-01T21:32:49.000Z</time>
      </trkpt>
      <trkpt lat="47.20683" lon="6.02655">
        <ele>437</ele>
        <time>2000-01-01T21:32:59.000Z</time>
      </trkpt>
      <trkpt lat="47.20699" lon="6.02692">
        <ele>437</ele>
        <time>2000-01-01T21:33:09.000Z</time>
      </trkpt>
      <trkpt lat="47.20713" lon="6.02724">
        <ele>437</ele>
        <time>2000-01-01T21:33:19.000Z</time>
      </trkpt>
      <trkpt lat="47.20731" lon="6.02764">
        <ele>437</ele>
        <time>2000-01-01T21:33:29.000Z</time>
      </trkpt>
      <trkpt lat="47.20736" lon="6.02784">
        <ele>437.5</ele>
        <time>2000-01-01T21:33:39.000Z</time>
      </trkpt>
      <trkpt lat="47.2074" lon="6.02809">
        <ele>436</ele>
        <time>2000-01-01T21:33:49.000Z</time>
      </trkpt>
      <trkpt lat="47.20743" lon="6.02847">
        <ele>436</ele>
        <time>2000-01-01T21:33:59.000Z</time>
      </trkpt>
      <trkpt lat="47.2074" lon="6.02873">
        <ele>435.7</ele>
        <time>2000-01-01T21:34:09.000Z</time>
      </trkpt>
      <trkpt lat="47.20714" lon="6.03">
        <ele>436</ele>
        <time>2000-01-01T21:34:19.000Z</time>
      </trkpt>
      <trkpt lat="47.20713" lon="6.03002">
        <ele>434.8</ele>
        <time>2000-01-01T21:34:29.000Z</time>
      </trkpt>
      <trkpt lat="47.20713" lon="6.03002">
        <ele>434.8</ele>
        <time>2000-01-01T21:34:39.000Z</time>
      </trkpt>
      <trkpt lat="47.2071" lon="6.03012">
        <ele>434.3</ele>
        <time>2000-01-01T21:34:49.000Z</time>
      </trkpt>
      <trkpt lat="47.20703" lon="6.03024">
        <ele>436</ele>
        <time>2000-01-01T21:34:59.000Z</time>
      </trkpt>
      <trkpt lat="47.20683" lon="6.03045">
        <ele>436</ele>
        <time>2000-01-01T21:35:09.000Z</time>
      </trkpt>
      <trkpt lat="47.20662" lon="6.03068">
        <ele>437</ele>
        <time>2000-01-01T21:35:19.000Z</time>
      </trkpt>
      <trkpt lat="47.20652" lon="6.03083">
        <ele>436.7</ele>
        <time>2000-01-01T21:35:29.000Z</time>
      </trkpt>
      <trkpt lat="47.20645" lon="6.031">
        <ele>437</ele>
        <time>2000-01-01T21:35:39.000Z</time>
      </trkpt>
      <trkpt lat="47.20631" lon="6.03143">
        <ele>437</ele>
        <time>2000-01-01T21:35:49.000Z</time>
      </trkpt>
      <trkpt lat="47.20616" lon="6.03186">
        <ele>438</ele>
        <time>2000-01-01T21:35:59.000Z</time>
      </trkpt>
      <trkpt lat="47.20606" lon="6.03217">
        <ele>438</ele>
        <time>2000-01-01T21:36:09.000Z</time>
      </trkpt>
      <trkpt lat="47.20596" lon="6.03248">
        <ele>437</ele>
        <time>2000-01-01T21:36:19.000Z</time>
      </trkpt>
      <trkpt lat="47.20593" lon="6.03259">
        <ele>436.6</ele>
        <time>2000-01-01T21:36:29.000Z</time>
      </trkpt>
      <trkpt lat="47.20592" lon="6.03273">
        <ele>436.3</ele>
        <time>2000-01-01T21:36:39.000Z</time>
      </trkpt>
      <trkpt lat="47.20591" lon="6.03299">
        <ele>436</ele>
        <time>2000-01-01T21:36:49.000Z</time>
      </trkpt>
      <trkpt lat="47.20592" lon="6.03337">
        <ele>436</ele>
        <time>2000-01-01T21:36:59.000Z</time>
      </trkpt>
      <trkpt lat="47.20593" lon="6.03389">
        <ele>436</ele>
        <time>2000-01-01T21:37:09.000Z</time>
      </trkpt>
      <trkpt lat="47.20608" lon="6.03402">
        <ele>432.7</ele>
        <time>2000-01-01T21:37:19.000Z</time>
      </trkpt>
      <trkpt lat="47.20623" lon="6.03418">
        <ele>430</ele>
        <time>2000-01-01T21:37:29.000Z</time>
      </trkpt>
      <trkpt lat="47.2064" lon="6.03439">
        <ele>430</ele>
        <time>2000-01-01T21:37:39.000Z</time>
      </trkpt>
      <trkpt lat="47.20661" lon="6.03461">
        <ele>429</ele>
        <time>2000-01-01T21:37:49.000Z</time>
      </trkpt>
      <trkpt lat="47.20686" lon="6.03492">
        <ele>428</ele>
        <time>2000-01-01T21:37:59.000Z</time>
      </trkpt>
      <trkpt lat="47.20713" lon="6.03522">
        <ele>427</ele>
        <time>2000-01-01T21:38:09.000Z</time>
      </trkpt>
      <trkpt lat="47.20725" lon="6.03537">
        <ele>425.5</ele>
        <time>2000-01-01T21:38:19.000Z</time>
      </trkpt>
      <trkpt lat="47.20728" lon="6.0354">
        <ele>427</ele>
        <time>2000-01-01T21:38:29.000Z</time>
      </trkpt>
      <trkpt lat="47.20734" lon="6.03543">
        <ele>424.5</ele>
        <time>2000-01-01T21:38:39.000Z</time>
      </trkpt>
      <trkpt lat="47.20738" lon="6.03542">
        <ele>423.7</ele>
        <time>2000-01-01T21:38:49.000Z</time>
      </trkpt>
      <trkpt lat="47.20742" lon="6.03538">
        <ele>422.5</ele>
        <time>2000-01-01T21:38:59.000Z</time>
      </trkpt>
      <trkpt lat="47.20745" lon="6.03532">
        <ele>421</ele>
        <time>2000-01-01T21:39:09.000Z</time>
      </trkpt>
      <trkpt lat="47.20746" lon="6.03526">
        <ele>420.5</ele>
        <time>2000-01-01T21:39:19.000Z</time>
      </trkpt>
      <trkpt lat="47.20746" lon="6.03521">
        <ele>420</ele>
        <time>2000-01-01T21:39:29.000Z</time>
      </trkpt>
      <trkpt lat="47.20745" lon="6.03514">
        <ele>419.4</ele>
        <time>2000-01-01T21:39:39.000Z</time>
      </trkpt>
      <trkpt lat="47.20742" lon="6.03505">
        <ele>418</ele>
        <time>2000-01-01T21:39:49.000Z</time>
      </trkpt>
      <trkpt lat="47.20734" lon="6.03485">
        <ele>418.6</ele>
        <time>2000-01-01T21:39:59.000Z</time>
      </trkpt>
      <trkpt lat="47.20722" lon="6.03457">
        <ele>418</ele>
        <time>2000-01-01T21:40:09.000Z</time>
      </trkpt>
      <trkpt lat="47.2071" lon="6.03429">
        <ele>417</ele>
        <time>2000-01-01T21:40:19.000Z</time>
      </trkpt>
      <trkpt lat="47.20703" lon="6.03409">
        <ele>417.7</ele>
        <time>2000-01-01T21:40:29.000Z</time>
      </trkpt>
      <trkpt lat="47.20703" lon="6.03404">
        <ele>417</ele>
        <time>2000-01-01T21:40:39.000Z</time>
      </trkpt>
      <trkpt lat="47.20704" lon="6.03394">
        <ele>416.1</ele>
        <time>2000-01-01T21:40:49.000Z</time>
      </trkpt>
      <trkpt lat="47.20707" lon="6.03387">
        <ele>415.1</ele>
        <time>2000-01-01T21:40:59.000Z</time>
      </trkpt>
      <trkpt lat="47.20711" lon="6.03381">
        <ele>414</ele>
        <time>2000-01-01T21:41:09.000Z</time>
      </trkpt>
      <trkpt lat="47.20716" lon="6.03379">
        <ele>412</ele>
        <time>2000-01-01T21:41:19.000Z</time>
      </trkpt>
      <trkpt lat="47.2072" lon="6.03379">
        <ele>412.6</ele>
        <time>2000-01-01T21:41:29.000Z</time>
      </trkpt>
      <trkpt lat="47.20726" lon="6.03382">
        <ele>412</ele>
        <time>2000-01-01T21:41:39.000Z</time>
      </trkpt>
      <trkpt lat="47.20732" lon="6.03387">
        <ele>411.5</ele>
        <time>2000-01-01T21:41:49.000Z</time>
      </trkpt>
      <trkpt lat="47.20739" lon="6.03396">
        <ele>412</ele>
        <time>2000-01-01T21:41:59.000Z</time>
      </trkpt>
      <trkpt lat="47.20753" lon="6.03417">
        <ele>409</ele>
        <time>2000-01-01T21:42:09.000Z</time>
      </trkpt>
      <trkpt lat="47.2077" lon="6.03443">
        <ele>408</ele>
        <time>2000-01-01T21:42:19.000Z</time>
      </trkpt>
      <trkpt lat="47.2079" lon="6.03473">
        <ele>406</ele>
        <time>2000-01-01T21:42:29.000Z</time>
      </trkpt>
      <trkpt lat="47.20807" lon="6.03497">
        <ele>405</ele>
        <time>2000-01-01T21:42:39.000Z</time>
      </trkpt>
      <trkpt lat="47.20821" lon="6.03514">
        <ele>403.7</ele>
        <time>2000-01-01T21:42:49.000Z</time>
      </trkpt>
      <trkpt lat="47.20832" lon="6.03525">
        <ele>402</ele>
        <time>2000-01-01T21:42:59.000Z</time>
      </trkpt>
      <trkpt lat="47.20842" lon="6.03531">
        <ele>402.1</ele>
        <time>2000-01-01T21:43:09.000Z</time>
      </trkpt>
      <trkpt lat="47.20848" lon="6.03534">
        <ele>401.6</ele>
        <time>2000-01-01T21:43:19.000Z</time>
      </trkpt>
      <trkpt lat="47.20856" lon="6.03535">
        <ele>400</ele>
        <time>2000-01-01T21:43:29.000Z</time>
      </trkpt>
      <trkpt lat="47.20861" lon="6.03535">
        <ele>399.8</ele>
        <time>2000-01-01T21:43:39.000Z</time>
      </trkpt>
      <trkpt lat="47.20882" lon="6.03534">
        <ele>397</ele>
        <time>2000-01-01T21:43:49.000Z</time>
      </trkpt>
      <trkpt lat="47.20886" lon="6.03534">
        <ele>397.7</ele>
        <time>2000-01-01T21:43:59.000Z</time>
      </trkpt>
      <trkpt lat="47.20893" lon="6.03531">
        <ele>396.8</ele>
        <time>2000-01-01T21:44:09.000Z</time>
      </trkpt>
      <trkpt lat="47.20899" lon="6.03525">
        <ele>396</ele>
        <time>2000-01-01T21:44:19.000Z</time>
      </trkpt>
      <trkpt lat="47.20904" lon="6.03518">
        <ele>394.5</ele>
        <time>2000-01-01T21:44:29.000Z</time>
      </trkpt>
      <trkpt lat="47.20908" lon="6.03509">
        <ele>393.4</ele>
        <time>2000-01-01T21:44:39.000Z</time>
      </trkpt>
      <trkpt lat="47.2091" lon="6.035">
        <ele>392</ele>
        <time>2000-01-01T21:44:49.000Z</time>
      </trkpt>
      <trkpt lat="47.2091" lon="6.03489">
        <ele>391.3</ele>
        <time>2000-01-01T21:44:59.000Z</time>
      </trkpt>
      <trkpt lat="47.20909" lon="6.03478">
        <ele>390.2</ele>
        <time>2000-01-01T21:45:09.000Z</time>
      </trkpt>
      <trkpt lat="47.20908" lon="6.03467">
        <ele>389</ele>
        <time>2000-01-01T21:45:19.000Z</time>
      </trkpt>
      <trkpt lat="47.20908" lon="6.03456">
        <ele>388.7</ele>
        <time>2000-01-01T21:45:29.000Z</time>
      </trkpt>
      <trkpt lat="47.2091" lon="6.03445">
        <ele>388</ele>
        <time>2000-01-01T21:45:39.000Z</time>
      </trkpt>
      <trkpt lat="47.20912" lon="6.03435">
        <ele>386</ele>
        <time>2000-01-01T21:45:49.000Z</time>
      </trkpt>
      <trkpt lat="47.20916" lon="6.03426">
        <ele>386</ele>
        <time>2000-01-01T21:45:59.000Z</time>
      </trkpt>
      <trkpt lat="47.2092" lon="6.03418">
        <ele>385.3</ele>
        <time>2000-01-01T21:46:09.000Z</time>
      </trkpt>
      <trkpt lat="47.20932" lon="6.03404">
        <ele>382</ele>
        <time>2000-01-01T21:46:19.000Z</time>
      </trkpt>
      <trkpt lat="47.20937" lon="6.03401">
        <ele>382.8</ele>
        <time>2000-01-01T21:46:29.000Z</time>
      </trkpt>
      <trkpt lat="47.20942" lon="6.03399">
        <ele>382.3</ele>
        <time>2000-01-01T21:46:39.000Z</time>
      </trkpt>
      <trkpt lat="47.20947" lon="6.03399">
        <ele>382.4</ele>
        <time>2000-01-01T21:46:49.000Z</time>
      </trkpt>
      <trkpt lat="47.20957" lon="6.03402">
        <ele>383</ele>
        <time>2000-01-01T21:46:59.000Z</time>
      </trkpt>
      <trkpt lat="47.2098" lon="6.03419">
        <ele>382</ele>
        <time>2000-01-01T21:47:09.000Z</time>
      </trkpt>
      <trkpt lat="47.20984" lon="6.03425">
        <ele>382.2</ele>
        <time>2000-01-01T21:47:19.000Z</time>
      </trkpt>
      <trkpt lat="47.20986" lon="6.03426">
        <ele>381.9</ele>
        <time>2000-01-01T21:47:29.000Z</time>
      </trkpt>
      <trkpt lat="47.20986" lon="6.03427">
        <ele>381.8</ele>
        <time>2000-01-01T21:47:39.000Z</time>
      </trkpt>
      <trkpt lat="47.20986" lon="6.03427">
        <ele>381.8</ele>
        <time>2000-01-01T21:47:49.000Z</time>
      </trkpt>
      <trkpt lat="47.2099" lon="6.0344">
        <ele>382</ele>
        <time>2000-01-01T21:47:59.000Z</time>
      </trkpt>
      <trkpt lat="47.20991" lon="6.03451">
        <ele>380.1</ele>
        <time>2000-01-01T21:48:09.000Z</time>
      </trkpt>
      <trkpt lat="47.2099" lon="6.03461">
        <ele>380.1</ele>
        <time>2000-01-01T21:48:19.000Z</time>
      </trkpt>
      <trkpt lat="47.20987" lon="6.03472">
        <ele>382</ele>
        <time>2000-01-01T21:48:29.000Z</time>
      </trkpt>
      <trkpt lat="47.20983" lon="6.03483">
        <ele>382</ele>
        <time>2000-01-01T21:48:39.000Z</time>
      </trkpt>
      <trkpt lat="47.20979" lon="6.03494">
        <ele>383.2</ele>
        <time>2000-01-01T21:48:49.000Z</time>
      </trkpt>
      <trkpt lat="47.20975" lon="6.03505">
        <ele>385</ele>
        <time>2000-01-01T21:48:59.000Z</time>
      </trkpt>
      <trkpt lat="47.2097" lon="6.03517">
        <ele>386</ele>
        <time>2000-01-01T21:49:09.000Z</time>
      </trkpt>
      <trkpt lat="47.20966" lon="6.03528">
        <ele>386.9</ele>
        <time>2000-01-01T21:49:19.000Z</time>
      </trkpt>
      <trkpt lat="47.20962" lon="6.0354">
        <ele>387</ele>
        <time>2000-01-01T21:49:29.000Z</time>
      </trkpt>
      <trkpt lat="47.20959" lon="6.03551">
        <ele>389.2</ele>
        <time>2000-01-01T21:49:39.000Z</time>
      </trkpt>
      <trkpt lat="47.20956" lon="6.03562">
        <ele>389.8</ele>
        <time>2000-01-01T21:49:49.000Z</time>
      </trkpt>
      <trkpt lat="47.20954" lon="6.03574">
        <ele>389</ele>
        <time>2000-01-01T21:49:59.000Z</time>
      </trkpt>
      <trkpt lat="47.20953" lon="6.03586">
        <ele>390.5</ele>
        <time>2000-01-01T21:50:09.000Z</time>
      </trkpt>
      <trkpt lat="47.20952" lon="6.03597">
        <ele>390.8</ele>
        <time>2000-01-01T21:50:19.000Z</time>
      </trkpt>
      <trkpt lat="47.20953" lon="6.03609">
        <ele>389</ele>
        <time>2000-01-01T21:50:29.000Z</time>
      </trkpt>
      <trkpt lat="47.20956" lon="6.03619">
        <ele>390.6</ele>
        <time>2000-01-01T21:50:39.000Z</time>
      </trkpt>
      <trkpt lat="47.20957" lon="6.03624">
        <ele>390.4</ele>
        <time>2000-01-01T21:50:49.000Z</time>
      </trkpt>
      <trkpt lat="47.20958" lon="6.03629">
        <ele>390.2</ele>
        <time>2000-01-01T21:50:59.000Z</time>
      </trkpt>
      <trkpt lat="47.20962" lon="6.03639">
        <ele>389</ele>
        <time>2000-01-01T21:51:09.000Z</time>
      </trkpt>
      <trkpt lat="47.20966" lon="6.03648">
        <ele>388.6</ele>
        <time>2000-01-01T21:51:19.000Z</time>
      </trkpt>
      <trkpt lat="47.2097" lon="6.03657">
        <ele>387.7</ele>
        <time>2000-01-01T21:51:29.000Z</time>
      </trkpt>
      <trkpt lat="47.20975" lon="6.03666">
        <ele>387</ele>
        <time>2000-01-01T21:51:39.000Z</time>
      </trkpt>
      <trkpt lat="47.2098" lon="6.03675">
        <ele>385.7</ele>
        <time>2000-01-01T21:51:49.000Z</time>
      </trkpt>
      <trkpt lat="47.20986" lon="6.03684">
        <ele>385</ele>
        <time>2000-01-01T21:51:59.000Z</time>
      </trkpt>
      <trkpt lat="47.20999" lon="6.03709">
        <ele>384</ele>
        <time>2000-01-01T21:52:09.000Z</time>
      </trkpt>
      <trkpt lat="47.21017" lon="6.03741">
        <ele>383</ele>
        <time>2000-01-01T21:52:19.000Z</time>
      </trkpt>
      <trkpt lat="47.21035" lon="6.03774">
        <ele>382</ele>
        <time>2000-01-01T21:52:29.000Z</time>
      </trkpt>
      <trkpt lat="47.21052" lon="6.03807">
        <ele>380</ele>
        <time>2000-01-01T21:52:39.000Z</time>
      </trkpt>
      <trkpt lat="47.21072" lon="6.03846">
        <ele>378</ele>
        <time>2000-01-01T21:52:49.000Z</time>
      </trkpt>
      <trkpt lat="47.2109" lon="6.03876">
        <ele>375</ele>
        <time>2000-01-01T21:52:59.000Z</time>
      </trkpt>
      <trkpt lat="47.21105" lon="6.03901">
        <ele>372</ele>
        <time>2000-01-01T21:53:09.000Z</time>
      </trkpt>
      <trkpt lat="47.21112" lon="6.03912">
        <ele>372.1</ele>
        <time>2000-01-01T21:53:19.000Z</time>
      </trkpt>
      <trkpt lat="47.2112" lon="6.0392">
        <ele>371</ele>
        <time>2000-01-01T21:53:29.000Z</time>
      </trkpt>
      <trkpt lat="47.21127" lon="6.03925">
        <ele>370.2</ele>
        <time>2000-01-01T21:53:39.000Z</time>
      </trkpt>
      <trkpt lat="47.21133" lon="6.0393">
        <ele>369.5</ele>
        <time>2000-01-01T21:53:49.000Z</time>
      </trkpt>
      <trkpt lat="47.21143" lon="6.03934">
        <ele>369</ele>
        <time>2000-01-01T21:53:59.000Z</time>
      </trkpt>
      <trkpt lat="47.21154" lon="6.03938">
        <ele>369.3</ele>
        <time>2000-01-01T21:54:09.000Z</time>
      </trkpt>
      <trkpt lat="47.21158" lon="6.03939">
        <ele>369.4</ele>
        <time>2000-01-01T21:54:19.000Z</time>
      </trkpt>
      <trkpt lat="47.21169" lon="6.03942">
        <ele>369</ele>
        <time>2000-01-01T21:54:29.000Z</time>
      </trkpt>
      <trkpt lat="47.2118" lon="6.03944">
        <ele>370.4</ele>
        <time>2000-01-01T21:54:39.000Z</time>
      </trkpt>
      <trkpt lat="47.21191" lon="6.03945">
        <ele>370</ele>
        <time>2000-01-01T21:54:49.000Z</time>
      </trkpt>
      <trkpt lat="47.21201" lon="6.03943">
        <ele>371.1</ele>
        <time>2000-01-01T21:54:59.000Z</time>
      </trkpt>
      <trkpt lat="47.21212" lon="6.03941">
        <ele>371</ele>
        <time>2000-01-01T21:55:09.000Z</time>
      </trkpt>
      <trkpt lat="47.21231" lon="6.03936">
        <ele>371</ele>
        <time>2000-01-01T21:55:19.000Z</time>
      </trkpt>
      <trkpt lat="47.21251" lon="6.03931">
        <ele>372</ele>
        <time>2000-01-01T21:55:29.000Z</time>
      </trkpt>
      <trkpt lat="47.21266" lon="6.03928">
        <ele>373.7</ele>
        <time>2000-01-01T21:55:39.000Z</time>
      </trkpt>
      <trkpt lat="47.21277" lon="6.03927">
        <ele>374</ele>
        <time>2000-01-01T21:55:49.000Z</time>
      </trkpt>
      <trkpt lat="47.21294" lon="6.03929">
        <ele>376.6</ele>
        <time>2000-01-01T21:55:59.000Z</time>
      </trkpt>
      <trkpt lat="47.21297" lon="6.0393">
        <ele>376</ele>
        <time>2000-01-01T21:56:09.000Z</time>
      </trkpt>
      <trkpt lat="47.21297" lon="6.03919">
        <ele>377.6</ele>
        <time>2000-01-01T21:56:19.000Z</time>
      </trkpt>
      <trkpt lat="47.21296" lon="6.03916">
        <ele>377.7</ele>
        <time>2000-01-01T21:56:29.000Z</time>
      </trkpt>
      <trkpt lat="47.21296" lon="6.03916">
        <ele>377.7</ele>
        <time>2000-01-01T21:56:39.000Z</time>
      </trkpt>
      <trkpt lat="47.2129" lon="6.03899">
        <ele>376</ele>
        <time>2000-01-01T21:56:49.000Z</time>
      </trkpt>
      <trkpt lat="47.21287" lon="6.03889">
        <ele>378.3</ele>
        <time>2000-01-01T21:56:59.000Z</time>
      </trkpt>
      <trkpt lat="47.21283" lon="6.03878">
        <ele>378.1</ele>
        <time>2000-01-01T21:57:09.000Z</time>
      </trkpt>
      <trkpt lat="47.2128" lon="6.03866">
        <ele>376</ele>
        <time>2000-01-01T21:57:19.000Z</time>
      </trkpt>
      <trkpt lat="47.21278" lon="6.03852">
        <ele>377.7</ele>
        <time>2000-01-01T21:57:29.000Z</time>
      </trkpt>
      <trkpt lat="47.21276" lon="6.03835">
        <ele>375</ele>
        <time>2000-01-01T21:57:39.000Z</time>
      </trkpt>
      <trkpt lat="47.21273" lon="6.03818">
        <ele>375.2</ele>
        <time>2000-01-01T21:57:49.000Z</time>
      </trkpt>
      <trkpt lat="47.21269" lon="6.038">
        <ele>371</ele>
        <time>2000-01-01T21:57:59.000Z</time>
      </trkpt>
      <trkpt lat="47.21264" lon="6.03782">
        <ele>372.2</ele>
        <time>2000-01-01T21:58:09.000Z</time>
      </trkpt>
      <trkpt lat="47.21258" lon="6.03769">
        <ele>370</ele>
        <time>2000-01-01T21:58:19.000Z</time>
      </trkpt>
      <trkpt lat="47.21251" lon="6.03755">
        <ele>371</ele>
        <time>2000-01-01T21:58:29.000Z</time>
      </trkpt>
      <trkpt lat="47.21239" lon="6.03735">
        <ele>368</ele>
        <time>2000-01-01T21:58:39.000Z</time>
      </trkpt>
      <trkpt lat="47.21227" lon="6.03714">
        <ele>368</ele>
        <time>2000-01-01T21:58:49.000Z</time>
      </trkpt>
      <trkpt lat="47.21216" lon="6.03695">
        <ele>369.1</ele>
        <time>2000-01-01T21:58:59.000Z</time>
      </trkpt>
      <trkpt lat="47.21205" lon="6.03678">
        <ele>368</ele>
        <time>2000-01-01T21:59:09.000Z</time>
      </trkpt>
      <trkpt lat="47.21194" lon="6.03663">
        <ele>368.2</ele>
        <time>2000-01-01T21:59:19.000Z</time>
      </trkpt>
      <trkpt lat="47.21182" lon="6.03647">
        <ele>367</ele>
        <time>2000-01-01T21:59:29.000Z</time>
      </trkpt>
      <trkpt lat="47.21175" lon="6.03634">
        <ele>366.9</ele>
        <time>2000-01-01T21:59:39.000Z</time>
      </trkpt>
      <trkpt lat="47.21167" lon="6.03614">
        <ele>366</ele>
        <time>2000-01-01T21:59:49.000Z</time>
      </trkpt>
      <trkpt lat="47.21159" lon="6.0359">
        <ele>366.7</ele>
        <time>2000-01-01T21:59:59.000Z</time>
      </trkpt>
      <trkpt lat="47.21152" lon="6.03563">
        <ele>365</ele>
        <time>2000-01-01T22:00:09.000Z</time>
      </trkpt>
      <trkpt lat="47.21144" lon="6.03525">
        <ele>364</ele>
        <time>2000-01-01T22:00:19.000Z</time>
      </trkpt>
      <trkpt lat="47.21137" lon="6.03492">
        <ele>363</ele>
        <time>2000-01-01T22:00:29.000Z</time>
      </trkpt>
      <trkpt lat="47.21133" lon="6.03464">
        <ele>363</ele>
        <time>2000-01-01T22:00:39.000Z</time>
      </trkpt>
      <trkpt lat="47.21132" lon="6.03456">
        <ele>364.6</ele>
        <time>2000-01-01T22:00:49.000Z</time>
      </trkpt>
      <trkpt lat="47.21126" lon="6.03424">
        <ele>360</ele>
        <time>2000-01-01T22:00:59.000Z</time>
      </trkpt>
      <trkpt lat="47.21123" lon="6.03407">
        <ele>362.5</ele>
        <time>2000-01-01T22:01:09.000Z</time>
      </trkpt>
      <trkpt lat="47.21115" lon="6.03366">
        <ele>359</ele>
        <time>2000-01-01T22:01:19.000Z</time>
      </trkpt>
      <trkpt lat="47.21108" lon="6.03346">
        <ele>360.5</ele>
        <time>2000-01-01T22:01:29.000Z</time>
      </trkpt>
      <trkpt lat="47.21106" lon="6.0334">
        <ele>359</ele>
        <time>2000-01-01T22:01:39.000Z</time>
      </trkpt>
      <trkpt lat="47.21098" lon="6.03326">
        <ele>361.4</ele>
        <time>2000-01-01T22:01:49.000Z</time>
      </trkpt>
      <trkpt lat="47.21097" lon="6.03321">
        <ele>361.7</ele>
        <time>2000-01-01T22:01:59.000Z</time>
      </trkpt>
      <trkpt lat="47.21097" lon="6.03315">
        <ele>361</ele>
        <time>2000-01-01T22:02:09.000Z</time>
      </trkpt>
      <trkpt lat="47.21102" lon="6.03286">
        <ele>362</ele>
        <time>2000-01-01T22:02:19.000Z</time>
      </trkpt>
      <trkpt lat="47.21109" lon="6.03263">
        <ele>363.7</ele>
        <time>2000-01-01T22:02:29.000Z</time>
      </trkpt>
      <trkpt lat="47.21123" lon="6.03226">
        <ele>361</ele>
        <time>2000-01-01T22:02:39.000Z</time>
      </trkpt>
      <trkpt lat="47.2113" lon="6.03204">
        <ele>362.9</ele>
        <time>2000-01-01T22:02:49.000Z</time>
      </trkpt>
      <trkpt lat="47.21132" lon="6.03192">
        <ele>361</ele>
        <time>2000-01-01T22:02:59.000Z</time>
      </trkpt>
      <trkpt lat="47.21138" lon="6.03167">
        <ele>360.1</ele>
        <time>2000-01-01T22:03:09.000Z</time>
      </trkpt>
      <trkpt lat="47.2114" lon="6.03137">
        <ele>357</ele>
        <time>2000-01-01T22:03:19.000Z</time>
      </trkpt>
      <trkpt lat="47.2114" lon="6.03115">
        <ele>357.3</ele>
        <time>2000-01-01T22:03:29.000Z</time>
      </trkpt>
      <trkpt lat="47.21138" lon="6.03058">
        <ele>356</ele>
        <time>2000-01-01T22:03:39.000Z</time>
      </trkpt>
      <trkpt lat="47.21138" lon="6.03022">
        <ele>356</ele>
        <time>2000-01-01T22:03:49.000Z</time>
      </trkpt>
      <trkpt lat="47.21139" lon="6.03009">
        <ele>356.7</ele>
        <time>2000-01-01T22:03:59.000Z</time>
      </trkpt>
      <trkpt lat="47.21141" lon="6.02997">
        <ele>357.2</ele>
        <time>2000-01-01T22:04:09.000Z</time>
      </trkpt>
      <trkpt lat="47.21145" lon="6.02968">
        <ele>357</ele>
        <time>2000-01-01T22:04:19.000Z</time>
      </trkpt>
      <trkpt lat="47.21144" lon="6.02968">
        <ele>357.6</ele>
        <time>2000-01-01T22:04:29.000Z</time>
      </trkpt>
      <trkpt lat="47.21144" lon="6.02958">
        <ele>357.9</ele>
        <time>2000-01-01T22:04:39.000Z</time>
      </trkpt>
      <trkpt lat="47.21139" lon="6.02917">
        <ele>357</ele>
        <time>2000-01-01T22:04:49.000Z</time>
      </trkpt>
      <trkpt lat="47.21139" lon="6.02911">
        <ele>358</ele>
        <time>2000-01-01T22:04:59.000Z</time>
      </trkpt>
      <trkpt lat="47.21138" lon="6.02893">
        <ele>358.1</ele>
        <time>2000-01-01T22:05:09.000Z</time>
      </trkpt>
      <trkpt lat="47.2114" lon="6.02876">
        <ele>357</ele>
        <time>2000-01-01T22:05:19.000Z</time>
      </trkpt>
      <trkpt lat="47.21146" lon="6.02844">
        <ele>356</ele>
        <time>2000-01-01T22:05:29.000Z</time>
      </trkpt>
      <trkpt lat="47.21148" lon="6.02816">
        <ele>356</ele>
        <time>2000-01-01T22:05:39.000Z</time>
      </trkpt>
      <trkpt lat="47.21148" lon="6.02812">
        <ele>357.3</ele>
        <time>2000-01-01T22:05:49.000Z</time>
      </trkpt>
      <trkpt lat="47.21148" lon="6.02806">
        <ele>357.3</ele>
        <time>2000-01-01T22:05:59.000Z</time>
      </trkpt>
      <trkpt lat="47.21147" lon="6.02801">
        <ele>357.3</ele>
        <time>2000-01-01T22:06:09.000Z</time>
      </trkpt>
      <trkpt lat="47.21147" lon="6.02791">
        <ele>357.3</ele>
        <time>2000-01-01T22:06:19.000Z</time>
      </trkpt>
      <trkpt lat="47.21143" lon="6.02769">
        <ele>356</ele>
        <time>2000-01-01T22:06:29.000Z</time>
      </trkpt>
      <trkpt lat="47.21137" lon="6.02743">
        <ele>356</ele>
        <time>2000-01-01T22:06:39.000Z</time>
      </trkpt>
      <trkpt lat="47.21129" lon="6.02709">
        <ele>356</ele>
        <time>2000-01-01T22:06:49.000Z</time>
      </trkpt>
      <trkpt lat="47.21121" lon="6.02671">
        <ele>354</ele>
        <time>2000-01-01T22:06:59.000Z</time>
      </trkpt>
      <trkpt lat="47.21109" lon="6.02613">
        <ele>348</ele>
        <time>2000-01-01T22:07:09.000Z</time>
      </trkpt>
      <trkpt lat="47.21107" lon="6.02602">
        <ele>348.4</ele>
        <time>2000-01-01T22:07:19.000Z</time>
      </trkpt>
      <trkpt lat="47.21101" lon="6.02584">
        <ele>346</ele>
        <time>2000-01-01T22:07:29.000Z</time>
      </trkpt>
      <trkpt lat="47.21083" lon="6.02539">
        <ele>344</ele>
        <time>2000-01-01T22:07:39.000Z</time>
      </trkpt>
      <trkpt lat="47.21076" lon="6.02522">
        <ele>345.1</ele>
        <time>2000-01-01T22:07:49.000Z</time>
      </trkpt>
      <trkpt lat="47.21069" lon="6.02503">
        <ele>342</ele>
        <time>2000-01-01T22:07:59.000Z</time>
      </trkpt>
      <trkpt lat="47.21056" lon="6.02486">
        <ele>342.6</ele>
        <time>2000-01-01T22:08:09.000Z</time>
      </trkpt>
      <trkpt lat="47.21051" lon="6.02478">
        <ele>342</ele>
        <time>2000-01-01T22:08:19.000Z</time>
      </trkpt>
      <trkpt lat="47.2103" lon="6.02442">
        <ele>341</ele>
        <time>2000-01-01T22:08:29.000Z</time>
      </trkpt>
      <trkpt lat="47.21029" lon="6.0244">
        <ele>343.7</ele>
        <time>2000-01-01T22:08:39.000Z</time>
      </trkpt>
      <trkpt lat="47.21027" lon="6.02434">
        <ele>343.4</ele>
        <time>2000-01-01T22:08:49.000Z</time>
      </trkpt>
      <trkpt lat="47.21022" lon="6.02407">
        <ele>341</ele>
        <time>2000-01-01T22:08:59.000Z</time>
      </trkpt>
      <trkpt lat="47.21017" lon="6.02394">
        <ele>341.7</ele>
        <time>2000-01-01T22:09:09.000Z</time>
      </trkpt>
      <trkpt lat="47.21009" lon="6.02381">
        <ele>341</ele>
        <time>2000-01-01T22:09:19.000Z</time>
      </trkpt>
      <trkpt lat="47.20992" lon="6.02365">
        <ele>341</ele>
        <time>2000-01-01T22:09:29.000Z</time>
      </trkpt>
      <trkpt lat="47.20992" lon="6.02364">
        <ele>341.8</ele>
        <time>2000-01-01T22:09:39.000Z</time>
      </trkpt>
      <trkpt lat="47.20984" lon="6.02353">
        <ele>342.3</ele>
        <time>2000-01-01T22:09:49.000Z</time>
      </trkpt>
      <trkpt lat="47.20965" lon="6.02316">
        <ele>341</ele>
        <time>2000-01-01T22:09:59.000Z</time>
      </trkpt>
      <trkpt lat="47.20955" lon="6.02291">
        <ele>341</ele>
        <time>2000-01-01T22:10:09.000Z</time>
      </trkpt>
      <trkpt lat="47.2094" lon="6.02258">
        <ele>341</ele>
        <time>2000-01-01T22:10:19.000Z</time>
      </trkpt>
      <trkpt lat="47.20924" lon="6.02226">
        <ele>339</ele>
        <time>2000-01-01T22:10:29.000Z</time>
      </trkpt>
      <trkpt lat="47.20899" lon="6.02178">
        <ele>339</ele>
        <time>2000-01-01T22:10:39.000Z</time>
      </trkpt>
      <trkpt lat="47.20896" lon="6.02171">
        <ele>338.9</ele>
        <time>2000-01-01T22:10:49.000Z</time>
      </trkpt>
      <trkpt lat="47.20887" lon="6.02151">
        <ele>338</ele>
        <time>2000-01-01T22:10:59.000Z</time>
      </trkpt>
      <trkpt lat="47.20879" lon="6.02138">
        <ele>335.3</ele>
        <time>2000-01-01T22:11:09.000Z</time>
      </trkpt>
      <trkpt lat="47.20872" lon="6.02131">
        <ele>335</ele>
        <time>2000-01-01T22:11:19.000Z</time>
      </trkpt>
      <trkpt lat="47.20854" lon="6.02111">
        <ele>331</ele>
        <time>2000-01-01T22:11:29.000Z</time>
      </trkpt>
      <trkpt lat="47.20828" lon="6.02091">
        <ele>328</ele>
        <time>2000-01-01T22:11:39.000Z</time>
      </trkpt>
      <trkpt lat="47.20819" lon="6.02085">
        <ele>328.7</ele>
        <time>2000-01-01T22:11:49.000Z</time>
      </trkpt>
      <trkpt lat="47.20816" lon="6.0208">
        <ele>328.5</ele>
        <time>2000-01-01T22:11:59.000Z</time>
      </trkpt>
      <trkpt lat="47.20815" lon="6.02078">
        <ele>328.5</ele>
        <time>2000-01-01T22:12:09.000Z</time>
      </trkpt>
      <trkpt lat="47.20811" lon="6.02071">
        <ele>327</ele>
        <time>2000-01-01T22:12:19.000Z</time>
      </trkpt>
      <trkpt lat="47.20806" lon="6.02066">
        <ele>328.4</ele>
        <time>2000-01-01T22:12:29.000Z</time>
      </trkpt>
      <trkpt lat="47.20803" lon="6.0206">
        <ele>328.1</ele>
        <time>2000-01-01T22:12:39.000Z</time>
      </trkpt>
      <trkpt lat="47.20787" lon="6.02037">
        <ele>327</ele>
        <time>2000-01-01T22:12:49.000Z</time>
      </trkpt>
      <trkpt lat="47.20785" lon="6.02035">
        <ele>327.5</ele>
        <time>2000-01-01T22:12:59.000Z</time>
      </trkpt>
      <trkpt lat="47.20759" lon="6.01992">
        <ele>324</ele>
        <time>2000-01-01T22:13:09.000Z</time>
      </trkpt>
      <trkpt lat="47.20741" lon="6.01971">
        <ele>323</ele>
        <time>2000-01-01T22:13:19.000Z</time>
      </trkpt>
      <trkpt lat="47.20741" lon="6.01971">
        <ele>324.1</ele>
        <time>2000-01-01T22:13:29.000Z</time>
      </trkpt>
      <trkpt lat="47.20741" lon="6.01971">
        <ele>324.1</ele>
        <time>2000-01-01T22:13:39.000Z</time>
      </trkpt>
      <trkpt lat="47.20736" lon="6.01967">
        <ele>323.6</ele>
        <time>2000-01-01T22:13:49.000Z</time>
      </trkpt>
      <trkpt lat="47.2073" lon="6.01965">
        <ele>322.8</ele>
        <time>2000-01-01T22:13:59.000Z</time>
      </trkpt>
      <trkpt lat="47.20726" lon="6.0196">
        <ele>322.1</ele>
        <time>2000-01-01T22:14:09.000Z</time>
      </trkpt>
      <trkpt lat="47.20723" lon="6.01951">
        <ele>321</ele>
        <time>2000-01-01T22:14:19.000Z</time>
      </trkpt>
      <trkpt lat="47.20718" lon="6.01935">
        <ele>321.2</ele>
        <time>2000-01-01T22:14:29.000Z</time>
      </trkpt>
      <trkpt lat="47.20712" lon="6.01915">
        <ele>320</ele>
        <time>2000-01-01T22:14:39.000Z</time>
      </trkpt>
      <trkpt lat="47.20708" lon="6.01897">
        <ele>320.6</ele>
        <time>2000-01-01T22:14:49.000Z</time>
      </trkpt>
      <trkpt lat="47.20706" lon="6.01882">
        <ele>319</ele>
        <time>2000-01-01T22:14:59.000Z</time>
      </trkpt>
      <trkpt lat="47.20705" lon="6.01846">
        <ele>319</ele>
        <time>2000-01-01T22:15:09.000Z</time>
      </trkpt>
      <trkpt lat="47.20705" lon="6.01808">
        <ele>319</ele>
        <time>2000-01-01T22:15:19.000Z</time>
      </trkpt>
      <trkpt lat="47.20702" lon="6.0178">
        <ele>319</ele>
        <time>2000-01-01T22:15:29.000Z</time>
      </trkpt>
      <trkpt lat="47.20687" lon="6.01724">
        <ele>318</ele>
        <time>2000-01-01T22:15:39.000Z</time>
      </trkpt>
      <trkpt lat="47.20686" lon="6.01722">
        <ele>319.7</ele>
        <time>2000-01-01T22:15:49.000Z</time>
      </trkpt>
      <trkpt lat="47.20683" lon="6.0171">
        <ele>319.4</ele>
        <time>2000-01-01T22:15:59.000Z</time>
      </trkpt>
      <trkpt lat="47.20676" lon="6.01675">
        <ele>317</ele>
        <time>2000-01-01T22:16:09.000Z</time>
      </trkpt>
      <trkpt lat="47.20665" lon="6.01641">
        <ele>316</ele>
        <time>2000-01-01T22:16:19.000Z</time>
      </trkpt>
      <trkpt lat="47.20651" lon="6.01605">
        <ele>314</ele>
        <time>2000-01-01T22:16:29.000Z</time>
      </trkpt>
      <trkpt lat="47.20632" lon="6.0156">
        <ele>312</ele>
        <time>2000-01-01T22:16:39.000Z</time>
      </trkpt>
      <trkpt lat="47.20623" lon="6.01528">
        <ele>311</ele>
        <time>2000-01-01T22:16:49.000Z</time>
      </trkpt>
      <trkpt lat="47.20613" lon="6.01494">
        <ele>311</ele>
        <time>2000-01-01T22:16:59.000Z</time>
      </trkpt>
      <trkpt lat="47.20621" lon="6.01495">
        <ele>311.2</ele>
        <time>2000-01-01T22:17:09.000Z</time>
      </trkpt>
      <trkpt lat="47.20635" lon="6.01501">
        <ele>311</ele>
        <time>2000-01-01T22:17:19.000Z</time>
      </trkpt>
      <trkpt lat="47.20661" lon="6.01523">
        <ele>315</ele>
        <time>2000-01-01T22:17:29.000Z</time>
      </trkpt>
      <trkpt lat="47.2068" lon="6.01554">
        <ele>316</ele>
        <time>2000-01-01T22:17:39.000Z</time>
      </trkpt>
      <trkpt lat="47.20695" lon="6.01582">
        <ele>321</ele>
        <time>2000-01-01T22:17:49.000Z</time>
      </trkpt>
      <trkpt lat="47.20705" lon="6.01602">
        <ele>325.1</ele>
        <time>2000-01-01T22:17:59.000Z</time>
      </trkpt>
      <trkpt lat="47.20713" lon="6.0162">
        <ele>326</ele>
        <time>2000-01-01T22:18:09.000Z</time>
      </trkpt>
      <trkpt lat="47.20719" lon="6.01643">
        <ele>327.8</ele>
        <time>2000-01-01T22:18:19.000Z</time>
      </trkpt>
      <trkpt lat="47.20719" lon="6.01643">
        <ele>327.8</ele>
        <time>2000-01-01T22:18:29.000Z</time>
      </trkpt>
      <trkpt lat="47.2072" lon="6.01646">
        <ele>327</ele>
        <time>2000-01-01T22:18:39.000Z</time>
      </trkpt>
      <trkpt lat="47.20725" lon="6.01664">
        <ele>328.2</ele>
        <time>2000-01-01T22:18:49.000Z</time>
      </trkpt>
      <trkpt lat="47.20734" lon="6.0169">
        <ele>328</ele>
        <time>2000-01-01T22:18:59.000Z</time>
      </trkpt>
      <trkpt lat="47.20736" lon="6.01695">
        <ele>330.9</ele>
        <time>2000-01-01T22:19:09.000Z</time>
      </trkpt>
      <trkpt lat="47.20758" lon="6.01752">
        <ele>332</ele>
        <time>2000-01-01T22:19:19.000Z</time>
      </trkpt>
      <trkpt lat="47.20766" lon="6.01773">
        <ele>336.5</ele>
        <time>2000-01-01T22:19:29.000Z</time>
      </trkpt>
      <trkpt lat="47.20777" lon="6.01793">
        <ele>336</ele>
        <time>2000-01-01T22:19:39.000Z</time>
      </trkpt>
      <trkpt lat="47.20777" lon="6.01794">
        <ele>338.6</ele>
        <time>2000-01-01T22:19:49.000Z</time>
      </trkpt>
      <trkpt lat="47.2079" lon="6.01819">
        <ele>338</ele>
        <time>2000-01-01T22:19:59.000Z</time>
      </trkpt>
      <trkpt lat="47.20792" lon="6.01824">
        <ele>340.6</ele>
        <time>2000-01-01T22:20:09.000Z</time>
      </trkpt>
      <trkpt lat="47.20798" lon="6.01853">
        <ele>339</ele>
        <time>2000-01-01T22:20:19.000Z</time>
      </trkpt>
      <trkpt lat="47.20803" lon="6.01887">
        <ele>342</ele>
        <time>2000-01-01T22:20:29.000Z</time>
      </trkpt>
      <trkpt lat="47.20807" lon="6.01893">
        <ele>343.4</ele>
        <time>2000-01-01T22:20:39.000Z</time>
      </trkpt>
      <trkpt lat="47.20818" lon="6.01893">
        <ele>346.6</ele>
        <time>2000-01-01T22:20:49.000Z</time>
      </trkpt>
      <trkpt lat="47.20819" lon="6.01891">
        <ele>344</ele>
        <time>2000-01-01T22:20:59.000Z</time>
      </trkpt>
      <trkpt lat="47.20822" lon="6.01884">
        <ele>347.6</ele>
        <time>2000-01-01T22:21:09.000Z</time>
      </trkpt>
      <trkpt lat="47.20823" lon="6.01883">
        <ele>347.9</ele>
        <time>2000-01-01T22:21:19.000Z</time>
      </trkpt>
      <trkpt lat="47.20829" lon="6.01868">
        <ele>349.1</ele>
        <time>2000-01-01T22:21:29.000Z</time>
      </trkpt>
      <trkpt lat="47.20829" lon="6.01864">
        <ele>346</ele>
        <time>2000-01-01T22:21:39.000Z</time>
      </trkpt>
      <trkpt lat="47.20834" lon="6.01837">
        <ele>349</ele>
        <time>2000-01-01T22:21:49.000Z</time>
      </trkpt>
      <trkpt lat="47.20839" lon="6.01807">
        <ele>349</ele>
        <time>2000-01-01T22:21:59.000Z</time>
      </trkpt>
      <trkpt lat="47.2084" lon="6.01798">
        <ele>352</ele>
        <time>2000-01-01T22:22:09.000Z</time>
      </trkpt>
      <trkpt lat="47.20842" lon="6.01782">
        <ele>353.6</ele>
        <time>2000-01-01T22:22:19.000Z</time>
      </trkpt>
      <trkpt lat="47.20842" lon="6.01781">
        <ele>352</ele>
        <time>2000-01-01T22:22:29.000Z</time>
      </trkpt>
      <trkpt lat="47.20841" lon="6.01765">
        <ele>355</ele>
        <time>2000-01-01T22:22:39.000Z</time>
      </trkpt>
      <trkpt lat="47.20839" lon="6.01757">
        <ele>355.5</ele>
        <time>2000-01-01T22:22:49.000Z</time>
      </trkpt>
      <trkpt lat="47.20834" lon="6.01745">
        <ele>356</ele>
        <time>2000-01-01T22:22:59.000Z</time>
      </trkpt>
      <trkpt lat="47.20825" lon="6.01728">
        <ele>357.8</ele>
        <time>2000-01-01T22:23:09.000Z</time>
      </trkpt>
      <trkpt lat="47.2082" lon="6.01718">
        <ele>357</ele>
        <time>2000-01-01T22:23:19.000Z</time>
      </trkpt>
      <trkpt lat="47.20814" lon="6.01701">
        <ele>359.3</ele>
        <time>2000-01-01T22:23:29.000Z</time>
      </trkpt>
      <trkpt lat="47.20809" lon="6.01667">
        <ele>358</ele>
        <time>2000-01-01T22:23:39.000Z</time>
      </trkpt>
      <trkpt lat="47.20809" lon="6.01667">
        <ele>361.6</ele>
        <time>2000-01-01T22:23:49.000Z</time>
      </trkpt>
      <trkpt lat="47.20807" lon="6.0164">
        <ele>360</ele>
        <time>2000-01-01T22:23:59.000Z</time>
      </trkpt>
      <trkpt lat="47.20808" lon="6.0162">
        <ele>364.6</ele>
        <time>2000-01-01T22:24:09.000Z</time>
      </trkpt>
      <trkpt lat="47.20809" lon="6.01594">
        <ele>363</ele>
        <time>2000-01-01T22:24:19.000Z</time>
      </trkpt>
      <trkpt lat="47.2081" lon="6.01572">
        <ele>368.6</ele>
        <time>2000-01-01T22:24:29.000Z</time>
      </trkpt>
      <trkpt lat="47.20813" lon="6.01548">
        <ele>370</ele>
        <time>2000-01-01T22:24:39.000Z</time>
      </trkpt>
      <trkpt lat="47.20815" lon="6.0153">
        <ele>372</ele>
        <time>2000-01-01T22:24:49.000Z</time>
      </trkpt>
      <trkpt lat="47.20816" lon="6.01524">
        <ele>372.3</ele>
        <time>2000-01-01T22:24:59.000Z</time>
      </trkpt>
      <trkpt lat="47.2082" lon="6.01487">
        <ele>373</ele>
        <time>2000-01-01T22:25:09.000Z</time>
      </trkpt>
      <trkpt lat="47.20821" lon="6.01475">
        <ele>374.5</ele>
        <time>2000-01-01T22:25:19.000Z</time>
      </trkpt>
      <trkpt lat="47.2082" lon="6.01464">
        <ele>375.4</ele>
        <time>2000-01-01T22:25:29.000Z</time>
      </trkpt>
      <trkpt lat="47.2082" lon="6.01463">
        <ele>375.5</ele>
        <time>2000-01-01T22:25:39.000Z</time>
      </trkpt>
      <trkpt lat="47.20816" lon="6.01444">
        <ele>375</ele>
        <time>2000-01-01T22:25:49.000Z</time>
      </trkpt>
      <trkpt lat="47.20813" lon="6.01433">
        <ele>378.6</ele>
        <time>2000-01-01T22:25:59.000Z</time>
      </trkpt>
      <trkpt lat="47.20803" lon="6.01415">
        <ele>380</ele>
        <time>2000-01-01T22:26:09.000Z</time>
      </trkpt>
      <trkpt lat="47.20783" lon="6.0139">
        <ele>384</ele>
        <time>2000-01-01T22:26:19.000Z</time>
      </trkpt>
      <trkpt lat="47.20772" lon="6.01363">
        <ele>384</ele>
        <time>2000-01-01T22:26:29.000Z</time>
      </trkpt>
      <trkpt lat="47.20768" lon="6.01349">
        <ele>385.1</ele>
        <time>2000-01-01T22:26:39.000Z</time>
      </trkpt>
      <trkpt lat="47.20766" lon="6.01341">
        <ele>385.8</ele>
        <time>2000-01-01T22:26:49.000Z</time>
      </trkpt>
      <trkpt lat="47.20749" lon="6.01293">
        <ele>387</ele>
        <time>2000-01-01T22:26:59.000Z</time>
      </trkpt>
      <trkpt lat="47.20743" lon="6.01273">
        <ele>390</ele>
        <time>2000-01-01T22:27:09.000Z</time>
      </trkpt>
      <trkpt lat="47.20741" lon="6.01248">
        <ele>393</ele>
        <time>2000-01-01T22:27:19.000Z</time>
      </trkpt>
      <trkpt lat="47.20742" lon="6.0123">
        <ele>393.9</ele>
        <time>2000-01-01T22:27:29.000Z</time>
      </trkpt>
      <trkpt lat="47.20744" lon="6.01227">
        <ele>395</ele>
        <time>2000-01-01T22:27:39.000Z</time>
      </trkpt>
      <trkpt lat="47.20748" lon="6.01218">
        <ele>394</ele>
        <time>2000-01-01T22:27:49.000Z</time>
      </trkpt>
      <trkpt lat="47.20755" lon="6.012">
        <ele>397.5</ele>
        <time>2000-01-01T22:27:59.000Z</time>
      </trkpt>
      <trkpt lat="47.2076" lon="6.01187">
        <ele>394</ele>
        <time>2000-01-01T22:28:09.000Z</time>
      </trkpt>
      <trkpt lat="47.20765" lon="6.01181">
        <ele>396.6</ele>
        <time>2000-01-01T22:28:19.000Z</time>
      </trkpt>
      <trkpt lat="47.20768" lon="6.01179">
        <ele>396.7</ele>
        <time>2000-01-01T22:28:29.000Z</time>
      </trkpt>
      <trkpt lat="47.20778" lon="6.01179">
        <ele>395</ele>
        <time>2000-01-01T22:28:39.000Z</time>
      </trkpt>
      <trkpt lat="47.208" lon="6.01194">
        <ele>403</ele>
        <time>2000-01-01T22:28:49.000Z</time>
      </trkpt>
      <trkpt lat="47.20807" lon="6.01202">
        <ele>405</ele>
        <time>2000-01-01T22:28:59.000Z</time>
      </trkpt>
      <trkpt lat="47.2081" lon="6.0121">
        <ele>406.2</ele>
        <time>2000-01-01T22:29:09.000Z</time>
      </trkpt>
      <trkpt lat="47.20826" lon="6.01257">
        <ele>408</ele>
        <time>2000-01-01T22:29:19.000Z</time>
      </trkpt>
      <trkpt lat="47.20831" lon="6.01269">
        <ele>408.8</ele>
        <time>2000-01-01T22:29:29.000Z</time>
      </trkpt>
      <trkpt lat="47.20834" lon="6.01272">
        <ele>409.1</ele>
        <time>2000-01-01T22:29:39.000Z</time>
      </trkpt>
      <trkpt lat="47.20836" lon="6.01275">
        <ele>409.6</ele>
        <time>2000-01-01T22:29:49.000Z</time>
      </trkpt>
      <trkpt lat="47.20842" lon="6.01277">
        <ele>409</ele>
        <time>2000-01-01T22:29:59.000Z</time>
      </trkpt>
      <trkpt lat="47.2085" lon="6.01278">
        <ele>412.6</ele>
        <time>2000-01-01T22:30:09.000Z</time>
      </trkpt>
      <trkpt lat="47.2086" lon="6.01269">
        <ele>413</ele>
        <time>2000-01-01T22:30:19.000Z</time>
      </trkpt>
      <trkpt lat="47.20873" lon="6.01252">
        <ele>414.9</ele>
        <time>2000-01-01T22:30:29.000Z</time>
      </trkpt>
      <trkpt lat="47.20877" lon="6.0125">
        <ele>414</ele>
        <time>2000-01-01T22:30:39.000Z</time>
      </trkpt>
      <trkpt lat="47.2088" lon="6.0125">
        <ele>415.7</ele>
        <time>2000-01-01T22:30:49.000Z</time>
      </trkpt>
      <trkpt lat="47.20881" lon="6.01251">
        <ele>416</ele>
        <time>2000-01-01T22:30:59.000Z</time>
      </trkpt>
      <trkpt lat="47.20891" lon="6.01255">
        <ele>417.5</ele>
        <time>2000-01-01T22:31:09.000Z</time>
      </trkpt>
      <trkpt lat="47.20892" lon="6.01256">
        <ele>417.5</ele>
        <time>2000-01-01T22:31:19.000Z</time>
      </trkpt>
      <trkpt lat="47.20892" lon="6.01256">
        <ele>417.5</ele>
        <time>2000-01-01T22:31:29.000Z</time>
      </trkpt>
      <trkpt lat="47.20916" lon="6.01283">
        <ele>416</ele>
        <time>2000-01-01T22:31:39.000Z</time>
      </trkpt>
      <trkpt lat="47.20938" lon="6.01297">
        <ele>418</ele>
        <time>2000-01-01T22:31:49.000Z</time>
      </trkpt>
      <trkpt lat="47.20961" lon="6.01313">
        <ele>418</ele>
        <time>2000-01-01T22:31:59.000Z</time>
      </trkpt>
      <trkpt lat="47.20971" lon="6.01317">
        <ele>418.9</ele>
        <time>2000-01-01T22:32:09.000Z</time>
      </trkpt>
      <trkpt lat="47.20978" lon="6.01317">
        <ele>418.7</ele>
        <time>2000-01-01T22:32:19.000Z</time>
      </trkpt>
      <trkpt lat="47.20984" lon="6.01313">
        <ele>418</ele>
        <time>2000-01-01T22:32:29.000Z</time>
      </trkpt>
      <trkpt lat="47.21002" lon="6.01287">
        <ele>416</ele>
        <time>2000-01-01T22:32:39.000Z</time>
      </trkpt>
      <trkpt lat="47.21023" lon="6.01257">
        <ele>416</ele>
        <time>2000-01-01T22:32:49.000Z</time>
      </trkpt>
      <trkpt lat="47.21018" lon="6.01214">
        <ele>416</ele>
        <time>2000-01-01T22:32:59.000Z</time>
      </trkpt>
      <trkpt lat="47.21013" lon="6.01177">
        <ele>416</ele>
        <time>2000-01-01T22:33:09.000Z</time>
      </trkpt>
      <trkpt lat="47.21008" lon="6.01133">
        <ele>417</ele>
        <time>2000-01-01T22:33:19.000Z</time>
      </trkpt>
      <trkpt lat="47.20988" lon="6.01091">
        <ele>418</ele>
        <time>2000-01-01T22:33:29.000Z</time>
      </trkpt>
      <trkpt lat="47.20969" lon="6.01049">
        <ele>422</ele>
        <time>2000-01-01T22:33:39.000Z</time>
      </trkpt>
      <trkpt lat="47.20949" lon="6.01007">
        <ele>421</ele>
        <time>2000-01-01T22:33:49.000Z</time>
      </trkpt>
      <trkpt lat="47.20926" lon="6.00959">
        <ele>422</ele>
        <time>2000-01-01T22:33:59.000Z</time>
      </trkpt>
      <trkpt lat="47.20946" lon="6.01001">
        <ele>422</ele>
        <time>2000-01-01T22:34:09.000Z</time>
      </trkpt>
      <trkpt lat="47.20966" lon="6.01043">
        <ele>422</ele>
        <time>2000-01-01T22:34:19.000Z</time>
      </trkpt>
      <trkpt lat="47.20986" lon="6.01085">
        <ele>420</ele>
        <time>2000-01-01T22:34:29.000Z</time>
      </trkpt>
      <trkpt lat="47.21008" lon="6.01133">
        <ele>417</ele>
        <time>2000-01-01T22:34:39.000Z</time>
      </trkpt>
      <trkpt lat="47.21013" lon="6.01176">
        <ele>416</ele>
        <time>2000-01-01T22:34:49.000Z</time>
      </trkpt>
      <trkpt lat="47.21018" lon="6.01213">
        <ele>416</ele>
        <time>2000-01-01T22:34:59.000Z</time>
      </trkpt>
      <trkpt lat="47.21023" lon="6.01257">
        <ele>416</ele>
        <time>2000-01-01T22:35:09.000Z</time>
      </trkpt>
      <trkpt lat="47.21039" lon="6.01258">
        <ele>417.8</ele>
        <time>2000-01-01T22:35:19.000Z</time>
      </trkpt>
      <trkpt lat="47.21056" lon="6.01289">
        <ele>418</ele>
        <time>2000-01-01T22:35:29.000Z</time>
      </trkpt>
      <trkpt lat="47.21083" lon="6.01326">
        <ele>420</ele>
        <time>2000-01-01T22:35:39.000Z</time>
      </trkpt>
      <trkpt lat="47.21088" lon="6.01334">
        <ele>421.2</ele>
        <time>2000-01-01T22:35:49.000Z</time>
      </trkpt>
      <trkpt lat="47.21094" lon="6.01339">
        <ele>421.5</ele>
        <time>2000-01-01T22:35:59.000Z</time>
      </trkpt>
      <trkpt lat="47.21104" lon="6.01348">
        <ele>422</ele>
        <time>2000-01-01T22:36:09.000Z</time>
      </trkpt>
      <trkpt lat="47.21127" lon="6.0136">
        <ele>422</ele>
        <time>2000-01-01T22:36:19.000Z</time>
      </trkpt>
      <trkpt lat="47.2114" lon="6.01373">
        <ele>422.4</ele>
        <time>2000-01-01T22:36:29.000Z</time>
      </trkpt>
      <trkpt lat="47.21156" lon="6.01391">
        <ele>422</ele>
        <time>2000-01-01T22:36:39.000Z</time>
      </trkpt>
      <trkpt lat="47.21163" lon="6.01398">
        <ele>422.7</ele>
        <time>2000-01-01T22:36:49.000Z</time>
      </trkpt>
      <trkpt lat="47.21163" lon="6.01399">
        <ele>422.8</ele>
        <time>2000-01-01T22:36:59.000Z</time>
      </trkpt>
      <trkpt lat="47.21185" lon="6.01426">
        <ele>423</ele>
        <time>2000-01-01T22:37:09.000Z</time>
      </trkpt>
      <trkpt lat="47.21202" lon="6.01447">
        <ele>423</ele>
        <time>2000-01-01T22:37:19.000Z</time>
      </trkpt>
      <trkpt lat="47.21214" lon="6.01462">
        <ele>424.6</ele>
        <time>2000-01-01T22:37:29.000Z</time>
      </trkpt>
      <trkpt lat="47.21231" lon="6.01485">
        <ele>424</ele>
        <time>2000-01-01T22:37:39.000Z</time>
      </trkpt>
      <trkpt lat="47.21232" lon="6.01486">
        <ele>424.9</ele>
        <time>2000-01-01T22:37:49.000Z</time>
      </trkpt>
      <trkpt lat="47.21238" lon="6.01496">
        <ele>425</ele>
        <time>2000-01-01T22:37:59.000Z</time>
      </trkpt>
      <trkpt lat="47.21247" lon="6.01512">
        <ele>425</ele>
        <time>2000-01-01T22:38:09.000Z</time>
      </trkpt>
      <trkpt lat="47.21267" lon="6.01553">
        <ele>426</ele>
        <time>2000-01-01T22:38:19.000Z</time>
      </trkpt>
      <trkpt lat="47.2127" lon="6.0156">
        <ele>426</ele>
        <time>2000-01-01T22:38:29.000Z</time>
      </trkpt>
      <trkpt lat="47.21275" lon="6.01573">
        <ele>425.9</ele>
        <time>2000-01-01T22:38:39.000Z</time>
      </trkpt>
      <trkpt lat="47.2128" lon="6.01587">
        <ele>426</ele>
        <time>2000-01-01T22:38:49.000Z</time>
      </trkpt>
      <trkpt lat="47.21289" lon="6.01612">
        <ele>426</ele>
        <time>2000-01-01T22:38:59.000Z</time>
      </trkpt>
      <trkpt lat="47.21303" lon="6.0164">
        <ele>426</ele>
        <time>2000-01-01T22:39:09.000Z</time>
      </trkpt>
      <trkpt lat="47.21317" lon="6.01669">
        <ele>425</ele>
        <time>2000-01-01T22:39:19.000Z</time>
      </trkpt>
      <trkpt lat="47.21325" lon="6.01696">
        <ele>425</ele>
        <time>2000-01-01T22:39:29.000Z</time>
      </trkpt>
      <trkpt lat="47.21324" lon="6.01721">
        <ele>424</ele>
        <time>2000-01-01T22:39:39.000Z</time>
      </trkpt>
      <trkpt lat="47.21324" lon="6.01737">
        <ele>424</ele>
        <time>2000-01-01T22:39:49.000Z</time>
      </trkpt>
      <trkpt lat="47.21327" lon="6.01748">
        <ele>422.9</ele>
        <time>2000-01-01T22:39:59.000Z</time>
      </trkpt>
      <trkpt lat="47.21336" lon="6.01769">
        <ele>424</ele>
        <time>2000-01-01T22:40:09.000Z</time>
      </trkpt>
      <trkpt lat="47.21337" lon="6.01772">
        <ele>422.9</ele>
        <time>2000-01-01T22:40:19.000Z</time>
      </trkpt>
      <trkpt lat="47.21342" lon="6.01785">
        <ele>422.8</ele>
        <time>2000-01-01T22:40:29.000Z</time>
      </trkpt>
      <trkpt lat="47.21353" lon="6.01841">
        <ele>424</ele>
        <time>2000-01-01T22:40:39.000Z</time>
      </trkpt>
      <trkpt lat="47.21356" lon="6.01863">
        <ele>424.8</ele>
        <time>2000-01-01T22:40:49.000Z</time>
      </trkpt>
      <trkpt lat="47.21356" lon="6.01869">
        <ele>424</ele>
        <time>2000-01-01T22:40:59.000Z</time>
      </trkpt>
      <trkpt lat="47.21355" lon="6.01892">
        <ele>425.1</ele>
        <time>2000-01-01T22:41:09.000Z</time>
      </trkpt>
      <trkpt lat="47.21352" lon="6.01905">
        <ele>425</ele>
        <time>2000-01-01T22:41:19.000Z</time>
      </trkpt>
      <trkpt lat="47.21349" lon="6.01912">
        <ele>426.2</ele>
        <time>2000-01-01T22:41:29.000Z</time>
      </trkpt>
      <trkpt lat="47.21346" lon="6.01922">
        <ele>426.6</ele>
        <time>2000-01-01T22:41:39.000Z</time>
      </trkpt>
      <trkpt lat="47.21328" lon="6.01962">
        <ele>429</ele>
        <time>2000-01-01T22:41:49.000Z</time>
      </trkpt>
      <trkpt lat="47.21328" lon="6.01976">
        <ele>429.5</ele>
        <time>2000-01-01T22:41:59.000Z</time>
      </trkpt>
      <trkpt lat="47.21329" lon="6.01986">
        <ele>429.8</ele>
        <time>2000-01-01T22:42:09.000Z</time>
      </trkpt>
      <trkpt lat="47.2133" lon="6.01992">
        <ele>429</ele>
        <time>2000-01-01T22:42:19.000Z</time>
      </trkpt>
      <trkpt lat="47.2133" lon="6.0201">
        <ele>430.3</ele>
        <time>2000-01-01T22:42:29.000Z</time>
      </trkpt>
      <trkpt lat="47.21328" lon="6.02024">
        <ele>430</ele>
        <time>2000-01-01T22:42:39.000Z</time>
      </trkpt>
      <trkpt lat="47.21327" lon="6.02031">
        <ele>430.8</ele>
        <time>2000-01-01T22:42:49.000Z</time>
      </trkpt>
      <trkpt lat="47.21323" lon="6.02049">
        <ele>431.9</ele>
        <time>2000-01-01T22:42:59.000Z</time>
      </trkpt>
      <trkpt lat="47.21321" lon="6.02054">
        <ele>432</ele>
        <time>2000-01-01T22:43:09.000Z</time>
      </trkpt>
      <trkpt lat="47.2131" lon="6.02082">
        <ele>435</ele>
        <time>2000-01-01T22:43:19.000Z</time>
      </trkpt>
      <trkpt lat="47.21306" lon="6.02093">
        <ele>435.7</ele>
        <time>2000-01-01T22:43:29.000Z</time>
      </trkpt>
      <trkpt lat="47.21306" lon="6.02093">
        <ele>435.7</ele>
        <time>2000-01-01T22:43:39.000Z</time>
      </trkpt>
      <trkpt lat="47.21306" lon="6.02093">
        <ele>435.7</ele>
        <time>2000-01-01T22:43:49.000Z</time>
      </trkpt>
      <trkpt lat="47.21306" lon="6.02093">
        <ele>435.7</ele>
        <time>2000-01-01T22:43:59.000Z</time>
      </trkpt>
      <trkpt lat="47.21307" lon="6.02106">
        <ele>436.6</ele>
        <time>2000-01-01T22:44:09.000Z</time>
      </trkpt>
      <trkpt lat="47.21307" lon="6.02108">
        <ele>436</ele>
        <time>2000-01-01T22:44:19.000Z</time>
      </trkpt>
      <trkpt lat="47.21304" lon="6.0212">
        <ele>437.7</ele>
        <time>2000-01-01T22:44:29.000Z</time>
      </trkpt>
      <trkpt lat="47.21304" lon="6.02127">
        <ele>438.2</ele>
        <time>2000-01-01T22:44:39.000Z</time>
      </trkpt>
      <trkpt lat="47.21305" lon="6.02135">
        <ele>438</ele>
        <time>2000-01-01T22:44:49.000Z</time>
      </trkpt>
      <trkpt lat="47.21314" lon="6.02154">
        <ele>440.8</ele>
        <time>2000-01-01T22:44:59.000Z</time>
      </trkpt>
      <trkpt lat="47.21318" lon="6.02166">
        <ele>441</ele>
        <time>2000-01-01T22:45:09.000Z</time>
      </trkpt>
      <trkpt lat="47.2132" lon="6.02179">
        <ele>442.9</ele>
        <time>2000-01-01T22:45:19.000Z</time>
      </trkpt>
      <trkpt lat="47.2132" lon="6.02213">
        <ele>445</ele>
        <time>2000-01-01T22:45:29.000Z</time>
      </trkpt>
      <trkpt lat="47.21318" lon="6.02221">
        <ele>445.9</ele>
        <time>2000-01-01T22:45:39.000Z</time>
      </trkpt>
      <trkpt lat="47.21306" lon="6.02243">
        <ele>448</ele>
        <time>2000-01-01T22:45:49.000Z</time>
      </trkpt>
      <trkpt lat="47.21299" lon="6.0225">
        <ele>450</ele>
        <time>2000-01-01T22:45:59.000Z</time>
      </trkpt>
      <trkpt lat="47.21293" lon="6.02254">
        <ele>450.6</ele>
        <time>2000-01-01T22:46:09.000Z</time>
      </trkpt>
      <trkpt lat="47.21276" lon="6.0226">
        <ele>449</ele>
        <time>2000-01-01T22:46:19.000Z</time>
      </trkpt>
      <trkpt lat="47.21264" lon="6.02269">
        <ele>449.4</ele>
        <time>2000-01-01T22:46:29.000Z</time>
      </trkpt>
      <trkpt lat="47.21269" lon="6.02273">
        <ele>449</ele>
        <time>2000-01-01T22:46:39.000Z</time>
      </trkpt>
      <trkpt lat="47.21274" lon="6.02277">
        <ele>452</ele>
        <time>2000-01-01T22:46:49.000Z</time>
      </trkpt>
      <trkpt lat="47.21287" lon="6.02291">
        <ele>453</ele>
        <time>2000-01-01T22:46:59.000Z</time>
      </trkpt>
      <trkpt lat="47.21292" lon="6.02297">
        <ele>456.8</ele>
        <time>2000-01-01T22:47:09.000Z</time>
      </trkpt>
      <trkpt lat="47.21295" lon="6.02303">
        <ele>458.5</ele>
        <time>2000-01-01T22:47:19.000Z</time>
      </trkpt>
      <trkpt lat="47.21298" lon="6.0231">
        <ele>459.9</ele>
        <time>2000-01-01T22:47:29.000Z</time>
      </trkpt>
      <trkpt lat="47.213" lon="6.02314">
        <ele>461</ele>
        <time>2000-01-01T22:47:39.000Z</time>
      </trkpt>
      <trkpt lat="47.21314" lon="6.02325">
        <ele>464.3</ele>
        <time>2000-01-01T22:47:49.000Z</time>
      </trkpt>
      <trkpt lat="47.2132" lon="6.02334">
        <ele>465</ele>
        <time>2000-01-01T22:47:59.000Z</time>
      </trkpt>
      <trkpt lat="47.21323" lon="6.02345">
        <ele>466.9</ele>
        <time>2000-01-01T22:48:09.000Z</time>
      </trkpt>
      <trkpt lat="47.21335" lon="6.0237">
        <ele>469</ele>
        <time>2000-01-01T22:48:19.000Z</time>
      </trkpt>
      <trkpt lat="47.21342" lon="6.0239">
        <ele>470.9</ele>
        <time>2000-01-01T22:48:29.000Z</time>
      </trkpt>
      <trkpt lat="47.21348" lon="6.02426">
        <ele>475</ele>
        <time>2000-01-01T22:48:39.000Z</time>
      </trkpt>
      <trkpt lat="47.21349" lon="6.02436">
        <ele>475.1</ele>
        <time>2000-01-01T22:48:49.000Z</time>
      </trkpt>
      <trkpt lat="47.21349" lon="6.02436">
        <ele>475.1</ele>
        <time>2000-01-01T22:48:59.000Z</time>
      </trkpt>
      <trkpt lat="47.21352" lon="6.02445">
        <ele>476.3</ele>
        <time>2000-01-01T22:49:09.000Z</time>
      </trkpt>
      <trkpt lat="47.21357" lon="6.02454">
        <ele>476</ele>
        <time>2000-01-01T22:49:19.000Z</time>
      </trkpt>
      <trkpt lat="47.21362" lon="6.02478">
        <ele>477.5</ele>
        <time>2000-01-01T22:49:29.000Z</time>
      </trkpt>
      <trkpt lat="47.21362" lon="6.0249">
        <ele>474</ele>
        <time>2000-01-01T22:49:39.000Z</time>
      </trkpt>
      <trkpt lat="47.21364" lon="6.02508">
        <ele>475.6</ele>
        <time>2000-01-01T22:49:49.000Z</time>
      </trkpt>
      <trkpt lat="47.21364" lon="6.02515">
        <ele>475.2</ele>
        <time>2000-01-01T22:49:59.000Z</time>
      </trkpt>
      <trkpt lat="47.21367" lon="6.02532">
        <ele>474</ele>
        <time>2000-01-01T22:50:09.000Z</time>
      </trkpt>
      <trkpt lat="47.21373" lon="6.02566">
        <ele>474</ele>
        <time>2000-01-01T22:50:19.000Z</time>
      </trkpt>
      <trkpt lat="47.21379" lon="6.02606">
        <ele>473</ele>
        <time>2000-01-01T22:50:29.000Z</time>
      </trkpt>
      <trkpt lat="47.21381" lon="6.02627">
        <ele>471.7</ele>
        <time>2000-01-01T22:50:39.000Z</time>
      </trkpt>
      <trkpt lat="47.21384" lon="6.02634">
        <ele>472</ele>
        <time>2000-01-01T22:50:49.000Z</time>
      </trkpt>
      <trkpt lat="47.21385" lon="6.02649">
        <ele>471.9</ele>
        <time>2000-01-01T22:50:59.000Z</time>
      </trkpt>
      <trkpt lat="47.21389" lon="6.02678">
        <ele>472</ele>
        <time>2000-01-01T22:51:09.000Z</time>
      </trkpt>
      <trkpt lat="47.21397" lon="6.02688">
        <ele>471.4</ele>
        <time>2000-01-01T22:51:19.000Z</time>
      </trkpt>
      <trkpt lat="47.214" lon="6.02703">
        <ele>473</ele>
        <time>2000-01-01T22:51:29.000Z</time>
      </trkpt>
      <trkpt lat="47.214" lon="6.02703">
        <ele>471.5</ele>
        <time>2000-01-01T22:51:39.000Z</time>
      </trkpt>
      <trkpt lat="47.21403" lon="6.02719">
        <ele>472.3</ele>
        <time>2000-01-01T22:51:49.000Z</time>
      </trkpt>
      <trkpt lat="47.21414" lon="6.02735">
        <ele>473</ele>
        <time>2000-01-01T22:51:59.000Z</time>
      </trkpt>
      <trkpt lat="47.21419" lon="6.0274">
        <ele>475.3</ele>
        <time>2000-01-01T22:52:09.000Z</time>
      </trkpt>
      <trkpt lat="47.21433" lon="6.02746">
        <ele>473</ele>
        <time>2000-01-01T22:52:19.000Z</time>
      </trkpt>
      <trkpt lat="47.21435" lon="6.02746">
        <ele>472.1</ele>
        <time>2000-01-01T22:52:29.000Z</time>
      </trkpt>
      <trkpt lat="47.21439" lon="6.02747">
        <ele>471.4</ele>
        <time>2000-01-01T22:52:39.000Z</time>
      </trkpt>
      <trkpt lat="47.21445" lon="6.02753">
        <ele>471.4</ele>
        <time>2000-01-01T22:52:49.000Z</time>
      </trkpt>
      <trkpt lat="47.21454" lon="6.02767">
        <ele>471</ele>
        <time>2000-01-01T22:52:59.000Z</time>
      </trkpt>
      <trkpt lat="47.21471" lon="6.02782">
        <ele>469</ele>
        <time>2000-01-01T22:53:09.000Z</time>
      </trkpt>
      <trkpt lat="47.21476" lon="6.02786">
        <ele>466</ele>
        <time>2000-01-01T22:53:19.000Z</time>
      </trkpt>
      <trkpt lat="47.21479" lon="6.02794">
        <ele>466.4</ele>
        <time>2000-01-01T22:53:29.000Z</time>
      </trkpt>
      <trkpt lat="47.2148" lon="6.02807">
        <ele>471</ele>
        <time>2000-01-01T22:53:39.000Z</time>
      </trkpt>
      <trkpt lat="47.21482" lon="6.02811">
        <ele>469</ele>
        <time>2000-01-01T22:53:49.000Z</time>
      </trkpt>
      <trkpt lat="47.21484" lon="6.02817">
        <ele>469.4</ele>
        <time>2000-01-01T22:53:59.000Z</time>
      </trkpt>
      <trkpt lat="47.21491" lon="6.02828">
        <ele>468.3</ele>
        <time>2000-01-01T22:54:09.000Z</time>
      </trkpt>
      <trkpt lat="47.21499" lon="6.02843">
        <ele>470</ele>
        <time>2000-01-01T22:54:19.000Z</time>
      </trkpt>
      <trkpt lat="47.21507" lon="6.02858">
        <ele>468</ele>
        <time>2000-01-01T22:54:29.000Z</time>
      </trkpt>
      <trkpt lat="47.21514" lon="6.0287">
        <ele>470</ele>
        <time>2000-01-01T22:54:39.000Z</time>
      </trkpt>
      <trkpt lat="47.21518" lon="6.02882">
        <ele>466.5</ele>
        <time>2000-01-01T22:54:49.000Z</time>
      </trkpt>
      <trkpt lat="47.21523" lon="6.02896">
        <ele>470</ele>
        <time>2000-01-01T22:54:59.000Z</time>
      </trkpt>
      <trkpt lat="47.21527" lon="6.02921">
        <ele>470</ele>
        <time>2000-01-01T22:55:09.000Z</time>
      </trkpt>
      <trkpt lat="47.2153" lon="6.02935">
        <ele>476</ele>
        <time>2000-01-01T22:55:19.000Z</time>
      </trkpt>
      <trkpt lat="47.21531" lon="6.02943">
        <ele>470.6</ele>
        <time>2000-01-01T22:55:29.000Z</time>
      </trkpt>
      <trkpt lat="47.21531" lon="6.02953">
        <ele>471</ele>
        <time>2000-01-01T22:55:39.000Z</time>
      </trkpt>
      <trkpt lat="47.21528" lon="6.02973">
        <ele>474</ele>
        <time>2000-01-01T22:55:49.000Z</time>
      </trkpt>
      <trkpt lat="47.21528" lon="6.02974">
        <ele>473.6</ele>
        <time>2000-01-01T22:55:59.000Z</time>
      </trkpt>
      <trkpt lat="47.21525" lon="6.02999">
        <ele>471.3</ele>
        <time>2000-01-01T22:56:09.000Z</time>
      </trkpt>
      <trkpt lat="47.21522" lon="6.03018">
        <ele>473</ele>
        <time>2000-01-01T22:56:19.000Z</time>
      </trkpt>
      <trkpt lat="47.2152" lon="6.03034">
        <ele>465.1</ele>
        <time>2000-01-01T22:56:29.000Z</time>
      </trkpt>
      <trkpt lat="47.21517" lon="6.03048">
        <ele>478</ele>
        <time>2000-01-01T22:56:39.000Z</time>
      </trkpt>
      <trkpt lat="47.21503" lon="6.03045">
        <ele>476.4</ele>
        <time>2000-01-01T22:56:49.000Z</time>
      </trkpt>
      <trkpt lat="47.21497" lon="6.03046">
        <ele>484</ele>
        <time>2000-01-01T22:56:59.000Z</time>
      </trkpt>
      <trkpt lat="47.21497" lon="6.03054">
        <ele>479.3</ele>
        <time>2000-01-01T22:57:09.000Z</time>
      </trkpt>
      <trkpt lat="47.21497" lon="6.0307">
        <ele>479.6</ele>
        <time>2000-01-01T22:57:19.000Z</time>
      </trkpt>
      <trkpt lat="47.215" lon="6.03091">
        <ele>483</ele>
        <time>2000-01-01T22:57:29.000Z</time>
      </trkpt>
      <trkpt lat="47.21509" lon="6.03131">
        <ele>483</ele>
        <time>2000-01-01T22:57:39.000Z</time>
      </trkpt>
      <trkpt lat="47.21517" lon="6.03163">
        <ele>483</ele>
        <time>2000-01-01T22:57:49.000Z</time>
      </trkpt>
      <trkpt lat="47.21525" lon="6.03197">
        <ele>481</ele>
        <time>2000-01-01T22:57:59.000Z</time>
      </trkpt>
      <trkpt lat="47.21533" lon="6.03246">
        <ele>481</ele>
        <time>2000-01-01T22:58:09.000Z</time>
      </trkpt>
      <trkpt lat="47.21535" lon="6.03259">
        <ele>480.3</ele>
        <time>2000-01-01T22:58:19.000Z</time>
      </trkpt>
      <trkpt lat="47.2154" lon="6.03276">
        <ele>484</ele>
        <time>2000-01-01T22:58:29.000Z</time>
      </trkpt>
      <trkpt lat="47.21501" lon="6.03288">
        <ele>491</ele>
        <time>2000-01-01T22:58:39.000Z</time>
      </trkpt>
      <trkpt lat="47.21509" lon="6.03323">
        <ele>490</ele>
        <time>2000-01-01T22:58:49.000Z</time>
      </trkpt>
      <trkpt lat="47.21519" lon="6.03367">
        <ele>490</ele>
        <time>2000-01-01T22:58:59.000Z</time>
      </trkpt>
      <trkpt lat="47.2153" lon="6.03409">
        <ele>489</ele>
        <time>2000-01-01T22:59:09.000Z</time>
      </trkpt>
      <trkpt lat="47.21539" lon="6.03449">
        <ele>487</ele>
        <time>2000-01-01T22:59:19.000Z</time>
      </trkpt>
      <trkpt lat="47.21547" lon="6.03497">
        <ele>485</ele>
        <time>2000-01-01T22:59:29.000Z</time>
      </trkpt>
      <trkpt lat="47.21558" lon="6.03543">
        <ele>482</ele>
        <time>2000-01-01T22:59:39.000Z</time>
      </trkpt>
      <trkpt lat="47.21569" lon="6.03593">
        <ele>480</ele>
        <time>2000-01-01T22:59:49.000Z</time>
      </trkpt>
      <trkpt lat="47.21575" lon="6.03623">
        <ele>478</ele>
        <time>2000-01-01T22:59:59.000Z</time>
      </trkpt>
      <trkpt lat="47.21582" lon="6.03647">
        <ele>477.6</ele>
        <time>2000-01-01T23:00:09.000Z</time>
      </trkpt>
      <trkpt lat="47.21585" lon="6.03661">
        <ele>477</ele>
        <time>2000-01-01T23:00:19.000Z</time>
      </trkpt>
      <trkpt lat="47.21587" lon="6.03679">
        <ele>475.7</ele>
        <time>2000-01-01T23:00:29.000Z</time>
      </trkpt>
      <trkpt lat="47.21588" lon="6.03694">
        <ele>476</ele>
        <time>2000-01-01T23:00:39.000Z</time>
      </trkpt>
      <trkpt lat="47.2159" lon="6.03712">
        <ele>474.5</ele>
        <time>2000-01-01T23:00:49.000Z</time>
      </trkpt>
      <trkpt lat="47.21591" lon="6.03731">
        <ele>475</ele>
        <time>2000-01-01T23:00:59.000Z</time>
      </trkpt>
      <trkpt lat="47.21593" lon="6.03751">
        <ele>473.6</ele>
        <time>2000-01-01T23:01:09.000Z</time>
      </trkpt>
      <trkpt lat="47.21595" lon="6.03768">
        <ele>474</ele>
        <time>2000-01-01T23:01:19.000Z</time>
      </trkpt>
      <trkpt lat="47.21599" lon="6.03785">
        <ele>472</ele>
        <time>2000-01-01T23:01:29.000Z</time>
      </trkpt>
      <trkpt lat="47.21605" lon="6.03805">
        <ele>471</ele>
        <time>2000-01-01T23:01:39.000Z</time>
      </trkpt>
      <trkpt lat="47.21611" lon="6.03819">
        <ele>471.5</ele>
        <time>2000-01-01T23:01:49.000Z</time>
      </trkpt>
      <trkpt lat="47.21615" lon="6.03833">
        <ele>470</ele>
        <time>2000-01-01T23:01:59.000Z</time>
      </trkpt>
      <trkpt lat="47.21619" lon="6.03847">
        <ele>467.4</ele>
        <time>2000-01-01T23:02:09.000Z</time>
      </trkpt>
      <trkpt lat="47.21622" lon="6.03857">
        <ele>465.9</ele>
        <time>2000-01-01T23:02:19.000Z</time>
      </trkpt>
      <trkpt lat="47.21629" lon="6.03871">
        <ele>467</ele>
        <time>2000-01-01T23:02:29.000Z</time>
      </trkpt>
      <trkpt lat="47.21629" lon="6.03871">
        <ele>463.8</ele>
        <time>2000-01-01T23:02:39.000Z</time>
      </trkpt>
      <trkpt lat="47.21633" lon="6.03896">
        <ele>462.4</ele>
        <time>2000-01-01T23:02:49.000Z</time>
      </trkpt>
      <trkpt lat="47.21634" lon="6.03909">
        <ele>464</ele>
        <time>2000-01-01T23:02:59.000Z</time>
      </trkpt>
      <trkpt lat="47.21637" lon="6.03927">
        <ele>461.4</ele>
        <time>2000-01-01T23:03:09.000Z</time>
      </trkpt>
      <trkpt lat="47.21642" lon="6.03946">
        <ele>461</ele>
        <time>2000-01-01T23:03:19.000Z</time>
      </trkpt>
      <trkpt lat="47.2165" lon="6.03966">
        <ele>458.3</ele>
        <time>2000-01-01T23:03:29.000Z</time>
      </trkpt>
      <trkpt lat="47.21653" lon="6.03975">
        <ele>460</ele>
        <time>2000-01-01T23:03:39.000Z</time>
      </trkpt>
      <trkpt lat="47.21654" lon="6.03984">
        <ele>458.3</ele>
        <time>2000-01-01T23:03:49.000Z</time>
      </trkpt>
      <trkpt lat="47.21657" lon="6.0399">
        <ele>458.4</ele>
        <time>2000-01-01T23:03:59.000Z</time>
      </trkpt>
      <trkpt lat="47.2166" lon="6.04">
        <ele>460</ele>
        <time>2000-01-01T23:04:09.000Z</time>
      </trkpt>
      <trkpt lat="47.21662" lon="6.04011">
        <ele>459.2</ele>
        <time>2000-01-01T23:04:19.000Z</time>
      </trkpt>
      <trkpt lat="47.21663" lon="6.04021">
        <ele>459.5</ele>
        <time>2000-01-01T23:04:29.000Z</time>
      </trkpt>
      <trkpt lat="47.21663" lon="6.04032">
        <ele>460</ele>
        <time>2000-01-01T23:04:39.000Z</time>
      </trkpt>
      <trkpt lat="47.21664" lon="6.04041">
        <ele>460.1</ele>
        <time>2000-01-01T23:04:49.000Z</time>
      </trkpt>
      <trkpt lat="47.21665" lon="6.04049">
        <ele>460.4</ele>
        <time>2000-01-01T23:04:59.000Z</time>
      </trkpt>
      <trkpt lat="47.21666" lon="6.04056">
        <ele>460.9</ele>
        <time>2000-01-01T23:05:09.000Z</time>
      </trkpt>
      <trkpt lat="47.21668" lon="6.04074">
        <ele>460</ele>
        <time>2000-01-01T23:05:19.000Z</time>
      </trkpt>
      <trkpt lat="47.2167" lon="6.04081">
        <ele>460.5</ele>
        <time>2000-01-01T23:05:29.000Z</time>
      </trkpt>
      <trkpt lat="47.21671" lon="6.04087">
        <ele>460.3</ele>
        <time>2000-01-01T23:05:39.000Z</time>
      </trkpt>
      <trkpt lat="47.21678" lon="6.04109">
        <ele>460</ele>
        <time>2000-01-01T23:05:49.000Z</time>
      </trkpt>
      <trkpt lat="47.21684" lon="6.04125">
        <ele>459.1</ele>
        <time>2000-01-01T23:05:59.000Z</time>
      </trkpt>
      <trkpt lat="47.21689" lon="6.04135">
        <ele>460</ele>
        <time>2000-01-01T23:06:09.000Z</time>
      </trkpt>
      <trkpt lat="47.21694" lon="6.0415">
        <ele>459.9</ele>
        <time>2000-01-01T23:06:19.000Z</time>
      </trkpt>
      <trkpt lat="47.21699" lon="6.04167">
        <ele>460</ele>
        <time>2000-01-01T23:06:29.000Z</time>
      </trkpt>
      <trkpt lat="47.21704" lon="6.04186">
        <ele>457.9</ele>
        <time>2000-01-01T23:06:39.000Z</time>
      </trkpt>
      <trkpt lat="47.21706" lon="6.04198">
        <ele>459</ele>
        <time>2000-01-01T23:06:49.000Z</time>
      </trkpt>
      <trkpt lat="47.2171" lon="6.04215">
        <ele>457.8</ele>
        <time>2000-01-01T23:06:59.000Z</time>
      </trkpt>
      <trkpt lat="47.21716" lon="6.04251">
        <ele>459</ele>
        <time>2000-01-01T23:07:09.000Z</time>
      </trkpt>
      <trkpt lat="47.21723" lon="6.04286">
        <ele>459</ele>
        <time>2000-01-01T23:07:19.000Z</time>
      </trkpt>
      <trkpt lat="47.21726" lon="6.043">
        <ele>457.5</ele>
        <time>2000-01-01T23:07:29.000Z</time>
      </trkpt>
      <trkpt lat="47.2173" lon="6.04314">
        <ele>459</ele>
        <time>2000-01-01T23:07:39.000Z</time>
      </trkpt>
      <trkpt lat="47.21735" lon="6.04337">
        <ele>457.3</ele>
        <time>2000-01-01T23:07:49.000Z</time>
      </trkpt>
      <trkpt lat="47.21738" lon="6.04354">
        <ele>460</ele>
        <time>2000-01-01T23:07:59.000Z</time>
      </trkpt>
      <trkpt lat="47.21745" lon="6.044">
        <ele>461</ele>
        <time>2000-01-01T23:08:09.000Z</time>
      </trkpt>
      <trkpt lat="47.2175" lon="6.0443">
        <ele>462</ele>
        <time>2000-01-01T23:08:19.000Z</time>
      </trkpt>
      <trkpt lat="47.21754" lon="6.04441">
        <ele>461.8</ele>
        <time>2000-01-01T23:08:29.000Z</time>
      </trkpt>
      <trkpt lat="47.21763" lon="6.04454">
        <ele>462</ele>
        <time>2000-01-01T23:08:39.000Z</time>
      </trkpt>
      <trkpt lat="47.21775" lon="6.04471">
        <ele>457.3</ele>
        <time>2000-01-01T23:08:49.000Z</time>
      </trkpt>
      <trkpt lat="47.21784" lon="6.04484">
        <ele>457</ele>
        <time>2000-01-01T23:08:59.000Z</time>
      </trkpt>
      <trkpt lat="47.21788" lon="6.045">
        <ele>454.1</ele>
        <time>2000-01-01T23:09:09.000Z</time>
      </trkpt>
      <trkpt lat="47.2179" lon="6.04524">
        <ele>455</ele>
        <time>2000-01-01T23:09:19.000Z</time>
      </trkpt>
      <trkpt lat="47.21791" lon="6.04525">
        <ele>454</ele>
        <time>2000-01-01T23:09:29.000Z</time>
      </trkpt>
      <trkpt lat="47.21792" lon="6.04533">
        <ele>454</ele>
        <time>2000-01-01T23:09:39.000Z</time>
      </trkpt>
      <trkpt lat="47.21793" lon="6.0454">
        <ele>454</ele>
        <time>2000-01-01T23:09:49.000Z</time>
      </trkpt>
      <trkpt lat="47.21796" lon="6.0456">
        <ele>455</ele>
        <time>2000-01-01T23:09:59.000Z</time>
      </trkpt>
      <trkpt lat="47.21797" lon="6.04565">
        <ele>453.9</ele>
        <time>2000-01-01T23:10:09.000Z</time>
      </trkpt>
      <trkpt lat="47.21801" lon="6.0459">
        <ele>454</ele>
        <time>2000-01-01T23:10:19.000Z</time>
      </trkpt>
      <trkpt lat="47.21805" lon="6.04605">
        <ele>454</ele>
        <time>2000-01-01T23:10:29.000Z</time>
      </trkpt>
      <trkpt lat="47.21806" lon="6.04611">
        <ele>453.9</ele>
        <time>2000-01-01T23:10:39.000Z</time>
      </trkpt>
      <trkpt lat="47.21807" lon="6.04616">
        <ele>453.8</ele>
        <time>2000-01-01T23:10:49.000Z</time>
      </trkpt>
      <trkpt lat="47.21813" lon="6.04623">
        <ele>454</ele>
        <time>2000-01-01T23:10:59.000Z</time>
      </trkpt>
      <trkpt lat="47.21812" lon="6.04659">
        <ele>454</ele>
        <time>2000-01-01T23:11:09.000Z</time>
      </trkpt>
      <trkpt lat="47.21817" lon="6.0466">
        <ele>454.4</ele>
        <time>2000-01-01T23:11:19.000Z</time>
      </trkpt>
      <trkpt lat="47.21821" lon="6.0466">
        <ele>454.8</ele>
        <time>2000-01-01T23:11:29.000Z</time>
      </trkpt>
      <trkpt lat="47.21832" lon="6.04662">
        <ele>456</ele>
        <time>2000-01-01T23:11:39.000Z</time>
      </trkpt>
      <trkpt lat="47.21839" lon="6.04665">
        <ele>455.3</ele>
        <time>2000-01-01T23:11:49.000Z</time>
      </trkpt>
      <trkpt lat="47.21842" lon="6.0467">
        <ele>455.1</ele>
        <time>2000-01-01T23:11:59.000Z</time>
      </trkpt>
      <trkpt lat="47.21845" lon="6.04678">
        <ele>456</ele>
        <time>2000-01-01T23:12:09.000Z</time>
      </trkpt>
      <trkpt lat="47.21851" lon="6.04696">
        <ele>456</ele>
        <time>2000-01-01T23:12:19.000Z</time>
      </trkpt>
      <trkpt lat="47.21858" lon="6.04712">
        <ele>458</ele>
        <time>2000-01-01T23:12:29.000Z</time>
      </trkpt>
      <trkpt lat="47.21862" lon="6.04721">
        <ele>457.5</ele>
        <time>2000-01-01T23:12:39.000Z</time>
      </trkpt>
      <trkpt lat="47.21877" lon="6.04762">
        <ele>461</ele>
        <time>2000-01-01T23:12:49.000Z</time>
      </trkpt>
      <trkpt lat="47.21892" lon="6.04809">
        <ele>462</ele>
        <time>2000-01-01T23:12:59.000Z</time>
      </trkpt>
      <trkpt lat="47.21906" lon="6.04857">
        <ele>465</ele>
        <time>2000-01-01T23:13:09.000Z</time>
      </trkpt>
      <trkpt lat="47.21921" lon="6.04904">
        <ele>466</ele>
        <time>2000-01-01T23:13:19.000Z</time>
      </trkpt>
      <trkpt lat="47.21931" lon="6.04936">
        <ele>467</ele>
        <time>2000-01-01T23:13:29.000Z</time>
      </trkpt>
      <trkpt lat="47.21942" lon="6.04972">
        <ele>470</ele>
        <time>2000-01-01T23:13:39.000Z</time>
      </trkpt>
      <trkpt lat="47.21954" lon="6.05014">
        <ele>475</ele>
        <time>2000-01-01T23:13:49.000Z</time>
      </trkpt>
      <trkpt lat="47.21966" lon="6.05056">
        <ele>481</ele>
        <time>2000-01-01T23:13:59.000Z</time>
      </trkpt>
      <trkpt lat="47.2198" lon="6.05104">
        <ele>482</ele>
        <time>2000-01-01T23:14:09.000Z</time>
      </trkpt>
      <trkpt lat="47.2197" lon="6.05068">
        <ele>478</ele>
        <time>2000-01-01T23:14:19.000Z</time>
      </trkpt>
      <trkpt lat="47.21954" lon="6.05014">
        <ele>475</ele>
        <time>2000-01-01T23:14:29.000Z</time>
      </trkpt>
      <trkpt lat="47.21948" lon="6.05014">
        <ele>475.8</ele>
        <time>2000-01-01T23:14:39.000Z</time>
      </trkpt>
      <trkpt lat="47.21931" lon="6.05005">
        <ele>473</ele>
        <time>2000-01-01T23:14:49.000Z</time>
      </trkpt>
      <trkpt lat="47.2193" lon="6.05004">
        <ele>473.3</ele>
        <time>2000-01-01T23:14:59.000Z</time>
      </trkpt>
      <trkpt lat="47.21926" lon="6.05007">
        <ele>473.2</ele>
        <time>2000-01-01T23:15:09.000Z</time>
      </trkpt>
      <trkpt lat="47.21921" lon="6.0502">
        <ele>473.4</ele>
        <time>2000-01-01T23:15:19.000Z</time>
      </trkpt>
      <trkpt lat="47.21915" lon="6.05027">
        <ele>471</ele>
        <time>2000-01-01T23:15:29.000Z</time>
      </trkpt>
      <trkpt lat="47.21911" lon="6.05053">
        <ele>471.6</ele>
        <time>2000-01-01T23:15:39.000Z</time>
      </trkpt>
      <trkpt lat="47.2191" lon="6.05064">
        <ele>471</ele>
        <time>2000-01-01T23:15:49.000Z</time>
      </trkpt>
      <trkpt lat="47.21909" lon="6.05073">
        <ele>471.3</ele>
        <time>2000-01-01T23:15:59.000Z</time>
      </trkpt>
      <trkpt lat="47.21909" lon="6.05085">
        <ele>471.5</ele>
        <time>2000-01-01T23:16:09.000Z</time>
      </trkpt>
      <trkpt lat="47.21906" lon="6.05095">
        <ele>470</ele>
        <time>2000-01-01T23:16:19.000Z</time>
      </trkpt>
      <trkpt lat="47.21906" lon="6.05106">
        <ele>470</ele>
        <time>2000-01-01T23:16:29.000Z</time>
      </trkpt>
      <trkpt lat="47.21912" lon="6.05121">
        <ele>470</ele>
        <time>2000-01-01T23:16:39.000Z</time>
      </trkpt>
      <trkpt lat="47.21917" lon="6.05125">
        <ele>472.1</ele>
        <time>2000-01-01T23:16:49.000Z</time>
      </trkpt>
      <trkpt lat="47.21924" lon="6.05133">
        <ele>473.6</ele>
        <time>2000-01-01T23:16:59.000Z</time>
      </trkpt>
      <trkpt lat="47.21926" lon="6.05142">
        <ele>472</ele>
        <time>2000-01-01T23:17:09.000Z</time>
      </trkpt>
      <trkpt lat="47.2193" lon="6.05151">
        <ele>473.3</ele>
        <time>2000-01-01T23:17:19.000Z</time>
      </trkpt>
      <trkpt lat="47.21935" lon="6.05165">
        <ele>472.8</ele>
        <time>2000-01-01T23:17:29.000Z</time>
      </trkpt>
      <trkpt lat="47.21944" lon="6.05179">
        <ele>469</ele>
        <time>2000-01-01T23:17:39.000Z</time>
      </trkpt>
      <trkpt lat="47.21947" lon="6.05195">
        <ele>471.5</ele>
        <time>2000-01-01T23:17:49.000Z</time>
      </trkpt>
      <trkpt lat="47.21946" lon="6.05211">
        <ele>466</ele>
        <time>2000-01-01T23:17:59.000Z</time>
      </trkpt>
      <trkpt lat="47.21946" lon="6.05218">
        <ele>467.1</ele>
        <time>2000-01-01T23:18:09.000Z</time>
      </trkpt>
      <trkpt lat="47.21946" lon="6.05218">
        <ele>467.1</ele>
        <time>2000-01-01T23:18:19.000Z</time>
      </trkpt>
      <trkpt lat="47.21947" lon="6.05226">
        <ele>465.9</ele>
        <time>2000-01-01T23:18:29.000Z</time>
      </trkpt>
      <trkpt lat="47.21949" lon="6.05234">
        <ele>464.8</ele>
        <time>2000-01-01T23:18:39.000Z</time>
      </trkpt>
      <trkpt lat="47.21948" lon="6.05236">
        <ele>464.2</ele>
        <time>2000-01-01T23:18:49.000Z</time>
      </trkpt>
      <trkpt lat="47.21947" lon="6.05245">
        <ele>461</ele>
        <time>2000-01-01T23:18:59.000Z</time>
      </trkpt>
      <trkpt lat="47.21942" lon="6.05243">
        <ele>461.9</ele>
        <time>2000-01-01T23:19:09.000Z</time>
      </trkpt>
      <trkpt lat="47.21921" lon="6.05239">
        <ele>460</ele>
        <time>2000-01-01T23:19:19.000Z</time>
      </trkpt>
      <trkpt lat="47.21906" lon="6.05242">
        <ele>457.3</ele>
        <time>2000-01-01T23:19:29.000Z</time>
      </trkpt>
      <trkpt lat="47.21892" lon="6.05247">
        <ele>456</ele>
        <time>2000-01-01T23:19:39.000Z</time>
      </trkpt>
      <trkpt lat="47.21876" lon="6.05257">
        <ele>455.4</ele>
        <time>2000-01-01T23:19:49.000Z</time>
      </trkpt>
      <trkpt lat="47.21865" lon="6.05265">
        <ele>455</ele>
        <time>2000-01-01T23:19:59.000Z</time>
      </trkpt>
      <trkpt lat="47.21851" lon="6.05275">
        <ele>454.9</ele>
        <time>2000-01-01T23:20:09.000Z</time>
      </trkpt>
      <trkpt lat="47.21844" lon="6.05281">
        <ele>455</ele>
        <time>2000-01-01T23:20:19.000Z</time>
      </trkpt>
      <trkpt lat="47.21827" lon="6.05292">
        <ele>456</ele>
        <time>2000-01-01T23:20:29.000Z</time>
      </trkpt>
      <trkpt lat="47.21815" lon="6.05299">
        <ele>455.9</ele>
        <time>2000-01-01T23:20:39.000Z</time>
      </trkpt>
      <trkpt lat="47.2181" lon="6.05304">
        <ele>456</ele>
        <time>2000-01-01T23:20:49.000Z</time>
      </trkpt>
      <trkpt lat="47.21801" lon="6.05311">
        <ele>456</ele>
        <time>2000-01-01T23:20:59.000Z</time>
      </trkpt>
      <trkpt lat="47.21794" lon="6.05313">
        <ele>456.1</ele>
        <time>2000-01-01T23:21:09.000Z</time>
      </trkpt>
      <trkpt lat="47.21789" lon="6.05312">
        <ele>456</ele>
        <time>2000-01-01T23:21:19.000Z</time>
      </trkpt>
      <trkpt lat="47.21777" lon="6.05311">
        <ele>456.1</ele>
        <time>2000-01-01T23:21:29.000Z</time>
      </trkpt>
      <trkpt lat="47.21759" lon="6.05311">
        <ele>454</ele>
        <time>2000-01-01T23:21:39.000Z</time>
      </trkpt>
      <trkpt lat="47.21743" lon="6.05311">
        <ele>453.9</ele>
        <time>2000-01-01T23:21:49.000Z</time>
      </trkpt>
      <trkpt lat="47.21734" lon="6.0531">
        <ele>452</ele>
        <time>2000-01-01T23:21:59.000Z</time>
      </trkpt>
      <trkpt lat="47.21727" lon="6.05307">
        <ele>452.4</ele>
        <time>2000-01-01T23:22:09.000Z</time>
      </trkpt>
      <trkpt lat="47.21721" lon="6.05311">
        <ele>452.3</ele>
        <time>2000-01-01T23:22:19.000Z</time>
      </trkpt>
      <trkpt lat="47.21709" lon="6.05318">
        <ele>450</ele>
        <time>2000-01-01T23:22:29.000Z</time>
      </trkpt>
      <trkpt lat="47.21698" lon="6.05319">
        <ele>451.6</ele>
        <time>2000-01-01T23:22:39.000Z</time>
      </trkpt>
      <trkpt lat="47.21686" lon="6.05319">
        <ele>449</ele>
        <time>2000-01-01T23:22:49.000Z</time>
      </trkpt>
      <trkpt lat="47.21677" lon="6.05319">
        <ele>450.5</ele>
        <time>2000-01-01T23:22:59.000Z</time>
      </trkpt>
      <trkpt lat="47.21668" lon="6.05321">
        <ele>450.2</ele>
        <time>2000-01-01T23:23:09.000Z</time>
      </trkpt>
      <trkpt lat="47.2166" lon="6.05324">
        <ele>448</ele>
        <time>2000-01-01T23:23:19.000Z</time>
      </trkpt>
      <trkpt lat="47.2165" lon="6.05331">
        <ele>449.6</ele>
        <time>2000-01-01T23:23:29.000Z</time>
      </trkpt>
      <trkpt lat="47.21647" lon="6.05336">
        <ele>449.7</ele>
        <time>2000-01-01T23:23:39.000Z</time>
      </trkpt>
      <trkpt lat="47.21637" lon="6.0535">
        <ele>447</ele>
        <time>2000-01-01T23:23:49.000Z</time>
      </trkpt>
      <trkpt lat="47.21622" lon="6.05379">
        <ele>447</ele>
        <time>2000-01-01T23:23:59.000Z</time>
      </trkpt>
      <trkpt lat="47.21604" lon="6.05414">
        <ele>446</ele>
        <time>2000-01-01T23:24:09.000Z</time>
      </trkpt>
      <trkpt lat="47.21586" lon="6.05448">
        <ele>446</ele>
        <time>2000-01-01T23:24:19.000Z</time>
      </trkpt>
      <trkpt lat="47.21571" lon="6.05476">
        <ele>446</ele>
        <time>2000-01-01T23:24:29.000Z</time>
      </trkpt>
      <trkpt lat="47.21555" lon="6.05508">
        <ele>445</ele>
        <time>2000-01-01T23:24:39.000Z</time>
      </trkpt>
      <trkpt lat="47.21549" lon="6.05524">
        <ele>446.8</ele>
        <time>2000-01-01T23:24:49.000Z</time>
      </trkpt>
      <trkpt lat="47.21545" lon="6.05537">
        <ele>445</ele>
        <time>2000-01-01T23:24:59.000Z</time>
      </trkpt>
      <trkpt lat="47.2154" lon="6.0555">
        <ele>447.4</ele>
        <time>2000-01-01T23:25:09.000Z</time>
      </trkpt>
      <trkpt lat="47.21533" lon="6.05574">
        <ele>448</ele>
        <time>2000-01-01T23:25:19.000Z</time>
      </trkpt>
      <trkpt lat="47.21529" lon="6.05596">
        <ele>449.1</ele>
        <time>2000-01-01T23:25:29.000Z</time>
      </trkpt>
      <trkpt lat="47.21526" lon="6.05618">
        <ele>449</ele>
        <time>2000-01-01T23:25:39.000Z</time>
      </trkpt>
      <trkpt lat="47.21524" lon="6.05643">
        <ele>451.2</ele>
        <time>2000-01-01T23:25:49.000Z</time>
      </trkpt>
      <trkpt lat="47.21523" lon="6.05667">
        <ele>452</ele>
        <time>2000-01-01T23:25:59.000Z</time>
      </trkpt>
      <trkpt lat="47.21525" lon="6.05689">
        <ele>452.3</ele>
        <time>2000-01-01T23:26:09.000Z</time>
      </trkpt>
      <trkpt lat="47.21518" lon="6.05693">
        <ele>453</ele>
        <time>2000-01-01T23:26:19.000Z</time>
      </trkpt>
      <trkpt lat="47.2152" lon="6.05718">
        <ele>452.8</ele>
        <time>2000-01-01T23:26:29.000Z</time>
      </trkpt>
      <trkpt lat="47.21487" lon="6.0581">
        <ele>457</ele>
        <time>2000-01-01T23:26:39.000Z</time>
      </trkpt>
      <trkpt lat="47.21482" lon="6.05834">
        <ele>458.6</ele>
        <time>2000-01-01T23:26:49.000Z</time>
      </trkpt>
      <trkpt lat="47.21485" lon="6.05858">
        <ele>460</ele>
        <time>2000-01-01T23:26:59.000Z</time>
      </trkpt>
      <trkpt lat="47.21491" lon="6.05877">
        <ele>460.4</ele>
        <time>2000-01-01T23:27:09.000Z</time>
      </trkpt>
      <trkpt lat="47.21535" lon="6.05972">
        <ele>461</ele>
        <time>2000-01-01T23:27:19.000Z</time>
      </trkpt>
      <trkpt lat="47.21541" lon="6.0601">
        <ele>462</ele>
        <time>2000-01-01T23:27:29.000Z</time>
      </trkpt>
      <trkpt lat="47.21555" lon="6.06038">
        <ele>463</ele>
        <time>2000-01-01T23:27:39.000Z</time>
      </trkpt>
      <trkpt lat="47.21573" lon="6.06066">
        <ele>464</ele>
        <time>2000-01-01T23:27:49.000Z</time>
      </trkpt>
      <trkpt lat="47.21597" lon="6.06103">
        <ele>466</ele>
        <time>2000-01-01T23:27:59.000Z</time>
      </trkpt>
      <trkpt lat="47.21612" lon="6.06129">
        <ele>468</ele>
        <time>2000-01-01T23:28:09.000Z</time>
      </trkpt>
      <trkpt lat="47.21629" lon="6.06158">
        <ele>468</ele>
        <time>2000-01-01T23:28:19.000Z</time>
      </trkpt>
      <trkpt lat="47.21659" lon="6.06181">
        <ele>468</ele>
        <time>2000-01-01T23:28:29.000Z</time>
      </trkpt>
      <trkpt lat="47.21673" lon="6.06212">
        <ele>468</ele>
        <time>2000-01-01T23:28:39.000Z</time>
      </trkpt>
      <trkpt lat="47.21691" lon="6.0625">
        <ele>468</ele>
        <time>2000-01-01T23:28:49.000Z</time>
      </trkpt>
      <trkpt lat="47.21711" lon="6.06284">
        <ele>469</ele>
        <time>2000-01-01T23:28:59.000Z</time>
      </trkpt>
      <trkpt lat="47.21728" lon="6.06313">
        <ele>469</ele>
        <time>2000-01-01T23:29:09.000Z</time>
      </trkpt>
      <trkpt lat="47.21751" lon="6.06351">
        <ele>469</ele>
        <time>2000-01-01T23:29:19.000Z</time>
      </trkpt>
      <trkpt lat="47.21776" lon="6.06382">
        <ele>469</ele>
        <time>2000-01-01T23:29:29.000Z</time>
      </trkpt>
      <trkpt lat="47.21776" lon="6.06407">
        <ele>469.1</ele>
        <time>2000-01-01T23:29:39.000Z</time>
      </trkpt>
      <trkpt lat="47.21804" lon="6.06464">
        <ele>468</ele>
        <time>2000-01-01T23:29:49.000Z</time>
      </trkpt>
      <trkpt lat="47.21826" lon="6.06495">
        <ele>468</ele>
        <time>2000-01-01T23:29:59.000Z</time>
      </trkpt>
      <trkpt lat="47.21839" lon="6.06529">
        <ele>468</ele>
        <time>2000-01-01T23:30:09.000Z</time>
      </trkpt>
      <trkpt lat="47.21861" lon="6.06566">
        <ele>468</ele>
        <time>2000-01-01T23:30:19.000Z</time>
      </trkpt>
      <trkpt lat="47.21887" lon="6.0657">
        <ele>469</ele>
        <time>2000-01-01T23:30:29.000Z</time>
      </trkpt>
      <trkpt lat="47.21911" lon="6.06592">
        <ele>470</ele>
        <time>2000-01-01T23:30:39.000Z</time>
      </trkpt>
      <trkpt lat="47.21928" lon="6.06624">
        <ele>471</ele>
        <time>2000-01-01T23:30:49.000Z</time>
      </trkpt>
      <trkpt lat="47.21955" lon="6.06673">
        <ele>473</ele>
        <time>2000-01-01T23:30:59.000Z</time>
      </trkpt>
      <trkpt lat="47.21977" lon="6.06703">
        <ele>475</ele>
        <time>2000-01-01T23:31:09.000Z</time>
      </trkpt>
      <trkpt lat="47.21995" lon="6.06728">
        <ele>476</ele>
        <time>2000-01-01T23:31:19.000Z</time>
      </trkpt>
      <trkpt lat="47.22018" lon="6.06759">
        <ele>476</ele>
        <time>2000-01-01T23:31:29.000Z</time>
      </trkpt>
      <trkpt lat="47.22052" lon="6.06796">
        <ele>473</ele>
        <time>2000-01-01T23:31:39.000Z</time>
      </trkpt>
      <trkpt lat="47.22078" lon="6.0683">
        <ele>472</ele>
        <time>2000-01-01T23:31:49.000Z</time>
      </trkpt>
      <trkpt lat="47.22097" lon="6.06863">
        <ele>471</ele>
        <time>2000-01-01T23:31:59.000Z</time>
      </trkpt>
      <trkpt lat="47.22127" lon="6.06889">
        <ele>467</ele>
        <time>2000-01-01T23:32:09.000Z</time>
      </trkpt>
      <trkpt lat="47.22147" lon="6.06909">
        <ele>464</ele>
        <time>2000-01-01T23:32:19.000Z</time>
      </trkpt>
      <trkpt lat="47.22168" lon="6.0693">
        <ele>460</ele>
        <time>2000-01-01T23:32:29.000Z</time>
      </trkpt>
      <trkpt lat="47.22191" lon="6.06977">
        <ele>455</ele>
        <time>2000-01-01T23:32:39.000Z</time>
      </trkpt>
      <trkpt lat="47.22208" lon="6.07003">
        <ele>454</ele>
        <time>2000-01-01T23:32:49.000Z</time>
      </trkpt>
      <trkpt lat="47.22227" lon="6.07033">
        <ele>452</ele>
        <time>2000-01-01T23:32:59.000Z</time>
      </trkpt>
      <trkpt lat="47.22253" lon="6.07084">
        <ele>451</ele>
        <time>2000-01-01T23:33:09.000Z</time>
      </trkpt>
      <trkpt lat="47.22275" lon="6.07119">
        <ele>451</ele>
        <time>2000-01-01T23:33:19.000Z</time>
      </trkpt>
      <trkpt lat="47.22298" lon="6.07154">
        <ele>449</ele>
        <time>2000-01-01T23:33:29.000Z</time>
      </trkpt>
      <trkpt lat="47.22314" lon="6.07179">
        <ele>447</ele>
        <time>2000-01-01T23:33:39.000Z</time>
      </trkpt>
      <trkpt lat="47.22332" lon="6.07207">
        <ele>443</ele>
        <time>2000-01-01T23:33:49.000Z</time>
      </trkpt>
      <trkpt lat="47.22352" lon="6.07215">
        <ele>442</ele>
        <time>2000-01-01T23:33:59.000Z</time>
      </trkpt>
      <trkpt lat="47.22367" lon="6.07243">
        <ele>442</ele>
        <time>2000-01-01T23:34:09.000Z</time>
      </trkpt>
      <trkpt lat="47.22385" lon="6.07274">
        <ele>444</ele>
        <time>2000-01-01T23:34:19.000Z</time>
      </trkpt>
      <trkpt lat="47.22408" lon="6.07301">
        <ele>447</ele>
        <time>2000-01-01T23:34:29.000Z</time>
      </trkpt>
      <trkpt lat="47.22419" lon="6.07318">
        <ele>447.8</ele>
        <time>2000-01-01T23:34:39.000Z</time>
      </trkpt>
      <trkpt lat="47.22421" lon="6.07331">
        <ele>449</ele>
        <time>2000-01-01T23:34:49.000Z</time>
      </trkpt>
      <trkpt lat="47.2244" lon="6.07352">
        <ele>449</ele>
        <time>2000-01-01T23:34:59.000Z</time>
      </trkpt>
      <trkpt lat="47.2246" lon="6.07375">
        <ele>449</ele>
        <time>2000-01-01T23:35:09.000Z</time>
      </trkpt>
      <trkpt lat="47.22484" lon="6.07397">
        <ele>449</ele>
        <time>2000-01-01T23:35:19.000Z</time>
      </trkpt>
      <trkpt lat="47.22497" lon="6.07403">
        <ele>447.5</ele>
        <time>2000-01-01T23:35:29.000Z</time>
      </trkpt>
      <trkpt lat="47.22502" lon="6.074">
        <ele>447</ele>
        <time>2000-01-01T23:35:39.000Z</time>
      </trkpt>
      <trkpt lat="47.225" lon="6.0739">
        <ele>448</ele>
        <time>2000-01-01T23:35:49.000Z</time>
      </trkpt>
      <trkpt lat="47.2251" lon="6.07385">
        <ele>446.3</ele>
        <time>2000-01-01T23:35:59.000Z</time>
      </trkpt>
      <trkpt lat="47.22529" lon="6.07381">
        <ele>444</ele>
        <time>2000-01-01T23:36:09.000Z</time>
      </trkpt>
      <trkpt lat="47.22534" lon="6.07356">
        <ele>438.5</ele>
        <time>2000-01-01T23:36:19.000Z</time>
      </trkpt>
      <trkpt lat="47.22544" lon="6.07334">
        <ele>431</ele>
        <time>2000-01-01T23:36:29.000Z</time>
      </trkpt>
      <trkpt lat="47.22545" lon="6.07292">
        <ele>421</ele>
        <time>2000-01-01T23:36:39.000Z</time>
      </trkpt>
      <trkpt lat="47.22579" lon="6.0727">
        <ele>420</ele>
        <time>2000-01-01T23:36:49.000Z</time>
      </trkpt>
      <trkpt lat="47.22599" lon="6.07253">
        <ele>420</ele>
        <time>2000-01-01T23:36:59.000Z</time>
      </trkpt>
      <trkpt lat="47.22603" lon="6.0725">
        <ele>421.4</ele>
        <time>2000-01-01T23:37:09.000Z</time>
      </trkpt>
      <trkpt lat="47.22623" lon="6.0723">
        <ele>418</ele>
        <time>2000-01-01T23:37:19.000Z</time>
      </trkpt>
      <trkpt lat="47.22631" lon="6.07223">
        <ele>421.3</ele>
        <time>2000-01-01T23:37:29.000Z</time>
      </trkpt>
      <trkpt lat="47.22632" lon="6.07215">
        <ele>420.3</ele>
        <time>2000-01-01T23:37:39.000Z</time>
      </trkpt>
      <trkpt lat="47.22638" lon="6.072">
        <ele>417</ele>
        <time>2000-01-01T23:37:49.000Z</time>
      </trkpt>
      <trkpt lat="47.22638" lon="6.07195">
        <ele>418.9</ele>
        <time>2000-01-01T23:37:59.000Z</time>
      </trkpt>
      <trkpt lat="47.22634" lon="6.07193">
        <ele>417.8</ele>
        <time>2000-01-01T23:38:09.000Z</time>
      </trkpt>
      <trkpt lat="47.22623" lon="6.07192">
        <ele>414</ele>
        <time>2000-01-01T23:38:19.000Z</time>
      </trkpt>
      <trkpt lat="47.2262" lon="6.07188">
        <ele>414.5</ele>
        <time>2000-01-01T23:38:29.000Z</time>
      </trkpt>
      <trkpt lat="47.2262" lon="6.07182">
        <ele>413.5</ele>
        <time>2000-01-01T23:38:39.000Z</time>
      </trkpt>
      <trkpt lat="47.22625" lon="6.07167">
        <ele>410</ele>
        <time>2000-01-01T23:38:49.000Z</time>
      </trkpt>
      <trkpt lat="47.22626" lon="6.07159">
        <ele>410.4</ele>
        <time>2000-01-01T23:38:59.000Z</time>
      </trkpt>
      <trkpt lat="47.22623" lon="6.07159">
        <ele>410</ele>
        <time>2000-01-01T23:39:09.000Z</time>
      </trkpt>
      <trkpt lat="47.2262" lon="6.07159">
        <ele>409.7</ele>
        <time>2000-01-01T23:39:19.000Z</time>
      </trkpt>
      <trkpt lat="47.22616" lon="6.07162">
        <ele>409.7</ele>
        <time>2000-01-01T23:39:29.000Z</time>
      </trkpt>
      <trkpt lat="47.22612" lon="6.07162">
        <ele>408</ele>
        <time>2000-01-01T23:39:39.000Z</time>
      </trkpt>
      <trkpt lat="47.2261" lon="6.07159">
        <ele>408.4</ele>
        <time>2000-01-01T23:39:49.000Z</time>
      </trkpt>
      <trkpt lat="47.2261" lon="6.07151">
        <ele>407</ele>
        <time>2000-01-01T23:39:59.000Z</time>
      </trkpt>
      <trkpt lat="47.22629" lon="6.07111">
        <ele>402</ele>
        <time>2000-01-01T23:40:09.000Z</time>
      </trkpt>
      <trkpt lat="47.22635" lon="6.07098">
        <ele>402.2</ele>
        <time>2000-01-01T23:40:19.000Z</time>
      </trkpt>
      <trkpt lat="47.22642" lon="6.07079">
        <ele>398</ele>
        <time>2000-01-01T23:40:29.000Z</time>
      </trkpt>
      <trkpt lat="47.22643" lon="6.07077">
        <ele>399.5</ele>
        <time>2000-01-01T23:40:39.000Z</time>
      </trkpt>
      <trkpt lat="47.22644" lon="6.07075">
        <ele>399.4</ele>
        <time>2000-01-01T23:40:49.000Z</time>
      </trkpt>
      <trkpt lat="47.22646" lon="6.07074">
        <ele>399.4</ele>
        <time>2000-01-01T23:40:59.000Z</time>
      </trkpt>
      <trkpt lat="47.22644" lon="6.07072">
        <ele>398.9</ele>
        <time>2000-01-01T23:41:09.000Z</time>
      </trkpt>
      <trkpt lat="47.22642" lon="6.07068">
        <ele>398.1</ele>
        <time>2000-01-01T23:41:19.000Z</time>
      </trkpt>
      <trkpt lat="47.22642" lon="6.07064">
        <ele>397.6</ele>
        <time>2000-01-01T23:41:29.000Z</time>
      </trkpt>
      <trkpt lat="47.22641" lon="6.07061">
        <ele>397</ele>
        <time>2000-01-01T23:41:39.000Z</time>
      </trkpt>
      <trkpt lat="47.2264" lon="6.07059">
        <ele>396.6</ele>
        <time>2000-01-01T23:41:49.000Z</time>
      </trkpt>
      <trkpt lat="47.22638" lon="6.07058">
        <ele>394</ele>
        <time>2000-01-01T23:41:59.000Z</time>
      </trkpt>
      <trkpt lat="47.22637" lon="6.07057">
        <ele>396.1</ele>
        <time>2000-01-01T23:42:09.000Z</time>
      </trkpt>
      <trkpt lat="47.22637" lon="6.07056">
        <ele>395.9</ele>
        <time>2000-01-01T23:42:19.000Z</time>
      </trkpt>
      <trkpt lat="47.22636" lon="6.07053">
        <ele>395.5</ele>
        <time>2000-01-01T23:42:29.000Z</time>
      </trkpt>
      <trkpt lat="47.22635" lon="6.07048">
        <ele>394.9</ele>
        <time>2000-01-01T23:42:39.000Z</time>
      </trkpt>
      <trkpt lat="47.22637" lon="6.07037">
        <ele>393.8</ele>
        <time>2000-01-01T23:42:49.000Z</time>
      </trkpt>
      <trkpt lat="47.22642" lon="6.07025">
        <ele>391</ele>
        <time>2000-01-01T23:42:59.000Z</time>
      </trkpt>
      <trkpt lat="47.22661" lon="6.0699">
        <ele>389</ele>
        <time>2000-01-01T23:43:09.000Z</time>
      </trkpt>
      <trkpt lat="47.22689" lon="6.06938">
        <ele>384</ele>
        <time>2000-01-01T23:43:19.000Z</time>
      </trkpt>
      <trkpt lat="47.22706" lon="6.06909">
        <ele>381</ele>
        <time>2000-01-01T23:43:29.000Z</time>
      </trkpt>
      <trkpt lat="47.22726" lon="6.06876">
        <ele>378</ele>
        <time>2000-01-01T23:43:39.000Z</time>
      </trkpt>
      <trkpt lat="47.22744" lon="6.06852">
        <ele>377</ele>
        <time>2000-01-01T23:43:49.000Z</time>
      </trkpt>
      <trkpt lat="47.22741" lon="6.06848">
        <ele>376.6</ele>
        <time>2000-01-01T23:43:59.000Z</time>
      </trkpt>
      <trkpt lat="47.22742" lon="6.06846">
        <ele>376.5</ele>
        <time>2000-01-01T23:44:09.000Z</time>
      </trkpt>
      <trkpt lat="47.22739" lon="6.0684">
        <ele>375.8</ele>
        <time>2000-01-01T23:44:19.000Z</time>
      </trkpt>
      <trkpt lat="47.22733" lon="6.06835">
        <ele>374.9</ele>
        <time>2000-01-01T23:44:29.000Z</time>
      </trkpt>
      <trkpt lat="47.22725" lon="6.06831">
        <ele>373</ele>
        <time>2000-01-01T23:44:39.000Z</time>
      </trkpt>
      <trkpt lat="47.22717" lon="6.06826">
        <ele>372.6</ele>
        <time>2000-01-01T23:44:49.000Z</time>
      </trkpt>
      <trkpt lat="47.22711" lon="6.06821">
        <ele>371.5</ele>
        <time>2000-01-01T23:44:59.000Z</time>
      </trkpt>
      <trkpt lat="47.22705" lon="6.0681">
        <ele>367</ele>
        <time>2000-01-01T23:45:09.000Z</time>
      </trkpt>
      <trkpt lat="47.22704" lon="6.068">
        <ele>368.3</ele>
        <time>2000-01-01T23:45:19.000Z</time>
      </trkpt>
      <trkpt lat="47.22703" lon="6.06787">
        <ele>366.5</ele>
        <time>2000-01-01T23:45:29.000Z</time>
      </trkpt>
      <trkpt lat="47.22703" lon="6.06776">
        <ele>363</ele>
        <time>2000-01-01T23:45:39.000Z</time>
      </trkpt>
      <trkpt lat="47.22703" lon="6.06761">
        <ele>363.4</ele>
        <time>2000-01-01T23:45:49.000Z</time>
      </trkpt>
      <trkpt lat="47.22701" lon="6.06747">
        <ele>360</ele>
        <time>2000-01-01T23:45:59.000Z</time>
      </trkpt>
      <trkpt lat="47.22697" lon="6.06736">
        <ele>359.9</ele>
        <time>2000-01-01T23:46:09.000Z</time>
      </trkpt>
      <trkpt lat="47.22693" lon="6.06728">
        <ele>358.5</ele>
        <time>2000-01-01T23:46:19.000Z</time>
      </trkpt>
      <trkpt lat="47.22686" lon="6.06721">
        <ele>356</ele>
        <time>2000-01-01T23:46:29.000Z</time>
      </trkpt>
      <trkpt lat="47.22679" lon="6.06716">
        <ele>355.9</ele>
        <time>2000-01-01T23:46:39.000Z</time>
      </trkpt>
      <trkpt lat="47.22671" lon="6.06712">
        <ele>354.7</ele>
        <time>2000-01-01T23:46:49.000Z</time>
      </trkpt>
      <trkpt lat="47.22663" lon="6.06708">
        <ele>352</ele>
        <time>2000-01-01T23:46:59.000Z</time>
      </trkpt>
      <trkpt lat="47.22655" lon="6.06703">
        <ele>352.5</ele>
        <time>2000-01-01T23:47:09.000Z</time>
      </trkpt>
      <trkpt lat="47.22649" lon="6.06697">
        <ele>351.3</ele>
        <time>2000-01-01T23:47:19.000Z</time>
      </trkpt>
      <trkpt lat="47.22636" lon="6.0668">
        <ele>347</ele>
        <time>2000-01-01T23:47:29.000Z</time>
      </trkpt>
      <trkpt lat="47.22629" lon="6.06671">
        <ele>348.5</ele>
        <time>2000-01-01T23:47:39.000Z</time>
      </trkpt>
      <trkpt lat="47.22627" lon="6.06667">
        <ele>348.2</ele>
        <time>2000-01-01T23:47:49.000Z</time>
      </trkpt>
      <trkpt lat="47.22625" lon="6.06665">
        <ele>347.9</ele>
        <time>2000-01-01T23:47:59.000Z</time>
      </trkpt>
      <trkpt lat="47.22622" lon="6.06662">
        <ele>347</ele>
        <time>2000-01-01T23:48:09.000Z</time>
      </trkpt>
      <trkpt lat="47.22617" lon="6.06657">
        <ele>346.6</ele>
        <time>2000-01-01T23:48:19.000Z</time>
      </trkpt>
      <trkpt lat="47.2261" lon="6.06647">
        <ele>344.9</ele>
        <time>2000-01-01T23:48:29.000Z</time>
      </trkpt>
      <trkpt lat="47.22603" lon="6.06637">
        <ele>343</ele>
        <time>2000-01-01T23:48:39.000Z</time>
      </trkpt>
      <trkpt lat="47.22599" lon="6.06628">
        <ele>343.6</ele>
        <time>2000-01-01T23:48:49.000Z</time>
      </trkpt>
      <trkpt lat="47.22596" lon="6.06615">
        <ele>343.1</ele>
        <time>2000-01-01T23:48:59.000Z</time>
      </trkpt>
      <trkpt lat="47.22596" lon="6.06601">
        <ele>342</ele>
        <time>2000-01-01T23:49:09.000Z</time>
      </trkpt>
      <trkpt lat="47.226" lon="6.06586">
        <ele>342.1</ele>
        <time>2000-01-01T23:49:19.000Z</time>
      </trkpt>
      <trkpt lat="47.22603" lon="6.06569">
        <ele>340</ele>
        <time>2000-01-01T23:49:29.000Z</time>
      </trkpt>
      <trkpt lat="47.2261" lon="6.06562">
        <ele>340.5</ele>
        <time>2000-01-01T23:49:39.000Z</time>
      </trkpt>
      <trkpt lat="47.22617" lon="6.06554">
        <ele>340.1</ele>
        <time>2000-01-01T23:49:49.000Z</time>
      </trkpt>
      <trkpt lat="47.22625" lon="6.06543">
        <ele>339</ele>
        <time>2000-01-01T23:49:59.000Z</time>
      </trkpt>
      <trkpt lat="47.22631" lon="6.06533">
        <ele>339.7</ele>
        <time>2000-01-01T23:50:09.000Z</time>
      </trkpt>
      <trkpt lat="47.22637" lon="6.0652">
        <ele>338</ele>
        <time>2000-01-01T23:50:19.000Z</time>
      </trkpt>
      <trkpt lat="47.22644" lon="6.06502">
        <ele>338.5</ele>
        <time>2000-01-01T23:50:29.000Z</time>
      </trkpt>
      <trkpt lat="47.2265" lon="6.0648">
        <ele>337</ele>
        <time>2000-01-01T23:50:39.000Z</time>
      </trkpt>
      <trkpt lat="47.22661" lon="6.06441">
        <ele>337</ele>
        <time>2000-01-01T23:50:49.000Z</time>
      </trkpt>
      <trkpt lat="47.22672" lon="6.06446">
        <ele>339.4</ele>
        <time>2000-01-01T23:50:59.000Z</time>
      </trkpt>
      <trkpt lat="47.22679" lon="6.06451">
        <ele>338</ele>
        <time>2000-01-01T23:51:09.000Z</time>
      </trkpt>
      <trkpt lat="47.22683" lon="6.06454">
        <ele>341.9</ele>
        <time>2000-01-01T23:51:19.000Z</time>
      </trkpt>
      <trkpt lat="47.22688" lon="6.06455">
        <ele>342.8</ele>
        <time>2000-01-01T23:51:29.000Z</time>
      </trkpt>
      <trkpt lat="47.22688" lon="6.06455">
        <ele>342.8</ele>
        <time>2000-01-01T23:51:39.000Z</time>
      </trkpt>
      <trkpt lat="47.22688" lon="6.06455">
        <ele>342.8</ele>
        <time>2000-01-01T23:51:49.000Z</time>
      </trkpt>
      <trkpt lat="47.22694" lon="6.06459">
        <ele>343.4</ele>
        <time>2000-01-01T23:51:59.000Z</time>
      </trkpt>
      <trkpt lat="47.22699" lon="6.06465">
        <ele>340</ele>
        <time>2000-01-01T23:52:09.000Z</time>
      </trkpt>
      <trkpt lat="47.22703" lon="6.06475">
        <ele>343</ele>
        <time>2000-01-01T23:52:19.000Z</time>
      </trkpt>
      <trkpt lat="47.2271" lon="6.06493">
        <ele>342</ele>
        <time>2000-01-01T23:52:29.000Z</time>
      </trkpt>
      <trkpt lat="47.22718" lon="6.06512">
        <ele>344</ele>
        <time>2000-01-01T23:52:39.000Z</time>
      </trkpt>
      <trkpt lat="47.2272" lon="6.06525">
        <ele>344</ele>
        <time>2000-01-01T23:52:49.000Z</time>
      </trkpt>
      <trkpt lat="47.2272" lon="6.06538">
        <ele>344.5</ele>
        <time>2000-01-01T23:52:59.000Z</time>
      </trkpt>
      <trkpt lat="47.2272" lon="6.06544">
        <ele>344.7</ele>
        <time>2000-01-01T23:53:09.000Z</time>
      </trkpt>
      <trkpt lat="47.2272" lon="6.06555">
        <ele>346</ele>
        <time>2000-01-01T23:53:19.000Z</time>
      </trkpt>
      <trkpt lat="47.2272" lon="6.06567">
        <ele>346</ele>
        <time>2000-01-01T23:53:29.000Z</time>
      </trkpt>
      <trkpt lat="47.22721" lon="6.06578">
        <ele>346.7</ele>
        <time>2000-01-01T23:53:39.000Z</time>
      </trkpt>
      <trkpt lat="47.22722" lon="6.06588">
        <ele>346</ele>
        <time>2000-01-01T23:53:49.000Z</time>
      </trkpt>
      <trkpt lat="47.22726" lon="6.06595">
        <ele>347.8</ele>
        <time>2000-01-01T23:53:59.000Z</time>
      </trkpt>
      <trkpt lat="47.2273" lon="6.06602">
        <ele>348.3</ele>
        <time>2000-01-01T23:54:09.000Z</time>
      </trkpt>
      <trkpt lat="47.2274" lon="6.06611">
        <ele>348</ele>
        <time>2000-01-01T23:54:19.000Z</time>
      </trkpt>
      <trkpt lat="47.22755" lon="6.0662">
        <ele>350</ele>
        <time>2000-01-01T23:54:29.000Z</time>
      </trkpt>
      <trkpt lat="47.22772" lon="6.06628">
        <ele>348</ele>
        <time>2000-01-01T23:54:39.000Z</time>
      </trkpt>
      <trkpt lat="47.22781" lon="6.06622">
        <ele>350.5</ele>
        <time>2000-01-01T23:54:49.000Z</time>
      </trkpt>
      <trkpt lat="47.22787" lon="6.0662">
        <ele>350.1</ele>
        <time>2000-01-01T23:54:59.000Z</time>
      </trkpt>
      <trkpt lat="47.22794" lon="6.06619">
        <ele>348</ele>
        <time>2000-01-01T23:55:09.000Z</time>
      </trkpt>
      <trkpt lat="47.22803" lon="6.06617">
        <ele>349.1</ele>
        <time>2000-01-01T23:55:19.000Z</time>
      </trkpt>
      <trkpt lat="47.2281" lon="6.06615">
        <ele>348.7</ele>
        <time>2000-01-01T23:55:29.000Z</time>
      </trkpt>
      <trkpt lat="47.22818" lon="6.06608">
        <ele>346</ele>
        <time>2000-01-01T23:55:39.000Z</time>
      </trkpt>
      <trkpt lat="47.2283" lon="6.06598">
        <ele>345.6</ele>
        <time>2000-01-01T23:55:49.000Z</time>
      </trkpt>
      <trkpt lat="47.2284" lon="6.0659">
        <ele>342</ele>
        <time>2000-01-01T23:55:59.000Z</time>
      </trkpt>
      <trkpt lat="47.22848" lon="6.06583">
        <ele>343.5</ele>
        <time>2000-01-01T23:56:09.000Z</time>
      </trkpt>
      <trkpt lat="47.22856" lon="6.06576">
        <ele>343.2</ele>
        <time>2000-01-01T23:56:19.000Z</time>
      </trkpt>
      <trkpt lat="47.22868" lon="6.06569">
        <ele>342</ele>
        <time>2000-01-01T23:56:29.000Z</time>
      </trkpt>
      <trkpt lat="47.22876" lon="6.06564">
        <ele>341</ele>
        <time>2000-01-01T23:56:39.000Z</time>
      </trkpt>
      <trkpt lat="47.22882" lon="6.06562">
        <ele>340</ele>
        <time>2000-01-01T23:56:49.000Z</time>
      </trkpt>
      <trkpt lat="47.22891" lon="6.06558">
        <ele>335</ele>
        <time>2000-01-01T23:56:59.000Z</time>
      </trkpt>
      <trkpt lat="47.22898" lon="6.06557">
        <ele>337</ele>
        <time>2000-01-01T23:57:09.000Z</time>
      </trkpt>
      <trkpt lat="47.22906" lon="6.06556">
        <ele>335.6</ele>
        <time>2000-01-01T23:57:19.000Z</time>
      </trkpt>
      <trkpt lat="47.22916" lon="6.06556">
        <ele>332</ele>
        <time>2000-01-01T23:57:29.000Z</time>
      </trkpt>
      <trkpt lat="47.22925" lon="6.06556">
        <ele>334.1</ele>
        <time>2000-01-01T23:57:39.000Z</time>
      </trkpt>
      <trkpt lat="47.22938" lon="6.06556">
        <ele>331</ele>
        <time>2000-01-01T23:57:49.000Z</time>
      </trkpt>
      <trkpt lat="47.22952" lon="6.06555">
        <ele>333.2</ele>
        <time>2000-01-01T23:57:59.000Z</time>
      </trkpt>
      <trkpt lat="47.22963" lon="6.06555">
        <ele>330</ele>
        <time>2000-01-01T23:58:09.000Z</time>
      </trkpt>
      <trkpt lat="47.22978" lon="6.06554">
        <ele>331.1</ele>
        <time>2000-01-01T23:58:19.000Z</time>
      </trkpt>
      <trkpt lat="47.22991" lon="6.06553">
        <ele>329</ele>
        <time>2000-01-01T23:58:29.000Z</time>
      </trkpt>
      <trkpt lat="47.23013" lon="6.06549">
        <ele>324</ele>
        <time>2000-01-01T23:58:39.000Z</time>
      </trkpt>
      <trkpt lat="47.23035" lon="6.06545">
        <ele>324</ele>
        <time>2000-01-01T23:58:49.000Z</time>
      </trkpt>
      <trkpt lat="47.23048" lon="6.06544">
        <ele>323.4</ele>
        <time>2000-01-01T23:58:59.000Z</time>
      </trkpt>
      <trkpt lat="47.2306" lon="6.06545">
        <ele>323</ele>
        <time>2000-01-01T23:59:09.000Z</time>
      </trkpt>
      <trkpt lat="47.23074" lon="6.0655">
        <ele>321.9</ele>
        <time>2000-01-01T23:59:19.000Z</time>
      </trkpt>
      <trkpt lat="47.23074" lon="6.0655">
        <ele>321.9</ele>
        <time>2000-01-01T23:59:29.000Z</time>
      </trkpt>
      <trkpt lat="47.23082" lon="6.06552">
        <ele>321</ele>
        <time>2000-01-01T23:59:39.000Z</time>
      </trkpt>
      <trkpt lat="47.23101" lon="6.0656">
        <ele>317</ele>
        <time>2000-01-01T23:59:49.000Z</time>
      </trkpt>
      <trkpt lat="47.2311" lon="6.06563">
        <ele>315.5</ele>
        <time>2000-01-01T23:59:59.000Z</time>
      </trkpt>
      <trkpt lat="47.23119" lon="6.06568">
        <ele>315</ele>
        <time>2000-01-02T00:00:09.000Z</time>
      </trkpt>
      <trkpt lat="47.23127" lon="6.06565">
        <ele>309.8</ele>
        <time>2000-01-02T00:00:19.000Z</time>
      </trkpt>
      <trkpt lat="47.23132" lon="6.06559">
        <ele>307.1</ele>
        <time>2000-01-02T00:00:29.000Z</time>
      </trkpt>
      <trkpt lat="47.23133" lon="6.06556">
        <ele>306.2</ele>
        <time>2000-01-02T00:00:39.000Z</time>
      </trkpt>
      <trkpt lat="47.23133" lon="6.06548">
        <ele>302</ele>
        <time>2000-01-02T00:00:49.000Z</time>
      </trkpt>
      <trkpt lat="47.23133" lon="6.06536">
        <ele>303</ele>
        <time>2000-01-02T00:00:59.000Z</time>
      </trkpt>
      <trkpt lat="47.23131" lon="6.06513">
        <ele>297</ele>
        <time>2000-01-02T00:01:09.000Z</time>
      </trkpt>
      <trkpt lat="47.23131" lon="6.06496">
        <ele>296.3</ele>
        <time>2000-01-02T00:01:19.000Z</time>
      </trkpt>
      <trkpt lat="47.23133" lon="6.06482">
        <ele>293</ele>
        <time>2000-01-02T00:01:29.000Z</time>
      </trkpt>
      <trkpt lat="47.23138" lon="6.06469">
        <ele>290.5</ele>
        <time>2000-01-02T00:01:39.000Z</time>
      </trkpt>
      <trkpt lat="47.23141" lon="6.0646">
        <ele>288.8</ele>
        <time>2000-01-02T00:01:49.000Z</time>
      </trkpt>
      <trkpt lat="47.23144" lon="6.06449">
        <ele>285</ele>
        <time>2000-01-02T00:01:59.000Z</time>
      </trkpt>
      <trkpt lat="47.23148" lon="6.06436">
        <ele>285.6</ele>
        <time>2000-01-02T00:02:09.000Z</time>
      </trkpt>
      <trkpt lat="47.23153" lon="6.06425">
        <ele>284</ele>
        <time>2000-01-02T00:02:19.000Z</time>
      </trkpt>
      <trkpt lat="47.2316" lon="6.06414">
        <ele>283.5</ele>
        <time>2000-01-02T00:02:29.000Z</time>
      </trkpt>
      <trkpt lat="47.23169" lon="6.06402">
        <ele>282</ele>
        <time>2000-01-02T00:02:39.000Z</time>
      </trkpt>
      <trkpt lat="47.23176" lon="6.06395">
        <ele>282.1</ele>
        <time>2000-01-02T00:02:49.000Z</time>
      </trkpt>
      <trkpt lat="47.23181" lon="6.06387">
        <ele>281.2</ele>
        <time>2000-01-02T00:02:59.000Z</time>
      </trkpt>
      <trkpt lat="47.23183" lon="6.06385">
        <ele>277</ele>
        <time>2000-01-02T00:03:09.000Z</time>
      </trkpt>
      <trkpt lat="47.23188" lon="6.06376">
        <ele>279.4</ele>
        <time>2000-01-02T00:03:19.000Z</time>
      </trkpt>
      <trkpt lat="47.23195" lon="6.06361">
        <ele>275</ele>
        <time>2000-01-02T00:03:29.000Z</time>
      </trkpt>
      <trkpt lat="47.232" lon="6.06345">
        <ele>276.4</ele>
        <time>2000-01-02T00:03:39.000Z</time>
      </trkpt>
      <trkpt lat="47.23201" lon="6.06338">
        <ele>275.6</ele>
        <time>2000-01-02T00:03:49.000Z</time>
      </trkpt>
      <trkpt lat="47.23202" lon="6.06335">
        <ele>273</ele>
        <time>2000-01-02T00:03:59.000Z</time>
      </trkpt>
      <trkpt lat="47.23208" lon="6.06297">
        <ele>269</ele>
        <time>2000-01-02T00:04:09.000Z</time>
      </trkpt>
      <trkpt lat="47.23216" lon="6.06243">
        <ele>262</ele>
        <time>2000-01-02T00:04:19.000Z</time>
      </trkpt>
      <trkpt lat="47.23221" lon="6.06223">
        <ele>262.8</ele>
        <time>2000-01-02T00:04:29.000Z</time>
      </trkpt>
      <trkpt lat="47.23241" lon="6.06189">
        <ele>255</ele>
        <time>2000-01-02T00:04:39.000Z</time>
      </trkpt>
      <trkpt lat="47.23239" lon="6.06132">
        <ele>250</ele>
        <time>2000-01-02T00:04:49.000Z</time>
      </trkpt>
      <trkpt lat="47.23229" lon="6.06076">
        <ele>248</ele>
        <time>2000-01-02T00:04:59.000Z</time>
      </trkpt>
      <trkpt lat="47.2323" lon="6.06062">
        <ele>247.7</ele>
        <time>2000-01-02T00:05:09.000Z</time>
      </trkpt>
      <trkpt lat="47.23221" lon="6.06049">
        <ele>246</ele>
        <time>2000-01-02T00:05:19.000Z</time>
      </trkpt>
      <trkpt lat="47.23202" lon="6.06003">
        <ele>246</ele>
        <time>2000-01-02T00:05:29.000Z</time>
      </trkpt>
      <trkpt lat="47.23186" lon="6.05979">
        <ele>246</ele>
        <time>2000-01-02T00:05:39.000Z</time>
      </trkpt>
      <trkpt lat="47.23165" lon="6.05952">
        <ele>246</ele>
        <time>2000-01-02T00:05:49.000Z</time>
      </trkpt>
      <trkpt lat="47.2313" lon="6.05908">
        <ele>246</ele>
        <time>2000-01-02T00:05:59.000Z</time>
      </trkpt>
      <trkpt lat="47.2311" lon="6.05888">
        <ele>246</ele>
        <time>2000-01-02T00:06:09.000Z</time>
      </trkpt>
      <trkpt lat="47.23088" lon="6.05867">
        <ele>246</ele>
        <time>2000-01-02T00:06:19.000Z</time>
      </trkpt>
      <trkpt lat="47.23097" lon="6.05844">
        <ele>245.6</ele>
        <time>2000-01-02T00:06:29.000Z</time>
      </trkpt>
      <trkpt lat="47.23004" lon="6.0576">
        <ele>245</ele>
        <time>2000-01-02T00:06:39.000Z</time>
      </trkpt>
      <trkpt lat="47.22982" lon="6.05734">
        <ele>245</ele>
        <time>2000-01-02T00:06:49.000Z</time>
      </trkpt>
      <trkpt lat="47.22948" lon="6.05692">
        <ele>244</ele>
        <time>2000-01-02T00:06:59.000Z</time>
      </trkpt>
      <trkpt lat="47.22926" lon="6.0566">
        <ele>244</ele>
        <time>2000-01-02T00:07:09.000Z</time>
      </trkpt>
      <trkpt lat="47.22903" lon="6.05628">
        <ele>244</ele>
        <time>2000-01-02T00:07:19.000Z</time>
      </trkpt>
      <trkpt lat="47.22878" lon="6.05592">
        <ele>243</ele>
        <time>2000-01-02T00:07:29.000Z</time>
      </trkpt>
      <trkpt lat="47.2286" lon="6.05562">
        <ele>243</ele>
        <time>2000-01-02T00:07:39.000Z</time>
      </trkpt>
      <trkpt lat="47.22834" lon="6.05519">
        <ele>244</ele>
        <time>2000-01-02T00:07:49.000Z</time>
      </trkpt>
      <trkpt lat="47.22817" lon="6.05487">
        <ele>244</ele>
        <time>2000-01-02T00:07:59.000Z</time>
      </trkpt>
      <trkpt lat="47.22792" lon="6.05439">
        <ele>244</ele>
        <time>2000-01-02T00:08:09.000Z</time>
      </trkpt>
      <trkpt lat="47.22776" lon="6.05401">
        <ele>244</ele>
        <time>2000-01-02T00:08:19.000Z</time>
      </trkpt>
      <trkpt lat="47.22763" lon="6.05368">
        <ele>244</ele>
        <time>2000-01-02T00:08:29.000Z</time>
      </trkpt>
      <trkpt lat="47.22745" lon="6.05325">
        <ele>245</ele>
        <time>2000-01-02T00:08:39.000Z</time>
      </trkpt>
      <trkpt lat="47.22729" lon="6.05283">
        <ele>245</ele>
        <time>2000-01-02T00:08:49.000Z</time>
      </trkpt>
      <trkpt lat="47.22717" lon="6.05239">
        <ele>245</ele>
        <time>2000-01-02T00:08:59.000Z</time>
      </trkpt>
      <trkpt lat="47.22706" lon="6.05195">
        <ele>245</ele>
        <time>2000-01-02T00:09:09.000Z</time>
      </trkpt>
      <trkpt lat="47.2269" lon="6.05137">
        <ele>245</ele>
        <time>2000-01-02T00:09:19.000Z</time>
      </trkpt>
      <trkpt lat="47.22678" lon="6.05096">
        <ele>246</ele>
        <time>2000-01-02T00:09:29.000Z</time>
      </trkpt>
      <trkpt lat="47.22668" lon="6.05061">
        <ele>246</ele>
        <time>2000-01-02T00:09:39.000Z</time>
      </trkpt>
      <trkpt lat="47.22655" lon="6.05017">
        <ele>245</ele>
        <time>2000-01-02T00:09:49.000Z</time>
      </trkpt>
      <trkpt lat="47.22644" lon="6.04975">
        <ele>245</ele>
        <time>2000-01-02T00:09:59.000Z</time>
      </trkpt>
      <trkpt lat="47.22634" lon="6.04939">
        <ele>244</ele>
        <time>2000-01-02T00:10:09.000Z</time>
      </trkpt>
      <trkpt lat="47.22622" lon="6.04892">
        <ele>245</ele>
        <time>2000-01-02T00:10:19.000Z</time>
      </trkpt>
      <trkpt lat="47.22608" lon="6.04828">
        <ele>244</ele>
        <time>2000-01-02T00:10:29.000Z</time>
      </trkpt>
      <trkpt lat="47.22603" lon="6.04775">
        <ele>244</ele>
        <time>2000-01-02T00:10:39.000Z</time>
      </trkpt>
      <trkpt lat="47.22598" lon="6.04722">
        <ele>244</ele>
        <time>2000-01-02T00:10:49.000Z</time>
      </trkpt>
      <trkpt lat="47.22594" lon="6.04669">
        <ele>244</ele>
        <time>2000-01-02T00:10:59.000Z</time>
      </trkpt>
      <trkpt lat="47.2259" lon="6.0463">
        <ele>245</ele>
        <time>2000-01-02T00:11:09.000Z</time>
      </trkpt>
      <trkpt lat="47.22585" lon="6.04573">
        <ele>245</ele>
        <time>2000-01-02T00:11:19.000Z</time>
      </trkpt>
      <trkpt lat="47.22581" lon="6.0451">
        <ele>245</ele>
        <time>2000-01-02T00:11:29.000Z</time>
      </trkpt>
      <trkpt lat="47.22582" lon="6.04471">
        <ele>245</ele>
        <time>2000-01-02T00:11:39.000Z</time>
      </trkpt>
      <trkpt lat="47.22586" lon="6.04434">
        <ele>245</ele>
        <time>2000-01-02T00:11:49.000Z</time>
      </trkpt>
      <trkpt lat="47.22591" lon="6.0439">
        <ele>246</ele>
        <time>2000-01-02T00:11:59.000Z</time>
      </trkpt>
      <trkpt lat="47.22599" lon="6.04348">
        <ele>247</ele>
        <time>2000-01-02T00:12:09.000Z</time>
      </trkpt>
      <trkpt lat="47.22606" lon="6.04312">
        <ele>248</ele>
        <time>2000-01-02T00:12:19.000Z</time>
      </trkpt>
      <trkpt lat="47.22615" lon="6.04269">
        <ele>252</ele>
        <time>2000-01-02T00:12:29.000Z</time>
      </trkpt>
      <trkpt lat="47.22629" lon="6.04217">
        <ele>252</ele>
        <time>2000-01-02T00:12:39.000Z</time>
      </trkpt>
      <trkpt lat="47.22641" lon="6.0418">
        <ele>250</ele>
        <time>2000-01-02T00:12:49.000Z</time>
      </trkpt>
      <trkpt lat="47.2266" lon="6.04121">
        <ele>249</ele>
        <time>2000-01-02T00:12:59.000Z</time>
      </trkpt>
      <trkpt lat="47.22676" lon="6.04086">
        <ele>249</ele>
        <time>2000-01-02T00:13:09.000Z</time>
      </trkpt>
      <trkpt lat="47.22688" lon="6.04058">
        <ele>249</ele>
        <time>2000-01-02T00:13:19.000Z</time>
      </trkpt>
      <trkpt lat="47.22701" lon="6.04029">
        <ele>249</ele>
        <time>2000-01-02T00:13:29.000Z</time>
      </trkpt>
      <trkpt lat="47.2272" lon="6.03995">
        <ele>249</ele>
        <time>2000-01-02T00:13:39.000Z</time>
      </trkpt>
      <trkpt lat="47.22737" lon="6.03967">
        <ele>249</ele>
        <time>2000-01-02T00:13:49.000Z</time>
      </trkpt>
      <trkpt lat="47.22757" lon="6.03932">
        <ele>247</ele>
        <time>2000-01-02T00:13:59.000Z</time>
      </trkpt>
      <trkpt lat="47.22787" lon="6.039">
        <ele>246</ele>
        <time>2000-01-02T00:14:09.000Z</time>
      </trkpt>
      <trkpt lat="47.22809" lon="6.03882">
        <ele>246</ele>
        <time>2000-01-02T00:14:19.000Z</time>
      </trkpt>
      <trkpt lat="47.22834" lon="6.03869">
        <ele>247</ele>
        <time>2000-01-02T00:14:29.000Z</time>
      </trkpt>
      <trkpt lat="47.2287" lon="6.03852">
        <ele>246</ele>
        <time>2000-01-02T00:14:39.000Z</time>
      </trkpt>
      <trkpt lat="47.22894" lon="6.03834">
        <ele>246</ele>
        <time>2000-01-02T00:14:49.000Z</time>
      </trkpt>
      <trkpt lat="47.22926" lon="6.03809">
        <ele>246</ele>
        <time>2000-01-02T00:14:59.000Z</time>
      </trkpt>
      <trkpt lat="47.22959" lon="6.03782">
        <ele>246</ele>
        <time>2000-01-02T00:15:09.000Z</time>
      </trkpt>
      <trkpt lat="47.22991" lon="6.03754">
        <ele>247</ele>
        <time>2000-01-02T00:15:19.000Z</time>
      </trkpt>
      <trkpt lat="47.23024" lon="6.03727">
        <ele>249</ele>
        <time>2000-01-02T00:15:29.000Z</time>
      </trkpt>
      <trkpt lat="47.23056" lon="6.03699">
        <ele>249</ele>
        <time>2000-01-02T00:15:39.000Z</time>
      </trkpt>
      <trkpt lat="47.23079" lon="6.03681">
        <ele>248</ele>
        <time>2000-01-02T00:15:49.000Z</time>
      </trkpt>
      <trkpt lat="47.23107" lon="6.03657">
        <ele>248</ele>
        <time>2000-01-02T00:15:59.000Z</time>
      </trkpt>
      <trkpt lat="47.23119" lon="6.03639">
        <ele>245.3</ele>
        <time>2000-01-02T00:16:09.000Z</time>
      </trkpt>
      <trkpt lat="47.23128" lon="6.03633">
        <ele>246</ele>
        <time>2000-01-02T00:16:19.000Z</time>
      </trkpt>
      <trkpt lat="47.23141" lon="6.03609">
        <ele>246</ele>
        <time>2000-01-02T00:16:29.000Z</time>
      </trkpt>
      <trkpt lat="47.23146" lon="6.03592">
        <ele>246.3</ele>
        <time>2000-01-02T00:16:39.000Z</time>
      </trkpt>
      <trkpt lat="47.23116" lon="6.03484">
        <ele>305</ele>
        <time>2000-01-02T00:16:49.000Z</time>
      </trkpt>
      <trkpt lat="47.23105" lon="6.03451">
        <ele>350</ele>
        <time>2000-01-02T00:16:59.000Z</time>
      </trkpt>
      <trkpt lat="47.23092" lon="6.03411">
        <ele>350</ele>
        <time>2000-01-02T00:17:09.000Z</time>
      </trkpt>
      <trkpt lat="47.23077" lon="6.03359">
        <ele>350</ele>
        <time>2000-01-02T00:17:19.000Z</time>
      </trkpt>
      <trkpt lat="47.23061" lon="6.03308">
        <ele>350</ele>
        <time>2000-01-02T00:17:29.000Z</time>
      </trkpt>
      <trkpt lat="47.23046" lon="6.03257">
        <ele>341</ele>
        <time>2000-01-02T00:17:39.000Z</time>
      </trkpt>
      <trkpt lat="47.2303" lon="6.03205">
        <ele>332</ele>
        <time>2000-01-02T00:17:49.000Z</time>
      </trkpt>
      <trkpt lat="47.23015" lon="6.03154">
        <ele>288</ele>
        <time>2000-01-02T00:17:59.000Z</time>
      </trkpt>
      <trkpt lat="47.22998" lon="6.03098">
        <ele>265</ele>
        <time>2000-01-02T00:18:09.000Z</time>
      </trkpt>
      <trkpt lat="47.22987" lon="6.03049">
        <ele>240</ele>
        <time>2000-01-02T00:18:19.000Z</time>
      </trkpt>
      <trkpt lat="47.22981" lon="6.03041">
        <ele>242.5</ele>
        <time>2000-01-02T00:18:29.000Z</time>
      </trkpt>
      <trkpt lat="47.22974" lon="6.03041">
        <ele>241.2</ele>
        <time>2000-01-02T00:18:39.000Z</time>
      </trkpt>
      <trkpt lat="47.22969" lon="6.03062">
        <ele>241</ele>
        <time>2000-01-02T00:18:49.000Z</time>
      </trkpt>
      <trkpt lat="47.22974" lon="6.0307">
        <ele>246.9</ele>
        <time>2000-01-02T00:18:59.000Z</time>
      </trkpt>
      <trkpt lat="47.22992" lon="6.03014">
        <ele>240</ele>
        <time>2000-01-02T00:19:09.000Z</time>
      </trkpt>
      <trkpt lat="47.22995" lon="6.02983">
        <ele>239</ele>
        <time>2000-01-02T00:19:19.000Z</time>
      </trkpt>
      <trkpt lat="47.23007" lon="6.02943">
        <ele>238</ele>
        <time>2000-01-02T00:19:29.000Z</time>
      </trkpt>
      <trkpt lat="47.23016" lon="6.02909">
        <ele>238</ele>
        <time>2000-01-02T00:19:39.000Z</time>
      </trkpt>
      <trkpt lat="47.23028" lon="6.02869">
        <ele>239</ele>
        <time>2000-01-02T00:19:49.000Z</time>
      </trkpt>
      <trkpt lat="47.23037" lon="6.02827">
        <ele>239</ele>
        <time>2000-01-02T00:19:59.000Z</time>
      </trkpt>
      <trkpt lat="47.23044" lon="6.02793">
        <ele>239</ele>
        <time>2000-01-02T00:20:09.000Z</time>
      </trkpt>
      <trkpt lat="47.23053" lon="6.02752">
        <ele>239</ele>
        <time>2000-01-02T00:20:19.000Z</time>
      </trkpt>
      <trkpt lat="47.23067" lon="6.02709">
        <ele>239</ele>
        <time>2000-01-02T00:20:29.000Z</time>
      </trkpt>
      <trkpt lat="47.23069" lon="6.02665">
        <ele>239</ele>
        <time>2000-01-02T00:20:39.000Z</time>
      </trkpt>
      <trkpt lat="47.23071" lon="6.02627">
        <ele>239</ele>
        <time>2000-01-02T00:20:49.000Z</time>
      </trkpt>
      <trkpt lat="47.23074" lon="6.02578">
        <ele>239</ele>
        <time>2000-01-02T00:20:59.000Z</time>
      </trkpt>
      <trkpt lat="47.23075" lon="6.02529">
        <ele>239</ele>
        <time>2000-01-02T00:21:09.000Z</time>
      </trkpt>
      <trkpt lat="47.23076" lon="6.0248">
        <ele>238</ele>
        <time>2000-01-02T00:21:19.000Z</time>
      </trkpt>
      <trkpt lat="47.23077" lon="6.02444">
        <ele>238</ele>
        <time>2000-01-02T00:21:29.000Z</time>
      </trkpt>
      <trkpt lat="47.23078" lon="6.024">
        <ele>238</ele>
        <time>2000-01-02T00:21:39.000Z</time>
      </trkpt>
      <trkpt lat="47.2308" lon="6.0237">
        <ele>238</ele>
        <time>2000-01-02T00:21:49.000Z</time>
      </trkpt>
      <trkpt lat="47.23084" lon="6.0235">
        <ele>240.6</ele>
        <time>2000-01-02T00:21:59.000Z</time>
      </trkpt>
      <trkpt lat="47.23083" lon="6.02335">
        <ele>240</ele>
        <time>2000-01-02T00:22:09.000Z</time>
      </trkpt>
      <trkpt lat="47.23074" lon="6.02323">
        <ele>239.7</ele>
        <time>2000-01-02T00:22:19.000Z</time>
      </trkpt>
      <trkpt lat="47.23074" lon="6.02315">
        <ele>239.7</ele>
        <time>2000-01-02T00:22:29.000Z</time>
      </trkpt>
      <trkpt lat="47.23084" lon="6.02243">
        <ele>240</ele>
        <time>2000-01-02T00:22:39.000Z</time>
      </trkpt>
      <trkpt lat="47.23083" lon="6.02195">
        <ele>240</ele>
        <time>2000-01-02T00:22:49.000Z</time>
      </trkpt>
      <trkpt lat="47.23078" lon="6.0215">
        <ele>240</ele>
        <time>2000-01-02T00:22:59.000Z</time>
      </trkpt>
      <trkpt lat="47.23081" lon="6.02116">
        <ele>240</ele>
        <time>2000-01-02T00:23:09.000Z</time>
      </trkpt>
      <trkpt lat="47.23088" lon="6.02075">
        <ele>240</ele>
        <time>2000-01-02T00:23:19.000Z</time>
      </trkpt>
      <trkpt lat="47.23089" lon="6.02029">
        <ele>240</ele>
        <time>2000-01-02T00:23:29.000Z</time>
      </trkpt>
      <trkpt lat="47.2309" lon="6.01984">
        <ele>240</ele>
        <time>2000-01-02T00:23:39.000Z</time>
      </trkpt>
      <trkpt lat="47.23091" lon="6.01934">
        <ele>241</ele>
        <time>2000-01-02T00:23:49.000Z</time>
      </trkpt>
      <trkpt lat="47.23085" lon="6.0187">
        <ele>241</ele>
        <time>2000-01-02T00:23:59.000Z</time>
      </trkpt>
      <trkpt lat="47.2309" lon="6.01824">
        <ele>241</ele>
        <time>2000-01-02T00:24:09.000Z</time>
      </trkpt>
      <trkpt lat="47.23103" lon="6.01802">
        <ele>241</ele>
        <time>2000-01-02T00:24:19.000Z</time>
      </trkpt>
      <trkpt lat="47.23125" lon="6.01779">
        <ele>239</ele>
        <time>2000-01-02T00:24:29.000Z</time>
      </trkpt>
      <trkpt lat="47.23156" lon="6.01746">
        <ele>239</ele>
        <time>2000-01-02T00:24:39.000Z</time>
      </trkpt>
      <trkpt lat="47.23186" lon="6.01733">
        <ele>240</ele>
        <time>2000-01-02T00:24:49.000Z</time>
      </trkpt>
      <trkpt lat="47.23217" lon="6.0172">
        <ele>240</ele>
        <time>2000-01-02T00:24:59.000Z</time>
      </trkpt>
      <trkpt lat="47.23253" lon="6.01705">
        <ele>240</ele>
        <time>2000-01-02T00:25:09.000Z</time>
      </trkpt>
      <trkpt lat="47.2328" lon="6.01694">
        <ele>240</ele>
        <time>2000-01-02T00:25:19.000Z</time>
      </trkpt>
      <trkpt lat="47.23322" lon="6.01678">
        <ele>240</ele>
        <time>2000-01-02T00:25:29.000Z</time>
      </trkpt>
      <trkpt lat="47.23349" lon="6.01673">
        <ele>240</ele>
        <time>2000-01-02T00:25:39.000Z</time>
      </trkpt>
      <trkpt lat="47.23387" lon="6.01665">
        <ele>240</ele>
        <time>2000-01-02T00:25:49.000Z</time>
      </trkpt>
      <trkpt lat="47.23416" lon="6.01668">
        <ele>240</ele>
        <time>2000-01-02T00:25:59.000Z</time>
      </trkpt>
      <trkpt lat="47.23439" lon="6.01671">
        <ele>240</ele>
        <time>2000-01-02T00:26:09.000Z</time>
      </trkpt>
      <trkpt lat="47.23464" lon="6.01674">
        <ele>240</ele>
        <time>2000-01-02T00:26:19.000Z</time>
      </trkpt>
      <trkpt lat="47.23486" lon="6.01688">
        <ele>240</ele>
        <time>2000-01-02T00:26:29.000Z</time>
      </trkpt>
      <trkpt lat="47.2351" lon="6.01704">
        <ele>240</ele>
        <time>2000-01-02T00:26:39.000Z</time>
      </trkpt>
      <trkpt lat="47.23545" lon="6.01703">
        <ele>239</ele>
        <time>2000-01-02T00:26:49.000Z</time>
      </trkpt>
      <trkpt lat="47.23579" lon="6.01717">
        <ele>239</ele>
        <time>2000-01-02T00:26:59.000Z</time>
      </trkpt>
      <trkpt lat="47.23612" lon="6.01731">
        <ele>239</ele>
        <time>2000-01-02T00:27:09.000Z</time>
      </trkpt>
      <trkpt lat="47.23646" lon="6.01745">
        <ele>239</ele>
        <time>2000-01-02T00:27:19.000Z</time>
      </trkpt>
      <trkpt lat="47.23686" lon="6.01762">
        <ele>240</ele>
        <time>2000-01-02T00:27:29.000Z</time>
      </trkpt>
      <trkpt lat="47.23706" lon="6.01781">
        <ele>240</ele>
        <time>2000-01-02T00:27:39.000Z</time>
      </trkpt>
      <trkpt lat="47.23728" lon="6.01801">
        <ele>240</ele>
        <time>2000-01-02T00:27:49.000Z</time>
      </trkpt>
      <trkpt lat="47.23751" lon="6.01826">
        <ele>240</ele>
        <time>2000-01-02T00:27:59.000Z</time>
      </trkpt>
      <trkpt lat="47.23771" lon="6.01847">
        <ele>239</ele>
        <time>2000-01-02T00:28:09.000Z</time>
      </trkpt>
      <trkpt lat="47.23792" lon="6.0187">
        <ele>239</ele>
        <time>2000-01-02T00:28:19.000Z</time>
      </trkpt>
      <trkpt lat="47.23812" lon="6.01896">
        <ele>239</ele>
        <time>2000-01-02T00:28:29.000Z</time>
      </trkpt>
      <trkpt lat="47.23839" lon="6.01931">
        <ele>239</ele>
        <time>2000-01-02T00:28:39.000Z</time>
      </trkpt>
      <trkpt lat="47.23863" lon="6.01958">
        <ele>239</ele>
        <time>2000-01-02T00:28:49.000Z</time>
      </trkpt>
      <trkpt lat="47.23887" lon="6.01989">
        <ele>242</ele>
        <time>2000-01-02T00:28:59.000Z</time>
      </trkpt>
      <trkpt lat="47.2391" lon="6.0202">
        <ele>242</ele>
        <time>2000-01-02T00:29:09.000Z</time>
      </trkpt>
      <trkpt lat="47.2394" lon="6.02059">
        <ele>243</ele>
        <time>2000-01-02T00:29:19.000Z</time>
      </trkpt>
      <trkpt lat="47.23968" lon="6.02093">
        <ele>243</ele>
        <time>2000-01-02T00:29:29.000Z</time>
      </trkpt>
      <trkpt lat="47.23995" lon="6.02128">
        <ele>240</ele>
        <time>2000-01-02T00:29:39.000Z</time>
      </trkpt>
      <trkpt lat="47.24023" lon="6.02162">
        <ele>240</ele>
        <time>2000-01-02T00:29:49.000Z</time>
      </trkpt>
      <trkpt lat="47.24043" lon="6.02187">
        <ele>239</ele>
        <time>2000-01-02T00:29:59.000Z</time>
      </trkpt>
      <trkpt lat="47.24072" lon="6.02223">
        <ele>239</ele>
        <time>2000-01-02T00:30:09.000Z</time>
      </trkpt>
      <trkpt lat="47.24105" lon="6.02262">
        <ele>240</ele>
        <time>2000-01-02T00:30:19.000Z</time>
      </trkpt>
      <trkpt lat="47.24125" lon="6.02282">
        <ele>240</ele>
        <time>2000-01-02T00:30:29.000Z</time>
      </trkpt>
      <trkpt lat="47.24146" lon="6.02304">
        <ele>241</ele>
        <time>2000-01-02T00:30:39.000Z</time>
      </trkpt>
      <trkpt lat="47.24158" lon="6.02336">
        <ele>241</ele>
        <time>2000-01-02T00:30:49.000Z</time>
      </trkpt>
      <trkpt lat="47.24173" lon="6.02376">
        <ele>243</ele>
        <time>2000-01-02T00:30:59.000Z</time>
      </trkpt>
      <trkpt lat="47.2418" lon="6.02401">
        <ele>242</ele>
        <time>2000-01-02T00:31:09.000Z</time>
      </trkpt>
      <trkpt lat="47.24183" lon="6.02429">
        <ele>242</ele>
        <time>2000-01-02T00:31:19.000Z</time>
      </trkpt>
      <trkpt lat="47.24184" lon="6.02459">
        <ele>243</ele>
        <time>2000-01-02T00:31:29.000Z</time>
      </trkpt>
      <trkpt lat="47.24182" lon="6.02483">
        <ele>241.9</ele>
        <time>2000-01-02T00:31:39.000Z</time>
      </trkpt>
      <trkpt lat="47.24169" lon="6.02594">
        <ele>244</ele>
        <time>2000-01-02T00:31:49.000Z</time>
      </trkpt>
      <trkpt lat="47.24158" lon="6.02641">
        <ele>244</ele>
        <time>2000-01-02T00:31:59.000Z</time>
      </trkpt>
      <trkpt lat="47.24148" lon="6.02688">
        <ele>244</ele>
        <time>2000-01-02T00:32:09.000Z</time>
      </trkpt>
      <trkpt lat="47.24139" lon="6.02725">
        <ele>244</ele>
        <time>2000-01-02T00:32:19.000Z</time>
      </trkpt>
      <trkpt lat="47.24128" lon="6.02774">
        <ele>242</ele>
        <time>2000-01-02T00:32:29.000Z</time>
      </trkpt>
      <trkpt lat="47.24109" lon="6.028">
        <ele>241</ele>
        <time>2000-01-02T00:32:39.000Z</time>
      </trkpt>
      <trkpt lat="47.24108" lon="6.02818">
        <ele>240.8</ele>
        <time>2000-01-02T00:32:49.000Z</time>
      </trkpt>
      <trkpt lat="47.24102" lon="6.0283">
        <ele>241</ele>
        <time>2000-01-02T00:32:59.000Z</time>
      </trkpt>
      <trkpt lat="47.24089" lon="6.02835">
        <ele>240.9</ele>
        <time>2000-01-02T00:33:09.000Z</time>
      </trkpt>
      <trkpt lat="47.24084" lon="6.02841">
        <ele>241</ele>
        <time>2000-01-02T00:33:19.000Z</time>
      </trkpt>
      <trkpt lat="47.24066" lon="6.02881">
        <ele>241</ele>
        <time>2000-01-02T00:33:29.000Z</time>
      </trkpt>
      <trkpt lat="47.24047" lon="6.02921">
        <ele>241</ele>
        <time>2000-01-02T00:33:39.000Z</time>
      </trkpt>
      <trkpt lat="47.24034" lon="6.02949">
        <ele>244</ele>
        <time>2000-01-02T00:33:49.000Z</time>
      </trkpt>
      <trkpt lat="47.2402" lon="6.0298">
        <ele>247</ele>
        <time>2000-01-02T00:33:59.000Z</time>
      </trkpt>
      <trkpt lat="47.24" lon="6.0302">
        <ele>248</ele>
        <time>2000-01-02T00:34:09.000Z</time>
      </trkpt>
      <trkpt lat="47.23979" lon="6.0306">
        <ele>245</ele>
        <time>2000-01-02T00:34:19.000Z</time>
      </trkpt>
      <trkpt lat="47.23964" lon="6.03091">
        <ele>244</ele>
        <time>2000-01-02T00:34:29.000Z</time>
      </trkpt>
      <trkpt lat="47.23942" lon="6.03133">
        <ele>244</ele>
        <time>2000-01-02T00:34:39.000Z</time>
      </trkpt>
      <trkpt lat="47.23913" lon="6.03164">
        <ele>244</ele>
        <time>2000-01-02T00:34:49.000Z</time>
      </trkpt>
      <trkpt lat="47.23888" lon="6.03187">
        <ele>245</ele>
        <time>2000-01-02T00:34:59.000Z</time>
      </trkpt>
      <trkpt lat="47.23867" lon="6.03207">
        <ele>245</ele>
        <time>2000-01-02T00:35:09.000Z</time>
      </trkpt>
      <trkpt lat="47.23841" lon="6.03231">
        <ele>245</ele>
        <time>2000-01-02T00:35:19.000Z</time>
      </trkpt>
      <trkpt lat="47.23819" lon="6.03254">
        <ele>246</ele>
        <time>2000-01-02T00:35:29.000Z</time>
      </trkpt>
      <trkpt lat="47.23786" lon="6.03288">
        <ele>246</ele>
        <time>2000-01-02T00:35:39.000Z</time>
      </trkpt>
      <trkpt lat="47.23751" lon="6.03315">
        <ele>246</ele>
        <time>2000-01-02T00:35:49.000Z</time>
      </trkpt>
      <trkpt lat="47.23717" lon="6.03338">
        <ele>246</ele>
        <time>2000-01-02T00:35:59.000Z</time>
      </trkpt>
      <trkpt lat="47.23683" lon="6.0336">
        <ele>246</ele>
        <time>2000-01-02T00:36:09.000Z</time>
      </trkpt>
      <trkpt lat="47.2365" lon="6.03383">
        <ele>247</ele>
        <time>2000-01-02T00:36:19.000Z</time>
      </trkpt>
      <trkpt lat="47.23616" lon="6.03406">
        <ele>247</ele>
        <time>2000-01-02T00:36:29.000Z</time>
      </trkpt>
      <trkpt lat="47.23594" lon="6.0342">
        <ele>246</ele>
        <time>2000-01-02T00:36:39.000Z</time>
      </trkpt>
      <trkpt lat="47.23571" lon="6.03436">
        <ele>246</ele>
        <time>2000-01-02T00:36:49.000Z</time>
      </trkpt>
      <trkpt lat="47.23554" lon="6.03437">
        <ele>244.9</ele>
        <time>2000-01-02T00:36:59.000Z</time>
      </trkpt>
      <trkpt lat="47.2352" lon="6.03425">
        <ele>246</ele>
        <time>2000-01-02T00:37:09.000Z</time>
      </trkpt>
      <trkpt lat="47.23492" lon="6.03436">
        <ele>246</ele>
        <time>2000-01-02T00:37:19.000Z</time>
      </trkpt>
      <trkpt lat="47.23473" lon="6.03456">
        <ele>246</ele>
        <time>2000-01-02T00:37:29.000Z</time>
      </trkpt>
      <trkpt lat="47.23452" lon="6.03478">
        <ele>246</ele>
        <time>2000-01-02T00:37:39.000Z</time>
      </trkpt>
      <trkpt lat="47.23438" lon="6.03516">
        <ele>242</ele>
        <time>2000-01-02T00:37:49.000Z</time>
      </trkpt>
      <trkpt lat="47.23427" lon="6.03548">
        <ele>241</ele>
        <time>2000-01-02T00:37:59.000Z</time>
      </trkpt>
      <trkpt lat="47.23413" lon="6.03586">
        <ele>241</ele>
        <time>2000-01-02T00:38:09.000Z</time>
      </trkpt>
      <trkpt lat="47.23399" lon="6.03617">
        <ele>241</ele>
        <time>2000-01-02T00:38:19.000Z</time>
      </trkpt>
      <trkpt lat="47.23382" lon="6.03655">
        <ele>242</ele>
        <time>2000-01-02T00:38:29.000Z</time>
      </trkpt>
      <trkpt lat="47.23345" lon="6.03671">
        <ele>241</ele>
        <time>2000-01-02T00:38:39.000Z</time>
      </trkpt>
      <trkpt lat="47.23306" lon="6.03685">
        <ele>241</ele>
        <time>2000-01-02T00:38:49.000Z</time>
      </trkpt>
      <trkpt lat="47.23274" lon="6.03702">
        <ele>241</ele>
        <time>2000-01-02T00:38:59.000Z</time>
      </trkpt>
      <trkpt lat="47.23242" lon="6.03709">
        <ele>241</ele>
        <time>2000-01-02T00:39:09.000Z</time>
      </trkpt>
      <trkpt lat="47.23204" lon="6.0374">
        <ele>241</ele>
        <time>2000-01-02T00:39:19.000Z</time>
      </trkpt>
      <trkpt lat="47.23179" lon="6.03749">
        <ele>241</ele>
        <time>2000-01-02T00:39:29.000Z</time>
      </trkpt>
      <trkpt lat="47.23148" lon="6.03761">
        <ele>241</ele>
        <time>2000-01-02T00:39:39.000Z</time>
      </trkpt>
      <trkpt lat="47.23126" lon="6.03773">
        <ele>241</ele>
        <time>2000-01-02T00:39:49.000Z</time>
      </trkpt>
      <trkpt lat="47.23102" lon="6.03786">
        <ele>241</ele>
        <time>2000-01-02T00:39:59.000Z</time>
      </trkpt>
      <trkpt lat="47.23082" lon="6.03802">
        <ele>241</ele>
        <time>2000-01-02T00:40:09.000Z</time>
      </trkpt>
      <trkpt lat="47.23062" lon="6.03818">
        <ele>241</ele>
        <time>2000-01-02T00:40:19.000Z</time>
      </trkpt>
      <trkpt lat="47.23027" lon="6.03856">
        <ele>245</ele>
        <time>2000-01-02T00:40:29.000Z</time>
      </trkpt>
      <trkpt lat="47.23004" lon="6.03872">
        <ele>245</ele>
        <time>2000-01-02T00:40:39.000Z</time>
      </trkpt>
      <trkpt lat="47.22978" lon="6.0389">
        <ele>241</ele>
        <time>2000-01-02T00:40:49.000Z</time>
      </trkpt>
      <trkpt lat="47.22953" lon="6.03907">
        <ele>241</ele>
        <time>2000-01-02T00:40:59.000Z</time>
      </trkpt>
      <trkpt lat="47.22911" lon="6.03936">
        <ele>241</ele>
        <time>2000-01-02T00:41:09.000Z</time>
      </trkpt>
      <trkpt lat="47.22887" lon="6.03953">
        <ele>241</ele>
        <time>2000-01-02T00:41:19.000Z</time>
      </trkpt>
      <trkpt lat="47.22858" lon="6.03973">
        <ele>241</ele>
        <time>2000-01-02T00:41:29.000Z</time>
      </trkpt>
      <trkpt lat="47.22839" lon="6.03999">
        <ele>241</ele>
        <time>2000-01-02T00:41:39.000Z</time>
      </trkpt>
      <trkpt lat="47.22813" lon="6.04032">
        <ele>244</ele>
        <time>2000-01-02T00:41:49.000Z</time>
      </trkpt>
      <trkpt lat="47.22832" lon="6.04061">
        <ele>245</ele>
        <time>2000-01-02T00:41:59.000Z</time>
      </trkpt>
      <trkpt lat="47.22859" lon="6.041">
        <ele>246</ele>
        <time>2000-01-02T00:42:09.000Z</time>
      </trkpt>
      <trkpt lat="47.22873" lon="6.04128">
        <ele>246</ele>
        <time>2000-01-02T00:42:19.000Z</time>
      </trkpt>
      <trkpt lat="47.22887" lon="6.04156">
        <ele>246</ele>
        <time>2000-01-02T00:42:29.000Z</time>
      </trkpt>
      <trkpt lat="47.22871" lon="6.04173">
        <ele>246</ele>
        <time>2000-01-02T00:42:39.000Z</time>
      </trkpt>
      <trkpt lat="47.22867" lon="6.04182">
        <ele>246</ele>
        <time>2000-01-02T00:42:49.000Z</time>
      </trkpt>
    </trkseg>
  </trk>
</gpx>